﻿<?xml version="1.0" encoding="utf-8"?><gpx creator="Garmin Desktop App" version="1.1" xsi:schemaLocation="http://www.topografix.com/GPX/1/1 http://www.topografix.com/GPX/1/1/gpx.xsd http://www.garmin.com/xmlschemas/WaypointExtension/v1 http://www8.garmin.com/xmlschemas/WaypointExtensionv1.xsd http://www.garmin.com/xmlschemas/TrackPointExtension/v1 http://www.garmin.com/xmlschemas/TrackPointExtensionv1.xsd http://www.garmin.com/xmlschemas/GpxExtensions/v3 http://www8.garmin.com/xmlschemas/GpxExtensionsv3.xsd http://www.garmin.com/xmlschemas/ActivityExtension/v1 http://www8.garmin.com/xmlschemas/ActivityExtensionv1.xsd http://www.garmin.com/xmlschemas/AdventuresExtensions/v1 http://www8.garmin.com/xmlschemas/AdventuresExtensionv1.xsd http://www.garmin.com/xmlschemas/PressureExtension/v1 http://www.garmin.com/xmlschemas/PressureExtensionv1.xsd http://www.garmin.com/xmlschemas/TripExtensions/v1 http://www.garmin.com/xmlschemas/TripExtensionsv1.xsd http://www.garmin.com/xmlschemas/TripMetaDataExtensions/v1 http://www.garmin.com/xmlschemas/TripMetaDataExtensionsv1.xsd http://www.garmin.com/xmlschemas/ViaPointTransportationModeExtensions/v1 http://www.garmin.com/xmlschemas/ViaPointTransportationModeExtensionsv1.xsd http://www.garmin.com/xmlschemas/CreationTimeExtension/v1 http://www.garmin.com/xmlschemas/CreationTimeExtensionsv1.xsd http://www.garmin.com/xmlschemas/AccelerationExtension/v1 http://www.garmin.com/xmlschemas/AccelerationExtensionv1.xsd http://www.garmin.com/xmlschemas/PowerExtension/v1 http://www.garmin.com/xmlschemas/PowerExtensionv1.xsd http://www.garmin.com/xmlschemas/VideoExtension/v1 http://www.garmin.com/xmlschemas/VideoExtensionv1.xsd" xmlns="http://www.topografix.com/GPX/1/1" xmlns:xsi="http://www.w3.org/2001/XMLSchema-instance" xmlns:wptx1="http://www.garmin.com/xmlschemas/WaypointExtension/v1" xmlns:gpxtrx="http://www.garmin.com/xmlschemas/GpxExtensions/v3" xmlns:gpxtpx="http://www.garmin.com/xmlschemas/TrackPointExtension/v1" xmlns:gpxx="http://www.garmin.com/xmlschemas/GpxExtensions/v3" xmlns:trp="http://www.garmin.com/xmlschemas/TripExtensions/v1" xmlns:adv="http://www.garmin.com/xmlschemas/AdventuresExtensions/v1" xmlns:prs="http://www.garmin.com/xmlschemas/PressureExtension/v1" xmlns:tmd="http://www.garmin.com/xmlschemas/TripMetaDataExtensions/v1" xmlns:vptm="http://www.garmin.com/xmlschemas/ViaPointTransportationModeExtensions/v1" xmlns:ctx="http://www.garmin.com/xmlschemas/CreationTimeExtension/v1" xmlns:gpxacc="http://www.garmin.com/xmlschemas/AccelerationExtension/v1" xmlns:gpxpx="http://www.garmin.com/xmlschemas/PowerExtension/v1" xmlns:vidx1="http://www.garmin.com/xmlschemas/VideoExtension/v1">

  <metadata>
    <link href="http://www.garmin.com">
      <text>Garmin International</text>
    </link>
    <time>2026-06-26T20:27:49Z</time>
    <bounds maxlat="52.665303004905581" maxlon="-6.72141102142632" minlat="52.098018983379006" minlon="-9.515857994556427" />
  </metadata>

  <trk>
    <name>Track vom: 2026-06-26 09:25</name>
    <extensions>
      <gpxx:TrackExtension>
        <gpxx:DisplayColor>DarkGray</gpxx:DisplayColor>
      </gpxx:TrackExtension>
    </extensions>
    <trkseg>
      <trkpt lat="52.320699999108911" lon="-6.722247032448649">
        <ele>39.549999999999997</ele>
        <time>2026-06-26T08:25:40Z</time>
      </trkpt>
      <trkpt lat="52.320665968582034" lon="-6.722031030803919">
        <ele>31.859999999999999</ele>
        <time>2026-06-26T08:26:43Z</time>
      </trkpt>
      <trkpt lat="52.320667980238795" lon="-6.722038993611932">
        <ele>37.630000000000003</ele>
        <time>2026-06-26T08:27:29Z</time>
      </trkpt>
      <trkpt lat="52.320663034915924" lon="-6.722038993611932">
        <ele>37.149999999999999</ele>
        <time>2026-06-26T08:28:21Z</time>
      </trkpt>
      <trkpt lat="52.320669991895556" lon="-6.722038993611932">
        <ele>37.149999999999999</ele>
        <time>2026-06-26T08:29:15Z</time>
      </trkpt>
      <trkpt lat="52.320672003552318" lon="-6.722045028582215">
        <ele>37.149999999999999</ele>
        <time>2026-06-26T08:30:05Z</time>
      </trkpt>
      <trkpt lat="52.320679966360331" lon="-6.722045028582215">
        <ele>36.670000000000002</ele>
        <time>2026-06-26T08:30:55Z</time>
      </trkpt>
      <trkpt lat="52.320679966360331" lon="-6.722032958641648">
        <ele>37.630000000000003</ele>
        <time>2026-06-26T08:31:18Z</time>
      </trkpt>
      <trkpt lat="52.320674015209079" lon="-6.722002029418945">
        <ele>37.630000000000003</ele>
        <time>2026-06-26T08:31:20Z</time>
      </trkpt>
      <trkpt lat="52.320673009380698" lon="-6.721698017790914">
        <ele>39.07</ele>
        <time>2026-06-26T08:31:30Z</time>
      </trkpt>
      <trkpt lat="52.320611989125609" lon="-6.72141102142632">
        <ele>39.07</ele>
        <time>2026-06-26T08:31:32Z</time>
      </trkpt>
      <trkpt lat="52.320584999397397" lon="-6.721419990062714">
        <ele>39.07</ele>
        <time>2026-06-26T08:31:33Z</time>
      </trkpt>
      <trkpt lat="52.320546023547649" lon="-6.72143398784101">
        <ele>38.590000000000003</ele>
        <time>2026-06-26T08:31:34Z</time>
      </trkpt>
      <trkpt lat="52.320416020229459" lon="-6.721463995054364">
        <ele>37.630000000000003</ele>
        <time>2026-06-26T08:31:37Z</time>
      </trkpt>
      <trkpt lat="52.320280987769365" lon="-6.721458965912461">
        <ele>37.149999999999999</ele>
        <time>2026-06-26T08:31:39Z</time>
      </trkpt>
      <trkpt lat="52.320132041350007" lon="-6.72145402058959">
        <ele>36.189999999999998</ele>
        <time>2026-06-26T08:31:41Z</time>
      </trkpt>
      <trkpt lat="52.320059034973383" lon="-6.721451003104448">
        <ele>35.710000000000001</ele>
        <time>2026-06-26T08:31:42Z</time>
      </trkpt>
      <trkpt lat="52.319992985576391" lon="-6.721448991447687">
        <ele>35.229999999999997</ele>
        <time>2026-06-26T08:31:43Z</time>
      </trkpt>
      <trkpt lat="52.319931965321302" lon="-6.721445973962545">
        <ele>34.740000000000002</ele>
        <time>2026-06-26T08:31:44Z</time>
      </trkpt>
      <trkpt lat="52.319858036935329" lon="-6.721447985619307">
        <ele>34.259999999999998</ele>
        <time>2026-06-26T08:31:45Z</time>
      </trkpt>
      <trkpt lat="52.319801962003112" lon="-6.721458965912461">
        <ele>34.259999999999998</ele>
        <time>2026-06-26T08:31:46Z</time>
      </trkpt>
      <trkpt lat="52.319698026403785" lon="-6.721480004489422">
        <ele>34.259999999999998</ele>
        <time>2026-06-26T08:31:48Z</time>
      </trkpt>
      <trkpt lat="52.319643963128328" lon="-6.721490984782577">
        <ele>33.780000000000001</ele>
        <time>2026-06-26T08:31:49Z</time>
      </trkpt>
      <trkpt lat="52.319577997550368" lon="-6.721503976732492">
        <ele>33.780000000000001</ele>
        <time>2026-06-26T08:31:50Z</time>
      </trkpt>
      <trkpt lat="52.319099977612495" lon="-6.721703968942165">
        <ele>31.379999999999999</ele>
        <time>2026-06-26T08:31:56Z</time>
      </trkpt>
      <trkpt lat="52.318673003464937" lon="-6.721917958930135">
        <ele>30.420000000000002</ele>
        <time>2026-06-26T08:32:01Z</time>
      </trkpt>
      <trkpt lat="52.31859102845192" lon="-6.721959030255675">
        <ele>30.420000000000002</ele>
        <time>2026-06-26T08:32:02Z</time>
      </trkpt>
      <trkpt lat="52.31824804097414" lon="-6.722130021080375">
        <ele>29.460000000000001</ele>
        <time>2026-06-26T08:32:06Z</time>
      </trkpt>
      <trkpt lat="52.317629959434271" lon="-6.722469991073012">
        <ele>25.609999999999999</ele>
        <time>2026-06-26T08:32:13Z</time>
      </trkpt>
      <trkpt lat="52.317538009956479" lon="-6.722521036863327">
        <ele>25.129999999999999</ele>
        <time>2026-06-26T08:32:14Z</time>
      </trkpt>
      <trkpt lat="52.31715202331543" lon="-6.722731003537774">
        <ele>24.170000000000002</ele>
        <time>2026-06-26T08:32:18Z</time>
      </trkpt>
      <trkpt lat="52.317054038867354" lon="-6.722777020186186">
        <ele>23.210000000000001</ele>
        <time>2026-06-26T08:32:19Z</time>
      </trkpt>
      <trkpt lat="52.316955970600247" lon="-6.722823036834598">
        <ele>22.73</ele>
        <time>2026-06-26T08:32:20Z</time>
      </trkpt>
      <trkpt lat="52.315889038145542" lon="-6.723279012367129">
        <ele>17.920000000000002</ele>
        <time>2026-06-26T08:32:30Z</time>
      </trkpt>
      <trkpt lat="52.314911037683487" lon="-6.723659969866276">
        <ele>16.48</ele>
        <time>2026-06-26T08:32:39Z</time>
      </trkpt>
      <trkpt lat="52.31481003575027" lon="-6.723700035363436">
        <ele>16</ele>
        <time>2026-06-26T08:32:40Z</time>
      </trkpt>
      <trkpt lat="52.314719008281827" lon="-6.723734987899661">
        <ele>15.52</ele>
        <time>2026-06-26T08:32:41Z</time>
      </trkpt>
      <trkpt lat="52.314624963328242" lon="-6.723772035911679">
        <ele>14.56</ele>
        <time>2026-06-26T08:32:42Z</time>
      </trkpt>
      <trkpt lat="52.314527984708548" lon="-6.723810005933046">
        <ele>13.6</ele>
        <time>2026-06-26T08:32:43Z</time>
      </trkpt>
      <trkpt lat="52.313914010301232" lon="-6.724048973992467">
        <ele>5.91</ele>
        <time>2026-06-26T08:32:49Z</time>
      </trkpt>
      <trkpt lat="52.313691973686218" lon="-6.724088033661246">
        <ele>4.46</ele>
        <time>2026-06-26T08:32:51Z</time>
      </trkpt>
      <trkpt lat="52.312693018466234" lon="-6.724003963172436">
        <ele>0.14</ele>
        <time>2026-06-26T08:33:00Z</time>
      </trkpt>
      <trkpt lat="52.312595034018159" lon="-6.723985020071268">
        <ele>-0.34</ele>
        <time>2026-06-26T08:33:01Z</time>
      </trkpt>
      <trkpt lat="52.312505012378097" lon="-6.723966998979449">
        <ele>-0.82</ele>
        <time>2026-06-26T08:33:02Z</time>
      </trkpt>
      <trkpt lat="52.312415996566415" lon="-6.723949983716011">
        <ele>-1.3</ele>
        <time>2026-06-26T08:33:03Z</time>
      </trkpt>
      <trkpt lat="52.312323963269591" lon="-6.723931040614843">
        <ele>-1.79</ele>
        <time>2026-06-26T08:33:04Z</time>
      </trkpt>
      <trkpt lat="52.311853989958763" lon="-6.72383900731802">
        <ele>-10.44</ele>
        <time>2026-06-26T08:33:10Z</time>
      </trkpt>
      <trkpt lat="52.311799004673958" lon="-6.723828027024865">
        <ele>-11.880000000000001</ele>
        <time>2026-06-26T08:33:11Z</time>
      </trkpt>
      <trkpt lat="52.311766985803843" lon="-6.723820986226201">
        <ele>-13.32</ele>
        <time>2026-06-26T08:33:12Z</time>
      </trkpt>
      <trkpt lat="52.311736978590488" lon="-6.72381604090333">
        <ele>-14.76</ele>
        <time>2026-06-26T08:33:13Z</time>
      </trkpt>
      <trkpt lat="52.311705965548754" lon="-6.723809000104666">
        <ele>-15.720000000000001</ele>
        <time>2026-06-26T08:33:14Z</time>
      </trkpt>
      <trkpt lat="52.31165299192071" lon="-6.723799025639892">
        <ele>-16.690000000000001</ele>
        <time>2026-06-26T08:33:15Z</time>
      </trkpt>
      <trkpt lat="52.311574034392834" lon="-6.723783016204834">
        <ele>-17.649999999999999</ele>
        <time>2026-06-26T08:33:16Z</time>
      </trkpt>
      <trkpt lat="52.31128896586597" lon="-6.723888963460922">
        <ele>-17.649999999999999</ele>
        <time>2026-06-26T08:33:19Z</time>
      </trkpt>
      <trkpt lat="52.31120296753943" lon="-6.723948977887631">
        <ele>-17.170000000000002</ele>
        <time>2026-06-26T08:33:20Z</time>
      </trkpt>
      <trkpt lat="52.311080005019903" lon="-6.724075963720679">
        <ele>-17.170000000000002</ele>
        <time>2026-06-26T08:33:21Z</time>
      </trkpt>
      <trkpt lat="52.311038011685014" lon="-6.724189035594463">
        <ele>-16.690000000000001</ele>
        <time>2026-06-26T08:33:22Z</time>
      </trkpt>
      <trkpt lat="52.310974979773164" lon="-6.72441903501749">
        <ele>-16.210000000000001</ele>
        <time>2026-06-26T08:33:23Z</time>
      </trkpt>
      <trkpt lat="52.310979003086686" lon="-6.724545015022159">
        <ele>-15.720000000000001</ele>
        <time>2026-06-26T08:33:24Z</time>
      </trkpt>
      <trkpt lat="52.31098797172308" lon="-6.724824970588088">
        <ele>-15.24</ele>
        <time>2026-06-26T08:33:26Z</time>
      </trkpt>
      <trkpt lat="52.310993000864983" lon="-6.724970983341336">
        <ele>-14.76</ele>
        <time>2026-06-26T08:33:27Z</time>
      </trkpt>
      <trkpt lat="52.310998030006886" lon="-6.725111966952682">
        <ele>-14.76</ele>
        <time>2026-06-26T08:33:28Z</time>
      </trkpt>
      <trkpt lat="52.311002975329757" lon="-6.725253034383059">
        <ele>-14.76</ele>
        <time>2026-06-26T08:33:29Z</time>
      </trkpt>
      <trkpt lat="52.31100800447166" lon="-6.725397035479546">
        <ele>-14.279999999999999</ele>
        <time>2026-06-26T08:33:30Z</time>
      </trkpt>
      <trkpt lat="52.311089979484677" lon="-6.726907035335898">
        <ele>-3.71</ele>
        <time>2026-06-26T08:33:40Z</time>
      </trkpt>
      <trkpt lat="52.311182012781501" lon="-6.728820037096739">
        <ele>4.94</ele>
        <time>2026-06-26T08:33:48Z</time>
      </trkpt>
      <trkpt lat="52.311555007472634" lon="-6.731312982738018">
        <ele>17.440000000000001</ele>
        <time>2026-06-26T08:33:59Z</time>
      </trkpt>
      <trkpt lat="52.31165299192071" lon="-6.732235997915268">
        <ele>21.289999999999999</ele>
        <time>2026-06-26T08:34:03Z</time>
      </trkpt>
      <trkpt lat="52.311727004125714" lon="-6.733867032453418">
        <ele>26.57</ele>
        <time>2026-06-26T08:34:11Z</time>
      </trkpt>
      <trkpt lat="52.311735972762108" lon="-6.734047997742891">
        <ele>27.050000000000001</ele>
        <time>2026-06-26T08:34:13Z</time>
      </trkpt>
      <trkpt lat="52.31173999607563" lon="-6.734123015776277">
        <ele>27.530000000000001</ele>
        <time>2026-06-26T08:34:14Z</time>
      </trkpt>
      <trkpt lat="52.311689034104347" lon="-6.734248995780945">
        <ele>28.02</ele>
        <time>2026-06-26T08:34:15Z</time>
      </trkpt>
      <trkpt lat="52.311637988314033" lon="-6.734262993559241">
        <ele>28.02</ele>
        <time>2026-06-26T08:34:16Z</time>
      </trkpt>
      <trkpt lat="52.311570011079311" lon="-6.734282020479441">
        <ele>28.5</ele>
        <time>2026-06-26T08:34:17Z</time>
      </trkpt>
      <trkpt lat="52.311491975560784" lon="-6.73430398106575">
        <ele>28.98</ele>
        <time>2026-06-26T08:34:18Z</time>
      </trkpt>
      <trkpt lat="52.310616988688707" lon="-6.734548984095454">
        <ele>29.940000000000001</ele>
        <time>2026-06-26T08:34:26Z</time>
      </trkpt>
      <trkpt lat="52.309030964970589" lon="-6.734993979334831">
        <ele>30.899999999999999</ele>
        <time>2026-06-26T08:34:38Z</time>
      </trkpt>
      <trkpt lat="52.308501983061433" lon="-6.735142003744841">
        <ele>29.940000000000001</ele>
        <time>2026-06-26T08:34:43Z</time>
      </trkpt>
      <trkpt lat="52.30840902775526" lon="-6.735167987644672">
        <ele>29.940000000000001</ele>
        <time>2026-06-26T08:34:44Z</time>
      </trkpt>
      <trkpt lat="52.308340966701508" lon="-6.735278964042664">
        <ele>29.940000000000001</ele>
        <time>2026-06-26T08:34:45Z</time>
      </trkpt>
      <trkpt lat="52.308296039700508" lon="-6.735409973189235">
        <ele>30.420000000000002</ele>
        <time>2026-06-26T08:34:46Z</time>
      </trkpt>
      <trkpt lat="52.308247005566955" lon="-6.735551040619612">
        <ele>30.420000000000002</ele>
        <time>2026-06-26T08:34:47Z</time>
      </trkpt>
      <trkpt lat="52.308196965605021" lon="-6.735695963725448">
        <ele>29.940000000000001</ele>
        <time>2026-06-26T08:34:48Z</time>
      </trkpt>
      <trkpt lat="52.308143991976976" lon="-6.735850023105741">
        <ele>29.940000000000001</ele>
        <time>2026-06-26T08:34:49Z</time>
      </trkpt>
      <trkpt lat="52.307466985657811" lon="-6.737772999331355">
        <ele>24.649999999999999</ele>
        <time>2026-06-26T08:35:00Z</time>
      </trkpt>
      <trkpt lat="52.307126009836793" lon="-6.73864396288991">
        <ele>23.210000000000001</ele>
        <time>2026-06-26T08:35:05Z</time>
      </trkpt>
      <trkpt lat="52.305934019386768" lon="-6.740674981847405">
        <ele>20.32</ele>
        <time>2026-06-26T08:35:17Z</time>
      </trkpt>
      <trkpt lat="52.305546021088958" lon="-6.741409990936518">
        <ele>18.399999999999999</ele>
        <time>2026-06-26T08:35:21Z</time>
      </trkpt>
      <trkpt lat="52.304746974259615" lon="-6.743600014597178">
        <ele>9.75</ele>
        <time>2026-06-26T08:35:32Z</time>
      </trkpt>
      <trkpt lat="52.30409000068903" lon="-6.745636984705925">
        <ele>10.710000000000001</ele>
        <time>2026-06-26T08:35:43Z</time>
      </trkpt>
      <trkpt lat="52.303449958562851" lon="-6.747406991198659">
        <ele>16.960000000000001</ele>
        <time>2026-06-26T08:35:53Z</time>
      </trkpt>
      <trkpt lat="52.302678991109133" lon="-6.749297026544809">
        <ele>26.09</ele>
        <time>2026-06-26T08:36:02Z</time>
      </trkpt>
      <trkpt lat="52.302118996158242" lon="-6.750540984794498">
        <ele>31.379999999999999</ele>
        <time>2026-06-26T08:36:09Z</time>
      </trkpt>
      <trkpt lat="52.302036015316844" lon="-6.750669982284308">
        <ele>31.859999999999999</ele>
        <time>2026-06-26T08:36:10Z</time>
      </trkpt>
      <trkpt lat="52.301950016990304" lon="-6.75080300308764">
        <ele>32.340000000000003</ele>
        <time>2026-06-26T08:36:11Z</time>
      </trkpt>
      <trkpt lat="52.301431009545922" lon="-6.751402979716659">
        <ele>35.229999999999997</ele>
        <time>2026-06-26T08:36:16Z</time>
      </trkpt>
      <trkpt lat="52.301326990127563" lon="-6.751523008570075">
        <ele>36.189999999999998</ele>
        <time>2026-06-26T08:36:17Z</time>
      </trkpt>
      <trkpt lat="52.301223976537585" lon="-6.75164102576673">
        <ele>37.630000000000003</ele>
        <time>2026-06-26T08:36:18Z</time>
      </trkpt>
      <trkpt lat="52.301119035109878" lon="-6.751761976629496">
        <ele>38.109999999999999</ele>
        <time>2026-06-26T08:36:19Z</time>
      </trkpt>
      <trkpt lat="52.301008980721235" lon="-6.751888040453196">
        <ele>39.07</ele>
        <time>2026-06-26T08:36:20Z</time>
      </trkpt>
      <trkpt lat="52.300140028819442" lon="-6.752775013446808">
        <ele>42.920000000000002</ele>
        <time>2026-06-26T08:36:28Z</time>
      </trkpt>
      <trkpt lat="52.299824031069875" lon="-6.753024961799383">
        <ele>45.32</ele>
        <time>2026-06-26T08:36:33Z</time>
      </trkpt>
      <trkpt lat="52.299493029713631" lon="-6.753217997029424">
        <ele>46.759999999999998</ele>
        <time>2026-06-26T08:36:38Z</time>
      </trkpt>
      <trkpt lat="52.298582000657916" lon="-6.753358980640769">
        <ele>49.649999999999999</ele>
        <time>2026-06-26T08:36:45Z</time>
      </trkpt>
      <trkpt lat="52.296733036637306" lon="-6.753645977005363">
        <ele>53.009999999999998</ele>
        <time>2026-06-26T08:36:56Z</time>
      </trkpt>
      <trkpt lat="52.2954330034554" lon="-6.753847980871797">
        <ele>54.93</ele>
        <time>2026-06-26T08:37:04Z</time>
      </trkpt>
      <trkpt lat="52.293522013351321" lon="-6.754144029691815">
        <ele>59.259999999999998</ele>
        <time>2026-06-26T08:37:14Z</time>
      </trkpt>
      <trkpt lat="52.291223024949431" lon="-6.754530016332865">
        <ele>62.619999999999997</ele>
        <time>2026-06-26T08:37:26Z</time>
      </trkpt>
      <trkpt lat="52.289541028439999" lon="-6.754663959145546">
        <ele>66.469999999999999</ele>
        <time>2026-06-26T08:37:35Z</time>
      </trkpt>
      <trkpt lat="52.28786900639534" lon="-6.754245031625032">
        <ele>66.469999999999999</ele>
        <time>2026-06-26T08:37:44Z</time>
      </trkpt>
      <trkpt lat="52.287703966721892" lon="-6.754135983064771">
        <ele>66.469999999999999</ele>
        <time>2026-06-26T08:37:45Z</time>
      </trkpt>
      <trkpt lat="52.286368981003761" lon="-6.752965031191707">
        <ele>64.549999999999997</ele>
        <time>2026-06-26T08:37:53Z</time>
      </trkpt>
      <trkpt lat="52.286221962422132" lon="-6.752835027873516">
        <ele>64.069999999999993</ele>
        <time>2026-06-26T08:37:54Z</time>
      </trkpt>
      <trkpt lat="52.28606496937573" lon="-6.752811977639794">
        <ele>64.069999999999993</ele>
        <time>2026-06-26T08:37:55Z</time>
      </trkpt>
      <trkpt lat="52.285904036834836" lon="-6.752786999568343">
        <ele>63.579999999999998</ele>
        <time>2026-06-26T08:37:56Z</time>
      </trkpt>
      <trkpt lat="52.285734973847866" lon="-6.752762021496892">
        <ele>63.100000000000001</ele>
        <time>2026-06-26T08:37:57Z</time>
      </trkpt>
      <trkpt lat="52.284254981204867" lon="-6.752820024266839">
        <ele>60.700000000000003</ele>
        <time>2026-06-26T08:38:05Z</time>
      </trkpt>
      <trkpt lat="52.282556975260377" lon="-6.752966037020087">
        <ele>60.700000000000003</ele>
        <time>2026-06-26T08:38:15Z</time>
      </trkpt>
      <trkpt lat="52.281501023098826" lon="-6.753738010302186">
        <ele>60.219999999999999</ele>
        <time>2026-06-26T08:38:22Z</time>
      </trkpt>
      <trkpt lat="52.280319007113576" lon="-6.754932012408972">
        <ele>55.890000000000001</ele>
        <time>2026-06-26T08:38:30Z</time>
      </trkpt>
      <trkpt lat="52.280181962996721" lon="-6.755071990191937">
        <ele>55.409999999999997</ele>
        <time>2026-06-26T08:38:31Z</time>
      </trkpt>
      <trkpt lat="52.280028993263841" lon="-6.75516402348876">
        <ele>55.409999999999997</ele>
        <time>2026-06-26T08:38:32Z</time>
      </trkpt>
      <trkpt lat="52.279879041016102" lon="-6.755253961309791">
        <ele>55.409999999999997</ele>
        <time>2026-06-26T08:38:33Z</time>
      </trkpt>
      <trkpt lat="52.279722969979048" lon="-6.755321016535163">
        <ele>54.93</ele>
        <time>2026-06-26T08:38:34Z</time>
      </trkpt>
      <trkpt lat="52.279559019953012" lon="-6.755359992384911">
        <ele>54.93</ele>
        <time>2026-06-26T08:38:35Z</time>
      </trkpt>
      <trkpt lat="52.278748992830515" lon="-6.755550010129809">
        <ele>53.490000000000002</ele>
        <time>2026-06-26T08:38:40Z</time>
      </trkpt>
      <trkpt lat="52.278596023097634" lon="-6.755520002916455">
        <ele>53.009999999999998</ele>
        <time>2026-06-26T08:38:41Z</time>
      </trkpt>
      <trkpt lat="52.278441963717341" lon="-6.755458982661367">
        <ele>52.530000000000001</ele>
        <time>2026-06-26T08:38:42Z</time>
      </trkpt>
      <trkpt lat="52.277058027684689" lon="-6.755013987421989">
        <ele>49.649999999999999</ele>
        <time>2026-06-26T08:38:50Z</time>
      </trkpt>
      <trkpt lat="52.276383033022285" lon="-6.754904016852379">
        <ele>47.719999999999999</ele>
        <time>2026-06-26T08:38:54Z</time>
      </trkpt>
      <trkpt lat="52.276226039975882" lon="-6.754941986873746">
        <ele>47.240000000000002</ele>
        <time>2026-06-26T08:38:55Z</time>
      </trkpt>
      <trkpt lat="52.276072986423969" lon="-6.755004012957215">
        <ele>46.280000000000001</ele>
        <time>2026-06-26T08:38:56Z</time>
      </trkpt>
      <trkpt lat="52.275916999205947" lon="-6.755066039040685">
        <ele>45.32</ele>
        <time>2026-06-26T08:38:57Z</time>
      </trkpt>
      <trkpt lat="52.275766041129827" lon="-6.755170980468392">
        <ele>44.840000000000003</ele>
        <time>2026-06-26T08:38:58Z</time>
      </trkpt>
      <trkpt lat="52.274164007976651" lon="-6.756164990365505">
        <ele>42.920000000000002</ele>
        <time>2026-06-26T08:39:08Z</time>
      </trkpt>
      <trkpt lat="52.272708993405104" lon="-6.756913997232914">
        <ele>38.109999999999999</ele>
        <time>2026-06-26T08:39:17Z</time>
      </trkpt>
      <trkpt lat="52.271653963252902" lon="-6.757353041321039">
        <ele>34.259999999999998</ele>
        <time>2026-06-26T08:39:24Z</time>
      </trkpt>
      <trkpt lat="52.271506022661924" lon="-6.757369972765446">
        <ele>33.780000000000001</ele>
        <time>2026-06-26T08:39:25Z</time>
      </trkpt>
      <trkpt lat="52.271363027393818" lon="-6.757337031885982">
        <ele>33.299999999999997</ele>
        <time>2026-06-26T08:39:26Z</time>
      </trkpt>
      <trkpt lat="52.271227994933724" lon="-6.757269976660609">
        <ele>33.299999999999997</ele>
        <time>2026-06-26T08:39:27Z</time>
      </trkpt>
      <trkpt lat="52.271094974130392" lon="-6.757169980555773">
        <ele>33.299999999999997</ele>
        <time>2026-06-26T08:39:28Z</time>
      </trkpt>
      <trkpt lat="52.270962037146091" lon="-6.757069984450936">
        <ele>33.299999999999997</ele>
        <time>2026-06-26T08:39:29Z</time>
      </trkpt>
      <trkpt lat="52.270453004166484" lon="-6.756521975621581">
        <ele>34.259999999999998</ele>
        <time>2026-06-26T08:39:33Z</time>
      </trkpt>
      <trkpt lat="52.270348984748125" lon="-6.75632500089705">
        <ele>33.780000000000001</ele>
        <time>2026-06-26T08:39:34Z</time>
      </trkpt>
      <trkpt lat="52.269720006734133" lon="-6.755079030990601">
        <ele>34.740000000000002</ele>
        <time>2026-06-26T08:39:41Z</time>
      </trkpt>
      <trkpt lat="52.268926994875073" lon="-6.753624016419053">
        <ele>32.340000000000003</ele>
        <time>2026-06-26T08:39:51Z</time>
      </trkpt>
      <trkpt lat="52.268302040174603" lon="-6.752322977408767">
        <ele>26.09</ele>
        <time>2026-06-26T08:40:00Z</time>
      </trkpt>
      <trkpt lat="52.268201960250735" lon="-6.752133965492249">
        <ele>24.170000000000002</ele>
        <time>2026-06-26T08:40:02Z</time>
      </trkpt>
      <trkpt lat="52.268163990229368" lon="-6.752060037106276">
        <ele>23.690000000000001</ele>
        <time>2026-06-26T08:40:03Z</time>
      </trkpt>
      <trkpt lat="52.268123002722859" lon="-6.752015026286244">
        <ele>23.210000000000001</ele>
        <time>2026-06-26T08:40:04Z</time>
      </trkpt>
      <trkpt lat="52.268078997731209" lon="-6.752000022679567">
        <ele>22.73</ele>
        <time>2026-06-26T08:40:05Z</time>
      </trkpt>
      <trkpt lat="52.268047984689474" lon="-6.751982001587749">
        <ele>22.25</ele>
        <time>2026-06-26T08:40:06Z</time>
      </trkpt>
      <trkpt lat="52.268078997731209" lon="-6.752000022679567">
        <ele>21.289999999999999</ele>
        <time>2026-06-26T08:40:07Z</time>
      </trkpt>
      <trkpt lat="52.267958968877792" lon="-6.752035981044173">
        <ele>21.289999999999999</ele>
        <time>2026-06-26T08:40:08Z</time>
      </trkpt>
      <trkpt lat="52.267947988584638" lon="-6.752119967713952">
        <ele>20.809999999999999</ele>
        <time>2026-06-26T08:40:09Z</time>
      </trkpt>
      <trkpt lat="52.267932984977961" lon="-6.752235973253846">
        <ele>20.32</ele>
        <time>2026-06-26T08:40:10Z</time>
      </trkpt>
      <trkpt lat="52.267914041876793" lon="-6.752377040684223">
        <ele>19.84</ele>
        <time>2026-06-26T08:40:11Z</time>
      </trkpt>
      <trkpt lat="52.267541969195008" lon="-6.753673972561956">
        <ele>20.809999999999999</ele>
        <time>2026-06-26T08:40:18Z</time>
      </trkpt>
      <trkpt lat="52.267275005578995" lon="-6.755618993192911">
        <ele>18.879999999999999</ele>
        <time>2026-06-26T08:40:27Z</time>
      </trkpt>
      <trkpt lat="52.267074007540941" lon="-6.758015966042876">
        <ele>16</ele>
        <time>2026-06-26T08:40:40Z</time>
      </trkpt>
      <trkpt lat="52.266882983967662" lon="-6.760485023260117">
        <ele>13.6</ele>
        <time>2026-06-26T08:40:51Z</time>
      </trkpt>
      <trkpt lat="52.266805032268167" lon="-6.762185962870717">
        <ele>15.039999999999999</ele>
        <time>2026-06-26T08:40:59Z</time>
      </trkpt>
      <trkpt lat="52.266730014234781" lon="-6.764512024819851">
        <ele>14.08</ele>
        <time>2026-06-26T08:41:09Z</time>
      </trkpt>
      <trkpt lat="52.266520969569683" lon="-6.767702009528875">
        <ele>13.6</ele>
        <time>2026-06-26T08:41:21Z</time>
      </trkpt>
      <trkpt lat="52.266566986218095" lon="-6.770108034834266">
        <ele>13.119999999999999</ele>
        <time>2026-06-26T08:41:30Z</time>
      </trkpt>
      <trkpt lat="52.267014998942614" lon="-6.771779973059893">
        <ele>12.630000000000001</ele>
        <time>2026-06-26T08:41:37Z</time>
      </trkpt>
      <trkpt lat="52.267428981140256" lon="-6.772608021274209">
        <ele>12.15</ele>
        <time>2026-06-26T08:41:42Z</time>
      </trkpt>
      <trkpt lat="52.267490001395345" lon="-6.772729977965355">
        <ele>11.67</ele>
        <time>2026-06-26T08:41:43Z</time>
      </trkpt>
      <trkpt lat="52.267492013052106" lon="-6.77286702208221">
        <ele>11.67</ele>
        <time>2026-06-26T08:41:44Z</time>
      </trkpt>
      <trkpt lat="52.267481032758951" lon="-6.773024015128613">
        <ele>11.19</ele>
        <time>2026-06-26T08:41:45Z</time>
      </trkpt>
      <trkpt lat="52.267469968646765" lon="-6.773195005953312">
        <ele>11.19</ele>
        <time>2026-06-26T08:41:46Z</time>
      </trkpt>
      <trkpt lat="52.267456976696849" lon="-6.773390974849463">
        <ele>10.23</ele>
        <time>2026-06-26T08:41:47Z</time>
      </trkpt>
      <trkpt lat="52.267459994181991" lon="-6.773610999807715">
        <ele>9.75</ele>
        <time>2026-06-26T08:41:48Z</time>
      </trkpt>
      <trkpt lat="52.267457982525229" lon="-6.775902025401592">
        <ele>8.310000000000001</ele>
        <time>2026-06-26T08:41:57Z</time>
      </trkpt>
      <trkpt lat="52.267408026382327" lon="-6.776395970955491">
        <ele>9.27</ele>
        <time>2026-06-26T08:41:59Z</time>
      </trkpt>
      <trkpt lat="52.267338959500194" lon="-6.776623036712408">
        <ele>10.23</ele>
        <time>2026-06-26T08:42:00Z</time>
      </trkpt>
      <trkpt lat="52.267267964780331" lon="-6.776853958144784">
        <ele>10.710000000000001</ele>
        <time>2026-06-26T08:42:01Z</time>
      </trkpt>
      <trkpt lat="52.266408987343311" lon="-6.779639013111591">
        <ele>15.52</ele>
        <time>2026-06-26T08:42:12Z</time>
      </trkpt>
      <trkpt lat="52.265091016888618" lon="-6.78386801853776">
        <ele>30.420000000000002</ele>
        <time>2026-06-26T08:42:27Z</time>
      </trkpt>
      <trkpt lat="52.264148974791169" lon="-6.786906039342284">
        <ele>40.030000000000001</ele>
        <time>2026-06-26T08:42:38Z</time>
      </trkpt>
      <trkpt lat="52.263158988207579" lon="-6.790029974654317">
        <ele>47.719999999999999</ele>
        <time>2026-06-26T08:42:49Z</time>
      </trkpt>
      <trkpt lat="52.262156009674072" lon="-6.793243009597063">
        <ele>43.880000000000003</ele>
        <time>2026-06-26T08:43:00Z</time>
      </trkpt>
      <trkpt lat="52.261412031948566" lon="-6.795621961355209">
        <ele>45.799999999999997</ele>
        <time>2026-06-26T08:43:09Z</time>
      </trkpt>
      <trkpt lat="52.260630000382662" lon="-6.798153966665268">
        <ele>47.240000000000002</ele>
        <time>2026-06-26T08:43:18Z</time>
      </trkpt>
      <trkpt lat="52.259514033794403" lon="-6.801671013236046">
        <ele>51.57</ele>
        <time>2026-06-26T08:43:30Z</time>
      </trkpt>
      <trkpt lat="52.25860501639545" lon="-6.804613983258605">
        <ele>56.369999999999997</ele>
        <time>2026-06-26T08:43:40Z</time>
      </trkpt>
      <trkpt lat="52.257990036159754" lon="-6.807568017393351">
        <ele>54.450000000000003</ele>
        <time>2026-06-26T08:43:49Z</time>
      </trkpt>
      <trkpt lat="52.25731504149735" lon="-6.810966962948442">
        <ele>53.490000000000002</ele>
        <time>2026-06-26T08:44:00Z</time>
      </trkpt>
      <trkpt lat="52.256657984107733" lon="-6.814360963180661">
        <ele>49.649999999999999</ele>
        <time>2026-06-26T08:44:11Z</time>
      </trkpt>
      <trkpt lat="52.255885004997253" lon="-6.818358041346073">
        <ele>39.07</ele>
        <time>2026-06-26T08:44:25Z</time>
      </trkpt>
      <trkpt lat="52.255146978422999" lon="-6.822171974927187">
        <ele>33.299999999999997</ele>
        <time>2026-06-26T08:44:38Z</time>
      </trkpt>
      <trkpt lat="52.25445999763906" lon="-6.825575027614832">
        <ele>36.670000000000002</ele>
        <time>2026-06-26T08:44:50Z</time>
      </trkpt>
      <trkpt lat="52.253892039880157" lon="-6.828411966562271">
        <ele>41.469999999999999</ele>
        <time>2026-06-26T08:45:01Z</time>
      </trkpt>
      <trkpt lat="52.253402033820748" lon="-6.830960987135768">
        <ele>43.399999999999999</ele>
        <time>2026-06-26T08:45:11Z</time>
      </trkpt>
      <trkpt lat="52.252939017489552" lon="-6.8332629930228">
        <ele>49.159999999999997</ele>
        <time>2026-06-26T08:45:20Z</time>
      </trkpt>
      <trkpt lat="52.252206020057201" lon="-6.837071981281042">
        <ele>59.740000000000002</ele>
        <time>2026-06-26T08:45:33Z</time>
      </trkpt>
      <trkpt lat="52.251360034570098" lon="-6.840985994786024">
        <ele>57.340000000000003</ele>
        <time>2026-06-26T08:45:46Z</time>
      </trkpt>
      <trkpt lat="52.250646986067295" lon="-6.844116970896721">
        <ele>50.130000000000003</ele>
        <time>2026-06-26T08:45:57Z</time>
      </trkpt>
      <trkpt lat="52.249999986961484" lon="-6.846957011148334">
        <ele>45.32</ele>
        <time>2026-06-26T08:46:07Z</time>
      </trkpt>
      <trkpt lat="52.249366985633969" lon="-6.849734019488096">
        <ele>39.07</ele>
        <time>2026-06-26T08:46:17Z</time>
      </trkpt>
      <trkpt lat="52.248845966532826" lon="-6.851995037868619">
        <ele>31.859999999999999</ele>
        <time>2026-06-26T08:46:25Z</time>
      </trkpt>
      <trkpt lat="52.248784024268389" lon="-6.852259989827871">
        <ele>31.859999999999999</ele>
        <time>2026-06-26T08:46:26Z</time>
      </trkpt>
      <trkpt lat="52.248245989903808" lon="-6.854565013200045">
        <ele>37.149999999999999</ele>
        <time>2026-06-26T08:46:35Z</time>
      </trkpt>
      <trkpt lat="52.247567977756262" lon="-6.857448974624276">
        <ele>45.32</ele>
        <time>2026-06-26T08:46:46Z</time>
      </trkpt>
      <trkpt lat="52.247018963098526" lon="-6.859812000766397">
        <ele>49.159999999999997</ele>
        <time>2026-06-26T08:46:56Z</time>
      </trkpt>
      <trkpt lat="52.246285965666175" lon="-6.863007014617324">
        <ele>52.049999999999997</ele>
        <time>2026-06-26T08:47:09Z</time>
      </trkpt>
      <trkpt lat="52.245579035952687" lon="-6.866129022091627">
        <ele>47.240000000000002</ele>
        <time>2026-06-26T08:47:21Z</time>
      </trkpt>
      <trkpt lat="52.245519021525979" lon="-6.866396991536021">
        <ele>46.280000000000001</ele>
        <time>2026-06-26T08:47:22Z</time>
      </trkpt>
      <trkpt lat="52.244717041030526" lon="-6.870122998952866">
        <ele>50.130000000000003</ele>
        <time>2026-06-26T08:47:36Z</time>
      </trkpt>
      <trkpt lat="52.244065012782812" lon="-6.872950969263911">
        <ele>52.530000000000001</ele>
        <time>2026-06-26T08:47:46Z</time>
      </trkpt>
      <trkpt lat="52.243036972358823" lon="-6.877413997426629">
        <ele>53.009999999999998</ele>
        <time>2026-06-26T08:48:01Z</time>
      </trkpt>
      <trkpt lat="52.242241026833653" lon="-6.88087304122746">
        <ele>52.049999999999997</ele>
        <time>2026-06-26T08:48:13Z</time>
      </trkpt>
      <trkpt lat="52.241520015522838" lon="-6.884002005681396">
        <ele>51.57</ele>
        <time>2026-06-26T08:48:25Z</time>
      </trkpt>
      <trkpt lat="52.241054987534881" lon="-6.886985041201115">
        <ele>51.090000000000003</ele>
        <time>2026-06-26T08:48:36Z</time>
      </trkpt>
      <trkpt lat="52.241045013070107" lon="-6.887574037536979">
        <ele>49.159999999999997</ele>
        <time>2026-06-26T08:48:40Z</time>
      </trkpt>
      <trkpt lat="52.241043001413345" lon="-6.88766498118639">
        <ele>48.68</ele>
        <time>2026-06-26T08:48:41Z</time>
      </trkpt>
      <trkpt lat="52.240977035835385" lon="-6.887767994776368">
        <ele>48.200000000000003</ele>
        <time>2026-06-26T08:48:42Z</time>
      </trkpt>
      <trkpt lat="52.240914003923535" lon="-6.88781401142478">
        <ele>48.200000000000003</ele>
        <time>2026-06-26T08:48:43Z</time>
      </trkpt>
      <trkpt lat="52.24083898589015" lon="-6.887870002537966">
        <ele>47.719999999999999</ele>
        <time>2026-06-26T08:48:44Z</time>
      </trkpt>
      <trkpt lat="52.24075298756361" lon="-6.887934040278196">
        <ele>47.240000000000002</ele>
        <time>2026-06-26T08:48:45Z</time>
      </trkpt>
      <trkpt lat="52.240474037826061" lon="-6.888165967538953">
        <ele>47.240000000000002</ele>
        <time>2026-06-26T08:48:48Z</time>
      </trkpt>
      <trkpt lat="52.239907002076507" lon="-6.888685980811715">
        <ele>45.32</ele>
        <time>2026-06-26T08:48:53Z</time>
      </trkpt>
      <trkpt lat="52.239765012636781" lon="-6.888766027987003">
        <ele>45.32</ele>
        <time>2026-06-26T08:48:54Z</time>
      </trkpt>
      <trkpt lat="52.239612964913249" lon="-6.888807015493512">
        <ele>45.32</ele>
        <time>2026-06-26T08:48:55Z</time>
      </trkpt>
      <trkpt lat="52.239452032372355" lon="-6.888848003000021">
        <ele>45.32</ele>
        <time>2026-06-26T08:48:56Z</time>
      </trkpt>
      <trkpt lat="52.239286992698908" lon="-6.88888999633491">
        <ele>45.32</ele>
        <time>2026-06-26T08:48:57Z</time>
      </trkpt>
      <trkpt lat="52.237592004239559" lon="-6.889261985197663">
        <ele>41.950000000000003</ele>
        <time>2026-06-26T08:49:08Z</time>
      </trkpt>
      <trkpt lat="52.235754020512104" lon="-6.889622993767262">
        <ele>37.630000000000003</ele>
        <time>2026-06-26T08:49:17Z</time>
      </trkpt>
      <trkpt lat="52.235046001151204" lon="-6.889847964048386">
        <ele>36.670000000000002</ele>
        <time>2026-06-26T08:49:21Z</time>
      </trkpt>
      <trkpt lat="52.234711982309818" lon="-6.889993976801634">
        <ele>35.710000000000001</ele>
        <time>2026-06-26T08:49:23Z</time>
      </trkpt>
      <trkpt lat="52.234433032572269" lon="-6.890230011194944">
        <ele>34.740000000000002</ele>
        <time>2026-06-26T08:49:25Z</time>
      </trkpt>
      <trkpt lat="52.233370961621404" lon="-6.891524009406567">
        <ele>28.02</ele>
        <time>2026-06-26T08:49:33Z</time>
      </trkpt>
      <trkpt lat="52.231872025877237" lon="-6.892827982082963">
        <ele>25.129999999999999</ele>
        <time>2026-06-26T08:49:42Z</time>
      </trkpt>
      <trkpt lat="52.231375984847546" lon="-6.893103998154402">
        <ele>25.609999999999999</ele>
        <time>2026-06-26T08:49:45Z</time>
      </trkpt>
      <trkpt lat="52.23123399540782" lon="-6.893200976774097">
        <ele>25.609999999999999</ele>
        <time>2026-06-26T08:49:46Z</time>
      </trkpt>
      <trkpt lat="52.231118995696306" lon="-6.893355036154389">
        <ele>25.129999999999999</ele>
        <time>2026-06-26T08:49:47Z</time>
      </trkpt>
      <trkpt lat="52.23099997267127" lon="-6.893513035029173">
        <ele>24.649999999999999</ele>
        <time>2026-06-26T08:49:48Z</time>
      </trkpt>
      <trkpt lat="52.230925038456917" lon="-6.893715038895607">
        <ele>24.649999999999999</ele>
        <time>2026-06-26T08:49:49Z</time>
      </trkpt>
      <trkpt lat="52.230840967968106" lon="-6.893943026661873">
        <ele>24.170000000000002</ele>
        <time>2026-06-26T08:49:50Z</time>
      </trkpt>
      <trkpt lat="52.230062037706375" lon="-6.896046968176961">
        <ele>21.77</ele>
        <time>2026-06-26T08:49:59Z</time>
      </trkpt>
      <trkpt lat="52.229664986953139" lon="-6.896980041638017">
        <ele>19.84</ele>
        <time>2026-06-26T08:50:03Z</time>
      </trkpt>
      <trkpt lat="52.229664986953139" lon="-6.896980041638017">
        <ele>19.84</ele>
        <time>2026-06-26T08:50:04Z</time>
      </trkpt>
      <trkpt lat="52.229414032772183" lon="-6.897330991923809">
        <ele>19.84</ele>
        <time>2026-06-26T08:50:05Z</time>
      </trkpt>
      <trkpt lat="52.229268020018935" lon="-6.897475998848677">
        <ele>19.84</ele>
        <time>2026-06-26T08:50:06Z</time>
      </trkpt>
      <trkpt lat="52.22910700365901" lon="-6.897575994953513">
        <ele>20.32</ele>
        <time>2026-06-26T08:50:07Z</time>
      </trkpt>
      <trkpt lat="52.228938024491072" lon="-6.897666016593576">
        <ele>20.32</ele>
        <time>2026-06-26T08:50:08Z</time>
      </trkpt>
      <trkpt lat="52.228458998724818" lon="-6.89795795828104">
        <ele>21.289999999999999</ele>
        <time>2026-06-26T08:50:11Z</time>
      </trkpt>
      <trkpt lat="52.228330001235008" lon="-6.898103971034288">
        <ele>21.289999999999999</ele>
        <time>2026-06-26T08:50:12Z</time>
      </trkpt>
      <trkpt lat="52.228220030665398" lon="-6.898284014314413">
        <ele>21.289999999999999</ele>
        <time>2026-06-26T08:50:13Z</time>
      </trkpt>
      <trkpt lat="52.228133026510477" lon="-6.898496998474002">
        <ele>21.289999999999999</ele>
        <time>2026-06-26T08:50:14Z</time>
      </trkpt>
      <trkpt lat="52.228049961850047" lon="-6.898721968755126">
        <ele>21.289999999999999</ele>
        <time>2026-06-26T08:50:15Z</time>
      </trkpt>
      <trkpt lat="52.227981984615326" lon="-6.898973006755114">
        <ele>21.289999999999999</ele>
        <time>2026-06-26T08:50:16Z</time>
      </trkpt>
      <trkpt lat="52.227913001552224" lon="-6.89922496676445">
        <ele>21.77</ele>
        <time>2026-06-26T08:50:17Z</time>
      </trkpt>
      <trkpt lat="52.227398017421365" lon="-6.901119025424123">
        <ele>21.289999999999999</ele>
        <time>2026-06-26T08:50:25Z</time>
      </trkpt>
      <trkpt lat="52.227253010496497" lon="-6.901777004823089">
        <ele>20.809999999999999</ele>
        <time>2026-06-26T08:50:31Z</time>
      </trkpt>
      <trkpt lat="52.227126024663448" lon="-6.901897033676505">
        <ele>20.809999999999999</ele>
        <time>2026-06-26T08:50:36Z</time>
      </trkpt>
      <trkpt lat="52.227057041600347" lon="-6.901904996484518">
        <ele>20.809999999999999</ele>
        <time>2026-06-26T08:50:37Z</time>
      </trkpt>
      <trkpt lat="52.226970037445426" lon="-6.901915976777673">
        <ele>20.32</ele>
        <time>2026-06-26T08:50:38Z</time>
      </trkpt>
      <trkpt lat="52.226078035309911" lon="-6.901974985376">
        <ele>17.440000000000001</ele>
        <time>2026-06-26T08:50:45Z</time>
      </trkpt>
      <trkpt lat="52.224727040156722" lon="-6.902036005631089">
        <ele>22.73</ele>
        <time>2026-06-26T08:50:54Z</time>
      </trkpt>
      <trkpt lat="52.222905987873673" lon="-6.902116974815726">
        <ele>29.460000000000001</ele>
        <time>2026-06-26T08:51:06Z</time>
      </trkpt>
      <trkpt lat="52.221500007435679" lon="-6.902299029752612">
        <ele>33.299999999999997</ele>
        <time>2026-06-26T08:51:15Z</time>
      </trkpt>
      <trkpt lat="52.221060963347554" lon="-6.902377987280488">
        <ele>34.740000000000002</ele>
        <time>2026-06-26T08:51:18Z</time>
      </trkpt>
      <trkpt lat="52.220917968079448" lon="-6.902405982837081">
        <ele>35.229999999999997</ele>
        <time>2026-06-26T08:51:19Z</time>
      </trkpt>
      <trkpt lat="52.220355039462447" lon="-6.902459962293506">
        <ele>38.109999999999999</ele>
        <time>2026-06-26T08:51:23Z</time>
      </trkpt>
      <trkpt lat="52.220216989517212" lon="-6.902414029464126">
        <ele>39.07</ele>
        <time>2026-06-26T08:51:24Z</time>
      </trkpt>
      <trkpt lat="52.220076005905867" lon="-6.902367006987333">
        <ele>39.549999999999997</ele>
        <time>2026-06-26T08:51:25Z</time>
      </trkpt>
      <trkpt lat="52.219942985102534" lon="-6.902276985347271">
        <ele>40.509999999999998</ele>
        <time>2026-06-26T08:51:26Z</time>
      </trkpt>
      <trkpt lat="52.219808036461473" lon="-6.902163997292519">
        <ele>40.990000000000002</ele>
        <time>2026-06-26T08:51:27Z</time>
      </trkpt>
      <trkpt lat="52.219665041193366" lon="-6.902044974267483">
        <ele>41.469999999999999</ele>
        <time>2026-06-26T08:51:28Z</time>
      </trkpt>
      <trkpt lat="52.218100978061557" lon="-6.901003019884229">
        <ele>42.439999999999998</ele>
        <time>2026-06-26T08:51:38Z</time>
      </trkpt>
      <trkpt lat="52.2157640196383" lon="-6.899816980585456">
        <ele>39.549999999999997</ele>
        <time>2026-06-26T08:51:53Z</time>
      </trkpt>
      <trkpt lat="52.214563982561231" lon="-6.899358993396163">
        <ele>39.07</ele>
        <time>2026-06-26T08:52:01Z</time>
      </trkpt>
      <trkpt lat="52.212845021858811" lon="-6.898701013997197">
        <ele>37.630000000000003</ele>
        <time>2026-06-26T08:52:13Z</time>
      </trkpt>
      <trkpt lat="52.210537986829877" lon="-6.897855028510094">
        <ele>41.469999999999999</ele>
        <time>2026-06-26T08:52:29Z</time>
      </trkpt>
      <trkpt lat="52.209214987233281" lon="-6.897635003551841">
        <ele>43.399999999999999</ele>
        <time>2026-06-26T08:52:38Z</time>
      </trkpt>
      <trkpt lat="52.207725020125508" lon="-6.897471975535154">
        <ele>42.920000000000002</ele>
        <time>2026-06-26T08:52:48Z</time>
      </trkpt>
      <trkpt lat="52.205633986741304" lon="-6.897454038262367">
        <ele>42.439999999999998</ele>
        <time>2026-06-26T08:53:02Z</time>
      </trkpt>
      <trkpt lat="52.203716039657593" lon="-6.897814963012934">
        <ele>42.439999999999998</ele>
        <time>2026-06-26T08:53:15Z</time>
      </trkpt>
      <trkpt lat="52.202121969312429" lon="-6.898451987653971">
        <ele>40.030000000000001</ele>
        <time>2026-06-26T08:53:26Z</time>
      </trkpt>
      <trkpt lat="52.201827010139823" lon="-6.898543015122414">
        <ele>39.549999999999997</ele>
        <time>2026-06-26T08:53:28Z</time>
      </trkpt>
      <trkpt lat="52.201678985729814" lon="-6.898589031770825">
        <ele>39.549999999999997</ele>
        <time>2026-06-26T08:53:29Z</time>
      </trkpt>
      <trkpt lat="52.19933096319437" lon="-6.898918021470308">
        <ele>39.07</ele>
        <time>2026-06-26T08:53:45Z</time>
      </trkpt>
      <trkpt lat="52.197406981140375" lon="-6.89941699616611">
        <ele>36.189999999999998</ele>
        <time>2026-06-26T08:53:58Z</time>
      </trkpt>
      <trkpt lat="52.196979001164436" lon="-6.899554040282965">
        <ele>36.670000000000002</ele>
        <time>2026-06-26T08:54:01Z</time>
      </trkpt>
      <trkpt lat="52.196833994239569" lon="-6.899540964514017">
        <ele>36.670000000000002</ele>
        <time>2026-06-26T08:54:02Z</time>
      </trkpt>
      <trkpt lat="52.196688987314701" lon="-6.899511041119695">
        <ele>37.149999999999999</ele>
        <time>2026-06-26T08:54:03Z</time>
      </trkpt>
      <trkpt lat="52.196545992046595" lon="-6.899481033906341">
        <ele>37.630000000000003</ele>
        <time>2026-06-26T08:54:04Z</time>
      </trkpt>
      <trkpt lat="52.196404002606869" lon="-6.8994399625808">
        <ele>38.109999999999999</ele>
        <time>2026-06-26T08:54:05Z</time>
      </trkpt>
      <trkpt lat="52.196267964318395" lon="-6.899356981739402">
        <ele>39.07</ele>
        <time>2026-06-26T08:54:06Z</time>
      </trkpt>
      <trkpt lat="52.195179993286729" lon="-6.8987509701401">
        <ele>45.799999999999997</ele>
        <time>2026-06-26T08:54:14Z</time>
      </trkpt>
      <trkpt lat="52.195031968876719" lon="-6.89870797097683">
        <ele>46.759999999999998</ele>
        <time>2026-06-26T08:54:15Z</time>
      </trkpt>
      <trkpt lat="52.194896014407277" lon="-6.898782989010215">
        <ele>47.719999999999999</ele>
        <time>2026-06-26T08:54:16Z</time>
      </trkpt>
      <trkpt lat="52.194756036624312" lon="-6.898860018700361">
        <ele>48.68</ele>
        <time>2026-06-26T08:54:17Z</time>
      </trkpt>
      <trkpt lat="52.194613041356206" lon="-6.898938976228237">
        <ele>49.159999999999997</ele>
        <time>2026-06-26T08:54:18Z</time>
      </trkpt>
      <trkpt lat="52.193131037056446" lon="-6.89939402975142">
        <ele>54.450000000000003</ele>
        <time>2026-06-26T08:54:28Z</time>
      </trkpt>
      <trkpt lat="52.191670993342996" lon="-6.898910980671644">
        <ele>54.450000000000003</ele>
        <time>2026-06-26T08:54:38Z</time>
      </trkpt>
      <trkpt lat="52.191554987803102" lon="-6.898758010938764">
        <ele>54.450000000000003</ele>
        <time>2026-06-26T08:54:39Z</time>
      </trkpt>
      <trkpt lat="52.191438982263207" lon="-6.898605963215232">
        <ele>54.450000000000003</ele>
        <time>2026-06-26T08:54:40Z</time>
      </trkpt>
      <trkpt lat="52.189728990197182" lon="-6.89671098254621">
        <ele>53.490000000000002</ele>
        <time>2026-06-26T08:54:54Z</time>
      </trkpt>
      <trkpt lat="52.188653005287051" lon="-6.895394017919898">
        <ele>45.799999999999997</ele>
        <time>2026-06-26T08:55:04Z</time>
      </trkpt>
      <trkpt lat="52.187354983761907" lon="-6.894260030239821">
        <ele>40.030000000000001</ele>
        <time>2026-06-26T08:55:13Z</time>
      </trkpt>
      <trkpt lat="52.186664985492826" lon="-6.893885023891926">
        <ele>39.07</ele>
        <time>2026-06-26T08:55:18Z</time>
      </trkpt>
      <trkpt lat="52.186518972739577" lon="-6.893901033326984">
        <ele>38.590000000000003</ele>
        <time>2026-06-26T08:55:19Z</time>
      </trkpt>
      <trkpt lat="52.18637203797698" lon="-6.893927017226815">
        <ele>38.590000000000003</ele>
        <time>2026-06-26T08:55:20Z</time>
      </trkpt>
      <trkpt lat="52.18622300773859" lon="-6.893954006955028">
        <ele>38.109999999999999</ele>
        <time>2026-06-26T08:55:21Z</time>
      </trkpt>
      <trkpt lat="52.18607297167182" lon="-6.89398099668324">
        <ele>38.109999999999999</ele>
        <time>2026-06-26T08:55:22Z</time>
      </trkpt>
      <trkpt lat="52.18370902352035" lon="-6.894552977755666">
        <ele>35.710000000000001</ele>
        <time>2026-06-26T08:55:38Z</time>
      </trkpt>
      <trkpt lat="52.182072037830949" lon="-6.894691027700901">
        <ele>33.299999999999997</ele>
        <time>2026-06-26T08:55:49Z</time>
      </trkpt>
      <trkpt lat="52.180493976920843" lon="-6.894881967455149">
        <ele>31.379999999999999</ele>
        <time>2026-06-26T08:56:00Z</time>
      </trkpt>
      <trkpt lat="52.180264983326197" lon="-6.894924966618419">
        <ele>30.899999999999999</ele>
        <time>2026-06-26T08:56:04Z</time>
      </trkpt>
      <trkpt lat="52.180125005543232" lon="-6.894907029345632">
        <ele>30.899999999999999</ele>
        <time>2026-06-26T08:56:09Z</time>
      </trkpt>
      <trkpt lat="52.17949996702373" lon="-6.894889008253813">
        <ele>32.82</ele>
        <time>2026-06-26T08:56:16Z</time>
      </trkpt>
      <trkpt lat="52.178264977410436" lon="-6.894693961367011">
        <ele>32.82</ele>
        <time>2026-06-26T08:56:25Z</time>
      </trkpt>
      <trkpt lat="52.177665000781417" lon="-6.894439989700913">
        <ele>34.259999999999998</ele>
        <time>2026-06-26T08:56:29Z</time>
      </trkpt>
      <trkpt lat="52.177544971928" lon="-6.894463961943984">
        <ele>34.740000000000002</ele>
        <time>2026-06-26T08:56:30Z</time>
      </trkpt>
      <trkpt lat="52.177442964166403" lon="-6.894524982199073">
        <ele>34.740000000000002</ele>
        <time>2026-06-26T08:56:31Z</time>
      </trkpt>
      <trkpt lat="52.177347997203469" lon="-6.894634030759335">
        <ele>34.740000000000002</ele>
        <time>2026-06-26T08:56:32Z</time>
      </trkpt>
      <trkpt lat="52.177245989441872" lon="-6.894749030470848">
        <ele>35.229999999999997</ele>
        <time>2026-06-26T08:56:33Z</time>
      </trkpt>
      <trkpt lat="52.176289027556777" lon="-6.895463000983">
        <ele>39.07</ele>
        <time>2026-06-26T08:56:41Z</time>
      </trkpt>
      <trkpt lat="52.174801994115114" lon="-6.896075969561935">
        <ele>42.920000000000002</ele>
        <time>2026-06-26T08:56:51Z</time>
      </trkpt>
      <trkpt lat="52.173359971493483" lon="-6.896189963445067">
        <ele>45.32</ele>
        <time>2026-06-26T08:57:01Z</time>
      </trkpt>
      <trkpt lat="52.171359965577722" lon="-6.896177977323532">
        <ele>49.159999999999997</ele>
        <time>2026-06-26T08:57:14Z</time>
      </trkpt>
      <trkpt lat="52.171212024986744" lon="-6.896176971495152">
        <ele>50.130000000000003</ele>
        <time>2026-06-26T08:57:15Z</time>
      </trkpt>
      <trkpt lat="52.170641971752048" lon="-6.896155010908842">
        <ele>53.009999999999998</ele>
        <time>2026-06-26T08:57:19Z</time>
      </trkpt>
      <trkpt lat="52.170500988140702" lon="-6.89612802118063">
        <ele>53.009999999999998</ele>
        <time>2026-06-26T08:57:20Z</time>
      </trkpt>
      <trkpt lat="52.169028958305717" lon="-6.895392006263137">
        <ele>52.049999999999997</ele>
        <time>2026-06-26T08:57:30Z</time>
      </trkpt>
      <trkpt lat="52.167506972327828" lon="-6.895014988258481">
        <ele>45.799999999999997</ele>
        <time>2026-06-26T08:57:41Z</time>
      </trkpt>
      <trkpt lat="52.167343022301793" lon="-6.894937036558986">
        <ele>45.32</ele>
        <time>2026-06-26T08:57:42Z</time>
      </trkpt>
      <trkpt lat="52.167202038690448" lon="-6.894869981333613">
        <ele>44.840000000000003</ele>
        <time>2026-06-26T08:57:43Z</time>
      </trkpt>
      <trkpt lat="52.165539991110563" lon="-6.894041011109948">
        <ele>42.439999999999998</ele>
        <time>2026-06-26T08:57:54Z</time>
      </trkpt>
      <trkpt lat="52.164618987590075" lon="-6.893609007820487">
        <ele>41.469999999999999</ele>
        <time>2026-06-26T08:58:00Z</time>
      </trkpt>
      <trkpt lat="52.16445998288691" lon="-6.893556034192443">
        <ele>40.990000000000002</ele>
        <time>2026-06-26T08:58:01Z</time>
      </trkpt>
      <trkpt lat="52.164320005103946" lon="-6.893569026142359">
        <ele>40.990000000000002</ele>
        <time>2026-06-26T08:58:02Z</time>
      </trkpt>
      <trkpt lat="52.161669982597232" lon="-6.893827021121979">
        <ele>35.229999999999997</ele>
        <time>2026-06-26T08:58:19Z</time>
      </trkpt>
      <trkpt lat="52.160127963870764" lon="-6.894292971119285">
        <ele>32.340000000000003</ele>
        <time>2026-06-26T08:58:30Z</time>
      </trkpt>
      <trkpt lat="52.158932033926249" lon="-6.894493969157338">
        <ele>28.98</ele>
        <time>2026-06-26T08:58:38Z</time>
      </trkpt>
      <trkpt lat="52.157846996560693" lon="-6.894280984997749">
        <ele>26.09</ele>
        <time>2026-06-26T08:58:46Z</time>
      </trkpt>
      <trkpt lat="52.157698972150683" lon="-6.894228011369705">
        <ele>25.609999999999999</ele>
        <time>2026-06-26T08:58:48Z</time>
      </trkpt>
      <trkpt lat="52.157659996300936" lon="-6.894206972792745">
        <ele>25.609999999999999</ele>
        <time>2026-06-26T08:58:49Z</time>
      </trkpt>
      <trkpt lat="52.157606016844511" lon="-6.894176965579391">
        <ele>24.649999999999999</ele>
        <time>2026-06-26T08:58:56Z</time>
      </trkpt>
      <trkpt lat="52.157587995752692" lon="-6.894167996942997">
        <ele>24.649999999999999</ele>
        <time>2026-06-26T08:58:59Z</time>
      </trkpt>
      <trkpt lat="52.157528987154365" lon="-6.894135978072882">
        <ele>24.170000000000002</ele>
        <time>2026-06-26T08:59:00Z</time>
      </trkpt>
      <trkpt lat="52.157496968284249" lon="-6.894170008599758">
        <ele>24.170000000000002</ele>
        <time>2026-06-26T08:59:01Z</time>
      </trkpt>
      <trkpt lat="52.157436031848192" lon="-6.894233962520957">
        <ele>23.690000000000001</ele>
        <time>2026-06-26T08:59:02Z</time>
      </trkpt>
      <trkpt lat="52.157365959137678" lon="-6.894307974725962">
        <ele>23.690000000000001</ele>
        <time>2026-06-26T08:59:03Z</time>
      </trkpt>
      <trkpt lat="52.156665986403823" lon="-6.895083971321583">
        <ele>23.210000000000001</ele>
        <time>2026-06-26T08:59:10Z</time>
      </trkpt>
      <trkpt lat="52.155509032309055" lon="-6.896399008110166">
        <ele>19.84</ele>
        <time>2026-06-26T08:59:18Z</time>
      </trkpt>
      <trkpt lat="52.15435903519392" lon="-6.89771999605">
        <ele>17.440000000000001</ele>
        <time>2026-06-26T08:59:27Z</time>
      </trkpt>
      <trkpt lat="52.15218803845346" lon="-6.900232974439859">
        <ele>15.52</ele>
        <time>2026-06-26T08:59:45Z</time>
      </trkpt>
      <trkpt lat="52.150117959827185" lon="-6.902625001966953">
        <ele>13.6</ele>
        <time>2026-06-26T09:00:02Z</time>
      </trkpt>
      <trkpt lat="52.148421965539455" lon="-6.904553007334471">
        <ele>11.67</ele>
        <time>2026-06-26T09:00:16Z</time>
      </trkpt>
      <trkpt lat="52.146349037066102" lon="-6.906898012384772">
        <ele>10.23</ele>
        <time>2026-06-26T09:00:33Z</time>
      </trkpt>
      <trkpt lat="52.144772987812757" lon="-6.908687967807055">
        <ele>10.23</ele>
        <time>2026-06-26T09:00:46Z</time>
      </trkpt>
      <trkpt lat="52.142710033804178" lon="-6.911030961200595">
        <ele>13.6</ele>
        <time>2026-06-26T09:01:03Z</time>
      </trkpt>
      <trkpt lat="52.141154017299414" lon="-6.912685967981815">
        <ele>16.48</ele>
        <time>2026-06-26T09:01:17Z</time>
      </trkpt>
      <trkpt lat="52.14093298651278" lon="-6.912789987400174">
        <ele>16.48</ele>
        <time>2026-06-26T09:01:18Z</time>
      </trkpt>
      <trkpt lat="52.14082301594317" lon="-6.912865005433559">
        <ele>16.48</ele>
        <time>2026-06-26T09:01:19Z</time>
      </trkpt>
      <trkpt lat="52.140708016231656" lon="-6.912943962961435">
        <ele>16.48</ele>
        <time>2026-06-26T09:01:20Z</time>
      </trkpt>
      <trkpt lat="52.14058899320662" lon="-6.913029039278626">
        <ele>16.48</ele>
        <time>2026-06-26T09:01:21Z</time>
      </trkpt>
      <trkpt lat="52.139120986685157" lon="-6.914496961981058">
        <ele>16.960000000000001</ele>
        <time>2026-06-26T09:01:34Z</time>
      </trkpt>
      <trkpt lat="52.137159034609795" lon="-6.915789032354951">
        <ele>18.879999999999999</ele>
        <time>2026-06-26T09:01:50Z</time>
      </trkpt>
      <trkpt lat="52.136818980798125" lon="-6.91602598875761">
        <ele>18.879999999999999</ele>
        <time>2026-06-26T09:01:53Z</time>
      </trkpt>
      <trkpt lat="52.136715967208147" lon="-6.916148029267788">
        <ele>18.879999999999999</ele>
        <time>2026-06-26T09:01:54Z</time>
      </trkpt>
      <trkpt lat="52.13629100471735" lon="-6.916586989536881">
        <ele>17.440000000000001</ele>
        <time>2026-06-26T09:01:58Z</time>
      </trkpt>
      <trkpt lat="52.136193020269275" lon="-6.916621020063758">
        <ele>17.440000000000001</ele>
        <time>2026-06-26T09:01:59Z</time>
      </trkpt>
      <trkpt lat="52.136108027771115" lon="-6.916651027277112">
        <ele>17.440000000000001</ele>
        <time>2026-06-26T09:02:00Z</time>
      </trkpt>
      <trkpt lat="52.13581801392138" lon="-6.916700983420014">
        <ele>16.48</ele>
        <time>2026-06-26T09:02:05Z</time>
      </trkpt>
      <trkpt lat="52.135813990607858" lon="-6.916709030047059">
        <ele>16.48</ele>
        <time>2026-06-26T09:02:06Z</time>
      </trkpt>
      <trkpt lat="52.135842991992831" lon="-6.916878009214997">
        <ele>16.48</ele>
        <time>2026-06-26T09:02:07Z</time>
      </trkpt>
      <trkpt lat="52.135823965072632" lon="-6.916964007541537">
        <ele>16</ele>
        <time>2026-06-26T09:02:08Z</time>
      </trkpt>
      <trkpt lat="52.135817008092999" lon="-6.917037013918161">
        <ele>16</ele>
        <time>2026-06-26T09:02:09Z</time>
      </trkpt>
      <trkpt lat="52.135828994214535" lon="-6.91716399975121">
        <ele>16</ele>
        <time>2026-06-26T09:02:10Z</time>
      </trkpt>
      <trkpt lat="52.135843997821212" lon="-6.917309006676078">
        <ele>15.52</ele>
        <time>2026-06-26T09:02:11Z</time>
      </trkpt>
      <trkpt lat="52.135859001427889" lon="-6.917460970580578">
        <ele>15.52</ele>
        <time>2026-06-26T09:02:12Z</time>
      </trkpt>
      <trkpt lat="52.136211041361094" lon="-6.919521996751428">
        <ele>18.399999999999999</ele>
        <time>2026-06-26T09:02:24Z</time>
      </trkpt>
      <trkpt lat="52.136498959735036" lon="-6.921541029587388">
        <ele>18.399999999999999</ele>
        <time>2026-06-26T09:02:36Z</time>
      </trkpt>
      <trkpt lat="52.136513963341713" lon="-6.92167698405683">
        <ele>18.399999999999999</ele>
        <time>2026-06-26T09:02:37Z</time>
      </trkpt>
      <trkpt lat="52.136499965563416" lon="-6.921801036223769">
        <ele>18.399999999999999</ele>
        <time>2026-06-26T09:02:38Z</time>
      </trkpt>
      <trkpt lat="52.136451015248895" lon="-6.921914024278522">
        <ele>18.399999999999999</ele>
        <time>2026-06-26T09:02:39Z</time>
      </trkpt>
      <trkpt lat="52.136398963630199" lon="-6.922032963484526">
        <ele>18.399999999999999</ele>
        <time>2026-06-26T09:02:40Z</time>
      </trkpt>
      <trkpt lat="52.135736038908362" lon="-6.923427963629365">
        <ele>19.359999999999999</ele>
        <time>2026-06-26T09:02:51Z</time>
      </trkpt>
      <trkpt lat="52.134994994848967" lon="-6.924998983740807">
        <ele>18.879999999999999</ele>
        <time>2026-06-26T09:03:05Z</time>
      </trkpt>
      <trkpt lat="52.134284963831306" lon="-6.926544019952416">
        <ele>19.359999999999999</ele>
        <time>2026-06-26T09:03:18Z</time>
      </trkpt>
      <trkpt lat="52.134172981604934" lon="-6.926728002727032">
        <ele>19.359999999999999</ele>
        <time>2026-06-26T09:03:20Z</time>
      </trkpt>
      <trkpt lat="52.134110033512115" lon="-6.926824981346726">
        <ele>18.879999999999999</ele>
        <time>2026-06-26T09:03:21Z</time>
      </trkpt>
      <trkpt lat="52.133246026933193" lon="-6.928154015913606">
        <ele>17.440000000000001</ele>
        <time>2026-06-26T09:03:33Z</time>
      </trkpt>
      <trkpt lat="52.132929023355246" lon="-6.928643016144633">
        <ele>16.960000000000001</ele>
        <time>2026-06-26T09:03:37Z</time>
      </trkpt>
      <trkpt lat="52.132819974794984" lon="-6.92872398532927">
        <ele>16.48</ele>
        <time>2026-06-26T09:03:38Z</time>
      </trkpt>
      <trkpt lat="52.132714027538896" lon="-6.928791962563992">
        <ele>16.48</ele>
        <time>2026-06-26T09:03:39Z</time>
      </trkpt>
      <trkpt lat="52.130881994962692" lon="-6.929974984377623">
        <ele>15.039999999999999</ele>
        <time>2026-06-26T09:03:56Z</time>
      </trkpt>
      <trkpt lat="52.130600027740002" lon="-6.93003399297595">
        <ele>14.56</ele>
        <time>2026-06-26T09:03:59Z</time>
      </trkpt>
      <trkpt lat="52.130530960857868" lon="-6.930007003247738">
        <ele>14.56</ele>
        <time>2026-06-26T09:04:00Z</time>
      </trkpt>
      <trkpt lat="52.130466001108289" lon="-6.929981019347906">
        <ele>14.08</ele>
        <time>2026-06-26T09:04:01Z</time>
      </trkpt>
      <trkpt lat="52.130400035530329" lon="-6.929955035448074">
        <ele>14.08</ele>
        <time>2026-06-26T09:04:02Z</time>
      </trkpt>
      <trkpt lat="52.130254022777081" lon="-6.929896026849747">
        <ele>13.6</ele>
        <time>2026-06-26T09:04:04Z</time>
      </trkpt>
      <trkpt lat="52.130172969773412" lon="-6.929864007979631">
        <ele>13.6</ele>
        <time>2026-06-26T09:04:05Z</time>
      </trkpt>
      <trkpt lat="52.130062999203801" lon="-6.929820002987981">
        <ele>13.6</ele>
        <time>2026-06-26T09:04:06Z</time>
      </trkpt>
      <trkpt lat="52.129744989797473" lon="-6.92988102324307">
        <ele>13.6</ele>
        <time>2026-06-26T09:04:09Z</time>
      </trkpt>
      <trkpt lat="52.129620015621185" lon="-6.929856967180967">
        <ele>13.6</ele>
        <time>2026-06-26T09:04:10Z</time>
      </trkpt>
      <trkpt lat="52.128250999376178" lon="-6.929352963343263">
        <ele>14.08</ele>
        <time>2026-06-26T09:04:21Z</time>
      </trkpt>
      <trkpt lat="52.127607017755508" lon="-6.929218014702201">
        <ele>13.6</ele>
        <time>2026-06-26T09:04:29Z</time>
      </trkpt>
      <trkpt lat="52.127048028632998" lon="-6.929170992225409">
        <ele>13.119999999999999</ele>
        <time>2026-06-26T09:04:39Z</time>
      </trkpt>
      <trkpt lat="52.126848036423326" lon="-6.92915397696197">
        <ele>13.6</ele>
        <time>2026-06-26T09:04:51Z</time>
      </trkpt>
      <trkpt lat="52.126839989796281" lon="-6.92915297113359">
        <ele>13.6</ele>
        <time>2026-06-26T09:04:54Z</time>
      </trkpt>
      <trkpt lat="52.126759020611644" lon="-6.929146014153957">
        <ele>13.6</ele>
        <time>2026-06-26T09:05:01Z</time>
      </trkpt>
      <trkpt lat="52.126759020611644" lon="-6.929146014153957">
        <ele>13.6</ele>
        <time>2026-06-26T09:05:26Z</time>
      </trkpt>
      <trkpt lat="52.126759020611644" lon="-6.929146014153957">
        <ele>13.6</ele>
        <time>2026-06-26T09:06:17Z</time>
      </trkpt>
      <trkpt lat="52.126545030623674" lon="-6.929127993062139">
        <ele>13.119999999999999</ele>
        <time>2026-06-26T09:06:44Z</time>
      </trkpt>
      <trkpt lat="52.126265997067094" lon="-6.92915397696197">
        <ele>12.15</ele>
        <time>2026-06-26T09:06:48Z</time>
      </trkpt>
      <trkpt lat="52.126196008175611" lon="-6.929189013317227">
        <ele>12.15</ele>
        <time>2026-06-26T09:06:49Z</time>
      </trkpt>
      <trkpt lat="52.126135993748903" lon="-6.929247016087174">
        <ele>12.15</ele>
        <time>2026-06-26T09:06:50Z</time>
      </trkpt>
      <trkpt lat="52.126071033999324" lon="-6.929321028292179">
        <ele>12.15</ele>
        <time>2026-06-26T09:06:51Z</time>
      </trkpt>
      <trkpt lat="52.126005990430713" lon="-6.929396968334913">
        <ele>11.67</ele>
        <time>2026-06-26T09:06:52Z</time>
      </trkpt>
      <trkpt lat="52.125939019024372" lon="-6.929472992196679">
        <ele>11.67</ele>
        <time>2026-06-26T09:06:53Z</time>
      </trkpt>
      <trkpt lat="52.12586903013289" lon="-6.929553961381316">
        <ele>11.67</ele>
        <time>2026-06-26T09:06:54Z</time>
      </trkpt>
      <trkpt lat="52.125799041241407" lon="-6.929634008556604">
        <ele>11.67</ele>
        <time>2026-06-26T09:06:55Z</time>
      </trkpt>
      <trkpt lat="52.125722011551261" lon="-6.929705003276467">
        <ele>11.67</ele>
        <time>2026-06-26T09:06:56Z</time>
      </trkpt>
      <trkpt lat="52.125643976032734" lon="-6.929744984954596">
        <ele>11.67</ele>
        <time>2026-06-26T09:06:57Z</time>
      </trkpt>
      <trkpt lat="52.12557197548449" lon="-6.929783038794994">
        <ele>11.67</ele>
        <time>2026-06-26T09:06:58Z</time>
      </trkpt>
      <trkpt lat="52.125071994960308" lon="-6.930040027946234">
        <ele>12.15</ele>
        <time>2026-06-26T09:07:09Z</time>
      </trkpt>
      <trkpt lat="52.124634040519595" lon="-6.930262986570597">
        <ele>11.67</ele>
        <time>2026-06-26T09:07:21Z</time>
      </trkpt>
      <trkpt lat="52.123972037807107" lon="-6.930601028725505">
        <ele>13.119999999999999</ele>
        <time>2026-06-26T09:07:34Z</time>
      </trkpt>
      <trkpt lat="52.123947981745005" lon="-6.930614020675421">
        <ele>13.119999999999999</ele>
        <time>2026-06-26T09:07:40Z</time>
      </trkpt>
      <trkpt lat="52.123855026438832" lon="-6.93054897710681">
        <ele>13.119999999999999</ele>
        <time>2026-06-26T09:07:49Z</time>
      </trkpt>
      <trkpt lat="52.123985029757023" lon="-6.93050698377192">
        <ele>13.6</ele>
        <time>2026-06-26T09:08:00Z</time>
      </trkpt>
      <trkpt lat="52.123968014493585" lon="-6.93063598126173">
        <ele>11.67</ele>
        <time>2026-06-26T09:20:37Z</time>
      </trkpt>
      <trkpt lat="52.123985029757023" lon="-6.930499020963907">
        <ele>15.039999999999999</ele>
        <time>2026-06-26T09:21:15Z</time>
      </trkpt>
      <trkpt lat="52.123984023928642" lon="-6.930500026792288">
        <ele>16.960000000000001</ele>
        <time>2026-06-26T09:22:02Z</time>
      </trkpt>
      <trkpt lat="52.124084020033479" lon="-6.930544031783938">
        <ele>17.440000000000001</ele>
        <time>2026-06-26T09:22:28Z</time>
      </trkpt>
      <trkpt lat="52.124674022197723" lon="-6.930243037641048">
        <ele>15.52</ele>
        <time>2026-06-26T09:22:43Z</time>
      </trkpt>
      <trkpt lat="52.125372989103198" lon="-6.92988496273756">
        <ele>15.039999999999999</ele>
        <time>2026-06-26T09:22:53Z</time>
      </trkpt>
      <trkpt lat="52.125864000990987" lon="-6.9295599963516">
        <ele>14.56</ele>
        <time>2026-06-26T09:22:59Z</time>
      </trkpt>
      <trkpt lat="52.125932984054089" lon="-6.929481038823724">
        <ele>15.039999999999999</ele>
        <time>2026-06-26T09:23:00Z</time>
      </trkpt>
      <trkpt lat="52.12600196711719" lon="-6.929401997476816">
        <ele>15.039999999999999</ele>
        <time>2026-06-26T09:23:01Z</time>
      </trkpt>
      <trkpt lat="52.126140017062426" lon="-6.929242992773652">
        <ele>15.52</ele>
        <time>2026-06-26T09:23:03Z</time>
      </trkpt>
      <trkpt lat="52.12621402926743" lon="-6.929179960861802">
        <ele>15.52</ele>
        <time>2026-06-26T09:23:04Z</time>
      </trkpt>
      <trkpt lat="52.126297010108829" lon="-6.929138973355293">
        <ele>15.52</ele>
        <time>2026-06-26T09:23:05Z</time>
      </trkpt>
      <trkpt lat="52.126388037577271" lon="-6.929113995283842">
        <ele>16</ele>
        <time>2026-06-26T09:23:06Z</time>
      </trkpt>
      <trkpt lat="52.126478981226683" lon="-6.929121958091855">
        <ele>15.52</ele>
        <time>2026-06-26T09:23:07Z</time>
      </trkpt>
      <trkpt lat="52.127550020813942" lon="-6.929212985560298">
        <ele>16</ele>
        <time>2026-06-26T09:23:20Z</time>
      </trkpt>
      <trkpt lat="52.128723990172148" lon="-6.929539041593671">
        <ele>16</ele>
        <time>2026-06-26T09:23:32Z</time>
      </trkpt>
      <trkpt lat="52.130062999203801" lon="-6.929820002987981">
        <ele>14.56</ele>
        <time>2026-06-26T09:23:46Z</time>
      </trkpt>
      <trkpt lat="52.130231978371739" lon="-6.929886974394321">
        <ele>14.56</ele>
        <time>2026-06-26T09:23:48Z</time>
      </trkpt>
      <trkpt lat="52.130306996405125" lon="-6.929916981607676">
        <ele>14.08</ele>
        <time>2026-06-26T09:23:49Z</time>
      </trkpt>
      <trkpt lat="52.130385031923652" lon="-6.92994799464941">
        <ele>14.08</ele>
        <time>2026-06-26T09:23:50Z</time>
      </trkpt>
      <trkpt lat="52.130530960857868" lon="-6.930007003247738">
        <ele>14.08</ele>
        <time>2026-06-26T09:23:52Z</time>
      </trkpt>
      <trkpt lat="52.130599021911621" lon="-6.93003399297595">
        <ele>14.56</ele>
        <time>2026-06-26T09:23:53Z</time>
      </trkpt>
      <trkpt lat="52.130668004974723" lon="-6.930023012682796">
        <ele>14.56</ele>
        <time>2026-06-26T09:23:54Z</time>
      </trkpt>
      <trkpt lat="52.130756014958024" lon="-6.930008009076119">
        <ele>15.039999999999999</ele>
        <time>2026-06-26T09:23:55Z</time>
      </trkpt>
      <trkpt lat="52.130857016891241" lon="-6.92999099381268">
        <ele>15.039999999999999</ele>
        <time>2026-06-26T09:23:56Z</time>
      </trkpt>
      <trkpt lat="52.13210298679769" lon="-6.929187001660466">
        <ele>17.440000000000001</ele>
        <time>2026-06-26T09:24:08Z</time>
      </trkpt>
      <trkpt lat="52.132913013920188" lon="-6.928663970902562">
        <ele>17.920000000000002</ele>
        <time>2026-06-26T09:24:15Z</time>
      </trkpt>
      <trkpt lat="52.133001023903489" lon="-6.928531033918262">
        <ele>17.920000000000002</ele>
        <time>2026-06-26T09:24:16Z</time>
      </trkpt>
      <trkpt lat="52.13308802805841" lon="-6.928398013114929">
        <ele>17.920000000000002</ele>
        <time>2026-06-26T09:24:17Z</time>
      </trkpt>
      <trkpt lat="52.134050019085407" lon="-6.926916008815169">
        <ele>16.960000000000001</ele>
        <time>2026-06-26T09:24:28Z</time>
      </trkpt>
      <trkpt lat="52.134651001542807" lon="-6.925741033628583">
        <ele>16.48</ele>
        <time>2026-06-26T09:24:37Z</time>
      </trkpt>
      <trkpt lat="52.135588014498353" lon="-6.923743039369583">
        <ele>16.960000000000001</ele>
        <time>2026-06-26T09:24:52Z</time>
      </trkpt>
      <trkpt lat="52.136476999148726" lon="-6.921854009851813">
        <ele>15.039999999999999</ele>
        <time>2026-06-26T09:25:05Z</time>
      </trkpt>
      <trkpt lat="52.136522009968758" lon="-6.921752002090216">
        <ele>14.56</ele>
        <time>2026-06-26T09:25:06Z</time>
      </trkpt>
      <trkpt lat="52.136500971391797" lon="-6.921558966860175">
        <ele>14.08</ele>
        <time>2026-06-26T09:25:07Z</time>
      </trkpt>
      <trkpt lat="52.136484039947391" lon="-6.921408008784056">
        <ele>14.08</ele>
        <time>2026-06-26T09:25:08Z</time>
      </trkpt>
      <trkpt lat="52.136466018855572" lon="-6.921241041272879">
        <ele>14.08</ele>
        <time>2026-06-26T09:25:09Z</time>
      </trkpt>
      <trkpt lat="52.136446991935372" lon="-6.921063009649515">
        <ele>13.6</ele>
        <time>2026-06-26T09:25:10Z</time>
      </trkpt>
      <trkpt lat="52.136231996119022" lon="-6.919633978977799">
        <ele>13.119999999999999</ele>
        <time>2026-06-26T09:25:19Z</time>
      </trkpt>
      <trkpt lat="52.135937036946416" lon="-6.917981989681721">
        <ele>11.67</ele>
        <time>2026-06-26T09:25:28Z</time>
      </trkpt>
      <trkpt lat="52.135821031406522" lon="-6.917081018909812">
        <ele>12.15</ele>
        <time>2026-06-26T09:25:33Z</time>
      </trkpt>
      <trkpt lat="52.135813990607858" lon="-6.917009018361569">
        <ele>12.15</ele>
        <time>2026-06-26T09:25:34Z</time>
      </trkpt>
      <trkpt lat="52.135835029184818" lon="-6.916913967579603">
        <ele>12.15</ele>
        <time>2026-06-26T09:25:35Z</time>
      </trkpt>
      <trkpt lat="52.135849026963115" lon="-6.916851019486785">
        <ele>12.630000000000001</ele>
        <time>2026-06-26T09:25:36Z</time>
      </trkpt>
      <trkpt lat="52.135892026126385" lon="-6.916815983131528">
        <ele>12.630000000000001</ele>
        <time>2026-06-26T09:25:37Z</time>
      </trkpt>
      <trkpt lat="52.135942988097668" lon="-6.916709030047059">
        <ele>12.630000000000001</ele>
        <time>2026-06-26T09:25:38Z</time>
      </trkpt>
      <trkpt lat="52.136007025837898" lon="-6.916686985641718">
        <ele>13.119999999999999</ele>
        <time>2026-06-26T09:25:39Z</time>
      </trkpt>
      <trkpt lat="52.136085983365774" lon="-6.916658990085125">
        <ele>13.119999999999999</ele>
        <time>2026-06-26T09:25:40Z</time>
      </trkpt>
      <trkpt lat="52.136371973901987" lon="-6.916557988151908">
        <ele>13.6</ele>
        <time>2026-06-26T09:25:43Z</time>
      </trkpt>
      <trkpt lat="52.136458978056908" lon="-6.91645497456193">
        <ele>14.08</ele>
        <time>2026-06-26T09:25:44Z</time>
      </trkpt>
      <trkpt lat="52.136850999668241" lon="-6.915988018736243">
        <ele>15.039999999999999</ele>
        <time>2026-06-26T09:25:48Z</time>
      </trkpt>
      <trkpt lat="52.136973040178418" lon="-6.91587402485311">
        <ele>15.039999999999999</ele>
        <time>2026-06-26T09:25:49Z</time>
      </trkpt>
      <trkpt lat="52.137102959677577" lon="-6.915815016254783">
        <ele>15.52</ele>
        <time>2026-06-26T09:25:50Z</time>
      </trkpt>
      <trkpt lat="52.138700969517231" lon="-6.914803991094232">
        <ele>14.56</ele>
        <time>2026-06-26T09:26:01Z</time>
      </trkpt>
      <trkpt lat="52.140246005728841" lon="-6.913397004827857">
        <ele>15.52</ele>
        <time>2026-06-26T09:26:12Z</time>
      </trkpt>
      <trkpt lat="52.140875989571214" lon="-6.912828963249922">
        <ele>16</ele>
        <time>2026-06-26T09:26:17Z</time>
      </trkpt>
      <trkpt lat="52.141006998717785" lon="-6.912739025428891">
        <ele>16</ele>
        <time>2026-06-26T09:26:18Z</time>
      </trkpt>
      <trkpt lat="52.141264993697405" lon="-6.91262997686863">
        <ele>16.48</ele>
        <time>2026-06-26T09:26:20Z</time>
      </trkpt>
      <trkpt lat="52.14138200506568" lon="-6.912505002692342">
        <ele>16.48</ele>
        <time>2026-06-26T09:26:21Z</time>
      </trkpt>
      <trkpt lat="52.142799971625209" lon="-6.910929037258029">
        <ele>15.039999999999999</ele>
        <time>2026-06-26T09:26:32Z</time>
      </trkpt>
      <trkpt lat="52.145074987784028" lon="-6.908343974500895">
        <ele>15.039999999999999</ele>
        <time>2026-06-26T09:26:48Z</time>
      </trkpt>
      <trkpt lat="52.146813981235027" lon="-6.906369030475617">
        <ele>12.630000000000001</ele>
        <time>2026-06-26T09:27:00Z</time>
      </trkpt>
      <trkpt lat="52.148803006857634" lon="-6.904124021530151">
        <ele>12.630000000000001</ele>
        <time>2026-06-26T09:27:16Z</time>
      </trkpt>
      <trkpt lat="52.15060100890696" lon="-6.902067018672824">
        <ele>14.56</ele>
        <time>2026-06-26T09:27:31Z</time>
      </trkpt>
      <trkpt lat="52.152568995952606" lon="-6.899793008342385">
        <ele>17.440000000000001</ele>
        <time>2026-06-26T09:27:47Z</time>
      </trkpt>
      <trkpt lat="52.154684001579881" lon="-6.897343983873725">
        <ele>18.879999999999999</ele>
        <time>2026-06-26T09:28:04Z</time>
      </trkpt>
      <trkpt lat="52.156918030232191" lon="-6.894798986613751">
        <ele>24.170000000000002</ele>
        <time>2026-06-26T09:28:22Z</time>
      </trkpt>
      <trkpt lat="52.158544035628438" lon="-6.892994027584791">
        <ele>28.5</ele>
        <time>2026-06-26T09:28:35Z</time>
      </trkpt>
      <trkpt lat="52.159954961389303" lon="-6.891115978360176">
        <ele>33.299999999999997</ele>
        <time>2026-06-26T09:28:47Z</time>
      </trkpt>
      <trkpt lat="52.161074029281735" lon="-6.889428030699492">
        <ele>32.82</ele>
        <time>2026-06-26T09:28:57Z</time>
      </trkpt>
      <trkpt lat="52.162862978875637" lon="-6.887159971520305">
        <ele>36.189999999999998</ele>
        <time>2026-06-26T09:29:12Z</time>
      </trkpt>
      <trkpt lat="52.164139039814472" lon="-6.886284984648228">
        <ele>37.630000000000003</ele>
        <time>2026-06-26T09:29:21Z</time>
      </trkpt>
      <trkpt lat="52.165794968605042" lon="-6.88499903306365">
        <ele>37.149999999999999</ele>
        <time>2026-06-26T09:29:33Z</time>
      </trkpt>
      <trkpt lat="52.167318966239691" lon="-6.883864961564541">
        <ele>37.630000000000003</ele>
        <time>2026-06-26T09:29:44Z</time>
      </trkpt>
      <trkpt lat="52.167434971779585" lon="-6.883697994053364">
        <ele>37.149999999999999</ele>
        <time>2026-06-26T09:29:45Z</time>
      </trkpt>
      <trkpt lat="52.167537985369563" lon="-6.883514011278749">
        <ele>37.149999999999999</ele>
        <time>2026-06-26T09:29:46Z</time>
      </trkpt>
      <trkpt lat="52.167841996997595" lon="-6.882977988570929">
        <ele>37.149999999999999</ele>
        <time>2026-06-26T09:29:49Z</time>
      </trkpt>
      <trkpt lat="52.167946016415954" lon="-6.882816972211003">
        <ele>37.630000000000003</ele>
        <time>2026-06-26T09:29:50Z</time>
      </trkpt>
      <trkpt lat="52.16806897893548" lon="-6.882694009691477">
        <ele>38.109999999999999</ele>
        <time>2026-06-26T09:29:51Z</time>
      </trkpt>
      <trkpt lat="52.169314026832581" lon="-6.88190602697432">
        <ele>43.880000000000003</ele>
        <time>2026-06-26T09:30:00Z</time>
      </trkpt>
      <trkpt lat="52.1694649849087" lon="-6.881859004497528">
        <ele>43.880000000000003</ele>
        <time>2026-06-26T09:30:01Z</time>
      </trkpt>
      <trkpt lat="52.169609991833568" lon="-6.881768982857466">
        <ele>44.359999999999999</ele>
        <time>2026-06-26T09:30:02Z</time>
      </trkpt>
      <trkpt lat="52.169745024293661" lon="-6.881655994802713">
        <ele>44.359999999999999</ele>
        <time>2026-06-26T09:30:03Z</time>
      </trkpt>
      <trkpt lat="52.169876033440232" lon="-6.881531020626426">
        <ele>44.840000000000003</ele>
        <time>2026-06-26T09:30:04Z</time>
      </trkpt>
      <trkpt lat="52.170004025101662" lon="-6.881404034793377">
        <ele>45.32</ele>
        <time>2026-06-26T09:30:05Z</time>
      </trkpt>
      <trkpt lat="52.171589965000749" lon="-6.879841983318329">
        <ele>49.649999999999999</ele>
        <time>2026-06-26T09:30:17Z</time>
      </trkpt>
      <trkpt lat="52.17174201272428" lon="-6.879782974720001">
        <ele>49.649999999999999</ele>
        <time>2026-06-26T09:30:18Z</time>
      </trkpt>
      <trkpt lat="52.1718929708004" lon="-6.879724971950054">
        <ele>49.649999999999999</ele>
        <time>2026-06-26T09:30:19Z</time>
      </trkpt>
      <trkpt lat="52.173592988401651" lon="-6.879632016643882">
        <ele>45.32</ele>
        <time>2026-06-26T09:30:30Z</time>
      </trkpt>
      <trkpt lat="52.174179973080754" lon="-6.8796949647367">
        <ele>42.439999999999998</ele>
        <time>2026-06-26T09:30:34Z</time>
      </trkpt>
      <trkpt lat="52.174337971955538" lon="-6.879616007208824">
        <ele>41.950000000000003</ele>
        <time>2026-06-26T09:30:35Z</time>
      </trkpt>
      <trkpt lat="52.174481973052025" lon="-6.879544006660581">
        <ele>40.990000000000002</ele>
        <time>2026-06-26T09:30:36Z</time>
      </trkpt>
      <trkpt lat="52.175476988777518" lon="-6.878873035311699">
        <ele>35.710000000000001</ele>
        <time>2026-06-26T09:30:43Z</time>
      </trkpt>
      <trkpt lat="52.177041973918676" lon="-6.87694301828742">
        <ele>30.420000000000002</ele>
        <time>2026-06-26T09:30:56Z</time>
      </trkpt>
      <trkpt lat="52.178042018786073" lon="-6.87548297457397">
        <ele>28.98</ele>
        <time>2026-06-26T09:31:05Z</time>
      </trkpt>
      <trkpt lat="52.179688978940248" lon="-6.871927035972476">
        <ele>32.82</ele>
        <time>2026-06-26T09:31:23Z</time>
      </trkpt>
      <trkpt lat="52.180737974122167" lon="-6.869148015975952">
        <ele>30.420000000000002</ele>
        <time>2026-06-26T09:31:36Z</time>
      </trkpt>
      <trkpt lat="52.181885959580541" lon="-6.867481023073196">
        <ele>22.25</ele>
        <time>2026-06-26T09:31:46Z</time>
      </trkpt>
      <trkpt lat="52.182929003611207" lon="-6.866055009886622">
        <ele>20.809999999999999</ele>
        <time>2026-06-26T09:31:56Z</time>
      </trkpt>
      <trkpt lat="52.183255981653929" lon="-6.865761978551745">
        <ele>20.32</ele>
        <time>2026-06-26T09:31:59Z</time>
      </trkpt>
      <trkpt lat="52.18336402438581" lon="-6.86568302102387">
        <ele>19.359999999999999</ele>
        <time>2026-06-26T09:32:00Z</time>
      </trkpt>
      <trkpt lat="52.183437030762434" lon="-6.865656031295657">
        <ele>18.879999999999999</ele>
        <time>2026-06-26T09:32:01Z</time>
      </trkpt>
      <trkpt lat="52.183530991896987" lon="-6.86561998911202">
        <ele>18.399999999999999</ele>
        <time>2026-06-26T09:32:02Z</time>
      </trkpt>
      <trkpt lat="52.183625958859921" lon="-6.865584030747414">
        <ele>17.440000000000001</ele>
        <time>2026-06-26T09:32:03Z</time>
      </trkpt>
      <trkpt lat="52.183707011863589" lon="-6.86555402353406">
        <ele>16.48</ele>
        <time>2026-06-26T09:32:04Z</time>
      </trkpt>
      <trkpt lat="52.183767026290298" lon="-6.865412034094334">
        <ele>15.039999999999999</ele>
        <time>2026-06-26T09:32:05Z</time>
      </trkpt>
      <trkpt lat="52.183825029060245" lon="-6.865274989977479">
        <ele>14.08</ele>
        <time>2026-06-26T09:32:06Z</time>
      </trkpt>
      <trkpt lat="52.183882026001811" lon="-6.865129983052611">
        <ele>13.6</ele>
        <time>2026-06-26T09:32:07Z</time>
      </trkpt>
      <trkpt lat="52.183911027386785" lon="-6.864956980571151">
        <ele>13.119999999999999</ele>
        <time>2026-06-26T09:32:08Z</time>
      </trkpt>
      <trkpt lat="52.184331966564059" lon="-6.863486962392926">
        <ele>14.08</ele>
        <time>2026-06-26T09:32:17Z</time>
      </trkpt>
      <trkpt lat="52.184402039274573" lon="-6.863362994045019">
        <ele>14.56</ele>
        <time>2026-06-26T09:32:18Z</time>
      </trkpt>
      <trkpt lat="52.184478985145688" lon="-6.863261992111802">
        <ele>15.52</ele>
        <time>2026-06-26T09:32:19Z</time>
      </trkpt>
      <trkpt lat="52.185180969536304" lon="-6.862245015799999">
        <ele>19.359999999999999</ele>
        <time>2026-06-26T09:32:27Z</time>
      </trkpt>
      <trkpt lat="52.186161987483501" lon="-6.860324973240495">
        <ele>19.84</ele>
        <time>2026-06-26T09:32:38Z</time>
      </trkpt>
      <trkpt lat="52.187149040400982" lon="-6.858567036688328">
        <ele>21.77</ele>
        <time>2026-06-26T09:32:48Z</time>
      </trkpt>
      <trkpt lat="52.187978010624647" lon="-6.857518963515759">
        <ele>21.289999999999999</ele>
        <time>2026-06-26T09:32:56Z</time>
      </trkpt>
      <trkpt lat="52.188285961747169" lon="-6.857116967439652">
        <ele>21.77</ele>
        <time>2026-06-26T09:32:59Z</time>
      </trkpt>
      <trkpt lat="52.188389981165528" lon="-6.856994004920125">
        <ele>22.25</ele>
        <time>2026-06-26T09:33:00Z</time>
      </trkpt>
      <trkpt lat="52.188507998362184" lon="-6.856899037957192">
        <ele>22.73</ele>
        <time>2026-06-26T09:33:01Z</time>
      </trkpt>
      <trkpt lat="52.18863096088171" lon="-6.856821002438664">
        <ele>23.210000000000001</ele>
        <time>2026-06-26T09:33:02Z</time>
      </trkpt>
      <trkpt lat="52.18875702470541" lon="-6.856759982183576">
        <ele>23.690000000000001</ele>
        <time>2026-06-26T09:33:03Z</time>
      </trkpt>
      <trkpt lat="52.190097039565444" lon="-6.856140978634358">
        <ele>23.690000000000001</ele>
        <time>2026-06-26T09:33:13Z</time>
      </trkpt>
      <trkpt lat="52.190538011491299" lon="-6.85590997338295">
        <ele>23.210000000000001</ele>
        <time>2026-06-26T09:33:16Z</time>
      </trkpt>
      <trkpt lat="52.190689975395799" lon="-6.855891030281782">
        <ele>23.210000000000001</ele>
        <time>2026-06-26T09:33:17Z</time>
      </trkpt>
      <trkpt lat="52.190843028947711" lon="-6.855870997533202">
        <ele>22.73</ele>
        <time>2026-06-26T09:33:18Z</time>
      </trkpt>
      <trkpt lat="52.192206010222435" lon="-6.855581989511848">
        <ele>23.210000000000001</ele>
        <time>2026-06-26T09:33:27Z</time>
      </trkpt>
      <trkpt lat="52.194137033075094" lon="-6.855088965967298">
        <ele>24.649999999999999</ele>
        <time>2026-06-26T09:33:40Z</time>
      </trkpt>
      <trkpt lat="52.195348972454667" lon="-6.854727035388351">
        <ele>27.050000000000001</ele>
        <time>2026-06-26T09:33:48Z</time>
      </trkpt>
      <trkpt lat="52.195500014349818" lon="-6.854708008468151">
        <ele>27.050000000000001</ele>
        <time>2026-06-26T09:33:49Z</time>
      </trkpt>
      <trkpt lat="52.196100996807218" lon="-6.854809010401368">
        <ele>28.98</ele>
        <time>2026-06-26T09:33:53Z</time>
      </trkpt>
      <trkpt lat="52.196242986246943" lon="-6.854886040091515">
        <ele>29.460000000000001</ele>
        <time>2026-06-26T09:33:54Z</time>
      </trkpt>
      <trkpt lat="52.196760987862945" lon="-6.855347966775298">
        <ele>30.420000000000002</ele>
        <time>2026-06-26T09:33:58Z</time>
      </trkpt>
      <trkpt lat="52.196903983131051" lon="-6.855490040034056">
        <ele>30.420000000000002</ele>
        <time>2026-06-26T09:33:59Z</time>
      </trkpt>
      <trkpt lat="52.196996016427875" lon="-6.855642003938556">
        <ele>30.899999999999999</ele>
        <time>2026-06-26T09:34:00Z</time>
      </trkpt>
      <trkpt lat="52.197532039135695" lon="-6.856521014124155">
        <ele>33.299999999999997</ele>
        <time>2026-06-26T09:34:05Z</time>
      </trkpt>
      <trkpt lat="52.197641003876925" lon="-6.856698039919138">
        <ele>33.780000000000001</ele>
        <time>2026-06-26T09:34:06Z</time>
      </trkpt>
      <trkpt lat="52.197773018851876" lon="-6.856826031580567">
        <ele>33.780000000000001</ele>
        <time>2026-06-26T09:34:07Z</time>
      </trkpt>
      <trkpt lat="52.198870964348316" lon="-6.857514018192887">
        <ele>33.780000000000001</ele>
        <time>2026-06-26T09:34:15Z</time>
      </trkpt>
      <trkpt lat="52.199008008465171" lon="-6.857546037063003">
        <ele>33.780000000000001</ele>
        <time>2026-06-26T09:34:16Z</time>
      </trkpt>
      <trkpt lat="52.199541013687849" lon="-6.85767000541091">
        <ele>32.82</ele>
        <time>2026-06-26T09:34:20Z</time>
      </trkpt>
      <trkpt lat="52.200656980276108" lon="-6.858499981462956">
        <ele>28.98</ele>
        <time>2026-06-26T09:34:28Z</time>
      </trkpt>
      <trkpt lat="52.201438006013632" lon="-6.859256029129028">
        <ele>28.02</ele>
        <time>2026-06-26T09:34:35Z</time>
      </trkpt>
      <trkpt lat="52.201559962704778" lon="-6.859373962506652">
        <ele>28.02</ele>
        <time>2026-06-26T09:34:39Z</time>
      </trkpt>
      <trkpt lat="52.201559962704778" lon="-6.859373962506652">
        <ele>28.02</ele>
        <time>2026-06-26T09:34:40Z</time>
      </trkpt>
      <trkpt lat="52.201594999060035" lon="-6.859291987493634">
        <ele>28.02</ele>
        <time>2026-06-26T09:34:41Z</time>
      </trkpt>
      <trkpt lat="52.201631041243672" lon="-6.859204983338714">
        <ele>28.02</ele>
        <time>2026-06-26T09:34:42Z</time>
      </trkpt>
      <trkpt lat="52.201679991558194" lon="-6.859085960313678">
        <ele>28.02</ele>
        <time>2026-06-26T09:34:43Z</time>
      </trkpt>
      <trkpt lat="52.20173598267138" lon="-6.858954029157758">
        <ele>28.02</ele>
        <time>2026-06-26T09:34:44Z</time>
      </trkpt>
      <trkpt lat="52.201794991269708" lon="-6.858812961727381">
        <ele>28.02</ele>
        <time>2026-06-26T09:34:45Z</time>
      </trkpt>
      <trkpt lat="52.201859029009938" lon="-6.85865898616612">
        <ele>28.02</ele>
        <time>2026-06-26T09:34:46Z</time>
      </trkpt>
      <trkpt lat="52.201927006244659" lon="-6.858496963977814">
        <ele>28.02</ele>
        <time>2026-06-26T09:34:47Z</time>
      </trkpt>
      <trkpt lat="52.202525977045298" lon="-6.857057036831975">
        <ele>27.530000000000001</ele>
        <time>2026-06-26T09:34:55Z</time>
      </trkpt>
      <trkpt lat="52.203223016113043" lon="-6.855679973959923">
        <ele>26.57</ele>
        <time>2026-06-26T09:35:05Z</time>
      </trkpt>
      <trkpt lat="52.203599028289318" lon="-6.85481202788651">
        <ele>24.170000000000002</ele>
        <time>2026-06-26T09:35:12Z</time>
      </trkpt>
      <trkpt lat="52.203624006360769" lon="-6.854745978489518">
        <ele>24.170000000000002</ele>
        <time>2026-06-26T09:35:13Z</time>
      </trkpt>
      <trkpt lat="52.20373498275876" lon="-6.854650005698204">
        <ele>24.170000000000002</ele>
        <time>2026-06-26T09:35:14Z</time>
      </trkpt>
      <trkpt lat="52.203751998022199" lon="-6.854670960456133">
        <ele>24.170000000000002</ele>
        <time>2026-06-26T09:35:15Z</time>
      </trkpt>
      <trkpt lat="52.203773036599159" lon="-6.854697028174996">
        <ele>24.170000000000002</ele>
        <time>2026-06-26T09:35:16Z</time>
      </trkpt>
      <trkpt lat="52.203806983307004" lon="-6.854738015681505">
        <ele>24.170000000000002</ele>
        <time>2026-06-26T09:35:17Z</time>
      </trkpt>
      <trkpt lat="52.203858029097319" lon="-6.854800963774324">
        <ele>24.170000000000002</ele>
        <time>2026-06-26T09:35:18Z</time>
      </trkpt>
      <trkpt lat="52.203925000503659" lon="-6.854883022606373">
        <ele>24.170000000000002</ele>
        <time>2026-06-26T09:35:19Z</time>
      </trkpt>
      <trkpt lat="52.204784983769059" lon="-6.855919025838375">
        <ele>23.210000000000001</ele>
        <time>2026-06-26T09:35:29Z</time>
      </trkpt>
      <trkpt lat="52.205230984836817" lon="-6.856414983049035">
        <ele>22.25</ele>
        <time>2026-06-26T09:35:33Z</time>
      </trkpt>
      <trkpt lat="52.20534598454833" lon="-6.856542974710465">
        <ele>21.77</ele>
        <time>2026-06-26T09:35:34Z</time>
      </trkpt>
      <trkpt lat="52.20545201562345" lon="-6.856695022433996">
        <ele>20.809999999999999</ele>
        <time>2026-06-26T09:35:35Z</time>
      </trkpt>
      <trkpt lat="52.205983009189367" lon="-6.85777603648603">
        <ele>13.119999999999999</ele>
        <time>2026-06-26T09:35:42Z</time>
      </trkpt>
      <trkpt lat="52.20607403665781" lon="-6.857828004285693">
        <ele>11.67</ele>
        <time>2026-06-26T09:35:43Z</time>
      </trkpt>
      <trkpt lat="52.206166991963983" lon="-6.857847031205893">
        <ele>10.23</ele>
        <time>2026-06-26T09:35:44Z</time>
      </trkpt>
      <trkpt lat="52.206250978633761" lon="-6.857825992628932">
        <ele>9.27</ele>
        <time>2026-06-26T09:35:45Z</time>
      </trkpt>
      <trkpt lat="52.206342006102204" lon="-6.857803026214242">
        <ele>7.83</ele>
        <time>2026-06-26T09:35:46Z</time>
      </trkpt>
      <trkpt lat="52.207174999639392" lon="-6.857476970180869">
        <ele>6.39</ele>
        <time>2026-06-26T09:35:54Z</time>
      </trkpt>
      <trkpt lat="52.207276001572609" lon="-6.857473030686379">
        <ele>7.35</ele>
        <time>2026-06-26T09:35:55Z</time>
      </trkpt>
      <trkpt lat="52.2073869779706" lon="-6.857504965737462">
        <ele>8.789999999999999</ele>
        <time>2026-06-26T09:35:56Z</time>
      </trkpt>
      <trkpt lat="52.207445986568928" lon="-6.857600016519427">
        <ele>9.75</ele>
        <time>2026-06-26T09:35:57Z</time>
      </trkpt>
      <trkpt lat="52.207500971853733" lon="-6.857731025665999">
        <ele>10.23</ele>
        <time>2026-06-26T09:35:58Z</time>
      </trkpt>
      <trkpt lat="52.207519998773932" lon="-6.857906961813569">
        <ele>11.19</ele>
        <time>2026-06-26T09:35:59Z</time>
      </trkpt>
      <trkpt lat="52.207508012652397" lon="-6.858082981780171">
        <ele>12.15</ele>
        <time>2026-06-26T09:36:00Z</time>
      </trkpt>
      <trkpt lat="52.207495020702481" lon="-6.858267970383167">
        <ele>12.630000000000001</ele>
        <time>2026-06-26T09:36:01Z</time>
      </trkpt>
      <trkpt lat="52.207484040409327" lon="-6.858437033370137">
        <ele>12.630000000000001</ele>
        <time>2026-06-26T09:36:02Z</time>
      </trkpt>
      <trkpt lat="52.207519998773932" lon="-6.858563013374806">
        <ele>13.119999999999999</ele>
        <time>2026-06-26T09:36:03Z</time>
      </trkpt>
      <trkpt lat="52.207560986280441" lon="-6.858687987551093">
        <ele>13.119999999999999</ele>
        <time>2026-06-26T09:36:04Z</time>
      </trkpt>
      <trkpt lat="52.207609014585614" lon="-6.858783960342407">
        <ele>13.119999999999999</ele>
        <time>2026-06-26T09:36:05Z</time>
      </trkpt>
      <trkpt lat="52.207698030397296" lon="-6.858834000304341">
        <ele>12.630000000000001</ele>
        <time>2026-06-26T09:36:06Z</time>
      </trkpt>
      <trkpt lat="52.207796014845371" lon="-6.858888985589147">
        <ele>12.630000000000001</ele>
        <time>2026-06-26T09:36:07Z</time>
      </trkpt>
      <trkpt lat="52.207898022606969" lon="-6.858946988359094">
        <ele>13.119999999999999</ele>
        <time>2026-06-26T09:36:08Z</time>
      </trkpt>
      <trkpt lat="52.208007993176579" lon="-6.85896098613739">
        <ele>13.119999999999999</ele>
        <time>2026-06-26T09:36:09Z</time>
      </trkpt>
      <trkpt lat="52.208127016201615" lon="-6.858952017500997">
        <ele>13.6</ele>
        <time>2026-06-26T09:36:10Z</time>
      </trkpt>
      <trkpt lat="52.208926985040307" lon="-6.858858978375793">
        <ele>14.56</ele>
        <time>2026-06-26T09:36:16Z</time>
      </trkpt>
      <trkpt lat="52.209066040813923" lon="-6.858876999467611">
        <ele>14.56</ele>
        <time>2026-06-26T09:36:17Z</time>
      </trkpt>
      <trkpt lat="52.210119981318712" lon="-6.85917497612536">
        <ele>14.56</ele>
        <time>2026-06-26T09:36:24Z</time>
      </trkpt>
      <trkpt lat="52.210611999034882" lon="-6.859259968623519">
        <ele>13.6</ele>
        <time>2026-06-26T09:36:27Z</time>
      </trkpt>
      <trkpt lat="52.211436023935676" lon="-6.859546964988112">
        <ele>13.119999999999999</ele>
        <time>2026-06-26T09:36:32Z</time>
      </trkpt>
      <trkpt lat="52.211597040295601" lon="-6.859549982473254">
        <ele>13.119999999999999</ele>
        <time>2026-06-26T09:36:33Z</time>
      </trkpt>
      <trkpt lat="52.211745986714959" lon="-6.859526010230184">
        <ele>13.119999999999999</ele>
        <time>2026-06-26T09:36:34Z</time>
      </trkpt>
      <trkpt lat="52.211899040266871" lon="-6.859494997188449">
        <ele>13.119999999999999</ele>
        <time>2026-06-26T09:36:35Z</time>
      </trkpt>
      <trkpt lat="52.21204899251461" lon="-6.859430959448218">
        <ele>12.630000000000001</ele>
        <time>2026-06-26T09:36:36Z</time>
      </trkpt>
      <trkpt lat="52.21245501190424" lon="-6.859357031062245">
        <ele>13.119999999999999</ele>
        <time>2026-06-26T09:36:39Z</time>
      </trkpt>
      <trkpt lat="52.212578980252147" lon="-6.859376979991794">
        <ele>12.630000000000001</ele>
        <time>2026-06-26T09:36:40Z</time>
      </trkpt>
      <trkpt lat="52.212996985763311" lon="-6.85956196859479">
        <ele>11.67</ele>
        <time>2026-06-26T09:36:43Z</time>
      </trkpt>
      <trkpt lat="52.213478023186326" lon="-6.859636986628175">
        <ele>12.15</ele>
        <time>2026-06-26T09:36:46Z</time>
      </trkpt>
      <trkpt lat="52.213623030111194" lon="-6.859646961092949">
        <ele>12.630000000000001</ele>
        <time>2026-06-26T09:36:47Z</time>
      </trkpt>
      <trkpt lat="52.213743980973959" lon="-6.859614020213485">
        <ele>13.6</ele>
        <time>2026-06-26T09:36:48Z</time>
      </trkpt>
      <trkpt lat="52.213840959593654" lon="-6.85951704159379">
        <ele>14.08</ele>
        <time>2026-06-26T09:36:49Z</time>
      </trkpt>
      <trkpt lat="52.213915977627039" lon="-6.859402963891625">
        <ele>15.039999999999999</ele>
        <time>2026-06-26T09:36:50Z</time>
      </trkpt>
      <trkpt lat="52.213986972346902" lon="-6.859283018857241">
        <ele>16</ele>
        <time>2026-06-26T09:36:51Z</time>
      </trkpt>
      <trkpt lat="52.214059978723526" lon="-6.859162990003824">
        <ele>16.960000000000001</ele>
        <time>2026-06-26T09:36:52Z</time>
      </trkpt>
      <trkpt lat="52.214139020070434" lon="-6.859030975028873">
        <ele>17.920000000000002</ele>
        <time>2026-06-26T09:36:53Z</time>
      </trkpt>
      <trkpt lat="52.214247984811664" lon="-6.858922010287643">
        <ele>19.359999999999999</ele>
        <time>2026-06-26T09:36:54Z</time>
      </trkpt>
      <trkpt lat="52.214370025321841" lon="-6.858843974769115">
        <ele>20.32</ele>
        <time>2026-06-26T09:36:55Z</time>
      </trkpt>
      <trkpt lat="52.214503968134522" lon="-6.858800975605846">
        <ele>21.289999999999999</ele>
        <time>2026-06-26T09:36:56Z</time>
      </trkpt>
      <trkpt lat="52.214644029736519" lon="-6.858778009191155">
        <ele>22.25</ele>
        <time>2026-06-26T09:36:57Z</time>
      </trkpt>
      <trkpt lat="52.214790964499116" lon="-6.858796030282974">
        <ele>23.210000000000001</ele>
        <time>2026-06-26T09:36:58Z</time>
      </trkpt>
      <trkpt lat="52.214948041364551" lon="-6.858826037496328">
        <ele>24.170000000000002</ele>
        <time>2026-06-26T09:36:59Z</time>
      </trkpt>
      <trkpt lat="52.216229969635606" lon="-6.859234990552068">
        <ele>31.379999999999999</ele>
        <time>2026-06-26T09:37:07Z</time>
      </trkpt>
      <trkpt lat="52.217317018657923" lon="-6.859761038795114">
        <ele>35.229999999999997</ele>
        <time>2026-06-26T09:37:14Z</time>
      </trkpt>
      <trkpt lat="52.21881796605885" lon="-6.86011902987957">
        <ele>41.950000000000003</ele>
        <time>2026-06-26T09:37:23Z</time>
      </trkpt>
      <trkpt lat="52.218972025439143" lon="-6.860241992399097">
        <ele>42.439999999999998</ele>
        <time>2026-06-26T09:37:24Z</time>
      </trkpt>
      <trkpt lat="52.219128012657166" lon="-6.860371995717287">
        <ele>42.920000000000002</ele>
        <time>2026-06-26T09:37:25Z</time>
      </trkpt>
      <trkpt lat="52.220356967300177" lon="-6.861584018915892">
        <ele>41.950000000000003</ele>
        <time>2026-06-26T09:37:34Z</time>
      </trkpt>
      <trkpt lat="52.220517983660102" lon="-6.861655013635755">
        <ele>41.950000000000003</ele>
        <time>2026-06-26T09:37:35Z</time>
      </trkpt>
      <trkpt lat="52.220665002241731" lon="-6.861719973385334">
        <ele>41.950000000000003</ele>
        <time>2026-06-26T09:37:36Z</time>
      </trkpt>
      <trkpt lat="52.221795972436666" lon="-6.862041000276804">
        <ele>41.950000000000003</ele>
        <time>2026-06-26T09:37:44Z</time>
      </trkpt>
      <trkpt lat="52.223020987585187" lon="-6.861751992255449">
        <ele>39.549999999999997</ele>
        <time>2026-06-26T09:37:52Z</time>
      </trkpt>
      <trkpt lat="52.224515983834863" lon="-6.861327029764652">
        <ele>40.030000000000001</ele>
        <time>2026-06-26T09:38:01Z</time>
      </trkpt>
      <trkpt lat="52.226189011707902" lon="-6.861367011442781">
        <ele>34.740000000000002</ele>
        <time>2026-06-26T09:38:11Z</time>
      </trkpt>
      <trkpt lat="52.226622020825744" lon="-6.861475976184011">
        <ele>32.340000000000003</ele>
        <time>2026-06-26T09:38:14Z</time>
      </trkpt>
      <trkpt lat="52.226720005273819" lon="-6.861583013087511">
        <ele>31.859999999999999</ele>
        <time>2026-06-26T09:38:15Z</time>
      </trkpt>
      <trkpt lat="52.226803991943598" lon="-6.861713016405702">
        <ele>31.379999999999999</ele>
        <time>2026-06-26T09:38:16Z</time>
      </trkpt>
      <trkpt lat="52.2269800119102" lon="-6.86198802664876">
        <ele>31.379999999999999</ele>
        <time>2026-06-26T09:38:18Z</time>
      </trkpt>
      <trkpt lat="52.22706601023674" lon="-6.862105960026383">
        <ele>30.899999999999999</ele>
        <time>2026-06-26T09:38:19Z</time>
      </trkpt>
      <trkpt lat="52.227198025211692" lon="-6.862175026908517">
        <ele>31.379999999999999</ele>
        <time>2026-06-26T09:38:20Z</time>
      </trkpt>
      <trkpt lat="52.227849969640374" lon="-6.862406032159925">
        <ele>32.82</ele>
        <time>2026-06-26T09:38:24Z</time>
      </trkpt>
      <trkpt lat="52.228036969900131" lon="-6.862410977482796">
        <ele>33.299999999999997</ele>
        <time>2026-06-26T09:38:25Z</time>
      </trkpt>
      <trkpt lat="52.229323005303741" lon="-6.862549027428031">
        <ele>36.670000000000002</ele>
        <time>2026-06-26T09:38:32Z</time>
      </trkpt>
      <trkpt lat="52.229506988078356" lon="-6.86250502243638">
        <ele>36.670000000000002</ele>
        <time>2026-06-26T09:38:33Z</time>
      </trkpt>
      <trkpt lat="52.231066022068262" lon="-6.862228000536561">
        <ele>38.109999999999999</ele>
        <time>2026-06-26T09:38:42Z</time>
      </trkpt>
      <trkpt lat="52.231948971748352" lon="-6.862086011096835">
        <ele>38.109999999999999</ele>
        <time>2026-06-26T09:38:48Z</time>
      </trkpt>
      <trkpt lat="52.232062965631485" lon="-6.861994983628392">
        <ele>38.109999999999999</ele>
        <time>2026-06-26T09:38:49Z</time>
      </trkpt>
      <trkpt lat="52.232164973393083" lon="-6.861870009452105">
        <ele>37.630000000000003</ele>
        <time>2026-06-26T09:38:50Z</time>
      </trkpt>
      <trkpt lat="52.23226304166019" lon="-6.861728020012379">
        <ele>37.630000000000003</ele>
        <time>2026-06-26T09:38:51Z</time>
      </trkpt>
      <trkpt lat="52.232354991137981" lon="-6.861563986167312">
        <ele>38.109999999999999</ele>
        <time>2026-06-26T09:38:52Z</time>
      </trkpt>
      <trkpt lat="52.233438016846776" lon="-6.859659031033516">
        <ele>36.189999999999998</ele>
        <time>2026-06-26T09:39:03Z</time>
      </trkpt>
      <trkpt lat="52.23460896871984" lon="-6.857921965420246">
        <ele>37.149999999999999</ele>
        <time>2026-06-26T09:39:13Z</time>
      </trkpt>
      <trkpt lat="52.235201988369226" lon="-6.856972966343164">
        <ele>36.670000000000002</ele>
        <time>2026-06-26T09:39:20Z</time>
      </trkpt>
      <trkpt lat="52.235283963382244" lon="-6.856857966631651">
        <ele>36.189999999999998</ele>
        <time>2026-06-26T09:39:21Z</time>
      </trkpt>
      <trkpt lat="52.235398041084409" lon="-6.856815973296762">
        <ele>36.189999999999998</ele>
        <time>2026-06-26T09:39:22Z</time>
      </trkpt>
      <trkpt lat="52.236109999939799" lon="-6.856572981923819">
        <ele>35.710000000000001</ele>
        <time>2026-06-26T09:39:27Z</time>
      </trkpt>
      <trkpt lat="52.237372985109687" lon="-6.855722973123193">
        <ele>31.379999999999999</ele>
        <time>2026-06-26T09:39:36Z</time>
      </trkpt>
      <trkpt lat="52.238018978387117" lon="-6.855102963745594">
        <ele>31.379999999999999</ele>
        <time>2026-06-26T09:39:41Z</time>
      </trkpt>
      <trkpt lat="52.23853999748826" lon="-6.854574987664819">
        <ele>33.299999999999997</ele>
        <time>2026-06-26T09:39:46Z</time>
      </trkpt>
      <trkpt lat="52.238656003028154" lon="-6.854524025693536">
        <ele>33.780000000000001</ele>
        <time>2026-06-26T09:39:47Z</time>
      </trkpt>
      <trkpt lat="52.238777037709951" lon="-6.85453400015831">
        <ele>34.259999999999998</ele>
        <time>2026-06-26T09:39:48Z</time>
      </trkpt>
      <trkpt lat="52.23890301771462" lon="-6.854585967957974">
        <ele>34.740000000000002</ele>
        <time>2026-06-26T09:39:49Z</time>
      </trkpt>
      <trkpt lat="52.239022962749004" lon="-6.854672972112894">
        <ele>35.710000000000001</ele>
        <time>2026-06-26T09:39:50Z</time>
      </trkpt>
      <trkpt lat="52.23914198577404" lon="-6.85479199513793">
        <ele>36.189999999999998</ele>
        <time>2026-06-26T09:39:51Z</time>
      </trkpt>
      <trkpt lat="52.240168014541268" lon="-6.856171991676092">
        <ele>39.07</ele>
        <time>2026-06-26T09:39:59Z</time>
      </trkpt>
      <trkpt lat="52.24126897752285" lon="-6.857648966833949">
        <ele>38.109999999999999</ele>
        <time>2026-06-26T09:40:08Z</time>
      </trkpt>
      <trkpt lat="52.24221202544868" lon="-6.858406020328403">
        <ele>36.670000000000002</ele>
        <time>2026-06-26T09:40:15Z</time>
      </trkpt>
      <trkpt lat="52.242329036816955" lon="-6.858541974797845">
        <ele>36.670000000000002</ele>
        <time>2026-06-26T09:40:16Z</time>
      </trkpt>
      <trkpt lat="52.242448981851339" lon="-6.858681030571461">
        <ele>36.670000000000002</ele>
        <time>2026-06-26T09:40:17Z</time>
      </trkpt>
      <trkpt lat="52.242674035951495" lon="-6.858985964208841">
        <ele>36.670000000000002</ele>
        <time>2026-06-26T09:40:19Z</time>
      </trkpt>
      <trkpt lat="52.242784006521106" lon="-6.859134994447231">
        <ele>36.670000000000002</ele>
        <time>2026-06-26T09:40:20Z</time>
      </trkpt>
      <trkpt lat="52.242909986525774" lon="-6.859243959188461">
        <ele>36.670000000000002</ele>
        <time>2026-06-26T09:40:21Z</time>
      </trkpt>
      <trkpt lat="52.24412502720952" lon="-6.860154988244176">
        <ele>40.990000000000002</ele>
        <time>2026-06-26T09:40:31Z</time>
      </trkpt>
      <trkpt lat="52.245149966329336" lon="-6.861152015626431">
        <ele>44.840000000000003</ele>
        <time>2026-06-26T09:40:39Z</time>
      </trkpt>
      <trkpt lat="52.245836025103927" lon="-6.861691977828741">
        <ele>45.799999999999997</ele>
        <time>2026-06-26T09:40:45Z</time>
      </trkpt>
      <trkpt lat="52.2460360173136" lon="-6.86175299808383">
        <ele>45.799999999999997</ele>
        <time>2026-06-26T09:40:47Z</time>
      </trkpt>
      <trkpt lat="52.246114974841475" lon="-6.861777976155281">
        <ele>45.32</ele>
        <time>2026-06-26T09:40:48Z</time>
      </trkpt>
      <trkpt lat="52.246256964281201" lon="-6.861820975318551">
        <ele>45.32</ele>
        <time>2026-06-26T09:40:50Z</time>
      </trkpt>
      <trkpt lat="52.246319996193051" lon="-6.861840002238751">
        <ele>45.799999999999997</ele>
        <time>2026-06-26T09:40:51Z</time>
      </trkpt>
      <trkpt lat="52.246482018381357" lon="-6.861889958381653">
        <ele>45.799999999999997</ele>
        <time>2026-06-26T09:40:56Z</time>
      </trkpt>
      <trkpt lat="52.246504984796047" lon="-6.861896999180317">
        <ele>46.280000000000001</ele>
        <time>2026-06-26T09:40:58Z</time>
      </trkpt>
      <trkpt lat="52.246525017544627" lon="-6.8619030341506">
        <ele>46.280000000000001</ele>
        <time>2026-06-26T09:40:59Z</time>
      </trkpt>
      <trkpt lat="52.246573967859149" lon="-6.861824998632073">
        <ele>46.280000000000001</ele>
        <time>2026-06-26T09:41:00Z</time>
      </trkpt>
      <trkpt lat="52.246634988114238" lon="-6.861842013895512">
        <ele>46.280000000000001</ele>
        <time>2026-06-26T09:41:01Z</time>
      </trkpt>
      <trkpt lat="52.246707994490862" lon="-6.86186196282506">
        <ele>46.280000000000001</ele>
        <time>2026-06-26T09:41:02Z</time>
      </trkpt>
      <trkpt lat="52.24678996950388" lon="-6.861885013058782">
        <ele>46.280000000000001</ele>
        <time>2026-06-26T09:41:03Z</time>
      </trkpt>
      <trkpt lat="52.246886026114225" lon="-6.861912002786994">
        <ele>46.280000000000001</ele>
        <time>2026-06-26T09:41:04Z</time>
      </trkpt>
      <trkpt lat="52.247952036559582" lon="-6.862209979444742">
        <ele>46.280000000000001</ele>
        <time>2026-06-26T09:41:12Z</time>
      </trkpt>
      <trkpt lat="52.248240960761905" lon="-6.862365966662765">
        <ele>46.280000000000001</ele>
        <time>2026-06-26T09:41:14Z</time>
      </trkpt>
      <trkpt lat="52.248378004878759" lon="-6.862449031323195">
        <ele>46.759999999999998</ele>
        <time>2026-06-26T09:41:15Z</time>
      </trkpt>
      <trkpt lat="52.248503984883428" lon="-6.862584985792637">
        <ele>46.759999999999998</ele>
        <time>2026-06-26T09:41:16Z</time>
      </trkpt>
      <trkpt lat="52.248626025393605" lon="-6.862729992717505">
        <ele>47.240000000000002</ele>
        <time>2026-06-26T09:41:17Z</time>
      </trkpt>
      <trkpt lat="52.248748987913132" lon="-6.862878017127514">
        <ele>47.719999999999999</ele>
        <time>2026-06-26T09:41:18Z</time>
      </trkpt>
      <trkpt lat="52.249422976747155" lon="-6.863459972664714">
        <ele>48.200000000000003</ele>
        <time>2026-06-26T09:41:23Z</time>
      </trkpt>
      <trkpt lat="52.249572006985545" lon="-6.863498026505113">
        <ele>48.200000000000003</ele>
        <time>2026-06-26T09:41:24Z</time>
      </trkpt>
      <trkpt lat="52.249719025567174" lon="-6.86353700235486">
        <ele>48.68</ele>
        <time>2026-06-26T09:41:25Z</time>
      </trkpt>
      <trkpt lat="52.250559981912374" lon="-6.863730037584901">
        <ele>49.159999999999997</ele>
        <time>2026-06-26T09:41:31Z</time>
      </trkpt>
      <trkpt lat="52.250681016594172" lon="-6.863682009279728">
        <ele>49.159999999999997</ele>
        <time>2026-06-26T09:41:32Z</time>
      </trkpt>
      <trkpt lat="52.250801967456937" lon="-6.863597016781569">
        <ele>49.649999999999999</ele>
        <time>2026-06-26T09:41:33Z</time>
      </trkpt>
      <trkpt lat="52.251060968264937" lon="-6.863424014300108">
        <ele>50.609999999999999</ele>
        <time>2026-06-26T09:41:35Z</time>
      </trkpt>
      <trkpt lat="52.251203041523695" lon="-6.863380009308457">
        <ele>51.57</ele>
        <time>2026-06-26T09:41:36Z</time>
      </trkpt>
      <trkpt lat="52.252351026982069" lon="-6.86330096796155">
        <ele>52.530000000000001</ele>
        <time>2026-06-26T09:41:43Z</time>
      </trkpt>
      <trkpt lat="52.254039980471134" lon="-6.863459972664714">
        <ele>53.009999999999998</ele>
        <time>2026-06-26T09:41:52Z</time>
      </trkpt>
      <trkpt lat="52.255834965035319" lon="-6.863767001777887">
        <ele>44.359999999999999</ele>
        <time>2026-06-26T09:42:02Z</time>
      </trkpt>
      <trkpt lat="52.257150001823902" lon="-6.864013010635972">
        <ele>36.189999999999998</ele>
        <time>2026-06-26T09:42:10Z</time>
      </trkpt>
      <trkpt lat="52.25772600620985" lon="-6.864081993699074">
        <ele>33.780000000000001</ele>
        <time>2026-06-26T09:42:14Z</time>
      </trkpt>
      <trkpt lat="52.257875958457589" lon="-6.864100014790893">
        <ele>33.299999999999997</ele>
        <time>2026-06-26T09:42:15Z</time>
      </trkpt>
      <trkpt lat="52.258022977039218" lon="-6.864114012569189">
        <ele>32.82</ele>
        <time>2026-06-26T09:42:16Z</time>
      </trkpt>
      <trkpt lat="52.258163960650563" lon="-6.8640529923141">
        <ele>32.340000000000003</ele>
        <time>2026-06-26T09:42:17Z</time>
      </trkpt>
      <trkpt lat="52.25830402225256" lon="-6.863961964845657">
        <ele>32.340000000000003</ele>
        <time>2026-06-26T09:42:18Z</time>
      </trkpt>
      <trkpt lat="52.258450035005808" lon="-6.863868003711104">
        <ele>31.859999999999999</ele>
        <time>2026-06-26T09:42:19Z</time>
      </trkpt>
      <trkpt lat="52.258594036102295" lon="-6.863773036748171">
        <ele>31.859999999999999</ele>
        <time>2026-06-26T09:42:20Z</time>
      </trkpt>
      <trkpt lat="52.258740970864892" lon="-6.863677985966206">
        <ele>32.82</ele>
        <time>2026-06-26T09:42:21Z</time>
      </trkpt>
      <trkpt lat="52.259605983272195" lon="-6.863071974366903">
        <ele>37.630000000000003</ele>
        <time>2026-06-26T09:42:27Z</time>
      </trkpt>
      <trkpt lat="52.259757025167346" lon="-6.863011959940195">
        <ele>38.590000000000003</ele>
        <time>2026-06-26T09:42:28Z</time>
      </trkpt>
      <trkpt lat="52.261194018647075" lon="-6.862758994102478">
        <ele>45.32</ele>
        <time>2026-06-26T09:42:37Z</time>
      </trkpt>
      <trkpt lat="52.262825975194573" lon="-6.862377030774951">
        <ele>53.490000000000002</ele>
        <time>2026-06-26T09:42:47Z</time>
      </trkpt>
      <trkpt lat="52.262997971847653" lon="-6.862326990813017">
        <ele>54.450000000000003</ele>
        <time>2026-06-26T09:42:48Z</time>
      </trkpt>
      <trkpt lat="52.263353029266" lon="-6.86226898804307">
        <ele>56.859999999999999</ele>
        <time>2026-06-26T09:42:50Z</time>
      </trkpt>
      <trkpt lat="52.26354799233377" lon="-6.862236969172955">
        <ele>57.82</ele>
        <time>2026-06-26T09:42:51Z</time>
      </trkpt>
      <trkpt lat="52.264610985293984" lon="-6.862061033025384">
        <ele>61.659999999999997</ele>
        <time>2026-06-26T09:42:57Z</time>
      </trkpt>
      <trkpt lat="52.265793001279235" lon="-6.862002024427056">
        <ele>61.18</ele>
        <time>2026-06-26T09:43:04Z</time>
      </trkpt>
      <trkpt lat="52.267166962847114" lon="-6.862307963892818">
        <ele>57.82</ele>
        <time>2026-06-26T09:43:12Z</time>
      </trkpt>
      <trkpt lat="52.267781021073461" lon="-6.862511979416013">
        <ele>56.369999999999997</ele>
        <time>2026-06-26T09:43:16Z</time>
      </trkpt>
      <trkpt lat="52.267925022169948" lon="-6.862624967470765">
        <ele>56.369999999999997</ele>
        <time>2026-06-26T09:43:17Z</time>
      </trkpt>
      <trkpt lat="52.268454004079103" lon="-6.863141963258386">
        <ele>57.340000000000003</ele>
        <time>2026-06-26T09:43:21Z</time>
      </trkpt>
      <trkpt lat="52.268572021275759" lon="-6.863310020416975">
        <ele>57.340000000000003</ele>
        <time>2026-06-26T09:43:22Z</time>
      </trkpt>
      <trkpt lat="52.268694983795285" lon="-6.863484028726816">
        <ele>57.82</ele>
        <time>2026-06-26T09:43:23Z</time>
      </trkpt>
      <trkpt lat="52.268807971850038" lon="-6.863644039258361">
        <ele>57.82</ele>
        <time>2026-06-26T09:43:24Z</time>
      </trkpt>
      <trkpt lat="52.268978040665388" lon="-6.86372903175652">
        <ele>57.82</ele>
        <time>2026-06-26T09:43:25Z</time>
      </trkpt>
      <trkpt lat="52.269140984863043" lon="-6.863810000941157">
        <ele>57.82</ele>
        <time>2026-06-26T09:43:26Z</time>
      </trkpt>
      <trkpt lat="52.269311975687742" lon="-6.863829027861357">
        <ele>57.340000000000003</ele>
        <time>2026-06-26T09:43:27Z</time>
      </trkpt>
      <trkpt lat="52.269493024796247" lon="-6.863816035911441">
        <ele>57.340000000000003</ele>
        <time>2026-06-26T09:43:28Z</time>
      </trkpt>
      <trkpt lat="52.269678013399243" lon="-6.863802960142493">
        <ele>57.340000000000003</ele>
        <time>2026-06-26T09:43:29Z</time>
      </trkpt>
      <trkpt lat="52.271302007138729" lon="-6.86364496126771">
        <ele>55.409999999999997</ele>
        <time>2026-06-26T09:43:38Z</time>
      </trkpt>
      <trkpt lat="52.271759994328022" lon="-6.863542031496763">
        <ele>54.450000000000003</ele>
        <time>2026-06-26T09:43:41Z</time>
      </trkpt>
      <trkpt lat="52.271908018738031" lon="-6.863529039546847">
        <ele>54.450000000000003</ele>
        <time>2026-06-26T09:43:42Z</time>
      </trkpt>
      <trkpt lat="52.272051014006138" lon="-6.863589975982904">
        <ele>53.969999999999999</ele>
        <time>2026-06-26T09:43:43Z</time>
      </trkpt>
      <trkpt lat="52.272346979007125" lon="-6.863711010664702">
        <ele>53.009999999999998</ele>
        <time>2026-06-26T09:43:45Z</time>
      </trkpt>
      <trkpt lat="52.27248796261847" lon="-6.86372903175652">
        <ele>52.049999999999997</ele>
        <time>2026-06-26T09:43:46Z</time>
      </trkpt>
      <trkpt lat="52.272626012563705" lon="-6.863696007058024">
        <ele>51.090000000000003</ele>
        <time>2026-06-26T09:43:47Z</time>
      </trkpt>
      <trkpt lat="52.272772025316954" lon="-6.863641021773219">
        <ele>50.130000000000003</ele>
        <time>2026-06-26T09:43:48Z</time>
      </trkpt>
      <trkpt lat="52.272918038070202" lon="-6.863540019840002">
        <ele>49.649999999999999</ele>
        <time>2026-06-26T09:43:49Z</time>
      </trkpt>
      <trkpt lat="52.27306698448956" lon="-6.863437006250024">
        <ele>49.159999999999997</ele>
        <time>2026-06-26T09:43:50Z</time>
      </trkpt>
      <trkpt lat="52.274181023240089" lon="-6.862752037122846">
        <ele>45.32</ele>
        <time>2026-06-26T09:43:57Z</time>
      </trkpt>
      <trkpt lat="52.274340027943254" lon="-6.862738039344549">
        <ele>44.359999999999999</ele>
        <time>2026-06-26T09:43:58Z</time>
      </trkpt>
      <trkpt lat="52.274499032646418" lon="-6.862724041566253">
        <ele>43.880000000000003</ele>
        <time>2026-06-26T09:43:59Z</time>
      </trkpt>
      <trkpt lat="52.274975962936878" lon="-6.862776009365916">
        <ele>42.920000000000002</ele>
        <time>2026-06-26T09:44:02Z</time>
      </trkpt>
      <trkpt lat="52.275117030367255" lon="-6.86282898299396">
        <ele>42.920000000000002</ele>
        <time>2026-06-26T09:44:03Z</time>
      </trkpt>
      <trkpt lat="52.275397991761565" lon="-6.8629340082407">
        <ele>41.469999999999999</ele>
        <time>2026-06-26T09:44:05Z</time>
      </trkpt>
      <trkpt lat="52.275536963716149" lon="-6.862926967442036">
        <ele>40.990000000000002</ele>
        <time>2026-06-26T09:44:06Z</time>
      </trkpt>
      <trkpt lat="52.275673002004623" lon="-6.862872987985611">
        <ele>40.990000000000002</ele>
        <time>2026-06-26T09:44:07Z</time>
      </trkpt>
      <trkpt lat="52.275801999494433" lon="-6.862810961902142">
        <ele>40.990000000000002</ele>
        <time>2026-06-26T09:44:08Z</time>
      </trkpt>
      <trkpt lat="52.27592496201396" lon="-6.862696968019009">
        <ele>40.990000000000002</ele>
        <time>2026-06-26T09:44:09Z</time>
      </trkpt>
      <trkpt lat="52.276049014180899" lon="-6.862582974135876">
        <ele>40.990000000000002</ele>
        <time>2026-06-26T09:44:10Z</time>
      </trkpt>
      <trkpt lat="52.276144986972213" lon="-6.862413994967938">
        <ele>41.469999999999999</ele>
        <time>2026-06-26T09:44:11Z</time>
      </trkpt>
      <trkpt lat="52.276242971420288" lon="-6.862229006364942">
        <ele>41.950000000000003</ele>
        <time>2026-06-26T09:44:12Z</time>
      </trkpt>
      <trkpt lat="52.276732977479696" lon="-6.861309008672833">
        <ele>44.359999999999999</ele>
        <time>2026-06-26T09:44:17Z</time>
      </trkpt>
      <trkpt lat="52.276830039918423" lon="-6.861197026446462">
        <ele>44.359999999999999</ele>
        <time>2026-06-26T09:44:18Z</time>
      </trkpt>
      <trkpt lat="52.27693104185164" lon="-6.861124020069838">
        <ele>44.840000000000003</ele>
        <time>2026-06-26T09:44:19Z</time>
      </trkpt>
      <trkpt lat="52.277026008814573" lon="-6.861064005643129">
        <ele>44.359999999999999</ele>
        <time>2026-06-26T09:44:20Z</time>
      </trkpt>
      <trkpt lat="52.277132039889693" lon="-6.861067023128271">
        <ele>44.359999999999999</ele>
        <time>2026-06-26T09:44:21Z</time>
      </trkpt>
      <trkpt lat="52.277239998802543" lon="-6.861115973442793">
        <ele>43.880000000000003</ele>
        <time>2026-06-26T09:44:22Z</time>
      </trkpt>
      <trkpt lat="52.277370002120733" lon="-6.861176993697882">
        <ele>43.399999999999999</ele>
        <time>2026-06-26T09:44:23Z</time>
      </trkpt>
      <trkpt lat="52.277467986568809" lon="-6.86125997453928">
        <ele>43.399999999999999</ele>
        <time>2026-06-26T09:44:24Z</time>
      </trkpt>
      <trkpt lat="52.278799032792449" lon="-6.862188018858433">
        <ele>46.280000000000001</ele>
        <time>2026-06-26T09:44:34Z</time>
      </trkpt>
      <trkpt lat="52.280696025118232" lon="-6.862929984927177">
        <ele>48.200000000000003</ele>
        <time>2026-06-26T09:44:46Z</time>
      </trkpt>
      <trkpt lat="52.281725993379951" lon="-6.863501965999603">
        <ele>48.200000000000003</ele>
        <time>2026-06-26T09:44:53Z</time>
      </trkpt>
      <trkpt lat="52.282021958380938" lon="-6.863659964874387">
        <ele>46.759999999999998</ele>
        <time>2026-06-26T09:44:55Z</time>
      </trkpt>
      <trkpt lat="52.282169982790947" lon="-6.863754009827972">
        <ele>46.280000000000001</ele>
        <time>2026-06-26T09:44:56Z</time>
      </trkpt>
      <trkpt lat="52.282308032736182" lon="-6.863864986225963">
        <ele>45.799999999999997</ele>
        <time>2026-06-26T09:44:57Z</time>
      </trkpt>
      <trkpt lat="52.282428983598948" lon="-6.864047041162849">
        <ele>44.840000000000003</ele>
        <time>2026-06-26T09:44:58Z</time>
      </trkpt>
      <trkpt lat="52.282544989138842" lon="-6.864235969260335">
        <ele>43.880000000000003</ele>
        <time>2026-06-26T09:44:59Z</time>
      </trkpt>
      <trkpt lat="52.283406984061003" lon="-6.865810006856918">
        <ele>40.509999999999998</ele>
        <time>2026-06-26T09:45:08Z</time>
      </trkpt>
      <trkpt lat="52.284118020907044" lon="-6.866966960951686">
        <ele>41.469999999999999</ele>
        <time>2026-06-26T09:45:15Z</time>
      </trkpt>
      <trkpt lat="52.284347014501691" lon="-6.867263009771705">
        <ele>42.439999999999998</ele>
        <time>2026-06-26T09:45:17Z</time>
      </trkpt>
      <trkpt lat="52.284470982849598" lon="-6.867352025583386">
        <ele>42.920000000000002</ele>
        <time>2026-06-26T09:45:18Z</time>
      </trkpt>
      <trkpt lat="52.284595035016537" lon="-6.867408016696572">
        <ele>42.920000000000002</ele>
        <time>2026-06-26T09:45:19Z</time>
      </trkpt>
      <trkpt lat="52.284728977829218" lon="-6.867412962019444">
        <ele>43.399999999999999</ele>
        <time>2026-06-26T09:45:20Z</time>
      </trkpt>
      <trkpt lat="52.284863004460931" lon="-6.867401981726289">
        <ele>43.399999999999999</ele>
        <time>2026-06-26T09:45:21Z</time>
      </trkpt>
      <trkpt lat="52.284996025264263" lon="-6.867392007261515">
        <ele>43.880000000000003</ele>
        <time>2026-06-26T09:45:22Z</time>
      </trkpt>
      <trkpt lat="52.286547012627125" lon="-6.867430983111262">
        <ele>46.280000000000001</ele>
        <time>2026-06-26T09:45:32Z</time>
      </trkpt>
      <trkpt lat="52.287701033055782" lon="-6.867746980860829">
        <ele>52.530000000000001</ele>
        <time>2026-06-26T09:45:39Z</time>
      </trkpt>
      <trkpt lat="52.287865988910198" lon="-6.867756033316255">
        <ele>53.009999999999998</ele>
        <time>2026-06-26T09:45:40Z</time>
      </trkpt>
      <trkpt lat="52.28954597376287" lon="-6.868055015802383">
        <ele>59.259999999999998</ele>
        <time>2026-06-26T09:45:50Z</time>
      </trkpt>
      <trkpt lat="52.289884015917778" lon="-6.868097009137273">
        <ele>61.18</ele>
        <time>2026-06-26T09:45:52Z</time>
      </trkpt>
      <trkpt lat="52.290865033864975" lon="-6.868137996643782">
        <ele>63.579999999999998</ele>
        <time>2026-06-26T09:45:58Z</time>
      </trkpt>
      <trkpt lat="52.291014986112714" lon="-6.868213014677167">
        <ele>64.069999999999993</ele>
        <time>2026-06-26T09:45:59Z</time>
      </trkpt>
      <trkpt lat="52.291166028007865" lon="-6.868289038538933">
        <ele>64.549999999999997</ele>
        <time>2026-06-26T09:46:00Z</time>
      </trkpt>
      <trkpt lat="52.291747983545065" lon="-6.868729004636407">
        <ele>66.469999999999999</ele>
        <time>2026-06-26T09:46:04Z</time>
      </trkpt>
      <trkpt lat="52.292312001809478" lon="-6.869236025959253">
        <ele>64.069999999999993</ele>
        <time>2026-06-26T09:46:08Z</time>
      </trkpt>
      <trkpt lat="52.292462037876248" lon="-6.869295034557581">
        <ele>63.579999999999998</ele>
        <time>2026-06-26T09:46:09Z</time>
      </trkpt>
      <trkpt lat="52.292605033144355" lon="-6.869329987093806">
        <ele>63.100000000000001</ele>
        <time>2026-06-26T09:46:10Z</time>
      </trkpt>
      <trkpt lat="52.292775018140674" lon="-6.869313977658749">
        <ele>62.619999999999997</ele>
        <time>2026-06-26T09:46:11Z</time>
      </trkpt>
      <trkpt lat="52.292928993701935" lon="-6.869299979880452">
        <ele>62.619999999999997</ele>
        <time>2026-06-26T09:46:12Z</time>
      </trkpt>
      <trkpt lat="52.293704990297556" lon="-6.869024969637394">
        <ele>64.069999999999993</ele>
        <time>2026-06-26T09:46:18Z</time>
      </trkpt>
      <trkpt lat="52.293825019150972" lon="-6.868976019322872">
        <ele>64.069999999999993</ele>
        <time>2026-06-26T09:46:19Z</time>
      </trkpt>
      <trkpt lat="52.293955022469163" lon="-6.868984987959266">
        <ele>64.069999999999993</ele>
        <time>2026-06-26T09:46:20Z</time>
      </trkpt>
      <trkpt lat="52.294085025787354" lon="-6.869008960202336">
        <ele>64.069999999999993</ele>
        <time>2026-06-26T09:46:21Z</time>
      </trkpt>
      <trkpt lat="52.294198013842106" lon="-6.869108034297824">
        <ele>64.069999999999993</ele>
        <time>2026-06-26T09:46:22Z</time>
      </trkpt>
      <trkpt lat="52.294308990240097" lon="-6.86920803040266">
        <ele>63.579999999999998</ele>
        <time>2026-06-26T09:46:23Z</time>
      </trkpt>
      <trkpt lat="52.294416027143598" lon="-6.869301991537213">
        <ele>62.619999999999997</ele>
        <time>2026-06-26T09:46:24Z</time>
      </trkpt>
      <trkpt lat="52.294507976621389" lon="-6.869446998462081">
        <ele>62.140000000000001</ele>
        <time>2026-06-26T09:46:25Z</time>
      </trkpt>
      <trkpt lat="52.294576959684491" lon="-6.869628969579935">
        <ele>61.659999999999997</ele>
        <time>2026-06-26T09:46:26Z</time>
      </trkpt>
      <trkpt lat="52.294647032395005" lon="-6.869813036173582">
        <ele>61.18</ele>
        <time>2026-06-26T09:46:27Z</time>
      </trkpt>
      <trkpt lat="52.294718027114868" lon="-6.870000958442688">
        <ele>60.700000000000003</ele>
        <time>2026-06-26T09:46:28Z</time>
      </trkpt>
      <trkpt lat="52.295074006542563" lon="-6.870758011937141">
        <ele>60.219999999999999</ele>
        <time>2026-06-26T09:46:32Z</time>
      </trkpt>
      <trkpt lat="52.295180037617683" lon="-6.870939983054996">
        <ele>60.219999999999999</ele>
        <time>2026-06-26T09:46:33Z</time>
      </trkpt>
      <trkpt lat="52.296168012544513" lon="-6.872278992086649">
        <ele>63.579999999999998</ele>
        <time>2026-06-26T09:46:42Z</time>
      </trkpt>
      <trkpt lat="52.296293992549181" lon="-6.872363984584808">
        <ele>63.579999999999998</ele>
        <time>2026-06-26T09:46:43Z</time>
      </trkpt>
      <trkpt lat="52.297556977719069" lon="-6.873138975352049">
        <ele>63.100000000000001</ele>
        <time>2026-06-26T09:46:52Z</time>
      </trkpt>
      <trkpt lat="52.299145013093948" lon="-6.874399026855826">
        <ele>67.430000000000007</ele>
        <time>2026-06-26T09:47:02Z</time>
      </trkpt>
      <trkpt lat="52.300585024058819" lon="-6.875339979305863">
        <ele>69.829999999999998</ele>
        <time>2026-06-26T09:47:10Z</time>
      </trkpt>
      <trkpt lat="52.302098041400313" lon="-6.876454018056393">
        <ele>73.680000000000007</ele>
        <time>2026-06-26T09:47:19Z</time>
      </trkpt>
      <trkpt lat="52.303401008248329" lon="-6.87715700827539">
        <ele>73.200000000000003</ele>
        <time>2026-06-26T09:47:27Z</time>
      </trkpt>
      <trkpt lat="52.304851999506354" lon="-6.878068037331104">
        <ele>71.760000000000005</ele>
        <time>2026-06-26T09:47:36Z</time>
      </trkpt>
      <trkpt lat="52.304991977289319" lon="-6.878259982913733">
        <ele>71.269999999999996</ele>
        <time>2026-06-26T09:47:37Z</time>
      </trkpt>
      <trkpt lat="52.30512298643589" lon="-6.87846701592207">
        <ele>70.790000000000006</ele>
        <time>2026-06-26T09:47:38Z</time>
      </trkpt>
      <trkpt lat="52.305501010268927" lon="-6.879079984501004">
        <ele>69.349999999999994</ele>
        <time>2026-06-26T09:47:41Z</time>
      </trkpt>
      <trkpt lat="52.30559497140348" lon="-6.87930696643889">
        <ele>69.349999999999994</ele>
        <time>2026-06-26T09:47:42Z</time>
      </trkpt>
      <trkpt lat="52.305784989148378" lon="-6.879762019962072">
        <ele>69.349999999999994</ele>
        <time>2026-06-26T09:47:44Z</time>
      </trkpt>
      <trkpt lat="52.306293016299605" lon="-6.880626026540995">
        <ele>70.310000000000002</ele>
        <time>2026-06-26T09:47:49Z</time>
      </trkpt>
      <trkpt lat="52.306393012404442" lon="-6.880679000169039">
        <ele>70.310000000000002</ele>
        <time>2026-06-26T09:47:50Z</time>
      </trkpt>
      <trkpt lat="52.306508012115955" lon="-6.880708001554012">
        <ele>70.310000000000002</ele>
        <time>2026-06-26T09:47:51Z</time>
      </trkpt>
      <trkpt lat="52.306659976020455" lon="-6.880745971575379">
        <ele>69.829999999999998</ele>
        <time>2026-06-26T09:47:52Z</time>
      </trkpt>
      <trkpt lat="52.306756032630801" lon="-6.880720993503928">
        <ele>68.870000000000005</ele>
        <time>2026-06-26T09:47:53Z</time>
      </trkpt>
      <trkpt lat="52.306897016242146" lon="-6.880685035139322">
        <ele>68.390000000000001</ele>
        <time>2026-06-26T09:47:54Z</time>
      </trkpt>
      <trkpt lat="52.308343984186649" lon="-6.880317991599441">
        <ele>67.909999999999997</ele>
        <time>2026-06-26T09:48:03Z</time>
      </trkpt>
      <trkpt lat="52.30984803289175" lon="-6.879813987761736">
        <ele>62.619999999999997</ele>
        <time>2026-06-26T09:48:11Z</time>
      </trkpt>
      <trkpt lat="52.311383010819554" lon="-6.878990968689323">
        <ele>58.780000000000001</ele>
        <time>2026-06-26T09:48:20Z</time>
      </trkpt>
      <trkpt lat="52.311498010531068" lon="-6.879036985337734">
        <ele>58.780000000000001</ele>
        <time>2026-06-26T09:48:21Z</time>
      </trkpt>
      <trkpt lat="52.311623990535736" lon="-6.879103034734726">
        <ele>58.780000000000001</ele>
        <time>2026-06-26T09:48:22Z</time>
      </trkpt>
      <trkpt lat="52.311753993853927" lon="-6.879171011969447">
        <ele>58.780000000000001</ele>
        <time>2026-06-26T09:48:23Z</time>
      </trkpt>
      <trkpt lat="52.311894977465272" lon="-6.879246030002832">
        <ele>58.299999999999997</ele>
        <time>2026-06-26T09:48:24Z</time>
      </trkpt>
      <trkpt lat="52.312044007703662" lon="-6.879323981702328">
        <ele>58.299999999999997</ele>
        <time>2026-06-26T09:48:25Z</time>
      </trkpt>
      <trkpt lat="52.313483012840152" lon="-6.88018798828125">
        <ele>56.859999999999999</ele>
        <time>2026-06-26T09:48:34Z</time>
      </trkpt>
      <trkpt lat="52.314612977206707" lon="-6.881318036466837">
        <ele>55.409999999999997</ele>
        <time>2026-06-26T09:48:42Z</time>
      </trkpt>
      <trkpt lat="52.315698014572263" lon="-6.882239039987326">
        <ele>55.409999999999997</ele>
        <time>2026-06-26T09:48:49Z</time>
      </trkpt>
      <trkpt lat="52.317146994173527" lon="-6.88328200019896">
        <ele>56.369999999999997</ele>
        <time>2026-06-26T09:48:58Z</time>
      </trkpt>
      <trkpt lat="52.31842297129333" lon="-6.884199986234307">
        <ele>53.009999999999998</ele>
        <time>2026-06-26T09:49:06Z</time>
      </trkpt>
      <trkpt lat="52.32007697224617" lon="-6.885389965027571">
        <ele>49.649999999999999</ele>
        <time>2026-06-26T09:49:16Z</time>
      </trkpt>
      <trkpt lat="52.322292979806662" lon="-6.88697699457407">
        <ele>48.68</ele>
        <time>2026-06-26T09:49:29Z</time>
      </trkpt>
      <trkpt lat="52.324257027357817" lon="-6.888406025245786">
        <ele>48.200000000000003</ele>
        <time>2026-06-26T09:49:41Z</time>
      </trkpt>
      <trkpt lat="52.326195007190108" lon="-6.889805970713496">
        <ele>52.049999999999997</ele>
        <time>2026-06-26T09:49:53Z</time>
      </trkpt>
      <trkpt lat="52.327151969075203" lon="-6.890547014772892">
        <ele>52.530000000000001</ele>
        <time>2026-06-26T09:49:59Z</time>
      </trkpt>
      <trkpt lat="52.327287001535296" lon="-6.890729991719127">
        <ele>52.530000000000001</ele>
        <time>2026-06-26T09:50:00Z</time>
      </trkpt>
      <trkpt lat="52.327410969883204" lon="-6.89095001667738">
        <ele>53.009999999999998</ele>
        <time>2026-06-26T09:50:01Z</time>
      </trkpt>
      <trkpt lat="52.32845501974225" lon="-6.892945999279618">
        <ele>53.490000000000002</ele>
        <time>2026-06-26T09:50:09Z</time>
      </trkpt>
      <trkpt lat="52.329538967460394" lon="-6.895414972677827">
        <ele>54.93</ele>
        <time>2026-06-26T09:50:19Z</time>
      </trkpt>
      <trkpt lat="52.330672033131123" lon="-6.898409994319081">
        <ele>55.409999999999997</ele>
        <time>2026-06-26T09:50:31Z</time>
      </trkpt>
      <trkpt lat="52.33187198638916" lon="-6.901233019307256">
        <ele>58.780000000000001</ele>
        <time>2026-06-26T09:50:42Z</time>
      </trkpt>
      <trkpt lat="52.333178976550698" lon="-6.903092041611671">
        <ele>61.659999999999997</ele>
        <time>2026-06-26T09:50:51Z</time>
      </trkpt>
      <trkpt lat="52.334572970867157" lon="-6.904515959322453">
        <ele>63.100000000000001</ele>
        <time>2026-06-26T09:51:00Z</time>
      </trkpt>
      <trkpt lat="52.336025973781943" lon="-6.905792020261288">
        <ele>63.579999999999998</ele>
        <time>2026-06-26T09:51:09Z</time>
      </trkpt>
      <trkpt lat="52.33741301111877" lon="-6.907012006267905">
        <ele>64.549999999999997</ele>
        <time>2026-06-26T09:51:18Z</time>
      </trkpt>
      <trkpt lat="52.338897027075291" lon="-6.908341040834785">
        <ele>66.950000000000003</ele>
        <time>2026-06-26T09:51:28Z</time>
      </trkpt>
      <trkpt lat="52.339054020121694" lon="-6.908408012241125">
        <ele>67.430000000000007</ele>
        <time>2026-06-26T09:51:29Z</time>
      </trkpt>
      <trkpt lat="52.339206989854574" lon="-6.908452017232776">
        <ele>68.390000000000001</ele>
        <time>2026-06-26T09:51:30Z</time>
      </trkpt>
      <trkpt lat="52.339363982900977" lon="-6.908465009182692">
        <ele>68.870000000000005</ele>
        <time>2026-06-26T09:51:31Z</time>
      </trkpt>
      <trkpt lat="52.339512007310987" lon="-6.90843902528286">
        <ele>69.349999999999994</ele>
        <time>2026-06-26T09:51:32Z</time>
      </trkpt>
      <trkpt lat="52.339664977043867" lon="-6.908384039998055">
        <ele>69.829999999999998</ele>
        <time>2026-06-26T09:51:33Z</time>
      </trkpt>
      <trkpt lat="52.339805038645864" lon="-6.908283038064838">
        <ele>70.310000000000002</ele>
        <time>2026-06-26T09:51:34Z</time>
      </trkpt>
      <trkpt lat="52.339949961751699" lon="-6.90813803113997">
        <ele>70.790000000000006</ele>
        <time>2026-06-26T09:51:35Z</time>
      </trkpt>
      <trkpt lat="52.340092035010457" lon="-6.907982965931296">
        <ele>71.269999999999996</ele>
        <time>2026-06-26T09:51:36Z</time>
      </trkpt>
      <trkpt lat="52.340234024450183" lon="-6.907799988985062">
        <ele>71.269999999999996</ele>
        <time>2026-06-26T09:51:37Z</time>
      </trkpt>
      <trkpt lat="52.340778009966016" lon="-6.907095992937684">
        <ele>72.239999999999995</ele>
        <time>2026-06-26T09:51:41Z</time>
      </trkpt>
      <trkpt lat="52.340940032154322" lon="-6.906985016539693">
        <ele>72.239999999999995</ele>
        <time>2026-06-26T09:51:42Z</time>
      </trkpt>
      <trkpt lat="52.341099958866835" lon="-6.906874040141702">
        <ele>72.239999999999995</ele>
        <time>2026-06-26T09:51:43Z</time>
      </trkpt>
      <trkpt lat="52.34126198105514" lon="-6.906822994351387">
        <ele>72.239999999999995</ele>
        <time>2026-06-26T09:51:44Z</time>
      </trkpt>
      <trkpt lat="52.341422997415066" lon="-6.906781001016498">
        <ele>72.239999999999995</ele>
        <time>2026-06-26T09:51:45Z</time>
      </trkpt>
      <trkpt lat="52.341580996289849" lon="-6.906756022945046">
        <ele>72.239999999999995</ele>
        <time>2026-06-26T09:51:46Z</time>
      </trkpt>
      <trkpt lat="52.341745030134916" lon="-6.906769014894962">
        <ele>71.760000000000005</ele>
        <time>2026-06-26T09:51:47Z</time>
      </trkpt>
      <trkpt lat="52.34190403483808" lon="-6.906779995188117">
        <ele>71.760000000000005</ele>
        <time>2026-06-26T09:51:48Z</time>
      </trkpt>
      <trkpt lat="52.342065973207355" lon="-6.906791981309652">
        <ele>71.269999999999996</ele>
        <time>2026-06-26T09:51:49Z</time>
      </trkpt>
      <trkpt lat="52.343490980565548" lon="-6.907257009297609">
        <ele>67.909999999999997</ele>
        <time>2026-06-26T09:51:57Z</time>
      </trkpt>
      <trkpt lat="52.344873994588852" lon="-6.908372975885868">
        <ele>66.950000000000003</ele>
        <time>2026-06-26T09:52:05Z</time>
      </trkpt>
      <trkpt lat="52.346046958118677" lon="-6.909522973001003">
        <ele>70.310000000000002</ele>
        <time>2026-06-26T09:52:13Z</time>
      </trkpt>
      <trkpt lat="52.347681010141969" lon="-6.911334972828627">
        <ele>68.870000000000005</ele>
        <time>2026-06-26T09:52:24Z</time>
      </trkpt>
      <trkpt lat="52.348066996783018" lon="-6.911994963884354">
        <ele>68.870000000000005</ele>
        <time>2026-06-26T09:52:27Z</time>
      </trkpt>
      <trkpt lat="52.348189959302545" lon="-6.912228986620903">
        <ele>68.870000000000005</ele>
        <time>2026-06-26T09:52:28Z</time>
      </trkpt>
      <trkpt lat="52.348304959014058" lon="-6.912477007135749">
        <ele>68.870000000000005</ele>
        <time>2026-06-26T09:52:29Z</time>
      </trkpt>
      <trkpt lat="52.349152034148574" lon="-6.915044970810413">
        <ele>70.790000000000006</ele>
        <time>2026-06-26T09:52:38Z</time>
      </trkpt>
      <trkpt lat="52.349796015769243" lon="-6.91757001914084">
        <ele>73.200000000000003</ele>
        <time>2026-06-26T09:52:47Z</time>
      </trkpt>
      <trkpt lat="52.350437985733151" lon="-6.920440988615155">
        <ele>77.040000000000006</ele>
        <time>2026-06-26T09:52:57Z</time>
      </trkpt>
      <trkpt lat="52.351256981492043" lon="-6.9228770211339">
        <ele>80.409999999999997</ele>
        <time>2026-06-26T09:53:06Z</time>
      </trkpt>
      <trkpt lat="52.351887971162796" lon="-6.9245779607445">
        <ele>82.810000000000002</ele>
        <time>2026-06-26T09:53:13Z</time>
      </trkpt>
      <trkpt lat="52.351955026388168" lon="-6.924839979037643">
        <ele>83.290000000000006</ele>
        <time>2026-06-26T09:53:14Z</time>
      </trkpt>
      <trkpt lat="52.351996013894677" lon="-6.925114989280701">
        <ele>83.290000000000006</ele>
        <time>2026-06-26T09:53:15Z</time>
      </trkpt>
      <trkpt lat="52.352078994736075" lon="-6.925665009766817">
        <ele>84.25</ele>
        <time>2026-06-26T09:53:17Z</time>
      </trkpt>
      <trkpt lat="52.352111013606191" lon="-6.925939014181495">
        <ele>84.25</ele>
        <time>2026-06-26T09:53:18Z</time>
      </trkpt>
      <trkpt lat="52.352016968652606" lon="-6.928276978433132">
        <ele>84.730000000000004</ele>
        <time>2026-06-26T09:53:26Z</time>
      </trkpt>
      <trkpt lat="52.351973969489336" lon="-6.928561963140965">
        <ele>84.25</ele>
        <time>2026-06-26T09:53:27Z</time>
      </trkpt>
      <trkpt lat="52.351931976154447" lon="-6.928849965333939">
        <ele>83.290000000000006</ele>
        <time>2026-06-26T09:53:28Z</time>
      </trkpt>
      <trkpt lat="52.351886965334415" lon="-6.92915003746748">
        <ele>82.810000000000002</ele>
        <time>2026-06-26T09:53:29Z</time>
      </trkpt>
      <trkpt lat="52.351565016433597" lon="-6.931087011471391">
        <ele>82.810000000000002</ele>
        <time>2026-06-26T09:53:36Z</time>
      </trkpt>
      <trkpt lat="52.351470971480012" lon="-6.932136006653309">
        <ele>84.730000000000004</ele>
        <time>2026-06-26T09:53:40Z</time>
      </trkpt>
      <trkpt lat="52.351485975086689" lon="-6.932409005239606">
        <ele>85.689999999999998</ele>
        <time>2026-06-26T09:53:41Z</time>
      </trkpt>
      <trkpt lat="52.351499972864985" lon="-6.932678986340761">
        <ele>86.180000000000007</ele>
        <time>2026-06-26T09:53:42Z</time>
      </trkpt>
      <trkpt lat="52.351532997563481" lon="-6.932933041825891">
        <ele>86.180000000000007</ele>
        <time>2026-06-26T09:53:43Z</time>
      </trkpt>
      <trkpt lat="52.351583959534764" lon="-6.933191036805511">
        <ele>86.659999999999997</ele>
        <time>2026-06-26T09:53:44Z</time>
      </trkpt>
      <trkpt lat="52.351842038333416" lon="-6.93422301672399">
        <ele>85.209999999999994</ele>
        <time>2026-06-26T09:53:48Z</time>
      </trkpt>
      <trkpt lat="52.352119982242584" lon="-6.934960959479213">
        <ele>82.329999999999998</ele>
        <time>2026-06-26T09:53:51Z</time>
      </trkpt>
      <trkpt lat="52.352241016924381" lon="-6.935175033286214">
        <ele>81.849999999999994</ele>
        <time>2026-06-26T09:53:52Z</time>
      </trkpt>
      <trkpt lat="52.353303004056215" lon="-6.937112007290125">
        <ele>77.519999999999996</ele>
        <time>2026-06-26T09:54:01Z</time>
      </trkpt>
      <trkpt lat="52.353482041507959" lon="-6.937609976157546">
        <ele>75.599999999999994</ele>
        <time>2026-06-26T09:54:03Z</time>
      </trkpt>
      <trkpt lat="52.353544989600778" lon="-6.937908958643675">
        <ele>74.640000000000001</ele>
        <time>2026-06-26T09:54:04Z</time>
      </trkpt>
      <trkpt lat="52.354118982329965" lon="-6.94060399197042">
        <ele>68.390000000000001</ele>
        <time>2026-06-26T09:54:13Z</time>
      </trkpt>
      <trkpt lat="52.354748966172338" lon="-6.942914966493845">
        <ele>64.069999999999993</ele>
        <time>2026-06-26T09:54:22Z</time>
      </trkpt>
      <trkpt lat="52.355284988880157" lon="-6.944846995174885">
        <ele>58.780000000000001</ele>
        <time>2026-06-26T09:54:31Z</time>
      </trkpt>
      <trkpt lat="52.355369981378317" lon="-6.945145977661014">
        <ele>57.340000000000003</ele>
        <time>2026-06-26T09:54:34Z</time>
      </trkpt>
      <trkpt lat="52.355388002470136" lon="-6.945209009572864">
        <ele>56.859999999999999</ele>
        <time>2026-06-26T09:54:35Z</time>
      </trkpt>
      <trkpt lat="52.355423960834742" lon="-6.94528603926301">
        <ele>56.369999999999997</ele>
        <time>2026-06-26T09:54:36Z</time>
      </trkpt>
      <trkpt lat="52.355466037988663" lon="-6.945271035656333">
        <ele>55.890000000000001</ele>
        <time>2026-06-26T09:54:37Z</time>
      </trkpt>
      <trkpt lat="52.355516999959946" lon="-6.945251002907753">
        <ele>55.890000000000001</ele>
        <time>2026-06-26T09:54:38Z</time>
      </trkpt>
      <trkpt lat="52.355577014386654" lon="-6.945228958502412">
        <ele>55.409999999999997</ele>
        <time>2026-06-26T09:54:39Z</time>
      </trkpt>
      <trkpt lat="52.355724032968283" lon="-6.945173973217607">
        <ele>54.450000000000003</ele>
        <time>2026-06-26T09:54:41Z</time>
      </trkpt>
      <trkpt lat="52.355818999931216" lon="-6.945138014853001">
        <ele>54.450000000000003</ele>
        <time>2026-06-26T09:54:42Z</time>
      </trkpt>
      <trkpt lat="52.355926036834717" lon="-6.945098033174872">
        <ele>53.969999999999999</ele>
        <time>2026-06-26T09:54:43Z</time>
      </trkpt>
      <trkpt lat="52.356596002355218" lon="-6.944883037358522">
        <ele>49.649999999999999</ele>
        <time>2026-06-26T09:54:49Z</time>
      </trkpt>
      <trkpt lat="52.356862965971231" lon="-6.944916984066367">
        <ele>47.719999999999999</ele>
        <time>2026-06-26T09:54:52Z</time>
      </trkpt>
      <trkpt lat="52.356954999268055" lon="-6.944920001551509">
        <ele>46.759999999999998</ele>
        <time>2026-06-26T09:54:53Z</time>
      </trkpt>
      <trkpt lat="52.357569979503751" lon="-6.944910027086735">
        <ele>42.920000000000002</ele>
        <time>2026-06-26T09:54:59Z</time>
      </trkpt>
      <trkpt lat="52.358237011358142" lon="-6.944985967129469">
        <ele>41.950000000000003</ele>
        <time>2026-06-26T09:55:05Z</time>
      </trkpt>
      <trkpt lat="52.358348993584514" lon="-6.944998959079385">
        <ele>41.469999999999999</ele>
        <time>2026-06-26T09:55:06Z</time>
      </trkpt>
      <trkpt lat="52.358572036027908" lon="-6.944976998493075">
        <ele>40.509999999999998</ele>
        <time>2026-06-26T09:55:08Z</time>
      </trkpt>
      <trkpt lat="52.358779991045594" lon="-6.944899968802929">
        <ele>40.509999999999998</ele>
        <time>2026-06-26T09:55:10Z</time>
      </trkpt>
      <trkpt lat="52.358879987150431" lon="-6.944840038195252">
        <ele>40.990000000000002</ele>
        <time>2026-06-26T09:55:11Z</time>
      </trkpt>
      <trkpt lat="52.359939040616155" lon="-6.94402095861733">
        <ele>47.719999999999999</ele>
        <time>2026-06-26T09:55:23Z</time>
      </trkpt>
      <trkpt lat="52.360015986487269" lon="-6.94395599886775">
        <ele>48.68</ele>
        <time>2026-06-26T09:55:24Z</time>
      </trkpt>
      <trkpt lat="52.360527031123638" lon="-6.94350597448647">
        <ele>55.409999999999997</ele>
        <time>2026-06-26T09:55:30Z</time>
      </trkpt>
      <trkpt lat="52.360795000568032" lon="-6.94324797950685">
        <ele>59.259999999999998</ele>
        <time>2026-06-26T09:55:33Z</time>
      </trkpt>
      <trkpt lat="52.360974038019776" lon="-6.943073971197009">
        <ele>61.659999999999997</ele>
        <time>2026-06-26T09:55:35Z</time>
      </trkpt>
      <trkpt lat="52.361055007204413" lon="-6.942996019497514">
        <ele>62.619999999999997</ele>
        <time>2026-06-26T09:55:36Z</time>
      </trkpt>
      <trkpt lat="52.361121978610754" lon="-6.942931981757283">
        <ele>63.100000000000001</ele>
        <time>2026-06-26T09:55:37Z</time>
      </trkpt>
      <trkpt lat="52.361227003857493" lon="-6.942829973995686">
        <ele>65.030000000000001</ele>
        <time>2026-06-26T09:55:39Z</time>
      </trkpt>
      <trkpt lat="52.361277965828776" lon="-6.942781023681164">
        <ele>65.989999999999995</ele>
        <time>2026-06-26T09:55:40Z</time>
      </trkpt>
      <trkpt lat="52.361592035740614" lon="-6.942477012053132">
        <ele>69.829999999999998</ele>
        <time>2026-06-26T09:55:46Z</time>
      </trkpt>
      <trkpt lat="52.361654983833432" lon="-6.942415991798043">
        <ele>70.310000000000002</ele>
        <time>2026-06-26T09:55:47Z</time>
      </trkpt>
      <trkpt lat="52.361655989661813" lon="-6.942414985969663">
        <ele>71.269999999999996</ele>
        <time>2026-06-26T09:55:49Z</time>
      </trkpt>
      <trkpt lat="52.361912978813052" lon="-6.941983988508582">
        <ele>72.719999999999999</ele>
        <time>2026-06-26T09:55:50Z</time>
      </trkpt>
      <trkpt lat="52.361999982967973" lon="-6.94195699878037">
        <ele>74.159999999999997</ele>
        <time>2026-06-26T09:55:51Z</time>
      </trkpt>
      <trkpt lat="52.362591996788979" lon="-6.941795982420445">
        <ele>85.209999999999994</ele>
        <time>2026-06-26T09:55:57Z</time>
      </trkpt>
      <trkpt lat="52.362900031730533" lon="-6.942114997655153">
        <ele>88.099999999999994</ele>
        <time>2026-06-26T09:55:59Z</time>
      </trkpt>
      <trkpt lat="52.362910006195307" lon="-6.942114997655153">
        <ele>89.060000000000002</ele>
        <time>2026-06-26T09:56:00Z</time>
      </trkpt>
      <trkpt lat="52.36321896314621" lon="-6.942124972119927">
        <ele>92.900000000000006</ele>
        <time>2026-06-26T09:56:03Z</time>
      </trkpt>
      <trkpt lat="52.363310996443033" lon="-6.942127989605069">
        <ele>94.349999999999994</ele>
        <time>2026-06-26T09:56:04Z</time>
      </trkpt>
      <trkpt lat="52.363516017794609" lon="-6.942134024575353">
        <ele>97.709999999999994</ele>
        <time>2026-06-26T09:56:06Z</time>
      </trkpt>
      <trkpt lat="52.364190006628633" lon="-6.942154979333282">
        <ele>102.52</ele>
        <time>2026-06-26T09:56:13Z</time>
      </trkpt>
      <trkpt lat="52.364866007119417" lon="-6.942176017910242">
        <ele>103.95999999999999</ele>
        <time>2026-06-26T09:56:20Z</time>
      </trkpt>
      <trkpt lat="52.36495996825397" lon="-6.942179035395384">
        <ele>103.95999999999999</ele>
        <time>2026-06-26T09:56:21Z</time>
      </trkpt>
      <trkpt lat="52.365058036521077" lon="-6.942094964906573">
        <ele>103.95999999999999</ele>
        <time>2026-06-26T09:56:22Z</time>
      </trkpt>
      <trkpt lat="52.365141017362475" lon="-6.942021958529949">
        <ele>104.44</ele>
        <time>2026-06-26T09:56:23Z</time>
      </trkpt>
      <trkpt lat="52.365229027345777" lon="-6.941946018487215">
        <ele>104.44</ele>
        <time>2026-06-26T09:56:24Z</time>
      </trkpt>
      <trkpt lat="52.365320976823568" lon="-6.941865971311927">
        <ele>104.92</ele>
        <time>2026-06-26T09:56:25Z</time>
      </trkpt>
      <trkpt lat="52.366580022498965" lon="-6.941204974427819">
        <ele>100.59999999999999</ele>
        <time>2026-06-26T09:56:37Z</time>
      </trkpt>
      <trkpt lat="52.367476969957352" lon="-6.941019985824823">
        <ele>94.829999999999998</ele>
        <time>2026-06-26T09:56:47Z</time>
      </trkpt>
      <trkpt lat="52.368430998176336" lon="-6.940855029970408">
        <ele>86.659999999999997</ele>
        <time>2026-06-26T09:56:55Z</time>
      </trkpt>
      <trkpt lat="52.368571981787682" lon="-6.940697031095624">
        <ele>85.209999999999994</ele>
        <time>2026-06-26T09:56:56Z</time>
      </trkpt>
      <trkpt lat="52.368680024519563" lon="-6.940552024170756">
        <ele>84.25</ele>
        <time>2026-06-26T09:56:57Z</time>
      </trkpt>
      <trkpt lat="52.368786977604032" lon="-6.940411040559411">
        <ele>83.290000000000006</ele>
        <time>2026-06-26T09:56:58Z</time>
      </trkpt>
      <trkpt lat="52.368888985365629" lon="-6.940273996442556">
        <ele>82.810000000000002</ele>
        <time>2026-06-26T09:56:59Z</time>
      </trkpt>
      <trkpt lat="52.368959980085492" lon="-6.940066963434219">
        <ele>82.810000000000002</ele>
        <time>2026-06-26T09:57:00Z</time>
      </trkpt>
      <trkpt lat="52.369015971198678" lon="-6.939870994538069">
        <ele>82.329999999999998</ele>
        <time>2026-06-26T09:57:01Z</time>
      </trkpt>
      <trkpt lat="52.369071962311864" lon="-6.939677037298679">
        <ele>81.849999999999994</ele>
        <time>2026-06-26T09:57:02Z</time>
      </trkpt>
      <trkpt lat="52.369085038080812" lon="-6.939456006512046">
        <ele>81.370000000000005</ele>
        <time>2026-06-26T09:57:03Z</time>
      </trkpt>
      <trkpt lat="52.369089983403683" lon="-6.939241010695696">
        <ele>80.890000000000001</ele>
        <time>2026-06-26T09:57:04Z</time>
      </trkpt>
      <trkpt lat="52.369095012545586" lon="-6.939026014879346">
        <ele>80.890000000000001</ele>
        <time>2026-06-26T09:57:05Z</time>
      </trkpt>
      <trkpt lat="52.369100041687489" lon="-6.938814036548138">
        <ele>80.409999999999997</ele>
        <time>2026-06-26T09:57:06Z</time>
      </trkpt>
      <trkpt lat="52.369142035022378" lon="-6.937131034210324">
        <ele>78.480000000000004</ele>
        <time>2026-06-26T09:57:16Z</time>
      </trkpt>
      <trkpt lat="52.369195008650422" lon="-6.937019973993301">
        <ele>78.480000000000004</ele>
        <time>2026-06-26T09:57:21Z</time>
      </trkpt>
      <trkpt lat="52.369258962571621" lon="-6.937035983428359">
        <ele>78.480000000000004</ele>
        <time>2026-06-26T09:57:22Z</time>
      </trkpt>
      <trkpt lat="52.369346972554922" lon="-6.937059033662081">
        <ele>78</ele>
        <time>2026-06-26T09:57:23Z</time>
      </trkpt>
      <trkpt lat="52.369453003630042" lon="-6.937085017561913">
        <ele>77.040000000000006</ele>
        <time>2026-06-26T09:57:24Z</time>
      </trkpt>
      <trkpt lat="52.369573032483459" lon="-6.937115024775267">
        <ele>76.079999999999998</ele>
        <time>2026-06-26T09:57:25Z</time>
      </trkpt>
      <trkpt lat="52.370279962196946" lon="-6.937442002817988">
        <ele>69.349999999999994</ele>
        <time>2026-06-26T09:57:31Z</time>
      </trkpt>
      <trkpt lat="52.370407031849027" lon="-6.937503023073077">
        <ele>68.390000000000001</ele>
        <time>2026-06-26T09:57:32Z</time>
      </trkpt>
      <trkpt lat="52.37187503837049" lon="-6.93785497918725">
        <ele>60.700000000000003</ele>
        <time>2026-06-26T09:57:43Z</time>
      </trkpt>
      <trkpt lat="52.372683975845575" lon="-6.938073998317123">
        <ele>54.450000000000003</ele>
        <time>2026-06-26T09:57:49Z</time>
      </trkpt>
      <trkpt lat="52.372804004698992" lon="-6.938183968886733">
        <ele>53.490000000000002</ele>
        <time>2026-06-26T09:57:50Z</time>
      </trkpt>
      <trkpt lat="52.372923027724028" lon="-6.938291005790234">
        <ele>52.530000000000001</ele>
        <time>2026-06-26T09:57:51Z</time>
      </trkpt>
      <trkpt lat="52.373489979654551" lon="-6.938766008242965">
        <ele>50.130000000000003</ele>
        <time>2026-06-26T09:57:56Z</time>
      </trkpt>
      <trkpt lat="52.374022984877229" lon="-6.939116036519408">
        <ele>51.090000000000003</ele>
        <time>2026-06-26T09:58:01Z</time>
      </trkpt>
      <trkpt lat="52.37421995960176" lon="-6.939305970445275">
        <ele>53.490000000000002</ele>
        <time>2026-06-26T09:58:03Z</time>
      </trkpt>
      <trkpt lat="52.374997967854142" lon="-6.940451022237539">
        <ele>56.859999999999999</ele>
        <time>2026-06-26T09:58:11Z</time>
      </trkpt>
      <trkpt lat="52.37591796554625" lon="-6.941780978813767">
        <ele>61.659999999999997</ele>
        <time>2026-06-26T09:58:20Z</time>
      </trkpt>
      <trkpt lat="52.376856990158558" lon="-6.942974980920553">
        <ele>64.549999999999997</ele>
        <time>2026-06-26T09:58:29Z</time>
      </trkpt>
      <trkpt lat="52.376977019011974" lon="-6.943079000338912">
        <ele>64.069999999999993</ele>
        <time>2026-06-26T09:58:30Z</time>
      </trkpt>
      <trkpt lat="52.377106016501784" lon="-6.94313901476562">
        <ele>63.579999999999998</ele>
        <time>2026-06-26T09:58:31Z</time>
      </trkpt>
      <trkpt lat="52.377236019819975" lon="-6.943200035020709">
        <ele>63.100000000000001</ele>
        <time>2026-06-26T09:58:32Z</time>
      </trkpt>
      <trkpt lat="52.377367028966546" lon="-6.943205986171961">
        <ele>62.619999999999997</ele>
        <time>2026-06-26T09:58:33Z</time>
      </trkpt>
      <trkpt lat="52.377492003142834" lon="-6.943201962858439">
        <ele>62.140000000000001</ele>
        <time>2026-06-26T09:58:34Z</time>
      </trkpt>
      <trkpt lat="52.377618988975883" lon="-6.943199029192329">
        <ele>62.140000000000001</ele>
        <time>2026-06-26T09:58:35Z</time>
      </trkpt>
      <trkpt lat="52.377873966470361" lon="-6.943190982565284">
        <ele>61.659999999999997</ele>
        <time>2026-06-26T09:58:37Z</time>
      </trkpt>
      <trkpt lat="52.377989972010255" lon="-6.943188970908523">
        <ele>61.659999999999997</ele>
        <time>2026-06-26T09:58:38Z</time>
      </trkpt>
      <trkpt lat="52.379151033237576" lon="-6.943402960896492">
        <ele>57.340000000000003</ele>
        <time>2026-06-26T09:58:47Z</time>
      </trkpt>
      <trkpt lat="52.379278019070625" lon="-6.943344958126545">
        <ele>56.859999999999999</ele>
        <time>2026-06-26T09:58:48Z</time>
      </trkpt>
      <trkpt lat="52.379409028217196" lon="-6.943273041397333">
        <ele>55.890000000000001</ele>
        <time>2026-06-26T09:58:49Z</time>
      </trkpt>
      <trkpt lat="52.380933025851846" lon="-6.942436024546623">
        <ele>41.950000000000003</ele>
        <time>2026-06-26T09:59:00Z</time>
      </trkpt>
      <trkpt lat="52.381783034652472" lon="-6.942040985450149">
        <ele>33.780000000000001</ele>
        <time>2026-06-26T09:59:08Z</time>
      </trkpt>
      <trkpt lat="52.381872972473502" lon="-6.942034028470516">
        <ele>34.259999999999998</ele>
        <time>2026-06-26T09:59:13Z</time>
      </trkpt>
      <trkpt lat="52.381941033527255" lon="-6.942081972956657">
        <ele>34.740000000000002</ele>
        <time>2026-06-26T09:59:14Z</time>
      </trkpt>
      <trkpt lat="52.381956959143281" lon="-6.9421920273453">
        <ele>34.740000000000002</ele>
        <time>2026-06-26T09:59:15Z</time>
      </trkpt>
      <trkpt lat="52.381977997720242" lon="-6.942329993471503">
        <ele>34.740000000000002</ele>
        <time>2026-06-26T09:59:16Z</time>
      </trkpt>
      <trkpt lat="52.381999958306551" lon="-6.942483969032764">
        <ele>34.740000000000002</ele>
        <time>2026-06-26T09:59:17Z</time>
      </trkpt>
      <trkpt lat="52.382026026025414" lon="-6.942662000656128">
        <ele>34.259999999999998</ele>
        <time>2026-06-26T09:59:18Z</time>
      </trkpt>
      <trkpt lat="52.382068019360304" lon="-6.94286098703742">
        <ele>33.780000000000001</ele>
        <time>2026-06-26T09:59:19Z</time>
      </trkpt>
      <trkpt lat="52.382671013474464" lon="-6.944381967186928">
        <ele>28.98</ele>
        <time>2026-06-26T09:59:26Z</time>
      </trkpt>
      <trkpt lat="52.383165964856744" lon="-6.945185037329793">
        <ele>25.129999999999999</ele>
        <time>2026-06-26T09:59:30Z</time>
      </trkpt>
      <trkpt lat="52.383294040337205" lon="-6.945375977084041">
        <ele>24.649999999999999</ele>
        <time>2026-06-26T09:59:31Z</time>
      </trkpt>
      <trkpt lat="52.384647969156504" lon="-6.947363996878266">
        <ele>20.32</ele>
        <time>2026-06-26T09:59:42Z</time>
      </trkpt>
      <trkpt lat="52.385907014831901" lon="-6.94926199503243">
        <ele>15.52</ele>
        <time>2026-06-26T09:59:53Z</time>
      </trkpt>
      <trkpt lat="52.385967029258609" lon="-6.94936802610755">
        <ele>15.039999999999999</ele>
        <time>2026-06-26T09:59:54Z</time>
      </trkpt>
      <trkpt lat="52.386025032028556" lon="-6.949548991397023">
        <ele>15.039999999999999</ele>
        <time>2026-06-26T09:59:55Z</time>
      </trkpt>
      <trkpt lat="52.386106001213193" lon="-6.949802041053772">
        <ele>14.56</ele>
        <time>2026-06-26T09:59:57Z</time>
      </trkpt>
      <trkpt lat="52.386139025911689" lon="-6.949903964996338">
        <ele>14.56</ele>
        <time>2026-06-26T09:59:58Z</time>
      </trkpt>
      <trkpt lat="52.386124022305012" lon="-6.94999298080802">
        <ele>13.6</ele>
        <time>2026-06-26T09:59:59Z</time>
      </trkpt>
      <trkpt lat="52.386142965406179" lon="-6.950133964419365">
        <ele>12.630000000000001</ele>
        <time>2026-06-26T10:00:00Z</time>
      </trkpt>
      <trkpt lat="52.386171966791153" lon="-6.95025198161602">
        <ele>12.15</ele>
        <time>2026-06-26T10:00:01Z</time>
      </trkpt>
      <trkpt lat="52.386242039501667" lon="-6.950290035456419">
        <ele>12.15</ele>
        <time>2026-06-26T10:00:02Z</time>
      </trkpt>
      <trkpt lat="52.386318985372782" lon="-6.950290035456419">
        <ele>11.67</ele>
        <time>2026-06-26T10:00:03Z</time>
      </trkpt>
      <trkpt lat="52.386402972042561" lon="-6.9502910412848">
        <ele>11.67</ele>
        <time>2026-06-26T10:00:04Z</time>
      </trkpt>
      <trkpt lat="52.386483019217849" lon="-6.950307972729206">
        <ele>11.67</ele>
        <time>2026-06-26T10:00:05Z</time>
      </trkpt>
      <trkpt lat="52.386566000059247" lon="-6.950323982164264">
        <ele>12.15</ele>
        <time>2026-06-26T10:00:06Z</time>
      </trkpt>
      <trkpt lat="52.386655015870929" lon="-6.950364969670773">
        <ele>12.15</ele>
        <time>2026-06-26T10:00:07Z</time>
      </trkpt>
      <trkpt lat="52.386760963127017" lon="-6.950439987704158">
        <ele>12.15</ele>
        <time>2026-06-26T10:00:08Z</time>
      </trkpt>
      <trkpt lat="52.386844027787447" lon="-6.950532021000981">
        <ele>12.15</ele>
        <time>2026-06-26T10:00:09Z</time>
      </trkpt>
      <trkpt lat="52.387799983844161" lon="-6.951242974027991">
        <ele>9.75</ele>
        <time>2026-06-26T10:00:17Z</time>
      </trkpt>
      <trkpt lat="52.388874040916562" lon="-6.951422011479735">
        <ele>9.27</ele>
        <time>2026-06-26T10:00:26Z</time>
      </trkpt>
      <trkpt lat="52.389920018613338" lon="-6.9510249607265">
        <ele>7.35</ele>
        <time>2026-06-26T10:00:35Z</time>
      </trkpt>
      <trkpt lat="52.391088036820292" lon="-6.950230021029711">
        <ele>8.789999999999999</ele>
        <time>2026-06-26T10:00:47Z</time>
      </trkpt>
      <trkpt lat="52.392317997291684" lon="-6.94917599670589">
        <ele>9.27</ele>
        <time>2026-06-26T10:01:00Z</time>
      </trkpt>
      <trkpt lat="52.393120983615518" lon="-6.948134964331985">
        <ele>5.42</ele>
        <time>2026-06-26T10:01:10Z</time>
      </trkpt>
      <trkpt lat="52.393797989934683" lon="-6.947193006053567">
        <ele>4.46</ele>
        <time>2026-06-26T10:01:21Z</time>
      </trkpt>
      <trkpt lat="52.393909972161055" lon="-6.947030983865261">
        <ele>3.02</ele>
        <time>2026-06-26T10:01:28Z</time>
      </trkpt>
      <trkpt lat="52.39392003044486" lon="-6.947016986086965">
        <ele>3.02</ele>
        <time>2026-06-26T10:01:32Z</time>
      </trkpt>
      <trkpt lat="52.394192023202777" lon="-6.946636028587818">
        <ele>1.58</ele>
        <time>2026-06-26T10:01:39Z</time>
      </trkpt>
      <trkpt lat="52.394636012613773" lon="-6.946169994771481">
        <ele>-0.82</ele>
        <time>2026-06-26T10:01:50Z</time>
      </trkpt>
      <trkpt lat="52.395158037543297" lon="-6.945820972323418">
        <ele>0.14</ele>
        <time>2026-06-26T10:02:01Z</time>
      </trkpt>
      <trkpt lat="52.395301032811403" lon="-6.945719970390201">
        <ele>0.14</ele>
        <time>2026-06-26T10:02:06Z</time>
      </trkpt>
      <trkpt lat="52.395417038351297" lon="-6.945655010640621">
        <ele>1.1</ele>
        <time>2026-06-26T10:02:09Z</time>
      </trkpt>
      <trkpt lat="52.395671010017395" lon="-6.945529030635953">
        <ele>1.58</ele>
        <time>2026-06-26T10:02:14Z</time>
      </trkpt>
      <trkpt lat="52.395718032494187" lon="-6.945512015372515">
        <ele>1.58</ele>
        <time>2026-06-26T10:02:15Z</time>
      </trkpt>
      <trkpt lat="52.395757008343935" lon="-6.945498017594218">
        <ele>2.06</ele>
        <time>2026-06-26T10:02:16Z</time>
      </trkpt>
      <trkpt lat="52.395791038870811" lon="-6.945485025644302">
        <ele>2.06</ele>
        <time>2026-06-26T10:02:17Z</time>
      </trkpt>
      <trkpt lat="52.395794978365302" lon="-6.945484019815922">
        <ele>2.54</ele>
        <time>2026-06-26T10:02:18Z</time>
      </trkpt>
      <trkpt lat="52.395794978365302" lon="-6.945484019815922">
        <ele>2.06</ele>
        <time>2026-06-26T10:02:19Z</time>
      </trkpt>
      <trkpt lat="52.395880976691842" lon="-6.945441020652652">
        <ele>2.06</ele>
        <time>2026-06-26T10:02:20Z</time>
      </trkpt>
      <trkpt lat="52.395880976691842" lon="-6.945441020652652">
        <ele>2.06</ele>
        <time>2026-06-26T10:02:21Z</time>
      </trkpt>
      <trkpt lat="52.395838983356953" lon="-6.945290984585881">
        <ele>1.58</ele>
        <time>2026-06-26T10:02:22Z</time>
      </trkpt>
      <trkpt lat="52.395823979750276" lon="-6.945196017622948">
        <ele>1.58</ele>
        <time>2026-06-26T10:02:23Z</time>
      </trkpt>
      <trkpt lat="52.395807970315218" lon="-6.945098033174872">
        <ele>1.58</ele>
        <time>2026-06-26T10:02:24Z</time>
      </trkpt>
      <trkpt lat="52.395792966708541" lon="-6.945001976564527">
        <ele>1.1</ele>
        <time>2026-06-26T10:02:25Z</time>
      </trkpt>
      <trkpt lat="52.395777041092515" lon="-6.944906003773212">
        <ele>1.1</ele>
        <time>2026-06-26T10:02:26Z</time>
      </trkpt>
      <trkpt lat="52.395759020000696" lon="-6.94481598213315">
        <ele>1.1</ele>
        <time>2026-06-26T10:02:27Z</time>
      </trkpt>
      <trkpt lat="52.395689031109214" lon="-6.944486992433667">
        <ele>1.1</ele>
        <time>2026-06-26T10:02:31Z</time>
      </trkpt>
      <trkpt lat="52.395662041381001" lon="-6.944364029914141">
        <ele>1.1</ele>
        <time>2026-06-26T10:02:33Z</time>
      </trkpt>
      <trkpt lat="52.39570202305913" lon="-6.944264033809304">
        <ele>1.1</ele>
        <time>2026-06-26T10:02:34Z</time>
      </trkpt>
      <trkpt lat="52.395740998908877" lon="-6.944251963868737">
        <ele>0.62</ele>
        <time>2026-06-26T10:02:35Z</time>
      </trkpt>
      <trkpt lat="52.395903021097183" lon="-6.944201001897454">
        <ele>0.14</ele>
        <time>2026-06-26T10:02:38Z</time>
      </trkpt>
      <trkpt lat="52.396036963909864" lon="-6.944158002734184">
        <ele>-0.34</ele>
        <time>2026-06-26T10:02:40Z</time>
      </trkpt>
      <trkpt lat="52.396166967228055" lon="-6.944118021056056">
        <ele>-0.34</ele>
        <time>2026-06-26T10:02:42Z</time>
      </trkpt>
      <trkpt lat="52.396231004968286" lon="-6.944096982479096">
        <ele>-0.82</ele>
        <time>2026-06-26T10:02:43Z</time>
      </trkpt>
      <trkpt lat="52.396289007738233" lon="-6.944078961387277">
        <ele>-0.82</ele>
        <time>2026-06-26T10:02:44Z</time>
      </trkpt>
      <trkpt lat="52.396525964140892" lon="-6.943992041051388">
        <ele>0.62</ele>
        <time>2026-06-26T10:02:49Z</time>
      </trkpt>
      <trkpt lat="52.396588996052742" lon="-6.943960022181273">
        <ele>1.58</ele>
        <time>2026-06-26T10:02:50Z</time>
      </trkpt>
      <trkpt lat="52.396758981049061" lon="-6.9439119938761">
        <ele>3.98</ele>
        <time>2026-06-26T10:02:55Z</time>
      </trkpt>
      <trkpt lat="52.39679996855557" lon="-6.943901013582945">
        <ele>4.94</ele>
        <time>2026-06-26T10:02:56Z</time>
      </trkpt>
      <trkpt lat="52.39733599126339" lon="-6.943749971687794">
        <ele>9.27</ele>
        <time>2026-06-26T10:03:04Z</time>
      </trkpt>
      <trkpt lat="52.397394999861717" lon="-6.943733040243387">
        <ele>10.23</ele>
        <time>2026-06-26T10:03:05Z</time>
      </trkpt>
      <trkpt lat="52.397502958774567" lon="-6.943678976967931">
        <ele>12.15</ele>
        <time>2026-06-26T10:03:07Z</time>
      </trkpt>
      <trkpt lat="52.397561967372894" lon="-6.943644024431706">
        <ele>12.630000000000001</ele>
        <time>2026-06-26T10:03:08Z</time>
      </trkpt>
      <trkpt lat="52.397624999284744" lon="-6.943606976419687">
        <ele>13.6</ele>
        <time>2026-06-26T10:03:09Z</time>
      </trkpt>
      <trkpt lat="52.39782901480794" lon="-6.94346196949482">
        <ele>16.48</ele>
        <time>2026-06-26T10:03:12Z</time>
      </trkpt>
      <trkpt lat="52.397893974557519" lon="-6.943382006138563">
        <ele>17.440000000000001</ele>
        <time>2026-06-26T10:03:13Z</time>
      </trkpt>
      <trkpt lat="52.398038981482387" lon="-6.943201962858439">
        <ele>18.879999999999999</ele>
        <time>2026-06-26T10:03:15Z</time>
      </trkpt>
      <trkpt lat="52.398846996948123" lon="-6.9421730004251">
        <ele>20.809999999999999</ele>
        <time>2026-06-26T10:03:24Z</time>
      </trkpt>
      <trkpt lat="52.399944020435214" lon="-6.940783029422164">
        <ele>28.5</ele>
        <time>2026-06-26T10:03:34Z</time>
      </trkpt>
      <trkpt lat="52.400056002661586" lon="-6.940643973648548">
        <ele>29.460000000000001</ele>
        <time>2026-06-26T10:03:35Z</time>
      </trkpt>
      <trkpt lat="52.400417011231184" lon="-6.94023996591568">
        <ele>31.859999999999999</ele>
        <time>2026-06-26T10:03:38Z</time>
      </trkpt>
      <trkpt lat="52.401678990572691" lon="-6.939286021515727">
        <ele>36.189999999999998</ele>
        <time>2026-06-26T10:03:47Z</time>
      </trkpt>
      <trkpt lat="52.401820980012417" lon="-6.939204968512058">
        <ele>36.189999999999998</ele>
        <time>2026-06-26T10:03:48Z</time>
      </trkpt>
      <trkpt lat="52.40206103771925" lon="-6.939068008214235">
        <ele>36.670000000000002</ele>
        <time>2026-06-26T10:03:50Z</time>
      </trkpt>
      <trkpt lat="52.402205960825086" lon="-6.939022997394204">
        <ele>37.149999999999999</ele>
        <time>2026-06-26T10:03:51Z</time>
      </trkpt>
      <trkpt lat="52.403037026524544" lon="-6.938768019899726">
        <ele>41.950000000000003</ele>
        <time>2026-06-26T10:03:57Z</time>
      </trkpt>
      <trkpt lat="52.40358998067677" lon="-6.938500972464681">
        <ele>43.399999999999999</ele>
        <time>2026-06-26T10:04:01Z</time>
      </trkpt>
      <trkpt lat="52.403724007308483" lon="-6.93847599439323">
        <ele>43.399999999999999</ele>
        <time>2026-06-26T10:04:02Z</time>
      </trkpt>
      <trkpt lat="52.403861973434687" lon="-6.938450010493398">
        <ele>43.399999999999999</ele>
        <time>2026-06-26T10:04:03Z</time>
      </trkpt>
      <trkpt lat="52.404009997844696" lon="-6.938457973301411">
        <ele>43.880000000000003</ele>
        <time>2026-06-26T10:04:04Z</time>
      </trkpt>
      <trkpt lat="52.404160033911467" lon="-6.938471971079707">
        <ele>43.880000000000003</ele>
        <time>2026-06-26T10:04:05Z</time>
      </trkpt>
      <trkpt lat="52.405374990776181" lon="-6.938510024920106">
        <ele>43.880000000000003</ele>
        <time>2026-06-26T10:04:13Z</time>
      </trkpt>
      <trkpt lat="52.406556000933051" lon="-6.938383039087057">
        <ele>44.840000000000003</ele>
        <time>2026-06-26T10:04:21Z</time>
      </trkpt>
      <trkpt lat="52.407538024708629" lon="-6.93828396499157">
        <ele>43.399999999999999</ele>
        <time>2026-06-26T10:04:28Z</time>
      </trkpt>
      <trkpt lat="52.407805994153023" lon="-6.938264016062021">
        <ele>42.920000000000002</ele>
        <time>2026-06-26T10:04:30Z</time>
      </trkpt>
      <trkpt lat="52.408387027680874" lon="-6.938221016898751">
        <ele>41.469999999999999</ele>
        <time>2026-06-26T10:04:34Z</time>
      </trkpt>
      <trkpt lat="52.40897904150188" lon="-6.938177011907101">
        <ele>41.469999999999999</ele>
        <time>2026-06-26T10:04:38Z</time>
      </trkpt>
      <trkpt lat="52.409272994846106" lon="-6.93815496750176">
        <ele>41.469999999999999</ele>
        <time>2026-06-26T10:04:40Z</time>
      </trkpt>
      <trkpt lat="52.410917021334171" lon="-6.937885992228985">
        <ele>41.469999999999999</ele>
        <time>2026-06-26T10:04:51Z</time>
      </trkpt>
      <trkpt lat="52.411938020959496" lon="-6.937651969492436">
        <ele>45.32</ele>
        <time>2026-06-26T10:04:58Z</time>
      </trkpt>
      <trkpt lat="52.412651991471648" lon="-6.93748701363802">
        <ele>45.799999999999997</ele>
        <time>2026-06-26T10:05:03Z</time>
      </trkpt>
      <trkpt lat="52.412794986739755" lon="-6.937453988939524">
        <ele>45.799999999999997</ele>
        <time>2026-06-26T10:05:04Z</time>
      </trkpt>
      <trkpt lat="52.413607025519013" lon="-6.937413001433015">
        <ele>46.280000000000001</ele>
        <time>2026-06-26T10:05:11Z</time>
      </trkpt>
      <trkpt lat="52.413681037724018" lon="-6.937464969232678">
        <ele>46.280000000000001</ele>
        <time>2026-06-26T10:05:12Z</time>
      </trkpt>
      <trkpt lat="52.41375002078712" lon="-6.937518026679754">
        <ele>45.799999999999997</ele>
        <time>2026-06-26T10:05:13Z</time>
      </trkpt>
      <trkpt lat="52.41381699219346" lon="-6.937584998086095">
        <ele>45.799999999999997</ele>
        <time>2026-06-26T10:05:14Z</time>
      </trkpt>
      <trkpt lat="52.413900978863239" lon="-6.937608970329166">
        <ele>45.799999999999997</ele>
        <time>2026-06-26T10:05:15Z</time>
      </trkpt>
      <trkpt lat="52.413969039916992" lon="-6.937608970329166">
        <ele>45.32</ele>
        <time>2026-06-26T10:05:16Z</time>
      </trkpt>
      <trkpt lat="52.414024025201797" lon="-6.937478967010975">
        <ele>44.840000000000003</ele>
        <time>2026-06-26T10:05:17Z</time>
      </trkpt>
      <trkpt lat="52.414080016314983" lon="-6.937400009483099">
        <ele>44.840000000000003</ele>
        <time>2026-06-26T10:05:18Z</time>
      </trkpt>
      <trkpt lat="52.414141036570072" lon="-6.937321973964572">
        <ele>44.359999999999999</ele>
        <time>2026-06-26T10:05:19Z</time>
      </trkpt>
      <trkpt lat="52.414204990491271" lon="-6.937241004779935">
        <ele>43.880000000000003</ele>
        <time>2026-06-26T10:05:20Z</time>
      </trkpt>
      <trkpt lat="52.414271961897612" lon="-6.937158023938537">
        <ele>43.399999999999999</ele>
        <time>2026-06-26T10:05:21Z</time>
      </trkpt>
      <trkpt lat="52.414362989366055" lon="-6.937127010896802">
        <ele>42.920000000000002</ele>
        <time>2026-06-26T10:05:22Z</time>
      </trkpt>
      <trkpt lat="52.41445804014802" lon="-6.937095997855067">
        <ele>42.439999999999998</ele>
        <time>2026-06-26T10:05:23Z</time>
      </trkpt>
      <trkpt lat="52.415551040321589" lon="-6.936805984005332">
        <ele>37.149999999999999</ele>
        <time>2026-06-26T10:05:32Z</time>
      </trkpt>
      <trkpt lat="52.415691018104553" lon="-6.936771031469107">
        <ele>36.189999999999998</ele>
        <time>2026-06-26T10:05:33Z</time>
      </trkpt>
      <trkpt lat="52.415954964235425" lon="-6.936704982072115">
        <ele>34.740000000000002</ele>
        <time>2026-06-26T10:05:35Z</time>
      </trkpt>
      <trkpt lat="52.416084967553616" lon="-6.936672041192651">
        <ele>33.780000000000001</ele>
        <time>2026-06-26T10:05:36Z</time>
      </trkpt>
      <trkpt lat="52.417198000475764" lon="-6.936473976820707">
        <ele>26.57</ele>
        <time>2026-06-26T10:05:44Z</time>
      </trkpt>
      <trkpt lat="52.417334038764238" lon="-6.936468025669456">
        <ele>25.609999999999999</ele>
        <time>2026-06-26T10:05:45Z</time>
      </trkpt>
      <trkpt lat="52.418280020356178" lon="-6.936431983485818">
        <ele>22.73</ele>
        <time>2026-06-26T10:05:52Z</time>
      </trkpt>
      <trkpt lat="52.419160958379507" lon="-6.936358977109194">
        <ele>19.359999999999999</ele>
        <time>2026-06-26T10:05:59Z</time>
      </trkpt>
      <trkpt lat="52.419247962534428" lon="-6.936321007087827">
        <ele>18.399999999999999</ele>
        <time>2026-06-26T10:06:00Z</time>
      </trkpt>
      <trkpt lat="52.419347036629915" lon="-6.936223022639751">
        <ele>17.920000000000002</ele>
        <time>2026-06-26T10:06:01Z</time>
      </trkpt>
      <trkpt lat="52.419429011642933" lon="-6.936140041798353">
        <ele>17.440000000000001</ele>
        <time>2026-06-26T10:06:02Z</time>
      </trkpt>
      <trkpt lat="52.419505035504699" lon="-6.936065023764968">
        <ele>16.960000000000001</ele>
        <time>2026-06-26T10:06:03Z</time>
      </trkpt>
      <trkpt lat="52.419549962505698" lon="-6.935967961326242">
        <ele>16.960000000000001</ele>
        <time>2026-06-26T10:06:04Z</time>
      </trkpt>
      <trkpt lat="52.419594973325729" lon="-6.935869976878166">
        <ele>16.48</ele>
        <time>2026-06-26T10:06:05Z</time>
      </trkpt>
      <trkpt lat="52.419640989974141" lon="-6.935768974944949">
        <ele>16</ele>
        <time>2026-06-26T10:06:06Z</time>
      </trkpt>
      <trkpt lat="52.419688012450933" lon="-6.935666967183352">
        <ele>15.52</ele>
        <time>2026-06-26T10:06:07Z</time>
      </trkpt>
      <trkpt lat="52.419741991907358" lon="-6.935549033805728">
        <ele>15.039999999999999</ele>
        <time>2026-06-26T10:06:08Z</time>
      </trkpt>
      <trkpt lat="52.419764958322048" lon="-6.935432022437453">
        <ele>14.56</ele>
        <time>2026-06-26T10:06:09Z</time>
      </trkpt>
      <trkpt lat="52.419819021597505" lon="-6.935150977224112">
        <ele>13.119999999999999</ele>
        <time>2026-06-26T10:06:11Z</time>
      </trkpt>
      <trkpt lat="52.419849028810859" lon="-6.934999013319612">
        <ele>12.15</ele>
        <time>2026-06-26T10:06:12Z</time>
      </trkpt>
      <trkpt lat="52.419880963861942" lon="-6.934835985302925">
        <ele>11.19</ele>
        <time>2026-06-26T10:06:13Z</time>
      </trkpt>
      <trkpt lat="52.419912982732058" lon="-6.934659965336323">
        <ele>9.75</ele>
        <time>2026-06-26T10:06:14Z</time>
      </trkpt>
      <trkpt lat="52.419903008267283" lon="-6.934486962854862">
        <ele>8.310000000000001</ele>
        <time>2026-06-26T10:06:15Z</time>
      </trkpt>
      <trkpt lat="52.419893033802509" lon="-6.934319995343685">
        <ele>6.87</ele>
        <time>2026-06-26T10:06:16Z</time>
      </trkpt>
      <trkpt lat="52.419883981347084" lon="-6.934151016175747">
        <ele>5.91</ele>
        <time>2026-06-26T10:06:17Z</time>
      </trkpt>
      <trkpt lat="52.41987400688231" lon="-6.933979019522667">
        <ele>4.46</ele>
        <time>2026-06-26T10:06:18Z</time>
      </trkpt>
      <trkpt lat="52.419790020212531" lon="-6.932916026562452">
        <ele>3.02</ele>
        <time>2026-06-26T10:06:23Z</time>
      </trkpt>
      <trkpt lat="52.419766969978809" lon="-6.932676974684">
        <ele>3.5</ele>
        <time>2026-06-26T10:06:24Z</time>
      </trkpt>
      <trkpt lat="52.419720031321049" lon="-6.932170959189534">
        <ele>3.98</ele>
        <time>2026-06-26T10:06:26Z</time>
      </trkpt>
      <trkpt lat="52.419626992195845" lon="-6.928779976442456">
        <ele>5.42</ele>
        <time>2026-06-26T10:06:38Z</time>
      </trkpt>
      <trkpt lat="52.419721959158778" lon="-6.926478976383805">
        <ele>9.27</ele>
        <time>2026-06-26T10:06:46Z</time>
      </trkpt>
      <trkpt lat="52.420296035706997" lon="-6.924277972429991">
        <ele>16</ele>
        <time>2026-06-26T10:06:55Z</time>
      </trkpt>
      <trkpt lat="52.420788975432515" lon="-6.922740982845426">
        <ele>23.690000000000001</ele>
        <time>2026-06-26T10:07:03Z</time>
      </trkpt>
      <trkpt lat="52.420825017616153" lon="-6.922626988962293">
        <ele>24.649999999999999</ele>
        <time>2026-06-26T10:07:04Z</time>
      </trkpt>
      <trkpt lat="52.42094898596406" lon="-6.922486005350947">
        <ele>25.129999999999999</ele>
        <time>2026-06-26T10:07:05Z</time>
      </trkpt>
      <trkpt lat="52.421009000390768" lon="-6.922508971765637">
        <ele>26.09</ele>
        <time>2026-06-26T10:07:06Z</time>
      </trkpt>
      <trkpt lat="52.421081000939012" lon="-6.92253696732223">
        <ele>26.57</ele>
        <time>2026-06-26T10:07:07Z</time>
      </trkpt>
      <trkpt lat="52.421166999265552" lon="-6.922568986192346">
        <ele>26.57</ele>
        <time>2026-06-26T10:07:08Z</time>
      </trkpt>
      <trkpt lat="52.421259032562375" lon="-6.922604022547603">
        <ele>26.57</ele>
        <time>2026-06-26T10:07:09Z</time>
      </trkpt>
      <trkpt lat="52.421366991475224" lon="-6.922621037811041">
        <ele>26.57</ele>
        <time>2026-06-26T10:07:10Z</time>
      </trkpt>
      <trkpt lat="52.421476962044835" lon="-6.922591030597687">
        <ele>26.09</ele>
        <time>2026-06-26T10:07:11Z</time>
      </trkpt>
      <trkpt lat="52.421592967584729" lon="-6.922559011727572">
        <ele>26.09</ele>
        <time>2026-06-26T10:07:12Z</time>
      </trkpt>
      <trkpt lat="52.421715008094907" lon="-6.922524981200695">
        <ele>25.609999999999999</ele>
        <time>2026-06-26T10:07:13Z</time>
      </trkpt>
      <trkpt lat="52.421838976442814" lon="-6.92249103449285">
        <ele>24.649999999999999</ele>
        <time>2026-06-26T10:07:14Z</time>
      </trkpt>
      <trkpt lat="52.421963028609753" lon="-6.922465972602367">
        <ele>23.690000000000001</ele>
        <time>2026-06-26T10:07:15Z</time>
      </trkpt>
      <trkpt lat="52.422091020271182" lon="-6.922549959272146">
        <ele>22.73</ele>
        <time>2026-06-26T10:07:16Z</time>
      </trkpt>
      <trkpt lat="52.422224963083863" lon="-6.922636963427067">
        <ele>21.289999999999999</ele>
        <time>2026-06-26T10:07:17Z</time>
      </trkpt>
      <trkpt lat="52.422381034120917" lon="-6.922738971188664">
        <ele>20.32</ele>
        <time>2026-06-26T10:07:18Z</time>
      </trkpt>
      <trkpt lat="52.422489998862147" lon="-6.922861011698842">
        <ele>18.879999999999999</ele>
        <time>2026-06-26T10:07:19Z</time>
      </trkpt>
      <trkpt lat="52.422617990523577" lon="-6.923003001138568">
        <ele>17.440000000000001</ele>
        <time>2026-06-26T10:07:20Z</time>
      </trkpt>
      <trkpt lat="52.423250991851091" lon="-6.923647988587618">
        <ele>12.630000000000001</ele>
        <time>2026-06-26T10:07:25Z</time>
      </trkpt>
      <trkpt lat="52.423373032361269" lon="-6.923676989972591">
        <ele>12.630000000000001</ele>
        <time>2026-06-26T10:07:26Z</time>
      </trkpt>
      <trkpt lat="52.42346003651619" lon="-6.923670032992959">
        <ele>13.119999999999999</ele>
        <time>2026-06-26T10:07:27Z</time>
      </trkpt>
      <trkpt lat="52.423536982387304" lon="-6.923662992194295">
        <ele>14.08</ele>
        <time>2026-06-26T10:07:28Z</time>
      </trkpt>
      <trkpt lat="52.42361300624907" lon="-6.923616975545883">
        <ele>15.039999999999999</ele>
        <time>2026-06-26T10:07:29Z</time>
      </trkpt>
      <trkpt lat="52.42369900457561" lon="-6.923542963340879">
        <ele>15.52</ele>
        <time>2026-06-26T10:07:30Z</time>
      </trkpt>
      <trkpt lat="52.423791037872434" lon="-6.923464005813003">
        <ele>16.48</ele>
        <time>2026-06-26T10:07:31Z</time>
      </trkpt>
      <trkpt lat="52.423886004835367" lon="-6.923360992223024">
        <ele>16.960000000000001</ele>
        <time>2026-06-26T10:07:32Z</time>
      </trkpt>
      <trkpt lat="52.423964962363243" lon="-6.92322202026844">
        <ele>17.440000000000001</ele>
        <time>2026-06-26T10:07:33Z</time>
      </trkpt>
      <trkpt lat="52.424047021195292" lon="-6.923077013343573">
        <ele>17.440000000000001</ele>
        <time>2026-06-26T10:07:34Z</time>
      </trkpt>
      <trkpt lat="52.424132013693452" lon="-6.922928988933563">
        <ele>17.920000000000002</ele>
        <time>2026-06-26T10:07:35Z</time>
      </trkpt>
      <trkpt lat="52.424560999497771" lon="-6.922060959041119">
        <ele>19.359999999999999</ele>
        <time>2026-06-26T10:07:40Z</time>
      </trkpt>
      <trkpt lat="52.424616990610957" lon="-6.921859961003065">
        <ele>19.84</ele>
        <time>2026-06-26T10:07:41Z</time>
      </trkpt>
      <trkpt lat="52.424655966460705" lon="-6.921666003763676">
        <ele>20.32</ele>
        <time>2026-06-26T10:07:42Z</time>
      </trkpt>
      <trkpt lat="52.424656972289085" lon="-6.921450002118945">
        <ele>20.809999999999999</ele>
        <time>2026-06-26T10:07:43Z</time>
      </trkpt>
      <trkpt lat="52.424658983945847" lon="-6.921234000474215">
        <ele>20.809999999999999</ele>
        <time>2026-06-26T10:07:44Z</time>
      </trkpt>
      <trkpt lat="52.424668958410621" lon="-6.919963974505663">
        <ele>24.170000000000002</ele>
        <time>2026-06-26T10:07:50Z</time>
      </trkpt>
      <trkpt lat="52.424852019175887" lon="-6.917587034404278">
        <ele>30.420000000000002</ele>
        <time>2026-06-26T10:08:00Z</time>
      </trkpt>
      <trkpt lat="52.425111019983888" lon="-6.916394960135222">
        <ele>31.859999999999999</ele>
        <time>2026-06-26T10:08:05Z</time>
      </trkpt>
      <trkpt lat="52.425195006653666" lon="-6.916219023987651">
        <ele>32.340000000000003</ele>
        <time>2026-06-26T10:08:06Z</time>
      </trkpt>
      <trkpt lat="52.425277987495065" lon="-6.916044009849429">
        <ele>32.82</ele>
        <time>2026-06-26T10:08:07Z</time>
      </trkpt>
      <trkpt lat="52.425382006913424" lon="-6.915909983217716">
        <ele>33.299999999999997</ele>
        <time>2026-06-26T10:08:08Z</time>
      </trkpt>
      <trkpt lat="52.425493989139795" lon="-6.915818033739924">
        <ele>33.780000000000001</ele>
        <time>2026-06-26T10:08:09Z</time>
      </trkpt>
      <trkpt lat="52.425617035478354" lon="-6.915756007656455">
        <ele>34.740000000000002</ele>
        <time>2026-06-26T10:08:10Z</time>
      </trkpt>
      <trkpt lat="52.425738992169499" lon="-6.915694987401366">
        <ele>35.710000000000001</ele>
        <time>2026-06-26T10:08:11Z</time>
      </trkpt>
      <trkpt lat="52.425860026851296" lon="-6.91565902903676">
        <ele>36.670000000000002</ele>
        <time>2026-06-26T10:08:12Z</time>
      </trkpt>
      <trkpt lat="52.425992963835597" lon="-6.91566196270287">
        <ele>37.630000000000003</ele>
        <time>2026-06-26T10:08:13Z</time>
      </trkpt>
      <trkpt lat="52.426129002124071" lon="-6.915664980188012">
        <ele>38.109999999999999</ele>
        <time>2026-06-26T10:08:14Z</time>
      </trkpt>
      <trkpt lat="52.426265040412545" lon="-6.915667997673154">
        <ele>39.07</ele>
        <time>2026-06-26T10:08:15Z</time>
      </trkpt>
      <trkpt lat="52.426795028150082" lon="-6.91565902903676">
        <ele>39.07</ele>
        <time>2026-06-26T10:08:19Z</time>
      </trkpt>
      <trkpt lat="52.426916984841228" lon="-6.915589962154627">
        <ele>39.07</ele>
        <time>2026-06-26T10:08:20Z</time>
      </trkpt>
      <trkpt lat="52.427045982331038" lon="-6.915517039597035">
        <ele>39.07</ele>
        <time>2026-06-26T10:08:21Z</time>
      </trkpt>
      <trkpt lat="52.427172968164086" lon="-6.915406985208392">
        <ele>39.549999999999997</ele>
        <time>2026-06-26T10:08:22Z</time>
      </trkpt>
      <trkpt lat="52.427295008674264" lon="-6.91527103073895">
        <ele>39.549999999999997</ele>
        <time>2026-06-26T10:08:23Z</time>
      </trkpt>
      <trkpt lat="52.428491022437811" lon="-6.914030006155372">
        <ele>41.469999999999999</ele>
        <time>2026-06-26T10:08:32Z</time>
      </trkpt>
      <trkpt lat="52.429222008213401" lon="-6.91357403062284">
        <ele>43.880000000000003</ele>
        <time>2026-06-26T10:08:37Z</time>
      </trkpt>
      <trkpt lat="52.42949802428484" lon="-6.913499012589455">
        <ele>43.880000000000003</ele>
        <time>2026-06-26T10:08:39Z</time>
      </trkpt>
      <trkpt lat="52.430077968165278" lon="-6.913427012041211">
        <ele>45.32</ele>
        <time>2026-06-26T10:08:43Z</time>
      </trkpt>
      <trkpt lat="52.430202020332217" lon="-6.913351994007826">
        <ele>45.32</ele>
        <time>2026-06-26T10:08:44Z</time>
      </trkpt>
      <trkpt lat="52.430326994508505" lon="-6.913274964317679">
        <ele>45.32</ele>
        <time>2026-06-26T10:08:45Z</time>
      </trkpt>
      <trkpt lat="52.43044501170516" lon="-6.91318997181952">
        <ele>45.799999999999997</ele>
        <time>2026-06-26T10:08:46Z</time>
      </trkpt>
      <trkpt lat="52.430548025295138" lon="-6.9130580406636">
        <ele>45.32</ele>
        <time>2026-06-26T10:08:47Z</time>
      </trkpt>
      <trkpt lat="52.430656990036368" lon="-6.912919990718365">
        <ele>45.32</ele>
        <time>2026-06-26T10:08:48Z</time>
      </trkpt>
      <trkpt lat="52.43136802688241" lon="-6.911509986966848">
        <ele>44.840000000000003</ele>
        <time>2026-06-26T10:08:55Z</time>
      </trkpt>
      <trkpt lat="52.431848980486393" lon="-6.909852968528867">
        <ele>46.759999999999998</ele>
        <time>2026-06-26T10:09:02Z</time>
      </trkpt>
      <trkpt lat="52.432097001001239" lon="-6.908368030562997">
        <ele>46.759999999999998</ele>
        <time>2026-06-26T10:09:08Z</time>
      </trkpt>
      <trkpt lat="52.432402018457651" lon="-6.9066789932549">
        <ele>49.649999999999999</ele>
        <time>2026-06-26T10:09:15Z</time>
      </trkpt>
      <trkpt lat="52.432492040097713" lon="-6.906466009095311">
        <ele>50.609999999999999</ele>
        <time>2026-06-26T10:09:16Z</time>
      </trkpt>
      <trkpt lat="52.432592958211899" lon="-6.906272973865271">
        <ele>51.57</ele>
        <time>2026-06-26T10:09:17Z</time>
      </trkpt>
      <trkpt lat="52.432722961530089" lon="-6.906112041324377">
        <ele>53.009999999999998</ele>
        <time>2026-06-26T10:09:18Z</time>
      </trkpt>
      <trkpt lat="52.432853970676661" lon="-6.905950019136071">
        <ele>53.969999999999999</ele>
        <time>2026-06-26T10:09:19Z</time>
      </trkpt>
      <trkpt lat="52.432995960116386" lon="-6.905813980847597">
        <ele>55.409999999999997</ele>
        <time>2026-06-26T10:09:20Z</time>
      </trkpt>
      <trkpt lat="52.433144990354776" lon="-6.905705016106367">
        <ele>56.369999999999997</ele>
        <time>2026-06-26T10:09:21Z</time>
      </trkpt>
      <trkpt lat="52.433289997279644" lon="-6.905597979202867">
        <ele>57.340000000000003</ele>
        <time>2026-06-26T10:09:22Z</time>
      </trkpt>
      <trkpt lat="52.433439027518034" lon="-6.905555985867977">
        <ele>57.340000000000003</ele>
        <time>2026-06-26T10:09:23Z</time>
      </trkpt>
      <trkpt lat="52.433596020564437" lon="-6.905534025281668">
        <ele>58.299999999999997</ele>
        <time>2026-06-26T10:09:24Z</time>
      </trkpt>
      <trkpt lat="52.433759970590472" lon="-6.905546011403203">
        <ele>58.780000000000001</ele>
        <time>2026-06-26T10:09:25Z</time>
      </trkpt>
      <trkpt lat="52.433927021920681" lon="-6.905565960332751">
        <ele>59.740000000000002</ele>
        <time>2026-06-26T10:09:26Z</time>
      </trkpt>
      <trkpt lat="52.434103041887283" lon="-6.905586998909712">
        <ele>60.219999999999999</ele>
        <time>2026-06-26T10:09:27Z</time>
      </trkpt>
      <trkpt lat="52.434283001348376" lon="-6.905620023608208">
        <ele>61.18</ele>
        <time>2026-06-26T10:09:28Z</time>
      </trkpt>
      <trkpt lat="52.436171025037766" lon="-6.906031994149089">
        <ele>65.030000000000001</ele>
        <time>2026-06-26T10:09:38Z</time>
      </trkpt>
      <trkpt lat="52.438118979334831" lon="-6.906466009095311">
        <ele>67.909999999999997</ele>
        <time>2026-06-26T10:09:49Z</time>
      </trkpt>
      <trkpt lat="52.440247982740402" lon="-6.906946040689945">
        <ele>65.030000000000001</ele>
        <time>2026-06-26T10:10:02Z</time>
      </trkpt>
      <trkpt lat="52.440770007669926" lon="-6.907113008201122">
        <ele>65.989999999999995</ele>
        <time>2026-06-26T10:10:08Z</time>
      </trkpt>
      <trkpt lat="52.440847037360072" lon="-6.907147038727999">
        <ele>65.989999999999995</ele>
        <time>2026-06-26T10:10:09Z</time>
      </trkpt>
      <trkpt lat="52.441147025674582" lon="-6.907277964055538">
        <ele>65.030000000000001</ele>
        <time>2026-06-26T10:10:12Z</time>
      </trkpt>
      <trkpt lat="52.441269988194108" lon="-6.90734401345253">
        <ele>64.549999999999997</ele>
        <time>2026-06-26T10:10:13Z</time>
      </trkpt>
      <trkpt lat="52.442317977547646" lon="-6.908169966191053">
        <ele>60.219999999999999</ele>
        <time>2026-06-26T10:10:20Z</time>
      </trkpt>
      <trkpt lat="52.443262031301856" lon="-6.908962978050113">
        <ele>57.340000000000003</ele>
        <time>2026-06-26T10:10:26Z</time>
      </trkpt>
      <trkpt lat="52.443424975499511" lon="-6.909043025225401">
        <ele>57.340000000000003</ele>
        <time>2026-06-26T10:10:27Z</time>
      </trkpt>
      <trkpt lat="52.445047041401267" lon="-6.909739980474114">
        <ele>56.369999999999997</ele>
        <time>2026-06-26T10:10:37Z</time>
      </trkpt>
      <trkpt lat="52.446195026859641" lon="-6.910049021244049">
        <ele>57.340000000000003</ele>
        <time>2026-06-26T10:10:45Z</time>
      </trkpt>
      <trkpt lat="52.447144025936723" lon="-6.910086991265416">
        <ele>61.659999999999997</ele>
        <time>2026-06-26T10:10:51Z</time>
      </trkpt>
      <trkpt lat="52.448483034968376" lon="-6.910615973174572">
        <ele>66.469999999999999</ele>
        <time>2026-06-26T10:10:59Z</time>
      </trkpt>
      <trkpt lat="52.450079033151269" lon="-6.911292979493737">
        <ele>72.719999999999999</ele>
        <time>2026-06-26T10:11:09Z</time>
      </trkpt>
      <trkpt lat="52.451634965837002" lon="-6.911933021619916">
        <ele>74.159999999999997</ele>
        <time>2026-06-26T10:11:19Z</time>
      </trkpt>
      <trkpt lat="52.453797999769449" lon="-6.912684962153435">
        <ele>75.120000000000005</ele>
        <time>2026-06-26T10:11:32Z</time>
      </trkpt>
      <trkpt lat="52.455120999366045" lon="-6.913106990978122">
        <ele>73.200000000000003</ele>
        <time>2026-06-26T10:11:40Z</time>
      </trkpt>
      <trkpt lat="52.456807019189" lon="-6.913665980100632">
        <ele>75.599999999999994</ele>
        <time>2026-06-26T10:11:50Z</time>
      </trkpt>
      <trkpt lat="52.458005966618657" lon="-6.914037968963385">
        <ele>77.519999999999996</ele>
        <time>2026-06-26T10:11:57Z</time>
      </trkpt>
      <trkpt lat="52.459261994808912" lon="-6.913719959557056">
        <ele>75.120000000000005</ele>
        <time>2026-06-26T10:12:04Z</time>
      </trkpt>
      <trkpt lat="52.460681973025203" lon="-6.912740031257272">
        <ele>70.310000000000002</ele>
        <time>2026-06-26T10:12:13Z</time>
      </trkpt>
      <trkpt lat="52.460833014920354" lon="-6.912631988525391">
        <ele>69.829999999999998</ele>
        <time>2026-06-26T10:12:14Z</time>
      </trkpt>
      <trkpt lat="52.461010962724686" lon="-6.912564011290669">
        <ele>69.349999999999994</ele>
        <time>2026-06-26T10:12:15Z</time>
      </trkpt>
      <trkpt lat="52.461173990741372" lon="-6.9125019852072">
        <ele>69.349999999999994</ele>
        <time>2026-06-26T10:12:16Z</time>
      </trkpt>
      <trkpt lat="52.461336012929678" lon="-6.912439959123731">
        <ele>68.870000000000005</ele>
        <time>2026-06-26T10:12:17Z</time>
      </trkpt>
      <trkpt lat="52.461502980440855" lon="-6.912376005202532">
        <ele>67.909999999999997</ele>
        <time>2026-06-26T10:12:18Z</time>
      </trkpt>
      <trkpt lat="52.461672965437174" lon="-6.912280032411218">
        <ele>66.950000000000003</ele>
        <time>2026-06-26T10:12:19Z</time>
      </trkpt>
      <trkpt lat="52.462324993684888" lon="-6.911845011636615">
        <ele>62.619999999999997</ele>
        <time>2026-06-26T10:12:23Z</time>
      </trkpt>
      <trkpt lat="52.462459020316601" lon="-6.911668991670013">
        <ele>61.659999999999997</ele>
        <time>2026-06-26T10:12:24Z</time>
      </trkpt>
      <trkpt lat="52.463264018297195" lon="-6.910327970981598">
        <ele>59.740000000000002</ele>
        <time>2026-06-26T10:12:31Z</time>
      </trkpt>
      <trkpt lat="52.463941024616361" lon="-6.908863987773657">
        <ele>63.100000000000001</ele>
        <time>2026-06-26T10:12:38Z</time>
      </trkpt>
      <trkpt lat="52.464183010160923" lon="-6.908154962584376">
        <ele>65.510000000000005</ele>
        <time>2026-06-26T10:12:41Z</time>
      </trkpt>
      <trkpt lat="52.464268002659082" lon="-6.907907025888562">
        <ele>65.510000000000005</ele>
        <time>2026-06-26T10:12:42Z</time>
      </trkpt>
      <trkpt lat="52.464622976258397" lon="-6.906863981857896">
        <ele>65.030000000000001</ele>
        <time>2026-06-26T10:12:46Z</time>
      </trkpt>
      <trkpt lat="52.464967975392938" lon="-6.90588396973908">
        <ele>63.579999999999998</ele>
        <time>2026-06-26T10:12:50Z</time>
      </trkpt>
      <trkpt lat="52.465919991955161" lon="-6.90405503846705">
        <ele>58.299999999999997</ele>
        <time>2026-06-26T10:12:58Z</time>
      </trkpt>
      <trkpt lat="52.466461965814233" lon="-6.902947034686804">
        <ele>53.009999999999998</ele>
        <time>2026-06-26T10:13:03Z</time>
      </trkpt>
      <trkpt lat="52.46652097441256" lon="-6.902711000293493">
        <ele>52.049999999999997</ele>
        <time>2026-06-26T10:13:04Z</time>
      </trkpt>
      <trkpt lat="52.466552993282676" lon="-6.902483012527227">
        <ele>51.090000000000003</ele>
        <time>2026-06-26T10:13:05Z</time>
      </trkpt>
      <trkpt lat="52.46658400632441" lon="-6.902251001447439">
        <ele>50.130000000000003</ele>
        <time>2026-06-26T10:13:06Z</time>
      </trkpt>
      <trkpt lat="52.46658400632441" lon="-6.902005998417735">
        <ele>49.649999999999999</ele>
        <time>2026-06-26T10:13:07Z</time>
      </trkpt>
      <trkpt lat="52.466578977182508" lon="-6.901753032580018">
        <ele>48.68</ele>
        <time>2026-06-26T10:13:08Z</time>
      </trkpt>
      <trkpt lat="52.466559028252959" lon="-6.901503000408411">
        <ele>47.719999999999999</ele>
        <time>2026-06-26T10:13:09Z</time>
      </trkpt>
      <trkpt lat="52.46654000133276" lon="-6.901261014863849">
        <ele>46.759999999999998</ele>
        <time>2026-06-26T10:13:10Z</time>
      </trkpt>
      <trkpt lat="52.466521980240941" lon="-6.901034032925963">
        <ele>45.32</ele>
        <time>2026-06-26T10:13:11Z</time>
      </trkpt>
      <trkpt lat="52.46647696942091" lon="-6.900573028251529">
        <ele>43.399999999999999</ele>
        <time>2026-06-26T10:13:14Z</time>
      </trkpt>
      <trkpt lat="52.466501025483012" lon="-6.900474037975073">
        <ele>42.439999999999998</ele>
        <time>2026-06-26T10:13:15Z</time>
      </trkpt>
      <trkpt lat="52.46651996858418" lon="-6.900398014113307">
        <ele>41.950000000000003</ele>
        <time>2026-06-26T10:13:16Z</time>
      </trkpt>
      <trkpt lat="52.466535978019238" lon="-6.900334982201457">
        <ele>41.469999999999999</ele>
        <time>2026-06-26T10:13:17Z</time>
      </trkpt>
      <trkpt lat="52.466547964140773" lon="-6.900287037715316">
        <ele>40.509999999999998</ele>
        <time>2026-06-26T10:13:18Z</time>
      </trkpt>
      <trkpt lat="52.466791039332747" lon="-6.900110011920333">
        <ele>38.109999999999999</ele>
        <time>2026-06-26T10:13:26Z</time>
      </trkpt>
      <trkpt lat="52.466835966333747" lon="-6.900140019133687">
        <ele>38.109999999999999</ele>
        <time>2026-06-26T10:13:27Z</time>
      </trkpt>
      <trkpt lat="52.466888017952442" lon="-6.900174971669912">
        <ele>38.590000000000003</ele>
        <time>2026-06-26T10:13:28Z</time>
      </trkpt>
      <trkpt lat="52.466936968266964" lon="-6.900246972218156">
        <ele>38.590000000000003</ele>
        <time>2026-06-26T10:13:29Z</time>
      </trkpt>
      <trkpt lat="52.466980973258615" lon="-6.900332970544696">
        <ele>39.07</ele>
        <time>2026-06-26T10:13:30Z</time>
      </trkpt>
      <trkpt lat="52.467031013220549" lon="-6.900431960821152">
        <ele>39.549999999999997</ele>
        <time>2026-06-26T10:13:31Z</time>
      </trkpt>
      <trkpt lat="52.467085998505354" lon="-6.900538997724652">
        <ele>40.030000000000001</ele>
        <time>2026-06-26T10:13:32Z</time>
      </trkpt>
      <trkpt lat="52.467148024588823" lon="-6.900660032406449">
        <ele>40.030000000000001</ele>
        <time>2026-06-26T10:13:33Z</time>
      </trkpt>
      <trkpt lat="52.467220025137067" lon="-6.900801016017795">
        <ele>40.030000000000001</ele>
        <time>2026-06-26T10:13:34Z</time>
      </trkpt>
      <trkpt lat="52.467305017635226" lon="-6.900967983528972">
        <ele>39.549999999999997</ele>
        <time>2026-06-26T10:13:35Z</time>
      </trkpt>
      <trkpt lat="52.467403002083302" lon="-6.901160012930632">
        <ele>40.030000000000001</ele>
        <time>2026-06-26T10:13:36Z</time>
      </trkpt>
      <trkpt lat="52.46750702150166" lon="-6.901367967948318">
        <ele>40.990000000000002</ele>
        <time>2026-06-26T10:13:37Z</time>
      </trkpt>
      <trkpt lat="52.467806003987789" lon="-6.901936009526253">
        <ele>44.359999999999999</ele>
        <time>2026-06-26T10:13:40Z</time>
      </trkpt>
      <trkpt lat="52.467904994264245" lon="-6.902065007016063">
        <ele>45.799999999999997</ele>
        <time>2026-06-26T10:13:41Z</time>
      </trkpt>
      <trkpt lat="52.46797900646925" lon="-6.902160979807377">
        <ele>47.719999999999999</ele>
        <time>2026-06-26T10:13:42Z</time>
      </trkpt>
      <trkpt lat="52.468056036159396" lon="-6.902180006727576">
        <ele>49.649999999999999</ele>
        <time>2026-06-26T10:13:43Z</time>
      </trkpt>
      <trkpt lat="52.468140022829175" lon="-6.902200961485505">
        <ele>52.049999999999997</ele>
        <time>2026-06-26T10:13:44Z</time>
      </trkpt>
      <trkpt lat="52.468235995620489" lon="-6.902225017547607">
        <ele>54.450000000000003</ele>
        <time>2026-06-26T10:13:45Z</time>
      </trkpt>
      <trkpt lat="52.468338003382087" lon="-6.902171038091183">
        <ele>56.369999999999997</ele>
        <time>2026-06-26T10:13:46Z</time>
      </trkpt>
      <trkpt lat="52.468462977558374" lon="-6.90210297703743">
        <ele>58.780000000000001</ele>
        <time>2026-06-26T10:13:47Z</time>
      </trkpt>
      <trkpt lat="52.46858200058341" lon="-6.902008010074496">
        <ele>60.700000000000003</ele>
        <time>2026-06-26T10:13:48Z</time>
      </trkpt>
      <trkpt lat="52.46868995949626" lon="-6.901899967342615">
        <ele>63.100000000000001</ele>
        <time>2026-06-26T10:13:49Z</time>
      </trkpt>
      <trkpt lat="52.468792973086238" lon="-6.901797037571669">
        <ele>65.030000000000001</ele>
        <time>2026-06-26T10:13:50Z</time>
      </trkpt>
      <trkpt lat="52.468890035524964" lon="-6.901692012324929">
        <ele>67.430000000000007</ele>
        <time>2026-06-26T10:13:51Z</time>
      </trkpt>
      <trkpt lat="52.468979973345995" lon="-6.901593022048473">
        <ele>69.349999999999994</ele>
        <time>2026-06-26T10:13:52Z</time>
      </trkpt>
      <trkpt lat="52.469066977500916" lon="-6.901495959609747">
        <ele>70.790000000000006</ele>
        <time>2026-06-26T10:13:53Z</time>
      </trkpt>
      <trkpt lat="52.469148030504584" lon="-6.901406021788716">
        <ele>71.760000000000005</ele>
        <time>2026-06-26T10:13:54Z</time>
      </trkpt>
      <trkpt lat="52.469228999689221" lon="-6.901316000148654">
        <ele>72.239999999999995</ele>
        <time>2026-06-26T10:13:55Z</time>
      </trkpt>
      <trkpt lat="52.469396973028779" lon="-6.901131011545658">
        <ele>71.760000000000005</ele>
        <time>2026-06-26T10:13:57Z</time>
      </trkpt>
      <trkpt lat="52.469867030158639" lon="-6.900272034108639">
        <ele>75.599999999999994</ele>
        <time>2026-06-26T10:14:07Z</time>
      </trkpt>
      <trkpt lat="52.469960991293192" lon="-6.900215037167072">
        <ele>75.120000000000005</ele>
        <time>2026-06-26T10:14:08Z</time>
      </trkpt>
      <trkpt lat="52.470036009326577" lon="-6.90016801469028">
        <ele>74.159999999999997</ele>
        <time>2026-06-26T10:14:09Z</time>
      </trkpt>
      <trkpt lat="52.470108009874821" lon="-6.900124009698629">
        <ele>73.200000000000003</ele>
        <time>2026-06-26T10:14:10Z</time>
      </trkpt>
      <trkpt lat="52.470175987109542" lon="-6.900100959464908">
        <ele>73.200000000000003</ele>
        <time>2026-06-26T10:14:11Z</time>
      </trkpt>
      <trkpt lat="52.470761965960264" lon="-6.900134989991784">
        <ele>71.269999999999996</ele>
        <time>2026-06-26T10:14:18Z</time>
      </trkpt>
      <trkpt lat="52.470850981771946" lon="-6.900155022740364">
        <ele>70.790000000000006</ele>
        <time>2026-06-26T10:14:19Z</time>
      </trkpt>
      <trkpt lat="52.470932034775615" lon="-6.900204978883266">
        <ele>70.310000000000002</ele>
        <time>2026-06-26T10:14:20Z</time>
      </trkpt>
      <trkpt lat="52.471704008057714" lon="-6.900776037946343">
        <ele>68.870000000000005</ele>
        <time>2026-06-26T10:14:29Z</time>
      </trkpt>
      <trkpt lat="52.472179010510445" lon="-6.901010982692242">
        <ele>67.909999999999997</ele>
        <time>2026-06-26T10:14:34Z</time>
      </trkpt>
      <trkpt lat="52.472478998824954" lon="-6.901086000725627">
        <ele>66.950000000000003</ele>
        <time>2026-06-26T10:14:36Z</time>
      </trkpt>
      <trkpt lat="52.472646972164512" lon="-6.901010982692242">
        <ele>66.950000000000003</ele>
        <time>2026-06-26T10:14:37Z</time>
      </trkpt>
      <trkpt lat="52.472801031544805" lon="-6.900937976315618">
        <ele>67.430000000000007</ele>
        <time>2026-06-26T10:14:38Z</time>
      </trkpt>
      <trkpt lat="52.472945032641292" lon="-6.900851977989078">
        <ele>67.909999999999997</ele>
        <time>2026-06-26T10:14:39Z</time>
      </trkpt>
      <trkpt lat="52.473090961575508" lon="-6.900731027126312">
        <ele>67.909999999999997</ele>
        <time>2026-06-26T10:14:40Z</time>
      </trkpt>
      <trkpt lat="52.47324401512742" lon="-6.900605969130993">
        <ele>68.870000000000005</ele>
        <time>2026-06-26T10:14:41Z</time>
      </trkpt>
      <trkpt lat="52.474552011117339" lon="-6.899539036676288">
        <ele>74.640000000000001</ele>
        <time>2026-06-26T10:14:50Z</time>
      </trkpt>
      <trkpt lat="52.474784022197127" lon="-6.89935396425426">
        <ele>75.120000000000005</ele>
        <time>2026-06-26T10:14:52Z</time>
      </trkpt>
      <trkpt lat="52.47489701025188" lon="-6.899264026433229">
        <ele>75.120000000000005</ele>
        <time>2026-06-26T10:14:53Z</time>
      </trkpt>
      <trkpt lat="52.476211963221431" lon="-6.898283008486033">
        <ele>73.680000000000007</ele>
        <time>2026-06-26T10:15:04Z</time>
      </trkpt>
      <trkpt lat="52.477471008896828" lon="-6.897507011890411">
        <ele>74.159999999999997</ele>
        <time>2026-06-26T10:15:12Z</time>
      </trkpt>
      <trkpt lat="52.479373030364513" lon="-6.896647028625011">
        <ele>80.409999999999997</ele>
        <time>2026-06-26T10:15:23Z</time>
      </trkpt>
      <trkpt lat="52.479536980390549" lon="-6.896672006696463">
        <ele>80.890000000000001</ele>
        <time>2026-06-26T10:15:24Z</time>
      </trkpt>
      <trkpt lat="52.481153011322021" lon="-6.896908041089773">
        <ele>81.370000000000005</ele>
        <time>2026-06-26T10:15:32Z</time>
      </trkpt>
      <trkpt lat="52.483198028057814" lon="-6.89698901027441">
        <ele>78.480000000000004</ele>
        <time>2026-06-26T10:15:42Z</time>
      </trkpt>
      <trkpt lat="52.485269028693438" lon="-6.896920027211309">
        <ele>73.680000000000007</ele>
        <time>2026-06-26T10:15:53Z</time>
      </trkpt>
      <trkpt lat="52.4870599899441" lon="-6.896740989759564">
        <ele>78.969999999999999</ele>
        <time>2026-06-26T10:16:03Z</time>
      </trkpt>
      <trkpt lat="52.487717969343066" lon="-6.896706959232688">
        <ele>82.810000000000002</ele>
        <time>2026-06-26T10:16:07Z</time>
      </trkpt>
      <trkpt lat="52.487870017066598" lon="-6.89677401445806">
        <ele>83.290000000000006</ele>
        <time>2026-06-26T10:16:08Z</time>
      </trkpt>
      <trkpt lat="52.488022986799479" lon="-6.896863030269742">
        <ele>83.769999999999996</ele>
        <time>2026-06-26T10:16:09Z</time>
      </trkpt>
      <trkpt lat="52.488179979845881" lon="-6.896971995010972">
        <ele>84.25</ele>
        <time>2026-06-26T10:16:10Z</time>
      </trkpt>
      <trkpt lat="52.488334961235523" lon="-6.897109961137176">
        <ele>84.25</ele>
        <time>2026-06-26T10:16:11Z</time>
      </trkpt>
      <trkpt lat="52.489291001111269" lon="-6.897888975217938">
        <ele>84.25</ele>
        <time>2026-06-26T10:16:17Z</time>
      </trkpt>
      <trkpt lat="52.489469032734632" lon="-6.897960975766182">
        <ele>84.25</ele>
        <time>2026-06-26T10:16:18Z</time>
      </trkpt>
      <trkpt lat="52.489646980538964" lon="-6.898032976314426">
        <ele>83.769999999999996</ele>
        <time>2026-06-26T10:16:19Z</time>
      </trkpt>
      <trkpt lat="52.490936033427715" lon="-6.898683998733759">
        <ele>80.409999999999997</ele>
        <time>2026-06-26T10:16:26Z</time>
      </trkpt>
      <trkpt lat="52.492355005815625" lon="-6.899564014747739">
        <ele>76.560000000000002</ele>
        <time>2026-06-26T10:16:35Z</time>
      </trkpt>
      <trkpt lat="52.493703989312053" lon="-6.899759983643889">
        <ele>73.680000000000007</ele>
        <time>2026-06-26T10:16:42Z</time>
      </trkpt>
      <trkpt lat="52.495047021657228" lon="-6.900030970573425">
        <ele>69.349999999999994</ele>
        <time>2026-06-26T10:16:49Z</time>
      </trkpt>
      <trkpt lat="52.495193034410477" lon="-6.900145970284939">
        <ele>69.349999999999994</ele>
        <time>2026-06-26T10:16:50Z</time>
      </trkpt>
      <trkpt lat="52.495332006365061" lon="-6.900256024673581">
        <ele>68.870000000000005</ele>
        <time>2026-06-26T10:16:51Z</time>
      </trkpt>
      <trkpt lat="52.495454968884587" lon="-6.900417963042855">
        <ele>68.390000000000001</ele>
        <time>2026-06-26T10:16:52Z</time>
      </trkpt>
      <trkpt lat="52.49556896276772" lon="-6.900604963302612">
        <ele>67.430000000000007</ele>
        <time>2026-06-26T10:16:53Z</time>
      </trkpt>
      <trkpt lat="52.495684968307614" lon="-6.900796992704272">
        <ele>66.950000000000003</ele>
        <time>2026-06-26T10:16:54Z</time>
      </trkpt>
      <trkpt lat="52.496907971799374" lon="-6.902899006381631">
        <ele>58.299999999999997</ele>
        <time>2026-06-26T10:17:04Z</time>
      </trkpt>
      <trkpt lat="52.497466960921884" lon="-6.903897039592266">
        <ele>53.969999999999999</ele>
        <time>2026-06-26T10:17:09Z</time>
      </trkpt>
      <trkpt lat="52.497534016147256" lon="-6.904070964083076">
        <ele>53.009999999999998</ele>
        <time>2026-06-26T10:17:10Z</time>
      </trkpt>
      <trkpt lat="52.497730990871787" lon="-6.904582008719444">
        <ele>48.68</ele>
        <time>2026-06-26T10:17:13Z</time>
      </trkpt>
      <trkpt lat="52.497821012511849" lon="-6.90470396541059">
        <ele>47.719999999999999</ele>
        <time>2026-06-26T10:17:14Z</time>
      </trkpt>
      <trkpt lat="52.497938023880124" lon="-6.904778983443975">
        <ele>46.759999999999998</ele>
        <time>2026-06-26T10:17:15Z</time>
      </trkpt>
      <trkpt lat="52.498634979128838" lon="-6.905304025858641">
        <ele>42.920000000000002</ele>
        <time>2026-06-26T10:17:20Z</time>
      </trkpt>
      <trkpt lat="52.498775040730834" lon="-6.905464036390185">
        <ele>42.439999999999998</ele>
        <time>2026-06-26T10:17:21Z</time>
      </trkpt>
      <trkpt lat="52.499637035652995" lon="-6.906412029638887">
        <ele>40.030000000000001</ele>
        <time>2026-06-26T10:17:27Z</time>
      </trkpt>
      <trkpt lat="52.499797968193889" lon="-6.906512025743723">
        <ele>39.07</ele>
        <time>2026-06-26T10:17:28Z</time>
      </trkpt>
      <trkpt lat="52.500717965885997" lon="-6.906913015991449">
        <ele>37.630000000000003</ele>
        <time>2026-06-26T10:17:34Z</time>
      </trkpt>
      <trkpt lat="52.500856015831232" lon="-6.906884014606476">
        <ele>37.149999999999999</ele>
        <time>2026-06-26T10:17:35Z</time>
      </trkpt>
      <trkpt lat="52.500991970300674" lon="-6.906782006844878">
        <ele>37.149999999999999</ele>
        <time>2026-06-26T10:17:36Z</time>
      </trkpt>
      <trkpt lat="52.501115016639233" lon="-6.906632976606488">
        <ele>37.149999999999999</ele>
        <time>2026-06-26T10:17:37Z</time>
      </trkpt>
      <trkpt lat="52.501246025785804" lon="-6.906469026580453">
        <ele>37.149999999999999</ele>
        <time>2026-06-26T10:17:38Z</time>
      </trkpt>
      <trkpt lat="52.501523969694972" lon="-6.906155040487647">
        <ele>37.630000000000003</ele>
        <time>2026-06-26T10:17:40Z</time>
      </trkpt>
      <trkpt lat="52.501674005761743" lon="-6.906052026897669">
        <ele>37.630000000000003</ele>
        <time>2026-06-26T10:17:41Z</time>
      </trkpt>
      <trkpt lat="52.501820018514991" lon="-6.90601296722889">
        <ele>37.149999999999999</ele>
        <time>2026-06-26T10:17:42Z</time>
      </trkpt>
      <trkpt lat="52.501958990469575" lon="-6.906044986099005">
        <ele>37.149999999999999</ele>
        <time>2026-06-26T10:17:43Z</time>
      </trkpt>
      <trkpt lat="52.502087987959385" lon="-6.906101983040571">
        <ele>37.149999999999999</ele>
        <time>2026-06-26T10:17:44Z</time>
      </trkpt>
      <trkpt lat="52.502209022641182" lon="-6.906155040487647">
        <ele>37.630000000000003</ele>
        <time>2026-06-26T10:17:45Z</time>
      </trkpt>
      <trkpt lat="52.502318993210793" lon="-6.906202984973788">
        <ele>37.630000000000003</ele>
        <time>2026-06-26T10:17:46Z</time>
      </trkpt>
      <trkpt lat="52.50242100097239" lon="-6.906237015500665">
        <ele>38.109999999999999</ele>
        <time>2026-06-26T10:17:47Z</time>
      </trkpt>
      <trkpt lat="52.502519991248846" lon="-6.906231986358762">
        <ele>39.07</ele>
        <time>2026-06-26T10:17:48Z</time>
      </trkpt>
      <trkpt lat="52.503006979823112" lon="-6.906093014404178">
        <ele>42.920000000000002</ele>
        <time>2026-06-26T10:17:53Z</time>
      </trkpt>
      <trkpt lat="52.503093983978033" lon="-6.906032999977469">
        <ele>43.399999999999999</ele>
        <time>2026-06-26T10:17:54Z</time>
      </trkpt>
      <trkpt lat="52.503158021718264" lon="-6.905990000814199">
        <ele>44.359999999999999</ele>
        <time>2026-06-26T10:17:55Z</time>
      </trkpt>
      <trkpt lat="52.503199009224772" lon="-6.905962005257607">
        <ele>44.840000000000003</ele>
        <time>2026-06-26T10:17:56Z</time>
      </trkpt>
      <trkpt lat="52.503325995057821" lon="-6.906062001362443">
        <ele>44.840000000000003</ele>
        <time>2026-06-26T10:17:57Z</time>
      </trkpt>
      <trkpt lat="52.503337981179357" lon="-6.906136013567448">
        <ele>45.799999999999997</ele>
        <time>2026-06-26T10:17:58Z</time>
      </trkpt>
      <trkpt lat="52.503353990614414" lon="-6.906230980530381">
        <ele>46.280000000000001</ele>
        <time>2026-06-26T10:17:59Z</time>
      </trkpt>
      <trkpt lat="52.503372011706233" lon="-6.906337011605501">
        <ele>46.759999999999998</ele>
        <time>2026-06-26T10:18:00Z</time>
      </trkpt>
      <trkpt lat="52.503429008647799" lon="-6.906684022396803">
        <ele>48.68</ele>
        <time>2026-06-26T10:18:03Z</time>
      </trkpt>
      <trkpt lat="52.50345197506249" lon="-6.906819976866245">
        <ele>49.159999999999997</ele>
        <time>2026-06-26T10:18:04Z</time>
      </trkpt>
      <trkpt lat="52.503505032509565" lon="-6.907133962959051">
        <ele>50.609999999999999</ele>
        <time>2026-06-26T10:18:06Z</time>
      </trkpt>
      <trkpt lat="52.503532022237778" lon="-6.907296990975738">
        <ele>51.57</ele>
        <time>2026-06-26T10:18:07Z</time>
      </trkpt>
      <trkpt lat="52.503825975582004" lon="-6.909177973866463">
        <ele>53.009999999999998</ele>
        <time>2026-06-26T10:18:18Z</time>
      </trkpt>
      <trkpt lat="52.504251021891832" lon="-6.910912021994591">
        <ele>56.369999999999997</ele>
        <time>2026-06-26T10:18:27Z</time>
      </trkpt>
      <trkpt lat="52.50426703132689" lon="-6.911130035296083">
        <ele>57.340000000000003</ele>
        <time>2026-06-26T10:18:28Z</time>
      </trkpt>
      <trkpt lat="52.504283040761948" lon="-6.911356011405587">
        <ele>57.82</ele>
        <time>2026-06-26T10:18:29Z</time>
      </trkpt>
      <trkpt lat="52.504343977198005" lon="-6.912192022427917">
        <ele>61.18</ele>
        <time>2026-06-26T10:18:33Z</time>
      </trkpt>
      <trkpt lat="52.504378007724881" lon="-6.912382962182164">
        <ele>62.140000000000001</ele>
        <time>2026-06-26T10:18:34Z</time>
      </trkpt>
      <trkpt lat="52.504426036030054" lon="-6.912573985755444">
        <ele>62.619999999999997</ele>
        <time>2026-06-26T10:18:35Z</time>
      </trkpt>
      <trkpt lat="52.504496024921536" lon="-6.912767020985484">
        <ele>63.100000000000001</ele>
        <time>2026-06-26T10:18:36Z</time>
      </trkpt>
      <trkpt lat="52.504586968570948" lon="-6.9129319768399">
        <ele>63.100000000000001</ele>
        <time>2026-06-26T10:18:37Z</time>
      </trkpt>
      <trkpt lat="52.504681013524532" lon="-6.913101961836219">
        <ele>63.100000000000001</ele>
        <time>2026-06-26T10:18:38Z</time>
      </trkpt>
      <trkpt lat="52.505758004263043" lon="-6.91514203324914">
        <ele>68.870000000000005</ele>
        <time>2026-06-26T10:18:49Z</time>
      </trkpt>
      <trkpt lat="52.506054975092411" lon="-6.915867989882827">
        <ele>73.200000000000003</ele>
        <time>2026-06-26T10:18:53Z</time>
      </trkpt>
      <trkpt lat="52.506091017276049" lon="-6.916069993749261">
        <ele>74.159999999999997</ele>
        <time>2026-06-26T10:18:54Z</time>
      </trkpt>
      <trkpt lat="52.50635496340692" lon="-6.917555015534163">
        <ele>79.930000000000007</ele>
        <time>2026-06-26T10:19:01Z</time>
      </trkpt>
      <trkpt lat="52.506393017247319" lon="-6.917749978601933">
        <ele>80.409999999999997</ele>
        <time>2026-06-26T10:19:02Z</time>
      </trkpt>
      <trkpt lat="52.506469041109085" lon="-6.91791501827538">
        <ele>80.890000000000001</ele>
        <time>2026-06-26T10:19:03Z</time>
      </trkpt>
      <trkpt lat="52.506968015804887" lon="-6.91898999735713">
        <ele>82.810000000000002</ele>
        <time>2026-06-26T10:19:09Z</time>
      </trkpt>
      <trkpt lat="52.507047979161143" lon="-6.91916199401021">
        <ele>83.290000000000006</ele>
        <time>2026-06-26T10:19:10Z</time>
      </trkpt>
      <trkpt lat="52.507157027721405" lon="-6.919287974014878">
        <ele>83.290000000000006</ele>
        <time>2026-06-26T10:19:11Z</time>
      </trkpt>
      <trkpt lat="52.507266998291016" lon="-6.919379001483321">
        <ele>83.769999999999996</ele>
        <time>2026-06-26T10:19:12Z</time>
      </trkpt>
      <trkpt lat="52.507381998002529" lon="-6.919474974274635">
        <ele>83.769999999999996</ele>
        <time>2026-06-26T10:19:13Z</time>
      </trkpt>
      <trkpt lat="52.507973005995154" lon="-6.919901026412845">
        <ele>85.209999999999994</ele>
        <time>2026-06-26T10:19:18Z</time>
      </trkpt>
      <trkpt lat="52.50807099044323" lon="-6.920104958117008">
        <ele>85.209999999999994</ele>
        <time>2026-06-26T10:19:19Z</time>
      </trkpt>
      <trkpt lat="52.508096974343061" lon="-6.920259017497301">
        <ele>84.730000000000004</ele>
        <time>2026-06-26T10:19:20Z</time>
      </trkpt>
      <trkpt lat="52.508123964071274" lon="-6.920411987230182">
        <ele>84.730000000000004</ele>
        <time>2026-06-26T10:19:21Z</time>
      </trkpt>
      <trkpt lat="52.508149025961757" lon="-6.92055799998343">
        <ele>84.730000000000004</ele>
        <time>2026-06-26T10:19:22Z</time>
      </trkpt>
      <trkpt lat="52.508170986548066" lon="-6.920681968331337">
        <ele>84.730000000000004</ele>
        <time>2026-06-26T10:19:23Z</time>
      </trkpt>
      <trkpt lat="52.508223038166761" lon="-6.920983968302608">
        <ele>82.810000000000002</ele>
        <time>2026-06-26T10:19:28Z</time>
      </trkpt>
      <trkpt lat="52.50828699208796" lon="-6.921020010486245">
        <ele>82.810000000000002</ele>
        <time>2026-06-26T10:19:29Z</time>
      </trkpt>
      <trkpt lat="52.508325967937708" lon="-6.921001989394426">
        <ele>82.810000000000002</ele>
        <time>2026-06-26T10:19:30Z</time>
      </trkpt>
      <trkpt lat="52.508383970707655" lon="-6.920976005494595">
        <ele>82.329999999999998</ele>
        <time>2026-06-26T10:19:31Z</time>
      </trkpt>
      <trkpt lat="52.508462006226182" lon="-6.920941974967718">
        <ele>82.329999999999998</ele>
        <time>2026-06-26T10:19:32Z</time>
      </trkpt>
      <trkpt lat="52.508558984845877" lon="-6.920898975804448">
        <ele>82.329999999999998</ele>
        <time>2026-06-26T10:19:33Z</time>
      </trkpt>
      <trkpt lat="52.508669961243868" lon="-6.920850025489926">
        <ele>82.810000000000002</ele>
        <time>2026-06-26T10:19:34Z</time>
      </trkpt>
      <trkpt lat="52.508813040331006" lon="-6.920785987749696">
        <ele>82.810000000000002</ele>
        <time>2026-06-26T10:19:35Z</time>
      </trkpt>
      <trkpt lat="52.508942959830165" lon="-6.920785987749696">
        <ele>83.290000000000006</ele>
        <time>2026-06-26T10:19:36Z</time>
      </trkpt>
      <trkpt lat="52.509096013382077" lon="-6.920785987749696">
        <ele>83.290000000000006</ele>
        <time>2026-06-26T10:19:37Z</time>
      </trkpt>
      <trkpt lat="52.510126987472177" lon="-6.92109502851963">
        <ele>82.329999999999998</ele>
        <time>2026-06-26T10:19:44Z</time>
      </trkpt>
      <trkpt lat="52.510845987126231" lon="-6.921314969658852">
        <ele>82.810000000000002</ele>
        <time>2026-06-26T10:19:51Z</time>
      </trkpt>
      <trkpt lat="52.510951012372971" lon="-6.921346988528967">
        <ele>83.769999999999996</ele>
        <time>2026-06-26T10:19:52Z</time>
      </trkpt>
      <trkpt lat="52.511059977114201" lon="-6.921380013227463">
        <ele>84.25</ele>
        <time>2026-06-26T10:19:53Z</time>
      </trkpt>
      <trkpt lat="52.511270027607679" lon="-6.921523008495569">
        <ele>86.180000000000007</ele>
        <time>2026-06-26T10:19:55Z</time>
      </trkpt>
      <trkpt lat="52.511372035369277" lon="-6.921621998772025">
        <ele>87.140000000000001</ele>
        <time>2026-06-26T10:19:56Z</time>
      </trkpt>
      <trkpt lat="52.512525971978903" lon="-6.922389026731253">
        <ele>84.730000000000004</ele>
        <time>2026-06-26T10:20:05Z</time>
      </trkpt>
      <trkpt lat="52.514373008161783" lon="-6.923145996406674">
        <ele>76.079999999999998</ele>
        <time>2026-06-26T10:20:17Z</time>
      </trkpt>
      <trkpt lat="52.515963977202773" lon="-6.923687970265746">
        <ele>73.680000000000007</ele>
        <time>2026-06-26T10:20:27Z</time>
      </trkpt>
      <trkpt lat="52.51726602204144" lon="-6.92427596077323">
        <ele>73.200000000000003</ele>
        <time>2026-06-26T10:20:36Z</time>
      </trkpt>
      <trkpt lat="52.518697986379266" lon="-6.925040977075696">
        <ele>75.120000000000005</ele>
        <time>2026-06-26T10:20:47Z</time>
      </trkpt>
      <trkpt lat="52.518821032717824" lon="-6.925025973469019">
        <ele>75.599999999999994</ele>
        <time>2026-06-26T10:20:48Z</time>
      </trkpt>
      <trkpt lat="52.518931003287435" lon="-6.924990015104413">
        <ele>75.599999999999994</ele>
        <time>2026-06-26T10:20:49Z</time>
      </trkpt>
      <trkpt lat="52.519226968288422" lon="-6.924894964322448">
        <ele>76.560000000000002</ele>
        <time>2026-06-26T10:20:52Z</time>
      </trkpt>
      <trkpt lat="52.519322019070387" lon="-6.924991020932794">
        <ele>76.560000000000002</ele>
        <time>2026-06-26T10:20:53Z</time>
      </trkpt>
      <trkpt lat="52.519319001585245" lon="-6.925074001774192">
        <ele>77.040000000000006</ele>
        <time>2026-06-26T10:20:54Z</time>
      </trkpt>
      <trkpt lat="52.519314978271723" lon="-6.925184978172183">
        <ele>77.040000000000006</ele>
        <time>2026-06-26T10:20:55Z</time>
      </trkpt>
      <trkpt lat="52.519310032948852" lon="-6.925311964005232">
        <ele>77.519999999999996</ele>
        <time>2026-06-26T10:20:56Z</time>
      </trkpt>
      <trkpt lat="52.519305003806949" lon="-6.925454959273338">
        <ele>77.519999999999996</ele>
        <time>2026-06-26T10:20:57Z</time>
      </trkpt>
      <trkpt lat="52.519254041835666" lon="-6.926847025752068">
        <ele>80.409999999999997</ele>
        <time>2026-06-26T10:21:04Z</time>
      </trkpt>
      <trkpt lat="52.519288994371891" lon="-6.927618999034166">
        <ele>78.969999999999999</ele>
        <time>2026-06-26T10:21:08Z</time>
      </trkpt>
      <trkpt lat="52.519322019070387" lon="-6.927780015394092">
        <ele>78.480000000000004</ele>
        <time>2026-06-26T10:21:09Z</time>
      </trkpt>
      <trkpt lat="52.51939401961863" lon="-6.927870959043503">
        <ele>78</ele>
        <time>2026-06-26T10:21:10Z</time>
      </trkpt>
      <trkpt lat="52.519477000460029" lon="-6.927973972633481">
        <ele>77.519999999999996</ele>
        <time>2026-06-26T10:21:11Z</time>
      </trkpt>
      <trkpt lat="52.5195889826864" lon="-6.928001968190074">
        <ele>77.040000000000006</ele>
        <time>2026-06-26T10:21:12Z</time>
      </trkpt>
      <trkpt lat="52.519712029024959" lon="-6.928032981231809">
        <ele>77.040000000000006</ele>
        <time>2026-06-26T10:21:13Z</time>
      </trkpt>
      <trkpt lat="52.520129028707743" lon="-6.928095007315278">
        <ele>75.599999999999994</ele>
        <time>2026-06-26T10:21:16Z</time>
      </trkpt>
      <trkpt lat="52.520277975127101" lon="-6.928086038678885">
        <ele>75.120000000000005</ele>
        <time>2026-06-26T10:21:17Z</time>
      </trkpt>
      <trkpt lat="52.520429017022252" lon="-6.928076986223459">
        <ele>74.640000000000001</ele>
        <time>2026-06-26T10:21:18Z</time>
      </trkpt>
      <trkpt lat="52.520700003951788" lon="-6.928059970960021">
        <ele>73.680000000000007</ele>
        <time>2026-06-26T10:21:20Z</time>
      </trkpt>
      <trkpt lat="52.520839981734753" lon="-6.928096013143659">
        <ele>73.200000000000003</ele>
        <time>2026-06-26T10:21:21Z</time>
      </trkpt>
      <trkpt lat="52.521131001412868" lon="-6.928170025348663">
        <ele>72.719999999999999</ele>
        <time>2026-06-26T10:21:23Z</time>
      </trkpt>
      <trkpt lat="52.521290006116033" lon="-6.928211012855172">
        <ele>71.760000000000005</ele>
        <time>2026-06-26T10:21:24Z</time>
      </trkpt>
      <trkpt lat="52.5214540399611" lon="-6.928253006190062">
        <ele>71.269999999999996</ele>
        <time>2026-06-26T10:21:25Z</time>
      </trkpt>
      <trkpt lat="52.521615978330374" lon="-6.92829399369657">
        <ele>70.790000000000006</ele>
        <time>2026-06-26T10:21:26Z</time>
      </trkpt>
      <trkpt lat="52.521772971376777" lon="-6.928358031436801">
        <ele>69.829999999999998</ele>
        <time>2026-06-26T10:21:27Z</time>
      </trkpt>
      <trkpt lat="52.52192996442318" lon="-6.928457021713257">
        <ele>68.870000000000005</ele>
        <time>2026-06-26T10:21:28Z</time>
      </trkpt>
      <trkpt lat="52.522087041288614" lon="-6.928556011989713">
        <ele>67.909999999999997</ele>
        <time>2026-06-26T10:21:29Z</time>
      </trkpt>
      <trkpt lat="52.52328397706151" lon="-6.929312981665134">
        <ele>62.619999999999997</ele>
        <time>2026-06-26T10:21:37Z</time>
      </trkpt>
      <trkpt lat="52.524019991979003" lon="-6.929930979385972">
        <ele>63.100000000000001</ele>
        <time>2026-06-26T10:21:43Z</time>
      </trkpt>
      <trkpt lat="52.524140020832419" lon="-6.930074980482459">
        <ele>62.619999999999997</ele>
        <time>2026-06-26T10:21:44Z</time>
      </trkpt>
      <trkpt lat="52.524962034076452" lon="-6.931060021743178">
        <ele>64.069999999999993</ele>
        <time>2026-06-26T10:21:51Z</time>
      </trkpt>
      <trkpt lat="52.525586988776922" lon="-6.931770974770188">
        <ele>62.140000000000001</ele>
        <time>2026-06-26T10:21:56Z</time>
      </trkpt>
      <trkpt lat="52.526524001732469" lon="-6.932665994390845">
        <ele>65.030000000000001</ele>
        <time>2026-06-26T10:22:03Z</time>
      </trkpt>
      <trkpt lat="52.526674959808588" lon="-6.932715028524399">
        <ele>64.549999999999997</ele>
        <time>2026-06-26T10:22:04Z</time>
      </trkpt>
      <trkpt lat="52.526829019188881" lon="-6.932742018252611">
        <ele>64.069999999999993</ele>
        <time>2026-06-26T10:22:05Z</time>
      </trkpt>
      <trkpt lat="52.527125990018249" lon="-6.932792980223894">
        <ele>63.579999999999998</ele>
        <time>2026-06-26T10:22:07Z</time>
      </trkpt>
      <trkpt lat="52.527546007186174" lon="-6.932864980772138">
        <ele>62.619999999999997</ele>
        <time>2026-06-26T10:22:10Z</time>
      </trkpt>
      <trkpt lat="52.527682967483997" lon="-6.932888031005859">
        <ele>62.140000000000001</ele>
        <time>2026-06-26T10:22:11Z</time>
      </trkpt>
      <trkpt lat="52.527821017429233" lon="-6.93291200324893">
        <ele>61.659999999999997</ele>
        <time>2026-06-26T10:22:12Z</time>
      </trkpt>
      <trkpt lat="52.528081024065614" lon="-6.933017028495669">
        <ele>60.700000000000003</ele>
        <time>2026-06-26T10:22:14Z</time>
      </trkpt>
      <trkpt lat="52.528204992413521" lon="-6.933087017387152">
        <ele>59.740000000000002</ele>
        <time>2026-06-26T10:22:15Z</time>
      </trkpt>
      <trkpt lat="52.52830901183188" lon="-6.933218026533723">
        <ele>58.780000000000001</ele>
        <time>2026-06-26T10:22:16Z</time>
      </trkpt>
      <trkpt lat="52.528408002108335" lon="-6.93336496129632">
        <ele>57.82</ele>
        <time>2026-06-26T10:22:17Z</time>
      </trkpt>
      <trkpt lat="52.528510009869933" lon="-6.933517009019852">
        <ele>56.859999999999999</ele>
        <time>2026-06-26T10:22:18Z</time>
      </trkpt>
      <trkpt lat="52.528944024816155" lon="-6.934160990640521">
        <ele>52.530000000000001</ele>
        <time>2026-06-26T10:22:22Z</time>
      </trkpt>
      <trkpt lat="52.52902097068727" lon="-6.934353020042181">
        <ele>51.090000000000003</ele>
        <time>2026-06-26T10:22:23Z</time>
      </trkpt>
      <trkpt lat="52.52908400259912" lon="-6.934572961181402">
        <ele>49.649999999999999</ele>
        <time>2026-06-26T10:22:24Z</time>
      </trkpt>
      <trkpt lat="52.529376028105617" lon="-6.93544702604413">
        <ele>44.840000000000003</ele>
        <time>2026-06-26T10:22:28Z</time>
      </trkpt>
      <trkpt lat="52.530028978362679" lon="-6.937021985650063">
        <ele>37.630000000000003</ele>
        <time>2026-06-26T10:22:36Z</time>
      </trkpt>
      <trkpt lat="52.530097039416432" lon="-6.937232036143541">
        <ele>37.149999999999999</ele>
        <time>2026-06-26T10:22:37Z</time>
      </trkpt>
      <trkpt lat="52.530148001387715" lon="-6.937474021688104">
        <ele>36.670000000000002</ele>
        <time>2026-06-26T10:22:38Z</time>
      </trkpt>
      <trkpt lat="52.530460981652141" lon="-6.939122993499041">
        <ele>35.710000000000001</ele>
        <time>2026-06-26T10:22:45Z</time>
      </trkpt>
      <trkpt lat="52.530485037714243" lon="-6.939334971830249">
        <ele>35.229999999999997</ele>
        <time>2026-06-26T10:22:46Z</time>
      </trkpt>
      <trkpt lat="52.530485037714243" lon="-6.939548039808869">
        <ele>34.740000000000002</ele>
        <time>2026-06-26T10:22:47Z</time>
      </trkpt>
      <trkpt lat="52.530456036329269" lon="-6.940368041396141">
        <ele>33.780000000000001</ele>
        <time>2026-06-26T10:22:51Z</time>
      </trkpt>
      <trkpt lat="52.530444972217083" lon="-6.940573984757066">
        <ele>33.780000000000001</ele>
        <time>2026-06-26T10:22:52Z</time>
      </trkpt>
      <trkpt lat="52.530470034107566" lon="-6.940778000280261">
        <ele>33.780000000000001</ele>
        <time>2026-06-26T10:22:53Z</time>
      </trkpt>
      <trkpt lat="52.530511021614075" lon="-6.940986961126328">
        <ele>33.299999999999997</ele>
        <time>2026-06-26T10:22:54Z</time>
      </trkpt>
      <trkpt lat="52.530552009120584" lon="-6.941202040761709">
        <ele>33.299999999999997</ele>
        <time>2026-06-26T10:22:55Z</time>
      </trkpt>
      <trkpt lat="52.530597019940615" lon="-6.941419970244169">
        <ele>33.299999999999997</ele>
        <time>2026-06-26T10:22:56Z</time>
      </trkpt>
      <trkpt lat="52.530664997175336" lon="-6.941621974110603">
        <ele>33.299999999999997</ele>
        <time>2026-06-26T10:22:57Z</time>
      </trkpt>
      <trkpt lat="52.531273020431399" lon="-6.943415030837059">
        <ele>33.299999999999997</ele>
        <time>2026-06-26T10:23:06Z</time>
      </trkpt>
      <trkpt lat="52.531405035406351" lon="-6.943805040791631">
        <ele>32.82</ele>
        <time>2026-06-26T10:23:08Z</time>
      </trkpt>
      <trkpt lat="52.531460020691156" lon="-6.944002015516162">
        <ele>32.340000000000003</ele>
        <time>2026-06-26T10:23:09Z</time>
      </trkpt>
      <trkpt lat="52.531491033732891" lon="-6.944207036867738">
        <ele>32.340000000000003</ele>
        <time>2026-06-26T10:23:10Z</time>
      </trkpt>
      <trkpt lat="52.531762020662427" lon="-6.945995986461639">
        <ele>33.299999999999997</ele>
        <time>2026-06-26T10:23:18Z</time>
      </trkpt>
      <trkpt lat="52.532169967889786" lon="-6.947552002966404">
        <ele>32.82</ele>
        <time>2026-06-26T10:23:26Z</time>
      </trkpt>
      <trkpt lat="52.53232997842133" lon="-6.94805902428925">
        <ele>31.859999999999999</ele>
        <time>2026-06-26T10:23:29Z</time>
      </trkpt>
      <trkpt lat="52.532386975362897" lon="-6.948165977373719">
        <ele>31.379999999999999</ele>
        <time>2026-06-26T10:23:30Z</time>
      </trkpt>
      <trkpt lat="52.533341003581882" lon="-6.949575981125236">
        <ele>28.5</ele>
        <time>2026-06-26T10:23:41Z</time>
      </trkpt>
      <trkpt lat="52.534286985173821" lon="-6.950909961014986">
        <ele>26.57</ele>
        <time>2026-06-26T10:23:52Z</time>
      </trkpt>
      <trkpt lat="52.534368960186839" lon="-6.951004005968571">
        <ele>26.09</ele>
        <time>2026-06-26T10:23:53Z</time>
      </trkpt>
      <trkpt lat="52.53445403650403" lon="-6.951096039265394">
        <ele>25.609999999999999</ele>
        <time>2026-06-26T10:23:54Z</time>
      </trkpt>
      <trkpt lat="52.535291975364089" lon="-6.951571041718125">
        <ele>20.32</ele>
        <time>2026-06-26T10:24:02Z</time>
      </trkpt>
      <trkpt lat="52.536137960851192" lon="-6.952154003083706">
        <ele>20.32</ele>
        <time>2026-06-26T10:24:12Z</time>
      </trkpt>
      <trkpt lat="52.536530988290906" lon="-6.952690025791526">
        <ele>22.25</ele>
        <time>2026-06-26T10:24:19Z</time>
      </trkpt>
      <trkpt lat="52.537086037918925" lon="-6.953382035717368">
        <ele>22.73</ele>
        <time>2026-06-26T10:24:28Z</time>
      </trkpt>
      <trkpt lat="52.537800008431077" lon="-6.954106986522675">
        <ele>20.32</ele>
        <time>2026-06-26T10:24:37Z</time>
      </trkpt>
      <trkpt lat="52.53815003670752" lon="-6.95441803894937">
        <ele>19.359999999999999</ele>
        <time>2026-06-26T10:24:43Z</time>
      </trkpt>
      <trkpt lat="52.53817199729383" lon="-6.954360958188772">
        <ele>19.359999999999999</ele>
        <time>2026-06-26T10:24:44Z</time>
      </trkpt>
      <trkpt lat="52.538203010335565" lon="-6.954280994832516">
        <ele>19.359999999999999</ele>
        <time>2026-06-26T10:24:45Z</time>
      </trkpt>
      <trkpt lat="52.538544991984963" lon="-6.953383963555098">
        <ele>18.399999999999999</ele>
        <time>2026-06-26T10:24:52Z</time>
      </trkpt>
      <trkpt lat="52.538713971152902" lon="-6.952939974144101">
        <ele>16.48</ele>
        <time>2026-06-26T10:24:59Z</time>
      </trkpt>
      <trkpt lat="52.538739033043385" lon="-6.952876020222902">
        <ele>15.039999999999999</ele>
        <time>2026-06-26T10:25:04Z</time>
      </trkpt>
      <trkpt lat="52.538810027763247" lon="-6.952890018001199">
        <ele>14.56</ele>
        <time>2026-06-26T10:25:05Z</time>
      </trkpt>
      <trkpt lat="52.538841040804982" lon="-6.952955983579159">
        <ele>14.08</ele>
        <time>2026-06-26T10:25:06Z</time>
      </trkpt>
      <trkpt lat="52.538885967805982" lon="-6.953050028532744">
        <ele>14.08</ele>
        <time>2026-06-26T10:25:07Z</time>
      </trkpt>
      <trkpt lat="52.538936007767916" lon="-6.953153964132071">
        <ele>13.119999999999999</ele>
        <time>2026-06-26T10:25:08Z</time>
      </trkpt>
      <trkpt lat="52.538985963910818" lon="-6.953259995207191">
        <ele>12.630000000000001</ele>
        <time>2026-06-26T10:25:09Z</time>
      </trkpt>
      <trkpt lat="52.53903198055923" lon="-6.953356973826885">
        <ele>12.15</ele>
        <time>2026-06-26T10:25:10Z</time>
      </trkpt>
      <trkpt lat="52.539122002199292" lon="-6.953545985743403">
        <ele>11.19</ele>
        <time>2026-06-26T10:25:12Z</time>
      </trkpt>
      <trkpt lat="52.539212023839355" lon="-6.953728962689638">
        <ele>10.23</ele>
        <time>2026-06-26T10:25:14Z</time>
      </trkpt>
      <trkpt lat="52.539257034659386" lon="-6.953808004036546">
        <ele>10.23</ele>
        <time>2026-06-26T10:25:15Z</time>
      </trkpt>
      <trkpt lat="52.539298022165895" lon="-6.953880004584789">
        <ele>10.23</ele>
        <time>2026-06-26T10:25:16Z</time>
      </trkpt>
      <trkpt lat="52.539490973576903" lon="-6.954255010932684">
        <ele>13.119999999999999</ele>
        <time>2026-06-26T10:25:22Z</time>
      </trkpt>
      <trkpt lat="52.539636986330152" lon="-6.954556005075574">
        <ele>15.039999999999999</ele>
        <time>2026-06-26T10:25:26Z</time>
      </trkpt>
      <trkpt lat="52.53967403434217" lon="-6.95463303476572">
        <ele>15.52</ele>
        <time>2026-06-26T10:25:27Z</time>
      </trkpt>
      <trkpt lat="52.539712004363537" lon="-6.954710986465216">
        <ele>15.52</ele>
        <time>2026-06-26T10:25:28Z</time>
      </trkpt>
      <trkpt lat="52.539734970778227" lon="-6.954755997285247">
        <ele>15.52</ele>
        <time>2026-06-26T10:25:29Z</time>
      </trkpt>
      <trkpt lat="52.539753997698426" lon="-6.954795978963375">
        <ele>16</ele>
        <time>2026-06-26T10:25:30Z</time>
      </trkpt>
      <trkpt lat="52.539770007133484" lon="-6.95482699200511">
        <ele>16</ele>
        <time>2026-06-26T10:25:31Z</time>
      </trkpt>
      <trkpt lat="52.539775958284736" lon="-6.954838978126645">
        <ele>16</ele>
        <time>2026-06-26T10:25:32Z</time>
      </trkpt>
      <trkpt lat="52.539802026003599" lon="-6.954873008653522">
        <ele>16</ele>
        <time>2026-06-26T10:25:33Z</time>
      </trkpt>
      <trkpt lat="52.539813006296754" lon="-6.954889018088579">
        <ele>16</ele>
        <time>2026-06-26T10:25:34Z</time>
      </trkpt>
      <trkpt lat="52.539916019886732" lon="-6.955025978386402">
        <ele>16</ele>
        <time>2026-06-26T10:25:44Z</time>
      </trkpt>
      <trkpt lat="52.539952984079719" lon="-6.955075012519956">
        <ele>16</ele>
        <time>2026-06-26T10:25:45Z</time>
      </trkpt>
      <trkpt lat="52.539990032091737" lon="-6.955109965056181">
        <ele>16</ele>
        <time>2026-06-26T10:25:46Z</time>
      </trkpt>
      <trkpt lat="52.540164040401578" lon="-6.955219013616443">
        <ele>16.48</ele>
        <time>2026-06-26T10:25:50Z</time>
      </trkpt>
      <trkpt lat="52.540456987917423" lon="-6.955401990562677">
        <ele>19.359999999999999</ele>
        <time>2026-06-26T10:25:56Z</time>
      </trkpt>
      <trkpt lat="52.540509961545467" lon="-6.955422023311257">
        <ele>19.84</ele>
        <time>2026-06-26T10:25:57Z</time>
      </trkpt>
      <trkpt lat="52.540566036477685" lon="-6.95542998611927">
        <ele>20.32</ele>
        <time>2026-06-26T10:25:58Z</time>
      </trkpt>
      <trkpt lat="52.54062102176249" lon="-6.955438032746315">
        <ele>20.32</ele>
        <time>2026-06-26T10:25:59Z</time>
      </trkpt>
      <trkpt lat="52.540671983733773" lon="-6.955444989725947">
        <ele>20.32</ele>
        <time>2026-06-26T10:26:00Z</time>
      </trkpt>
      <trkpt lat="52.54087901674211" lon="-6.955474996939302">
        <ele>21.77</ele>
        <time>2026-06-26T10:26:04Z</time>
      </trkpt>
      <trkpt lat="52.540935007855296" lon="-6.955482959747315">
        <ele>22.25</ele>
        <time>2026-06-26T10:26:05Z</time>
      </trkpt>
      <trkpt lat="52.540989993140101" lon="-6.95547298528254">
        <ele>22.73</ele>
        <time>2026-06-26T10:26:06Z</time>
      </trkpt>
      <trkpt lat="52.541055958718061" lon="-6.955459993332624">
        <ele>22.25</ele>
        <time>2026-06-26T10:26:07Z</time>
      </trkpt>
      <trkpt lat="52.541124019771814" lon="-6.955448007211089">
        <ele>22.25</ele>
        <time>2026-06-26T10:26:08Z</time>
      </trkpt>
      <trkpt lat="52.541313031688333" lon="-6.955423029139638">
        <ele>22.25</ele>
        <time>2026-06-26T10:26:11Z</time>
      </trkpt>
      <trkpt lat="52.54137396812439" lon="-6.95542898029089">
        <ele>22.25</ele>
        <time>2026-06-26T10:26:12Z</time>
      </trkpt>
      <trkpt lat="52.541429959237576" lon="-6.955435015261173">
        <ele>22.73</ele>
        <time>2026-06-26T10:26:13Z</time>
      </trkpt>
      <trkpt lat="52.541496008634567" lon="-6.955468039959669">
        <ele>22.73</ele>
        <time>2026-06-26T10:26:14Z</time>
      </trkpt>
      <trkpt lat="52.541547976434231" lon="-6.955527970567346">
        <ele>23.210000000000001</ele>
        <time>2026-06-26T10:26:15Z</time>
      </trkpt>
      <trkpt lat="52.541600028052926" lon="-6.955586979165673">
        <ele>23.210000000000001</ele>
        <time>2026-06-26T10:26:16Z</time>
      </trkpt>
      <trkpt lat="52.541650990024209" lon="-6.955645987764001">
        <ele>23.210000000000001</ele>
        <time>2026-06-26T10:26:17Z</time>
      </trkpt>
      <trkpt lat="52.541701029986143" lon="-6.955702984705567">
        <ele>23.210000000000001</ele>
        <time>2026-06-26T10:26:18Z</time>
      </trkpt>
      <trkpt lat="52.541832961142063" lon="-6.95583701133728">
        <ele>23.210000000000001</ele>
        <time>2026-06-26T10:26:21Z</time>
      </trkpt>
      <trkpt lat="52.5418880302459" lon="-6.955885961651802">
        <ele>23.210000000000001</ele>
        <time>2026-06-26T10:26:28Z</time>
      </trkpt>
      <trkpt lat="52.541912002488971" lon="-6.955907000228763">
        <ele>23.210000000000001</ele>
        <time>2026-06-26T10:26:29Z</time>
      </trkpt>
      <trkpt lat="52.541946033015847" lon="-6.955936001613736">
        <ele>23.210000000000001</ele>
        <time>2026-06-26T10:26:30Z</time>
      </trkpt>
      <trkpt lat="52.542306035757065" lon="-6.956259040161967">
        <ele>21.77</ele>
        <time>2026-06-26T10:26:38Z</time>
      </trkpt>
      <trkpt lat="52.542346017435193" lon="-6.95631000213325">
        <ele>21.289999999999999</ele>
        <time>2026-06-26T10:26:39Z</time>
      </trkpt>
      <trkpt lat="52.542814984917641" lon="-6.956938980147243">
        <ele>21.77</ele>
        <time>2026-06-26T10:26:47Z</time>
      </trkpt>
      <trkpt lat="52.543573966249824" lon="-6.958108004182577">
        <ele>27.050000000000001</ele>
        <time>2026-06-26T10:26:59Z</time>
      </trkpt>
      <trkpt lat="52.543957019224763" lon="-6.958859022706747">
        <ele>28.98</ele>
        <time>2026-06-26T10:27:09Z</time>
      </trkpt>
      <trkpt lat="52.544026002287865" lon="-6.959155993536115">
        <ele>29.460000000000001</ele>
        <time>2026-06-26T10:27:12Z</time>
      </trkpt>
      <trkpt lat="52.544099008664489" lon="-6.959377024322748">
        <ele>28.98</ele>
        <time>2026-06-26T10:27:14Z</time>
      </trkpt>
      <trkpt lat="52.544147958979011" lon="-6.959424968808889">
        <ele>28.98</ele>
        <time>2026-06-26T10:27:15Z</time>
      </trkpt>
      <trkpt lat="52.544211996719241" lon="-6.959417006000876">
        <ele>28.5</ele>
        <time>2026-06-26T10:27:16Z</time>
      </trkpt>
      <trkpt lat="52.544281985610723" lon="-6.959391022101045">
        <ele>28.5</ele>
        <time>2026-06-26T10:27:17Z</time>
      </trkpt>
      <trkpt lat="52.54435901530087" lon="-6.959355985745788">
        <ele>28.5</ele>
        <time>2026-06-26T10:27:18Z</time>
      </trkpt>
      <trkpt lat="52.544437972828746" lon="-6.959319021552801">
        <ele>28.98</ele>
        <time>2026-06-26T10:27:19Z</time>
      </trkpt>
      <trkpt lat="52.545516975224018" lon="-6.959220031276345">
        <ele>33.780000000000001</ele>
        <time>2026-06-26T10:27:30Z</time>
      </trkpt>
      <trkpt lat="52.545601967722178" lon="-6.959192035719752">
        <ele>33.780000000000001</ele>
        <time>2026-06-26T10:27:31Z</time>
      </trkpt>
      <trkpt lat="52.545782011002302" lon="-6.959132021293044">
        <ele>33.780000000000001</ele>
        <time>2026-06-26T10:27:33Z</time>
      </trkpt>
      <trkpt lat="52.546754982322454" lon="-6.958507988601923">
        <ele>35.229999999999997</ele>
        <time>2026-06-26T10:27:43Z</time>
      </trkpt>
      <trkpt lat="52.547633992508054" lon="-6.958012031391263">
        <ele>36.670000000000002</ele>
        <time>2026-06-26T10:27:53Z</time>
      </trkpt>
      <trkpt lat="52.548661027103662" lon="-6.958143962547183">
        <ele>40.990000000000002</ele>
        <time>2026-06-26T10:28:00Z</time>
      </trkpt>
      <trkpt lat="52.550178989768028" lon="-6.958616031333804">
        <ele>48.68</ele>
        <time>2026-06-26T10:28:09Z</time>
      </trkpt>
      <trkpt lat="52.550345035269856" lon="-6.958641009405255">
        <ele>49.649999999999999</ele>
        <time>2026-06-26T10:28:10Z</time>
      </trkpt>
      <trkpt lat="52.550508985295892" lon="-6.958643021062017">
        <ele>50.609999999999999</ele>
        <time>2026-06-26T10:28:11Z</time>
      </trkpt>
      <trkpt lat="52.55067503079772" lon="-6.958588035777211">
        <ele>51.57</ele>
        <time>2026-06-26T10:28:12Z</time>
      </trkpt>
      <trkpt lat="52.550840992480516" lon="-6.958532966673374">
        <ele>52.530000000000001</ele>
        <time>2026-06-26T10:28:13Z</time>
      </trkpt>
      <trkpt lat="52.551006032153964" lon="-6.958477981388569">
        <ele>53.490000000000002</ele>
        <time>2026-06-26T10:28:14Z</time>
      </trkpt>
      <trkpt lat="52.551165036857128" lon="-6.958376979455352">
        <ele>53.969999999999999</ele>
        <time>2026-06-26T10:28:15Z</time>
      </trkpt>
      <trkpt lat="52.552837980911136" lon="-6.957171997055411">
        <ele>59.740000000000002</ele>
        <time>2026-06-26T10:28:26Z</time>
      </trkpt>
      <trkpt lat="52.554384022951126" lon="-6.956041026860476">
        <ele>64.549999999999997</ele>
        <time>2026-06-26T10:28:35Z</time>
      </trkpt>
      <trkpt lat="52.556788036599755" lon="-6.954808970913291">
        <ele>68.390000000000001</ele>
        <time>2026-06-26T10:28:48Z</time>
      </trkpt>
      <trkpt lat="52.558673964813352" lon="-6.953782020136714">
        <ele>72.239999999999995</ele>
        <time>2026-06-26T10:28:59Z</time>
      </trkpt>
      <trkpt lat="52.560988962650299" lon="-6.95255097001791">
        <ele>75.599999999999994</ele>
        <time>2026-06-26T10:29:11Z</time>
      </trkpt>
      <trkpt lat="52.562684034928679" lon="-6.952085020020604">
        <ele>77.519999999999996</ele>
        <time>2026-06-26T10:29:19Z</time>
      </trkpt>
      <trkpt lat="52.564300987869501" lon="-6.952050989493728">
        <ele>76.079999999999998</ele>
        <time>2026-06-26T10:29:27Z</time>
      </trkpt>
      <trkpt lat="52.565569002181292" lon="-6.951872035861015">
        <ele>73.680000000000007</ele>
        <time>2026-06-26T10:29:34Z</time>
      </trkpt>
      <trkpt lat="52.565736975520849" lon="-6.951916962862015">
        <ele>72.719999999999999</ele>
        <time>2026-06-26T10:29:35Z</time>
      </trkpt>
      <trkpt lat="52.565907966345549" lon="-6.951997010037303">
        <ele>72.239999999999995</ele>
        <time>2026-06-26T10:29:36Z</time>
      </trkpt>
      <trkpt lat="52.567672021687031" lon="-6.952697988599539">
        <ele>67.430000000000007</ele>
        <time>2026-06-26T10:29:45Z</time>
      </trkpt>
      <trkpt lat="52.569772023707628" lon="-6.953036030754447">
        <ele>65.030000000000001</ele>
        <time>2026-06-26T10:29:55Z</time>
      </trkpt>
      <trkpt lat="52.572386004030704" lon="-6.953183971345425">
        <ele>69.829999999999998</ele>
        <time>2026-06-26T10:30:09Z</time>
      </trkpt>
      <trkpt lat="52.574246032163501" lon="-6.952854981645942">
        <ele>70.310000000000002</ele>
        <time>2026-06-26T10:30:19Z</time>
      </trkpt>
      <trkpt lat="52.576169008389115" lon="-6.952410992234945">
        <ele>68.390000000000001</ele>
        <time>2026-06-26T10:30:29Z</time>
      </trkpt>
      <trkpt lat="52.577814962714911" lon="-6.952166995033622">
        <ele>67.430000000000007</ele>
        <time>2026-06-26T10:30:38Z</time>
      </trkpt>
      <trkpt lat="52.578796986490488" lon="-6.951778996735811">
        <ele>67.430000000000007</ele>
        <time>2026-06-26T10:30:46Z</time>
      </trkpt>
      <trkpt lat="52.578936964273453" lon="-6.951893996447325">
        <ele>67.430000000000007</ele>
        <time>2026-06-26T10:30:47Z</time>
      </trkpt>
      <trkpt lat="52.579002007842064" lon="-6.952002039179206">
        <ele>67.430000000000007</ele>
        <time>2026-06-26T10:30:48Z</time>
      </trkpt>
      <trkpt lat="52.579087000340223" lon="-6.952106980606914">
        <ele>67.430000000000007</ele>
        <time>2026-06-26T10:30:49Z</time>
      </trkpt>
      <trkpt lat="52.579194037243724" lon="-6.952193984761834">
        <ele>66.950000000000003</ele>
        <time>2026-06-26T10:30:50Z</time>
      </trkpt>
      <trkpt lat="52.57931699976325" lon="-6.952280988916755">
        <ele>66.469999999999999</ele>
        <time>2026-06-26T10:30:51Z</time>
      </trkpt>
      <trkpt lat="52.579451026394963" lon="-6.952338991686702">
        <ele>66.469999999999999</ele>
        <time>2026-06-26T10:30:52Z</time>
      </trkpt>
      <trkpt lat="52.580532040446997" lon="-6.952853975817561">
        <ele>67.430000000000007</ele>
        <time>2026-06-26T10:30:59Z</time>
      </trkpt>
      <trkpt lat="52.581238970160484" lon="-6.953179026022553">
        <ele>66.469999999999999</ele>
        <time>2026-06-26T10:31:04Z</time>
      </trkpt>
      <trkpt lat="52.581372996792197" lon="-6.953225964680314">
        <ele>66.469999999999999</ele>
        <time>2026-06-26T10:31:05Z</time>
      </trkpt>
      <trkpt lat="52.581510962918401" lon="-6.95323602296412">
        <ele>65.989999999999995</ele>
        <time>2026-06-26T10:31:06Z</time>
      </trkpt>
      <trkpt lat="52.581654964014888" lon="-6.953198974952102">
        <ele>65.989999999999995</ele>
        <time>2026-06-26T10:31:07Z</time>
      </trkpt>
      <trkpt lat="52.581801982596517" lon="-6.953163016587496">
        <ele>65.510000000000005</ele>
        <time>2026-06-26T10:31:08Z</time>
      </trkpt>
      <trkpt lat="52.582419980317354" lon="-6.953060002997518">
        <ele>65.030000000000001</ele>
        <time>2026-06-26T10:31:12Z</time>
      </trkpt>
      <trkpt lat="52.582579990848899" lon="-6.95310995914042">
        <ele>64.549999999999997</ele>
        <time>2026-06-26T10:31:13Z</time>
      </trkpt>
      <trkpt lat="52.582746036350727" lon="-6.95319302380085">
        <ele>64.549999999999997</ele>
        <time>2026-06-26T10:31:14Z</time>
      </trkpt>
      <trkpt lat="52.583234030753374" lon="-6.953535005450249">
        <ele>63.100000000000001</ele>
        <time>2026-06-26T10:31:17Z</time>
      </trkpt>
      <trkpt lat="52.584071969613433" lon="-6.954449974000454">
        <ele>59.740000000000002</ele>
        <time>2026-06-26T10:31:23Z</time>
      </trkpt>
      <trkpt lat="52.584184035658836" lon="-6.954646026715636">
        <ele>59.259999999999998</ele>
        <time>2026-06-26T10:31:24Z</time>
      </trkpt>
      <trkpt lat="52.584255030378699" lon="-6.954875020310283">
        <ele>58.780000000000001</ele>
        <time>2026-06-26T10:31:25Z</time>
      </trkpt>
      <trkpt lat="52.585016023367643" lon="-6.95721298456192">
        <ele>56.369999999999997</ele>
        <time>2026-06-26T10:31:35Z</time>
      </trkpt>
      <trkpt lat="52.585107972845435" lon="-6.957437032833695">
        <ele>56.369999999999997</ele>
        <time>2026-06-26T10:31:36Z</time>
      </trkpt>
      <trkpt lat="52.585222972556949" lon="-6.95763903670013">
        <ele>55.890000000000001</ele>
        <time>2026-06-26T10:31:37Z</time>
      </trkpt>
      <trkpt lat="52.586460979655385" lon="-6.959248026832938">
        <ele>54.93</ele>
        <time>2026-06-26T10:31:46Z</time>
      </trkpt>
      <trkpt lat="52.587837036699057" lon="-6.96041302755475">
        <ele>53.490000000000002</ele>
        <time>2026-06-26T10:31:55Z</time>
      </trkpt>
      <trkpt lat="52.588219000026584" lon="-6.96086598560214">
        <ele>53.490000000000002</ele>
        <time>2026-06-26T10:31:58Z</time>
      </trkpt>
      <trkpt lat="52.589051993563771" lon="-6.962490985170007">
        <ele>53.009999999999998</ele>
        <time>2026-06-26T10:32:06Z</time>
      </trkpt>
      <trkpt lat="52.589627997949719" lon="-6.964869014918804">
        <ele>52.049999999999997</ele>
        <time>2026-06-26T10:32:15Z</time>
      </trkpt>
      <trkpt lat="52.590358983725309" lon="-6.967006986960769">
        <ele>54.93</ele>
        <time>2026-06-26T10:32:24Z</time>
      </trkpt>
      <trkpt lat="52.590852007269859" lon="-6.968101998791099">
        <ele>56.859999999999999</ele>
        <time>2026-06-26T10:32:29Z</time>
      </trkpt>
      <trkpt lat="52.591571006923914" lon="-6.968961982056499">
        <ele>57.82</ele>
        <time>2026-06-26T10:32:34Z</time>
      </trkpt>
      <trkpt lat="52.593009006232023" lon="-6.970687983557582">
        <ele>58.299999999999997</ele>
        <time>2026-06-26T10:32:44Z</time>
      </trkpt>
      <trkpt lat="52.593139009550214" lon="-6.970870038494468">
        <ele>57.82</ele>
        <time>2026-06-26T10:32:45Z</time>
      </trkpt>
      <trkpt lat="52.593236993998289" lon="-6.971098026260734">
        <ele>57.82</ele>
        <time>2026-06-26T10:32:46Z</time>
      </trkpt>
      <trkpt lat="52.593331960961223" lon="-6.971320984885097">
        <ele>58.299999999999997</ele>
        <time>2026-06-26T10:32:47Z</time>
      </trkpt>
      <trkpt lat="52.593393987044692" lon="-6.971557019278407">
        <ele>58.780000000000001</ele>
        <time>2026-06-26T10:32:48Z</time>
      </trkpt>
      <trkpt lat="52.593426005914807" lon="-6.971818031743169">
        <ele>58.780000000000001</ele>
        <time>2026-06-26T10:32:49Z</time>
      </trkpt>
      <trkpt lat="52.593459030613303" lon="-6.97208097204566">
        <ele>59.740000000000002</ele>
        <time>2026-06-26T10:32:50Z</time>
      </trkpt>
      <trkpt lat="52.593457018956542" lon="-6.972349025309086">
        <ele>60.219999999999999</ele>
        <time>2026-06-26T10:32:51Z</time>
      </trkpt>
      <trkpt lat="52.593449978157878" lon="-6.972628980875015">
        <ele>60.219999999999999</ele>
        <time>2026-06-26T10:32:52Z</time>
      </trkpt>
      <trkpt lat="52.593443021178246" lon="-6.972911031916738">
        <ele>60.700000000000003</ele>
        <time>2026-06-26T10:32:53Z</time>
      </trkpt>
      <trkpt lat="52.593068014830351" lon="-6.975897001102567">
        <ele>63.579999999999998</ele>
        <time>2026-06-26T10:33:04Z</time>
      </trkpt>
      <trkpt lat="52.592635005712509" lon="-6.978270001709461">
        <ele>64.549999999999997</ele>
        <time>2026-06-26T10:33:13Z</time>
      </trkpt>
      <trkpt lat="52.592105017974973" lon="-6.980491038411856">
        <ele>68.870000000000005</ele>
        <time>2026-06-26T10:33:22Z</time>
      </trkpt>
      <trkpt lat="52.592064030468464" lon="-6.980755990371108">
        <ele>69.349999999999994</ele>
        <time>2026-06-26T10:33:23Z</time>
      </trkpt>
      <trkpt lat="52.592046009376645" lon="-6.981043992564082">
        <ele>70.310000000000002</ele>
        <time>2026-06-26T10:33:24Z</time>
      </trkpt>
      <trkpt lat="52.592024970799685" lon="-6.98136099614203">
        <ele>71.269999999999996</ele>
        <time>2026-06-26T10:33:25Z</time>
      </trkpt>
      <trkpt lat="52.592053972184658" lon="-6.981628965586424">
        <ele>72.239999999999995</ele>
        <time>2026-06-26T10:33:26Z</time>
      </trkpt>
      <trkpt lat="52.592084985226393" lon="-6.981914034113288">
        <ele>73.200000000000003</ele>
        <time>2026-06-26T10:33:27Z</time>
      </trkpt>
      <trkpt lat="52.592131001874804" lon="-6.982175968587399">
        <ele>74.159999999999997</ele>
        <time>2026-06-26T10:33:28Z</time>
      </trkpt>
      <trkpt lat="52.592180036008358" lon="-6.982429018244147">
        <ele>74.640000000000001</ele>
        <time>2026-06-26T10:33:29Z</time>
      </trkpt>
      <trkpt lat="52.592236027121544" lon="-6.982682989910245">
        <ele>75.120000000000005</ele>
        <time>2026-06-26T10:33:30Z</time>
      </trkpt>
      <trkpt lat="52.592853019014001" lon="-6.984056029468775">
        <ele>78.480000000000004</ele>
        <time>2026-06-26T10:33:36Z</time>
      </trkpt>
      <trkpt lat="52.593507980927825" lon="-6.984917018562555">
        <ele>81.849999999999994</ele>
        <time>2026-06-26T10:33:41Z</time>
      </trkpt>
      <trkpt lat="52.593643013387918" lon="-6.985092032700777">
        <ele>82.810000000000002</ele>
        <time>2026-06-26T10:33:42Z</time>
      </trkpt>
      <trkpt lat="52.593759018927813" lon="-6.985291019082069">
        <ele>83.769999999999996</ele>
        <time>2026-06-26T10:33:43Z</time>
      </trkpt>
      <trkpt lat="52.593864966183901" lon="-6.985502997413278">
        <ele>84.25</ele>
        <time>2026-06-26T10:33:44Z</time>
      </trkpt>
      <trkpt lat="52.593952976167202" lon="-6.985738025978208">
        <ele>84.730000000000004</ele>
        <time>2026-06-26T10:33:45Z</time>
      </trkpt>
      <trkpt lat="52.594040986150503" lon="-6.985974982380867">
        <ele>85.209999999999994</ele>
        <time>2026-06-26T10:33:46Z</time>
      </trkpt>
      <trkpt lat="52.594127990305424" lon="-6.986211016774178">
        <ele>86.180000000000007</ele>
        <time>2026-06-26T10:33:47Z</time>
      </trkpt>
      <trkpt lat="52.595004988834262" lon="-6.988189984112978">
        <ele>90.5</ele>
        <time>2026-06-26T10:33:56Z</time>
      </trkpt>
      <trkpt lat="52.595857009291649" lon="-6.989094978198409">
        <ele>91.939999999999998</ele>
        <time>2026-06-26T10:34:02Z</time>
      </trkpt>
      <trkpt lat="52.596022970974445" lon="-6.989183994010091">
        <ele>91.459999999999994</ele>
        <time>2026-06-26T10:34:03Z</time>
      </trkpt>
      <trkpt lat="52.596190022304654" lon="-6.989226993173361">
        <ele>90.5</ele>
        <time>2026-06-26T10:34:04Z</time>
      </trkpt>
      <trkpt lat="52.596364030614495" lon="-6.98924602009356">
        <ele>90.019999999999996</ele>
        <time>2026-06-26T10:34:05Z</time>
      </trkpt>
      <trkpt lat="52.596538960933685" lon="-6.989265969023109">
        <ele>89.540000000000006</ele>
        <time>2026-06-26T10:34:06Z</time>
      </trkpt>
      <trkpt lat="52.597358962520957" lon="-6.989359008148313">
        <ele>87.140000000000001</ele>
        <time>2026-06-26T10:34:11Z</time>
      </trkpt>
      <trkpt lat="52.597505981102586" lon="-6.989459004253149">
        <ele>86.659999999999997</ele>
        <time>2026-06-26T10:34:12Z</time>
      </trkpt>
      <trkpt lat="52.597644031047821" lon="-6.989597976207733">
        <ele>86.180000000000007</ele>
        <time>2026-06-26T10:34:13Z</time>
      </trkpt>
      <trkpt lat="52.597780991345644" lon="-6.989752035588026">
        <ele>85.689999999999998</ele>
        <time>2026-06-26T10:34:14Z</time>
      </trkpt>
      <trkpt lat="52.597898002713919" lon="-6.989946998655796">
        <ele>85.209999999999994</ele>
        <time>2026-06-26T10:34:15Z</time>
      </trkpt>
      <trkpt lat="52.598948003724217" lon="-6.991734020411968">
        <ele>81.370000000000005</ele>
        <time>2026-06-26T10:34:25Z</time>
      </trkpt>
      <trkpt lat="52.599387969821692" lon="-6.992469029501081">
        <ele>80.409999999999997</ele>
        <time>2026-06-26T10:34:30Z</time>
      </trkpt>
      <trkpt lat="52.599585028365254" lon="-6.992655023932457">
        <ele>80.409999999999997</ele>
        <time>2026-06-26T10:34:32Z</time>
      </trkpt>
      <trkpt lat="52.599703967571259" lon="-6.992720989510417">
        <ele>79.930000000000007</ele>
        <time>2026-06-26T10:34:33Z</time>
      </trkpt>
      <trkpt lat="52.599833970889449" lon="-6.99279198423028">
        <ele>79.930000000000007</ele>
        <time>2026-06-26T10:34:34Z</time>
      </trkpt>
      <trkpt lat="52.599974032491446" lon="-6.992845041677356">
        <ele>78.969999999999999</ele>
        <time>2026-06-26T10:34:35Z</time>
      </trkpt>
      <trkpt lat="52.600125996395946" lon="-6.992856021970511">
        <ele>78.480000000000004</ele>
        <time>2026-06-26T10:34:36Z</time>
      </trkpt>
      <trkpt lat="52.601269958540797" lon="-6.992701962590218">
        <ele>74.159999999999997</ele>
        <time>2026-06-26T10:34:43Z</time>
      </trkpt>
      <trkpt lat="52.601413037627935" lon="-6.992603978142142">
        <ele>74.640000000000001</ele>
        <time>2026-06-26T10:34:44Z</time>
      </trkpt>
      <trkpt lat="52.601557038724422" lon="-6.992498030886054">
        <ele>74.640000000000001</ele>
        <time>2026-06-26T10:34:45Z</time>
      </trkpt>
      <trkpt lat="52.602205965667963" lon="-6.991941975429654">
        <ele>74.159999999999997</ele>
        <time>2026-06-26T10:34:50Z</time>
      </trkpt>
      <trkpt lat="52.602343009784818" lon="-6.991853965446353">
        <ele>74.640000000000001</ele>
        <time>2026-06-26T10:34:51Z</time>
      </trkpt>
      <trkpt lat="52.603676989674568" lon="-6.99143897742033">
        <ele>77.040000000000006</ele>
        <time>2026-06-26T10:35:00Z</time>
      </trkpt>
      <trkpt lat="52.604648033156991" lon="-6.991362031549215">
        <ele>80.890000000000001</ele>
        <time>2026-06-26T10:35:08Z</time>
      </trkpt>
      <trkpt lat="52.605660986155272" lon="-6.991450963541865">
        <ele>82.329999999999998</ele>
        <time>2026-06-26T10:35:18Z</time>
      </trkpt>
      <trkpt lat="52.605771962553263" lon="-6.991491029039025">
        <ele>81.849999999999994</ele>
        <time>2026-06-26T10:35:19Z</time>
      </trkpt>
      <trkpt lat="52.605886962264776" lon="-6.991532016545534">
        <ele>81.849999999999994</ele>
        <time>2026-06-26T10:35:20Z</time>
      </trkpt>
      <trkpt lat="52.606976022943854" lon="-6.992268031463027">
        <ele>76.560000000000002</ele>
        <time>2026-06-26T10:35:31Z</time>
      </trkpt>
      <trkpt lat="52.607079958543181" lon="-6.992284962907434">
        <ele>76.560000000000002</ele>
        <time>2026-06-26T10:35:32Z</time>
      </trkpt>
      <trkpt lat="52.607517996802926" lon="-6.992373978719115">
        <ele>74.640000000000001</ele>
        <time>2026-06-26T10:35:36Z</time>
      </trkpt>
      <trkpt lat="52.607636013999581" lon="-6.992422007024288">
        <ele>74.159999999999997</ele>
        <time>2026-06-26T10:35:37Z</time>
      </trkpt>
      <trkpt lat="52.608241019770503" lon="-6.992729958146811">
        <ele>70.790000000000006</ele>
        <time>2026-06-26T10:35:42Z</time>
      </trkpt>
      <trkpt lat="52.608362976461649" lon="-6.992802964523435">
        <ele>69.829999999999998</ele>
        <time>2026-06-26T10:35:43Z</time>
      </trkpt>
      <trkpt lat="52.609001006931067" lon="-6.993406964465976">
        <ele>60.700000000000003</ele>
        <time>2026-06-26T10:35:49Z</time>
      </trkpt>
      <trkpt lat="52.609102008864284" lon="-6.993492962792516">
        <ele>59.259999999999998</ele>
        <time>2026-06-26T10:35:50Z</time>
      </trkpt>
      <trkpt lat="52.609209967777133" lon="-6.993541996926069">
        <ele>57.82</ele>
        <time>2026-06-26T10:35:51Z</time>
      </trkpt>
      <trkpt lat="52.609318010509014" lon="-6.993591031059623">
        <ele>56.369999999999997</ele>
        <time>2026-06-26T10:35:52Z</time>
      </trkpt>
      <trkpt lat="52.609425969421864" lon="-6.993567980825901">
        <ele>55.409999999999997</ele>
        <time>2026-06-26T10:35:53Z</time>
      </trkpt>
      <trkpt lat="52.609526971355081" lon="-6.993545014411211">
        <ele>53.969999999999999</ele>
        <time>2026-06-26T10:35:54Z</time>
      </trkpt>
      <trkpt lat="52.609628979116678" lon="-6.993521964177489">
        <ele>53.009999999999998</ele>
        <time>2026-06-26T10:35:55Z</time>
      </trkpt>
      <trkpt lat="52.609731992706656" lon="-6.993497991934419">
        <ele>51.57</ele>
        <time>2026-06-26T10:35:56Z</time>
      </trkpt>
      <trkpt lat="52.609829977154732" lon="-6.993454992771149">
        <ele>50.609999999999999</ele>
        <time>2026-06-26T10:35:57Z</time>
      </trkpt>
      <trkpt lat="52.609928967431188" lon="-6.993379974737763">
        <ele>50.130000000000003</ele>
        <time>2026-06-26T10:35:58Z</time>
      </trkpt>
      <trkpt lat="52.610071040689945" lon="-6.993270004168153">
        <ele>50.130000000000003</ele>
        <time>2026-06-26T10:35:59Z</time>
      </trkpt>
      <trkpt lat="52.610155027359724" lon="-6.993150981143117">
        <ele>49.649999999999999</ele>
        <time>2026-06-26T10:36:00Z</time>
      </trkpt>
      <trkpt lat="52.610839996486902" lon="-6.992215979844332">
        <ele>48.68</ele>
        <time>2026-06-26T10:36:05Z</time>
      </trkpt>
      <trkpt lat="52.612018994987011" lon="-6.991209983825684">
        <ele>44.840000000000003</ele>
        <time>2026-06-26T10:36:13Z</time>
      </trkpt>
      <trkpt lat="52.613346017897129" lon="-6.990072978660464">
        <ele>38.109999999999999</ele>
        <time>2026-06-26T10:36:22Z</time>
      </trkpt>
      <trkpt lat="52.613758994266391" lon="-6.989779025316238">
        <ele>36.189999999999998</ele>
        <time>2026-06-26T10:36:25Z</time>
      </trkpt>
      <trkpt lat="52.613913975656033" lon="-6.989730997011066">
        <ele>35.229999999999997</ele>
        <time>2026-06-26T10:36:26Z</time>
      </trkpt>
      <trkpt lat="52.614082032814622" lon="-6.98969897814095">
        <ele>33.780000000000001</ele>
        <time>2026-06-26T10:36:27Z</time>
      </trkpt>
      <trkpt lat="52.615520032122731" lon="-6.989638963714242">
        <ele>27.050000000000001</ele>
        <time>2026-06-26T10:36:36Z</time>
      </trkpt>
      <trkpt lat="52.617049980908632" lon="-6.989664025604725">
        <ele>30.420000000000002</ele>
        <time>2026-06-26T10:36:46Z</time>
      </trkpt>
      <trkpt lat="52.617205968126655" lon="-6.989696966484189">
        <ele>31.859999999999999</ele>
        <time>2026-06-26T10:36:47Z</time>
      </trkpt>
      <trkpt lat="52.617353992536664" lon="-6.989769972860813">
        <ele>32.82</ele>
        <time>2026-06-26T10:36:48Z</time>
      </trkpt>
      <trkpt lat="52.617485001683235" lon="-6.989871980622411">
        <ele>33.780000000000001</ele>
        <time>2026-06-26T10:36:49Z</time>
      </trkpt>
      <trkpt lat="52.617611987516284" lon="-6.989971976727247">
        <ele>35.229999999999997</ele>
        <time>2026-06-26T10:36:50Z</time>
      </trkpt>
      <trkpt lat="52.617744002491236" lon="-6.990074990317226">
        <ele>35.710000000000001</ele>
        <time>2026-06-26T10:36:51Z</time>
      </trkpt>
      <trkpt lat="52.617880962789059" lon="-6.990183033049107">
        <ele>36.670000000000002</ele>
        <time>2026-06-26T10:36:52Z</time>
      </trkpt>
      <trkpt lat="52.618928030133247" lon="-6.990980990231037">
        <ele>42.439999999999998</ele>
        <time>2026-06-26T10:36:59Z</time>
      </trkpt>
      <trkpt lat="52.619082005694509" lon="-6.991009991616011">
        <ele>42.920000000000002</ele>
        <time>2026-06-26T10:37:00Z</time>
      </trkpt>
      <trkpt lat="52.61923698708415" lon="-6.991037987172604">
        <ele>43.399999999999999</ele>
        <time>2026-06-26T10:37:01Z</time>
      </trkpt>
      <trkpt lat="52.619392974302173" lon="-6.99102901853621">
        <ele>43.880000000000003</ele>
        <time>2026-06-26T10:37:02Z</time>
      </trkpt>
      <trkpt lat="52.619547033682466" lon="-6.991019966080785">
        <ele>44.359999999999999</ele>
        <time>2026-06-26T10:37:03Z</time>
      </trkpt>
      <trkpt lat="52.61970897205174" lon="-6.991009991616011">
        <ele>44.840000000000003</ele>
        <time>2026-06-26T10:37:04Z</time>
      </trkpt>
      <trkpt lat="52.619866970926523" lon="-6.991000017151237">
        <ele>44.840000000000003</ele>
        <time>2026-06-26T10:37:05Z</time>
      </trkpt>
      <trkpt lat="52.620019018650055" lon="-6.991006974130869">
        <ele>45.32</ele>
        <time>2026-06-26T10:37:06Z</time>
      </trkpt>
      <trkpt lat="52.621687017381191" lon="-6.991262035444379">
        <ele>44.359999999999999</ele>
        <time>2026-06-26T10:37:17Z</time>
      </trkpt>
      <trkpt lat="52.621840992942452" lon="-6.991268992424011">
        <ele>43.880000000000003</ele>
        <time>2026-06-26T10:37:18Z</time>
      </trkpt>
      <trkpt lat="52.621988011524081" lon="-6.991259017959237">
        <ele>43.399999999999999</ele>
        <time>2026-06-26T10:37:19Z</time>
      </trkpt>
      <trkpt lat="52.62213503010571" lon="-6.991231022402644">
        <ele>42.920000000000002</ele>
        <time>2026-06-26T10:37:20Z</time>
      </trkpt>
      <trkpt lat="52.622278025373816" lon="-6.991185005754232">
        <ele>42.439999999999998</ele>
        <time>2026-06-26T10:37:21Z</time>
      </trkpt>
      <trkpt lat="52.622420014813542" lon="-6.991138989105821">
        <ele>41.950000000000003</ele>
        <time>2026-06-26T10:37:22Z</time>
      </trkpt>
      <trkpt lat="52.622560998424888" lon="-6.991092972457409">
        <ele>40.990000000000002</ele>
        <time>2026-06-26T10:37:23Z</time>
      </trkpt>
      <trkpt lat="52.622698964551091" lon="-6.991047961637378">
        <ele>40.509999999999998</ele>
        <time>2026-06-26T10:37:24Z</time>
      </trkpt>
      <trkpt lat="52.62396396137774" lon="-6.991314003244042">
        <ele>36.670000000000002</ele>
        <time>2026-06-26T10:37:33Z</time>
      </trkpt>
      <trkpt lat="52.626008978113532" lon="-6.991805015131831">
        <ele>34.259999999999998</ele>
        <time>2026-06-26T10:37:47Z</time>
      </trkpt>
      <trkpt lat="52.627284033223987" lon="-6.992522003129125">
        <ele>33.780000000000001</ele>
        <time>2026-06-26T10:37:56Z</time>
      </trkpt>
      <trkpt lat="52.627684017643332" lon="-6.992888962849975">
        <ele>31.859999999999999</ele>
        <time>2026-06-26T10:37:59Z</time>
      </trkpt>
      <trkpt lat="52.627823995426297" lon="-6.992989964783192">
        <ele>31.379999999999999</ele>
        <time>2026-06-26T10:38:00Z</time>
      </trkpt>
      <trkpt lat="52.628744998946786" lon="-6.99356404133141">
        <ele>29.460000000000001</ele>
        <time>2026-06-26T10:38:08Z</time>
      </trkpt>
      <trkpt lat="52.629576986655593" lon="-6.993987997993827">
        <ele>30.420000000000002</ele>
        <time>2026-06-26T10:38:18Z</time>
      </trkpt>
      <trkpt lat="52.629633983597159" lon="-6.9940169993788">
        <ele>29.460000000000001</ele>
        <time>2026-06-26T10:38:25Z</time>
      </trkpt>
      <trkpt lat="52.629670025780797" lon="-6.994104003533721">
        <ele>28.98</ele>
        <time>2026-06-26T10:38:26Z</time>
      </trkpt>
      <trkpt lat="52.629657033830881" lon="-6.994167035445571">
        <ele>28.98</ele>
        <time>2026-06-26T10:38:27Z</time>
      </trkpt>
      <trkpt lat="52.629637001082301" lon="-6.994258984923363">
        <ele>28.5</ele>
        <time>2026-06-26T10:38:28Z</time>
      </trkpt>
      <trkpt lat="52.629398033022881" lon="-6.995414011180401">
        <ele>31.859999999999999</ele>
        <time>2026-06-26T10:38:36Z</time>
      </trkpt>
      <trkpt lat="52.629383029416203" lon="-6.995591036975384">
        <ele>32.82</ele>
        <time>2026-06-26T10:38:37Z</time>
      </trkpt>
      <trkpt lat="52.629370037466288" lon="-6.996641037985683">
        <ele>36.189999999999998</ele>
        <time>2026-06-26T10:38:43Z</time>
      </trkpt>
      <trkpt lat="52.629371965304017" lon="-6.996768023818731">
        <ele>37.149999999999999</ele>
        <time>2026-06-26T10:38:44Z</time>
      </trkpt>
      <trkpt lat="52.629404990002513" lon="-6.998067973181605">
        <ele>39.549999999999997</ele>
        <time>2026-06-26T10:38:52Z</time>
      </trkpt>
      <trkpt lat="52.629296025261283" lon="-7.000018022954464">
        <ele>38.590000000000003</ele>
        <time>2026-06-26T10:39:02Z</time>
      </trkpt>
      <trkpt lat="52.629078011959791" lon="-7.002090029418469">
        <ele>35.710000000000001</ele>
        <time>2026-06-26T10:39:11Z</time>
      </trkpt>
      <trkpt lat="52.628437969833612" lon="-7.005468020215631">
        <ele>40.509999999999998</ele>
        <time>2026-06-26T10:39:24Z</time>
      </trkpt>
      <trkpt lat="52.628387007862329" lon="-7.005740012973547">
        <ele>40.990000000000002</ele>
        <time>2026-06-26T10:39:25Z</time>
      </trkpt>
      <trkpt lat="52.627676976844668" lon="-7.008760012686253">
        <ele>45.799999999999997</ele>
        <time>2026-06-26T10:39:36Z</time>
      </trkpt>
      <trkpt lat="52.627025032415986" lon="-7.011185986921191">
        <ele>48.200000000000003</ele>
        <time>2026-06-26T10:39:45Z</time>
      </trkpt>
      <trkpt lat="52.627000976353884" lon="-7.011442976072431">
        <ele>48.200000000000003</ele>
        <time>2026-06-26T10:39:46Z</time>
      </trkpt>
      <trkpt lat="52.627000976353884" lon="-7.011658977717161">
        <ele>47.719999999999999</ele>
        <time>2026-06-26T10:39:47Z</time>
      </trkpt>
      <trkpt lat="52.627058979123831" lon="-7.011887971311808">
        <ele>47.719999999999999</ele>
        <time>2026-06-26T10:39:48Z</time>
      </trkpt>
      <trkpt lat="52.627118993550539" lon="-7.012057034298778">
        <ele>47.240000000000002</ele>
        <time>2026-06-26T10:39:49Z</time>
      </trkpt>
      <trkpt lat="52.627216977998614" lon="-7.012222995981574">
        <ele>46.759999999999998</ele>
        <time>2026-06-26T10:39:50Z</time>
      </trkpt>
      <trkpt lat="52.62731202878058" lon="-7.012374037876725">
        <ele>46.280000000000001</ele>
        <time>2026-06-26T10:39:51Z</time>
      </trkpt>
      <trkpt lat="52.627451000735164" lon="-7.012466993182898">
        <ele>45.32</ele>
        <time>2026-06-26T10:39:52Z</time>
      </trkpt>
      <trkpt lat="52.627600030973554" lon="-7.012513009831309">
        <ele>43.880000000000003</ele>
        <time>2026-06-26T10:39:53Z</time>
      </trkpt>
      <trkpt lat="52.627768004313111" lon="-7.012537987902761">
        <ele>42.439999999999998</ele>
        <time>2026-06-26T10:39:54Z</time>
      </trkpt>
      <trkpt lat="52.627947963774204" lon="-7.012531030923128">
        <ele>40.509999999999998</ele>
        <time>2026-06-26T10:39:55Z</time>
      </trkpt>
      <trkpt lat="52.628642991185188" lon="-7.012533964589238">
        <ele>33.299999999999997</ele>
        <time>2026-06-26T10:40:00Z</time>
      </trkpt>
      <trkpt lat="52.629222013056278" lon="-7.012590039521456">
        <ele>31.379999999999999</ele>
        <time>2026-06-26T10:40:07Z</time>
      </trkpt>
      <trkpt lat="52.62965502217412" lon="-7.012679977342486">
        <ele>33.299999999999997</ele>
        <time>2026-06-26T10:40:11Z</time>
      </trkpt>
      <trkpt lat="52.62974102050066" lon="-7.012719037011266">
        <ele>33.299999999999997</ele>
        <time>2026-06-26T10:40:12Z</time>
      </trkpt>
      <trkpt lat="52.629799023270607" lon="-7.012853985652328">
        <ele>33.780000000000001</ele>
        <time>2026-06-26T10:40:13Z</time>
      </trkpt>
      <trkpt lat="52.629836993291974" lon="-7.013012990355492">
        <ele>34.259999999999998</ele>
        <time>2026-06-26T10:40:14Z</time>
      </trkpt>
      <trkpt lat="52.629876974970102" lon="-7.013197978958488">
        <ele>34.740000000000002</ele>
        <time>2026-06-26T10:40:15Z</time>
      </trkpt>
      <trkpt lat="52.629887033253908" lon="-7.013399982824922">
        <ele>35.229999999999997</ele>
        <time>2026-06-26T10:40:16Z</time>
      </trkpt>
      <trkpt lat="52.629896001890302" lon="-7.013613972812891">
        <ele>36.189999999999998</ele>
        <time>2026-06-26T10:40:17Z</time>
      </trkpt>
      <trkpt lat="52.629917040467262" lon="-7.014068020507693">
        <ele>37.149999999999999</ele>
        <time>2026-06-26T10:40:19Z</time>
      </trkpt>
      <trkpt lat="52.629893990233541" lon="-7.014296008273959">
        <ele>37.630000000000003</ele>
        <time>2026-06-26T10:40:20Z</time>
      </trkpt>
      <trkpt lat="52.629844034090638" lon="-7.014521984383464">
        <ele>37.630000000000003</ele>
        <time>2026-06-26T10:40:21Z</time>
      </trkpt>
      <trkpt lat="52.629324020817876" lon="-7.016846034675837">
        <ele>36.189999999999998</ele>
        <time>2026-06-26T10:40:30Z</time>
      </trkpt>
      <trkpt lat="52.628536960110068" lon="-7.019306039437652">
        <ele>35.229999999999997</ele>
        <time>2026-06-26T10:40:40Z</time>
      </trkpt>
      <trkpt lat="52.627647975459695" lon="-7.021468989551067">
        <ele>37.630000000000003</ele>
        <time>2026-06-26T10:40:49Z</time>
      </trkpt>
      <trkpt lat="52.627544039860368" lon="-7.021720027551055">
        <ele>38.109999999999999</ele>
        <time>2026-06-26T10:40:50Z</time>
      </trkpt>
      <trkpt lat="52.627458041533828" lon="-7.021981040015817">
        <ele>38.590000000000003</ele>
        <time>2026-06-26T10:40:51Z</time>
      </trkpt>
      <trkpt lat="52.62737900018692" lon="-7.022244986146689">
        <ele>39.07</ele>
        <time>2026-06-26T10:40:52Z</time>
      </trkpt>
      <trkpt lat="52.62731303460896" lon="-7.022514967247844">
        <ele>39.07</ele>
        <time>2026-06-26T10:40:53Z</time>
      </trkpt>
      <trkpt lat="52.627276992425323" lon="-7.022802969440818">
        <ele>39.549999999999997</ele>
        <time>2026-06-26T10:40:54Z</time>
      </trkpt>
      <trkpt lat="52.627241034060717" lon="-7.023091977462173">
        <ele>39.549999999999997</ele>
        <time>2026-06-26T10:40:55Z</time>
      </trkpt>
      <trkpt lat="52.627237010747194" lon="-7.023388026282191">
        <ele>39.549999999999997</ele>
        <time>2026-06-26T10:40:56Z</time>
      </trkpt>
      <trkpt lat="52.627237010747194" lon="-7.023679967969656">
        <ele>40.030000000000001</ele>
        <time>2026-06-26T10:40:57Z</time>
      </trkpt>
      <trkpt lat="52.62726902961731" lon="-7.02396403066814">
        <ele>40.509999999999998</ele>
        <time>2026-06-26T10:40:58Z</time>
      </trkpt>
      <trkpt lat="52.627317979931831" lon="-7.024248009547591">
        <ele>40.990000000000002</ele>
        <time>2026-06-26T10:40:59Z</time>
      </trkpt>
      <trkpt lat="52.627368019893765" lon="-7.024538023397327">
        <ele>41.469999999999999</ele>
        <time>2026-06-26T10:41:00Z</time>
      </trkpt>
      <trkpt lat="52.627418981865048" lon="-7.024830970913172">
        <ele>41.950000000000003</ele>
        <time>2026-06-26T10:41:01Z</time>
      </trkpt>
      <trkpt lat="52.627820977941155" lon="-7.026843968778849">
        <ele>41.950000000000003</ele>
        <time>2026-06-26T10:41:08Z</time>
      </trkpt>
      <trkpt lat="52.628190033137798" lon="-7.028695028275251">
        <ele>44.359999999999999</ele>
        <time>2026-06-26T10:41:15Z</time>
      </trkpt>
      <trkpt lat="52.628209982067347" lon="-7.028933996334672">
        <ele>45.32</ele>
        <time>2026-06-26T10:41:16Z</time>
      </trkpt>
      <trkpt lat="52.628220962360501" lon="-7.029181011021137">
        <ele>46.280000000000001</ele>
        <time>2026-06-26T10:41:17Z</time>
      </trkpt>
      <trkpt lat="52.628231020644307" lon="-7.029431965202093">
        <ele>47.240000000000002</ele>
        <time>2026-06-26T10:41:18Z</time>
      </trkpt>
      <trkpt lat="52.628243006765842" lon="-7.02970203012228">
        <ele>47.719999999999999</ele>
        <time>2026-06-26T10:41:19Z</time>
      </trkpt>
      <trkpt lat="52.628304027020931" lon="-7.030543992295861">
        <ele>49.649999999999999</ele>
        <time>2026-06-26T10:41:22Z</time>
      </trkpt>
      <trkpt lat="52.628343002870679" lon="-7.030827971175313">
        <ele>50.130000000000003</ele>
        <time>2026-06-26T10:41:23Z</time>
      </trkpt>
      <trkpt lat="52.628580965101719" lon="-7.033475982025266">
        <ele>54.450000000000003</ele>
        <time>2026-06-26T10:41:32Z</time>
      </trkpt>
      <trkpt lat="52.628555987030268" lon="-7.033774964511395">
        <ele>54.450000000000003</ele>
        <time>2026-06-26T10:41:33Z</time>
      </trkpt>
      <trkpt lat="52.628318024799228" lon="-7.036617016419768">
        <ele>55.409999999999997</ele>
        <time>2026-06-26T10:41:42Z</time>
      </trkpt>
      <trkpt lat="52.628300003707409" lon="-7.039470970630646">
        <ele>57.82</ele>
        <time>2026-06-26T10:41:51Z</time>
      </trkpt>
      <trkpt lat="52.628202019259334" lon="-7.041502995416522">
        <ele>57.340000000000003</ele>
        <time>2026-06-26T10:41:58Z</time>
      </trkpt>
      <trkpt lat="52.628031028434634" lon="-7.044125022366643">
        <ele>55.890000000000001</ele>
        <time>2026-06-26T10:42:07Z</time>
      </trkpt>
      <trkpt lat="52.627951987087727" lon="-7.044413024559617">
        <ele>56.369999999999997</ele>
        <time>2026-06-26T10:42:08Z</time>
      </trkpt>
      <trkpt lat="52.627883004024625" lon="-7.044661967083812">
        <ele>56.369999999999997</ele>
        <time>2026-06-26T10:42:09Z</time>
      </trkpt>
      <trkpt lat="52.627309011295438" lon="-7.046731039881706">
        <ele>55.409999999999997</ele>
        <time>2026-06-26T10:42:17Z</time>
      </trkpt>
      <trkpt lat="52.627245979383588" lon="-7.04695601016283">
        <ele>55.409999999999997</ele>
        <time>2026-06-26T10:42:18Z</time>
      </trkpt>
      <trkpt lat="52.627210021018982" lon="-7.047175029292703">
        <ele>54.93</ele>
        <time>2026-06-26T10:42:19Z</time>
      </trkpt>
      <trkpt lat="52.627199040725827" lon="-7.047378960996866">
        <ele>54.93</ele>
        <time>2026-06-26T10:42:20Z</time>
      </trkpt>
      <trkpt lat="52.627222007140517" lon="-7.047511981800199">
        <ele>54.93</ele>
        <time>2026-06-26T10:42:21Z</time>
      </trkpt>
      <trkpt lat="52.627274980768561" lon="-7.047631004825234">
        <ele>54.93</ele>
        <time>2026-06-26T10:42:22Z</time>
      </trkpt>
      <trkpt lat="52.627338012680411" lon="-7.047684984281659">
        <ele>55.409999999999997</ele>
        <time>2026-06-26T10:42:23Z</time>
      </trkpt>
      <trkpt lat="52.627435997128487" lon="-7.04775296151638">
        <ele>55.409999999999997</ele>
        <time>2026-06-26T10:42:24Z</time>
      </trkpt>
      <trkpt lat="52.627560971304774" lon="-7.047800989821553">
        <ele>55.890000000000001</ele>
        <time>2026-06-26T10:42:25Z</time>
      </trkpt>
      <trkpt lat="52.627694997936487" lon="-7.047852035611868">
        <ele>56.369999999999997</ele>
        <time>2026-06-26T10:42:26Z</time>
      </trkpt>
      <trkpt lat="52.627836987376213" lon="-7.047907020896673">
        <ele>56.859999999999999</ele>
        <time>2026-06-26T10:42:27Z</time>
      </trkpt>
      <trkpt lat="52.629229975864291" lon="-7.04843700863421">
        <ele>63.100000000000001</ele>
        <time>2026-06-26T10:42:35Z</time>
      </trkpt>
      <trkpt lat="52.630994031205773" lon="-7.0491679944098">
        <ele>69.829999999999998</ele>
        <time>2026-06-26T10:42:45Z</time>
      </trkpt>
      <trkpt lat="52.631897013634443" lon="-7.049777023494244">
        <ele>73.200000000000003</ele>
        <time>2026-06-26T10:42:51Z</time>
      </trkpt>
      <trkpt lat="52.631968008354306" lon="-7.049895962700248">
        <ele>73.200000000000003</ele>
        <time>2026-06-26T10:42:52Z</time>
      </trkpt>
      <trkpt lat="52.632010001689196" lon="-7.050069971010089">
        <ele>73.200000000000003</ele>
        <time>2026-06-26T10:42:53Z</time>
      </trkpt>
      <trkpt lat="52.632054006680846" lon="-7.050254959613085">
        <ele>73.680000000000007</ele>
        <time>2026-06-26T10:42:54Z</time>
      </trkpt>
      <trkpt lat="52.63206398114562" lon="-7.050451012328267">
        <ele>73.680000000000007</ele>
        <time>2026-06-26T10:42:55Z</time>
      </trkpt>
      <trkpt lat="52.632060963660479" lon="-7.050674976781011">
        <ele>74.159999999999997</ele>
        <time>2026-06-26T10:42:56Z</time>
      </trkpt>
      <trkpt lat="52.632086025550961" lon="-7.052910011261702">
        <ele>74.159999999999997</ele>
        <time>2026-06-26T10:43:04Z</time>
      </trkpt>
      <trkpt lat="52.632129024714231" lon="-7.055538995191455">
        <ele>76.079999999999998</ele>
        <time>2026-06-26T10:43:13Z</time>
      </trkpt>
      <trkpt lat="52.631953004747629" lon="-7.057186039164662">
        <ele>76.560000000000002</ele>
        <time>2026-06-26T10:43:20Z</time>
      </trkpt>
      <trkpt lat="52.631700038909912" lon="-7.058892007917166">
        <ele>79.450000000000003</ele>
        <time>2026-06-26T10:43:30Z</time>
      </trkpt>
      <trkpt lat="52.631483031436801" lon="-7.060414999723434">
        <ele>80.890000000000001</ele>
        <time>2026-06-26T10:43:39Z</time>
      </trkpt>
      <trkpt lat="52.631469033658504" lon="-7.060506027191877">
        <ele>80.890000000000001</ele>
        <time>2026-06-26T10:43:40Z</time>
      </trkpt>
      <trkpt lat="52.63146098703146" lon="-7.060568975284696">
        <ele>80.409999999999997</ele>
        <time>2026-06-26T10:43:46Z</time>
      </trkpt>
      <trkpt lat="52.631371971219778" lon="-7.060781959444284">
        <ele>80.890000000000001</ele>
        <time>2026-06-26T10:43:52Z</time>
      </trkpt>
      <trkpt lat="52.631313968449831" lon="-7.06085697747767">
        <ele>81.370000000000005</ele>
        <time>2026-06-26T10:43:53Z</time>
      </trkpt>
      <trkpt lat="52.630935022607446" lon="-7.061365004628897">
        <ele>80.890000000000001</ele>
        <time>2026-06-26T10:43:58Z</time>
      </trkpt>
      <trkpt lat="52.630117032676935" lon="-7.062347028404474">
        <ele>78</ele>
        <time>2026-06-26T10:44:06Z</time>
      </trkpt>
      <trkpt lat="52.630033968016505" lon="-7.062493041157723">
        <ele>77.519999999999996</ele>
        <time>2026-06-26T10:44:07Z</time>
      </trkpt>
      <trkpt lat="52.62995601631701" lon="-7.06263997592032">
        <ele>77.040000000000006</ele>
        <time>2026-06-26T10:44:08Z</time>
      </trkpt>
      <trkpt lat="52.629457041621208" lon="-7.064382992684841">
        <ele>71.760000000000005</ele>
        <time>2026-06-26T10:44:18Z</time>
      </trkpt>
      <trkpt lat="52.629223018884659" lon="-7.065903972834349">
        <ele>66.950000000000003</ele>
        <time>2026-06-26T10:44:27Z</time>
      </trkpt>
      <trkpt lat="52.629140960052609" lon="-7.066201027482748">
        <ele>65.989999999999995</ele>
        <time>2026-06-26T10:44:29Z</time>
      </trkpt>
      <trkpt lat="52.629005005583167" lon="-7.066620038822293">
        <ele>65.989999999999995</ele>
        <time>2026-06-26T10:44:32Z</time>
      </trkpt>
      <trkpt lat="52.628953959792852" lon="-7.0667630340904">
        <ele>65.510000000000005</ele>
        <time>2026-06-26T10:44:33Z</time>
      </trkpt>
      <trkpt lat="52.62853997759521" lon="-7.067953012883663">
        <ele>64.069999999999993</ele>
        <time>2026-06-26T10:44:42Z</time>
      </trkpt>
      <trkpt lat="52.628518017008901" lon="-7.068115035071969">
        <ele>63.579999999999998</ele>
        <time>2026-06-26T10:44:43Z</time>
      </trkpt>
      <trkpt lat="52.628492033109069" lon="-7.06844000145793">
        <ele>62.619999999999997</ele>
        <time>2026-06-26T10:44:45Z</time>
      </trkpt>
      <trkpt lat="52.628419026732445" lon="-7.069387994706631">
        <ele>61.659999999999997</ele>
        <time>2026-06-26T10:44:52Z</time>
      </trkpt>
      <trkpt lat="52.628497984260321" lon="-7.069421019405127">
        <ele>62.140000000000001</ele>
        <time>2026-06-26T10:44:53Z</time>
      </trkpt>
      <trkpt lat="52.628548024222255" lon="-7.069431999698281">
        <ele>62.619999999999997</ele>
        <time>2026-06-26T10:44:54Z</time>
      </trkpt>
      <trkpt lat="52.628604015335441" lon="-7.069444991648197">
        <ele>63.100000000000001</ele>
        <time>2026-06-26T10:44:55Z</time>
      </trkpt>
      <trkpt lat="52.628666963428259" lon="-7.069459995254874">
        <ele>63.100000000000001</ele>
        <time>2026-06-26T10:44:56Z</time>
      </trkpt>
      <trkpt lat="52.628747010603547" lon="-7.069479022175074">
        <ele>63.579999999999998</ele>
        <time>2026-06-26T10:44:57Z</time>
      </trkpt>
      <trkpt lat="52.629728028550744" lon="-7.069677002727985">
        <ele>66.469999999999999</ele>
        <time>2026-06-26T10:45:06Z</time>
      </trkpt>
      <trkpt lat="52.630041008815169" lon="-7.069795019924641">
        <ele>66.469999999999999</ele>
        <time>2026-06-26T10:45:09Z</time>
      </trkpt>
      <trkpt lat="52.630105968564749" lon="-7.069851011037827">
        <ele>66.469999999999999</ele>
        <time>2026-06-26T10:45:10Z</time>
      </trkpt>
      <trkpt lat="52.630161037668586" lon="-7.069913037121296">
        <ele>66.950000000000003</ele>
        <time>2026-06-26T10:45:11Z</time>
      </trkpt>
      <trkpt lat="52.630211999639869" lon="-7.069971961900592">
        <ele>66.950000000000003</ele>
        <time>2026-06-26T10:45:12Z</time>
      </trkpt>
      <trkpt lat="52.630235971882939" lon="-7.070068018510938">
        <ele>66.950000000000003</ele>
        <time>2026-06-26T10:45:13Z</time>
      </trkpt>
      <trkpt lat="52.630261033773422" lon="-7.070204978808761">
        <ele>67.430000000000007</ele>
        <time>2026-06-26T10:45:14Z</time>
      </trkpt>
      <trkpt lat="52.630288023501635" lon="-7.070357026532292">
        <ele>67.909999999999997</ele>
        <time>2026-06-26T10:45:15Z</time>
      </trkpt>
      <trkpt lat="52.630308978259563" lon="-7.070519970729947">
        <ele>68.390000000000001</ele>
        <time>2026-06-26T10:45:16Z</time>
      </trkpt>
      <trkpt lat="52.630381984636188" lon="-7.072318978607655">
        <ele>65.510000000000005</ele>
        <time>2026-06-26T10:45:25Z</time>
      </trkpt>
      <trkpt lat="52.630463959649205" lon="-7.075190031901002">
        <ele>67.909999999999997</ele>
        <time>2026-06-26T10:45:36Z</time>
      </trkpt>
      <trkpt lat="52.63060100376606" lon="-7.076880997046828">
        <ele>65.989999999999995</ele>
        <time>2026-06-26T10:45:43Z</time>
      </trkpt>
      <trkpt lat="52.63066504150629" lon="-7.077088030055165">
        <ele>65.989999999999995</ele>
        <time>2026-06-26T10:45:44Z</time>
      </trkpt>
      <trkpt lat="52.630734024569392" lon="-7.077295985072851">
        <ele>65.510000000000005</ele>
        <time>2026-06-26T10:45:45Z</time>
      </trkpt>
      <trkpt lat="52.630827985703945" lon="-7.07746303640306">
        <ele>65.510000000000005</ele>
        <time>2026-06-26T10:45:46Z</time>
      </trkpt>
      <trkpt lat="52.630939967930317" lon="-7.077619023621082">
        <ele>65.510000000000005</ele>
        <time>2026-06-26T10:45:47Z</time>
      </trkpt>
      <trkpt lat="52.631062008440495" lon="-7.077747015282512">
        <ele>65.989999999999995</ele>
        <time>2026-06-26T10:45:48Z</time>
      </trkpt>
      <trkpt lat="52.631196035072207" lon="-7.077870983630419">
        <ele>65.989999999999995</ele>
        <time>2026-06-26T10:45:49Z</time>
      </trkpt>
      <trkpt lat="52.632349971681833" lon="-7.078916961327195">
        <ele>66.469999999999999</ele>
        <time>2026-06-26T10:45:57Z</time>
      </trkpt>
      <trkpt lat="52.632500007748604" lon="-7.079078983515501">
        <ele>66.950000000000003</ele>
        <time>2026-06-26T10:45:58Z</time>
      </trkpt>
      <trkpt lat="52.634255010634661" lon="-7.081405967473984">
        <ele>69.349999999999994</ele>
        <time>2026-06-26T10:46:10Z</time>
      </trkpt>
      <trkpt lat="52.635018015280366" lon="-7.082947986200452">
        <ele>66.950000000000003</ele>
        <time>2026-06-26T10:46:17Z</time>
      </trkpt>
      <trkpt lat="52.635809015482664" lon="-7.085333978757262">
        <ele>65.989999999999995</ele>
        <time>2026-06-26T10:46:26Z</time>
      </trkpt>
      <trkpt lat="52.636593980714679" lon="-7.088986979797483">
        <ele>69.829999999999998</ele>
        <time>2026-06-26T10:46:39Z</time>
      </trkpt>
      <trkpt lat="52.637050040066242" lon="-7.091702967882156">
        <ele>68.870000000000005</ele>
        <time>2026-06-26T10:46:48Z</time>
      </trkpt>
      <trkpt lat="52.637362014502287" lon="-7.094598999246955">
        <ele>69.829999999999998</ele>
        <time>2026-06-26T10:46:58Z</time>
      </trkpt>
      <trkpt lat="52.637485982850194" lon="-7.09514700807631">
        <ele>69.349999999999994</ele>
        <time>2026-06-26T10:47:00Z</time>
      </trkpt>
      <trkpt lat="52.637565024197102" lon="-7.09540399722755">
        <ele>68.870000000000005</ele>
        <time>2026-06-26T10:47:01Z</time>
      </trkpt>
      <trkpt lat="52.63767097145319" lon="-7.095625028014183">
        <ele>68.390000000000001</ele>
        <time>2026-06-26T10:47:02Z</time>
      </trkpt>
      <trkpt lat="52.637786976993084" lon="-7.095845974981785">
        <ele>68.390000000000001</ele>
        <time>2026-06-26T10:47:03Z</time>
      </trkpt>
      <trkpt lat="52.637902982532978" lon="-7.096067005768418">
        <ele>68.870000000000005</ele>
        <time>2026-06-26T10:47:04Z</time>
      </trkpt>
      <trkpt lat="52.63829399831593" lon="-7.09714500233531">
        <ele>69.349999999999994</ele>
        <time>2026-06-26T10:47:09Z</time>
      </trkpt>
      <trkpt lat="52.638800013810396" lon="-7.099253972992301">
        <ele>68.390000000000001</ele>
        <time>2026-06-26T10:47:17Z</time>
      </trkpt>
      <trkpt lat="52.639642981812358" lon="-7.103046029806137">
        <ele>69.829999999999998</ele>
        <time>2026-06-26T10:47:30Z</time>
      </trkpt>
      <trkpt lat="52.639729985967278" lon="-7.103325985372067">
        <ele>70.310000000000002</ele>
        <time>2026-06-26T10:47:31Z</time>
      </trkpt>
      <trkpt lat="52.64050698839128" lon="-7.105357004329562">
        <ele>74.159999999999997</ele>
        <time>2026-06-26T10:47:39Z</time>
      </trkpt>
      <trkpt lat="52.641657991334796" lon="-7.107719024643302">
        <ele>76.079999999999998</ele>
        <time>2026-06-26T10:47:49Z</time>
      </trkpt>
      <trkpt lat="52.642754008993506" lon="-7.109836963936687">
        <ele>78</ele>
        <time>2026-06-26T10:47:58Z</time>
      </trkpt>
      <trkpt lat="52.64398698695004" lon="-7.112451028078795">
        <ele>76.560000000000002</ele>
        <time>2026-06-26T10:48:09Z</time>
      </trkpt>
      <trkpt lat="52.645049979910254" lon="-7.115070037543774">
        <ele>75.599999999999994</ele>
        <time>2026-06-26T10:48:19Z</time>
      </trkpt>
      <trkpt lat="52.645580973476171" lon="-7.116283988580108">
        <ele>74.159999999999997</ele>
        <time>2026-06-26T10:48:24Z</time>
      </trkpt>
      <trkpt lat="52.645913986489177" lon="-7.118549030274153">
        <ele>75.599999999999994</ele>
        <time>2026-06-26T10:48:32Z</time>
      </trkpt>
      <trkpt lat="52.646208023652434" lon="-7.121882010251284">
        <ele>77.040000000000006</ele>
        <time>2026-06-26T10:48:43Z</time>
      </trkpt>
      <trkpt lat="52.646377002820373" lon="-7.123611029237509">
        <ele>79.450000000000003</ele>
        <time>2026-06-26T10:48:50Z</time>
      </trkpt>
      <trkpt lat="52.646712027490139" lon="-7.125692004337907">
        <ele>78</ele>
        <time>2026-06-26T10:48:59Z</time>
      </trkpt>
      <trkpt lat="52.646742034703493" lon="-7.125856960192323">
        <ele>78</ele>
        <time>2026-06-26T10:49:00Z</time>
      </trkpt>
      <trkpt lat="52.64684203080833" lon="-7.12595603428781">
        <ele>78</ele>
        <time>2026-06-26T10:49:01Z</time>
      </trkpt>
      <trkpt lat="52.646963987499475" lon="-7.126078996807337">
        <ele>78.480000000000004</ele>
        <time>2026-06-26T10:49:06Z</time>
      </trkpt>
      <trkpt lat="52.647006986662745" lon="-7.126121995970607">
        <ele>78.969999999999999</ele>
        <time>2026-06-26T10:49:11Z</time>
      </trkpt>
      <trkpt lat="52.647020984441042" lon="-7.126135993748903">
        <ele>78.969999999999999</ele>
        <time>2026-06-26T10:49:12Z</time>
      </trkpt>
      <trkpt lat="52.647142019122839" lon="-7.126370016485453">
        <ele>78.969999999999999</ele>
        <time>2026-06-26T10:49:13Z</time>
      </trkpt>
      <trkpt lat="52.647135984152555" lon="-7.126526003703475">
        <ele>79.450000000000003</ele>
        <time>2026-06-26T10:49:14Z</time>
      </trkpt>
      <trkpt lat="52.647129027172923" lon="-7.126707974821329">
        <ele>79.930000000000007</ele>
        <time>2026-06-26T10:49:15Z</time>
      </trkpt>
      <trkpt lat="52.647072030231357" lon="-7.128237001597881">
        <ele>79.450000000000003</ele>
        <time>2026-06-26T10:49:21Z</time>
      </trkpt>
      <trkpt lat="52.646942026913166" lon="-7.13236098177731">
        <ele>78.969999999999999</ele>
        <time>2026-06-26T10:49:35Z</time>
      </trkpt>
      <trkpt lat="52.646788973361254" lon="-7.137341005727649">
        <ele>79.930000000000007</ele>
        <time>2026-06-26T10:49:50Z</time>
      </trkpt>
      <trkpt lat="52.646669028326869" lon="-7.141270022839308">
        <ele>80.890000000000001</ele>
        <time>2026-06-26T10:50:02Z</time>
      </trkpt>
      <trkpt lat="52.646594010293484" lon="-7.143469015136361">
        <ele>77.040000000000006</ele>
        <time>2026-06-26T10:50:10Z</time>
      </trkpt>
      <trkpt lat="52.646452020853758" lon="-7.147399038076401">
        <ele>76.079999999999998</ele>
        <time>2026-06-26T10:50:23Z</time>
      </trkpt>
      <trkpt lat="52.646282035857439" lon="-7.150711985304952">
        <ele>82.329999999999998</ele>
        <time>2026-06-26T10:50:34Z</time>
      </trkpt>
      <trkpt lat="52.645878028124571" lon="-7.152983983978629">
        <ele>84.730000000000004</ele>
        <time>2026-06-26T10:50:44Z</time>
      </trkpt>
      <trkpt lat="52.645045034587383" lon="-7.155659990385175">
        <ele>81.370000000000005</ele>
        <time>2026-06-26T10:50:56Z</time>
      </trkpt>
      <trkpt lat="52.644080026075244" lon="-7.158723995089531">
        <ele>74.640000000000001</ele>
        <time>2026-06-26T10:51:08Z</time>
      </trkpt>
      <trkpt lat="52.643080987036228" lon="-7.161907022818923">
        <ele>75.599999999999994</ele>
        <time>2026-06-26T10:51:20Z</time>
      </trkpt>
      <trkpt lat="52.642151014879346" lon="-7.164834989234805">
        <ele>71.269999999999996</ele>
        <time>2026-06-26T10:51:31Z</time>
      </trkpt>
      <trkpt lat="52.641313998028636" lon="-7.167493980377913">
        <ele>73.200000000000003</ele>
        <time>2026-06-26T10:51:42Z</time>
      </trkpt>
      <trkpt lat="52.640404980629683" lon="-7.170407027006149">
        <ele>72.719999999999999</ele>
        <time>2026-06-26T10:51:53Z</time>
      </trkpt>
      <trkpt lat="52.639612974599004" lon="-7.173109017312527">
        <ele>71.760000000000005</ele>
        <time>2026-06-26T10:52:04Z</time>
      </trkpt>
      <trkpt lat="52.639391021803021" lon="-7.175077004358172">
        <ele>70.310000000000002</ele>
        <time>2026-06-26T10:52:11Z</time>
      </trkpt>
      <trkpt lat="52.639599982649088" lon="-7.177619989961386">
        <ele>65.510000000000005</ele>
        <time>2026-06-26T10:52:19Z</time>
      </trkpt>
      <trkpt lat="52.640079008415341" lon="-7.179944962263107">
        <ele>64.069999999999993</ele>
        <time>2026-06-26T10:52:25Z</time>
      </trkpt>
      <trkpt lat="52.640554010868073" lon="-7.181739024817944">
        <ele>65.030000000000001</ele>
        <time>2026-06-26T10:52:31Z</time>
      </trkpt>
      <trkpt lat="52.641136972233653" lon="-7.183897029608488">
        <ele>67.430000000000007</ele>
        <time>2026-06-26T10:52:37Z</time>
      </trkpt>
      <trkpt lat="52.641655979678035" lon="-7.186145978048444">
        <ele>70.790000000000006</ele>
        <time>2026-06-26T10:52:44Z</time>
      </trkpt>
      <trkpt lat="52.642229972407222" lon="-7.189830997958779">
        <ele>70.310000000000002</ele>
        <time>2026-06-26T10:52:57Z</time>
      </trkpt>
      <trkpt lat="52.642502970993519" lon="-7.192373983561993">
        <ele>65.989999999999995</ele>
        <time>2026-06-26T10:53:06Z</time>
      </trkpt>
      <trkpt lat="52.642823997884989" lon="-7.194337025284767">
        <ele>64.069999999999993</ele>
        <time>2026-06-26T10:53:13Z</time>
      </trkpt>
      <trkpt lat="52.643301011994481" lon="-7.195792039856315">
        <ele>65.030000000000001</ele>
        <time>2026-06-26T10:53:19Z</time>
      </trkpt>
      <trkpt lat="52.643378041684628" lon="-7.196022039279342">
        <ele>65.030000000000001</ele>
        <time>2026-06-26T10:53:20Z</time>
      </trkpt>
      <trkpt lat="52.643938036635518" lon="-7.197992959991098">
        <ele>64.069999999999993</ele>
        <time>2026-06-26T10:53:28Z</time>
      </trkpt>
      <trkpt lat="52.644004002213478" lon="-7.198249027132988">
        <ele>63.579999999999998</ele>
        <time>2026-06-26T10:53:29Z</time>
      </trkpt>
      <trkpt lat="52.6446090079844" lon="-7.200911035761237">
        <ele>59.740000000000002</ele>
        <time>2026-06-26T10:53:40Z</time>
      </trkpt>
      <trkpt lat="52.645004969090223" lon="-7.203279007226229">
        <ele>55.890000000000001</ele>
        <time>2026-06-26T10:53:49Z</time>
      </trkpt>
      <trkpt lat="52.64534099958837" lon="-7.204966032877564">
        <ele>53.009999999999998</ele>
        <time>2026-06-26T10:53:56Z</time>
      </trkpt>
      <trkpt lat="52.64540696516633" lon="-7.205214975401759">
        <ele>52.530000000000001</ele>
        <time>2026-06-26T10:53:57Z</time>
      </trkpt>
      <trkpt lat="52.645474020391703" lon="-7.205470958724618">
        <ele>52.049999999999997</ele>
        <time>2026-06-26T10:53:58Z</time>
      </trkpt>
      <trkpt lat="52.645541997626424" lon="-7.205724008381367">
        <ele>52.049999999999997</ele>
        <time>2026-06-26T10:53:59Z</time>
      </trkpt>
      <trkpt lat="52.645630007609725" lon="-7.20596800558269">
        <ele>51.57</ele>
        <time>2026-06-26T10:54:00Z</time>
      </trkpt>
      <trkpt lat="52.646443974226713" lon="-7.208010004833341">
        <ele>49.159999999999997</ele>
        <time>2026-06-26T10:54:09Z</time>
      </trkpt>
      <trkpt lat="52.647429015487432" lon="-7.21035098657012">
        <ele>49.159999999999997</ele>
        <time>2026-06-26T10:54:20Z</time>
      </trkpt>
      <trkpt lat="52.647507973015308" lon="-7.210537986829877">
        <ele>49.159999999999997</ele>
        <time>2026-06-26T10:54:21Z</time>
      </trkpt>
      <trkpt lat="52.648117002099752" lon="-7.211956959217787">
        <ele>51.090000000000003</ele>
        <time>2026-06-26T10:54:30Z</time>
      </trkpt>
      <trkpt lat="52.64841103926301" lon="-7.212632959708571">
        <ele>52.049999999999997</ele>
        <time>2026-06-26T10:54:38Z</time>
      </trkpt>
      <trkpt lat="52.648440040647984" lon="-7.212706971913576">
        <ele>52.049999999999997</ele>
        <time>2026-06-26T10:54:39Z</time>
      </trkpt>
      <trkpt lat="52.648473987355828" lon="-7.212796993553639">
        <ele>52.049999999999997</ele>
        <time>2026-06-26T10:54:40Z</time>
      </trkpt>
      <trkpt lat="52.648458983749151" lon="-7.212975025177002">
        <ele>52.530000000000001</ele>
        <time>2026-06-26T10:54:41Z</time>
      </trkpt>
      <trkpt lat="52.648488990962505" lon="-7.213222039863467">
        <ele>53.009999999999998</ele>
        <time>2026-06-26T10:54:43Z</time>
      </trkpt>
      <trkpt lat="52.648501982912421" lon="-7.213253974914551">
        <ele>53.490000000000002</ele>
        <time>2026-06-26T10:54:44Z</time>
      </trkpt>
      <trkpt lat="52.648644978180528" lon="-7.213613977655768">
        <ele>53.490000000000002</ele>
        <time>2026-06-26T10:54:46Z</time>
      </trkpt>
      <trkpt lat="52.648658975958824" lon="-7.21376501955092">
        <ele>53.490000000000002</ele>
        <time>2026-06-26T10:54:47Z</time>
      </trkpt>
      <trkpt lat="52.648670040071011" lon="-7.213907008990645">
        <ele>53.490000000000002</ele>
        <time>2026-06-26T10:54:48Z</time>
      </trkpt>
      <trkpt lat="52.648717984557152" lon="-7.215498983860016">
        <ele>51.57</ele>
        <time>2026-06-26T10:54:57Z</time>
      </trkpt>
      <trkpt lat="52.648489996790886" lon="-7.21714099869132">
        <ele>48.200000000000003</ele>
        <time>2026-06-26T10:55:06Z</time>
      </trkpt>
      <trkpt lat="52.648244993761182" lon="-7.217974998056889">
        <ele>47.719999999999999</ele>
        <time>2026-06-26T10:55:11Z</time>
      </trkpt>
      <trkpt lat="52.648194031789899" lon="-7.218220001086593">
        <ele>47.719999999999999</ele>
        <time>2026-06-26T10:55:12Z</time>
      </trkpt>
      <trkpt lat="52.648095041513443" lon="-7.218590984120965">
        <ele>48.200000000000003</ele>
        <time>2026-06-26T10:55:14Z</time>
      </trkpt>
      <trkpt lat="52.647858001291752" lon="-7.220398960635066">
        <ele>51.57</ele>
        <time>2026-06-26T10:55:23Z</time>
      </trkpt>
      <trkpt lat="52.647914998233318" lon="-7.22156697884202">
        <ele>55.409999999999997</ele>
        <time>2026-06-26T10:55:29Z</time>
      </trkpt>
      <trkpt lat="52.64794098213315" lon="-7.2217389754951">
        <ele>56.369999999999997</ele>
        <time>2026-06-26T10:55:30Z</time>
      </trkpt>
      <trkpt lat="52.647994039580226" lon="-7.22208003513515">
        <ele>56.859999999999999</ele>
        <time>2026-06-26T10:55:32Z</time>
      </trkpt>
      <trkpt lat="52.648037038743496" lon="-7.222239961847663">
        <ele>57.340000000000003</ele>
        <time>2026-06-26T10:55:33Z</time>
      </trkpt>
      <trkpt lat="52.648080959916115" lon="-7.222406007349491">
        <ele>57.82</ele>
        <time>2026-06-26T10:55:34Z</time>
      </trkpt>
      <trkpt lat="52.648169975727797" lon="-7.222743965685368">
        <ele>58.299999999999997</ele>
        <time>2026-06-26T10:55:36Z</time>
      </trkpt>
      <trkpt lat="52.648226972669363" lon="-7.222920991480351">
        <ele>58.780000000000001</ele>
        <time>2026-06-26T10:55:37Z</time>
      </trkpt>
      <trkpt lat="52.648291010409594" lon="-7.223115032538772">
        <ele>59.259999999999998</ele>
        <time>2026-06-26T10:55:38Z</time>
      </trkpt>
      <trkpt lat="52.648808006197214" lon="-7.224525958299637">
        <ele>59.740000000000002</ele>
        <time>2026-06-26T10:55:47Z</time>
      </trkpt>
      <trkpt lat="52.649098020046949" lon="-7.22543396987021">
        <ele>59.740000000000002</ele>
        <time>2026-06-26T10:55:54Z</time>
      </trkpt>
      <trkpt lat="52.649506973102689" lon="-7.226883033290505">
        <ele>59.259999999999998</ele>
        <time>2026-06-26T10:56:03Z</time>
      </trkpt>
      <trkpt lat="52.649704031646252" lon="-7.227737987414002">
        <ele>60.700000000000003</ele>
        <time>2026-06-26T10:56:09Z</time>
      </trkpt>
      <trkpt lat="52.649720041081309" lon="-7.227815017104149">
        <ele>60.700000000000003</ele>
        <time>2026-06-26T10:56:11Z</time>
      </trkpt>
      <trkpt lat="52.649742001667619" lon="-7.227914007380605">
        <ele>61.659999999999997</ele>
        <time>2026-06-26T10:56:20Z</time>
      </trkpt>
      <trkpt lat="52.649778965860605" lon="-7.228084998205304">
        <ele>62.140000000000001</ele>
        <time>2026-06-26T10:56:23Z</time>
      </trkpt>
      <trkpt lat="52.649747030809522" lon="-7.228252971544862">
        <ele>62.140000000000001</ele>
        <time>2026-06-26T10:56:24Z</time>
      </trkpt>
      <trkpt lat="52.649696990847588" lon="-7.228599982336164">
        <ele>62.619999999999997</ele>
        <time>2026-06-26T10:56:29Z</time>
      </trkpt>
      <trkpt lat="52.6497239805758" lon="-7.228667959570885">
        <ele>62.619999999999997</ele>
        <time>2026-06-26T10:56:30Z</time>
      </trkpt>
      <trkpt lat="52.649790029972792" lon="-7.228859988972545">
        <ele>62.619999999999997</ele>
        <time>2026-06-26T10:56:32Z</time>
      </trkpt>
      <trkpt lat="52.6498310174793" lon="-7.228987980633974">
        <ele>63.100000000000001</ele>
        <time>2026-06-26T10:56:33Z</time>
      </trkpt>
      <trkpt lat="52.649876028299332" lon="-7.229127958416939">
        <ele>63.100000000000001</ele>
        <time>2026-06-26T10:56:34Z</time>
      </trkpt>
      <trkpt lat="52.650139974430203" lon="-7.231040960177779">
        <ele>61.18</ele>
        <time>2026-06-26T10:56:45Z</time>
      </trkpt>
      <trkpt lat="52.650578012689948" lon="-7.233477998524904">
        <ele>59.740000000000002</ele>
        <time>2026-06-26T10:57:00Z</time>
      </trkpt>
      <trkpt lat="52.651015967130661" lon="-7.235229983925819">
        <ele>60.700000000000003</ele>
        <time>2026-06-26T10:57:11Z</time>
      </trkpt>
      <trkpt lat="52.651316961273551" lon="-7.23649799823761">
        <ele>61.659999999999997</ele>
        <time>2026-06-26T10:57:20Z</time>
      </trkpt>
      <trkpt lat="52.65152701176703" lon="-7.237583035603166">
        <ele>60.219999999999999</ele>
        <time>2026-06-26T10:57:28Z</time>
      </trkpt>
      <trkpt lat="52.651652991771698" lon="-7.238272028043866">
        <ele>59.259999999999998</ele>
        <time>2026-06-26T10:57:33Z</time>
      </trkpt>
      <trkpt lat="52.651804033666849" lon="-7.238809978589416">
        <ele>57.82</ele>
        <time>2026-06-26T10:57:37Z</time>
      </trkpt>
      <trkpt lat="52.651981981471181" lon="-7.239456977695227">
        <ele>56.859999999999999</ele>
        <time>2026-06-26T10:57:42Z</time>
      </trkpt>
      <trkpt lat="52.652016011998057" lon="-7.239583041518927">
        <ele>56.859999999999999</ele>
        <time>2026-06-26T10:57:43Z</time>
      </trkpt>
      <trkpt lat="52.652265038341284" lon="-7.240378987044096">
        <ele>55.890000000000001</ele>
        <time>2026-06-26T10:57:52Z</time>
      </trkpt>
      <trkpt lat="52.652654964476824" lon="-7.241439968347549">
        <ele>52.530000000000001</ele>
        <time>2026-06-26T10:58:02Z</time>
      </trkpt>
      <trkpt lat="52.652710033580661" lon="-7.24156703799963">
        <ele>52.530000000000001</ele>
        <time>2026-06-26T10:58:03Z</time>
      </trkpt>
      <trkpt lat="52.652762001380324" lon="-7.241687988862395">
        <ele>52.530000000000001</ele>
        <time>2026-06-26T10:58:04Z</time>
      </trkpt>
      <trkpt lat="52.652815980836749" lon="-7.241812963038683">
        <ele>52.530000000000001</ele>
        <time>2026-06-26T10:58:05Z</time>
      </trkpt>
      <trkpt lat="52.652870966121554" lon="-7.241941038519144">
        <ele>52.530000000000001</ele>
        <time>2026-06-26T10:58:06Z</time>
      </trkpt>
      <trkpt lat="52.652925029397011" lon="-7.242067018523812">
        <ele>52.049999999999997</ele>
        <time>2026-06-26T10:58:07Z</time>
      </trkpt>
      <trkpt lat="52.653417969122529" lon="-7.24322103895247">
        <ele>50.130000000000003</ele>
        <time>2026-06-26T10:58:17Z</time>
      </trkpt>
      <trkpt lat="52.653785012662411" lon="-7.244133995845914">
        <ele>48.68</ele>
        <time>2026-06-26T10:58:25Z</time>
      </trkpt>
      <trkpt lat="52.653828011825681" lon="-7.244229968637228">
        <ele>48.68</ele>
        <time>2026-06-26T10:58:26Z</time>
      </trkpt>
      <trkpt lat="52.653867993503809" lon="-7.24431898444891">
        <ele>48.200000000000003</ele>
        <time>2026-06-26T10:58:27Z</time>
      </trkpt>
      <trkpt lat="52.653971007093787" lon="-7.244547978043556">
        <ele>47.240000000000002</ele>
        <time>2026-06-26T10:58:34Z</time>
      </trkpt>
      <trkpt lat="52.654102016240358" lon="-7.244840003550053">
        <ele>46.759999999999998</ele>
        <time>2026-06-26T10:58:49Z</time>
      </trkpt>
      <trkpt lat="52.654430000111461" lon="-7.245431011542678">
        <ele>47.719999999999999</ele>
        <time>2026-06-26T10:58:58Z</time>
      </trkpt>
      <trkpt lat="52.654455984011292" lon="-7.24548096768558">
        <ele>47.719999999999999</ele>
        <time>2026-06-26T10:58:59Z</time>
      </trkpt>
      <trkpt lat="52.654482973739505" lon="-7.245531007647514">
        <ele>47.719999999999999</ele>
        <time>2026-06-26T10:59:00Z</time>
      </trkpt>
      <trkpt lat="52.654509963467717" lon="-7.245581969618797">
        <ele>47.719999999999999</ele>
        <time>2026-06-26T10:59:01Z</time>
      </trkpt>
      <trkpt lat="52.654537037014961" lon="-7.245633015409112">
        <ele>48.200000000000003</ele>
        <time>2026-06-26T10:59:02Z</time>
      </trkpt>
      <trkpt lat="52.654565032571554" lon="-7.245685989037156">
        <ele>48.200000000000003</ele>
        <time>2026-06-26T10:59:03Z</time>
      </trkpt>
      <trkpt lat="52.654813975095749" lon="-7.246298035606742">
        <ele>52.049999999999997</ele>
        <time>2026-06-26T10:59:12Z</time>
      </trkpt>
      <trkpt lat="52.65483601950109" lon="-7.24636098369956">
        <ele>52.530000000000001</ele>
        <time>2026-06-26T10:59:13Z</time>
      </trkpt>
      <trkpt lat="52.65485898591578" lon="-7.24642401561141">
        <ele>52.530000000000001</ele>
        <time>2026-06-26T10:59:14Z</time>
      </trkpt>
      <trkpt lat="52.654882036149502" lon="-7.246483024209738">
        <ele>53.009999999999998</ele>
        <time>2026-06-26T10:59:15Z</time>
      </trkpt>
      <trkpt lat="52.65492201782763" lon="-7.246556030586362">
        <ele>53.009999999999998</ele>
        <time>2026-06-26T10:59:16Z</time>
      </trkpt>
      <trkpt lat="52.654982032254338" lon="-7.246663989499211">
        <ele>53.490000000000002</ele>
        <time>2026-06-26T10:59:17Z</time>
      </trkpt>
      <trkpt lat="52.655012961477041" lon="-7.246701959520578">
        <ele>53.490000000000002</ele>
        <time>2026-06-26T10:59:18Z</time>
      </trkpt>
      <trkpt lat="52.655060989782214" lon="-7.246761973947287">
        <ele>53.490000000000002</ele>
        <time>2026-06-26T10:59:19Z</time>
      </trkpt>
      <trkpt lat="52.655103988945484" lon="-7.246816037222743">
        <ele>53.969999999999999</ele>
        <time>2026-06-26T10:59:20Z</time>
      </trkpt>
      <trkpt lat="52.655449993908405" lon="-7.247254997491837">
        <ele>53.969999999999999</ele>
        <time>2026-06-26T10:59:30Z</time>
      </trkpt>
      <trkpt lat="52.655562981963158" lon="-7.247452978044748">
        <ele>53.969999999999999</ele>
        <time>2026-06-26T10:59:33Z</time>
      </trkpt>
      <trkpt lat="52.655832041054964" lon="-7.248082961887121">
        <ele>53.009999999999998</ele>
        <time>2026-06-26T10:59:39Z</time>
      </trkpt>
      <trkpt lat="52.656018035486341" lon="-7.248518988490105">
        <ele>50.130000000000003</ele>
        <time>2026-06-26T10:59:43Z</time>
      </trkpt>
      <trkpt lat="52.656261026859283" lon="-7.24908703006804">
        <ele>47.719999999999999</ele>
        <time>2026-06-26T10:59:48Z</time>
      </trkpt>
      <trkpt lat="52.656682971864939" lon="-7.250072993338108">
        <ele>44.840000000000003</ele>
        <time>2026-06-26T10:59:57Z</time>
      </trkpt>
      <trkpt lat="52.656718008220196" lon="-7.250156980007887">
        <ele>44.359999999999999</ele>
        <time>2026-06-26T10:59:58Z</time>
      </trkpt>
      <trkpt lat="52.656753966584802" lon="-7.250178018584848">
        <ele>43.880000000000003</ele>
        <time>2026-06-26T10:59:59Z</time>
      </trkpt>
      <trkpt lat="52.656892016530037" lon="-7.25033400580287">
        <ele>42.439999999999998</ele>
        <time>2026-06-26T11:00:04Z</time>
      </trkpt>
      <trkpt lat="52.656892016530037" lon="-7.250405000522733">
        <ele>42.439999999999998</ele>
        <time>2026-06-26T11:00:05Z</time>
      </trkpt>
      <trkpt lat="52.656892016530037" lon="-7.250510025769472">
        <ele>42.439999999999998</ele>
        <time>2026-06-26T11:00:06Z</time>
      </trkpt>
      <trkpt lat="52.656892016530037" lon="-7.250630976632237">
        <ele>42.439999999999998</ele>
        <time>2026-06-26T11:00:07Z</time>
      </trkpt>
      <trkpt lat="52.656892016530037" lon="-7.250761985778809">
        <ele>42.920000000000002</ele>
        <time>2026-06-26T11:00:08Z</time>
      </trkpt>
      <trkpt lat="52.656913977116346" lon="-7.251540999859572">
        <ele>42.920000000000002</ele>
        <time>2026-06-26T11:00:14Z</time>
      </trkpt>
      <trkpt lat="52.65692101791501" lon="-7.251648036763072">
        <ele>42.920000000000002</ele>
        <time>2026-06-26T11:00:15Z</time>
      </trkpt>
      <trkpt lat="52.65694297850132" lon="-7.252361001446843">
        <ele>43.880000000000003</ele>
        <time>2026-06-26T11:00:22Z</time>
      </trkpt>
      <trkpt lat="52.656993018463254" lon="-7.253754995763302">
        <ele>44.359999999999999</ele>
        <time>2026-06-26T11:00:31Z</time>
      </trkpt>
      <trkpt lat="52.656987989321351" lon="-7.253895979374647">
        <ele>44.840000000000003</ele>
        <time>2026-06-26T11:00:32Z</time>
      </trkpt>
      <trkpt lat="52.656982960179448" lon="-7.254040986299515">
        <ele>44.840000000000003</ele>
        <time>2026-06-26T11:00:33Z</time>
      </trkpt>
      <trkpt lat="52.656968040391803" lon="-7.254203008487821">
        <ele>44.840000000000003</ele>
        <time>2026-06-26T11:00:34Z</time>
      </trkpt>
      <trkpt lat="52.656923029571772" lon="-7.254344997927547">
        <ele>44.840000000000003</ele>
        <time>2026-06-26T11:00:35Z</time>
      </trkpt>
      <trkpt lat="52.656876007094979" lon="-7.254490004852414">
        <ele>44.840000000000003</ele>
        <time>2026-06-26T11:00:36Z</time>
      </trkpt>
      <trkpt lat="52.656828984618187" lon="-7.254635011777282">
        <ele>44.359999999999999</ele>
        <time>2026-06-26T11:00:37Z</time>
      </trkpt>
      <trkpt lat="52.656786991283298" lon="-7.254765015095472">
        <ele>44.359999999999999</ele>
        <time>2026-06-26T11:00:38Z</time>
      </trkpt>
      <trkpt lat="52.656746003776789" lon="-7.254873979836702">
        <ele>44.359999999999999</ele>
        <time>2026-06-26T11:00:39Z</time>
      </trkpt>
      <trkpt lat="52.656654976308346" lon="-7.255056034773588">
        <ele>43.880000000000003</ele>
        <time>2026-06-26T11:00:41Z</time>
      </trkpt>
      <trkpt lat="52.656453978270292" lon="-7.255433974787593">
        <ele>43.399999999999999</ele>
        <time>2026-06-26T11:00:46Z</time>
      </trkpt>
      <trkpt lat="52.656397987157106" lon="-7.255526008084416">
        <ele>43.399999999999999</ele>
        <time>2026-06-26T11:00:47Z</time>
      </trkpt>
      <trkpt lat="52.656223978847265" lon="-7.255827002227306">
        <ele>43.399999999999999</ele>
        <time>2026-06-26T11:00:50Z</time>
      </trkpt>
      <trkpt lat="52.656162036582828" lon="-7.255933033302426">
        <ele>43.399999999999999</ele>
        <time>2026-06-26T11:00:51Z</time>
      </trkpt>
      <trkpt lat="52.656072014942765" lon="-7.25609203800559">
        <ele>43.880000000000003</ele>
        <time>2026-06-26T11:00:53Z</time>
      </trkpt>
      <trkpt lat="52.65603999607265" lon="-7.256148029118776">
        <ele>44.359999999999999</ele>
        <time>2026-06-26T11:00:54Z</time>
      </trkpt>
      <trkpt lat="52.655952991917729" lon="-7.256166972219944">
        <ele>44.359999999999999</ele>
        <time>2026-06-26T11:00:55Z</time>
      </trkpt>
      <trkpt lat="52.655932959169149" lon="-7.256133025512099">
        <ele>44.359999999999999</ele>
        <time>2026-06-26T11:00:56Z</time>
      </trkpt>
      <trkpt lat="52.655913010239601" lon="-7.256096983328462">
        <ele>44.840000000000003</ele>
        <time>2026-06-26T11:00:57Z</time>
      </trkpt>
      <trkpt lat="52.655889960005879" lon="-7.256054989993572">
        <ele>44.840000000000003</ele>
        <time>2026-06-26T11:00:58Z</time>
      </trkpt>
      <trkpt lat="52.655864981934428" lon="-7.256011990830302">
        <ele>45.32</ele>
        <time>2026-06-26T11:00:59Z</time>
      </trkpt>
      <trkpt lat="52.655757023021579" lon="-7.255820967257023">
        <ele>47.240000000000002</ele>
        <time>2026-06-26T11:01:04Z</time>
      </trkpt>
      <trkpt lat="52.655727015808225" lon="-7.255765981972218">
        <ele>47.719999999999999</ele>
        <time>2026-06-26T11:01:05Z</time>
      </trkpt>
      <trkpt lat="52.65569600276649" lon="-7.255710996687412">
        <ele>47.719999999999999</ele>
        <time>2026-06-26T11:01:06Z</time>
      </trkpt>
      <trkpt lat="52.655663983896375" lon="-7.255649976432324">
        <ele>48.200000000000003</ele>
        <time>2026-06-26T11:01:07Z</time>
      </trkpt>
      <trkpt lat="52.655628025531769" lon="-7.255584010854363">
        <ele>48.200000000000003</ele>
        <time>2026-06-26T11:01:08Z</time>
      </trkpt>
      <trkpt lat="52.655592989176512" lon="-7.255518967285752">
        <ele>49.159999999999997</ele>
        <time>2026-06-26T11:01:09Z</time>
      </trkpt>
      <trkpt lat="52.655455023050308" lon="-7.255260972306132">
        <ele>51.090000000000003</ele>
        <time>2026-06-26T11:01:14Z</time>
      </trkpt>
      <trkpt lat="52.655389979481697" lon="-7.255139015614986">
        <ele>51.57</ele>
        <time>2026-06-26T11:01:16Z</time>
      </trkpt>
      <trkpt lat="52.655367013067007" lon="-7.255127029493451">
        <ele>52.049999999999997</ele>
        <time>2026-06-26T11:01:17Z</time>
      </trkpt>
      <trkpt lat="52.655108012259007" lon="-7.254985962063074">
        <ele>53.969999999999999</ele>
        <time>2026-06-26T11:01:25Z</time>
      </trkpt>
      <trkpt lat="52.655059983953834" lon="-7.254959978163242">
        <ele>54.450000000000003</ele>
        <time>2026-06-26T11:01:26Z</time>
      </trkpt>
      <trkpt lat="52.655012039467692" lon="-7.25493298843503">
        <ele>54.450000000000003</ele>
        <time>2026-06-26T11:01:27Z</time>
      </trkpt>
      <trkpt lat="52.654970968142152" lon="-7.254911027848721">
        <ele>54.93</ele>
        <time>2026-06-26T11:01:28Z</time>
      </trkpt>
      <trkpt lat="52.654935009777546" lon="-7.254892000928521">
        <ele>54.93</ele>
        <time>2026-06-26T11:01:29Z</time>
      </trkpt>
      <trkpt lat="52.654905002564192" lon="-7.254873979836702">
        <ele>54.93</ele>
        <time>2026-06-26T11:01:30Z</time>
      </trkpt>
      <trkpt lat="52.654868960380554" lon="-7.254851013422012">
        <ele>54.93</ele>
        <time>2026-06-26T11:01:31Z</time>
      </trkpt>
      <trkpt lat="52.654831996187568" lon="-7.254827041178942">
        <ele>54.450000000000003</ele>
        <time>2026-06-26T11:01:32Z</time>
      </trkpt>
      <trkpt lat="52.654569977894425" lon="-7.254648003727198">
        <ele>56.859999999999999</ele>
        <time>2026-06-26T11:01:40Z</time>
      </trkpt>
      <trkpt lat="52.654552962630987" lon="-7.254634005948901">
        <ele>57.340000000000003</ele>
        <time>2026-06-26T11:01:52Z</time>
      </trkpt>
      <trkpt lat="52.654331009835005" lon="-7.254453040659428">
        <ele>55.409999999999997</ele>
        <time>2026-06-26T11:02:04Z</time>
      </trkpt>
      <trkpt lat="52.653873022645712" lon="-7.254125978797674">
        <ele>52.530000000000001</ele>
        <time>2026-06-26T11:02:19Z</time>
      </trkpt>
      <trkpt lat="52.653856007382274" lon="-7.254059007391334">
        <ele>52.530000000000001</ele>
        <time>2026-06-26T11:02:20Z</time>
      </trkpt>
      <trkpt lat="52.65386899933219" lon="-7.254001004621387">
        <ele>52.530000000000001</ele>
        <time>2026-06-26T11:02:21Z</time>
      </trkpt>
      <trkpt lat="52.653882997110486" lon="-7.253939984366298">
        <ele>52.530000000000001</ele>
        <time>2026-06-26T11:02:22Z</time>
      </trkpt>
      <trkpt lat="52.653899006545544" lon="-7.253881981596351">
        <ele>52.530000000000001</ele>
        <time>2026-06-26T11:02:23Z</time>
      </trkpt>
      <trkpt lat="52.65391199849546" lon="-7.253838982433081">
        <ele>52.530000000000001</ele>
        <time>2026-06-26T11:02:24Z</time>
      </trkpt>
      <trkpt lat="52.65408399514854" lon="-7.253284016624093">
        <ele>50.130000000000003</ele>
        <time>2026-06-26T11:02:32Z</time>
      </trkpt>
      <trkpt lat="52.654123976826668" lon="-7.253147978335619">
        <ele>49.159999999999997</ele>
        <time>2026-06-26T11:02:34Z</time>
      </trkpt>
      <trkpt lat="52.654143003746867" lon="-7.253081006929278">
        <ele>48.68</ele>
        <time>2026-06-26T11:02:35Z</time>
      </trkpt>
      <trkpt lat="52.654163958504796" lon="-7.253009006381035">
        <ele>48.200000000000003</ele>
        <time>2026-06-26T11:02:36Z</time>
      </trkpt>
      <trkpt lat="52.654183991253376" lon="-7.252941029146314">
        <ele>47.719999999999999</ele>
        <time>2026-06-26T11:02:37Z</time>
      </trkpt>
      <trkpt lat="52.654198994860053" lon="-7.252888977527618">
        <ele>47.240000000000002</ele>
        <time>2026-06-26T11:02:38Z</time>
      </trkpt>
      <trkpt lat="52.654220033437014" lon="-7.252818988636136">
        <ele>46.759999999999998</ele>
        <time>2026-06-26T11:02:47Z</time>
      </trkpt>
      <trkpt lat="52.654220033437014" lon="-7.252818988636136">
        <ele>46.759999999999998</ele>
        <time>2026-06-26T11:03:24Z</time>
      </trkpt>
      <trkpt lat="52.654220033437014" lon="-7.252818988636136">
        <ele>46.759999999999998</ele>
        <time>2026-06-26T11:04:14Z</time>
      </trkpt>
      <trkpt lat="52.654220033437014" lon="-7.252818988636136">
        <ele>46.280000000000001</ele>
        <time>2026-06-26T11:05:07Z</time>
      </trkpt>
      <trkpt lat="52.654220033437014" lon="-7.252818988636136">
        <ele>46.280000000000001</ele>
        <time>2026-06-26T11:05:49Z</time>
      </trkpt>
      <trkpt lat="52.654220033437014" lon="-7.252818988636136">
        <ele>46.280000000000001</ele>
        <time>2026-06-26T11:06:44Z</time>
      </trkpt>
      <trkpt lat="52.654220033437014" lon="-7.252818988636136">
        <ele>46.280000000000001</ele>
        <time>2026-06-26T11:07:17Z</time>
      </trkpt>
      <trkpt lat="52.654231013730168" lon="-7.252779006958008">
        <ele>46.280000000000001</ele>
        <time>2026-06-26T11:07:26Z</time>
      </trkpt>
      <trkpt lat="52.654222967103124" lon="-7.252772971987724">
        <ele>46.280000000000001</ele>
        <time>2026-06-26T11:07:27Z</time>
      </trkpt>
      <trkpt lat="52.654204024001956" lon="-7.252757968381047">
        <ele>45.799999999999997</ele>
        <time>2026-06-26T11:07:28Z</time>
      </trkpt>
      <trkpt lat="52.654182985424995" lon="-7.25274296477437">
        <ele>45.799999999999997</ele>
        <time>2026-06-26T11:07:29Z</time>
      </trkpt>
      <trkpt lat="52.654231013730168" lon="-7.252780012786388">
        <ele>46.280000000000001</ele>
        <time>2026-06-26T11:07:30Z</time>
      </trkpt>
      <trkpt lat="52.654221039265394" lon="-7.252814965322614">
        <ele>46.280000000000001</ele>
        <time>2026-06-26T11:07:31Z</time>
      </trkpt>
      <trkpt lat="52.654207041487098" lon="-7.252860981971026">
        <ele>46.280000000000001</ele>
        <time>2026-06-26T11:07:32Z</time>
      </trkpt>
      <trkpt lat="52.654189020395279" lon="-7.252925019711256">
        <ele>46.759999999999998</ele>
        <time>2026-06-26T11:07:33Z</time>
      </trkpt>
      <trkpt lat="52.653957009315491" lon="-7.253693975508213">
        <ele>50.130000000000003</ele>
        <time>2026-06-26T11:07:44Z</time>
      </trkpt>
      <trkpt lat="52.653943011537194" lon="-7.253738986328244">
        <ele>50.609999999999999</ele>
        <time>2026-06-26T11:07:52Z</time>
      </trkpt>
      <trkpt lat="52.653943011537194" lon="-7.253738986328244">
        <ele>50.609999999999999</ele>
        <time>2026-06-26T11:08:42Z</time>
      </trkpt>
      <trkpt lat="52.65387000516057" lon="-7.253995975479484">
        <ele>55.409999999999997</ele>
        <time>2026-06-26T11:09:13Z</time>
      </trkpt>
      <trkpt lat="52.653856007382274" lon="-7.254061019048095">
        <ele>56.369999999999997</ele>
        <time>2026-06-26T11:09:14Z</time>
      </trkpt>
      <trkpt lat="52.653895989060402" lon="-7.254139976575971">
        <ele>56.859999999999999</ele>
        <time>2026-06-26T11:09:15Z</time>
      </trkpt>
      <trkpt lat="52.65393303707242" lon="-7.254162020981312">
        <ele>57.340000000000003</ele>
        <time>2026-06-26T11:09:16Z</time>
      </trkpt>
      <trkpt lat="52.653973018750548" lon="-7.254185993224382">
        <ele>57.340000000000003</ele>
        <time>2026-06-26T11:09:17Z</time>
      </trkpt>
      <trkpt lat="52.65402096323669" lon="-7.254214994609356">
        <ele>57.340000000000003</ele>
        <time>2026-06-26T11:09:18Z</time>
      </trkpt>
      <trkpt lat="52.654065974056721" lon="-7.25424399599433">
        <ele>57.340000000000003</ele>
        <time>2026-06-26T11:09:19Z</time>
      </trkpt>
      <trkpt lat="52.6541499607265" lon="-7.25430996157229">
        <ele>57.340000000000003</ele>
        <time>2026-06-26T11:09:21Z</time>
      </trkpt>
      <trkpt lat="52.654445003718138" lon="-7.254541972652078">
        <ele>60.700000000000003</ele>
        <time>2026-06-26T11:09:29Z</time>
      </trkpt>
      <trkpt lat="52.654483979567885" lon="-7.254573991522193">
        <ele>60.700000000000003</ele>
        <time>2026-06-26T11:09:30Z</time>
      </trkpt>
      <trkpt lat="52.654523039236665" lon="-7.254608022049069">
        <ele>60.700000000000003</ele>
        <time>2026-06-26T11:09:31Z</time>
      </trkpt>
      <trkpt lat="52.654563020914793" lon="-7.254641968756914">
        <ele>61.18</ele>
        <time>2026-06-26T11:09:32Z</time>
      </trkpt>
      <trkpt lat="52.654603002592921" lon="-7.254677005112171">
        <ele>61.18</ele>
        <time>2026-06-26T11:09:33Z</time>
      </trkpt>
      <trkpt lat="52.654963005334139" lon="-7.254907004535198">
        <ele>59.740000000000002</ele>
        <time>2026-06-26T11:09:42Z</time>
      </trkpt>
      <trkpt lat="52.655083034187555" lon="-7.254971964284778">
        <ele>56.859999999999999</ele>
        <time>2026-06-26T11:09:45Z</time>
      </trkpt>
      <trkpt lat="52.655118992552161" lon="-7.254991997033358">
        <ele>55.890000000000001</ele>
        <time>2026-06-26T11:09:46Z</time>
      </trkpt>
      <trkpt lat="52.655215971171856" lon="-7.255044970661402">
        <ele>52.049999999999997</ele>
        <time>2026-06-26T11:09:54Z</time>
      </trkpt>
      <trkpt lat="52.655215971171856" lon="-7.255044970661402">
        <ele>52.049999999999997</ele>
        <time>2026-06-26T11:10:27Z</time>
      </trkpt>
      <trkpt lat="52.655397020280361" lon="-7.255152007564902">
        <ele>49.649999999999999</ele>
        <time>2026-06-26T11:10:42Z</time>
      </trkpt>
      <trkpt lat="52.655424010008574" lon="-7.255203975364566">
        <ele>48.68</ele>
        <time>2026-06-26T11:10:43Z</time>
      </trkpt>
      <trkpt lat="52.655453011393547" lon="-7.255258038640022">
        <ele>47.719999999999999</ele>
        <time>2026-06-26T11:10:44Z</time>
      </trkpt>
      <trkpt lat="52.655482012778521" lon="-7.255311012268066">
        <ele>47.240000000000002</ele>
        <time>2026-06-26T11:10:45Z</time>
      </trkpt>
      <trkpt lat="52.655504979193211" lon="-7.255354011431336">
        <ele>46.280000000000001</ele>
        <time>2026-06-26T11:10:46Z</time>
      </trkpt>
      <trkpt lat="52.655523000285029" lon="-7.255388963967562">
        <ele>45.32</ele>
        <time>2026-06-26T11:10:47Z</time>
      </trkpt>
      <trkpt lat="52.655541021376848" lon="-7.255420982837677">
        <ele>43.880000000000003</ele>
        <time>2026-06-26T11:10:48Z</time>
      </trkpt>
      <trkpt lat="52.655561976134777" lon="-7.255460964515805">
        <ele>42.920000000000002</ele>
        <time>2026-06-26T11:10:49Z</time>
      </trkpt>
      <trkpt lat="52.65558703802526" lon="-7.255507986992598">
        <ele>42.439999999999998</ele>
        <time>2026-06-26T11:10:50Z</time>
      </trkpt>
      <trkpt lat="52.655827011913061" lon="-7.255945019423962">
        <ele>37.630000000000003</ele>
        <time>2026-06-26T11:10:59Z</time>
      </trkpt>
      <trkpt lat="52.655961038544774" lon="-7.25628700107336">
        <ele>37.630000000000003</ele>
        <time>2026-06-26T11:11:03Z</time>
      </trkpt>
      <trkpt lat="52.655942011624575" lon="-7.256322037428618">
        <ele>37.630000000000003</ele>
        <time>2026-06-26T11:11:04Z</time>
      </trkpt>
      <trkpt lat="52.65591099858284" lon="-7.256378028541803">
        <ele>37.630000000000003</ele>
        <time>2026-06-26T11:11:05Z</time>
      </trkpt>
      <trkpt lat="52.655837992206216" lon="-7.256509959697723">
        <ele>38.109999999999999</ele>
        <time>2026-06-26T11:11:07Z</time>
      </trkpt>
      <trkpt lat="52.655768003314734" lon="-7.256637029349804">
        <ele>39.07</ele>
        <time>2026-06-26T11:11:09Z</time>
      </trkpt>
      <trkpt lat="52.655734978616238" lon="-7.256701989099383">
        <ele>39.549999999999997</ele>
        <time>2026-06-26T11:11:10Z</time>
      </trkpt>
      <trkpt lat="52.655702959746122" lon="-7.256766026839614">
        <ele>40.030000000000001</ele>
        <time>2026-06-26T11:11:11Z</time>
      </trkpt>
      <trkpt lat="52.6556730363518" lon="-7.256826963275671">
        <ele>40.509999999999998</ele>
        <time>2026-06-26T11:11:12Z</time>
      </trkpt>
      <trkpt lat="52.655645040795207" lon="-7.256882032379508">
        <ele>40.509999999999998</ele>
        <time>2026-06-26T11:11:13Z</time>
      </trkpt>
      <trkpt lat="52.655616039410233" lon="-7.256941040977836">
        <ele>40.990000000000002</ele>
        <time>2026-06-26T11:11:14Z</time>
      </trkpt>
      <trkpt lat="52.655491987243295" lon="-7.257205992937088">
        <ele>42.920000000000002</ele>
        <time>2026-06-26T11:11:18Z</time>
      </trkpt>
      <trkpt lat="52.655435996130109" lon="-7.25733800791204">
        <ele>43.399999999999999</ele>
        <time>2026-06-26T11:11:20Z</time>
      </trkpt>
      <trkpt lat="52.655289983376861" lon="-7.257664985954762">
        <ele>44.359999999999999</ele>
        <time>2026-06-26T11:11:25Z</time>
      </trkpt>
      <trkpt lat="52.655233992263675" lon="-7.257781997323036">
        <ele>45.32</ele>
        <time>2026-06-26T11:11:27Z</time>
      </trkpt>
      <trkpt lat="52.655212031677365" lon="-7.257828013971448">
        <ele>46.280000000000001</ele>
        <time>2026-06-26T11:11:29Z</time>
      </trkpt>
      <trkpt lat="52.655194010585546" lon="-7.257866989821196">
        <ele>46.759999999999998</ele>
        <time>2026-06-26T11:11:30Z</time>
      </trkpt>
      <trkpt lat="52.655154028907418" lon="-7.257949970662594">
        <ele>49.649999999999999</ele>
        <time>2026-06-26T11:11:37Z</time>
      </trkpt>
      <trkpt lat="52.655154028907418" lon="-7.257949970662594">
        <ele>50.130000000000003</ele>
        <time>2026-06-26T11:11:38Z</time>
      </trkpt>
      <trkpt lat="52.655209014192224" lon="-7.258005039766431">
        <ele>51.090000000000003</ele>
        <time>2026-06-26T11:11:42Z</time>
      </trkpt>
      <trkpt lat="52.655386039987206" lon="-7.257846035063267">
        <ele>49.159999999999997</ele>
        <time>2026-06-26T11:11:50Z</time>
      </trkpt>
      <trkpt lat="52.655397020280361" lon="-7.257820973172784">
        <ele>49.159999999999997</ele>
        <time>2026-06-26T11:11:51Z</time>
      </trkpt>
      <trkpt lat="52.655402971431613" lon="-7.257807981222868">
        <ele>48.68</ele>
        <time>2026-06-26T11:11:52Z</time>
      </trkpt>
      <trkpt lat="52.655402971431613" lon="-7.257807981222868">
        <ele>48.200000000000003</ele>
        <time>2026-06-26T11:11:53Z</time>
      </trkpt>
      <trkpt lat="52.655402971431613" lon="-7.257807981222868">
        <ele>48.200000000000003</ele>
        <time>2026-06-26T11:12:08Z</time>
      </trkpt>
      <trkpt lat="52.655402971431613" lon="-7.257807981222868">
        <ele>47.719999999999999</ele>
        <time>2026-06-26T11:12:55Z</time>
      </trkpt>
      <trkpt lat="52.655387967824936" lon="-7.257818039506674">
        <ele>60.700000000000003</ele>
        <time>2026-06-26T12:38:05Z</time>
      </trkpt>
      <trkpt lat="52.655429039150476" lon="-7.25779197178781">
        <ele>51.57</ele>
        <time>2026-06-26T12:38:42Z</time>
      </trkpt>
      <trkpt lat="52.655414035543799" lon="-7.257799012586474">
        <ele>50.130000000000003</ele>
        <time>2026-06-26T12:39:26Z</time>
      </trkpt>
      <trkpt lat="52.65537497587502" lon="-7.257804041728377">
        <ele>51.57</ele>
        <time>2026-06-26T12:39:47Z</time>
      </trkpt>
      <trkpt lat="52.65537497587502" lon="-7.257804041728377">
        <ele>51.57</ele>
        <time>2026-06-26T12:40:03Z</time>
      </trkpt>
      <trkpt lat="52.655385034158826" lon="-7.25779197178781">
        <ele>51.57</ele>
        <time>2026-06-26T12:40:05Z</time>
      </trkpt>
      <trkpt lat="52.655408000573516" lon="-7.25772500038147">
        <ele>51.57</ele>
        <time>2026-06-26T12:40:18Z</time>
      </trkpt>
      <trkpt lat="52.655377993360162" lon="-7.257759030908346">
        <ele>51.090000000000003</ele>
        <time>2026-06-26T12:40:30Z</time>
      </trkpt>
      <trkpt lat="52.655361983925104" lon="-7.257798006758094">
        <ele>51.57</ele>
        <time>2026-06-26T12:40:53Z</time>
      </trkpt>
      <trkpt lat="52.655290989205241" lon="-7.258060025051236">
        <ele>53.009999999999998</ele>
        <time>2026-06-26T12:41:14Z</time>
      </trkpt>
      <trkpt lat="52.655283026397228" lon="-7.258078968152404">
        <ele>53.009999999999998</ele>
        <time>2026-06-26T12:41:26Z</time>
      </trkpt>
      <trkpt lat="52.655221000313759" lon="-7.258018031716347">
        <ele>53.009999999999998</ele>
        <time>2026-06-26T12:41:57Z</time>
      </trkpt>
      <trkpt lat="52.655203985050321" lon="-7.258001016452909">
        <ele>53.009999999999998</ele>
        <time>2026-06-26T12:41:58Z</time>
      </trkpt>
      <trkpt lat="52.655125027522445" lon="-7.258018031716347">
        <ele>52.049999999999997</ele>
        <time>2026-06-26T12:42:04Z</time>
      </trkpt>
      <trkpt lat="52.655100971460342" lon="-7.258075028657913">
        <ele>52.049999999999997</ele>
        <time>2026-06-26T12:42:05Z</time>
      </trkpt>
      <trkpt lat="52.655069036409259" lon="-7.258150968700647">
        <ele>52.530000000000001</ele>
        <time>2026-06-26T12:42:06Z</time>
      </trkpt>
      <trkpt lat="52.65483601950109" lon="-7.258796961978078">
        <ele>53.969999999999999</ele>
        <time>2026-06-26T12:42:13Z</time>
      </trkpt>
      <trkpt lat="52.654796959832311" lon="-7.258912967517972">
        <ele>53.969999999999999</ele>
        <time>2026-06-26T12:42:14Z</time>
      </trkpt>
      <trkpt lat="52.65477298758924" lon="-7.25903601385653">
        <ele>53.969999999999999</ele>
        <time>2026-06-26T12:42:15Z</time>
      </trkpt>
      <trkpt lat="52.654681960120797" lon="-7.259671026840806">
        <ele>54.93</ele>
        <time>2026-06-26T12:42:20Z</time>
      </trkpt>
      <trkpt lat="52.654612977057695" lon="-7.259854003787041">
        <ele>55.409999999999997</ele>
        <time>2026-06-26T12:42:22Z</time>
      </trkpt>
      <trkpt lat="52.654580036178231" lon="-7.2599389962852">
        <ele>55.890000000000001</ele>
        <time>2026-06-26T12:42:23Z</time>
      </trkpt>
      <trkpt lat="52.654525972902775" lon="-7.260146029293537">
        <ele>55.890000000000001</ele>
        <time>2026-06-26T12:42:25Z</time>
      </trkpt>
      <trkpt lat="52.654519015923142" lon="-7.26026002317667">
        <ele>55.890000000000001</ele>
        <time>2026-06-26T12:42:26Z</time>
      </trkpt>
      <trkpt lat="52.654511975124478" lon="-7.260370999574661">
        <ele>55.890000000000001</ele>
        <time>2026-06-26T12:42:27Z</time>
      </trkpt>
      <trkpt lat="52.654555980116129" lon="-7.260441994294524">
        <ele>56.369999999999997</ele>
        <time>2026-06-26T12:42:28Z</time>
      </trkpt>
      <trkpt lat="52.654610965400934" lon="-7.26049798540771">
        <ele>55.890000000000001</ele>
        <time>2026-06-26T12:42:29Z</time>
      </trkpt>
      <trkpt lat="52.654689000919461" lon="-7.260525980964303">
        <ele>55.890000000000001</ele>
        <time>2026-06-26T12:42:30Z</time>
      </trkpt>
      <trkpt lat="52.654764018952847" lon="-7.260473007336259">
        <ele>55.409999999999997</ele>
        <time>2026-06-26T12:42:31Z</time>
      </trkpt>
      <trkpt lat="52.654838031157851" lon="-7.260425984859467">
        <ele>55.409999999999997</ele>
        <time>2026-06-26T12:42:32Z</time>
      </trkpt>
      <trkpt lat="52.654994018375874" lon="-7.260348033159971">
        <ele>54.450000000000003</ele>
        <time>2026-06-26T12:42:34Z</time>
      </trkpt>
      <trkpt lat="52.655084040015936" lon="-7.260312996804714">
        <ele>54.450000000000003</ele>
        <time>2026-06-26T12:42:35Z</time>
      </trkpt>
      <trkpt lat="52.655161991715431" lon="-7.26032598875463">
        <ele>54.93</ele>
        <time>2026-06-26T12:42:36Z</time>
      </trkpt>
      <trkpt lat="52.656337972730398" lon="-7.260578032582998">
        <ele>59.259999999999998</ele>
        <time>2026-06-26T12:42:50Z</time>
      </trkpt>
      <trkpt lat="52.656741980463266" lon="-7.260718010365963">
        <ele>58.780000000000001</ele>
        <time>2026-06-26T12:42:55Z</time>
      </trkpt>
      <trkpt lat="52.656763019040227" lon="-7.260745000094175">
        <ele>58.299999999999997</ele>
        <time>2026-06-26T12:42:56Z</time>
      </trkpt>
      <trkpt lat="52.656832002103329" lon="-7.260847007855773">
        <ele>58.299999999999997</ele>
        <time>2026-06-26T12:42:57Z</time>
      </trkpt>
      <trkpt lat="52.65685698017478" lon="-7.260965025052428">
        <ele>57.82</ele>
        <time>2026-06-26T12:42:58Z</time>
      </trkpt>
      <trkpt lat="52.656881958246231" lon="-7.261083964258432">
        <ele>57.340000000000003</ele>
        <time>2026-06-26T12:42:59Z</time>
      </trkpt>
      <trkpt lat="52.657228969037533" lon="-7.26273201406002">
        <ele>55.409999999999997</ele>
        <time>2026-06-26T12:43:11Z</time>
      </trkpt>
      <trkpt lat="52.657540021464229" lon="-7.263460988178849">
        <ele>55.409999999999997</ele>
        <time>2026-06-26T12:43:17Z</time>
      </trkpt>
      <trkpt lat="52.658163970336318" lon="-7.264744006097317">
        <ele>56.859999999999999</ele>
        <time>2026-06-26T12:43:27Z</time>
      </trkpt>
      <trkpt lat="52.658420037478209" lon="-7.266477970406413">
        <ele>57.82</ele>
        <time>2026-06-26T12:43:36Z</time>
      </trkpt>
      <trkpt lat="52.65881298109889" lon="-7.268614014610648">
        <ele>58.780000000000001</ele>
        <time>2026-06-26T12:43:46Z</time>
      </trkpt>
      <trkpt lat="52.659264011308551" lon="-7.271232018247247">
        <ele>62.619999999999997</ele>
        <time>2026-06-26T12:43:58Z</time>
      </trkpt>
      <trkpt lat="52.659852001816034" lon="-7.273762011900544">
        <ele>62.140000000000001</ele>
        <time>2026-06-26T12:44:10Z</time>
      </trkpt>
      <trkpt lat="52.660575024783611" lon="-7.276581013575196">
        <ele>59.740000000000002</ele>
        <time>2026-06-26T12:44:24Z</time>
      </trkpt>
      <trkpt lat="52.661047009751201" lon="-7.279588021337986">
        <ele>62.140000000000001</ele>
        <time>2026-06-26T12:44:37Z</time>
      </trkpt>
      <trkpt lat="52.661340963095427" lon="-7.281461963430047">
        <ele>60.700000000000003</ele>
        <time>2026-06-26T12:44:45Z</time>
      </trkpt>
      <trkpt lat="52.661613039672375" lon="-7.283566994592547">
        <ele>57.340000000000003</ele>
        <time>2026-06-26T12:44:54Z</time>
      </trkpt>
      <trkpt lat="52.661892995238304" lon="-7.28668799623847">
        <ele>58.299999999999997</ele>
        <time>2026-06-26T12:45:07Z</time>
      </trkpt>
      <trkpt lat="52.662002965807915" lon="-7.288633016869426">
        <ele>57.340000000000003</ele>
        <time>2026-06-26T12:45:15Z</time>
      </trkpt>
      <trkpt lat="52.661757040768862" lon="-7.291313968598843">
        <ele>63.100000000000001</ele>
        <time>2026-06-26T12:45:26Z</time>
      </trkpt>
      <trkpt lat="52.661749999970198" lon="-7.293775985017419">
        <ele>68.870000000000005</ele>
        <time>2026-06-26T12:45:36Z</time>
      </trkpt>
      <trkpt lat="52.661817977204919" lon="-7.294796984642744">
        <ele>72.719999999999999</ele>
        <time>2026-06-26T12:45:41Z</time>
      </trkpt>
      <trkpt lat="52.661854019388556" lon="-7.295161010697484">
        <ele>77.040000000000006</ele>
        <time>2026-06-26T12:45:48Z</time>
      </trkpt>
      <trkpt lat="52.661857036873698" lon="-7.295200992375612">
        <ele>78.480000000000004</ele>
        <time>2026-06-26T12:45:56Z</time>
      </trkpt>
      <trkpt lat="52.661858964711428" lon="-7.295226976275444">
        <ele>79.930000000000007</ele>
        <time>2026-06-26T12:46:08Z</time>
      </trkpt>
      <trkpt lat="52.661858964711428" lon="-7.295226976275444">
        <ele>80.409999999999997</ele>
        <time>2026-06-26T12:47:10Z</time>
      </trkpt>
      <trkpt lat="52.661872040480375" lon="-7.295437026768923">
        <ele>81.370000000000005</ele>
        <time>2026-06-26T12:47:47Z</time>
      </trkpt>
      <trkpt lat="52.661878997460008" lon="-7.295541968196631">
        <ele>81.370000000000005</ele>
        <time>2026-06-26T12:47:48Z</time>
      </trkpt>
      <trkpt lat="52.661966001614928" lon="-7.296799002215266">
        <ele>85.689999999999998</ele>
        <time>2026-06-26T12:47:55Z</time>
      </trkpt>
      <trkpt lat="52.662056023254991" lon="-7.297438038513064">
        <ele>88.099999999999994</ele>
        <time>2026-06-26T12:47:58Z</time>
      </trkpt>
      <trkpt lat="52.662455001845956" lon="-7.299555977806449">
        <ele>88.099999999999994</ele>
        <time>2026-06-26T12:48:07Z</time>
      </trkpt>
      <trkpt lat="52.662944002076983" lon="-7.30224397033453">
        <ele>81.370000000000005</ele>
        <time>2026-06-26T12:48:17Z</time>
      </trkpt>
      <trkpt lat="52.66317400150001" lon="-7.303762016817927">
        <ele>80.409999999999997</ele>
        <time>2026-06-26T12:48:23Z</time>
      </trkpt>
      <trkpt lat="52.663153968751431" lon="-7.303996039554477">
        <ele>80.409999999999997</ele>
        <time>2026-06-26T12:48:24Z</time>
      </trkpt>
      <trkpt lat="52.663093032315373" lon="-7.304736999794841">
        <ele>79.930000000000007</ele>
        <time>2026-06-26T12:48:27Z</time>
      </trkpt>
      <trkpt lat="52.663075011223555" lon="-7.30501301586628">
        <ele>79.930000000000007</ele>
        <time>2026-06-26T12:48:28Z</time>
      </trkpt>
      <trkpt lat="52.66310803592205" lon="-7.305274028331041">
        <ele>80.409999999999997</ele>
        <time>2026-06-26T12:48:29Z</time>
      </trkpt>
      <trkpt lat="52.663492010906339" lon="-7.308034021407366">
        <ele>86.659999999999997</ele>
        <time>2026-06-26T12:48:39Z</time>
      </trkpt>
      <trkpt lat="52.663883026689291" lon="-7.311016973108053">
        <ele>89.060000000000002</ele>
        <time>2026-06-26T12:48:50Z</time>
      </trkpt>
      <trkpt lat="52.664370015263557" lon="-7.313660038635135">
        <ele>92.900000000000006</ele>
        <time>2026-06-26T12:49:00Z</time>
      </trkpt>
      <trkpt lat="52.664667991921306" lon="-7.316005965694785">
        <ele>99.150000000000006</ele>
        <time>2026-06-26T12:49:09Z</time>
      </trkpt>
      <trkpt lat="52.664948031306267" lon="-7.31829003430903">
        <ele>103</ele>
        <time>2026-06-26T12:49:18Z</time>
      </trkpt>
      <trkpt lat="52.665303004905581" lon="-7.320177974179387">
        <ele>98.189999999999998</ele>
        <time>2026-06-26T12:49:26Z</time>
      </trkpt>
      <trkpt lat="52.665266040712595" lon="-7.320680972188711">
        <ele>97.230000000000004</ele>
        <time>2026-06-26T12:49:28Z</time>
      </trkpt>
      <trkpt lat="52.665249025449157" lon="-7.320914994925261">
        <ele>96.269999999999996</ele>
        <time>2026-06-26T12:49:29Z</time>
      </trkpt>
      <trkpt lat="52.665233016014099" lon="-7.321139965206385">
        <ele>96.269999999999996</ele>
        <time>2026-06-26T12:49:30Z</time>
      </trkpt>
      <trkpt lat="52.665216000750661" lon="-7.321366025134921">
        <ele>96.269999999999996</ele>
        <time>2026-06-26T12:49:31Z</time>
      </trkpt>
      <trkpt lat="52.665198985487223" lon="-7.321596024557948">
        <ele>96.269999999999996</ele>
        <time>2026-06-26T12:49:32Z</time>
      </trkpt>
      <trkpt lat="52.665181970223784" lon="-7.321828035637736">
        <ele>96.75</ele>
        <time>2026-06-26T12:49:33Z</time>
      </trkpt>
      <trkpt lat="52.664791960269213" lon="-7.324421983212233">
        <ele>103</ele>
        <time>2026-06-26T12:49:44Z</time>
      </trkpt>
      <trkpt lat="52.664480991661549" lon="-7.327298987656832">
        <ele>108.29000000000001</ele>
        <time>2026-06-26T12:49:56Z</time>
      </trkpt>
      <trkpt lat="52.664165999740362" lon="-7.330239024013281">
        <ele>120.78</ele>
        <time>2026-06-26T12:50:09Z</time>
      </trkpt>
      <trkpt lat="52.664155019447207" lon="-7.330527026206255">
        <ele>121.73999999999999</ele>
        <time>2026-06-26T12:50:11Z</time>
      </trkpt>
      <trkpt lat="52.664115959778428" lon="-7.330632973462343">
        <ele>122.22</ele>
        <time>2026-06-26T12:50:12Z</time>
      </trkpt>
      <trkpt lat="52.664020992815495" lon="-7.330888034775853">
        <ele>122.22</ele>
        <time>2026-06-26T12:50:14Z</time>
      </trkpt>
      <trkpt lat="52.663726033642888" lon="-7.331928983330727">
        <ele>125.59</ele>
        <time>2026-06-26T12:50:20Z</time>
      </trkpt>
      <trkpt lat="52.663711030036211" lon="-7.332134004682303">
        <ele>126.55</ele>
        <time>2026-06-26T12:50:21Z</time>
      </trkpt>
      <trkpt lat="52.663695020601153" lon="-7.332354029640555">
        <ele>127.51000000000001</ele>
        <time>2026-06-26T12:50:22Z</time>
      </trkpt>
      <trkpt lat="52.663663001731038" lon="-7.332787960767746">
        <ele>128.94999999999999</ele>
        <time>2026-06-26T12:50:24Z</time>
      </trkpt>
      <trkpt lat="52.663635006174445" lon="-7.333005974069238">
        <ele>129.91999999999999</ele>
        <time>2026-06-26T12:50:25Z</time>
      </trkpt>
      <trkpt lat="52.66358102671802" lon="-7.333209989592433">
        <ele>130.88</ele>
        <time>2026-06-26T12:50:26Z</time>
      </trkpt>
      <trkpt lat="52.662956994026899" lon="-7.335550971329212">
        <ele>140.97</ele>
        <time>2026-06-26T12:50:37Z</time>
      </trkpt>
      <trkpt lat="52.662160964682698" lon="-7.337274961173534">
        <ele>138.09</ele>
        <time>2026-06-26T12:50:46Z</time>
      </trkpt>
      <trkpt lat="52.661718986928463" lon="-7.337964037433267">
        <ele>134.72</ele>
        <time>2026-06-26T12:50:50Z</time>
      </trkpt>
      <trkpt lat="52.661619996652007" lon="-7.33814500272274">
        <ele>133.75999999999999</ele>
        <time>2026-06-26T12:50:51Z</time>
      </trkpt>
      <trkpt lat="52.661328976973891" lon="-7.338675996288657">
        <ele>132.31999999999999</ele>
        <time>2026-06-26T12:50:54Z</time>
      </trkpt>
      <trkpt lat="52.661172989755869" lon="-7.339048990979791">
        <ele>132.80000000000001</ele>
        <time>2026-06-26T12:50:56Z</time>
      </trkpt>
      <trkpt lat="52.661107024177909" lon="-7.339246971532702">
        <ele>133.28</ele>
        <time>2026-06-26T12:50:57Z</time>
      </trkpt>
      <trkpt lat="52.661049021407962" lon="-7.339446041733027">
        <ele>133.75999999999999</ele>
        <time>2026-06-26T12:50:58Z</time>
      </trkpt>
      <trkpt lat="52.661022031679749" lon="-7.339655002579093">
        <ele>134.72</ele>
        <time>2026-06-26T12:50:59Z</time>
      </trkpt>
      <trkpt lat="52.660994036123157" lon="-7.339866980910301">
        <ele>135.68000000000001</ele>
        <time>2026-06-26T12:51:00Z</time>
      </trkpt>
      <trkpt lat="52.660926980897784" lon="-7.340739034116268">
        <ele>140.00999999999999</ele>
        <time>2026-06-26T12:51:04Z</time>
      </trkpt>
      <trkpt lat="52.660907031968236" lon="-7.340961992740631">
        <ele>141.44999999999999</ele>
        <time>2026-06-26T12:51:05Z</time>
      </trkpt>
      <trkpt lat="52.660885993391275" lon="-7.341185035184026">
        <ele>142.88999999999999</ele>
        <time>2026-06-26T12:51:06Z</time>
      </trkpt>
      <trkpt lat="52.660865038633347" lon="-7.341407993808389">
        <ele>144.34</ele>
        <time>2026-06-26T12:51:07Z</time>
      </trkpt>
      <trkpt lat="52.660844000056386" lon="-7.341635981574655">
        <ele>145.78</ele>
        <time>2026-06-26T12:51:08Z</time>
      </trkpt>
      <trkpt lat="52.660822039470077" lon="-7.341865980997682">
        <ele>147.22</ele>
        <time>2026-06-26T12:51:09Z</time>
      </trkpt>
      <trkpt lat="52.660697987303138" lon="-7.342520020902157">
        <ele>151.06</ele>
        <time>2026-06-26T12:51:12Z</time>
      </trkpt>
      <trkpt lat="52.660363968461752" lon="-7.343759033828974">
        <ele>157.78999999999999</ele>
        <time>2026-06-26T12:51:18Z</time>
      </trkpt>
      <trkpt lat="52.660248968750238" lon="-7.344158012419939">
        <ele>159.24000000000001</ele>
        <time>2026-06-26T12:51:20Z</time>
      </trkpt>
      <trkpt lat="52.660195995122194" lon="-7.344367979094386">
        <ele>159.72</ele>
        <time>2026-06-26T12:51:21Z</time>
      </trkpt>
      <trkpt lat="52.660195995122194" lon="-7.344585992395878">
        <ele>160.19999999999999</ele>
        <time>2026-06-26T12:51:22Z</time>
      </trkpt>
      <trkpt lat="52.660051994025707" lon="-7.346938960254192">
        <ele>169.33000000000001</ele>
        <time>2026-06-26T12:51:32Z</time>
      </trkpt>
      <trkpt lat="52.659983010962605" lon="-7.347830040380359">
        <ele>172.69</ele>
        <time>2026-06-26T12:51:36Z</time>
      </trkpt>
      <trkpt lat="52.659969013184309" lon="-7.348005976527929">
        <ele>173.16999999999999</ele>
        <time>2026-06-26T12:51:37Z</time>
      </trkpt>
      <trkpt lat="52.659929031506181" lon="-7.348184008151293">
        <ele>173.66</ele>
        <time>2026-06-26T12:51:38Z</time>
      </trkpt>
      <trkpt lat="52.659854013472795" lon="-7.348346030339599">
        <ele>173.66</ele>
        <time>2026-06-26T12:51:39Z</time>
      </trkpt>
      <trkpt lat="52.659771032631397" lon="-7.348525989800692">
        <ele>174.13999999999999</ele>
        <time>2026-06-26T12:51:40Z</time>
      </trkpt>
      <trkpt lat="52.659588977694511" lon="-7.348920023068786">
        <ele>174.13999999999999</ele>
        <time>2026-06-26T12:51:42Z</time>
      </trkpt>
      <trkpt lat="52.65950096771121" lon="-7.349110962823033">
        <ele>174.13999999999999</ele>
        <time>2026-06-26T12:51:43Z</time>
      </trkpt>
      <trkpt lat="52.659451011568308" lon="-7.349302992224693">
        <ele>173.66</ele>
        <time>2026-06-26T12:51:44Z</time>
      </trkpt>
      <trkpt lat="52.659468026831746" lon="-7.349501978605986">
        <ele>173.66</ele>
        <time>2026-06-26T12:51:45Z</time>
      </trkpt>
      <trkpt lat="52.659484958276153" lon="-7.349711023271084">
        <ele>173.66</ele>
        <time>2026-06-26T12:51:46Z</time>
      </trkpt>
      <trkpt lat="52.659502979367971" lon="-7.349927024915814">
        <ele>173.66</ele>
        <time>2026-06-26T12:51:47Z</time>
      </trkpt>
      <trkpt lat="52.659496022388339" lon="-7.350140009075403">
        <ele>173.66</ele>
        <time>2026-06-26T12:51:48Z</time>
      </trkpt>
      <trkpt lat="52.659475989639759" lon="-7.350344024598599">
        <ele>174.13999999999999</ele>
        <time>2026-06-26T12:51:49Z</time>
      </trkpt>
      <trkpt lat="52.659428967162967" lon="-7.350547034293413">
        <ele>174.62</ele>
        <time>2026-06-26T12:51:50Z</time>
      </trkpt>
      <trkpt lat="52.659213971346617" lon="-7.351191015914083">
        <ele>177.5</ele>
        <time>2026-06-26T12:51:53Z</time>
      </trkpt>
      <trkpt lat="52.659125961363316" lon="-7.351394025608897">
        <ele>178.46000000000001</ele>
        <time>2026-06-26T12:51:54Z</time>
      </trkpt>
      <trkpt lat="52.658414002507925" lon="-7.352849962189794">
        <ele>182.78999999999999</ele>
        <time>2026-06-26T12:52:02Z</time>
      </trkpt>
      <trkpt lat="52.658406039699912" lon="-7.352995974943042">
        <ele>183.27000000000001</ele>
        <time>2026-06-26T12:52:03Z</time>
      </trkpt>
      <trkpt lat="52.658398998901248" lon="-7.353148022666574">
        <ele>183.27000000000001</ele>
        <time>2026-06-26T12:52:04Z</time>
      </trkpt>
      <trkpt lat="52.658412996679544" lon="-7.353315996006131">
        <ele>183.75</ele>
        <time>2026-06-26T12:52:05Z</time>
      </trkpt>
      <trkpt lat="52.658458007499576" lon="-7.353483969345689">
        <ele>183.75</ele>
        <time>2026-06-26T12:52:06Z</time>
      </trkpt>
      <trkpt lat="52.658850029110909" lon="-7.355194967240095">
        <ele>186.15000000000001</ele>
        <time>2026-06-26T12:52:14Z</time>
      </trkpt>
      <trkpt lat="52.659033006057143" lon="-7.356412019580603">
        <ele>184.22999999999999</ele>
        <time>2026-06-26T12:52:20Z</time>
      </trkpt>
      <trkpt lat="52.659055972471833" lon="-7.356588961556554">
        <ele>183.27000000000001</ele>
        <time>2026-06-26T12:52:21Z</time>
      </trkpt>
      <trkpt lat="52.659043986350298" lon="-7.356746960431337">
        <ele>182.78999999999999</ele>
        <time>2026-06-26T12:52:22Z</time>
      </trkpt>
      <trkpt lat="52.65902797691524" lon="-7.356895990669727">
        <ele>181.83000000000001</ele>
        <time>2026-06-26T12:52:23Z</time>
      </trkpt>
      <trkpt lat="52.659002998843789" lon="-7.357035968452692">
        <ele>180.38</ele>
        <time>2026-06-26T12:52:24Z</time>
      </trkpt>
      <trkpt lat="52.658957988023758" lon="-7.357167983427644">
        <ele>178.94</ele>
        <time>2026-06-26T12:52:25Z</time>
      </trkpt>
      <trkpt lat="52.658909959718585" lon="-7.35730703920126">
        <ele>177.5</ele>
        <time>2026-06-26T12:52:26Z</time>
      </trkpt>
      <trkpt lat="52.658823039382696" lon="-7.357556987553835">
        <ele>175.58000000000001</ele>
        <time>2026-06-26T12:52:28Z</time>
      </trkpt>
      <trkpt lat="52.65881298109889" lon="-7.357773995026946">
        <ele>174.62</ele>
        <time>2026-06-26T12:52:29Z</time>
      </trkpt>
      <trkpt lat="52.658804012462497" lon="-7.357940962538123">
        <ele>174.13999999999999</ele>
        <time>2026-06-26T12:52:30Z</time>
      </trkpt>
      <trkpt lat="52.658779034391046" lon="-7.358453013002873">
        <ele>173.66</ele>
        <time>2026-06-26T12:52:33Z</time>
      </trkpt>
      <trkpt lat="52.65876897610724" lon="-7.358650993555784">
        <ele>173.16999999999999</ele>
        <time>2026-06-26T12:52:34Z</time>
      </trkpt>
      <trkpt lat="52.658391036093235" lon="-7.360724005848169">
        <ele>162.12</ele>
        <time>2026-06-26T12:52:44Z</time>
      </trkpt>
      <trkpt lat="52.658323980867863" lon="-7.361060036346316">
        <ele>160.19999999999999</ele>
        <time>2026-06-26T12:52:46Z</time>
      </trkpt>
      <trkpt lat="52.658287016674876" lon="-7.361247958615422">
        <ele>158.75</ele>
        <time>2026-06-26T12:52:47Z</time>
      </trkpt>
      <trkpt lat="52.658224990591407" lon="-7.361372010782361">
        <ele>157.31</ele>
        <time>2026-06-26T12:52:48Z</time>
      </trkpt>
      <trkpt lat="52.658149972558022" lon="-7.361521041020751">
        <ele>156.34999999999999</ele>
        <time>2026-06-26T12:52:49Z</time>
      </trkpt>
      <trkpt lat="52.658057017251849" lon="-7.361677028238773">
        <ele>154.91</ele>
        <time>2026-06-26T12:52:50Z</time>
      </trkpt>
      <trkpt lat="52.657851995900273" lon="-7.361981961876154">
        <ele>152.99000000000001</ele>
        <time>2026-06-26T12:52:52Z</time>
      </trkpt>
      <trkpt lat="52.657655021175742" lon="-7.362275999039412">
        <ele>150.09999999999999</ele>
        <time>2026-06-26T12:52:54Z</time>
      </trkpt>
      <trkpt lat="52.657556030899286" lon="-7.36242201179266">
        <ele>149.13999999999999</ele>
        <time>2026-06-26T12:52:55Z</time>
      </trkpt>
      <trkpt lat="52.65745603479445" lon="-7.362571964040399">
        <ele>147.69999999999999</ele>
        <time>2026-06-26T12:52:56Z</time>
      </trkpt>
      <trkpt lat="52.657242966815829" lon="-7.362887961789966">
        <ele>144.81999999999999</ele>
        <time>2026-06-26T12:52:58Z</time>
      </trkpt>
      <trkpt lat="52.656978014856577" lon="-7.363376962020993">
        <ele>140.97</ele>
        <time>2026-06-26T12:53:01Z</time>
      </trkpt>
      <trkpt lat="52.656935015693307" lon="-7.363458015024662">
        <ele>140.00999999999999</ele>
        <time>2026-06-26T12:53:02Z</time>
      </trkpt>
      <trkpt lat="52.656935015693307" lon="-7.363630011677742">
        <ele>139.53</ele>
        <time>2026-06-26T12:53:03Z</time>
      </trkpt>
      <trkpt lat="52.656935015693307" lon="-7.363693965598941">
        <ele>139.05000000000001</ele>
        <time>2026-06-26T12:53:04Z</time>
      </trkpt>
      <trkpt lat="52.656981032341719" lon="-7.363759009167552">
        <ele>138.56999999999999</ele>
        <time>2026-06-26T12:53:05Z</time>
      </trkpt>
      <trkpt lat="52.657038029283285" lon="-7.36384098418057">
        <ele>138.09</ele>
        <time>2026-06-26T12:53:06Z</time>
      </trkpt>
      <trkpt lat="52.657106006518006" lon="-7.363937040790916">
        <ele>137.61000000000001</ele>
        <time>2026-06-26T12:53:07Z</time>
      </trkpt>
      <trkpt lat="52.657181024551392" lon="-7.364043993875384">
        <ele>137.61000000000001</ele>
        <time>2026-06-26T12:53:08Z</time>
      </trkpt>
      <trkpt lat="52.65726400539279" lon="-7.364161005243659">
        <ele>137.61000000000001</ele>
        <time>2026-06-26T12:53:09Z</time>
      </trkpt>
      <trkpt lat="52.657342962920666" lon="-7.364272987470031">
        <ele>137.61000000000001</ele>
        <time>2026-06-26T12:53:10Z</time>
      </trkpt>
      <trkpt lat="52.65739400871098" lon="-7.36444297246635">
        <ele>138.09</ele>
        <time>2026-06-26T12:53:11Z</time>
      </trkpt>
      <trkpt lat="52.657439019531012" lon="-7.364589991047978">
        <ele>138.09</ele>
        <time>2026-06-26T12:53:12Z</time>
      </trkpt>
      <trkpt lat="52.657483024522662" lon="-7.364733992144465">
        <ele>138.56999999999999</ele>
        <time>2026-06-26T12:53:13Z</time>
      </trkpt>
      <trkpt lat="52.657462991774082" lon="-7.364909006282687">
        <ele>138.56999999999999</ele>
        <time>2026-06-26T12:53:14Z</time>
      </trkpt>
      <trkpt lat="52.657425021752715" lon="-7.36508896574378">
        <ele>139.05000000000001</ele>
        <time>2026-06-26T12:53:15Z</time>
      </trkpt>
      <trkpt lat="52.657384034246206" lon="-7.365282000973821">
        <ele>139.53</ele>
        <time>2026-06-26T12:53:16Z</time>
      </trkpt>
      <trkpt lat="52.657340029254556" lon="-7.365490039810538">
        <ele>140.49000000000001</ele>
        <time>2026-06-26T12:53:17Z</time>
      </trkpt>
      <trkpt lat="52.656883969902992" lon="-7.368040988221765">
        <ele>140.49000000000001</ele>
        <time>2026-06-26T12:53:28Z</time>
      </trkpt>
      <trkpt lat="52.656797971576452" lon="-7.368528982624412">
        <ele>140.49000000000001</ele>
        <time>2026-06-26T12:53:30Z</time>
      </trkpt>
      <trkpt lat="52.656713984906673" lon="-7.369000967592001">
        <ele>140.97</ele>
        <time>2026-06-26T12:53:32Z</time>
      </trkpt>
      <trkpt lat="52.656671991571784" lon="-7.36923398450017">
        <ele>140.97</ele>
        <time>2026-06-26T12:53:33Z</time>
      </trkpt>
      <trkpt lat="52.656503012403846" lon="-7.370184995234013">
        <ele>142.41</ele>
        <time>2026-06-26T12:53:37Z</time>
      </trkpt>
      <trkpt lat="52.656355993822217" lon="-7.371011031791568">
        <ele>145.30000000000001</ele>
        <time>2026-06-26T12:53:41Z</time>
      </trkpt>
      <trkpt lat="52.656399998813868" lon="-7.371283024549484">
        <ele>145.78</ele>
        <time>2026-06-26T12:53:42Z</time>
      </trkpt>
      <trkpt lat="52.656434029340744" lon="-7.371499026194215">
        <ele>145.78</ele>
        <time>2026-06-26T12:53:43Z</time>
      </trkpt>
      <trkpt lat="52.656688001006842" lon="-7.373066022992134">
        <ele>149.62</ele>
        <time>2026-06-26T12:53:50Z</time>
      </trkpt>
      <trkpt lat="52.656798977404833" lon="-7.373750992119312">
        <ele>151.53999999999999</ele>
        <time>2026-06-26T12:53:53Z</time>
      </trkpt>
      <trkpt lat="52.65683401376009" lon="-7.373964982107282">
        <ele>152.50999999999999</ele>
        <time>2026-06-26T12:53:54Z</time>
      </trkpt>
      <trkpt lat="52.656849017366767" lon="-7.374173020943999">
        <ele>152.99000000000001</ele>
        <time>2026-06-26T12:53:55Z</time>
      </trkpt>
      <trkpt lat="52.656849017366767" lon="-7.374381981790066">
        <ele>153.47</ele>
        <time>2026-06-26T12:53:56Z</time>
      </trkpt>
      <trkpt lat="52.656832002103329" lon="-7.374594965949655">
        <ele>153.94999999999999</ele>
        <time>2026-06-26T12:53:57Z</time>
      </trkpt>
      <trkpt lat="52.656799983233213" lon="-7.374804010614753">
        <ele>154.91</ele>
        <time>2026-06-26T12:53:58Z</time>
      </trkpt>
      <trkpt lat="52.656766036525369" lon="-7.375015988945961">
        <ele>154.91</ele>
        <time>2026-06-26T12:53:59Z</time>
      </trkpt>
      <trkpt lat="52.656738962978125" lon="-7.37522997893393">
        <ele>154.91</ele>
        <time>2026-06-26T12:54:00Z</time>
      </trkpt>
      <trkpt lat="52.65681498683989" lon="-7.377038039267063">
        <ele>159.72</ele>
        <time>2026-06-26T12:54:08Z</time>
      </trkpt>
      <trkpt lat="52.65700701624155" lon="-7.378654992207885">
        <ele>165</ele>
        <time>2026-06-26T12:54:15Z</time>
      </trkpt>
      <trkpt lat="52.656936021521688" lon="-7.380144959315658">
        <ele>173.66</ele>
        <time>2026-06-26T12:54:24Z</time>
      </trkpt>
      <trkpt lat="52.656928980723023" lon="-7.380285020917654">
        <ele>174.13999999999999</ele>
        <time>2026-06-26T12:54:25Z</time>
      </trkpt>
      <trkpt lat="52.656915988773108" lon="-7.38057604059577">
        <ele>177.02000000000001</ele>
        <time>2026-06-26T12:54:30Z</time>
      </trkpt>
      <trkpt lat="52.656915988773108" lon="-7.38057604059577">
        <ele>178.94</ele>
        <time>2026-06-26T12:54:36Z</time>
      </trkpt>
      <trkpt lat="52.656815992668271" lon="-7.380533963441849">
        <ele>179.90000000000001</ele>
        <time>2026-06-26T12:54:38Z</time>
      </trkpt>
      <trkpt lat="52.656777016818523" lon="-7.380489036440849">
        <ele>180.38</ele>
        <time>2026-06-26T12:54:39Z</time>
      </trkpt>
      <trkpt lat="52.656719014048576" lon="-7.380423992872238">
        <ele>180.87</ele>
        <time>2026-06-26T12:54:40Z</time>
      </trkpt>
      <trkpt lat="52.656647013500333" lon="-7.38034101203084">
        <ele>180.87</ele>
        <time>2026-06-26T12:54:41Z</time>
      </trkpt>
      <trkpt lat="52.656464958563447" lon="-7.380132973194122">
        <ele>180.38</ele>
        <time>2026-06-26T12:54:43Z</time>
      </trkpt>
      <trkpt lat="52.656349958851933" lon="-7.380104977637529">
        <ele>180.38</ele>
        <time>2026-06-26T12:54:44Z</time>
      </trkpt>
      <trkpt lat="52.656231019645929" lon="-7.380089974030852">
        <ele>180.38</ele>
        <time>2026-06-26T12:54:45Z</time>
      </trkpt>
      <trkpt lat="52.656096993014216" lon="-7.380098020657897">
        <ele>180.87</ele>
        <time>2026-06-26T12:54:46Z</time>
      </trkpt>
      <trkpt lat="52.655961038544774" lon="-7.380106989294291">
        <ele>180.87</ele>
        <time>2026-06-26T12:54:47Z</time>
      </trkpt>
      <trkpt lat="52.655686028301716" lon="-7.380124004557729">
        <ele>182.31</ele>
        <time>2026-06-26T12:54:49Z</time>
      </trkpt>
      <trkpt lat="52.655545966699719" lon="-7.380113024264574">
        <ele>183.27000000000001</ele>
        <time>2026-06-26T12:54:50Z</time>
      </trkpt>
      <trkpt lat="52.655409006401896" lon="-7.380048986524344">
        <ele>184.22999999999999</ele>
        <time>2026-06-26T12:54:51Z</time>
      </trkpt>
      <trkpt lat="52.655270034447312" lon="-7.379983020946384">
        <ele>185.19</ele>
        <time>2026-06-26T12:54:52Z</time>
      </trkpt>
      <trkpt lat="52.655130978673697" lon="-7.379892999306321">
        <ele>186.15000000000001</ele>
        <time>2026-06-26T12:54:53Z</time>
      </trkpt>
      <trkpt lat="52.654995024204254" lon="-7.379791997373104">
        <ele>187.59</ele>
        <time>2026-06-26T12:54:54Z</time>
      </trkpt>
      <trkpt lat="52.654862003400922" lon="-7.379693007096648">
        <ele>188.56</ele>
        <time>2026-06-26T12:54:55Z</time>
      </trkpt>
      <trkpt lat="52.654732000082731" lon="-7.379595022648573">
        <ele>190</ele>
        <time>2026-06-26T12:54:56Z</time>
      </trkpt>
      <trkpt lat="52.65460099093616" lon="-7.379497038200498">
        <ele>190.96000000000001</ele>
        <time>2026-06-26T12:54:57Z</time>
      </trkpt>
      <trkpt lat="52.654466964304447" lon="-7.379396958276629">
        <ele>191.44</ele>
        <time>2026-06-26T12:54:58Z</time>
      </trkpt>
      <trkpt lat="52.653931025415659" lon="-7.378996973857284">
        <ele>195.28</ele>
        <time>2026-06-26T12:55:02Z</time>
      </trkpt>
      <trkpt lat="52.653798004612327" lon="-7.378896977752447">
        <ele>196.25</ele>
        <time>2026-06-26T12:55:03Z</time>
      </trkpt>
      <trkpt lat="52.653404977172613" lon="-7.378603024408221">
        <ele>198.65000000000001</ele>
        <time>2026-06-26T12:55:06Z</time>
      </trkpt>
      <trkpt lat="52.653275979682803" lon="-7.378506967797875">
        <ele>199.13</ele>
        <time>2026-06-26T12:55:07Z</time>
      </trkpt>
      <trkpt lat="52.652939027175307" lon="-7.378199016675353">
        <ele>199.61000000000001</ele>
        <time>2026-06-26T12:55:10Z</time>
      </trkpt>
      <trkpt lat="52.652844982221723" lon="-7.378094997256994">
        <ele>199.61000000000001</ele>
        <time>2026-06-26T12:55:11Z</time>
      </trkpt>
      <trkpt lat="52.652763007208705" lon="-7.378002963960171">
        <ele>199.61000000000001</ele>
        <time>2026-06-26T12:55:12Z</time>
      </trkpt>
      <trkpt lat="52.652705004438758" lon="-7.377926018089056">
        <ele>199.61000000000001</ele>
        <time>2026-06-26T12:55:13Z</time>
      </trkpt>
      <trkpt lat="52.652685977518559" lon="-7.377814035862684">
        <ele>199.61000000000001</ele>
        <time>2026-06-26T12:55:14Z</time>
      </trkpt>
      <trkpt lat="52.65266502276063" lon="-7.377684032544494">
        <ele>199.61000000000001</ele>
        <time>2026-06-26T12:55:15Z</time>
      </trkpt>
      <trkpt lat="52.652677008882165" lon="-7.377589987590909">
        <ele>199.61000000000001</ele>
        <time>2026-06-26T12:55:16Z</time>
      </trkpt>
      <trkpt lat="52.652694024145603" lon="-7.377468030899763">
        <ele>199.61000000000001</ele>
        <time>2026-06-26T12:55:17Z</time>
      </trkpt>
      <trkpt lat="52.6527080219239" lon="-7.377361999824643">
        <ele>199.61000000000001</ele>
        <time>2026-06-26T12:55:18Z</time>
      </trkpt>
      <trkpt lat="52.65266602858901" lon="-7.377252029255033">
        <ele>199.61000000000001</ele>
        <time>2026-06-26T12:55:19Z</time>
      </trkpt>
      <trkpt lat="52.652628980576992" lon="-7.377152033150196">
        <ele>199.61000000000001</ele>
        <time>2026-06-26T12:55:20Z</time>
      </trkpt>
      <trkpt lat="52.65257902443409" lon="-7.377019012346864">
        <ele>199.61000000000001</ele>
        <time>2026-06-26T12:55:21Z</time>
      </trkpt>
      <trkpt lat="52.652534013614058" lon="-7.376991016790271">
        <ele>199.61000000000001</ele>
        <time>2026-06-26T12:55:22Z</time>
      </trkpt>
      <trkpt lat="52.651698002591729" lon="-7.376368995755911">
        <ele>198.16999999999999</ele>
        <time>2026-06-26T12:55:30Z</time>
      </trkpt>
      <trkpt lat="52.65124898403883" lon="-7.375993989408016">
        <ele>197.21000000000001</ele>
        <time>2026-06-26T12:55:34Z</time>
      </trkpt>
      <trkpt lat="52.651143036782742" lon="-7.375904973596335">
        <ele>196.72999999999999</ele>
        <time>2026-06-26T12:55:35Z</time>
      </trkpt>
      <trkpt lat="52.649961020797491" lon="-7.374915992841125">
        <ele>192.40000000000001</ele>
        <time>2026-06-26T12:55:45Z</time>
      </trkpt>
      <trkpt lat="52.649690033867955" lon="-7.374837035313249">
        <ele>191.44</ele>
        <time>2026-06-26T12:55:47Z</time>
      </trkpt>
      <trkpt lat="52.649560030549765" lon="-7.37479898147285">
        <ele>190.96000000000001</ele>
        <time>2026-06-26T12:55:48Z</time>
      </trkpt>
      <trkpt lat="52.649430027231574" lon="-7.374761011451483">
        <ele>190</ele>
        <time>2026-06-26T12:55:49Z</time>
      </trkpt>
      <trkpt lat="52.648770958185196" lon="-7.374698985368013">
        <ele>188.56</ele>
        <time>2026-06-26T12:55:54Z</time>
      </trkpt>
      <trkpt lat="52.648633997887373" lon="-7.374717006459832">
        <ele>188.08000000000001</ele>
        <time>2026-06-26T12:55:55Z</time>
      </trkpt>
      <trkpt lat="52.648511035367846" lon="-7.374790012836456">
        <ele>187.59</ele>
        <time>2026-06-26T12:55:56Z</time>
      </trkpt>
      <trkpt lat="52.648386983200908" lon="-7.374895960092545">
        <ele>187.11000000000001</ele>
        <time>2026-06-26T12:55:57Z</time>
      </trkpt>
      <trkpt lat="52.648263014853001" lon="-7.375004002824426">
        <ele>186.63</ele>
        <time>2026-06-26T12:55:58Z</time>
      </trkpt>
      <trkpt lat="52.646919982507825" lon="-7.375691989436746">
        <ele>178.46000000000001</ele>
        <time>2026-06-26T12:56:08Z</time>
      </trkpt>
      <trkpt lat="52.646640026941895" lon="-7.375746974721551">
        <ele>176.06</ele>
        <time>2026-06-26T12:56:10Z</time>
      </trkpt>
      <trkpt lat="52.64650197699666" lon="-7.375773964449763">
        <ele>175.09999999999999</ele>
        <time>2026-06-26T12:56:11Z</time>
      </trkpt>
      <trkpt lat="52.645632019266486" lon="-7.375945961102843">
        <ele>168.37</ele>
        <time>2026-06-26T12:56:17Z</time>
      </trkpt>
      <trkpt lat="52.644134005531669" lon="-7.376257013529539">
        <ele>154.91</ele>
        <time>2026-06-26T12:56:27Z</time>
      </trkpt>
      <trkpt lat="52.64340503141284" lon="-7.376221977174282">
        <ele>151.53999999999999</ele>
        <time>2026-06-26T12:56:32Z</time>
      </trkpt>
      <trkpt lat="52.64325600117445" lon="-7.376185012981296">
        <ele>151.06</ele>
        <time>2026-06-26T12:56:33Z</time>
      </trkpt>
      <trkpt lat="52.642560973763466" lon="-7.375748986378312">
        <ele>147.69999999999999</ele>
        <time>2026-06-26T12:56:38Z</time>
      </trkpt>
      <trkpt lat="52.642149003222585" lon="-7.375488979741931">
        <ele>146.74000000000001</ele>
        <time>2026-06-26T12:56:41Z</time>
      </trkpt>
      <trkpt lat="52.641445007175207" lon="-7.375068962574005">
        <ele>144.81999999999999</ele>
        <time>2026-06-26T12:56:46Z</time>
      </trkpt>
      <trkpt lat="52.640746962279081" lon="-7.374638970941305">
        <ele>141.44999999999999</ele>
        <time>2026-06-26T12:56:51Z</time>
      </trkpt>
      <trkpt lat="52.64048301614821" lon="-7.374416012316942">
        <ele>140.49000000000001</ele>
        <time>2026-06-26T12:56:53Z</time>
      </trkpt>
      <trkpt lat="52.639188012108207" lon="-7.372781960293651">
        <ele>136.16</ele>
        <time>2026-06-26T12:57:04Z</time>
      </trkpt>
      <trkpt lat="52.638962035998702" lon="-7.372457999736071">
        <ele>135.68000000000001</ele>
        <time>2026-06-26T12:57:06Z</time>
      </trkpt>
      <trkpt lat="52.638858016580343" lon="-7.372292038053274">
        <ele>135.19999999999999</ele>
        <time>2026-06-26T12:57:07Z</time>
      </trkpt>
      <trkpt lat="52.638770006597042" lon="-7.37211199477315">
        <ele>134.72</ele>
        <time>2026-06-26T12:57:08Z</time>
      </trkpt>
      <trkpt lat="52.638734970241785" lon="-7.371936980634928">
        <ele>134.24000000000001</ele>
        <time>2026-06-26T12:57:09Z</time>
      </trkpt>
      <trkpt lat="52.638687025755644" lon="-7.371808988973498">
        <ele>133.28</ele>
        <time>2026-06-26T12:57:10Z</time>
      </trkpt>
      <trkpt lat="52.638611001893878" lon="-7.371713016182184">
        <ele>132.80000000000001</ele>
        <time>2026-06-26T12:57:11Z</time>
      </trkpt>
      <trkpt lat="52.638533972203732" lon="-7.371614025905728">
        <ele>132.31999999999999</ele>
        <time>2026-06-26T12:57:12Z</time>
      </trkpt>
      <trkpt lat="52.638429030776024" lon="-7.371536996215582">
        <ele>131.36000000000001</ele>
        <time>2026-06-26T12:57:13Z</time>
      </trkpt>
      <trkpt lat="52.638309001922607" lon="-7.371513023972511">
        <ele>130.88</ele>
        <time>2026-06-26T12:57:14Z</time>
      </trkpt>
      <trkpt lat="52.638178998604417" lon="-7.37148704007268">
        <ele>129.91999999999999</ele>
        <time>2026-06-26T12:57:15Z</time>
      </trkpt>
      <trkpt lat="52.638039020821452" lon="-7.371458960697055">
        <ele>128.94999999999999</ele>
        <time>2026-06-26T12:57:16Z</time>
      </trkpt>
      <trkpt lat="52.637893008068204" lon="-7.371444962918758">
        <ele>127.51000000000001</ele>
        <time>2026-06-26T12:57:17Z</time>
      </trkpt>
      <trkpt lat="52.637746995314956" lon="-7.371460972353816">
        <ele>126.06999999999999</ele>
        <time>2026-06-26T12:57:18Z</time>
      </trkpt>
      <trkpt lat="52.637358997017145" lon="-7.371401963755488">
        <ele>122.22</ele>
        <time>2026-06-26T12:57:21Z</time>
      </trkpt>
      <trkpt lat="52.637272998690605" lon="-7.371316971257329">
        <ele>121.26000000000001</ele>
        <time>2026-06-26T12:57:22Z</time>
      </trkpt>
      <trkpt lat="52.637206027284265" lon="-7.371173975989223">
        <ele>120.3</ele>
        <time>2026-06-26T12:57:23Z</time>
      </trkpt>
      <trkpt lat="52.637134026736021" lon="-7.371021006256342">
        <ele>119.34</ele>
        <time>2026-06-26T12:57:24Z</time>
      </trkpt>
      <trkpt lat="52.637027995660901" lon="-7.370917992666364">
        <ele>118.38</ele>
        <time>2026-06-26T12:57:25Z</time>
      </trkpt>
      <trkpt lat="52.636937974020839" lon="-7.370835011824966">
        <ele>117.90000000000001</ele>
        <time>2026-06-26T12:57:26Z</time>
      </trkpt>
      <trkpt lat="52.636872008442879" lon="-7.370774997398257">
        <ele>117.42</ele>
        <time>2026-06-26T12:57:27Z</time>
      </trkpt>
      <trkpt lat="52.636751979589462" lon="-7.370807016268373">
        <ele>116.94</ele>
        <time>2026-06-26T12:57:28Z</time>
      </trkpt>
      <trkpt lat="52.636653995141387" lon="-7.370833000168204">
        <ele>115.98</ele>
        <time>2026-06-26T12:57:29Z</time>
      </trkpt>
      <trkpt lat="52.636549975723028" lon="-7.370860995724797">
        <ele>115.5</ele>
        <time>2026-06-26T12:57:30Z</time>
      </trkpt>
      <trkpt lat="52.636310001835227" lon="-7.370925033465028">
        <ele>114.05</ele>
        <time>2026-06-26T12:57:32Z</time>
      </trkpt>
      <trkpt lat="52.636190978810191" lon="-7.370927967131138">
        <ele>113.56999999999999</ele>
        <time>2026-06-26T12:57:33Z</time>
      </trkpt>
      <trkpt lat="52.6360800024122" lon="-7.370871976017952">
        <ele>113.09</ele>
        <time>2026-06-26T12:57:34Z</time>
      </trkpt>
      <trkpt lat="52.635963996872306" lon="-7.370811961591244">
        <ele>113.09</ele>
        <time>2026-06-26T12:57:35Z</time>
      </trkpt>
      <trkpt lat="52.635856959968805" lon="-7.370712971314788">
        <ele>113.09</ele>
        <time>2026-06-26T12:57:36Z</time>
      </trkpt>
      <trkpt lat="52.635754030197859" lon="-7.370618004351854">
        <ele>112.61</ele>
        <time>2026-06-26T12:57:37Z</time>
      </trkpt>
      <trkpt lat="52.635042993351817" lon="-7.369962958618999">
        <ele>111.17</ele>
        <time>2026-06-26T12:57:45Z</time>
      </trkpt>
      <trkpt lat="52.634890023618937" lon="-7.369821975007653">
        <ele>110.20999999999999</ele>
        <time>2026-06-26T12:57:47Z</time>
      </trkpt>
      <trkpt lat="52.634800001978874" lon="-7.369790961965919">
        <ele>110.20999999999999</ele>
        <time>2026-06-26T12:57:48Z</time>
      </trkpt>
      <trkpt lat="52.634714003652334" lon="-7.36977000720799">
        <ele>109.73</ele>
        <time>2026-06-26T12:57:49Z</time>
      </trkpt>
      <trkpt lat="52.63449196703732" lon="-7.369717033579946">
        <ele>108.29000000000001</ele>
        <time>2026-06-26T12:57:52Z</time>
      </trkpt>
      <trkpt lat="52.63444896787405" lon="-7.36970697529614">
        <ele>107.81</ele>
        <time>2026-06-26T12:57:53Z</time>
      </trkpt>
      <trkpt lat="52.634366992861032" lon="-7.369687026366592">
        <ele>107.31999999999999</ele>
        <time>2026-06-26T12:57:56Z</time>
      </trkpt>
      <trkpt lat="52.634330028668046" lon="-7.369736982509494">
        <ele>106.84</ele>
        <time>2026-06-26T12:57:57Z</time>
      </trkpt>
      <trkpt lat="52.634314019232988" lon="-7.369823986664414">
        <ele>106.84</ele>
        <time>2026-06-26T12:57:58Z</time>
      </trkpt>
      <trkpt lat="52.634290968999267" lon="-7.369946027174592">
        <ele>106.84</ele>
        <time>2026-06-26T12:57:59Z</time>
      </trkpt>
      <trkpt lat="52.634264985099435" lon="-7.370087010785937">
        <ele>106.36</ele>
        <time>2026-06-26T12:58:00Z</time>
      </trkpt>
      <trkpt lat="52.634237995371222" lon="-7.370237968862057">
        <ele>106.36</ele>
        <time>2026-06-26T12:58:01Z</time>
      </trkpt>
      <trkpt lat="52.634207988157868" lon="-7.370398985221982">
        <ele>106.36</ele>
        <time>2026-06-26T12:58:02Z</time>
      </trkpt>
      <trkpt lat="52.633958961814642" lon="-7.371717039495707">
        <ele>107.81</ele>
        <time>2026-06-26T12:58:09Z</time>
      </trkpt>
      <trkpt lat="52.633939012885094" lon="-7.371807983145118">
        <ele>108.29000000000001</ele>
        <time>2026-06-26T12:58:10Z</time>
      </trkpt>
      <trkpt lat="52.633918980136514" lon="-7.371895993128419">
        <ele>109.25</ele>
        <time>2026-06-26T12:58:12Z</time>
      </trkpt>
      <trkpt lat="52.633912023156881" lon="-7.371930023655295">
        <ele>109.73</ele>
        <time>2026-06-26T12:58:13Z</time>
      </trkpt>
      <trkpt lat="52.633903976529837" lon="-7.37196397036314">
        <ele>109.73</ele>
        <time>2026-06-26T12:58:14Z</time>
      </trkpt>
      <trkpt lat="52.633898025378585" lon="-7.371990960091353">
        <ele>109.73</ele>
        <time>2026-06-26T12:58:15Z</time>
      </trkpt>
      <trkpt lat="52.633898025378585" lon="-7.371990960091353">
        <ele>110.20999999999999</ele>
        <time>2026-06-26T12:58:16Z</time>
      </trkpt>
      <trkpt lat="52.633898025378585" lon="-7.371990960091353">
        <ele>110.69</ele>
        <time>2026-06-26T12:58:25Z</time>
      </trkpt>
      <trkpt lat="52.633904982358217" lon="-7.371959025040269">
        <ele>111.17</ele>
        <time>2026-06-26T12:58:28Z</time>
      </trkpt>
      <trkpt lat="52.633912023156881" lon="-7.371927006170154">
        <ele>111.17</ele>
        <time>2026-06-26T12:58:29Z</time>
      </trkpt>
      <trkpt lat="52.633923003450036" lon="-7.37187696620822">
        <ele>111.17</ele>
        <time>2026-06-26T12:58:30Z</time>
      </trkpt>
      <trkpt lat="52.633935995399952" lon="-7.371818041428924">
        <ele>111.17</ele>
        <time>2026-06-26T12:58:31Z</time>
      </trkpt>
      <trkpt lat="52.633948987349868" lon="-7.371761966496706">
        <ele>110.69</ele>
        <time>2026-06-26T12:58:32Z</time>
      </trkpt>
      <trkpt lat="52.633958961814642" lon="-7.371715027838945">
        <ele>110.20999999999999</ele>
        <time>2026-06-26T12:58:33Z</time>
      </trkpt>
      <trkpt lat="52.63391001150012" lon="-7.37157303839922">
        <ele>110.20999999999999</ele>
        <time>2026-06-26T12:58:34Z</time>
      </trkpt>
      <trkpt lat="52.633872963488102" lon="-7.371584018692374">
        <ele>109.73</ele>
        <time>2026-06-26T12:58:35Z</time>
      </trkpt>
      <trkpt lat="52.633812027052045" lon="-7.371601033955813">
        <ele>109.73</ele>
        <time>2026-06-26T12:58:36Z</time>
      </trkpt>
      <trkpt lat="52.633733991533518" lon="-7.371625006198883">
        <ele>109.73</ele>
        <time>2026-06-26T12:58:37Z</time>
      </trkpt>
      <trkpt lat="52.633641958236694" lon="-7.371650990098715">
        <ele>109.73</ele>
        <time>2026-06-26T12:58:38Z</time>
      </trkpt>
      <trkpt lat="52.63343601487577" lon="-7.371677979826927">
        <ele>109.73</ele>
        <time>2026-06-26T12:58:40Z</time>
      </trkpt>
      <trkpt lat="52.633112976327538" lon="-7.371717961505055">
        <ele>110.69</ele>
        <time>2026-06-26T12:58:45Z</time>
      </trkpt>
      <trkpt lat="52.632959000766277" lon="-7.371735982596874">
        <ele>115.01000000000001</ele>
        <time>2026-06-26T12:58:53Z</time>
      </trkpt>
      <trkpt lat="52.63270796276629" lon="-7.371701030060649">
        <ele>116.94</ele>
        <time>2026-06-26T12:59:01Z</time>
      </trkpt>
      <trkpt lat="52.632501013576984" lon="-7.371663982048631">
        <ele>117.90000000000001</ele>
        <time>2026-06-26T12:59:03Z</time>
      </trkpt>
      <trkpt lat="52.632388025522232" lon="-7.371643027290702">
        <ele>118.38</ele>
        <time>2026-06-26T12:59:04Z</time>
      </trkpt>
      <trkpt lat="52.632269002497196" lon="-7.371620982885361">
        <ele>118.86</ele>
        <time>2026-06-26T12:59:05Z</time>
      </trkpt>
      <trkpt lat="52.632142016664147" lon="-7.371599022299051">
        <ele>119.81999999999999</ele>
        <time>2026-06-26T12:59:06Z</time>
      </trkpt>
      <trkpt lat="52.632004972547293" lon="-7.371573960408568">
        <ele>120.3</ele>
        <time>2026-06-26T12:59:07Z</time>
      </trkpt>
      <trkpt lat="52.630654983222485" lon="-7.371127037331462">
        <ele>120.3</ele>
        <time>2026-06-26T12:59:16Z</time>
      </trkpt>
      <trkpt lat="52.629771027714014" lon="-7.370614986866713">
        <ele>118.38</ele>
        <time>2026-06-26T12:59:23Z</time>
      </trkpt>
      <trkpt lat="52.629682011902332" lon="-7.37050199881196">
        <ele>117.90000000000001</ele>
        <time>2026-06-26T12:59:24Z</time>
      </trkpt>
      <trkpt lat="52.629134003072977" lon="-7.369805965572596">
        <ele>113.56999999999999</ele>
        <time>2026-06-26T12:59:29Z</time>
      </trkpt>
      <trkpt lat="52.629023026674986" lon="-7.36966397613287">
        <ele>113.09</ele>
        <time>2026-06-26T12:59:30Z</time>
      </trkpt>
      <trkpt lat="52.628915989771485" lon="-7.369528021663427">
        <ele>112.13</ele>
        <time>2026-06-26T12:59:31Z</time>
      </trkpt>
      <trkpt lat="52.628816999495029" lon="-7.369402963668108">
        <ele>111.65000000000001</ele>
        <time>2026-06-26T12:59:32Z</time>
      </trkpt>
      <trkpt lat="52.628693031147122" lon="-7.369335992261767">
        <ele>111.17</ele>
        <time>2026-06-26T12:59:33Z</time>
      </trkpt>
      <trkpt lat="52.628557998687029" lon="-7.369328029453754">
        <ele>111.17</ele>
        <time>2026-06-26T12:59:34Z</time>
      </trkpt>
      <trkpt lat="52.628421038389206" lon="-7.369359964504838">
        <ele>111.17</ele>
        <time>2026-06-26T12:59:35Z</time>
      </trkpt>
      <trkpt lat="52.627584021538496" lon="-7.369216969236732">
        <ele>111.17</ele>
        <time>2026-06-26T12:59:41Z</time>
      </trkpt>
      <trkpt lat="52.62673300690949" lon="-7.368758982047439">
        <ele>115.01000000000001</ele>
        <time>2026-06-26T12:59:47Z</time>
      </trkpt>
      <trkpt lat="52.626580959185958" lon="-7.36873802728951">
        <ele>115.98</ele>
        <time>2026-06-26T12:59:48Z</time>
      </trkpt>
      <trkpt lat="52.625872017815709" lon="-7.368754958733916">
        <ele>119.34</ele>
        <time>2026-06-26T12:59:53Z</time>
      </trkpt>
      <trkpt lat="52.625731034204364" lon="-7.368763005360961">
        <ele>119.81999999999999</ele>
        <time>2026-06-26T12:59:54Z</time>
      </trkpt>
      <trkpt lat="52.625584015622735" lon="-7.368795024231076">
        <ele>120.3</ele>
        <time>2026-06-26T12:59:55Z</time>
      </trkpt>
      <trkpt lat="52.624083990231156" lon="-7.369124013930559">
        <ele>116.94</ele>
        <time>2026-06-26T13:00:05Z</time>
      </trkpt>
      <trkpt lat="52.62357504107058" lon="-7.36912602558732">
        <ele>113.56999999999999</ele>
        <time>2026-06-26T13:00:09Z</time>
      </trkpt>
      <trkpt lat="52.623459035530686" lon="-7.369046984240413">
        <ele>113.56999999999999</ele>
        <time>2026-06-26T13:00:10Z</time>
      </trkpt>
      <trkpt lat="52.623333977535367" lon="-7.368961991742253">
        <ele>113.09</ele>
        <time>2026-06-26T13:00:11Z</time>
      </trkpt>
      <trkpt lat="52.622477011755109" lon="-7.368261013180018">
        <ele>109.73</ele>
        <time>2026-06-26T13:00:18Z</time>
      </trkpt>
      <trkpt lat="52.62239302508533" lon="-7.368083987385035">
        <ele>110.20999999999999</ele>
        <time>2026-06-26T13:00:19Z</time>
      </trkpt>
      <trkpt lat="52.621714007109404" lon="-7.366640036925674">
        <ele>108.29000000000001</ele>
        <time>2026-06-26T13:00:28Z</time>
      </trkpt>
      <trkpt lat="52.621557014063001" lon="-7.366306018084288">
        <ele>106.36</ele>
        <time>2026-06-26T13:00:34Z</time>
      </trkpt>
      <trkpt lat="52.621538992971182" lon="-7.366266036406159">
        <ele>105.88</ele>
        <time>2026-06-26T13:00:39Z</time>
      </trkpt>
      <trkpt lat="52.621505968272686" lon="-7.366263018921018">
        <ele>105.88</ele>
        <time>2026-06-26T13:00:40Z</time>
      </trkpt>
      <trkpt lat="52.621465986594558" lon="-7.36629000864923">
        <ele>105.40000000000001</ele>
        <time>2026-06-26T13:00:41Z</time>
      </trkpt>
      <trkpt lat="52.621404966339469" lon="-7.366329990327358">
        <ele>105.40000000000001</ele>
        <time>2026-06-26T13:00:42Z</time>
      </trkpt>
      <trkpt lat="52.621336989104748" lon="-7.36637600697577">
        <ele>104.92</ele>
        <time>2026-06-26T13:00:43Z</time>
      </trkpt>
      <trkpt lat="52.621256019920111" lon="-7.366455970332027">
        <ele>104.92</ele>
        <time>2026-06-26T13:00:44Z</time>
      </trkpt>
      <trkpt lat="52.62116800993681" lon="-7.366544986143708">
        <ele>104.44</ele>
        <time>2026-06-26T13:00:45Z</time>
      </trkpt>
      <trkpt lat="52.620364017784595" lon="-7.367387032136321">
        <ele>102.52</ele>
        <time>2026-06-26T13:00:52Z</time>
      </trkpt>
      <trkpt lat="52.619482995942235" lon="-7.368184989318252">
        <ele>105.40000000000001</ele>
        <time>2026-06-26T13:00:58Z</time>
      </trkpt>
      <trkpt lat="52.619329020380974" lon="-7.36824600957334">
        <ele>105.88</ele>
        <time>2026-06-26T13:00:59Z</time>
      </trkpt>
      <trkpt lat="52.618873966857791" lon="-7.36845999956131">
        <ele>106.84</ele>
        <time>2026-06-26T13:01:02Z</time>
      </trkpt>
      <trkpt lat="52.618728959932923" lon="-7.368580028414726">
        <ele>106.84</ele>
        <time>2026-06-26T13:01:03Z</time>
      </trkpt>
      <trkpt lat="52.618284970521927" lon="-7.368947993963957">
        <ele>106.36</ele>
        <time>2026-06-26T13:01:06Z</time>
      </trkpt>
      <trkpt lat="52.618129989132285" lon="-7.369067016988993">
        <ele>106.36</ele>
        <time>2026-06-26T13:01:07Z</time>
      </trkpt>
      <trkpt lat="52.617660015821457" lon="-7.369393995031714">
        <ele>106.36</ele>
        <time>2026-06-26T13:01:10Z</time>
      </trkpt>
      <trkpt lat="52.617391962558031" lon="-7.369632963091135">
        <ele>106.84</ele>
        <time>2026-06-26T13:01:12Z</time>
      </trkpt>
      <trkpt lat="52.617279980331659" lon="-7.369766989722848">
        <ele>106.36</ele>
        <time>2026-06-26T13:01:13Z</time>
      </trkpt>
      <trkpt lat="52.617177972570062" lon="-7.369938986375928">
        <ele>106.36</ele>
        <time>2026-06-26T13:01:14Z</time>
      </trkpt>
      <trkpt lat="52.617075964808464" lon="-7.370108971372247">
        <ele>106.36</ele>
        <time>2026-06-26T13:01:15Z</time>
      </trkpt>
      <trkpt lat="52.616959037259221" lon="-7.370303012430668">
        <ele>106.84</ele>
        <time>2026-06-26T13:01:16Z</time>
      </trkpt>
      <trkpt lat="52.616853006184101" lon="-7.370408959686756">
        <ele>106.84</ele>
        <time>2026-06-26T13:01:17Z</time>
      </trkpt>
      <trkpt lat="52.616727026179433" lon="-7.370535023510456">
        <ele>107.31999999999999</ele>
        <time>2026-06-26T13:01:18Z</time>
      </trkpt>
      <trkpt lat="52.616579001769423" lon="-7.370613981038332">
        <ele>107.31999999999999</ele>
        <time>2026-06-26T13:01:19Z</time>
      </trkpt>
      <trkpt lat="52.616427037864923" lon="-7.37069302238524">
        <ele>107.81</ele>
        <time>2026-06-26T13:01:20Z</time>
      </trkpt>
      <trkpt lat="52.61626903899014" lon="-7.370774997398257">
        <ele>107.81</ele>
        <time>2026-06-26T13:01:21Z</time>
      </trkpt>
      <trkpt lat="52.616105005145073" lon="-7.370860995724797">
        <ele>107.81</ele>
        <time>2026-06-26T13:01:22Z</time>
      </trkpt>
      <trkpt lat="52.615650035440922" lon="-7.371097030118108">
        <ele>107.81</ele>
        <time>2026-06-26T13:01:25Z</time>
      </trkpt>
      <trkpt lat="52.615524977445602" lon="-7.371233990415931">
        <ele>107.31999999999999</ele>
        <time>2026-06-26T13:01:26Z</time>
      </trkpt>
      <trkpt lat="52.615412995219231" lon="-7.371356030926108">
        <ele>106.84</ele>
        <time>2026-06-26T13:01:27Z</time>
      </trkpt>
      <trkpt lat="52.614481011405587" lon="-7.372880028560758">
        <ele>103.95999999999999</ele>
        <time>2026-06-26T13:01:35Z</time>
      </trkpt>
      <trkpt lat="52.613437967374921" lon="-7.374620027840138">
        <ele>105.88</ele>
        <time>2026-06-26T13:01:44Z</time>
      </trkpt>
      <trkpt lat="52.613294972106814" lon="-7.375039961189032">
        <ele>107.81</ele>
        <time>2026-06-26T13:01:46Z</time>
      </trkpt>
      <trkpt lat="52.613238980993629" lon="-7.375263003632426">
        <ele>108.77</ele>
        <time>2026-06-26T13:01:47Z</time>
      </trkpt>
      <trkpt lat="52.612671023234725" lon="-7.377245994284749">
        <ele>110.20999999999999</ele>
        <time>2026-06-26T13:01:56Z</time>
      </trkpt>
      <trkpt lat="52.61253003962338" lon="-7.377682020887733">
        <ele>110.20999999999999</ele>
        <time>2026-06-26T13:01:58Z</time>
      </trkpt>
      <trkpt lat="52.612257963046432" lon="-7.378564970567823">
        <ele>109.25</ele>
        <time>2026-06-26T13:02:02Z</time>
      </trkpt>
      <trkpt lat="52.612174982205033" lon="-7.378765968605876">
        <ele>108.77</ele>
        <time>2026-06-26T13:02:03Z</time>
      </trkpt>
      <trkpt lat="52.611956968903542" lon="-7.37913996912539">
        <ele>108.29000000000001</ele>
        <time>2026-06-26T13:02:05Z</time>
      </trkpt>
      <trkpt lat="52.611843980848789" lon="-7.379323029890657">
        <ele>108.29000000000001</ele>
        <time>2026-06-26T13:02:06Z</time>
      </trkpt>
      <trkpt lat="52.610743017867208" lon="-7.380997985601425">
        <ele>106.84</ele>
        <time>2026-06-26T13:02:15Z</time>
      </trkpt>
      <trkpt lat="52.610342027619481" lon="-7.381856041029096">
        <ele>107.31999999999999</ele>
        <time>2026-06-26T13:02:19Z</time>
      </trkpt>
      <trkpt lat="52.610255023464561" lon="-7.382054021582007">
        <ele>107.31999999999999</ele>
        <time>2026-06-26T13:02:20Z</time>
      </trkpt>
      <trkpt lat="52.610171958804131" lon="-7.382243033498526">
        <ele>107.31999999999999</ele>
        <time>2026-06-26T13:02:21Z</time>
      </trkpt>
      <trkpt lat="52.610056037083268" lon="-7.382389968261123">
        <ele>107.31999999999999</ele>
        <time>2026-06-26T13:02:22Z</time>
      </trkpt>
      <trkpt lat="52.609929973259568" lon="-7.382532963529229">
        <ele>107.31999999999999</ele>
        <time>2026-06-26T13:02:23Z</time>
      </trkpt>
      <trkpt lat="52.609797036275268" lon="-7.382682999596">
        <ele>107.31999999999999</ele>
        <time>2026-06-26T13:02:24Z</time>
      </trkpt>
      <trkpt lat="52.609665021300316" lon="-7.38283202983439">
        <ele>107.31999999999999</ele>
        <time>2026-06-26T13:02:25Z</time>
      </trkpt>
      <trkpt lat="52.609544992446899" lon="-7.38300796598196">
        <ele>107.31999999999999</ele>
        <time>2026-06-26T13:02:26Z</time>
      </trkpt>
      <trkpt lat="52.609309963881969" lon="-7.383379032835364">
        <ele>107.31999999999999</ele>
        <time>2026-06-26T13:02:28Z</time>
      </trkpt>
      <trkpt lat="52.609217008575797" lon="-7.383597968146205">
        <ele>107.81</ele>
        <time>2026-06-26T13:02:29Z</time>
      </trkpt>
      <trkpt lat="52.609122963622212" lon="-7.383815981447697">
        <ele>107.81</ele>
        <time>2026-06-26T13:02:30Z</time>
      </trkpt>
      <trkpt lat="52.609027996659279" lon="-7.384038018062711">
        <ele>107.81</ele>
        <time>2026-06-26T13:02:31Z</time>
      </trkpt>
      <trkpt lat="52.608926994726062" lon="-7.38427396863699">
        <ele>107.31999999999999</ele>
        <time>2026-06-26T13:02:32Z</time>
      </trkpt>
      <trkpt lat="52.608822975307703" lon="-7.384515032172203">
        <ele>106.36</ele>
        <time>2026-06-26T13:02:33Z</time>
      </trkpt>
      <trkpt lat="52.608695989474654" lon="-7.384733967483044">
        <ele>105.88</ele>
        <time>2026-06-26T13:02:34Z</time>
      </trkpt>
      <trkpt lat="52.608567997813225" lon="-7.384958015754819">
        <ele>105.40000000000001</ele>
        <time>2026-06-26T13:02:35Z</time>
      </trkpt>
      <trkpt lat="52.608440006151795" lon="-7.385178962722421">
        <ele>105.40000000000001</ele>
        <time>2026-06-26T13:02:36Z</time>
      </trkpt>
      <trkpt lat="52.60829902254045" lon="-7.385361017659307">
        <ele>105.40000000000001</ele>
        <time>2026-06-26T13:02:37Z</time>
      </trkpt>
      <trkpt lat="52.608158038929105" lon="-7.385531002655625">
        <ele>105.40000000000001</ele>
        <time>2026-06-26T13:02:38Z</time>
      </trkpt>
      <trkpt lat="52.608015965670347" lon="-7.385701993480325">
        <ele>104.92</ele>
        <time>2026-06-26T13:02:39Z</time>
      </trkpt>
      <trkpt lat="52.607875987887383" lon="-7.385870972648263">
        <ele>104.44</ele>
        <time>2026-06-26T13:02:40Z</time>
      </trkpt>
      <trkpt lat="52.607737015932798" lon="-7.386038023978472">
        <ele>104.44</ele>
        <time>2026-06-26T13:02:41Z</time>
      </trkpt>
      <trkpt lat="52.607582034543157" lon="-7.386224018409848">
        <ele>104.44</ele>
        <time>2026-06-26T13:02:42Z</time>
      </trkpt>
      <trkpt lat="52.606404041871428" lon="-7.38835503347218">
        <ele>102.04000000000001</ele>
        <time>2026-06-26T13:02:52Z</time>
      </trkpt>
      <trkpt lat="52.605855027213693" lon="-7.389453984797001">
        <ele>101.08</ele>
        <time>2026-06-26T13:02:58Z</time>
      </trkpt>
      <trkpt lat="52.605814961716533" lon="-7.389606032520533">
        <ele>100.59999999999999</ele>
        <time>2026-06-26T13:02:59Z</time>
      </trkpt>
      <trkpt lat="52.605800963938236" lon="-7.389769982546568">
        <ele>100.11</ele>
        <time>2026-06-26T13:03:00Z</time>
      </trkpt>
      <trkpt lat="52.605800963938236" lon="-7.390015991404653">
        <ele>98.670000000000002</ele>
        <time>2026-06-26T13:03:02Z</time>
      </trkpt>
      <trkpt lat="52.60574396699667" lon="-7.390154963359237">
        <ele>98.189999999999998</ele>
        <time>2026-06-26T13:03:03Z</time>
      </trkpt>
      <trkpt lat="52.60567900724709" lon="-7.390208020806313">
        <ele>97.709999999999994</ele>
        <time>2026-06-26T13:03:04Z</time>
      </trkpt>
      <trkpt lat="52.605596026405692" lon="-7.390273986384273">
        <ele>97.230000000000004</ele>
        <time>2026-06-26T13:03:05Z</time>
      </trkpt>
      <trkpt lat="52.605499969795346" lon="-7.39035302773118">
        <ele>97.230000000000004</ele>
        <time>2026-06-26T13:03:06Z</time>
      </trkpt>
      <trkpt lat="52.604591958224773" lon="-7.391066998243332">
        <ele>96.75</ele>
        <time>2026-06-26T13:03:14Z</time>
      </trkpt>
      <trkpt lat="52.603418994694948" lon="-7.39179102703929">
        <ele>97.230000000000004</ele>
        <time>2026-06-26T13:03:23Z</time>
      </trkpt>
      <trkpt lat="52.602277966216207" lon="-7.39293297752738">
        <ele>93.390000000000001</ele>
        <time>2026-06-26T13:03:32Z</time>
      </trkpt>
      <trkpt lat="52.601675977930427" lon="-7.393583999946713">
        <ele>89.540000000000006</ele>
        <time>2026-06-26T13:03:37Z</time>
      </trkpt>
      <trkpt lat="52.600526986643672" lon="-7.39447801373899">
        <ele>84.25</ele>
        <time>2026-06-26T13:03:46Z</time>
      </trkpt>
      <trkpt lat="52.599578993394971" lon="-7.39525300450623">
        <ele>82.329999999999998</ele>
        <time>2026-06-26T13:03:54Z</time>
      </trkpt>
      <trkpt lat="52.599471034482121" lon="-7.395297009497881">
        <ele>82.329999999999998</ele>
        <time>2026-06-26T13:03:55Z</time>
      </trkpt>
      <trkpt lat="52.599373972043395" lon="-7.39529499784112">
        <ele>81.849999999999994</ele>
        <time>2026-06-26T13:03:56Z</time>
      </trkpt>
      <trkpt lat="52.599298032000661" lon="-7.39523196592927">
        <ele>81.849999999999994</ele>
        <time>2026-06-26T13:03:57Z</time>
      </trkpt>
      <trkpt lat="52.599236005917192" lon="-7.395125012844801">
        <ele>81.849999999999994</ele>
        <time>2026-06-26T13:03:58Z</time>
      </trkpt>
      <trkpt lat="52.599170040339231" lon="-7.394986040890217">
        <ele>82.329999999999998</ele>
        <time>2026-06-26T13:03:59Z</time>
      </trkpt>
      <trkpt lat="52.599106002599001" lon="-7.394850002601743">
        <ele>82.329999999999998</ele>
        <time>2026-06-26T13:04:00Z</time>
      </trkpt>
      <trkpt lat="52.59846000932157" lon="-7.393779968842864">
        <ele>82.329999999999998</ele>
        <time>2026-06-26T13:04:06Z</time>
      </trkpt>
      <trkpt lat="52.597647970542312" lon="-7.3927609808743">
        <ele>83.290000000000006</ele>
        <time>2026-06-26T13:04:13Z</time>
      </trkpt>
      <trkpt lat="52.597290985286236" lon="-7.392393015325069">
        <ele>84.25</ele>
        <time>2026-06-26T13:04:16Z</time>
      </trkpt>
      <trkpt lat="52.597197024151683" lon="-7.392210038378835">
        <ele>84.25</ele>
        <time>2026-06-26T13:04:17Z</time>
      </trkpt>
      <trkpt lat="52.597112031653523" lon="-7.39200996235013">
        <ele>84.730000000000004</ele>
        <time>2026-06-26T13:04:18Z</time>
      </trkpt>
      <trkpt lat="52.596947997808456" lon="-7.391624981537461">
        <ele>85.209999999999994</ele>
        <time>2026-06-26T13:04:20Z</time>
      </trkpt>
      <trkpt lat="52.596863005310297" lon="-7.391461031511426">
        <ele>85.689999999999998</ele>
        <time>2026-06-26T13:04:21Z</time>
      </trkpt>
      <trkpt lat="52.596763009205461" lon="-7.391335973516107">
        <ele>86.180000000000007</ele>
        <time>2026-06-26T13:04:22Z</time>
      </trkpt>
      <trkpt lat="52.596664018929005" lon="-7.3912120051682">
        <ele>86.180000000000007</ele>
        <time>2026-06-26T13:04:23Z</time>
      </trkpt>
      <trkpt lat="52.596528986468911" lon="-7.391160959377885">
        <ele>86.659999999999997</ele>
        <time>2026-06-26T13:04:24Z</time>
      </trkpt>
      <trkpt lat="52.59639797732234" lon="-7.391136987134814">
        <ele>86.659999999999997</ele>
        <time>2026-06-26T13:04:25Z</time>
      </trkpt>
      <trkpt lat="52.596264034509659" lon="-7.391112009063363">
        <ele>86.659999999999997</ele>
        <time>2026-06-26T13:04:26Z</time>
      </trkpt>
      <trkpt lat="52.596124978736043" lon="-7.391087030991912">
        <ele>86.180000000000007</ele>
        <time>2026-06-26T13:04:27Z</time>
      </trkpt>
      <trkpt lat="52.595982989296317" lon="-7.391060963273048">
        <ele>86.180000000000007</ele>
        <time>2026-06-26T13:04:28Z</time>
      </trkpt>
      <trkpt lat="52.595077995210886" lon="-7.390904976055026">
        <ele>85.209999999999994</ele>
        <time>2026-06-26T13:04:34Z</time>
      </trkpt>
      <trkpt lat="52.594928964972496" lon="-7.390830963850021">
        <ele>85.209999999999994</ele>
        <time>2026-06-26T13:04:35Z</time>
      </trkpt>
      <trkpt lat="52.594794016331434" lon="-7.390720993280411">
        <ele>85.689999999999998</ele>
        <time>2026-06-26T13:04:36Z</time>
      </trkpt>
      <trkpt lat="52.594651021063328" lon="-7.390593001618981">
        <ele>85.689999999999998</ele>
        <time>2026-06-26T13:04:37Z</time>
      </trkpt>
      <trkpt lat="52.594508025795221" lon="-7.390465009957552">
        <ele>85.689999999999998</ele>
        <time>2026-06-26T13:04:38Z</time>
      </trkpt>
      <trkpt lat="52.593561038374901" lon="-7.389350971207023">
        <ele>87.620000000000005</ele>
        <time>2026-06-26T13:04:46Z</time>
      </trkpt>
      <trkpt lat="52.592505002394319" lon="-7.387739969417453">
        <ele>86.659999999999997</ele>
        <time>2026-06-26T13:04:56Z</time>
      </trkpt>
      <trkpt lat="52.59201499633491" lon="-7.386981993913651">
        <ele>85.209999999999994</ele>
        <time>2026-06-26T13:05:00Z</time>
      </trkpt>
      <trkpt lat="52.591872001066804" lon="-7.386885015293956">
        <ele>84.730000000000004</ele>
        <time>2026-06-26T13:05:01Z</time>
      </trkpt>
      <trkpt lat="52.590715968981385" lon="-7.386304987594485">
        <ele>82.329999999999998</ele>
        <time>2026-06-26T13:05:09Z</time>
      </trkpt>
      <trkpt lat="52.590434001758695" lon="-7.386254025623202">
        <ele>81.849999999999994</ele>
        <time>2026-06-26T13:05:11Z</time>
      </trkpt>
      <trkpt lat="52.590297041460872" lon="-7.386260982602835">
        <ele>81.849999999999994</ele>
        <time>2026-06-26T13:05:12Z</time>
      </trkpt>
      <trkpt lat="52.590014990419149" lon="-7.386214965954423">
        <ele>81.370000000000005</ele>
        <time>2026-06-26T13:05:14Z</time>
      </trkpt>
      <trkpt lat="52.589880041778088" lon="-7.386165009811521">
        <ele>81.370000000000005</ele>
        <time>2026-06-26T13:05:15Z</time>
      </trkpt>
      <trkpt lat="52.589740986004472" lon="-7.386106001213193">
        <ele>81.849999999999994</ele>
        <time>2026-06-26T13:05:16Z</time>
      </trkpt>
      <trkpt lat="52.589621962979436" lon="-7.385974992066622">
        <ele>81.849999999999994</ele>
        <time>2026-06-26T13:05:17Z</time>
      </trkpt>
      <trkpt lat="52.589499000459909" lon="-7.385839959606528">
        <ele>82.329999999999998</ele>
        <time>2026-06-26T13:05:18Z</time>
      </trkpt>
      <trkpt lat="52.588249007239938" lon="-7.384855002164841">
        <ele>82.810000000000002</ele>
        <time>2026-06-26T13:05:27Z</time>
      </trkpt>
      <trkpt lat="52.58713698014617" lon="-7.38457303494215">
        <ele>81.849999999999994</ele>
        <time>2026-06-26T13:05:35Z</time>
      </trkpt>
      <trkpt lat="52.586995996534824" lon="-7.384501034393907">
        <ele>81.849999999999994</ele>
        <time>2026-06-26T13:05:36Z</time>
      </trkpt>
      <trkpt lat="52.585795959457755" lon="-7.383811036124826">
        <ele>85.209999999999994</ele>
        <time>2026-06-26T13:05:45Z</time>
      </trkpt>
      <trkpt lat="52.585670985281467" lon="-7.383702993392944">
        <ele>85.689999999999998</ele>
        <time>2026-06-26T13:05:46Z</time>
      </trkpt>
      <trkpt lat="52.583888992667198" lon="-7.382301958277822">
        <ele>86.180000000000007</ele>
        <time>2026-06-26T13:05:59Z</time>
      </trkpt>
      <trkpt lat="52.582544032484293" lon="-7.381499977782369">
        <ele>84.25</ele>
        <time>2026-06-26T13:06:08Z</time>
      </trkpt>
      <trkpt lat="52.581265037879348" lon="-7.381010977551341">
        <ele>85.689999999999998</ele>
        <time>2026-06-26T13:06:16Z</time>
      </trkpt>
      <trkpt lat="52.579865008592606" lon="-7.380093997344375">
        <ele>89.060000000000002</ele>
        <time>2026-06-26T13:06:26Z</time>
      </trkpt>
      <trkpt lat="52.578460033982992" lon="-7.379320012405515">
        <ele>89.060000000000002</ele>
        <time>2026-06-26T13:06:35Z</time>
      </trkpt>
      <trkpt lat="52.576438989490271" lon="-7.378456005826592">
        <ele>89.060000000000002</ele>
        <time>2026-06-26T13:06:48Z</time>
      </trkpt>
      <trkpt lat="52.575772041454911" lon="-7.37817001529038">
        <ele>88.579999999999998</ele>
        <time>2026-06-26T13:06:54Z</time>
      </trkpt>
      <trkpt lat="52.575627034530044" lon="-7.37810798920691">
        <ele>88.099999999999994</ele>
        <time>2026-06-26T13:07:01Z</time>
      </trkpt>
      <trkpt lat="52.575396029278636" lon="-7.378039006143808">
        <ele>88.579999999999998</ele>
        <time>2026-06-26T13:07:08Z</time>
      </trkpt>
      <trkpt lat="52.574622966349125" lon="-7.377825016155839">
        <ele>88.579999999999998</ele>
        <time>2026-06-26T13:07:14Z</time>
      </trkpt>
      <trkpt lat="52.574463039636612" lon="-7.377801965922117">
        <ele>88.579999999999998</ele>
        <time>2026-06-26T13:07:15Z</time>
      </trkpt>
      <trkpt lat="52.574294982478023" lon="-7.37778696231544">
        <ele>88.099999999999994</ele>
        <time>2026-06-26T13:07:16Z</time>
      </trkpt>
      <trkpt lat="52.572490023449063" lon="-7.377556040883064">
        <ele>88.099999999999994</ele>
        <time>2026-06-26T13:07:26Z</time>
      </trkpt>
      <trkpt lat="52.572003034874797" lon="-7.377524022012949">
        <ele>88.099999999999994</ele>
        <time>2026-06-26T13:07:29Z</time>
      </trkpt>
      <trkpt lat="52.570337969809771" lon="-7.377402987331152">
        <ele>85.689999999999998</ele>
        <time>2026-06-26T13:07:40Z</time>
      </trkpt>
      <trkpt lat="52.570197992026806" lon="-7.377383038401604">
        <ele>84.730000000000004</ele>
        <time>2026-06-26T13:07:41Z</time>
      </trkpt>
      <trkpt lat="52.568466039374471" lon="-7.377136023715138">
        <ele>83.290000000000006</ele>
        <time>2026-06-26T13:07:53Z</time>
      </trkpt>
      <trkpt lat="52.566868029534817" lon="-7.376755988225341">
        <ele>82.810000000000002</ele>
        <time>2026-06-26T13:08:04Z</time>
      </trkpt>
      <trkpt lat="52.565567996352911" lon="-7.376362960785627">
        <ele>82.810000000000002</ele>
        <time>2026-06-26T13:08:13Z</time>
      </trkpt>
      <trkpt lat="52.564515983685851" lon="-7.375599034130573">
        <ele>81.370000000000005</ele>
        <time>2026-06-26T13:08:21Z</time>
      </trkpt>
      <trkpt lat="52.564017008990049" lon="-7.375177005305886">
        <ele>81.370000000000005</ele>
        <time>2026-06-26T13:08:25Z</time>
      </trkpt>
      <trkpt lat="52.562502985820174" lon="-7.374361027032137">
        <ele>80.409999999999997</ele>
        <time>2026-06-26T13:08:36Z</time>
      </trkpt>
      <trkpt lat="52.562392009422183" lon="-7.374336970970035">
        <ele>80.409999999999997</ele>
        <time>2026-06-26T13:08:37Z</time>
      </trkpt>
      <trkpt lat="52.562294024974108" lon="-7.374386005103588">
        <ele>80.409999999999997</ele>
        <time>2026-06-26T13:08:38Z</time>
      </trkpt>
      <trkpt lat="52.562221018597484" lon="-7.374422969296575">
        <ele>80.409999999999997</ele>
        <time>2026-06-26T13:08:39Z</time>
      </trkpt>
      <trkpt lat="52.562165027484298" lon="-7.374553978443146">
        <ele>80.409999999999997</ele>
        <time>2026-06-26T13:08:40Z</time>
      </trkpt>
      <trkpt lat="52.562109036371112" lon="-7.374689010903239">
        <ele>79.930000000000007</ele>
        <time>2026-06-26T13:08:41Z</time>
      </trkpt>
      <trkpt lat="52.562047010287642" lon="-7.374835023656488">
        <ele>80.409999999999997</ele>
        <time>2026-06-26T13:08:42Z</time>
      </trkpt>
      <trkpt lat="52.561979033052921" lon="-7.374996040016413">
        <ele>80.890000000000001</ele>
        <time>2026-06-26T13:08:43Z</time>
      </trkpt>
      <trkpt lat="52.561907032504678" lon="-7.375168958678842">
        <ele>80.890000000000001</ele>
        <time>2026-06-26T13:08:44Z</time>
      </trkpt>
      <trkpt lat="52.561812987551093" lon="-7.375341039150953">
        <ele>81.370000000000005</ele>
        <time>2026-06-26T13:08:45Z</time>
      </trkpt>
      <trkpt lat="52.561704022809863" lon="-7.375514041632414">
        <ele>81.849999999999994</ele>
        <time>2026-06-26T13:08:46Z</time>
      </trkpt>
      <trkpt lat="52.560806991532445" lon="-7.376941982656717">
        <ele>84.730000000000004</ele>
        <time>2026-06-26T13:08:54Z</time>
      </trkpt>
      <trkpt lat="52.560334000736475" lon="-7.377689983695746">
        <ele>83.290000000000006</ele>
        <time>2026-06-26T13:08:59Z</time>
      </trkpt>
      <trkpt lat="52.559665041044354" lon="-7.378703020513058">
        <ele>80.890000000000001</ele>
        <time>2026-06-26T13:09:05Z</time>
      </trkpt>
      <trkpt lat="52.559176962822676" lon="-7.37922303378582">
        <ele>79.450000000000003</ele>
        <time>2026-06-26T13:09:09Z</time>
      </trkpt>
      <trkpt lat="52.559061041101813" lon="-7.379320012405515">
        <ele>79.450000000000003</ele>
        <time>2026-06-26T13:09:10Z</time>
      </trkpt>
      <trkpt lat="52.557930992916226" lon="-7.380142025649548">
        <ele>78.969999999999999</ele>
        <time>2026-06-26T13:09:20Z</time>
      </trkpt>
      <trkpt lat="52.556755011901259" lon="-7.380677964538336">
        <ele>76.079999999999998</ele>
        <time>2026-06-26T13:09:30Z</time>
      </trkpt>
      <trkpt lat="52.555433018133044" lon="-7.38049297593534">
        <ele>74.159999999999997</ele>
        <time>2026-06-26T13:09:41Z</time>
      </trkpt>
      <trkpt lat="52.554146982729435" lon="-7.380028031766415">
        <ele>72.239999999999995</ele>
        <time>2026-06-26T13:09:52Z</time>
      </trkpt>
      <trkpt lat="52.554019996896386" lon="-7.379966005682945">
        <ele>71.760000000000005</ele>
        <time>2026-06-26T13:09:58Z</time>
      </trkpt>
      <trkpt lat="52.553955037146807" lon="-7.379934992641211">
        <ele>71.760000000000005</ele>
        <time>2026-06-26T13:10:03Z</time>
      </trkpt>
      <trkpt lat="52.55389804020524" lon="-7.380023002624512">
        <ele>71.760000000000005</ele>
        <time>2026-06-26T13:10:04Z</time>
      </trkpt>
      <trkpt lat="52.553882030770183" lon="-7.380112018436194">
        <ele>71.760000000000005</ele>
        <time>2026-06-26T13:10:05Z</time>
      </trkpt>
      <trkpt lat="52.553860992193222" lon="-7.380233975127339">
        <ele>71.760000000000005</ele>
        <time>2026-06-26T13:10:06Z</time>
      </trkpt>
      <trkpt lat="52.55383500829339" lon="-7.380385017022491">
        <ele>71.760000000000005</ele>
        <time>2026-06-26T13:10:07Z</time>
      </trkpt>
      <trkpt lat="52.553802989423275" lon="-7.380562964826822">
        <ele>72.239999999999995</ele>
        <time>2026-06-26T13:10:08Z</time>
      </trkpt>
      <trkpt lat="52.553492020815611" lon="-7.38227698020637">
        <ele>71.760000000000005</ele>
        <time>2026-06-26T13:10:15Z</time>
      </trkpt>
      <trkpt lat="52.552720969542861" lon="-7.385106962174177">
        <ele>73.680000000000007</ele>
        <time>2026-06-26T13:10:25Z</time>
      </trkpt>
      <trkpt lat="52.551928041502833" lon="-7.387351971119642">
        <ele>77.040000000000006</ele>
        <time>2026-06-26T13:10:32Z</time>
      </trkpt>
      <trkpt lat="52.550492975860834" lon="-7.390149012207985">
        <ele>78.969999999999999</ele>
        <time>2026-06-26T13:10:41Z</time>
      </trkpt>
      <trkpt lat="52.548433961346745" lon="-7.393176974728704">
        <ele>78.480000000000004</ele>
        <time>2026-06-26T13:10:52Z</time>
      </trkpt>
      <trkpt lat="52.54685003310442" lon="-7.39523297175765">
        <ele>75.599999999999994</ele>
        <time>2026-06-26T13:11:00Z</time>
      </trkpt>
      <trkpt lat="52.545384960249066" lon="-7.396253971382976">
        <ele>74.159999999999997</ele>
        <time>2026-06-26T13:11:07Z</time>
      </trkpt>
      <trkpt lat="52.543498026207089" lon="-7.396685974672437">
        <ele>77.519999999999996</ele>
        <time>2026-06-26T13:11:15Z</time>
      </trkpt>
      <trkpt lat="52.540164040401578" lon="-7.397180004045367">
        <ele>86.180000000000007</ele>
        <time>2026-06-26T13:11:29Z</time>
      </trkpt>
      <trkpt lat="52.537984997034073" lon="-7.397527014836669">
        <ele>89.540000000000006</ele>
        <time>2026-06-26T13:11:40Z</time>
      </trkpt>
      <trkpt lat="52.536275004968047" lon="-7.398265041410923">
        <ele>89.540000000000006</ele>
        <time>2026-06-26T13:11:49Z</time>
      </trkpt>
      <trkpt lat="52.534786965698004" lon="-7.399935973808169">
        <ele>90.019999999999996</ele>
        <time>2026-06-26T13:11:58Z</time>
      </trkpt>
      <trkpt lat="52.533731013536453" lon="-7.402203027158976">
        <ele>89.540000000000006</ele>
        <time>2026-06-26T13:12:06Z</time>
      </trkpt>
      <trkpt lat="52.532791988924146" lon="-7.404633024707437">
        <ele>89.060000000000002</ele>
        <time>2026-06-26T13:12:12Z</time>
      </trkpt>
      <trkpt lat="52.531908033415675" lon="-7.406893037259579">
        <ele>88.099999999999994</ele>
        <time>2026-06-26T13:12:18Z</time>
      </trkpt>
      <trkpt lat="52.530195023864508" lon="-7.41098097525537">
        <ele>85.209999999999994</ele>
        <time>2026-06-26T13:12:31Z</time>
      </trkpt>
      <trkpt lat="52.528904965147376" lon="-7.412642017006874">
        <ele>81.370000000000005</ele>
        <time>2026-06-26T13:12:38Z</time>
      </trkpt>
      <trkpt lat="52.526880986988544" lon="-7.414679992944002">
        <ele>78.969999999999999</ele>
        <time>2026-06-26T13:12:49Z</time>
      </trkpt>
      <trkpt lat="52.525428989902139" lon="-7.415913976728916">
        <ele>79.930000000000007</ele>
        <time>2026-06-26T13:12:58Z</time>
      </trkpt>
      <trkpt lat="52.524041030555964" lon="-7.417251979932189">
        <ele>80.409999999999997</ele>
        <time>2026-06-26T13:13:09Z</time>
      </trkpt>
      <trkpt lat="52.523465026170015" lon="-7.4179180059582">
        <ele>80.409999999999997</ele>
        <time>2026-06-26T13:13:15Z</time>
      </trkpt>
      <trkpt lat="52.522578975185752" lon="-7.418510019779205">
        <ele>80.409999999999997</ele>
        <time>2026-06-26T13:13:21Z</time>
      </trkpt>
      <trkpt lat="52.521184980869293" lon="-7.419247040525079">
        <ele>82.810000000000002</ele>
        <time>2026-06-26T13:13:28Z</time>
      </trkpt>
      <trkpt lat="52.519043991342187" lon="-7.420222023501992">
        <ele>78.480000000000004</ele>
        <time>2026-06-26T13:13:38Z</time>
      </trkpt>
      <trkpt lat="52.516595972701907" lon="-7.421237993985415">
        <ele>79.450000000000003</ele>
        <time>2026-06-26T13:13:49Z</time>
      </trkpt>
      <trkpt lat="52.514683976769447" lon="-7.422622013837099">
        <ele>79.450000000000003</ele>
        <time>2026-06-26T13:13:58Z</time>
      </trkpt>
      <trkpt lat="52.514503011479974" lon="-7.422868022695184">
        <ele>79.450000000000003</ele>
        <time>2026-06-26T13:13:59Z</time>
      </trkpt>
      <trkpt lat="52.514325985684991" lon="-7.423132974654436">
        <ele>78.969999999999999</ele>
        <time>2026-06-26T13:14:00Z</time>
      </trkpt>
      <trkpt lat="52.512511974200606" lon="-7.426351960748434">
        <ele>73.200000000000003</ele>
        <time>2026-06-26T13:14:11Z</time>
      </trkpt>
      <trkpt lat="52.5108009763062" lon="-7.429239023476839">
        <ele>71.760000000000005</ele>
        <time>2026-06-26T13:14:21Z</time>
      </trkpt>
      <trkpt lat="52.509018983691931" lon="-7.431802963837981">
        <ele>73.200000000000003</ele>
        <time>2026-06-26T13:14:31Z</time>
      </trkpt>
      <trkpt lat="52.50721100717783" lon="-7.43368998169899">
        <ele>78</ele>
        <time>2026-06-26T13:14:41Z</time>
      </trkpt>
      <trkpt lat="52.505220975726843" lon="-7.434465978294611">
        <ele>79.450000000000003</ele>
        <time>2026-06-26T13:14:51Z</time>
      </trkpt>
      <trkpt lat="52.502939002588391" lon="-7.435267036780715">
        <ele>80.409999999999997</ele>
        <time>2026-06-26T13:15:03Z</time>
      </trkpt>
      <trkpt lat="52.501691021025181" lon="-7.435722006484866">
        <ele>82.810000000000002</ele>
        <time>2026-06-26T13:15:12Z</time>
      </trkpt>
      <trkpt lat="52.500082030892372" lon="-7.436277978122234">
        <ele>84.730000000000004</ele>
        <time>2026-06-26T13:15:23Z</time>
      </trkpt>
      <trkpt lat="52.498460970818996" lon="-7.436864962801337">
        <ele>84.25</ele>
        <time>2026-06-26T13:15:33Z</time>
      </trkpt>
      <trkpt lat="52.496802024543285" lon="-7.437356980517507">
        <ele>86.180000000000007</ele>
        <time>2026-06-26T13:15:42Z</time>
      </trkpt>
      <trkpt lat="52.494766982272267" lon="-7.437852015718818">
        <ele>84.25</ele>
        <time>2026-06-26T13:15:51Z</time>
      </trkpt>
      <trkpt lat="52.492432035505772" lon="-7.438112022355199">
        <ele>85.689999999999998</ele>
        <time>2026-06-26T13:16:01Z</time>
      </trkpt>
      <trkpt lat="52.489750999957323" lon="-7.437415989115834">
        <ele>85.689999999999998</ele>
        <time>2026-06-26T13:16:13Z</time>
      </trkpt>
      <trkpt lat="52.487695002928376" lon="-7.437203004956245">
        <ele>86.659999999999997</ele>
        <time>2026-06-26T13:16:22Z</time>
      </trkpt>
      <trkpt lat="52.487473972141743" lon="-7.437301995232701">
        <ele>86.659999999999997</ele>
        <time>2026-06-26T13:16:23Z</time>
      </trkpt>
      <trkpt lat="52.487261993810534" lon="-7.437465023249388">
        <ele>87.140000000000001</ele>
        <time>2026-06-26T13:16:24Z</time>
      </trkpt>
      <trkpt lat="52.487060995772481" lon="-7.437656968832016">
        <ele>87.620000000000005</ele>
        <time>2026-06-26T13:16:25Z</time>
      </trkpt>
      <trkpt lat="52.486873995512724" lon="-7.43787799961865">
        <ele>87.620000000000005</ele>
        <time>2026-06-26T13:16:26Z</time>
      </trkpt>
      <trkpt lat="52.486705016344786" lon="-7.438117973506451">
        <ele>87.620000000000005</ele>
        <time>2026-06-26T13:16:27Z</time>
      </trkpt>
      <trkpt lat="52.486539976671338" lon="-7.438350990414619">
        <ele>87.620000000000005</ele>
        <time>2026-06-26T13:16:28Z</time>
      </trkpt>
      <trkpt lat="52.484350958839059" lon="-7.441349029541016">
        <ele>86.659999999999997</ele>
        <time>2026-06-26T13:16:41Z</time>
      </trkpt>
      <trkpt lat="52.48252303339541" lon="-7.44350896216929">
        <ele>90.980000000000004</ele>
        <time>2026-06-26T13:16:51Z</time>
      </trkpt>
      <trkpt lat="52.480787979438901" lon="-7.444962970912457">
        <ele>90.5</ele>
        <time>2026-06-26T13:17:00Z</time>
      </trkpt>
      <trkpt lat="52.479321984574199" lon="-7.445890009403229">
        <ele>91.939999999999998</ele>
        <time>2026-06-26T13:17:08Z</time>
      </trkpt>
      <trkpt lat="52.477409988641739" lon="-7.447134973481298">
        <ele>91.459999999999994</ele>
        <time>2026-06-26T13:17:19Z</time>
      </trkpt>
      <trkpt lat="52.475295988842845" lon="-7.448917971923947">
        <ele>95.790000000000006</ele>
        <time>2026-06-26T13:17:31Z</time>
      </trkpt>
      <trkpt lat="52.473320038989186" lon="-7.450785962864757">
        <ele>93.390000000000001</ele>
        <time>2026-06-26T13:17:41Z</time>
      </trkpt>
      <trkpt lat="52.471871981397271" lon="-7.452573990449309">
        <ele>99.629999999999995</ele>
        <time>2026-06-26T13:17:48Z</time>
      </trkpt>
      <trkpt lat="52.470612013712525" lon="-7.454355983063579">
        <ele>103.95999999999999</ele>
        <time>2026-06-26T13:17:55Z</time>
      </trkpt>
      <trkpt lat="52.469356991350651" lon="-7.456617001444101">
        <ele>105.88</ele>
        <time>2026-06-26T13:18:02Z</time>
      </trkpt>
      <trkpt lat="52.468378990888596" lon="-7.458415003493428">
        <ele>107.31999999999999</ele>
        <time>2026-06-26T13:18:09Z</time>
      </trkpt>
      <trkpt lat="52.467181971296668" lon="-7.459713025018573">
        <ele>110.69</ele>
        <time>2026-06-26T13:18:17Z</time>
      </trkpt>
      <trkpt lat="52.465920997783542" lon="-7.460277965292335">
        <ele>114.53</ele>
        <time>2026-06-26T13:18:24Z</time>
      </trkpt>
      <trkpt lat="52.465232005342841" lon="-7.460510982200503">
        <ele>116.94</ele>
        <time>2026-06-26T13:18:28Z</time>
      </trkpt>
      <trkpt lat="52.465069983154535" lon="-7.460646014660597">
        <ele>117.90000000000001</ele>
        <time>2026-06-26T13:18:29Z</time>
      </trkpt>
      <trkpt lat="52.464918019250035" lon="-7.460773000493646">
        <ele>118.86</ele>
        <time>2026-06-26T13:18:30Z</time>
      </trkpt>
      <trkpt lat="52.464767983183265" lon="-7.460896968841553">
        <ele>119.81999999999999</ele>
        <time>2026-06-26T13:18:31Z</time>
      </trkpt>
      <trkpt lat="52.464642003178596" lon="-7.461036024615169">
        <ele>120.78</ele>
        <time>2026-06-26T13:18:32Z</time>
      </trkpt>
      <trkpt lat="52.464527003467083" lon="-7.461183965206146">
        <ele>121.73999999999999</ele>
        <time>2026-06-26T13:18:33Z</time>
      </trkpt>
      <trkpt lat="52.464417032897472" lon="-7.461326038464904">
        <ele>122.70999999999999</ele>
        <time>2026-06-26T13:18:34Z</time>
      </trkpt>
      <trkpt lat="52.463785037398338" lon="-7.462362041696906">
        <ele>130.40000000000001</ele>
        <time>2026-06-26T13:18:41Z</time>
      </trkpt>
      <trkpt lat="52.463691998273134" lon="-7.462508976459503">
        <ele>131.36000000000001</ele>
        <time>2026-06-26T13:18:42Z</time>
      </trkpt>
      <trkpt lat="52.463354039937258" lon="-7.462891023606062">
        <ele>134.24000000000001</ele>
        <time>2026-06-26T13:18:45Z</time>
      </trkpt>
      <trkpt lat="52.463223030790687" lon="-7.462999988347292">
        <ele>135.68000000000001</ele>
        <time>2026-06-26T13:18:46Z</time>
      </trkpt>
      <trkpt lat="52.463091015815735" lon="-7.463110964745283">
        <ele>136.63999999999999</ele>
        <time>2026-06-26T13:18:47Z</time>
      </trkpt>
      <trkpt lat="52.46295103803277" lon="-7.463197968900204">
        <ele>137.61000000000001</ele>
        <time>2026-06-26T13:18:48Z</time>
      </trkpt>
      <trkpt lat="52.462806031107903" lon="-7.46327499859035">
        <ele>138.56999999999999</ele>
        <time>2026-06-26T13:18:49Z</time>
      </trkpt>
      <trkpt lat="52.462553987279534" lon="-7.463373988866806">
        <ele>140.49000000000001</ele>
        <time>2026-06-26T13:18:51Z</time>
      </trkpt>
      <trkpt lat="52.462435970082879" lon="-7.463387986645103">
        <ele>141.44999999999999</ele>
        <time>2026-06-26T13:18:52Z</time>
      </trkpt>
      <trkpt lat="52.461630972102284" lon="-7.46333702467382">
        <ele>145.78</ele>
        <time>2026-06-26T13:19:00Z</time>
      </trkpt>
      <trkpt lat="52.460209988057613" lon="-7.463415982201695">
        <ele>147.69999999999999</ele>
        <time>2026-06-26T13:19:11Z</time>
      </trkpt>
      <trkpt lat="52.459098966792226" lon="-7.463954016566277">
        <ele>148.18000000000001</ele>
        <time>2026-06-26T13:19:18Z</time>
      </trkpt>
      <trkpt lat="52.457136008888483" lon="-7.465140977874398">
        <ele>146.74000000000001</ele>
        <time>2026-06-26T13:19:28Z</time>
      </trkpt>
      <trkpt lat="52.454911032691598" lon="-7.46649800799787">
        <ele>150.09999999999999</ele>
        <time>2026-06-26T13:19:38Z</time>
      </trkpt>
      <trkpt lat="52.453103978186846" lon="-7.467267969623208">
        <ele>148.18000000000001</ele>
        <time>2026-06-26T13:19:47Z</time>
      </trkpt>
      <trkpt lat="52.451280998066068" lon="-7.467838022857904">
        <ele>147.69999999999999</ele>
        <time>2026-06-26T13:19:55Z</time>
      </trkpt>
      <trkpt lat="52.449935032054782" lon="-7.468289975076914">
        <ele>146.74000000000001</ele>
        <time>2026-06-26T13:20:02Z</time>
      </trkpt>
      <trkpt lat="52.448723008856177" lon="-7.469046022742987">
        <ele>143.84999999999999</ele>
        <time>2026-06-26T13:20:09Z</time>
      </trkpt>
      <trkpt lat="52.448383960872889" lon="-7.469231011345983">
        <ele>142.88999999999999</ele>
        <time>2026-06-26T13:20:11Z</time>
      </trkpt>
      <trkpt lat="52.448210036382079" lon="-7.469292031601071">
        <ele>142.41</ele>
        <time>2026-06-26T13:20:12Z</time>
      </trkpt>
      <trkpt lat="52.448040973395109" lon="-7.469305023550987">
        <ele>141.93000000000001</ele>
        <time>2026-06-26T13:20:13Z</time>
      </trkpt>
      <trkpt lat="52.446959037333727" lon="-7.469313992187381">
        <ele>140.97</ele>
        <time>2026-06-26T13:20:21Z</time>
      </trkpt>
      <trkpt lat="52.445614999160171" lon="-7.469266969710589">
        <ele>139.05000000000001</ele>
        <time>2026-06-26T13:20:33Z</time>
      </trkpt>
      <trkpt lat="52.443862007930875" lon="-7.469215001910925">
        <ele>140.49000000000001</ele>
        <time>2026-06-26T13:20:47Z</time>
      </trkpt>
      <trkpt lat="52.442677980288863" lon="-7.469106037169695">
        <ele>140.97</ele>
        <time>2026-06-26T13:20:56Z</time>
      </trkpt>
      <trkpt lat="52.441042000427842" lon="-7.468800013884902">
        <ele>144.34</ele>
        <time>2026-06-26T13:21:05Z</time>
      </trkpt>
      <trkpt lat="52.439242992550135" lon="-7.468708986416459">
        <ele>145.30000000000001</ele>
        <time>2026-06-26T13:21:13Z</time>
      </trkpt>
      <trkpt lat="52.437057998031378" lon="-7.468772018328309">
        <ele>145.30000000000001</ele>
        <time>2026-06-26T13:21:22Z</time>
      </trkpt>
      <trkpt lat="52.434407975524664" lon="-7.467914968729019">
        <ele>145.78</ele>
        <time>2026-06-26T13:21:33Z</time>
      </trkpt>
      <trkpt lat="52.431912012398243" lon="-7.467280039563775">
        <ele>146.74000000000001</ele>
        <time>2026-06-26T13:21:44Z</time>
      </trkpt>
      <trkpt lat="52.430495973676443" lon="-7.467711037024856">
        <ele>147.69999999999999</ele>
        <time>2026-06-26T13:21:51Z</time>
      </trkpt>
      <trkpt lat="52.428772989660501" lon="-7.468992965295911">
        <ele>148.18000000000001</ele>
        <time>2026-06-26T13:22:00Z</time>
      </trkpt>
      <trkpt lat="52.425845023244619" lon="-7.471286002546549">
        <ele>152.99000000000001</ele>
        <time>2026-06-26T13:22:15Z</time>
      </trkpt>
      <trkpt lat="52.424435019493103" lon="-7.472624005749822">
        <ele>154.91</ele>
        <time>2026-06-26T13:22:21Z</time>
      </trkpt>
      <trkpt lat="52.423186032101512" lon="-7.474155966192484">
        <ele>155.38999999999999</ele>
        <time>2026-06-26T13:22:27Z</time>
      </trkpt>
      <trkpt lat="52.42245496250689" lon="-7.475383998826146">
        <ele>154.91</ele>
        <time>2026-06-26T13:22:31Z</time>
      </trkpt>
      <trkpt lat="52.422267962247133" lon="-7.475655991584063">
        <ele>154.91</ele>
        <time>2026-06-26T13:22:32Z</time>
      </trkpt>
      <trkpt lat="52.421672008931637" lon="-7.476416984573007">
        <ele>153.94999999999999</ele>
        <time>2026-06-26T13:22:35Z</time>
      </trkpt>
      <trkpt lat="52.421449972316623" lon="-7.476619994267821">
        <ele>153.47</ele>
        <time>2026-06-26T13:22:36Z</time>
      </trkpt>
      <trkpt lat="52.419962016865611" lon="-7.477328013628721">
        <ele>150.58000000000001</ele>
        <time>2026-06-26T13:22:42Z</time>
      </trkpt>
      <trkpt lat="52.418466014787555" lon="-7.477601012215018">
        <ele>145.30000000000001</ele>
        <time>2026-06-26T13:22:49Z</time>
      </trkpt>
      <trkpt lat="52.418102994561195" lon="-7.477761022746563">
        <ele>143.84999999999999</ele>
        <time>2026-06-26T13:22:51Z</time>
      </trkpt>
      <trkpt lat="52.417938960716128" lon="-7.477869987487793">
        <ele>142.88999999999999</ele>
        <time>2026-06-26T13:22:52Z</time>
      </trkpt>
      <trkpt lat="52.417781967669725" lon="-7.478019017726183">
        <ele>142.41</ele>
        <time>2026-06-26T13:22:53Z</time>
      </trkpt>
      <trkpt lat="52.41641596890986" lon="-7.47947302646935">
        <ele>135.19999999999999</ele>
        <time>2026-06-26T13:23:01Z</time>
      </trkpt>
      <trkpt lat="52.416069963946939" lon="-7.479836968705058">
        <ele>131.84</ele>
        <time>2026-06-26T13:23:03Z</time>
      </trkpt>
      <trkpt lat="52.415885981172323" lon="-7.479949034750462">
        <ele>130.40000000000001</ele>
        <time>2026-06-26T13:23:04Z</time>
      </trkpt>
      <trkpt lat="52.415531007573009" lon="-7.48014198616147">
        <ele>126.55</ele>
        <time>2026-06-26T13:23:06Z</time>
      </trkpt>
      <trkpt lat="52.415352975949645" lon="-7.480190014466643">
        <ele>125.11</ele>
        <time>2026-06-26T13:23:07Z</time>
      </trkpt>
      <trkpt lat="52.414042968302965" lon="-7.480579018592835">
        <ele>114.05</ele>
        <time>2026-06-26T13:23:14Z</time>
      </trkpt>
      <trkpt lat="52.413266971707344" lon="-7.480924017727375">
        <ele>108.29000000000001</ele>
        <time>2026-06-26T13:23:18Z</time>
      </trkpt>
      <trkpt lat="52.413080977275968" lon="-7.481076987460256">
        <ele>106.84</ele>
        <time>2026-06-26T13:23:19Z</time>
      </trkpt>
      <trkpt lat="52.412894982844591" lon="-7.481265999376774">
        <ele>105.40000000000001</ele>
        <time>2026-06-26T13:23:20Z</time>
      </trkpt>
      <trkpt lat="52.411158001050353" lon="-7.482964005321264">
        <ele>95.790000000000006</ele>
        <time>2026-06-26T13:23:30Z</time>
      </trkpt>
      <trkpt lat="52.409697035327554" lon="-7.483821976929903">
        <ele>88.579999999999998</ele>
        <time>2026-06-26T13:23:38Z</time>
      </trkpt>
      <trkpt lat="52.407354963943362" lon="-7.484561009332538">
        <ele>78.480000000000004</ele>
        <time>2026-06-26T13:23:50Z</time>
      </trkpt>
      <trkpt lat="52.405971027910709" lon="-7.484924029558897">
        <ele>73.200000000000003</ele>
        <time>2026-06-26T13:23:57Z</time>
      </trkpt>
      <trkpt lat="52.404181994497776" lon="-7.484508035704494">
        <ele>69.829999999999998</ele>
        <time>2026-06-26T13:24:06Z</time>
      </trkpt>
      <trkpt lat="52.402823958545923" lon="-7.484119031578302">
        <ele>64.549999999999997</ele>
        <time>2026-06-26T13:24:13Z</time>
      </trkpt>
      <trkpt lat="52.402634024620056" lon="-7.484146021306515">
        <ele>64.069999999999993</ele>
        <time>2026-06-26T13:24:14Z</time>
      </trkpt>
      <trkpt lat="52.40244803018868" lon="-7.484230007976294">
        <ele>63.579999999999998</ele>
        <time>2026-06-26T13:24:15Z</time>
      </trkpt>
      <trkpt lat="52.4022570066154" lon="-7.484316006302834">
        <ele>63.579999999999998</ele>
        <time>2026-06-26T13:24:16Z</time>
      </trkpt>
      <trkpt lat="52.40206497721374" lon="-7.484403010457754">
        <ele>63.579999999999998</ele>
        <time>2026-06-26T13:24:17Z</time>
      </trkpt>
      <trkpt lat="52.40188904106617" lon="-7.484557991847396">
        <ele>63.100000000000001</ele>
        <time>2026-06-26T13:24:18Z</time>
      </trkpt>
      <trkpt lat="52.401714026927948" lon="-7.484724959358573">
        <ele>63.100000000000001</ele>
        <time>2026-06-26T13:24:19Z</time>
      </trkpt>
      <trkpt lat="52.401545969769359" lon="-7.484886981546879">
        <ele>62.619999999999997</ele>
        <time>2026-06-26T13:24:20Z</time>
      </trkpt>
      <trkpt lat="52.401410015299916" lon="-7.485135002061725">
        <ele>62.140000000000001</ele>
        <time>2026-06-26T13:24:21Z</time>
      </trkpt>
      <trkpt lat="52.401276994496584" lon="-7.485377993434668">
        <ele>61.659999999999997</ele>
        <time>2026-06-26T13:24:22Z</time>
      </trkpt>
      <trkpt lat="52.401142967864871" lon="-7.485621990635991">
        <ele>60.700000000000003</ele>
        <time>2026-06-26T13:24:23Z</time>
      </trkpt>
      <trkpt lat="52.401018999516964" lon="-7.485875962302089">
        <ele>59.740000000000002</ele>
        <time>2026-06-26T13:24:24Z</time>
      </trkpt>
      <trkpt lat="52.400091961026192" lon="-7.488737041130662">
        <ele>53.969999999999999</ele>
        <time>2026-06-26T13:24:34Z</time>
      </trkpt>
      <trkpt lat="52.399860033765435" lon="-7.490972997620702">
        <ele>52.049999999999997</ele>
        <time>2026-06-26T13:24:41Z</time>
      </trkpt>
      <trkpt lat="52.399749979376793" lon="-7.492262972518802">
        <ele>50.609999999999999</ele>
        <time>2026-06-26T13:24:45Z</time>
      </trkpt>
      <trkpt lat="52.399113038554788" lon="-7.494276976212859">
        <ele>50.609999999999999</ele>
        <time>2026-06-26T13:24:52Z</time>
      </trkpt>
      <trkpt lat="52.398078963160515" lon="-7.495796028524637">
        <ele>52.530000000000001</ele>
        <time>2026-06-26T13:24:59Z</time>
      </trkpt>
      <trkpt lat="52.396067976951599" lon="-7.49848997220397">
        <ele>60.700000000000003</ele>
        <time>2026-06-26T13:25:12Z</time>
      </trkpt>
      <trkpt lat="52.394385980442166" lon="-7.501383991912007">
        <ele>54.450000000000003</ele>
        <time>2026-06-26T13:25:24Z</time>
      </trkpt>
      <trkpt lat="52.393060969188809" lon="-7.504614964127541">
        <ele>52.530000000000001</ele>
        <time>2026-06-26T13:25:34Z</time>
      </trkpt>
      <trkpt lat="52.392786964774132" lon="-7.505704024806619">
        <ele>52.049999999999997</ele>
        <time>2026-06-26T13:25:37Z</time>
      </trkpt>
      <trkpt lat="52.392713036388159" lon="-7.506085988134146">
        <ele>51.57</ele>
        <time>2026-06-26T13:25:38Z</time>
      </trkpt>
      <trkpt lat="52.392559982836246" lon="-7.508857967332006">
        <ele>48.68</ele>
        <time>2026-06-26T13:25:45Z</time>
      </trkpt>
      <trkpt lat="52.392967008054256" lon="-7.512360010296106">
        <ele>46.759999999999998</ele>
        <time>2026-06-26T13:25:54Z</time>
      </trkpt>
      <trkpt lat="52.393053006380796" lon="-7.515115980058909">
        <ele>45.799999999999997</ele>
        <time>2026-06-26T13:26:01Z</time>
      </trkpt>
      <trkpt lat="52.392615973949432" lon="-7.517802966758609">
        <ele>46.280000000000001</ele>
        <time>2026-06-26T13:26:08Z</time>
      </trkpt>
      <trkpt lat="52.391260033473372" lon="-7.522032978013158">
        <ele>48.200000000000003</ele>
        <time>2026-06-26T13:26:20Z</time>
      </trkpt>
      <trkpt lat="52.390583027154207" lon="-7.524416036903858">
        <ele>47.719999999999999</ele>
        <time>2026-06-26T13:26:27Z</time>
      </trkpt>
      <trkpt lat="52.389378966763616" lon="-7.527173012495041">
        <ele>48.68</ele>
        <time>2026-06-26T13:26:36Z</time>
      </trkpt>
      <trkpt lat="52.387806018814445" lon="-7.529737036675215">
        <ele>47.719999999999999</ele>
        <time>2026-06-26T13:26:46Z</time>
      </trkpt>
      <trkpt lat="52.387154996395111" lon="-7.530819978564978">
        <ele>45.32</ele>
        <time>2026-06-26T13:26:50Z</time>
      </trkpt>
      <trkpt lat="52.386300964280963" lon="-7.533255005255342">
        <ele>41.950000000000003</ele>
        <time>2026-06-26T13:26:57Z</time>
      </trkpt>
      <trkpt lat="52.385791009292006" lon="-7.53671295940876">
        <ele>36.670000000000002</ele>
        <time>2026-06-26T13:27:06Z</time>
      </trkpt>
      <trkpt lat="52.385720014572144" lon="-7.537460038438439">
        <ele>36.189999999999998</ele>
        <time>2026-06-26T13:27:08Z</time>
      </trkpt>
      <trkpt lat="52.385657988488674" lon="-7.537803025916219">
        <ele>36.189999999999998</ele>
        <time>2026-06-26T13:27:09Z</time>
      </trkpt>
      <trkpt lat="52.385063963010907" lon="-7.540218019858003">
        <ele>33.299999999999997</ele>
        <time>2026-06-26T13:27:16Z</time>
      </trkpt>
      <trkpt lat="52.384175984188914" lon="-7.543206000700593">
        <ele>36.670000000000002</ele>
        <time>2026-06-26T13:27:25Z</time>
      </trkpt>
      <trkpt lat="52.383662005886436" lon="-7.54571596160531">
        <ele>37.149999999999999</ele>
        <time>2026-06-26T13:27:32Z</time>
      </trkpt>
      <trkpt lat="52.38315699622035" lon="-7.547952001914382">
        <ele>34.259999999999998</ele>
        <time>2026-06-26T13:27:39Z</time>
      </trkpt>
      <trkpt lat="52.382417963817716" lon="-7.550943000242114">
        <ele>34.740000000000002</ele>
        <time>2026-06-26T13:27:48Z</time>
      </trkpt>
      <trkpt lat="52.381815975531936" lon="-7.553778011351824">
        <ele>35.710000000000001</ele>
        <time>2026-06-26T13:27:57Z</time>
      </trkpt>
      <trkpt lat="52.381708016619086" lon="-7.554332977160811">
        <ele>35.710000000000001</ele>
        <time>2026-06-26T13:27:59Z</time>
      </trkpt>
      <trkpt lat="52.381616989150643" lon="-7.554589966312051">
        <ele>35.229999999999997</ele>
        <time>2026-06-26T13:28:00Z</time>
      </trkpt>
      <trkpt lat="52.380740996450186" lon="-7.556661972776055">
        <ele>35.229999999999997</ele>
        <time>2026-06-26T13:28:08Z</time>
      </trkpt>
      <trkpt lat="52.380122998729348" lon="-7.558430973440409">
        <ele>34.259999999999998</ele>
        <time>2026-06-26T13:28:15Z</time>
      </trkpt>
      <trkpt lat="52.380103971809149" lon="-7.558730039745569">
        <ele>33.780000000000001</ele>
        <time>2026-06-26T13:28:16Z</time>
      </trkpt>
      <trkpt lat="52.379903979599476" lon="-7.561918012797833">
        <ele>35.229999999999997</ele>
        <time>2026-06-26T13:28:26Z</time>
      </trkpt>
      <trkpt lat="52.379642967134714" lon="-7.565888017416">
        <ele>34.259999999999998</ele>
        <time>2026-06-26T13:28:38Z</time>
      </trkpt>
      <trkpt lat="52.379229990765452" lon="-7.568238973617554">
        <ele>31.379999999999999</ele>
        <time>2026-06-26T13:28:46Z</time>
      </trkpt>
      <trkpt lat="52.378318039700389" lon="-7.571933967992663">
        <ele>32.82</ele>
        <time>2026-06-26T13:28:58Z</time>
      </trkpt>
      <trkpt lat="52.378198010846972" lon="-7.572166984900832">
        <ele>32.82</ele>
        <time>2026-06-26T13:28:59Z</time>
      </trkpt>
      <trkpt lat="52.37808401696384" lon="-7.572388015687466">
        <ele>33.299999999999997</ele>
        <time>2026-06-26T13:29:00Z</time>
      </trkpt>
      <trkpt lat="52.377963988110423" lon="-7.572576021775603">
        <ele>33.299999999999997</ele>
        <time>2026-06-26T13:29:01Z</time>
      </trkpt>
      <trkpt lat="52.377839013934135" lon="-7.572768973186612">
        <ele>33.299999999999997</ele>
        <time>2026-06-26T13:29:02Z</time>
      </trkpt>
      <trkpt lat="52.376871993765235" lon="-7.574273021891713">
        <ele>30.899999999999999</ele>
        <time>2026-06-26T13:29:08Z</time>
      </trkpt>
      <trkpt lat="52.375652007758617" lon="-7.576190968975425">
        <ele>30.899999999999999</ele>
        <time>2026-06-26T13:29:14Z</time>
      </trkpt>
      <trkpt lat="52.374118035659194" lon="-7.578603029251099">
        <ele>34.740000000000002</ele>
        <time>2026-06-26T13:29:23Z</time>
      </trkpt>
      <trkpt lat="52.373621994629502" lon="-7.579645989462733">
        <ele>35.710000000000001</ele>
        <time>2026-06-26T13:29:27Z</time>
      </trkpt>
      <trkpt lat="52.373539013788104" lon="-7.579969028010964">
        <ele>35.710000000000001</ele>
        <time>2026-06-26T13:29:28Z</time>
      </trkpt>
      <trkpt lat="52.373457960784435" lon="-7.580287959426642">
        <ele>35.710000000000001</ele>
        <time>2026-06-26T13:29:29Z</time>
      </trkpt>
      <trkpt lat="52.373089995235205" lon="-7.582586025819182">
        <ele>37.149999999999999</ele>
        <time>2026-06-26T13:29:36Z</time>
      </trkpt>
      <trkpt lat="52.372796963900328" lon="-7.585444003343582">
        <ele>36.670000000000002</ele>
        <time>2026-06-26T13:29:44Z</time>
      </trkpt>
      <trkpt lat="52.372513990849257" lon="-7.58741500787437">
        <ele>39.549999999999997</ele>
        <time>2026-06-26T13:29:50Z</time>
      </trkpt>
      <trkpt lat="52.372126998379827" lon="-7.589248968288302">
        <ele>39.07</ele>
        <time>2026-06-26T13:29:57Z</time>
      </trkpt>
      <trkpt lat="52.371502965688705" lon="-7.592017007991672">
        <ele>35.229999999999997</ele>
        <time>2026-06-26T13:30:05Z</time>
      </trkpt>
      <trkpt lat="52.370667038485408" lon="-7.595805963501334">
        <ele>32.82</ele>
        <time>2026-06-26T13:30:15Z</time>
      </trkpt>
      <trkpt lat="52.370127998292446" lon="-7.599901026114821">
        <ele>37.630000000000003</ele>
        <time>2026-06-26T13:30:26Z</time>
      </trkpt>
      <trkpt lat="52.369686020538211" lon="-7.603556960821152">
        <ele>38.590000000000003</ele>
        <time>2026-06-26T13:30:36Z</time>
      </trkpt>
      <trkpt lat="52.369141029193997" lon="-7.607167968526483">
        <ele>35.229999999999997</ele>
        <time>2026-06-26T13:30:46Z</time>
      </trkpt>
      <trkpt lat="52.368493024259806" lon="-7.610240019857884">
        <ele>28.98</ele>
        <time>2026-06-26T13:30:55Z</time>
      </trkpt>
      <trkpt lat="52.368211979046464" lon="-7.611897038295865">
        <ele>24.649999999999999</ele>
        <time>2026-06-26T13:31:01Z</time>
      </trkpt>
      <trkpt lat="52.368019027635455" lon="-7.612841008231044">
        <ele>20.809999999999999</ele>
        <time>2026-06-26T13:31:07Z</time>
      </trkpt>
      <trkpt lat="52.367996983230114" lon="-7.612937986850739">
        <ele>20.32</ele>
        <time>2026-06-26T13:31:08Z</time>
      </trkpt>
      <trkpt lat="52.367978040128946" lon="-7.612995989620686">
        <ele>19.84</ele>
        <time>2026-06-26T13:31:09Z</time>
      </trkpt>
      <trkpt lat="52.367947027087212" lon="-7.613019961863756">
        <ele>19.359999999999999</ele>
        <time>2026-06-26T13:31:10Z</time>
      </trkpt>
      <trkpt lat="52.367921965196729" lon="-7.613039994612336">
        <ele>18.879999999999999</ele>
        <time>2026-06-26T13:31:11Z</time>
      </trkpt>
      <trkpt lat="52.367895981296897" lon="-7.613061033189297">
        <ele>18.879999999999999</ele>
        <time>2026-06-26T13:31:12Z</time>
      </trkpt>
      <trkpt lat="52.36785901710391" lon="-7.613091040402651">
        <ele>18.399999999999999</ele>
        <time>2026-06-26T13:31:13Z</time>
      </trkpt>
      <trkpt lat="52.367728007957339" lon="-7.613052986562252">
        <ele>18.399999999999999</ele>
        <time>2026-06-26T13:31:14Z</time>
      </trkpt>
      <trkpt lat="52.367719961330295" lon="-7.61304996907711">
        <ele>18.399999999999999</ele>
        <time>2026-06-26T13:31:15Z</time>
      </trkpt>
      <trkpt lat="52.367641003802419" lon="-7.613019039854407">
        <ele>18.399999999999999</ele>
        <time>2026-06-26T13:31:16Z</time>
      </trkpt>
      <trkpt lat="52.367548970505595" lon="-7.613053992390633">
        <ele>18.879999999999999</ele>
        <time>2026-06-26T13:31:17Z</time>
      </trkpt>
      <trkpt lat="52.367486022412777" lon="-7.613146025687456">
        <ele>19.359999999999999</ele>
        <time>2026-06-26T13:31:18Z</time>
      </trkpt>
      <trkpt lat="52.367438999935985" lon="-7.61326203122735">
        <ele>19.84</ele>
        <time>2026-06-26T13:31:19Z</time>
      </trkpt>
      <trkpt lat="52.3674710188061" lon="-7.613461017608643">
        <ele>20.32</ele>
        <time>2026-06-26T13:31:20Z</time>
      </trkpt>
      <trkpt lat="52.367454003542662" lon="-7.613618010655046">
        <ele>20.809999999999999</ele>
        <time>2026-06-26T13:31:21Z</time>
      </trkpt>
      <trkpt lat="52.367216041311622" lon="-7.615492036566138">
        <ele>20.809999999999999</ele>
        <time>2026-06-26T13:31:29Z</time>
      </trkpt>
      <trkpt lat="52.36669996753335" lon="-7.618253035470843">
        <ele>21.289999999999999</ele>
        <time>2026-06-26T13:31:39Z</time>
      </trkpt>
      <trkpt lat="52.365981973707676" lon="-7.621032977476716">
        <ele>22.25</ele>
        <time>2026-06-26T13:31:49Z</time>
      </trkpt>
      <trkpt lat="52.365274038165808" lon="-7.624610038474202">
        <ele>20.809999999999999</ele>
        <time>2026-06-26T13:32:00Z</time>
      </trkpt>
      <trkpt lat="52.364716976881027" lon="-7.627795999869704">
        <ele>20.32</ele>
        <time>2026-06-26T13:32:09Z</time>
      </trkpt>
      <trkpt lat="52.363929999992251" lon="-7.630616007372737">
        <ele>20.32</ele>
        <time>2026-06-26T13:32:16Z</time>
      </trkpt>
      <trkpt lat="52.363501014187932" lon="-7.631620997563005">
        <ele>19.359999999999999</ele>
        <time>2026-06-26T13:32:19Z</time>
      </trkpt>
      <trkpt lat="52.362229982391" lon="-7.633844967931509">
        <ele>16.960000000000001</ele>
        <time>2026-06-26T13:32:27Z</time>
      </trkpt>
      <trkpt lat="52.360977977514267" lon="-7.636067010462284">
        <ele>19.359999999999999</ele>
        <time>2026-06-26T13:32:36Z</time>
      </trkpt>
      <trkpt lat="52.360314968973398" lon="-7.638175981119275">
        <ele>18.879999999999999</ele>
        <time>2026-06-26T13:32:43Z</time>
      </trkpt>
      <trkpt lat="52.360131992027164" lon="-7.64026802033186">
        <ele>17.920000000000002</ele>
        <time>2026-06-26T13:32:50Z</time>
      </trkpt>
      <trkpt lat="52.360159987583756" lon="-7.643009992316365">
        <ele>16.48</ele>
        <time>2026-06-26T13:33:00Z</time>
      </trkpt>
      <trkpt lat="52.360197035595775" lon="-7.645365977659822">
        <ele>16.960000000000001</ele>
        <time>2026-06-26T13:33:10Z</time>
      </trkpt>
      <trkpt lat="52.360179014503956" lon="-7.648295033723116">
        <ele>13.119999999999999</ele>
        <time>2026-06-26T13:33:23Z</time>
      </trkpt>
      <trkpt lat="52.360245985910296" lon="-7.649859013035893">
        <ele>17.440000000000001</ele>
        <time>2026-06-26T13:33:31Z</time>
      </trkpt>
      <trkpt lat="52.360267024487257" lon="-7.650160007178783">
        <ele>17.920000000000002</ele>
        <time>2026-06-26T13:33:33Z</time>
      </trkpt>
      <trkpt lat="52.360282028093934" lon="-7.650291016325355">
        <ele>17.920000000000002</ele>
        <time>2026-06-26T13:33:34Z</time>
      </trkpt>
      <trkpt lat="52.360246991738677" lon="-7.650524033233523">
        <ele>17.920000000000002</ele>
        <time>2026-06-26T13:33:35Z</time>
      </trkpt>
      <trkpt lat="52.360187983140349" lon="-7.650574995204806">
        <ele>18.399999999999999</ele>
        <time>2026-06-26T13:33:36Z</time>
      </trkpt>
      <trkpt lat="52.360154036432505" lon="-7.65060399658978">
        <ele>18.879999999999999</ele>
        <time>2026-06-26T13:33:37Z</time>
      </trkpt>
      <trkpt lat="52.360036019235849" lon="-7.65073299407959">
        <ele>18.879999999999999</ele>
        <time>2026-06-26T13:33:38Z</time>
      </trkpt>
      <trkpt lat="52.359943985939026" lon="-7.65073299407959">
        <ele>18.879999999999999</ele>
        <time>2026-06-26T13:33:39Z</time>
      </trkpt>
      <trkpt lat="52.359838960692286" lon="-7.65073399990797">
        <ele>18.399999999999999</ele>
        <time>2026-06-26T13:33:40Z</time>
      </trkpt>
      <trkpt lat="52.358936984091997" lon="-7.650800971314311">
        <ele>17.920000000000002</ele>
        <time>2026-06-26T13:33:47Z</time>
      </trkpt>
      <trkpt lat="52.358694998547435" lon="-7.65081899240613">
        <ele>17.440000000000001</ele>
        <time>2026-06-26T13:33:49Z</time>
      </trkpt>
      <trkpt lat="52.358569018542767" lon="-7.65088202431798">
        <ele>16.960000000000001</ele>
        <time>2026-06-26T13:33:50Z</time>
      </trkpt>
      <trkpt lat="52.358452007174492" lon="-7.650872971862555">
        <ele>16.960000000000001</ele>
        <time>2026-06-26T13:33:51Z</time>
      </trkpt>
      <trkpt lat="52.358385035768151" lon="-7.650866014882922">
        <ele>16.960000000000001</ele>
        <time>2026-06-26T13:33:52Z</time>
      </trkpt>
      <trkpt lat="52.358347987756133" lon="-7.65086299739778">
        <ele>16.48</ele>
        <time>2026-06-26T13:33:53Z</time>
      </trkpt>
      <trkpt lat="52.358315968886018" lon="-7.650859979912639">
        <ele>16</ele>
        <time>2026-06-26T13:33:54Z</time>
      </trkpt>
      <trkpt lat="52.358284033834934" lon="-7.650856962427497">
        <ele>16</ele>
        <time>2026-06-26T13:33:55Z</time>
      </trkpt>
      <trkpt lat="52.358284033834934" lon="-7.650856962427497">
        <ele>16</ele>
        <time>2026-06-26T13:34:05Z</time>
      </trkpt>
      <trkpt lat="52.358218990266323" lon="-7.650850005447865">
        <ele>15.52</ele>
        <time>2026-06-26T13:34:14Z</time>
      </trkpt>
      <trkpt lat="52.358161993324757" lon="-7.650844976305962">
        <ele>16</ele>
        <time>2026-06-26T13:34:15Z</time>
      </trkpt>
      <trkpt lat="52.358114970847964" lon="-7.65084003098309">
        <ele>16</ele>
        <time>2026-06-26T13:34:16Z</time>
      </trkpt>
      <trkpt lat="52.358036013320088" lon="-7.650821004062891">
        <ele>16.48</ele>
        <time>2026-06-26T13:34:17Z</time>
      </trkpt>
      <trkpt lat="52.35797599889338" lon="-7.650807006284595">
        <ele>16.48</ele>
        <time>2026-06-26T13:34:18Z</time>
      </trkpt>
      <trkpt lat="52.357917996123433" lon="-7.650793008506298">
        <ele>16.960000000000001</ele>
        <time>2026-06-26T13:34:19Z</time>
      </trkpt>
      <trkpt lat="52.357878014445305" lon="-7.650783034041524">
        <ele>16.48</ele>
        <time>2026-06-26T13:34:20Z</time>
      </trkpt>
      <trkpt lat="52.357837026938796" lon="-7.650772975757718">
        <ele>16.960000000000001</ele>
        <time>2026-06-26T13:34:21Z</time>
      </trkpt>
      <trkpt lat="52.357796961441636" lon="-7.650763001292944">
        <ele>16.960000000000001</ele>
        <time>2026-06-26T13:34:22Z</time>
      </trkpt>
      <trkpt lat="52.357757985591888" lon="-7.65075302682817">
        <ele>16.960000000000001</ele>
        <time>2026-06-26T13:34:23Z</time>
      </trkpt>
      <trkpt lat="52.357710963115096" lon="-7.650741962715983">
        <ele>17.920000000000002</ele>
        <time>2026-06-26T13:34:24Z</time>
      </trkpt>
      <trkpt lat="52.357663018628955" lon="-7.650729976594448">
        <ele>17.920000000000002</ele>
        <time>2026-06-26T13:34:25Z</time>
      </trkpt>
      <trkpt lat="52.357618007808924" lon="-7.650718996301293">
        <ele>17.920000000000002</ele>
        <time>2026-06-26T13:34:26Z</time>
      </trkpt>
      <trkpt lat="52.357580037787557" lon="-7.6507100276649">
        <ele>17.920000000000002</ele>
        <time>2026-06-26T13:34:27Z</time>
      </trkpt>
      <trkpt lat="52.357548018917441" lon="-7.650701981037855">
        <ele>17.440000000000001</ele>
        <time>2026-06-26T13:34:28Z</time>
      </trkpt>
      <trkpt lat="52.357514994218946" lon="-7.650694018229842">
        <ele>17.440000000000001</ele>
        <time>2026-06-26T13:34:29Z</time>
      </trkpt>
      <trkpt lat="52.357480963692069" lon="-7.650685971602798">
        <ele>17.440000000000001</ele>
        <time>2026-06-26T13:34:30Z</time>
      </trkpt>
      <trkpt lat="52.357442993670702" lon="-7.650675997138023">
        <ele>17.440000000000001</ele>
        <time>2026-06-26T13:34:31Z</time>
      </trkpt>
      <trkpt lat="52.35739697702229" lon="-7.650665016844869">
        <ele>17.440000000000001</ele>
        <time>2026-06-26T13:34:32Z</time>
      </trkpt>
      <trkpt lat="52.357355989515781" lon="-7.650654958561063">
        <ele>17.440000000000001</ele>
        <time>2026-06-26T13:34:33Z</time>
      </trkpt>
      <trkpt lat="52.357317013666034" lon="-7.650645989924669">
        <ele>17.920000000000002</ele>
        <time>2026-06-26T13:34:34Z</time>
      </trkpt>
      <trkpt lat="52.356861960142851" lon="-7.650554962456226">
        <ele>18.879999999999999</ele>
        <time>2026-06-26T13:34:45Z</time>
      </trkpt>
      <trkpt lat="52.356785014271736" lon="-7.650539958849549">
        <ele>18.879999999999999</ele>
        <time>2026-06-26T13:34:46Z</time>
      </trkpt>
      <trkpt lat="52.35643096268177" lon="-7.650645989924669">
        <ele>17.920000000000002</ele>
        <time>2026-06-26T13:34:51Z</time>
      </trkpt>
      <trkpt lat="52.35634496435523" lon="-7.650659987702966">
        <ele>17.440000000000001</ele>
        <time>2026-06-26T13:34:52Z</time>
      </trkpt>
      <trkpt lat="52.356075989082456" lon="-7.650441974401474">
        <ele>17.440000000000001</ele>
        <time>2026-06-26T13:34:59Z</time>
      </trkpt>
      <trkpt lat="52.355951014906168" lon="-7.650351030752063">
        <ele>17.920000000000002</ele>
        <time>2026-06-26T13:35:03Z</time>
      </trkpt>
      <trkpt lat="52.355767032131553" lon="-7.65023703686893">
        <ele>18.399999999999999</ele>
        <time>2026-06-26T13:35:08Z</time>
      </trkpt>
      <trkpt lat="52.355729984119534" lon="-7.650227984413505">
        <ele>18.399999999999999</ele>
        <time>2026-06-26T13:35:09Z</time>
      </trkpt>
      <trkpt lat="52.355691008269787" lon="-7.650324963033199">
        <ele>18.399999999999999</ele>
        <time>2026-06-26T13:35:10Z</time>
      </trkpt>
      <trkpt lat="52.355691008269787" lon="-7.650400986894965">
        <ele>18.399999999999999</ele>
        <time>2026-06-26T13:35:11Z</time>
      </trkpt>
      <trkpt lat="52.355691008269787" lon="-7.650487991049886">
        <ele>18.399999999999999</ele>
        <time>2026-06-26T13:35:12Z</time>
      </trkpt>
      <trkpt lat="52.355692014098167" lon="-7.650579018518329">
        <ele>18.399999999999999</ele>
        <time>2026-06-26T13:35:13Z</time>
      </trkpt>
      <trkpt lat="52.355695031583309" lon="-7.650698963552713">
        <ele>18.399999999999999</ele>
        <time>2026-06-26T13:35:14Z</time>
      </trkpt>
      <trkpt lat="52.35574197024107" lon="-7.652483973652124">
        <ele>19.84</ele>
        <time>2026-06-26T13:35:27Z</time>
      </trkpt>
      <trkpt lat="52.355818999931216" lon="-7.654810035601258">
        <ele>18.879999999999999</ele>
        <time>2026-06-26T13:35:40Z</time>
      </trkpt>
      <trkpt lat="52.356028966605663" lon="-7.656591022387147">
        <ele>19.359999999999999</ele>
        <time>2026-06-26T13:35:50Z</time>
      </trkpt>
      <trkpt lat="52.35634395852685" lon="-7.658411990851164">
        <ele>19.359999999999999</ele>
        <time>2026-06-26T13:35:59Z</time>
      </trkpt>
      <trkpt lat="52.356780990958214" lon="-7.660189038142562">
        <ele>19.84</ele>
        <time>2026-06-26T13:36:09Z</time>
      </trkpt>
      <trkpt lat="52.357143005356193" lon="-7.662178985774517">
        <ele>18.399999999999999</ele>
        <time>2026-06-26T13:36:19Z</time>
      </trkpt>
      <trkpt lat="52.357178963720798" lon="-7.662968980148435">
        <ele>17.440000000000001</ele>
        <time>2026-06-26T13:36:23Z</time>
      </trkpt>
      <trkpt lat="52.357136970385909" lon="-7.66336502507329">
        <ele>16.48</ele>
        <time>2026-06-26T13:36:25Z</time>
      </trkpt>
      <trkpt lat="52.357111992314458" lon="-7.663565017282963">
        <ele>16.48</ele>
        <time>2026-06-26T13:36:26Z</time>
      </trkpt>
      <trkpt lat="52.357075028121471" lon="-7.664160970598459">
        <ele>16</ele>
        <time>2026-06-26T13:36:29Z</time>
      </trkpt>
      <trkpt lat="52.357071004807949" lon="-7.664325004443526">
        <ele>16</ele>
        <time>2026-06-26T13:36:30Z</time>
      </trkpt>
      <trkpt lat="52.357066981494427" lon="-7.664471017196775">
        <ele>15.52</ele>
        <time>2026-06-26T13:36:31Z</time>
      </trkpt>
      <trkpt lat="52.357063964009285" lon="-7.664604960009456">
        <ele>15.52</ele>
        <time>2026-06-26T13:36:32Z</time>
      </trkpt>
      <trkpt lat="52.357060024514794" lon="-7.664735969156027">
        <ele>15.52</ele>
        <time>2026-06-26T13:36:33Z</time>
      </trkpt>
      <trkpt lat="52.356993975117803" lon="-7.665727967396379">
        <ele>17.440000000000001</ele>
        <time>2026-06-26T13:36:41Z</time>
      </trkpt>
      <trkpt lat="52.356785014271736" lon="-7.667093966156244">
        <ele>17.920000000000002</ele>
        <time>2026-06-26T13:36:52Z</time>
      </trkpt>
      <trkpt lat="52.356517966836691" lon="-7.668366003781557">
        <ele>18.399999999999999</ele>
        <time>2026-06-26T13:37:01Z</time>
      </trkpt>
      <trkpt lat="52.356305988505483" lon="-7.669230010360479">
        <ele>16.48</ele>
        <time>2026-06-26T13:37:06Z</time>
      </trkpt>
      <trkpt lat="52.35627899877727" lon="-7.669335035607219">
        <ele>16.48</ele>
        <time>2026-06-26T13:37:07Z</time>
      </trkpt>
      <trkpt lat="52.356067020446062" lon="-7.670022016391158">
        <ele>15.52</ele>
        <time>2026-06-26T13:37:14Z</time>
      </trkpt>
      <trkpt lat="52.35601999796927" lon="-7.670115977525711">
        <ele>15.52</ele>
        <time>2026-06-26T13:37:15Z</time>
      </trkpt>
      <trkpt lat="52.355970963835716" lon="-7.670213961973786">
        <ele>15.039999999999999</ele>
        <time>2026-06-26T13:37:16Z</time>
      </trkpt>
      <trkpt lat="52.355920001864433" lon="-7.670314963907003">
        <ele>15.039999999999999</ele>
        <time>2026-06-26T13:37:17Z</time>
      </trkpt>
      <trkpt lat="52.355860993266106" lon="-7.670404985547066">
        <ele>15.039999999999999</ele>
        <time>2026-06-26T13:37:18Z</time>
      </trkpt>
      <trkpt lat="52.355789998546243" lon="-7.670459970831871">
        <ele>14.56</ele>
        <time>2026-06-26T13:37:19Z</time>
      </trkpt>
      <trkpt lat="52.355722021311522" lon="-7.670513028278947">
        <ele>14.56</ele>
        <time>2026-06-26T13:37:20Z</time>
      </trkpt>
      <trkpt lat="52.355654966086149" lon="-7.67056399025023">
        <ele>14.56</ele>
        <time>2026-06-26T13:37:21Z</time>
      </trkpt>
      <trkpt lat="52.355583971366286" lon="-7.67060799524188">
        <ele>14.56</ele>
        <time>2026-06-26T13:37:22Z</time>
      </trkpt>
      <trkpt lat="52.355207037180662" lon="-7.670710003003478">
        <ele>13.6</ele>
        <time>2026-06-26T13:37:27Z</time>
      </trkpt>
      <trkpt lat="52.355132019147277" lon="-7.670730035752058">
        <ele>13.6</ele>
        <time>2026-06-26T13:37:28Z</time>
      </trkpt>
      <trkpt lat="52.35505498945713" lon="-7.670750990509987">
        <ele>14.08</ele>
        <time>2026-06-26T13:37:29Z</time>
      </trkpt>
      <trkpt lat="52.354986006394029" lon="-7.670816034078598">
        <ele>14.08</ele>
        <time>2026-06-26T13:37:30Z</time>
      </trkpt>
      <trkpt lat="52.354916017502546" lon="-7.670889040455222">
        <ele>14.56</ele>
        <time>2026-06-26T13:37:31Z</time>
      </trkpt>
      <trkpt lat="52.354843011125922" lon="-7.670964980497956">
        <ele>15.039999999999999</ele>
        <time>2026-06-26T13:37:32Z</time>
      </trkpt>
      <trkpt lat="52.354770004749298" lon="-7.671041004359722">
        <ele>15.039999999999999</ele>
        <time>2026-06-26T13:37:33Z</time>
      </trkpt>
      <trkpt lat="52.354563977569342" lon="-7.671256000176072">
        <ele>15.52</ele>
        <time>2026-06-26T13:37:36Z</time>
      </trkpt>
      <trkpt lat="52.354503963142633" lon="-7.671321965754032">
        <ele>15.52</ele>
        <time>2026-06-26T13:37:37Z</time>
      </trkpt>
      <trkpt lat="52.354445038363338" lon="-7.671391032636166">
        <ele>15.52</ele>
        <time>2026-06-26T13:37:38Z</time>
      </trkpt>
      <trkpt lat="52.35432299785316" lon="-7.671534027904272">
        <ele>16</ele>
        <time>2026-06-26T13:37:40Z</time>
      </trkpt>
      <trkpt lat="52.35425996594131" lon="-7.671608040109277">
        <ele>15.52</ele>
        <time>2026-06-26T13:37:41Z</time>
      </trkpt>
      <trkpt lat="52.354053016752005" lon="-7.67185103148222">
        <ele>16</ele>
        <time>2026-06-26T13:37:44Z</time>
      </trkpt>
      <trkpt lat="52.353977998718619" lon="-7.671939041465521">
        <ele>16.48</ele>
        <time>2026-06-26T13:37:45Z</time>
      </trkpt>
      <trkpt lat="52.353466032072902" lon="-7.672567013651133">
        <ele>15.52</ele>
        <time>2026-06-26T13:37:53Z</time>
      </trkpt>
      <trkpt lat="52.353197978809476" lon="-7.672929028049111">
        <ele>14.56</ele>
        <time>2026-06-26T13:37:58Z</time>
      </trkpt>
      <trkpt lat="52.353159002959728" lon="-7.673033969476819">
        <ele>14.56</ele>
        <time>2026-06-26T13:37:59Z</time>
      </trkpt>
      <trkpt lat="52.3528409935534" lon="-7.673943992704153">
        <ele>13.6</ele>
        <time>2026-06-26T13:38:07Z</time>
      </trkpt>
      <trkpt lat="52.352807968854904" lon="-7.674069972708821">
        <ele>13.119999999999999</ele>
        <time>2026-06-26T13:38:08Z</time>
      </trkpt>
      <trkpt lat="52.352794976904988" lon="-7.674207016825676">
        <ele>12.630000000000001</ele>
        <time>2026-06-26T13:38:09Z</time>
      </trkpt>
      <trkpt lat="52.352796988561749" lon="-7.674355041235685">
        <ele>13.119999999999999</ele>
        <time>2026-06-26T13:38:10Z</time>
      </trkpt>
      <trkpt lat="52.352799000218511" lon="-7.674502981826663">
        <ele>13.6</ele>
        <time>2026-06-26T13:38:11Z</time>
      </trkpt>
      <trkpt lat="52.352811992168427" lon="-7.675478970631957">
        <ele>16.960000000000001</ele>
        <time>2026-06-26T13:38:19Z</time>
      </trkpt>
      <trkpt lat="52.352814003825188" lon="-7.675595982000232">
        <ele>17.440000000000001</ele>
        <time>2026-06-26T13:38:20Z</time>
      </trkpt>
      <trkpt lat="52.352819032967091" lon="-7.675957996398211">
        <ele>17.920000000000002</ele>
        <time>2026-06-26T13:38:23Z</time>
      </trkpt>
      <trkpt lat="52.35282096080482" lon="-7.676094034686685">
        <ele>17.920000000000002</ele>
        <time>2026-06-26T13:38:24Z</time>
      </trkpt>
      <trkpt lat="52.352822972461581" lon="-7.676241975277662">
        <ele>17.920000000000002</ele>
        <time>2026-06-26T13:38:25Z</time>
      </trkpt>
      <trkpt lat="52.352851973846555" lon="-7.677703024819493">
        <ele>18.879999999999999</ele>
        <time>2026-06-26T13:38:35Z</time>
      </trkpt>
      <trkpt lat="52.352850968018174" lon="-7.678264025598764">
        <ele>19.359999999999999</ele>
        <time>2026-06-26T13:38:40Z</time>
      </trkpt>
      <trkpt lat="52.352848034352064" lon="-7.678396040573716">
        <ele>19.84</ele>
        <time>2026-06-26T13:38:41Z</time>
      </trkpt>
      <trkpt lat="52.35282096080482" lon="-7.679126020520926">
        <ele>22.25</ele>
        <time>2026-06-26T13:38:46Z</time>
      </trkpt>
      <trkpt lat="52.352543016895652" lon="-7.680516997352243">
        <ele>25.609999999999999</ele>
        <time>2026-06-26T13:38:57Z</time>
      </trkpt>
      <trkpt lat="52.352263983339071" lon="-7.681798003613949">
        <ele>25.129999999999999</ele>
        <time>2026-06-26T13:39:06Z</time>
      </trkpt>
      <trkpt lat="52.352192988619208" lon="-7.682120036333799">
        <ele>25.609999999999999</ele>
        <time>2026-06-26T13:39:08Z</time>
      </trkpt>
      <trkpt lat="52.352157030254602" lon="-7.682288009673357">
        <ele>25.609999999999999</ele>
        <time>2026-06-26T13:39:09Z</time>
      </trkpt>
      <trkpt lat="52.35213004052639" lon="-7.682457994669676">
        <ele>25.609999999999999</ele>
        <time>2026-06-26T13:39:10Z</time>
      </trkpt>
      <trkpt lat="52.352019986137748" lon="-7.683244971558452">
        <ele>25.129999999999999</ele>
        <time>2026-06-26T13:39:15Z</time>
      </trkpt>
      <trkpt lat="52.352004982531071" lon="-7.683553006500006">
        <ele>25.129999999999999</ele>
        <time>2026-06-26T13:39:17Z</time>
      </trkpt>
      <trkpt lat="52.351975981146097" lon="-7.684159018099308">
        <ele>21.289999999999999</ele>
        <time>2026-06-26T13:39:22Z</time>
      </trkpt>
      <trkpt lat="52.351971035823226" lon="-7.684259014204145">
        <ele>20.809999999999999</ele>
        <time>2026-06-26T13:39:23Z</time>
      </trkpt>
      <trkpt lat="52.351967012509704" lon="-7.6843580044806">
        <ele>19.84</ele>
        <time>2026-06-26T13:39:24Z</time>
      </trkpt>
      <trkpt lat="52.351961983367801" lon="-7.684449031949043">
        <ele>19.359999999999999</ele>
        <time>2026-06-26T13:39:25Z</time>
      </trkpt>
      <trkpt lat="52.351957960054278" lon="-7.684536036103964">
        <ele>18.879999999999999</ele>
        <time>2026-06-26T13:39:26Z</time>
      </trkpt>
      <trkpt lat="52.351954020559788" lon="-7.684622034430504">
        <ele>18.399999999999999</ele>
        <time>2026-06-26T13:39:27Z</time>
      </trkpt>
      <trkpt lat="52.351919990032911" lon="-7.685132995247841">
        <ele>15.52</ele>
        <time>2026-06-26T13:39:34Z</time>
      </trkpt>
      <trkpt lat="52.351911021396518" lon="-7.685213964432478">
        <ele>15.039999999999999</ele>
        <time>2026-06-26T13:39:35Z</time>
      </trkpt>
      <trkpt lat="52.351899035274982" lon="-7.685321001335979">
        <ele>15.039999999999999</ele>
        <time>2026-06-26T13:39:36Z</time>
      </trkpt>
      <trkpt lat="52.351884031668305" lon="-7.685445975512266">
        <ele>14.56</ele>
        <time>2026-06-26T13:39:37Z</time>
      </trkpt>
      <trkpt lat="52.35187497921288" lon="-7.685599029064179">
        <ele>14.56</ele>
        <time>2026-06-26T13:39:38Z</time>
      </trkpt>
      <trkpt lat="52.351889982819557" lon="-7.685771025717259">
        <ele>14.56</ele>
        <time>2026-06-26T13:39:39Z</time>
      </trkpt>
      <trkpt lat="52.351905992254615" lon="-7.685957020148635">
        <ele>14.08</ele>
        <time>2026-06-26T13:39:40Z</time>
      </trkpt>
      <trkpt lat="52.351924013346434" lon="-7.686152989044786">
        <ele>14.08</ele>
        <time>2026-06-26T13:39:41Z</time>
      </trkpt>
      <trkpt lat="52.351880008354783" lon="-7.687802966684103">
        <ele>15.039999999999999</ele>
        <time>2026-06-26T13:39:49Z</time>
      </trkpt>
      <trkpt lat="52.351846983656287" lon="-7.688194988295436">
        <ele>15.52</ele>
        <time>2026-06-26T13:39:51Z</time>
      </trkpt>
      <trkpt lat="52.351840026676655" lon="-7.6897700317204">
        <ele>18.879999999999999</ele>
        <time>2026-06-26T13:39:59Z</time>
      </trkpt>
      <trkpt lat="52.351842960342765" lon="-7.689970023930073">
        <ele>18.879999999999999</ele>
        <time>2026-06-26T13:40:00Z</time>
      </trkpt>
      <trkpt lat="52.351847989484668" lon="-7.690313011407852">
        <ele>18.399999999999999</ele>
        <time>2026-06-26T13:40:02Z</time>
      </trkpt>
      <trkpt lat="52.351850001141429" lon="-7.690434968098998">
        <ele>17.920000000000002</ele>
        <time>2026-06-26T13:40:03Z</time>
      </trkpt>
      <trkpt lat="52.351850001141429" lon="-7.690516021102667">
        <ele>17.440000000000001</ele>
        <time>2026-06-26T13:40:04Z</time>
      </trkpt>
      <trkpt lat="52.351867016404867" lon="-7.691156985238195">
        <ele>16.48</ele>
        <time>2026-06-26T13:40:08Z</time>
      </trkpt>
      <trkpt lat="52.351846983656287" lon="-7.691342979669571">
        <ele>16.48</ele>
        <time>2026-06-26T13:40:09Z</time>
      </trkpt>
      <trkpt lat="52.351824017241597" lon="-7.691539032384753">
        <ele>16.48</ele>
        <time>2026-06-26T13:40:10Z</time>
      </trkpt>
      <trkpt lat="52.351668030023575" lon="-7.692132974043489">
        <ele>14.56</ele>
        <time>2026-06-26T13:40:13Z</time>
      </trkpt>
      <trkpt lat="52.351564010605216" lon="-7.692529018968344">
        <ele>13.119999999999999</ele>
        <time>2026-06-26T13:40:15Z</time>
      </trkpt>
      <trkpt lat="52.351411962881684" lon="-7.693107035011053">
        <ele>12.630000000000001</ele>
        <time>2026-06-26T13:40:18Z</time>
      </trkpt>
      <trkpt lat="52.351310960948467" lon="-7.693493021652103">
        <ele>12.630000000000001</ele>
        <time>2026-06-26T13:40:20Z</time>
      </trkpt>
      <trkpt lat="52.351266033947468" lon="-7.693669041618705">
        <ele>12.15</ele>
        <time>2026-06-26T13:40:21Z</time>
      </trkpt>
      <trkpt lat="52.351230997592211" lon="-7.693843971937895">
        <ele>11.67</ele>
        <time>2026-06-26T13:40:22Z</time>
      </trkpt>
      <trkpt lat="52.351167965680361" lon="-7.694264994934201">
        <ele>10.710000000000001</ele>
        <time>2026-06-26T13:40:25Z</time>
      </trkpt>
      <trkpt lat="52.351176012307405" lon="-7.694375971332192">
        <ele>11.19</ele>
        <time>2026-06-26T13:40:26Z</time>
      </trkpt>
      <trkpt lat="52.351181963458657" lon="-7.694462975487113">
        <ele>11.19</ele>
        <time>2026-06-26T13:40:27Z</time>
      </trkpt>
      <trkpt lat="52.35118598677218" lon="-7.69451997242868">
        <ele>11.67</ele>
        <time>2026-06-26T13:40:33Z</time>
      </trkpt>
      <trkpt lat="52.351223034784198" lon="-7.695064041763544">
        <ele>12.15</ele>
        <time>2026-06-26T13:40:38Z</time>
      </trkpt>
      <trkpt lat="52.35114298760891" lon="-7.695815982297063">
        <ele>12.630000000000001</ele>
        <time>2026-06-26T13:40:42Z</time>
      </trkpt>
      <trkpt lat="52.351122032850981" lon="-7.696009017527103">
        <ele>12.630000000000001</ele>
        <time>2026-06-26T13:40:43Z</time>
      </trkpt>
      <trkpt lat="52.351102000102401" lon="-7.696200041100383">
        <ele>13.119999999999999</ele>
        <time>2026-06-26T13:40:44Z</time>
      </trkpt>
      <trkpt lat="52.351081967353821" lon="-7.696390980854631">
        <ele>13.119999999999999</ele>
        <time>2026-06-26T13:40:45Z</time>
      </trkpt>
      <trkpt lat="52.351062018424273" lon="-7.696580998599529">
        <ele>13.6</ele>
        <time>2026-06-26T13:40:46Z</time>
      </trkpt>
      <trkpt lat="52.351041985675693" lon="-7.696769004687667">
        <ele>14.08</ele>
        <time>2026-06-26T13:40:47Z</time>
      </trkpt>
      <trkpt lat="52.351021030917764" lon="-7.696962961927056">
        <ele>14.08</ele>
        <time>2026-06-26T13:40:48Z</time>
      </trkpt>
      <trkpt lat="52.3509949631989" lon="-7.697159014642239">
        <ele>14.08</ele>
        <time>2026-06-26T13:40:49Z</time>
      </trkpt>
      <trkpt lat="52.350965961813927" lon="-7.69735699519515">
        <ele>13.6</ele>
        <time>2026-06-26T13:40:50Z</time>
      </trkpt>
      <trkpt lat="52.35054099932313" lon="-7.699938034638763">
        <ele>11.67</ele>
        <time>2026-06-26T13:41:03Z</time>
      </trkpt>
      <trkpt lat="52.350106984376907" lon="-7.701374022290111">
        <ele>11.19</ele>
        <time>2026-06-26T13:41:11Z</time>
      </trkpt>
      <trkpt lat="52.350054010748863" lon="-7.701532021164894">
        <ele>10.710000000000001</ele>
        <time>2026-06-26T13:41:12Z</time>
      </trkpt>
      <trkpt lat="52.349752010777593" lon="-7.702538017183542">
        <ele>10.710000000000001</ele>
        <time>2026-06-26T13:41:18Z</time>
      </trkpt>
      <trkpt lat="52.349720997735858" lon="-7.702687969431281">
        <ele>11.19</ele>
        <time>2026-06-26T13:41:19Z</time>
      </trkpt>
      <trkpt lat="52.3497049883008" lon="-7.702847979962826">
        <ele>11.67</ele>
        <time>2026-06-26T13:41:20Z</time>
      </trkpt>
      <trkpt lat="52.349690990522504" lon="-7.702996004372835">
        <ele>12.15</ele>
        <time>2026-06-26T13:41:21Z</time>
      </trkpt>
      <trkpt lat="52.349677998572588" lon="-7.703134976327419">
        <ele>12.15</ele>
        <time>2026-06-26T13:41:22Z</time>
      </trkpt>
      <trkpt lat="52.349582025781274" lon="-7.70412496291101">
        <ele>14.56</ele>
        <time>2026-06-26T13:41:32Z</time>
      </trkpt>
      <trkpt lat="52.349568028002977" lon="-7.704271981492639">
        <ele>15.039999999999999</ele>
        <time>2026-06-26T13:41:34Z</time>
      </trkpt>
      <trkpt lat="52.349561993032694" lon="-7.704336019232869">
        <ele>15.039999999999999</ele>
        <time>2026-06-26T13:41:35Z</time>
      </trkpt>
      <trkpt lat="52.349512036889791" lon="-7.704425035044551">
        <ele>15.52</ele>
        <time>2026-06-26T13:41:36Z</time>
      </trkpt>
      <trkpt lat="52.349474988877773" lon="-7.704429980367422">
        <ele>15.52</ele>
        <time>2026-06-26T13:41:37Z</time>
      </trkpt>
      <trkpt lat="52.349432995542884" lon="-7.704435009509325">
        <ele>15.52</ele>
        <time>2026-06-26T13:41:38Z</time>
      </trkpt>
      <trkpt lat="52.349385973066092" lon="-7.704440960660577">
        <ele>16</ele>
        <time>2026-06-26T13:41:39Z</time>
      </trkpt>
      <trkpt lat="52.349046003073454" lon="-7.704525031149387">
        <ele>15.52</ele>
        <time>2026-06-26T13:41:46Z</time>
      </trkpt>
      <trkpt lat="52.348999986425042" lon="-7.704546991735697">
        <ele>15.52</ele>
        <time>2026-06-26T13:41:47Z</time>
      </trkpt>
      <trkpt lat="52.348970985040069" lon="-7.704592002555728">
        <ele>15.039999999999999</ele>
        <time>2026-06-26T13:41:48Z</time>
      </trkpt>
      <trkpt lat="52.348946006968617" lon="-7.704636007547379">
        <ele>15.039999999999999</ele>
        <time>2026-06-26T13:41:49Z</time>
      </trkpt>
      <trkpt lat="52.348932009190321" lon="-7.70466199144721">
        <ele>15.039999999999999</ele>
        <time>2026-06-26T13:41:50Z</time>
      </trkpt>
      <trkpt lat="52.348920023068786" lon="-7.70468202419579">
        <ele>15.039999999999999</ele>
        <time>2026-06-26T13:41:51Z</time>
      </trkpt>
      <trkpt lat="52.348891021683812" lon="-7.704784031957388">
        <ele>15.039999999999999</ele>
        <time>2026-06-26T13:42:00Z</time>
      </trkpt>
      <trkpt lat="52.348770992830396" lon="-7.705352995544672">
        <ele>16</ele>
        <time>2026-06-26T13:42:10Z</time>
      </trkpt>
      <trkpt lat="52.348431022837758" lon="-7.706415988504887">
        <ele>17.920000000000002</ele>
        <time>2026-06-26T13:42:20Z</time>
      </trkpt>
      <trkpt lat="52.347585959360003" lon="-7.708234023302794">
        <ele>22.73</ele>
        <time>2026-06-26T13:42:33Z</time>
      </trkpt>
      <trkpt lat="52.347384039312601" lon="-7.708667032420635">
        <ele>23.690000000000001</ele>
        <time>2026-06-26T13:42:36Z</time>
      </trkpt>
      <trkpt lat="52.34731899574399" lon="-7.708814973011613">
        <ele>24.170000000000002</ele>
        <time>2026-06-26T13:42:37Z</time>
      </trkpt>
      <trkpt lat="52.347246995195746" lon="-7.708973977714777">
        <ele>25.129999999999999</ele>
        <time>2026-06-26T13:42:38Z</time>
      </trkpt>
      <trkpt lat="52.347170971333981" lon="-7.709143962711096">
        <ele>25.609999999999999</ele>
        <time>2026-06-26T13:42:39Z</time>
      </trkpt>
      <trkpt lat="52.347085978835821" lon="-7.709333980455995">
        <ele>25.609999999999999</ele>
        <time>2026-06-26T13:42:40Z</time>
      </trkpt>
      <trkpt lat="52.347034011036158" lon="-7.709531961008906">
        <ele>26.09</ele>
        <time>2026-06-26T13:42:41Z</time>
      </trkpt>
      <trkpt lat="52.346981959417462" lon="-7.709733964875341">
        <ele>25.609999999999999</ele>
        <time>2026-06-26T13:42:42Z</time>
      </trkpt>
      <trkpt lat="52.346521038562059" lon="-7.711532972753048">
        <ele>20.809999999999999</ele>
        <time>2026-06-26T13:42:51Z</time>
      </trkpt>
      <trkpt lat="52.346141003072262" lon="-7.713212035596371">
        <ele>16</ele>
        <time>2026-06-26T13:42:59Z</time>
      </trkpt>
      <trkpt lat="52.346096998080611" lon="-7.713406998664141">
        <ele>15.039999999999999</ele>
        <time>2026-06-26T13:43:00Z</time>
      </trkpt>
      <trkpt lat="52.34605198726058" lon="-7.713607996702194">
        <ele>14.56</ele>
        <time>2026-06-26T13:43:01Z</time>
      </trkpt>
      <trkpt lat="52.345712017267942" lon="-7.715121014043689">
        <ele>8.789999999999999</ele>
        <time>2026-06-26T13:43:09Z</time>
      </trkpt>
      <trkpt lat="52.345462990924716" lon="-7.716507967561483">
        <ele>7.83</ele>
        <time>2026-06-26T13:43:18Z</time>
      </trkpt>
      <trkpt lat="52.34523399733007" lon="-7.718217959627509">
        <ele>9.75</ele>
        <time>2026-06-26T13:43:27Z</time>
      </trkpt>
      <trkpt lat="52.345097037032247" lon="-7.720212014392018">
        <ele>10.23</ele>
        <time>2026-06-26T13:43:36Z</time>
      </trkpt>
      <trkpt lat="52.344884974882007" lon="-7.722283015027642">
        <ele>11.67</ele>
        <time>2026-06-26T13:43:45Z</time>
      </trkpt>
      <trkpt lat="52.344382982701063" lon="-7.72462198510766">
        <ele>13.6</ele>
        <time>2026-06-26T13:43:57Z</time>
      </trkpt>
      <trkpt lat="52.34424501657486" lon="-7.725368980318308">
        <ele>15.039999999999999</ele>
        <time>2026-06-26T13:44:02Z</time>
      </trkpt>
      <trkpt lat="52.34422498382628" lon="-7.725477023050189">
        <ele>15.039999999999999</ele>
        <time>2026-06-26T13:44:03Z</time>
      </trkpt>
      <trkpt lat="52.344061033800244" lon="-7.725555980578065">
        <ele>15.52</ele>
        <time>2026-06-26T13:44:04Z</time>
      </trkpt>
      <trkpt lat="52.344047036021948" lon="-7.725596968084574">
        <ele>15.52</ele>
        <time>2026-06-26T13:44:05Z</time>
      </trkpt>
      <trkpt lat="52.344002025201917" lon="-7.725785980001092">
        <ele>16</ele>
        <time>2026-06-26T13:44:06Z</time>
      </trkpt>
      <trkpt lat="52.344018034636974" lon="-7.725878013297916">
        <ele>16.48</ele>
        <time>2026-06-26T13:44:07Z</time>
      </trkpt>
      <trkpt lat="52.344018034636974" lon="-7.725878013297916">
        <ele>16.960000000000001</ele>
        <time>2026-06-26T13:44:08Z</time>
      </trkpt>
      <trkpt lat="52.344103027135134" lon="-7.726136008277535">
        <ele>17.440000000000001</ele>
        <time>2026-06-26T13:44:09Z</time>
      </trkpt>
      <trkpt lat="52.344061033800244" lon="-7.726285960525274">
        <ele>17.440000000000001</ele>
        <time>2026-06-26T13:44:10Z</time>
      </trkpt>
      <trkpt lat="52.343935975804925" lon="-7.727514998987317">
        <ele>16.960000000000001</ele>
        <time>2026-06-26T13:44:16Z</time>
      </trkpt>
      <trkpt lat="52.343857018277049" lon="-7.728227963671088">
        <ele>16</ele>
        <time>2026-06-26T13:44:19Z</time>
      </trkpt>
      <trkpt lat="52.343274978920817" lon="-7.730208020657301">
        <ele>15.52</ele>
        <time>2026-06-26T13:44:28Z</time>
      </trkpt>
      <trkpt lat="52.343160985037684" lon="-7.730671958997846">
        <ele>15.52</ele>
        <time>2026-06-26T13:44:30Z</time>
      </trkpt>
      <trkpt lat="52.342879017814994" lon="-7.732929037883878">
        <ele>13.6</ele>
        <time>2026-06-26T13:44:39Z</time>
      </trkpt>
      <trkpt lat="52.342831995338202" lon="-7.733516022562981">
        <ele>13.6</ele>
        <time>2026-06-26T13:44:41Z</time>
      </trkpt>
      <trkpt lat="52.342752031981945" lon="-7.736429991200566">
        <ele>14.08</ele>
        <time>2026-06-26T13:44:50Z</time>
      </trkpt>
      <trkpt lat="52.342723030596972" lon="-7.739407997578383">
        <ele>11.19</ele>
        <time>2026-06-26T13:44:59Z</time>
      </trkpt>
      <trkpt lat="52.342649018391967" lon="-7.7400460280478">
        <ele>10.23</ele>
        <time>2026-06-26T13:45:01Z</time>
      </trkpt>
      <trkpt lat="52.342267977073789" lon="-7.74198099039495">
        <ele>7.83</ele>
        <time>2026-06-26T13:45:08Z</time>
      </trkpt>
      <trkpt lat="52.342049041762948" lon="-7.74301397614181">
        <ele>6.87</ele>
        <time>2026-06-26T13:45:12Z</time>
      </trkpt>
      <trkpt lat="52.341993972659111" lon="-7.743261996656656">
        <ele>6.39</ele>
        <time>2026-06-26T13:45:13Z</time>
      </trkpt>
      <trkpt lat="52.341544032096863" lon="-7.745505999773741">
        <ele>3.98</ele>
        <time>2026-06-26T13:45:21Z</time>
      </trkpt>
      <trkpt lat="52.341309003531933" lon="-7.746735038235784">
        <ele>5.42</ele>
        <time>2026-06-26T13:45:25Z</time>
      </trkpt>
      <trkpt lat="52.341013038530946" lon="-7.749361004680395">
        <ele>6.87</ele>
        <time>2026-06-26T13:45:33Z</time>
      </trkpt>
      <trkpt lat="52.340860990807414" lon="-7.750613009557128">
        <ele>8.310000000000001</ele>
        <time>2026-06-26T13:45:37Z</time>
      </trkpt>
      <trkpt lat="52.340559996664524" lon="-7.752759028226137">
        <ele>9.75</ele>
        <time>2026-06-26T13:45:44Z</time>
      </trkpt>
      <trkpt lat="52.340441979467869" lon="-7.753321034833789">
        <ele>9.27</ele>
        <time>2026-06-26T13:45:46Z</time>
      </trkpt>
      <trkpt lat="52.340068984776735" lon="-7.755489014089108">
        <ele>7.35</ele>
        <time>2026-06-26T13:45:53Z</time>
      </trkpt>
      <trkpt lat="52.339954990893602" lon="-7.757872994989157">
        <ele>5.91</ele>
        <time>2026-06-26T13:46:00Z</time>
      </trkpt>
      <trkpt lat="52.339681992307305" lon="-7.760915039107204">
        <ele>1.58</ele>
        <time>2026-06-26T13:46:10Z</time>
      </trkpt>
      <trkpt lat="52.339436989277601" lon="-7.76342298835516">
        <ele>-0.34</ele>
        <time>2026-06-26T13:46:18Z</time>
      </trkpt>
      <trkpt lat="52.339029964059591" lon="-7.766201002523303">
        <ele>-1.3</ele>
        <time>2026-06-26T13:46:27Z</time>
      </trkpt>
      <trkpt lat="52.338685970753431" lon="-7.768723033368588">
        <ele>1.1</ele>
        <time>2026-06-26T13:46:35Z</time>
      </trkpt>
      <trkpt lat="52.338672978803515" lon="-7.771920980885625">
        <ele>6.87</ele>
        <time>2026-06-26T13:46:45Z</time>
      </trkpt>
      <trkpt lat="52.339113028720021" lon="-7.773540029302239">
        <ele>10.23</ele>
        <time>2026-06-26T13:46:51Z</time>
      </trkpt>
      <trkpt lat="52.340268976986408" lon="-7.775727035477758">
        <ele>16</ele>
        <time>2026-06-26T13:47:00Z</time>
      </trkpt>
      <trkpt lat="52.340936008840799" lon="-7.777273999527097">
        <ele>20.32</ele>
        <time>2026-06-26T13:47:07Z</time>
      </trkpt>
      <trkpt lat="52.341358959674835" lon="-7.779387999325991">
        <ele>22.73</ele>
        <time>2026-06-26T13:47:14Z</time>
      </trkpt>
      <trkpt lat="52.341374969109893" lon="-7.779697962105274">
        <ele>23.210000000000001</ele>
        <time>2026-06-26T13:47:15Z</time>
      </trkpt>
      <trkpt lat="52.34139097854495" lon="-7.779990993440151">
        <ele>23.690000000000001</ele>
        <time>2026-06-26T13:47:16Z</time>
      </trkpt>
      <trkpt lat="52.341393996030092" lon="-7.780258040875197">
        <ele>24.649999999999999</ele>
        <time>2026-06-26T13:47:17Z</time>
      </trkpt>
      <trkpt lat="52.341375974938273" lon="-7.78052500449121">
        <ele>25.129999999999999</ele>
        <time>2026-06-26T13:47:18Z</time>
      </trkpt>
      <trkpt lat="52.341358037665486" lon="-7.780798003077507">
        <ele>25.609999999999999</ele>
        <time>2026-06-26T13:47:19Z</time>
      </trkpt>
      <trkpt lat="52.341302968561649" lon="-7.781051974743605">
        <ele>26.57</ele>
        <time>2026-06-26T13:47:20Z</time>
      </trkpt>
      <trkpt lat="52.341125020757318" lon="-7.781823026016355">
        <ele>28.02</ele>
        <time>2026-06-26T13:47:23Z</time>
      </trkpt>
      <trkpt lat="52.340130005031824" lon="-7.784593999385834">
        <ele>28.98</ele>
        <time>2026-06-26T13:47:33Z</time>
      </trkpt>
      <trkpt lat="52.339440006762743" lon="-7.786226039752364">
        <ele>28.5</ele>
        <time>2026-06-26T13:47:39Z</time>
      </trkpt>
      <trkpt lat="52.339311009272933" lon="-7.786398958414793">
        <ele>28.02</ele>
        <time>2026-06-26T13:47:40Z</time>
      </trkpt>
      <trkpt lat="52.339177988469601" lon="-7.786569027230144">
        <ele>28.02</ele>
        <time>2026-06-26T13:47:41Z</time>
      </trkpt>
      <trkpt lat="52.337890025228262" lon="-7.78761500492692">
        <ele>28.5</ele>
        <time>2026-06-26T13:47:49Z</time>
      </trkpt>
      <trkpt lat="52.337595988065004" lon="-7.78785296715796">
        <ele>28.98</ele>
        <time>2026-06-26T13:47:51Z</time>
      </trkpt>
      <trkpt lat="52.337460033595562" lon="-7.787964027374983">
        <ele>29.460000000000001</ele>
        <time>2026-06-26T13:47:52Z</time>
      </trkpt>
      <trkpt lat="52.337001040577888" lon="-7.788211964070797">
        <ele>29.940000000000001</ele>
        <time>2026-06-26T13:47:56Z</time>
      </trkpt>
      <trkpt lat="52.336942031979561" lon="-7.788305003196001">
        <ele>29.460000000000001</ele>
        <time>2026-06-26T13:47:57Z</time>
      </trkpt>
      <trkpt lat="52.336883023381233" lon="-7.788397036492825">
        <ele>29.460000000000001</ele>
        <time>2026-06-26T13:47:58Z</time>
      </trkpt>
      <trkpt lat="52.336839018389583" lon="-7.788526033982635">
        <ele>29.940000000000001</ele>
        <time>2026-06-26T13:47:59Z</time>
      </trkpt>
      <trkpt lat="52.336815968155861" lon="-7.788683027029038">
        <ele>29.940000000000001</ele>
        <time>2026-06-26T13:48:00Z</time>
      </trkpt>
      <trkpt lat="52.33679199591279" lon="-7.788842031732202">
        <ele>30.899999999999999</ele>
        <time>2026-06-26T13:48:01Z</time>
      </trkpt>
      <trkpt lat="52.336624022573233" lon="-7.790286988019943">
        <ele>28.98</ele>
        <time>2026-06-26T13:48:08Z</time>
      </trkpt>
      <trkpt lat="52.336515979841352" lon="-7.79124503955245">
        <ele>27.530000000000001</ele>
        <time>2026-06-26T13:48:12Z</time>
      </trkpt>
      <trkpt lat="52.336494019255042" lon="-7.791475038975477">
        <ele>27.050000000000001</ele>
        <time>2026-06-26T13:48:13Z</time>
      </trkpt>
      <trkpt lat="52.336449008435011" lon="-7.791938977316022">
        <ele>27.050000000000001</ele>
        <time>2026-06-26T13:48:15Z</time>
      </trkpt>
      <trkpt lat="52.336386982351542" lon="-7.792876996099949">
        <ele>26.57</ele>
        <time>2026-06-26T13:48:19Z</time>
      </trkpt>
      <trkpt lat="52.336397040635347" lon="-7.793123004958034">
        <ele>26.57</ele>
        <time>2026-06-26T13:48:20Z</time>
      </trkpt>
      <trkpt lat="52.336436016485095" lon="-7.793364990502596">
        <ele>26.57</ele>
        <time>2026-06-26T13:48:21Z</time>
      </trkpt>
      <trkpt lat="52.336487984284759" lon="-7.793613011017442">
        <ele>27.050000000000001</ele>
        <time>2026-06-26T13:48:22Z</time>
      </trkpt>
      <trkpt lat="52.336544981226325" lon="-7.793862959370017">
        <ele>27.050000000000001</ele>
        <time>2026-06-26T13:48:23Z</time>
      </trkpt>
      <trkpt lat="52.336624022573233" lon="-7.794110979884863">
        <ele>27.050000000000001</ele>
        <time>2026-06-26T13:48:24Z</time>
      </trkpt>
      <trkpt lat="52.33670499175787" lon="-7.794362017884851">
        <ele>27.530000000000001</ele>
        <time>2026-06-26T13:48:25Z</time>
      </trkpt>
      <trkpt lat="52.337031969800591" lon="-7.795384023338556">
        <ele>30.899999999999999</ele>
        <time>2026-06-26T13:48:29Z</time>
      </trkpt>
      <trkpt lat="52.337136995047331" lon="-7.795580998063088">
        <ele>31.859999999999999</ele>
        <time>2026-06-26T13:48:30Z</time>
      </trkpt>
      <trkpt lat="52.337260963395238" lon="-7.795745031908155">
        <ele>32.82</ele>
        <time>2026-06-26T13:48:31Z</time>
      </trkpt>
      <trkpt lat="52.337574027478695" lon="-7.796158008277416">
        <ele>34.259999999999998</ele>
        <time>2026-06-26T13:48:34Z</time>
      </trkpt>
      <trkpt lat="52.337638987228274" lon="-7.796285999938846">
        <ele>34.740000000000002</ele>
        <time>2026-06-26T13:48:35Z</time>
      </trkpt>
      <trkpt lat="52.338083982467651" lon="-7.797398027032614">
        <ele>36.189999999999998</ele>
        <time>2026-06-26T13:48:42Z</time>
      </trkpt>
      <trkpt lat="52.338122958317399" lon="-7.797574969008565">
        <ele>36.670000000000002</ele>
        <time>2026-06-26T13:48:43Z</time>
      </trkpt>
      <trkpt lat="52.338152965530753" lon="-7.797771021723747">
        <ele>38.109999999999999</ele>
        <time>2026-06-26T13:48:44Z</time>
      </trkpt>
      <trkpt lat="52.338117007166147" lon="-7.797932960093021">
        <ele>39.07</ele>
        <time>2026-06-26T13:48:45Z</time>
      </trkpt>
      <trkpt lat="52.338074008002877" lon="-7.798125995323062">
        <ele>40.030000000000001</ele>
        <time>2026-06-26T13:48:46Z</time>
      </trkpt>
      <trkpt lat="52.338022040203214" lon="-7.798260021954775">
        <ele>40.990000000000002</ele>
        <time>2026-06-26T13:48:47Z</time>
      </trkpt>
      <trkpt lat="52.337960014119744" lon="-7.798421960324049">
        <ele>41.950000000000003</ele>
        <time>2026-06-26T13:48:48Z</time>
      </trkpt>
      <trkpt lat="52.337212013080716" lon="-7.800406962633133">
        <ele>55.890000000000001</ele>
        <time>2026-06-26T13:48:58Z</time>
      </trkpt>
      <trkpt lat="52.336282040923834" lon="-7.803051033988595">
        <ele>75.599999999999994</ele>
        <time>2026-06-26T13:49:09Z</time>
      </trkpt>
      <trkpt lat="52.335342010483146" lon="-7.805932983756065">
        <ele>78.480000000000004</ele>
        <time>2026-06-26T13:49:19Z</time>
      </trkpt>
      <trkpt lat="52.334615970030427" lon="-7.80830598436296">
        <ele>70.310000000000002</ele>
        <time>2026-06-26T13:49:27Z</time>
      </trkpt>
      <trkpt lat="52.333645010367036" lon="-7.81148599460721">
        <ele>60.219999999999999</ele>
        <time>2026-06-26T13:49:38Z</time>
      </trkpt>
      <trkpt lat="52.332527032122016" lon="-7.815253995358944">
        <ele>55.409999999999997</ele>
        <time>2026-06-26T13:49:51Z</time>
      </trkpt>
      <trkpt lat="52.332111038267612" lon="-7.817218964919448">
        <ele>58.299999999999997</ele>
        <time>2026-06-26T13:49:58Z</time>
      </trkpt>
      <trkpt lat="52.331549031659961" lon="-7.819406976923347">
        <ele>55.409999999999997</ele>
        <time>2026-06-26T13:50:06Z</time>
      </trkpt>
      <trkpt lat="52.33077596873045" lon="-7.821268010884523">
        <ele>61.18</ele>
        <time>2026-06-26T13:50:14Z</time>
      </trkpt>
      <trkpt lat="52.330534989014268" lon="-7.821662966161966">
        <ele>64.069999999999993</ele>
        <time>2026-06-26T13:50:16Z</time>
      </trkpt>
      <trkpt lat="52.330403979867697" lon="-7.821839991956949">
        <ele>65.030000000000001</ele>
        <time>2026-06-26T13:50:17Z</time>
      </trkpt>
      <trkpt lat="52.329018032178283" lon="-7.82362500205636">
        <ele>68.390000000000001</ele>
        <time>2026-06-26T13:50:27Z</time>
      </trkpt>
      <trkpt lat="52.328023016452789" lon="-7.825230974704027">
        <ele>63.579999999999998</ele>
        <time>2026-06-26T13:50:35Z</time>
      </trkpt>
      <trkpt lat="52.326931022107601" lon="-7.827804973348975">
        <ele>62.140000000000001</ele>
        <time>2026-06-26T13:50:45Z</time>
      </trkpt>
      <trkpt lat="52.325842967256904" lon="-7.830360028892756">
        <ele>67.430000000000007</ele>
        <time>2026-06-26T13:50:56Z</time>
      </trkpt>
      <trkpt lat="52.325058002024889" lon="-7.832458019256592">
        <ele>67.909999999999997</ele>
        <time>2026-06-26T13:51:04Z</time>
      </trkpt>
      <trkpt lat="52.324989018961787" lon="-7.832750966772437">
        <ele>67.909999999999997</ele>
        <time>2026-06-26T13:51:05Z</time>
      </trkpt>
      <trkpt lat="52.324944008141756" lon="-7.833062019199133">
        <ele>67.909999999999997</ele>
        <time>2026-06-26T13:51:06Z</time>
      </trkpt>
      <trkpt lat="52.32452298514545" lon="-7.835991997271776">
        <ele>68.870000000000005</ele>
        <time>2026-06-26T13:51:15Z</time>
      </trkpt>
      <trkpt lat="52.323839021846652" lon="-7.8393529728055">
        <ele>67.909999999999997</ele>
        <time>2026-06-26T13:51:26Z</time>
      </trkpt>
      <trkpt lat="52.323013991117477" lon="-7.841767966747284">
        <ele>64.549999999999997</ele>
        <time>2026-06-26T13:51:35Z</time>
      </trkpt>
      <trkpt lat="52.322348970919847" lon="-7.844395022839308">
        <ele>65.989999999999995</ele>
        <time>2026-06-26T13:51:44Z</time>
      </trkpt>
      <trkpt lat="52.321569034829736" lon="-7.847668994218111">
        <ele>66.950000000000003</ele>
        <time>2026-06-26T13:51:56Z</time>
      </trkpt>
      <trkpt lat="52.320952964946628" lon="-7.849796991795301">
        <ele>66.469999999999999</ele>
        <time>2026-06-26T13:52:04Z</time>
      </trkpt>
      <trkpt lat="52.320170011371374" lon="-7.851892970502377">
        <ele>67.909999999999997</ele>
        <time>2026-06-26T13:52:12Z</time>
      </trkpt>
      <trkpt lat="52.319569028913975" lon="-7.854182990267873">
        <ele>67.909999999999997</ele>
        <time>2026-06-26T13:52:20Z</time>
      </trkpt>
      <trkpt lat="52.319169966503978" lon="-7.856705021113157">
        <ele>65.989999999999995</ele>
        <time>2026-06-26T13:52:29Z</time>
      </trkpt>
      <trkpt lat="52.318277964368463" lon="-7.859970023855567">
        <ele>64.549999999999997</ele>
        <time>2026-06-26T13:52:40Z</time>
      </trkpt>
      <trkpt lat="52.3177769780159" lon="-7.8620820119977">
        <ele>63.579999999999998</ele>
        <time>2026-06-26T13:52:47Z</time>
      </trkpt>
      <trkpt lat="52.317498028278351" lon="-7.863700976595283">
        <ele>62.619999999999997</ele>
        <time>2026-06-26T13:52:55Z</time>
      </trkpt>
      <trkpt lat="52.31706602498889" lon="-7.86537098698318">
        <ele>64.069999999999993</ele>
        <time>2026-06-26T13:53:03Z</time>
      </trkpt>
      <trkpt lat="52.316726977005601" lon="-7.866961034014821">
        <ele>66.469999999999999</ele>
        <time>2026-06-26T13:53:10Z</time>
      </trkpt>
      <trkpt lat="52.31635901145637" lon="-7.868659039959312">
        <ele>65.989999999999995</ele>
        <time>2026-06-26T13:53:19Z</time>
      </trkpt>
      <trkpt lat="52.315832963213325" lon="-7.870707996189594">
        <ele>56.859999999999999</ele>
        <time>2026-06-26T13:53:30Z</time>
      </trkpt>
      <trkpt lat="52.31573598459363" lon="-7.871081996709108">
        <ele>54.93</ele>
        <time>2026-06-26T13:53:32Z</time>
      </trkpt>
      <trkpt lat="52.315711006522179" lon="-7.871277965605259">
        <ele>53.969999999999999</ele>
        <time>2026-06-26T13:53:33Z</time>
      </trkpt>
      <trkpt lat="52.315625008195639" lon="-7.871929993852973">
        <ele>51.090000000000003</ele>
        <time>2026-06-26T13:53:36Z</time>
      </trkpt>
      <trkpt lat="52.315562982112169" lon="-7.872117999941111">
        <ele>50.130000000000003</ele>
        <time>2026-06-26T13:53:37Z</time>
      </trkpt>
      <trkpt lat="52.315502967685461" lon="-7.872297959402204">
        <ele>48.68</ele>
        <time>2026-06-26T13:53:38Z</time>
      </trkpt>
      <trkpt lat="52.315429039299488" lon="-7.872464004904032">
        <ele>47.719999999999999</ele>
        <time>2026-06-26T13:53:39Z</time>
      </trkpt>
      <trkpt lat="52.315353015437722" lon="-7.872605994343758">
        <ele>46.759999999999998</ele>
        <time>2026-06-26T13:53:40Z</time>
      </trkpt>
      <trkpt lat="52.315279003232718" lon="-7.87273901514709">
        <ele>45.799999999999997</ele>
        <time>2026-06-26T13:53:41Z</time>
      </trkpt>
      <trkpt lat="52.315189987421036" lon="-7.872850997373462">
        <ele>44.840000000000003</ele>
        <time>2026-06-26T13:53:42Z</time>
      </trkpt>
      <trkpt lat="52.315014973282814" lon="-7.873027017340064">
        <ele>43.880000000000003</ele>
        <time>2026-06-26T13:53:44Z</time>
      </trkpt>
      <trkpt lat="52.314931992441416" lon="-7.873109998181462">
        <ele>43.399999999999999</ele>
        <time>2026-06-26T13:53:45Z</time>
      </trkpt>
      <trkpt lat="52.314831996336579" lon="-7.873144028708339">
        <ele>42.920000000000002</ele>
        <time>2026-06-26T13:53:46Z</time>
      </trkpt>
      <trkpt lat="52.314739041030407" lon="-7.87316900677979">
        <ele>42.920000000000002</ele>
        <time>2026-06-26T13:53:47Z</time>
      </trkpt>
      <trkpt lat="52.314647007733583" lon="-7.873192979022861">
        <ele>42.920000000000002</ele>
        <time>2026-06-26T13:53:48Z</time>
      </trkpt>
      <trkpt lat="52.314541982486844" lon="-7.873192979022861">
        <ele>42.439999999999998</ele>
        <time>2026-06-26T13:53:49Z</time>
      </trkpt>
      <trkpt lat="52.314434023573995" lon="-7.873168000951409">
        <ele>42.439999999999998</ele>
        <time>2026-06-26T13:53:50Z</time>
      </trkpt>
      <trkpt lat="52.314320029690862" lon="-7.873142017051578">
        <ele>41.950000000000003</ele>
        <time>2026-06-26T13:53:51Z</time>
      </trkpt>
      <trkpt lat="52.314203018322587" lon="-7.873074039816856">
        <ele>41.469999999999999</ele>
        <time>2026-06-26T13:53:52Z</time>
      </trkpt>
      <trkpt lat="52.313609998673201" lon="-7.872538017109036">
        <ele>38.109999999999999</ele>
        <time>2026-06-26T13:53:59Z</time>
      </trkpt>
      <trkpt lat="52.313558030873537" lon="-7.872529970481992">
        <ele>38.109999999999999</ele>
        <time>2026-06-26T13:54:00Z</time>
      </trkpt>
      <trkpt lat="52.313512014225125" lon="-7.87252401933074">
        <ele>37.630000000000003</ele>
        <time>2026-06-26T13:54:01Z</time>
      </trkpt>
      <trkpt lat="52.313441019505262" lon="-7.872646981850267">
        <ele>37.630000000000003</ele>
        <time>2026-06-26T13:54:02Z</time>
      </trkpt>
      <trkpt lat="52.313392991200089" lon="-7.872936995700002">
        <ele>37.149999999999999</ele>
        <time>2026-06-26T13:54:05Z</time>
      </trkpt>
      <trkpt lat="52.313348986208439" lon="-7.873023999854922">
        <ele>37.149999999999999</ele>
        <time>2026-06-26T13:54:06Z</time>
      </trkpt>
      <trkpt lat="52.313024019822478" lon="-7.874139966443181">
        <ele>35.229999999999997</ele>
        <time>2026-06-26T13:54:14Z</time>
      </trkpt>
      <trkpt lat="52.312845988199115" lon="-7.874837005510926">
        <ele>34.259999999999998</ele>
        <time>2026-06-26T13:54:19Z</time>
      </trkpt>
      <trkpt lat="52.312817992642522" lon="-7.874943958595395">
        <ele>34.259999999999998</ele>
        <time>2026-06-26T13:54:20Z</time>
      </trkpt>
      <trkpt lat="52.312797037884593" lon="-7.875026017427445">
        <ele>34.259999999999998</ele>
        <time>2026-06-26T13:54:21Z</time>
      </trkpt>
      <trkpt lat="52.312772981822491" lon="-7.875119978561997">
        <ele>34.259999999999998</ele>
        <time>2026-06-26T13:54:22Z</time>
      </trkpt>
      <trkpt lat="52.312750015407801" lon="-7.875212011858821">
        <ele>34.259999999999998</ele>
        <time>2026-06-26T13:54:23Z</time>
      </trkpt>
      <trkpt lat="52.312725959345698" lon="-7.875303039327264">
        <ele>33.780000000000001</ele>
        <time>2026-06-26T13:54:24Z</time>
      </trkpt>
      <trkpt lat="52.312417002394795" lon="-7.876398973166943">
        <ele>32.340000000000003</ele>
        <time>2026-06-26T13:54:32Z</time>
      </trkpt>
      <trkpt lat="52.311908975243568" lon="-7.877920959144831">
        <ele>32.340000000000003</ele>
        <time>2026-06-26T13:54:43Z</time>
      </trkpt>
      <trkpt lat="52.31148200109601" lon="-7.878960985690355">
        <ele>34.740000000000002</ele>
        <time>2026-06-26T13:54:51Z</time>
      </trkpt>
      <trkpt lat="52.311404971405864" lon="-7.879056958481669">
        <ele>34.740000000000002</ele>
        <time>2026-06-26T13:54:52Z</time>
      </trkpt>
      <trkpt lat="52.311233980581164" lon="-7.879219986498356">
        <ele>34.259999999999998</ele>
        <time>2026-06-26T13:54:54Z</time>
      </trkpt>
      <trkpt lat="52.311147982254624" lon="-7.879301961511374">
        <ele>33.780000000000001</ele>
        <time>2026-06-26T13:54:55Z</time>
      </trkpt>
      <trkpt lat="52.311058966442943" lon="-7.879386032000184">
        <ele>33.299999999999997</ele>
        <time>2026-06-26T13:54:56Z</time>
      </trkpt>
      <trkpt lat="52.311026025563478" lon="-7.879396006464958">
        <ele>32.82</ele>
        <time>2026-06-26T13:54:57Z</time>
      </trkpt>
      <trkpt lat="52.310998030006886" lon="-7.879404975101352">
        <ele>32.340000000000003</ele>
        <time>2026-06-26T13:54:58Z</time>
      </trkpt>
      <trkpt lat="52.310998030006886" lon="-7.879404975101352">
        <ele>32.340000000000003</ele>
        <time>2026-06-26T13:54:59Z</time>
      </trkpt>
      <trkpt lat="52.310998030006886" lon="-7.879404975101352">
        <ele>32.82</ele>
        <time>2026-06-26T13:55:11Z</time>
      </trkpt>
      <trkpt lat="52.310998030006886" lon="-7.879404975101352">
        <ele>32.82</ele>
        <time>2026-06-26T13:55:54Z</time>
      </trkpt>
      <trkpt lat="52.310998030006886" lon="-7.879404975101352">
        <ele>32.340000000000003</ele>
        <time>2026-06-26T13:56:25Z</time>
      </trkpt>
      <trkpt lat="52.310998030006886" lon="-7.879404975101352">
        <ele>32.82</ele>
        <time>2026-06-26T13:57:13Z</time>
      </trkpt>
      <trkpt lat="52.310958970338106" lon="-7.879416961222887">
        <ele>34.259999999999998</ele>
        <time>2026-06-26T13:57:22Z</time>
      </trkpt>
      <trkpt lat="52.310933992266655" lon="-7.879425007849932">
        <ele>35.229999999999997</ele>
        <time>2026-06-26T13:57:23Z</time>
      </trkpt>
      <trkpt lat="52.31090297922492" lon="-7.879434982314706">
        <ele>35.710000000000001</ele>
        <time>2026-06-26T13:57:24Z</time>
      </trkpt>
      <trkpt lat="52.31087900698185" lon="-7.879443028941751">
        <ele>36.189999999999998</ele>
        <time>2026-06-26T13:57:25Z</time>
      </trkpt>
      <trkpt lat="52.31087900698185" lon="-7.879443028941751">
        <ele>37.149999999999999</ele>
        <time>2026-06-26T13:57:35Z</time>
      </trkpt>
      <trkpt lat="52.310756966471672" lon="-7.879480998963118">
        <ele>36.189999999999998</ele>
        <time>2026-06-26T13:57:59Z</time>
      </trkpt>
      <trkpt lat="52.310007037594914" lon="-7.879707980901003">
        <ele>33.780000000000001</ele>
        <time>2026-06-26T13:58:09Z</time>
      </trkpt>
      <trkpt lat="52.309860019013286" lon="-7.879802025854588">
        <ele>33.299999999999997</ele>
        <time>2026-06-26T13:58:11Z</time>
      </trkpt>
      <trkpt lat="52.309792041778564" lon="-7.879845025017858">
        <ele>32.82</ele>
        <time>2026-06-26T13:58:12Z</time>
      </trkpt>
      <trkpt lat="52.309739990159869" lon="-7.879917025566101">
        <ele>32.82</ele>
        <time>2026-06-26T13:58:13Z</time>
      </trkpt>
      <trkpt lat="52.309695985168219" lon="-7.879999000579119">
        <ele>32.82</ele>
        <time>2026-06-26T13:58:14Z</time>
      </trkpt>
      <trkpt lat="52.309649968519807" lon="-7.880084998905659">
        <ele>32.340000000000003</ele>
        <time>2026-06-26T13:58:15Z</time>
      </trkpt>
      <trkpt lat="52.309605041518807" lon="-7.880168985575438">
        <ele>32.340000000000003</ele>
        <time>2026-06-26T13:58:16Z</time>
      </trkpt>
      <trkpt lat="52.30959003791213" lon="-7.880289014428854">
        <ele>32.340000000000003</ele>
        <time>2026-06-26T13:58:17Z</time>
      </trkpt>
      <trkpt lat="52.309578973799944" lon="-7.880406025797129">
        <ele>31.859999999999999</ele>
        <time>2026-06-26T13:58:18Z</time>
      </trkpt>
      <trkpt lat="52.309567993506789" lon="-7.880534017458558">
        <ele>31.859999999999999</ele>
        <time>2026-06-26T13:58:19Z</time>
      </trkpt>
      <trkpt lat="52.309443019330502" lon="-7.88191401399672">
        <ele>33.299999999999997</ele>
        <time>2026-06-26T13:58:29Z</time>
      </trkpt>
      <trkpt lat="52.309318967163563" lon="-7.883291998878121">
        <ele>34.259999999999998</ele>
        <time>2026-06-26T13:58:40Z</time>
      </trkpt>
      <trkpt lat="52.309239003807306" lon="-7.88427796214819">
        <ele>34.740000000000002</ele>
        <time>2026-06-26T13:58:50Z</time>
      </trkpt>
      <trkpt lat="52.309233974665403" lon="-7.884350968524814">
        <ele>34.740000000000002</ele>
        <time>2026-06-26T13:58:51Z</time>
      </trkpt>
      <trkpt lat="52.309232968837023" lon="-7.885228972882032">
        <ele>37.630000000000003</ele>
        <time>2026-06-26T13:58:57Z</time>
      </trkpt>
      <trkpt lat="52.30926800519228" lon="-7.885407004505396">
        <ele>38.109999999999999</ele>
        <time>2026-06-26T13:58:58Z</time>
      </trkpt>
      <trkpt lat="52.309307986870408" lon="-7.885576989501715">
        <ele>39.07</ele>
        <time>2026-06-26T13:58:59Z</time>
      </trkpt>
      <trkpt lat="52.309360038489103" lon="-7.885734988376498">
        <ele>40.509999999999998</ele>
        <time>2026-06-26T13:59:00Z</time>
      </trkpt>
      <trkpt lat="52.30980503372848" lon="-7.886906024068594">
        <ele>45.32</ele>
        <time>2026-06-26T13:59:09Z</time>
      </trkpt>
      <trkpt lat="52.310093035921454" lon="-7.887603985145688">
        <ele>46.759999999999998</ele>
        <time>2026-06-26T13:59:14Z</time>
      </trkpt>
      <trkpt lat="52.310787979513407" lon="-7.889110967516899">
        <ele>52.049999999999997</ele>
        <time>2026-06-26T13:59:25Z</time>
      </trkpt>
      <trkpt lat="52.310852017253637" lon="-7.889249017462134">
        <ele>52.530000000000001</ele>
        <time>2026-06-26T13:59:26Z</time>
      </trkpt>
      <trkpt lat="52.310886969789863" lon="-7.889415984973311">
        <ele>53.009999999999998</ele>
        <time>2026-06-26T13:59:27Z</time>
      </trkpt>
      <trkpt lat="52.310913959518075" lon="-7.889594016596675">
        <ele>53.490000000000002</ele>
        <time>2026-06-26T13:59:28Z</time>
      </trkpt>
      <trkpt lat="52.310942960903049" lon="-7.889781016856432">
        <ele>53.969999999999999</ele>
        <time>2026-06-26T13:59:29Z</time>
      </trkpt>
      <trkpt lat="52.310951007530093" lon="-7.889986038208008">
        <ele>54.450000000000003</ele>
        <time>2026-06-26T13:59:30Z</time>
      </trkpt>
      <trkpt lat="52.310951007530093" lon="-7.890198016539216">
        <ele>55.409999999999997</ele>
        <time>2026-06-26T13:59:31Z</time>
      </trkpt>
      <trkpt lat="52.31079300865531" lon="-7.891981014981866">
        <ele>60.219999999999999</ele>
        <time>2026-06-26T13:59:39Z</time>
      </trkpt>
      <trkpt lat="52.310741962864995" lon="-7.892192993313074">
        <ele>60.700000000000003</ele>
        <time>2026-06-26T13:59:40Z</time>
      </trkpt>
      <trkpt lat="52.310660993680358" lon="-7.892388962209225">
        <ele>60.700000000000003</ele>
        <time>2026-06-26T13:59:41Z</time>
      </trkpt>
      <trkpt lat="52.310559991747141" lon="-7.892546961084008">
        <ele>61.18</ele>
        <time>2026-06-26T13:59:42Z</time>
      </trkpt>
      <trkpt lat="52.310459995642304" lon="-7.892702026292682">
        <ele>61.18</ele>
        <time>2026-06-26T13:59:43Z</time>
      </trkpt>
      <trkpt lat="52.309379987418652" lon="-7.893998958170414">
        <ele>59.740000000000002</ele>
        <time>2026-06-26T13:59:52Z</time>
      </trkpt>
      <trkpt lat="52.30827902443707" lon="-7.895267978310585">
        <ele>57.340000000000003</ele>
        <time>2026-06-26T14:00:00Z</time>
      </trkpt>
      <trkpt lat="52.306898022070527" lon="-7.896877974271774">
        <ele>55.890000000000001</ele>
        <time>2026-06-26T14:00:11Z</time>
      </trkpt>
      <trkpt lat="52.306198971346021" lon="-7.89772697724402">
        <ele>55.890000000000001</ele>
        <time>2026-06-26T14:00:17Z</time>
      </trkpt>
      <trkpt lat="52.306094029918313" lon="-7.897902997210622">
        <ele>55.890000000000001</ele>
        <time>2026-06-26T14:00:18Z</time>
      </trkpt>
      <trkpt lat="52.306010965257883" lon="-7.89811396971345">
        <ele>55.890000000000001</ele>
        <time>2026-06-26T14:00:19Z</time>
      </trkpt>
      <trkpt lat="52.305929996073246" lon="-7.898335000500083">
        <ele>56.369999999999997</ele>
        <time>2026-06-26T14:00:20Z</time>
      </trkpt>
      <trkpt lat="52.305878028273582" lon="-7.898586038500071">
        <ele>56.859999999999999</ele>
        <time>2026-06-26T14:00:21Z</time>
      </trkpt>
      <trkpt lat="52.305825976654887" lon="-7.898841015994549">
        <ele>57.82</ele>
        <time>2026-06-26T14:00:22Z</time>
      </trkpt>
      <trkpt lat="52.30557200498879" lon="-7.899858998134732">
        <ele>60.219999999999999</ele>
        <time>2026-06-26T14:00:26Z</time>
      </trkpt>
      <trkpt lat="52.305469997227192" lon="-7.900084974244237">
        <ele>60.700000000000003</ele>
        <time>2026-06-26T14:00:27Z</time>
      </trkpt>
      <trkpt lat="52.304671034216881" lon="-7.902062013745308">
        <ele>58.299999999999997</ele>
        <time>2026-06-26T14:00:35Z</time>
      </trkpt>
      <trkpt lat="52.303923033177853" lon="-7.904491005465388">
        <ele>59.740000000000002</ele>
        <time>2026-06-26T14:00:44Z</time>
      </trkpt>
      <trkpt lat="52.302847970277071" lon="-7.906437031924725">
        <ele>61.18</ele>
        <time>2026-06-26T14:00:53Z</time>
      </trkpt>
      <trkpt lat="52.301513990387321" lon="-7.908785976469517">
        <ele>63.100000000000001</ele>
        <time>2026-06-26T14:01:04Z</time>
      </trkpt>
      <trkpt lat="52.301370995119214" lon="-7.908970965072513">
        <ele>63.579999999999998</ele>
        <time>2026-06-26T14:01:05Z</time>
      </trkpt>
      <trkpt lat="52.301215007901192" lon="-7.90913499891758">
        <ele>63.579999999999998</ele>
        <time>2026-06-26T14:01:06Z</time>
      </trkpt>
      <trkpt lat="52.301058014854789" lon="-7.909295009449124">
        <ele>63.579999999999998</ele>
        <time>2026-06-26T14:01:07Z</time>
      </trkpt>
      <trkpt lat="52.300220998004079" lon="-7.910057008266449">
        <ele>65.510000000000005</ele>
        <time>2026-06-26T14:01:12Z</time>
      </trkpt>
      <trkpt lat="52.29992201551795" lon="-7.910449029877782">
        <ele>65.989999999999995</ele>
        <time>2026-06-26T14:01:14Z</time>
      </trkpt>
      <trkpt lat="52.299778014421463" lon="-7.910653967410326">
        <ele>65.989999999999995</ele>
        <time>2026-06-26T14:01:15Z</time>
      </trkpt>
      <trkpt lat="52.298952983692288" lon="-7.912182994186878">
        <ele>65.030000000000001</ele>
        <time>2026-06-26T14:01:22Z</time>
      </trkpt>
      <trkpt lat="52.298820968717337" lon="-7.912333030253649">
        <ele>65.030000000000001</ele>
        <time>2026-06-26T14:01:23Z</time>
      </trkpt>
      <trkpt lat="52.297404007986188" lon="-7.913985019549727">
        <ele>54.450000000000003</ele>
        <time>2026-06-26T14:01:33Z</time>
      </trkpt>
      <trkpt lat="52.295803986489773" lon="-7.915887963026762">
        <ele>58.299999999999997</ele>
        <time>2026-06-26T14:01:44Z</time>
      </trkpt>
      <trkpt lat="52.295351028442383" lon="-7.916335975751281">
        <ele>58.780000000000001</ele>
        <time>2026-06-26T14:01:47Z</time>
      </trkpt>
      <trkpt lat="52.295221025124192" lon="-7.91654602624476">
        <ele>58.299999999999997</ele>
        <time>2026-06-26T14:01:48Z</time>
      </trkpt>
      <trkpt lat="52.295098984614015" lon="-7.916768984869123">
        <ele>57.82</ele>
        <time>2026-06-26T14:01:49Z</time>
      </trkpt>
      <trkpt lat="52.294340003281832" lon="-7.918593976646662">
        <ele>58.299999999999997</ele>
        <time>2026-06-26T14:01:57Z</time>
      </trkpt>
      <trkpt lat="52.293448001146317" lon="-7.92106001637876">
        <ele>62.140000000000001</ele>
        <time>2026-06-26T14:02:07Z</time>
      </trkpt>
      <trkpt lat="52.292447034269571" lon="-7.923805005848408">
        <ele>57.82</ele>
        <time>2026-06-26T14:02:18Z</time>
      </trkpt>
      <trkpt lat="52.291216989979148" lon="-7.926343968138099">
        <ele>55.409999999999997</ele>
        <time>2026-06-26T14:02:29Z</time>
      </trkpt>
      <trkpt lat="52.29061902500689" lon="-7.927368991076946">
        <ele>58.780000000000001</ele>
        <time>2026-06-26T14:02:34Z</time>
      </trkpt>
      <trkpt lat="52.290505031123757" lon="-7.927588010206819">
        <ele>58.780000000000001</ele>
        <time>2026-06-26T14:02:35Z</time>
      </trkpt>
      <trkpt lat="52.29040696285665" lon="-7.927817003801465">
        <ele>59.259999999999998</ele>
        <time>2026-06-26T14:02:36Z</time>
      </trkpt>
      <trkpt lat="52.290324987843633" lon="-7.928049014881253">
        <ele>59.259999999999998</ele>
        <time>2026-06-26T14:02:37Z</time>
      </trkpt>
      <trkpt lat="52.290258016437292" lon="-7.928307009860873">
        <ele>58.780000000000001</ele>
        <time>2026-06-26T14:02:38Z</time>
      </trkpt>
      <trkpt lat="52.290194984525442" lon="-7.928561987355351">
        <ele>58.780000000000001</ele>
        <time>2026-06-26T14:02:39Z</time>
      </trkpt>
      <trkpt lat="52.29014796204865" lon="-7.928834985941649">
        <ele>58.780000000000001</ele>
        <time>2026-06-26T14:02:40Z</time>
      </trkpt>
      <trkpt lat="52.29010303504765" lon="-7.929098010063171">
        <ele>58.299999999999997</ele>
        <time>2026-06-26T14:02:41Z</time>
      </trkpt>
      <trkpt lat="52.28958603926003" lon="-7.931556003168225">
        <ele>54.450000000000003</ele>
        <time>2026-06-26T14:02:50Z</time>
      </trkpt>
      <trkpt lat="52.288808031007648" lon="-7.933575036004186">
        <ele>55.409999999999997</ele>
        <time>2026-06-26T14:02:58Z</time>
      </trkpt>
      <trkpt lat="52.287509003654122" lon="-7.936379034072161">
        <ele>53.969999999999999</ele>
        <time>2026-06-26T14:03:10Z</time>
      </trkpt>
      <trkpt lat="52.286807019263506" lon="-7.937683006748557">
        <ele>52.530000000000001</ele>
        <time>2026-06-26T14:03:16Z</time>
      </trkpt>
      <trkpt lat="52.286713980138302" lon="-7.937918035313487">
        <ele>52.049999999999997</ele>
        <time>2026-06-26T14:03:17Z</time>
      </trkpt>
      <trkpt lat="52.2866449970752" lon="-7.938177958130837">
        <ele>52.049999999999997</ele>
        <time>2026-06-26T14:03:18Z</time>
      </trkpt>
      <trkpt lat="52.286575008183718" lon="-7.938439976423979">
        <ele>52.049999999999997</ele>
        <time>2026-06-26T14:03:19Z</time>
      </trkpt>
      <trkpt lat="52.286505019292235" lon="-7.938701994717121">
        <ele>52.049999999999997</ele>
        <time>2026-06-26T14:03:20Z</time>
      </trkpt>
      <trkpt lat="52.286482974886894" lon="-7.938987985253334">
        <ele>52.049999999999997</ele>
        <time>2026-06-26T14:03:21Z</time>
      </trkpt>
      <trkpt lat="52.286474006250501" lon="-7.939272969961166">
        <ele>52.530000000000001</ele>
        <time>2026-06-26T14:03:22Z</time>
      </trkpt>
      <trkpt lat="52.286465037614107" lon="-7.939562983810902">
        <ele>52.530000000000001</ele>
        <time>2026-06-26T14:03:23Z</time>
      </trkpt>
      <trkpt lat="52.286455985158682" lon="-7.939856015145779">
        <ele>52.530000000000001</ele>
        <time>2026-06-26T14:03:24Z</time>
      </trkpt>
      <trkpt lat="52.286226991564035" lon="-7.942173024639487">
        <ele>51.090000000000003</ele>
        <time>2026-06-26T14:03:32Z</time>
      </trkpt>
      <trkpt lat="52.285606982186437" lon="-7.94546602293849">
        <ele>52.530000000000001</ele>
        <time>2026-06-26T14:03:44Z</time>
      </trkpt>
      <trkpt lat="52.285350998863578" lon="-7.946881977841258">
        <ele>52.049999999999997</ele>
        <time>2026-06-26T14:03:49Z</time>
      </trkpt>
      <trkpt lat="52.285318979993463" lon="-7.947468040511012">
        <ele>51.57</ele>
        <time>2026-06-26T14:03:51Z</time>
      </trkpt>
      <trkpt lat="52.285309005528688" lon="-7.950680991634727">
        <ele>45.32</ele>
        <time>2026-06-26T14:04:02Z</time>
      </trkpt>
      <trkpt lat="52.285285033285618" lon="-7.950963964685798">
        <ele>45.799999999999997</ele>
        <time>2026-06-26T14:04:03Z</time>
      </trkpt>
      <trkpt lat="52.285244967788458" lon="-7.951235035434365">
        <ele>45.799999999999997</ele>
        <time>2026-06-26T14:04:04Z</time>
      </trkpt>
      <trkpt lat="52.284944979473948" lon="-7.953157005831599">
        <ele>49.159999999999997</ele>
        <time>2026-06-26T14:04:11Z</time>
      </trkpt>
      <trkpt lat="52.284823022782803" lon="-7.953852033242583">
        <ele>48.68</ele>
        <time>2026-06-26T14:04:14Z</time>
      </trkpt>
      <trkpt lat="52.284786980599165" lon="-7.954268027096987">
        <ele>46.759999999999998</ele>
        <time>2026-06-26T14:04:18Z</time>
      </trkpt>
      <trkpt lat="52.284782035276294" lon="-7.954323012381792">
        <ele>46.280000000000001</ele>
        <time>2026-06-26T14:04:19Z</time>
      </trkpt>
      <trkpt lat="52.284715985879302" lon="-7.9543830268085">
        <ele>45.799999999999997</ele>
        <time>2026-06-26T14:04:20Z</time>
      </trkpt>
      <trkpt lat="52.284682039171457" lon="-7.954359976574779">
        <ele>45.32</ele>
        <time>2026-06-26T14:04:21Z</time>
      </trkpt>
      <trkpt lat="52.284651026129723" lon="-7.954337010160089">
        <ele>44.840000000000003</ele>
        <time>2026-06-26T14:04:22Z</time>
      </trkpt>
      <trkpt lat="52.28462697006762" lon="-7.954321000725031">
        <ele>44.359999999999999</ele>
        <time>2026-06-26T14:04:23Z</time>
      </trkpt>
      <trkpt lat="52.28462697006762" lon="-7.954321000725031">
        <ele>43.880000000000003</ele>
        <time>2026-06-26T14:04:35Z</time>
      </trkpt>
      <trkpt lat="52.28462697006762" lon="-7.954321000725031">
        <ele>42.920000000000002</ele>
        <time>2026-06-26T14:05:05Z</time>
      </trkpt>
      <trkpt lat="52.284596040844917" lon="-7.954299040138722">
        <ele>42.439999999999998</ele>
        <time>2026-06-26T14:05:41Z</time>
      </trkpt>
      <trkpt lat="52.284232014790177" lon="-7.95404196716845">
        <ele>42.920000000000002</ele>
        <time>2026-06-26T14:05:47Z</time>
      </trkpt>
      <trkpt lat="52.284126989543438" lon="-7.953967032954097">
        <ele>42.920000000000002</ele>
        <time>2026-06-26T14:05:49Z</time>
      </trkpt>
      <trkpt lat="52.284075021743774" lon="-7.953930990770459">
        <ele>42.920000000000002</ele>
        <time>2026-06-26T14:05:50Z</time>
      </trkpt>
      <trkpt lat="52.284015007317066" lon="-7.95388899743557">
        <ele>42.920000000000002</ele>
        <time>2026-06-26T14:05:51Z</time>
      </trkpt>
      <trkpt lat="52.283750977367163" lon="-7.953701997175813">
        <ele>43.399999999999999</ele>
        <time>2026-06-26T14:05:54Z</time>
      </trkpt>
      <trkpt lat="52.28363698348403" lon="-7.953633014112711">
        <ele>43.399999999999999</ele>
        <time>2026-06-26T14:05:55Z</time>
      </trkpt>
      <trkpt lat="52.283515026792884" lon="-7.953579034656286">
        <ele>43.880000000000003</ele>
        <time>2026-06-26T14:05:56Z</time>
      </trkpt>
      <trkpt lat="52.282495032995939" lon="-7.953192964196205">
        <ele>45.32</ele>
        <time>2026-06-26T14:06:03Z</time>
      </trkpt>
      <trkpt lat="52.281504040583968" lon="-7.95311501249671">
        <ele>44.840000000000003</ele>
        <time>2026-06-26T14:06:09Z</time>
      </trkpt>
      <trkpt lat="52.280276007950306" lon="-7.953066984191537">
        <ele>41.950000000000003</ele>
        <time>2026-06-26T14:06:18Z</time>
      </trkpt>
      <trkpt lat="52.280172994360328" lon="-7.953058015555143">
        <ele>42.439999999999998</ele>
        <time>2026-06-26T14:06:19Z</time>
      </trkpt>
      <trkpt lat="52.280072998255491" lon="-7.953048041090369">
        <ele>43.399999999999999</ele>
        <time>2026-06-26T14:06:20Z</time>
      </trkpt>
      <trkpt lat="52.279963027685881" lon="-7.953033959493041">
        <ele>43.399999999999999</ele>
        <time>2026-06-26T14:06:21Z</time>
      </trkpt>
      <trkpt lat="52.279839981347322" lon="-7.953020967543125">
        <ele>42.920000000000002</ele>
        <time>2026-06-26T14:06:22Z</time>
      </trkpt>
      <trkpt lat="52.2797030210495" lon="-7.95300898142159">
        <ele>43.399999999999999</ele>
        <time>2026-06-26T14:06:23Z</time>
      </trkpt>
      <trkpt lat="52.27957402355969" lon="-7.952996995300055">
        <ele>43.399999999999999</ele>
        <time>2026-06-26T14:06:24Z</time>
      </trkpt>
      <trkpt lat="52.279451983049512" lon="-7.9529860150069">
        <ele>43.399999999999999</ele>
        <time>2026-06-26T14:06:25Z</time>
      </trkpt>
      <trkpt lat="52.279377970844507" lon="-7.953036976978183">
        <ele>43.399999999999999</ele>
        <time>2026-06-26T14:06:26Z</time>
      </trkpt>
      <trkpt lat="52.279257019981742" lon="-7.953122975304723">
        <ele>43.399999999999999</ele>
        <time>2026-06-26T14:06:27Z</time>
      </trkpt>
      <trkpt lat="52.279131961986423" lon="-7.953210985288024">
        <ele>42.920000000000002</ele>
        <time>2026-06-26T14:06:28Z</time>
      </trkpt>
      <trkpt lat="52.279028026387095" lon="-7.953325984999538">
        <ele>42.920000000000002</ele>
        <time>2026-06-26T14:06:29Z</time>
      </trkpt>
      <trkpt lat="52.278917971998453" lon="-7.95348197221756">
        <ele>42.920000000000002</ele>
        <time>2026-06-26T14:06:30Z</time>
      </trkpt>
      <trkpt lat="52.278809007257223" lon="-7.953649023547769">
        <ele>42.920000000000002</ele>
        <time>2026-06-26T14:06:31Z</time>
      </trkpt>
      <trkpt lat="52.277818014845252" lon="-7.956182034686208">
        <ele>46.759999999999998</ele>
        <time>2026-06-26T14:06:42Z</time>
      </trkpt>
      <trkpt lat="52.277379976585507" lon="-7.95704796910286">
        <ele>48.68</ele>
        <time>2026-06-26T14:06:47Z</time>
      </trkpt>
      <trkpt lat="52.277301019057631" lon="-7.957165986299515">
        <ele>49.159999999999997</ele>
        <time>2026-06-26T14:06:48Z</time>
      </trkpt>
      <trkpt lat="52.277198005467653" lon="-7.957319961860776">
        <ele>49.649999999999999</ele>
        <time>2026-06-26T14:06:49Z</time>
      </trkpt>
      <trkpt lat="52.277093986049294" lon="-7.957356004044414">
        <ele>50.130000000000003</ele>
        <time>2026-06-26T14:06:50Z</time>
      </trkpt>
      <trkpt lat="52.276973035186529" lon="-7.957396991550922">
        <ele>50.609999999999999</ele>
        <time>2026-06-26T14:06:51Z</time>
      </trkpt>
      <trkpt lat="52.276716968044639" lon="-7.957485001534224">
        <ele>50.609999999999999</ele>
        <time>2026-06-26T14:06:53Z</time>
      </trkpt>
      <trkpt lat="52.276582019403577" lon="-7.957532024011016">
        <ele>50.609999999999999</ele>
        <time>2026-06-26T14:06:54Z</time>
      </trkpt>
      <trkpt lat="52.27521400898695" lon="-7.957379976287484">
        <ele>52.530000000000001</ele>
        <time>2026-06-26T14:07:03Z</time>
      </trkpt>
      <trkpt lat="52.274880995973945" lon="-7.957299007102847">
        <ele>53.009999999999998</ele>
        <time>2026-06-26T14:07:05Z</time>
      </trkpt>
      <trkpt lat="52.274740012362599" lon="-7.957201022654772">
        <ele>53.490000000000002</ele>
        <time>2026-06-26T14:07:06Z</time>
      </trkpt>
      <trkpt lat="52.274593999609351" lon="-7.957101026549935">
        <ele>53.969999999999999</ele>
        <time>2026-06-26T14:07:07Z</time>
      </trkpt>
      <trkpt lat="52.273392034694552" lon="-7.956537008285523">
        <ele>55.409999999999997</ele>
        <time>2026-06-26T14:07:15Z</time>
      </trkpt>
      <trkpt lat="52.272031987085938" lon="-7.956226039677858">
        <ele>58.299999999999997</ele>
        <time>2026-06-26T14:07:24Z</time>
      </trkpt>
      <trkpt lat="52.271897038444877" lon="-7.956198966130614">
        <ele>58.780000000000001</ele>
        <time>2026-06-26T14:07:25Z</time>
      </trkpt>
      <trkpt lat="52.27153804153204" lon="-7.956125037744641">
        <ele>59.740000000000002</ele>
        <time>2026-06-26T14:07:28Z</time>
      </trkpt>
      <trkpt lat="52.271436033770442" lon="-7.956103999167681">
        <ele>60.219999999999999</ele>
        <time>2026-06-26T14:07:29Z</time>
      </trkpt>
      <trkpt lat="52.271341988816857" lon="-7.956109028309584">
        <ele>60.219999999999999</ele>
        <time>2026-06-26T14:07:30Z</time>
      </trkpt>
      <trkpt lat="52.271247021853924" lon="-7.95612595975399">
        <ele>60.219999999999999</ele>
        <time>2026-06-26T14:07:31Z</time>
      </trkpt>
      <trkpt lat="52.271166974678636" lon="-7.956140963360667">
        <ele>60.219999999999999</ele>
        <time>2026-06-26T14:07:32Z</time>
      </trkpt>
      <trkpt lat="52.270911997184157" lon="-7.95618798583746">
        <ele>60.219999999999999</ele>
        <time>2026-06-26T14:07:39Z</time>
      </trkpt>
      <trkpt lat="52.270748969167471" lon="-7.95623199082911">
        <ele>61.18</ele>
        <time>2026-06-26T14:07:46Z</time>
      </trkpt>
      <trkpt lat="52.270672023296356" lon="-7.956259986385703">
        <ele>61.18</ele>
        <time>2026-06-26T14:07:47Z</time>
      </trkpt>
      <trkpt lat="52.269820002838969" lon="-7.956571960821748">
        <ele>64.549999999999997</ele>
        <time>2026-06-26T14:07:54Z</time>
      </trkpt>
      <trkpt lat="52.268556011840701" lon="-7.957287020981312">
        <ele>68.870000000000005</ele>
        <time>2026-06-26T14:08:02Z</time>
      </trkpt>
      <trkpt lat="52.267247010022402" lon="-7.958319000899792">
        <ele>77.519999999999996</ele>
        <time>2026-06-26T14:08:12Z</time>
      </trkpt>
      <trkpt lat="52.265746984630823" lon="-7.959404960274696">
        <ele>85.209999999999994</ele>
        <time>2026-06-26T14:08:22Z</time>
      </trkpt>
      <trkpt lat="52.265315987169743" lon="-7.959752976894379">
        <ele>87.620000000000005</ele>
        <time>2026-06-26T14:08:25Z</time>
      </trkpt>
      <trkpt lat="52.264892030507326" lon="-7.960094958543778">
        <ele>90.019999999999996</ele>
        <time>2026-06-26T14:08:28Z</time>
      </trkpt>
      <trkpt lat="52.264748029410839" lon="-7.960211969912052">
        <ele>90.980000000000004</ele>
        <time>2026-06-26T14:08:29Z</time>
      </trkpt>
      <trkpt lat="52.263518990948796" lon="-7.961034988984466">
        <ele>98.670000000000002</ele>
        <time>2026-06-26T14:08:38Z</time>
      </trkpt>
      <trkpt lat="52.263383036479354" lon="-7.961097015067935">
        <ele>100.11</ele>
        <time>2026-06-26T14:08:39Z</time>
      </trkpt>
      <trkpt lat="52.262118039652705" lon="-7.9616669844836">
        <ele>110.20999999999999</ele>
        <time>2026-06-26T14:08:48Z</time>
      </trkpt>
      <trkpt lat="52.261202987283468" lon="-7.962080966681242">
        <ele>116.45999999999999</ele>
        <time>2026-06-26T14:08:55Z</time>
      </trkpt>
      <trkpt lat="52.260340992361307" lon="-7.962314989417791">
        <ele>122.22</ele>
        <time>2026-06-26T14:09:01Z</time>
      </trkpt>
      <trkpt lat="52.258868040516973" lon="-7.962076021358371">
        <ele>128.94999999999999</ele>
        <time>2026-06-26T14:09:11Z</time>
      </trkpt>
      <trkpt lat="52.258161026984453" lon="-7.961887009441853">
        <ele>133.75999999999999</ele>
        <time>2026-06-26T14:09:16Z</time>
      </trkpt>
      <trkpt lat="52.258015014231205" lon="-7.961848033592105">
        <ele>134.72</ele>
        <time>2026-06-26T14:09:17Z</time>
      </trkpt>
      <trkpt lat="52.256452040746808" lon="-7.961707971990109">
        <ele>147.22</ele>
        <time>2026-06-26T14:09:28Z</time>
      </trkpt>
      <trkpt lat="52.255292991176248" lon="-7.961083017289639">
        <ele>159.24000000000001</ele>
        <time>2026-06-26T14:09:36Z</time>
      </trkpt>
      <trkpt lat="52.254732996225357" lon="-7.960667023435235">
        <ele>167.41</ele>
        <time>2026-06-26T14:09:42Z</time>
      </trkpt>
      <trkpt lat="52.254601987078786" lon="-7.960524028167129">
        <ele>172.21000000000001</ele>
        <time>2026-06-26T14:09:49Z</time>
      </trkpt>
      <trkpt lat="52.254518000409007" lon="-7.960431994870305">
        <ele>177.5</ele>
        <time>2026-06-26T14:09:57Z</time>
      </trkpt>
      <trkpt lat="52.254500985145569" lon="-7.960345996543765">
        <ele>177.97999999999999</ele>
        <time>2026-06-26T14:10:00Z</time>
      </trkpt>
      <trkpt lat="52.25448296405375" lon="-7.960256980732083">
        <ele>178.46000000000001</ele>
        <time>2026-06-26T14:10:01Z</time>
      </trkpt>
      <trkpt lat="52.254475001245737" lon="-7.960216999053955">
        <ele>178.94</ele>
        <time>2026-06-26T14:10:02Z</time>
      </trkpt>
      <trkpt lat="52.254516994580626" lon="-7.9600989818573">
        <ele>179.41999999999999</ele>
        <time>2026-06-26T14:10:03Z</time>
      </trkpt>
      <trkpt lat="52.254565022885799" lon="-7.959963027387857">
        <ele>179.41999999999999</ele>
        <time>2026-06-26T14:10:04Z</time>
      </trkpt>
      <trkpt lat="52.254616990685463" lon="-7.959820032119751">
        <ele>179.41999999999999</ele>
        <time>2026-06-26T14:10:05Z</time>
      </trkpt>
      <trkpt lat="52.254688991233706" lon="-7.959616016596556">
        <ele>179.90000000000001</ele>
        <time>2026-06-26T14:10:06Z</time>
      </trkpt>
      <trkpt lat="52.254730984568596" lon="-7.95960302464664">
        <ele>180.38</ele>
        <time>2026-06-26T14:10:07Z</time>
      </trkpt>
      <trkpt lat="52.254857970401645" lon="-7.95956002548337">
        <ele>180.87</ele>
        <time>2026-06-26T14:10:08Z</time>
      </trkpt>
      <trkpt lat="52.255011023953557" lon="-7.959508979693055">
        <ele>181.34999999999999</ele>
        <time>2026-06-26T14:10:09Z</time>
      </trkpt>
      <trkpt lat="52.255163993686438" lon="-7.95949699357152">
        <ele>181.83000000000001</ele>
        <time>2026-06-26T14:10:10Z</time>
      </trkpt>
      <trkpt lat="52.255328027531505" lon="-7.959484001621604">
        <ele>182.31</ele>
        <time>2026-06-26T14:10:11Z</time>
      </trkpt>
      <trkpt lat="52.255489965900779" lon="-7.959472015500069">
        <ele>182.31</ele>
        <time>2026-06-26T14:10:12Z</time>
      </trkpt>
      <trkpt lat="52.257222002372146" lon="-7.959444019943476">
        <ele>185.19</ele>
        <time>2026-06-26T14:10:22Z</time>
      </trkpt>
      <trkpt lat="52.258083997294307" lon="-7.959250984713435">
        <ele>188.56</ele>
        <time>2026-06-26T14:10:27Z</time>
      </trkpt>
      <trkpt lat="52.258225986734033" lon="-7.959160041064024">
        <ele>189.03999999999999</ele>
        <time>2026-06-26T14:10:28Z</time>
      </trkpt>
      <trkpt lat="52.258344003930688" lon="-7.959058033302426">
        <ele>189.03999999999999</ele>
        <time>2026-06-26T14:10:29Z</time>
      </trkpt>
      <trkpt lat="52.258445005863905" lon="-7.958899028599262">
        <ele>189.03999999999999</ele>
        <time>2026-06-26T14:10:30Z</time>
      </trkpt>
      <trkpt lat="52.258551036939025" lon="-7.958732983097434">
        <ele>189.03999999999999</ele>
        <time>2026-06-26T14:10:31Z</time>
      </trkpt>
      <trkpt lat="52.258660001680255" lon="-7.958562998101115">
        <ele>189.03999999999999</ele>
        <time>2026-06-26T14:10:32Z</time>
      </trkpt>
      <trkpt lat="52.258724961429834" lon="-7.958351019769907">
        <ele>189.03999999999999</ele>
        <time>2026-06-26T14:10:33Z</time>
      </trkpt>
      <trkpt lat="52.258791010826826" lon="-7.958135018125176">
        <ele>189.52000000000001</ele>
        <time>2026-06-26T14:10:34Z</time>
      </trkpt>
      <trkpt lat="52.258922019973397" lon="-7.957669990137219">
        <ele>190.47999999999999</ele>
        <time>2026-06-26T14:10:36Z</time>
      </trkpt>
      <trkpt lat="52.258944986388087" lon="-7.957405960187316">
        <ele>191.44</ele>
        <time>2026-06-26T14:10:37Z</time>
      </trkpt>
      <trkpt lat="52.258968958631158" lon="-7.95713103376329">
        <ele>191.91999999999999</ele>
        <time>2026-06-26T14:10:38Z</time>
      </trkpt>
      <trkpt lat="52.259173979982734" lon="-7.954819975420833">
        <ele>198.65000000000001</ele>
        <time>2026-06-26T14:10:46Z</time>
      </trkpt>
      <trkpt lat="52.259173979982734" lon="-7.952833967283368">
        <ele>202.49000000000001</ele>
        <time>2026-06-26T14:10:53Z</time>
      </trkpt>
      <trkpt lat="52.259103991091251" lon="-7.9514180123806">
        <ele>206.34</ele>
        <time>2026-06-26T14:10:58Z</time>
      </trkpt>
      <trkpt lat="52.258996032178402" lon="-7.950607985258102">
        <ele>208.25999999999999</ele>
        <time>2026-06-26T14:11:01Z</time>
      </trkpt>
      <trkpt lat="52.258938029408455" lon="-7.948372028768063">
        <ele>214.99000000000001</ele>
        <time>2026-06-26T14:11:09Z</time>
      </trkpt>
      <trkpt lat="52.258988991379738" lon="-7.947864001616836">
        <ele>215.94999999999999</ele>
        <time>2026-06-26T14:11:11Z</time>
      </trkpt>
      <trkpt lat="52.25901598110795" lon="-7.947589997202158">
        <ele>216.43000000000001</ele>
        <time>2026-06-26T14:11:12Z</time>
      </trkpt>
      <trkpt lat="52.259026961401105" lon="-7.947299983352423">
        <ele>216.91</ele>
        <time>2026-06-26T14:11:13Z</time>
      </trkpt>
      <trkpt lat="52.259045988321304" lon="-7.945847986266017">
        <ele>219.80000000000001</ele>
        <time>2026-06-26T14:11:18Z</time>
      </trkpt>
      <trkpt lat="52.259044982492924" lon="-7.94290903955698">
        <ele>223.16</ele>
        <time>2026-06-26T14:11:28Z</time>
      </trkpt>
      <trkpt lat="52.259026961401105" lon="-7.941744960844517">
        <ele>225.56999999999999</ele>
        <time>2026-06-26T14:11:32Z</time>
      </trkpt>
      <trkpt lat="52.259021010249853" lon="-7.941451007500291">
        <ele>226.53</ele>
        <time>2026-06-26T14:11:33Z</time>
      </trkpt>
      <trkpt lat="52.258924031630158" lon="-7.939716959372163">
        <ele>230.84999999999999</ele>
        <time>2026-06-26T14:11:40Z</time>
      </trkpt>
      <trkpt lat="52.258852031081915" lon="-7.938930988311768">
        <ele>233.25999999999999</ele>
        <time>2026-06-26T14:11:44Z</time>
      </trkpt>
      <trkpt lat="52.258830992504954" lon="-7.938716998323798">
        <ele>233.74000000000001</ele>
        <time>2026-06-26T14:11:45Z</time>
      </trkpt>
      <trkpt lat="52.258834009990096" lon="-7.938522035256028">
        <ele>234.22</ele>
        <time>2026-06-26T14:11:46Z</time>
      </trkpt>
      <trkpt lat="52.258838033303618" lon="-7.937352005392313">
        <ele>238.06</ele>
        <time>2026-06-26T14:11:53Z</time>
      </trkpt>
      <trkpt lat="52.258830992504954" lon="-7.93730003759265">
        <ele>238.06</ele>
        <time>2026-06-26T14:11:54Z</time>
      </trkpt>
      <trkpt lat="52.2588009852916" lon="-7.937294002622366">
        <ele>238.53999999999999</ele>
        <time>2026-06-26T14:11:55Z</time>
      </trkpt>
      <trkpt lat="52.258758991956711" lon="-7.937286039814353">
        <ele>238.53999999999999</ele>
        <time>2026-06-26T14:11:56Z</time>
      </trkpt>
      <trkpt lat="52.258723033592105" lon="-7.937278999015689">
        <ele>239.02000000000001</ele>
        <time>2026-06-26T14:11:57Z</time>
      </trkpt>
      <trkpt lat="52.258723033592105" lon="-7.937278999015689">
        <ele>239.50999999999999</ele>
        <time>2026-06-26T14:11:58Z</time>
      </trkpt>
      <trkpt lat="52.258710041642189" lon="-7.937372960150242">
        <ele>239.50999999999999</ele>
        <time>2026-06-26T14:11:59Z</time>
      </trkpt>
      <trkpt lat="52.258701995015144" lon="-7.937485026195645">
        <ele>239.99000000000001</ele>
        <time>2026-06-26T14:12:00Z</time>
      </trkpt>
      <trkpt lat="52.258701995015144" lon="-7.937636990100145">
        <ele>239.99000000000001</ele>
        <time>2026-06-26T14:12:01Z</time>
      </trkpt>
      <trkpt lat="52.258650027215481" lon="-7.939287973567843">
        <ele>243.83000000000001</ele>
        <time>2026-06-26T14:12:09Z</time>
      </trkpt>
      <trkpt lat="52.258422961458564" lon="-7.941867001354694">
        <ele>250.56</ele>
        <time>2026-06-26T14:12:19Z</time>
      </trkpt>
      <trkpt lat="52.257944019511342" lon="-7.944660019129515">
        <ele>258.25</ele>
        <time>2026-06-26T14:12:29Z</time>
      </trkpt>
      <trkpt lat="52.257664985954762" lon="-7.946796985343099">
        <ele>263.54000000000002</ele>
        <time>2026-06-26T14:12:37Z</time>
      </trkpt>
      <trkpt lat="52.25703801959753" lon="-7.950223004445434">
        <ele>272.19</ele>
        <time>2026-06-26T14:12:49Z</time>
      </trkpt>
      <trkpt lat="52.256812965497375" lon="-7.951728980988264">
        <ele>277</ele>
        <time>2026-06-26T14:12:54Z</time>
      </trkpt>
      <trkpt lat="52.256806008517742" lon="-7.952027041465044">
        <ele>277.95999999999998</ele>
        <time>2026-06-26T14:12:55Z</time>
      </trkpt>
      <trkpt lat="52.256636023521423" lon="-7.954525016248226">
        <ele>284.69</ele>
        <time>2026-06-26T14:13:04Z</time>
      </trkpt>
      <trkpt lat="52.256590006873012" lon="-7.954725008457899">
        <ele>285.64999999999998</ele>
        <time>2026-06-26T14:13:05Z</time>
      </trkpt>
      <trkpt lat="52.256530998274684" lon="-7.954915026202798">
        <ele>286.13</ele>
        <time>2026-06-26T14:13:06Z</time>
      </trkpt>
      <trkpt lat="52.25643603131175" lon="-7.955065984278917">
        <ele>286.61000000000001</ele>
        <time>2026-06-26T14:13:07Z</time>
      </trkpt>
      <trkpt lat="52.256341986358166" lon="-7.955216020345688">
        <ele>287.08999999999997</ele>
        <time>2026-06-26T14:13:08Z</time>
      </trkpt>
      <trkpt lat="52.25622002966702" lon="-7.955274023115635">
        <ele>287.56999999999999</ele>
        <time>2026-06-26T14:13:09Z</time>
      </trkpt>
      <trkpt lat="52.256097989156842" lon="-7.955330014228821">
        <ele>288.05000000000001</ele>
        <time>2026-06-26T14:13:10Z</time>
      </trkpt>
      <trkpt lat="52.255967985838652" lon="-7.95535197481513">
        <ele>288.52999999999997</ele>
        <time>2026-06-26T14:13:11Z</time>
      </trkpt>
      <trkpt lat="52.255838988348842" lon="-7.955359015613794">
        <ele>288.52999999999997</ele>
        <time>2026-06-26T14:13:12Z</time>
      </trkpt>
      <trkpt lat="52.254746994003654" lon="-7.955223983153701">
        <ele>290.45999999999998</ele>
        <time>2026-06-26T14:13:19Z</time>
      </trkpt>
      <trkpt lat="52.252824017778039" lon="-7.954983003437519">
        <ele>296.22000000000003</ele>
        <time>2026-06-26T14:13:29Z</time>
      </trkpt>
      <trkpt lat="52.251549968495965" lon="-7.954979985952377">
        <ele>301.50999999999999</ele>
        <time>2026-06-26T14:13:36Z</time>
      </trkpt>
      <trkpt lat="52.250181036069989" lon="-7.954884013161063">
        <ele>306.80000000000001</ele>
        <time>2026-06-26T14:13:45Z</time>
      </trkpt>
      <trkpt lat="52.248848984017968" lon="-7.954612020403147">
        <ele>312.56999999999999</ele>
        <time>2026-06-26T14:13:54Z</time>
      </trkpt>
      <trkpt lat="52.246819976717234" lon="-7.95404096134007">
        <ele>321.22000000000003</ele>
        <time>2026-06-26T14:14:06Z</time>
      </trkpt>
      <trkpt lat="52.245061034336686" lon="-7.953885979950428">
        <ele>326.5</ele>
        <time>2026-06-26T14:14:16Z</time>
      </trkpt>
      <trkpt lat="52.244385033845901" lon="-7.953967032954097">
        <ele>328.43000000000001</ele>
        <time>2026-06-26T14:14:20Z</time>
      </trkpt>
      <trkpt lat="52.244221000000834" lon="-7.954056970775127">
        <ele>328.91000000000003</ele>
        <time>2026-06-26T14:14:21Z</time>
      </trkpt>
      <trkpt lat="52.244055038318038" lon="-7.95414799824357">
        <ele>329.38999999999999</ele>
        <time>2026-06-26T14:14:22Z</time>
      </trkpt>
      <trkpt lat="52.243613982573152" lon="-7.954593999311328">
        <ele>330.82999999999998</ele>
        <time>2026-06-26T14:14:25Z</time>
      </trkpt>
      <trkpt lat="52.243471993133426" lon="-7.95474898070097">
        <ele>331.31</ele>
        <time>2026-06-26T14:14:26Z</time>
      </trkpt>
      <trkpt lat="52.243227995932102" lon="-7.955018039792776">
        <ele>333.23000000000002</ele>
        <time>2026-06-26T14:14:28Z</time>
      </trkpt>
      <trkpt lat="52.243124982342124" lon="-7.955122981220484">
        <ele>333.70999999999998</ele>
        <time>2026-06-26T14:14:29Z</time>
      </trkpt>
      <trkpt lat="52.243016017600894" lon="-7.955194981768727">
        <ele>334.68000000000001</ele>
        <time>2026-06-26T14:14:30Z</time>
      </trkpt>
      <trkpt lat="52.242223005741835" lon="-7.95567199587822">
        <ele>338.04000000000002</ele>
        <time>2026-06-26T14:14:39Z</time>
      </trkpt>
      <trkpt lat="52.242125021293759" lon="-7.955723041668534">
        <ele>338.04000000000002</ele>
        <time>2026-06-26T14:14:42Z</time>
      </trkpt>
      <trkpt lat="52.242110017687082" lon="-7.955729998648167">
        <ele>338.04000000000002</ele>
        <time>2026-06-26T14:14:43Z</time>
      </trkpt>
      <trkpt lat="52.242140024900436" lon="-7.956010960042477">
        <ele>339</ele>
        <time>2026-06-26T14:14:47Z</time>
      </trkpt>
      <trkpt lat="52.242232980206609" lon="-7.956167031079531">
        <ele>339.48000000000002</ele>
        <time>2026-06-26T14:14:51Z</time>
      </trkpt>
      <trkpt lat="52.24229802377522" lon="-7.956173988059163">
        <ele>339.48000000000002</ele>
        <time>2026-06-26T14:14:53Z</time>
      </trkpt>
      <trkpt lat="52.242348985746503" lon="-7.956255041062832">
        <ele>339</ele>
        <time>2026-06-26T14:15:03Z</time>
      </trkpt>
      <trkpt lat="52.242333982139826" lon="-7.956269038841128">
        <ele>338.04000000000002</ele>
        <time>2026-06-26T14:15:22Z</time>
      </trkpt>
      <trkpt lat="52.242336999624968" lon="-7.95623199082911">
        <ele>336.60000000000002</ele>
        <time>2026-06-26T14:15:45Z</time>
      </trkpt>
      <trkpt lat="52.242339011281729" lon="-7.956228973343968">
        <ele>336.60000000000002</ele>
        <time>2026-06-26T14:16:21Z</time>
      </trkpt>
      <trkpt lat="52.242339011281729" lon="-7.956223022192717">
        <ele>336.60000000000002</ele>
        <time>2026-06-26T14:17:06Z</time>
      </trkpt>
      <trkpt lat="52.24234102293849" lon="-7.956213969737291">
        <ele>337.07999999999998</ele>
        <time>2026-06-26T14:17:58Z</time>
      </trkpt>
      <trkpt lat="52.24234202876687" lon="-7.956212963908911">
        <ele>336.60000000000002</ele>
        <time>2026-06-26T14:18:47Z</time>
      </trkpt>
      <trkpt lat="52.242339011281729" lon="-7.956205001100898">
        <ele>336.12</ele>
        <time>2026-06-26T14:19:32Z</time>
      </trkpt>
      <trkpt lat="52.24234102293849" lon="-7.956202989444137">
        <ele>336.12</ele>
        <time>2026-06-26T14:20:10Z</time>
      </trkpt>
      <trkpt lat="52.24234102293849" lon="-7.956202989444137">
        <ele>336.12</ele>
        <time>2026-06-26T14:20:49Z</time>
      </trkpt>
      <trkpt lat="52.242340017110109" lon="-7.956202989444137">
        <ele>335.63999999999999</ele>
        <time>2026-06-26T14:21:29Z</time>
      </trkpt>
      <trkpt lat="52.242335993796587" lon="-7.956202989444137">
        <ele>334.68000000000001</ele>
        <time>2026-06-26T14:22:11Z</time>
      </trkpt>
      <trkpt lat="52.242335993796587" lon="-7.956202989444137">
        <ele>334.68000000000001</ele>
        <time>2026-06-26T14:22:49Z</time>
      </trkpt>
      <trkpt lat="52.242336999624968" lon="-7.956200977787376">
        <ele>335.16000000000003</ele>
        <time>2026-06-26T14:23:28Z</time>
      </trkpt>
      <trkpt lat="52.242332976311445" lon="-7.956198966130614">
        <ele>334.68000000000001</ele>
        <time>2026-06-26T14:23:56Z</time>
      </trkpt>
      <trkpt lat="52.242168020457029" lon="-7.956160996109247">
        <ele>335.16000000000003</ele>
        <time>2026-06-26T14:24:00Z</time>
      </trkpt>
      <trkpt lat="52.242058971896768" lon="-7.956114979460836">
        <ele>336.12</ele>
        <time>2026-06-26T14:24:02Z</time>
      </trkpt>
      <trkpt lat="52.241765018552542" lon="-7.955872993916273">
        <ele>338.51999999999998</ele>
        <time>2026-06-26T14:24:09Z</time>
      </trkpt>
      <trkpt lat="52.240978041663766" lon="-7.955510979518294">
        <ele>339.48000000000002</ele>
        <time>2026-06-26T14:24:17Z</time>
      </trkpt>
      <trkpt lat="52.23946301266551" lon="-7.954673040658236">
        <ele>336.60000000000002</ele>
        <time>2026-06-26T14:24:28Z</time>
      </trkpt>
      <trkpt lat="52.237710021436214" lon="-7.953468980267644">
        <ele>328.43000000000001</ele>
        <time>2026-06-26T14:24:39Z</time>
      </trkpt>
      <trkpt lat="52.236618027091026" lon="-7.952515035867691">
        <ele>320.74000000000001</ele>
        <time>2026-06-26T14:24:46Z</time>
      </trkpt>
      <trkpt lat="52.234981041401625" lon="-7.951359003782272">
        <ele>310.63999999999999</ele>
        <time>2026-06-26T14:24:57Z</time>
      </trkpt>
      <trkpt lat="52.23364002071321" lon="-7.949924021959305">
        <ele>307.75999999999999</ele>
        <time>2026-06-26T14:25:07Z</time>
      </trkpt>
      <trkpt lat="52.232242003083229" lon="-7.949106032028794">
        <ele>301.50999999999999</ele>
        <time>2026-06-26T14:25:15Z</time>
      </trkpt>
      <trkpt lat="52.23119099624455" lon="-7.948590964078903">
        <ele>298.63</ele>
        <time>2026-06-26T14:25:23Z</time>
      </trkpt>
      <trkpt lat="52.22992499358952" lon="-7.948074974119663">
        <ele>295.25999999999999</ele>
        <time>2026-06-26T14:25:31Z</time>
      </trkpt>
      <trkpt lat="52.227540006861091" lon="-7.947006030008197">
        <ele>289.49000000000001</ele>
        <time>2026-06-26T14:25:43Z</time>
      </trkpt>
      <trkpt lat="52.224698960781097" lon="-7.945722006261349">
        <ele>281.80000000000001</ele>
        <time>2026-06-26T14:25:58Z</time>
      </trkpt>
      <trkpt lat="52.22328401170671" lon="-7.944905022159219">
        <ele>277.95999999999998</ele>
        <time>2026-06-26T14:26:06Z</time>
      </trkpt>
      <trkpt lat="52.223142022266984" lon="-7.94477803632617">
        <ele>277.48000000000002</ele>
        <time>2026-06-26T14:26:07Z</time>
      </trkpt>
      <trkpt lat="52.223028028383851" lon="-7.944607967510819">
        <ele>277</ele>
        <time>2026-06-26T14:26:08Z</time>
      </trkpt>
      <trkpt lat="52.222929038107395" lon="-7.94439397752285">
        <ele>276.51999999999998</ele>
        <time>2026-06-26T14:26:09Z</time>
      </trkpt>
      <trkpt lat="52.222828036174178" lon="-7.944174036383629">
        <ele>276.04000000000002</ele>
        <time>2026-06-26T14:26:10Z</time>
      </trkpt>
      <trkpt lat="52.222748994827271" lon="-7.943922998383641">
        <ele>275.56</ele>
        <time>2026-06-26T14:26:11Z</time>
      </trkpt>
      <trkpt lat="52.222307017073035" lon="-7.942148968577385">
        <ele>273.14999999999998</ele>
        <time>2026-06-26T14:26:18Z</time>
      </trkpt>
      <trkpt lat="52.222267035394907" lon="-7.941957022994757">
        <ele>272.67000000000002</ele>
        <time>2026-06-26T14:26:19Z</time>
      </trkpt>
      <trkpt lat="52.222183970734477" lon="-7.941805981099606">
        <ele>271.70999999999998</ele>
        <time>2026-06-26T14:26:20Z</time>
      </trkpt>
      <trkpt lat="52.222115993499756" lon="-7.941683018580079">
        <ele>271.70999999999998</ele>
        <time>2026-06-26T14:26:21Z</time>
      </trkpt>
      <trkpt lat="52.222055979073048" lon="-7.941572964191437">
        <ele>271.23000000000002</ele>
        <time>2026-06-26T14:26:22Z</time>
      </trkpt>
      <trkpt lat="52.221975009888411" lon="-7.941527031362057">
        <ele>270.75</ele>
        <time>2026-06-26T14:26:23Z</time>
      </trkpt>
      <trkpt lat="52.221876019611955" lon="-7.941527031362057">
        <ele>270.75</ele>
        <time>2026-06-26T14:26:24Z</time>
      </trkpt>
      <trkpt lat="52.221764959394932" lon="-7.941527031362057">
        <ele>270.26999999999998</ele>
        <time>2026-06-26T14:26:25Z</time>
      </trkpt>
      <trkpt lat="52.221643002703786" lon="-7.941527031362057">
        <ele>269.79000000000002</ele>
        <time>2026-06-26T14:26:26Z</time>
      </trkpt>
      <trkpt lat="52.22047096118331" lon="-7.941400967538357">
        <ele>266.42000000000002</ele>
        <time>2026-06-26T14:26:34Z</time>
      </trkpt>
      <trkpt lat="52.219133963808417" lon="-7.940662018954754">
        <ele>259.69</ele>
        <time>2026-06-26T14:26:42Z</time>
      </trkpt>
      <trkpt lat="52.217766959220171" lon="-7.939287973567843">
        <ele>252.96000000000001</ele>
        <time>2026-06-26T14:26:51Z</time>
      </trkpt>
      <trkpt lat="52.215974992141128" lon="-7.937377989292145">
        <ele>245.27000000000001</ele>
        <time>2026-06-26T14:27:03Z</time>
      </trkpt>
      <trkpt lat="52.215145016089082" lon="-7.935965973883867">
        <ele>240.47</ele>
        <time>2026-06-26T14:27:10Z</time>
      </trkpt>
      <trkpt lat="52.214280003681779" lon="-7.934254975989461">
        <ele>235.66</ele>
        <time>2026-06-26T14:27:18Z</time>
      </trkpt>
      <trkpt lat="52.212803028523922" lon="-7.931895973160863">
        <ele>226.53</ele>
        <time>2026-06-26T14:27:30Z</time>
      </trkpt>
      <trkpt lat="52.211493020877242" lon="-7.930432995781303">
        <ele>219.31999999999999</ele>
        <time>2026-06-26T14:27:39Z</time>
      </trkpt>
      <trkpt lat="52.209530984982848" lon="-7.929121982306242">
        <ele>212.59</ele>
        <time>2026-06-26T14:27:51Z</time>
      </trkpt>
      <trkpt lat="52.20764203928411" lon="-7.928168037906289">
        <ele>203.94</ele>
        <time>2026-06-26T14:28:02Z</time>
      </trkpt>
      <trkpt lat="52.206736039370298" lon="-7.927694041281939">
        <ele>196.72999999999999</ele>
        <time>2026-06-26T14:28:07Z</time>
      </trkpt>
      <trkpt lat="52.206450970843434" lon="-7.927426993846893">
        <ele>194.31999999999999</ele>
        <time>2026-06-26T14:28:09Z</time>
      </trkpt>
      <trkpt lat="52.206306969746947" lon="-7.92729296721518">
        <ele>193.84</ele>
        <time>2026-06-26T14:28:10Z</time>
      </trkpt>
      <trkpt lat="52.205079020932317" lon="-7.926142970100045">
        <ele>189.03999999999999</ele>
        <time>2026-06-26T14:28:18Z</time>
      </trkpt>
      <trkpt lat="52.204366978257895" lon="-7.92537996545434">
        <ele>185.66999999999999</ele>
        <time>2026-06-26T14:28:24Z</time>
      </trkpt>
      <trkpt lat="52.204349040985107" lon="-7.92524803429842">
        <ele>185.66999999999999</ele>
        <time>2026-06-26T14:28:25Z</time>
      </trkpt>
      <trkpt lat="52.204329008236527" lon="-7.925102021545172">
        <ele>185.66999999999999</ele>
        <time>2026-06-26T14:28:26Z</time>
      </trkpt>
      <trkpt lat="52.204263964667916" lon="-7.924619978293777">
        <ele>185.66999999999999</ele>
        <time>2026-06-26T14:28:29Z</time>
      </trkpt>
      <trkpt lat="52.204199004918337" lon="-7.924498021602631">
        <ele>185.66999999999999</ele>
        <time>2026-06-26T14:28:30Z</time>
      </trkpt>
      <trkpt lat="52.204136978834867" lon="-7.924384027719498">
        <ele>185.66999999999999</ele>
        <time>2026-06-26T14:28:31Z</time>
      </trkpt>
      <trkpt lat="52.204060032963753" lon="-7.924331976100802">
        <ele>185.66999999999999</ele>
        <time>2026-06-26T14:28:32Z</time>
      </trkpt>
      <trkpt lat="52.20396900549531" lon="-7.924318984150887">
        <ele>185.19</ele>
        <time>2026-06-26T14:28:33Z</time>
      </trkpt>
      <trkpt lat="52.203909996896982" lon="-7.924372041597962">
        <ele>185.19</ele>
        <time>2026-06-26T14:28:34Z</time>
      </trkpt>
      <trkpt lat="52.203852999955416" lon="-7.924434989690781">
        <ele>185.19</ele>
        <time>2026-06-26T14:28:35Z</time>
      </trkpt>
      <trkpt lat="52.203803965821862" lon="-7.924559963867068">
        <ele>184.71000000000001</ele>
        <time>2026-06-26T14:28:36Z</time>
      </trkpt>
      <trkpt lat="52.203747974708676" lon="-7.924703964963555">
        <ele>184.22999999999999</ele>
        <time>2026-06-26T14:28:37Z</time>
      </trkpt>
      <trkpt lat="52.203687960281968" lon="-7.924858024343848">
        <ele>183.75</ele>
        <time>2026-06-26T14:28:38Z</time>
      </trkpt>
      <trkpt lat="52.203621994704008" lon="-7.925024991855025">
        <ele>183.27000000000001</ele>
        <time>2026-06-26T14:28:39Z</time>
      </trkpt>
      <trkpt lat="52.203549994155765" lon="-7.925209980458021">
        <ele>182.78999999999999</ele>
        <time>2026-06-26T14:28:40Z</time>
      </trkpt>
      <trkpt lat="52.203462990000844" lon="-7.92537996545434">
        <ele>182.31</ele>
        <time>2026-06-26T14:28:41Z</time>
      </trkpt>
      <trkpt lat="52.203356958925724" lon="-7.925538970157504">
        <ele>181.83000000000001</ele>
        <time>2026-06-26T14:28:42Z</time>
      </trkpt>
      <trkpt lat="52.203249000012875" lon="-7.925699986517429">
        <ele>181.34999999999999</ele>
        <time>2026-06-26T14:28:43Z</time>
      </trkpt>
      <trkpt lat="52.203120002523065" lon="-7.925833007320762">
        <ele>180.87</ele>
        <time>2026-06-26T14:28:44Z</time>
      </trkpt>
      <trkpt lat="52.202983964234591" lon="-7.925947001203895">
        <ele>180.38</ele>
        <time>2026-06-26T14:28:45Z</time>
      </trkpt>
      <trkpt lat="52.202832000330091" lon="-7.926028976216912">
        <ele>179.90000000000001</ele>
        <time>2026-06-26T14:28:46Z</time>
      </trkpt>
      <trkpt lat="52.202674001455307" lon="-7.926105000078678">
        <ele>178.94</ele>
        <time>2026-06-26T14:28:47Z</time>
      </trkpt>
      <trkpt lat="52.202513990923762" lon="-7.926182029768825">
        <ele>178.46000000000001</ele>
        <time>2026-06-26T14:28:48Z</time>
      </trkpt>
      <trkpt lat="52.201863974332809" lon="-7.926518982276321">
        <ele>176.53999999999999</ele>
        <time>2026-06-26T14:28:52Z</time>
      </trkpt>
      <trkpt lat="52.201712010428309" lon="-7.926656026393175">
        <ele>176.06</ele>
        <time>2026-06-26T14:28:53Z</time>
      </trkpt>
      <trkpt lat="52.201266009360552" lon="-7.927032960578799">
        <ele>175.58000000000001</ele>
        <time>2026-06-26T14:28:56Z</time>
      </trkpt>
      <trkpt lat="52.201107004657388" lon="-7.927152989432216">
        <ele>175.09999999999999</ele>
        <time>2026-06-26T14:28:57Z</time>
      </trkpt>
      <trkpt lat="52.200935008004308" lon="-7.927245022729039">
        <ele>175.09999999999999</ele>
        <time>2026-06-26T14:28:58Z</time>
      </trkpt>
      <trkpt lat="52.200140990316868" lon="-7.927559008821845">
        <ele>172.69</ele>
        <time>2026-06-26T14:29:03Z</time>
      </trkpt>
      <trkpt lat="52.199332974851131" lon="-7.927618017420173">
        <ele>171.72999999999999</ele>
        <time>2026-06-26T14:29:08Z</time>
      </trkpt>
      <trkpt lat="52.199204983189702" lon="-7.927694041281939">
        <ele>171.25</ele>
        <time>2026-06-26T14:29:09Z</time>
      </trkpt>
      <trkpt lat="52.199103981256485" lon="-7.927829995751381">
        <ele>170.77000000000001</ele>
        <time>2026-06-26T14:29:10Z</time>
      </trkpt>
      <trkpt lat="52.198766022920609" lon="-7.928250012919307">
        <ele>169.81</ele>
        <time>2026-06-26T14:29:13Z</time>
      </trkpt>
      <trkpt lat="52.198652029037476" lon="-7.928355038166046">
        <ele>168.84999999999999</ele>
        <time>2026-06-26T14:29:14Z</time>
      </trkpt>
      <trkpt lat="52.198524037376046" lon="-7.928383033722639">
        <ele>167.88999999999999</ele>
        <time>2026-06-26T14:29:15Z</time>
      </trkpt>
      <trkpt lat="52.198386993259192" lon="-7.928413962945342">
        <ele>166.93000000000001</ele>
        <time>2026-06-26T14:29:16Z</time>
      </trkpt>
      <trkpt lat="52.198240980505943" lon="-7.928445981815457">
        <ele>165.96000000000001</ele>
        <time>2026-06-26T14:29:17Z</time>
      </trkpt>
      <trkpt lat="52.197767989709973" lon="-7.928595012053847">
        <ele>163.56</ele>
        <time>2026-06-26T14:29:20Z</time>
      </trkpt>
      <trkpt lat="52.197601022198796" lon="-7.928691990673542">
        <ele>163.08000000000001</ele>
        <time>2026-06-26T14:29:21Z</time>
      </trkpt>
      <trkpt lat="52.196412971243262" lon="-7.929593967273831">
        <ele>157.31</ele>
        <time>2026-06-26T14:29:29Z</time>
      </trkpt>
      <trkpt lat="52.195211006328464" lon="-7.930282037705183">
        <ele>151.53999999999999</ele>
        <time>2026-06-26T14:29:37Z</time>
      </trkpt>
      <trkpt lat="52.193940980359912" lon="-7.930927025154233">
        <ele>146.74000000000001</ele>
        <time>2026-06-26T14:29:44Z</time>
      </trkpt>
      <trkpt lat="52.193783987313509" lon="-7.931068008765578">
        <ele>145.78</ele>
        <time>2026-06-26T14:29:45Z</time>
      </trkpt>
      <trkpt lat="52.193087032064795" lon="-7.931714002043009">
        <ele>142.41</ele>
        <time>2026-06-26T14:29:50Z</time>
      </trkpt>
      <trkpt lat="52.192955017089844" lon="-7.931743003427982">
        <ele>142.41</ele>
        <time>2026-06-26T14:29:51Z</time>
      </trkpt>
      <trkpt lat="52.192824007943273" lon="-7.931743003427982">
        <ele>141.93000000000001</ele>
        <time>2026-06-26T14:29:52Z</time>
      </trkpt>
      <trkpt lat="52.192686041817069" lon="-7.931714002043009">
        <ele>140.97</ele>
        <time>2026-06-26T14:29:53Z</time>
      </trkpt>
      <trkpt lat="52.19253801740706" lon="-7.931659016758204">
        <ele>140.49000000000001</ele>
        <time>2026-06-26T14:29:54Z</time>
      </trkpt>
      <trkpt lat="52.19221799634397" lon="-7.931538987904787">
        <ele>140.00999999999999</ele>
        <time>2026-06-26T14:29:56Z</time>
      </trkpt>
      <trkpt lat="52.192076006904244" lon="-7.931485008448362">
        <ele>139.53</ele>
        <time>2026-06-26T14:29:57Z</time>
      </trkpt>
      <trkpt lat="52.191906021907926" lon="-7.931531025096774">
        <ele>139.05000000000001</ele>
        <time>2026-06-26T14:29:58Z</time>
      </trkpt>
      <trkpt lat="52.191750034689903" lon="-7.931574024260044">
        <ele>138.56999999999999</ele>
        <time>2026-06-26T14:29:59Z</time>
      </trkpt>
      <trkpt lat="52.191593963652849" lon="-7.931617023423314">
        <ele>138.09</ele>
        <time>2026-06-26T14:30:00Z</time>
      </trkpt>
      <trkpt lat="52.190960040315986" lon="-7.931660022586584">
        <ele>136.16</ele>
        <time>2026-06-26T14:30:04Z</time>
      </trkpt>
      <trkpt lat="52.190811010077596" lon="-7.931608976796269">
        <ele>135.68000000000001</ele>
        <time>2026-06-26T14:30:05Z</time>
      </trkpt>
      <trkpt lat="52.19067002646625" lon="-7.931528007611632">
        <ele>135.68000000000001</ele>
        <time>2026-06-26T14:30:06Z</time>
      </trkpt>
      <trkpt lat="52.190557960420847" lon="-7.931413007900119">
        <ele>135.19999999999999</ele>
        <time>2026-06-26T14:30:07Z</time>
      </trkpt>
      <trkpt lat="52.190469028428197" lon="-7.931244028732181">
        <ele>134.24000000000001</ele>
        <time>2026-06-26T14:30:08Z</time>
      </trkpt>
      <trkpt lat="52.190380012616515" lon="-7.931072032079101">
        <ele>133.75999999999999</ele>
        <time>2026-06-26T14:30:09Z</time>
      </trkpt>
      <trkpt lat="52.190281022340059" lon="-7.930944040417671">
        <ele>132.80000000000001</ele>
        <time>2026-06-26T14:30:10Z</time>
      </trkpt>
      <trkpt lat="52.190200975164771" lon="-7.930873967707157">
        <ele>131.84</ele>
        <time>2026-06-26T14:30:11Z</time>
      </trkpt>
      <trkpt lat="52.190137021243572" lon="-7.930892994627357">
        <ele>130.40000000000001</ele>
        <time>2026-06-26T14:30:12Z</time>
      </trkpt>
      <trkpt lat="52.190080024302006" lon="-7.930927025154233">
        <ele>129.91999999999999</ele>
        <time>2026-06-26T14:30:13Z</time>
      </trkpt>
      <trkpt lat="52.190039958804846" lon="-7.931038001552224">
        <ele>128.94999999999999</ele>
        <time>2026-06-26T14:30:14Z</time>
      </trkpt>
      <trkpt lat="52.189990002661943" lon="-7.931173034012318">
        <ele>128.47</ele>
        <time>2026-06-26T14:30:15Z</time>
      </trkpt>
      <trkpt lat="52.189929988235235" lon="-7.931334972381592">
        <ele>128.47</ele>
        <time>2026-06-26T14:30:16Z</time>
      </trkpt>
      <trkpt lat="52.189846001565456" lon="-7.931466987356544">
        <ele>127.98999999999999</ele>
        <time>2026-06-26T14:30:17Z</time>
      </trkpt>
      <trkpt lat="52.189751034602523" lon="-7.931613000109792">
        <ele>127.51000000000001</ele>
        <time>2026-06-26T14:30:18Z</time>
      </trkpt>
      <trkpt lat="52.189634023234248" lon="-7.931752977892757">
        <ele>127.03</ele>
        <time>2026-06-26T14:30:19Z</time>
      </trkpt>
      <trkpt lat="52.189276032149792" lon="-7.932156985625625">
        <ele>125.11</ele>
        <time>2026-06-26T14:30:22Z</time>
      </trkpt>
      <trkpt lat="52.189142005518079" lon="-7.932237032800913">
        <ele>124.63</ele>
        <time>2026-06-26T14:30:23Z</time>
      </trkpt>
      <trkpt lat="52.189007978886366" lon="-7.932316996157169">
        <ele>124.15000000000001</ele>
        <time>2026-06-26T14:30:24Z</time>
      </trkpt>
      <trkpt lat="52.188873030245304" lon="-7.932397965341806">
        <ele>124.63</ele>
        <time>2026-06-26T14:30:25Z</time>
      </trkpt>
      <trkpt lat="52.188731962814927" lon="-7.932436019182205">
        <ele>124.15000000000001</ele>
        <time>2026-06-26T14:30:26Z</time>
      </trkpt>
      <trkpt lat="52.188588967546821" lon="-7.93246703222394">
        <ele>123.67</ele>
        <time>2026-06-26T14:30:27Z</time>
      </trkpt>
      <trkpt lat="52.188455024734139" lon="-7.932488992810249">
        <ele>123.19</ele>
        <time>2026-06-26T14:30:28Z</time>
      </trkpt>
      <trkpt lat="52.18832703307271" lon="-7.932453034445643">
        <ele>122.70999999999999</ele>
        <time>2026-06-26T14:30:29Z</time>
      </trkpt>
      <trkpt lat="52.188204992562532" lon="-7.932417998090386">
        <ele>122.70999999999999</ele>
        <time>2026-06-26T14:30:30Z</time>
      </trkpt>
      <trkpt lat="52.188087981194258" lon="-7.93234096840024">
        <ele>121.73999999999999</ele>
        <time>2026-06-26T14:30:31Z</time>
      </trkpt>
      <trkpt lat="52.187964012846351" lon="-7.932239966467023">
        <ele>121.73999999999999</ele>
        <time>2026-06-26T14:30:32Z</time>
      </trkpt>
      <trkpt lat="52.186773028224707" lon="-7.931374032050371">
        <ele>117.42</ele>
        <time>2026-06-26T14:30:40Z</time>
      </trkpt>
      <trkpt lat="52.186508998274803" lon="-7.931250985711813">
        <ele>116.94</ele>
        <time>2026-06-26T14:30:42Z</time>
      </trkpt>
      <trkpt lat="52.186376983299851" lon="-7.931234976276755">
        <ele>116.45999999999999</ele>
        <time>2026-06-26T14:30:43Z</time>
      </trkpt>
      <trkpt lat="52.186233988031745" lon="-7.931249979883432">
        <ele>115.98</ele>
        <time>2026-06-26T14:30:44Z</time>
      </trkpt>
      <trkpt lat="52.186086969450116" lon="-7.931264983490109">
        <ele>115.5</ele>
        <time>2026-06-26T14:30:45Z</time>
      </trkpt>
      <trkpt lat="52.1859410405159" lon="-7.931279987096787">
        <ele>115.01000000000001</ele>
        <time>2026-06-26T14:30:46Z</time>
      </trkpt>
      <trkpt lat="52.184758018702269" lon="-7.931207986548543">
        <ele>114.05</ele>
        <time>2026-06-26T14:30:54Z</time>
      </trkpt>
      <trkpt lat="52.183625958859921" lon="-7.931102039292455">
        <ele>113.09</ele>
        <time>2026-06-26T14:31:01Z</time>
      </trkpt>
      <trkpt lat="52.181972041726112" lon="-7.93141501955688">
        <ele>114.05</ele>
        <time>2026-06-26T14:31:11Z</time>
      </trkpt>
      <trkpt lat="52.180151995271444" lon="-7.932345997542143">
        <ele>108.77</ele>
        <time>2026-06-26T14:31:22Z</time>
      </trkpt>
      <trkpt lat="52.178851962089539" lon="-7.933052005246282">
        <ele>105.40000000000001</ele>
        <time>2026-06-26T14:31:30Z</time>
      </trkpt>
      <trkpt lat="52.178688012063503" lon="-7.933052005246282">
        <ele>104.92</ele>
        <time>2026-06-26T14:31:31Z</time>
      </trkpt>
      <trkpt lat="52.178525989875197" lon="-7.933052005246282">
        <ele>104.44</ele>
        <time>2026-06-26T14:31:32Z</time>
      </trkpt>
      <trkpt lat="52.178370002657175" lon="-7.933030966669321">
        <ele>103.95999999999999</ele>
        <time>2026-06-26T14:31:33Z</time>
      </trkpt>
      <trkpt lat="52.178202029317617" lon="-7.932996014133096">
        <ele>103.95999999999999</ele>
        <time>2026-06-26T14:31:34Z</time>
      </trkpt>
      <trkpt lat="52.178023997694254" lon="-7.932957960292697">
        <ele>103.48</ele>
        <time>2026-06-26T14:31:35Z</time>
      </trkpt>
      <trkpt lat="52.176938960328698" lon="-7.932930970564485">
        <ele>102.04000000000001</ele>
        <time>2026-06-26T14:31:41Z</time>
      </trkpt>
      <trkpt lat="52.176694041118026" lon="-7.93294102884829">
        <ele>103</ele>
        <time>2026-06-26T14:31:43Z</time>
      </trkpt>
      <trkpt lat="52.176579041406512" lon="-7.932894006371498">
        <ele>103.48</ele>
        <time>2026-06-26T14:31:44Z</time>
      </trkpt>
      <trkpt lat="52.176164975389838" lon="-7.932748999446631">
        <ele>103</ele>
        <time>2026-06-26T14:31:47Z</time>
      </trkpt>
      <trkpt lat="52.176004964858294" lon="-7.932716980576515">
        <ele>102.52</ele>
        <time>2026-06-26T14:31:48Z</time>
      </trkpt>
      <trkpt lat="52.175827017053962" lon="-7.932716980576515">
        <ele>102.04000000000001</ele>
        <time>2026-06-26T14:31:49Z</time>
      </trkpt>
      <trkpt lat="52.175645967945457" lon="-7.932729972526431">
        <ele>101.56</ele>
        <time>2026-06-26T14:31:50Z</time>
      </trkpt>
      <trkpt lat="52.175463996827602" lon="-7.932741958647966">
        <ele>100.59999999999999</ele>
        <time>2026-06-26T14:31:51Z</time>
      </trkpt>
      <trkpt lat="52.174588004127145" lon="-7.932847989723086">
        <ele>96.269999999999996</ele>
        <time>2026-06-26T14:31:57Z</time>
      </trkpt>
      <trkpt lat="52.174493037164211" lon="-7.932895012199879">
        <ele>95.790000000000006</ele>
        <time>2026-06-26T14:31:58Z</time>
      </trkpt>
      <trkpt lat="52.17431802302599" lon="-7.933076983317733">
        <ele>94.349999999999994</ele>
        <time>2026-06-26T14:32:00Z</time>
      </trkpt>
      <trkpt lat="52.174220038577914" lon="-7.933202963322401">
        <ele>93.870000000000005</ele>
        <time>2026-06-26T14:32:01Z</time>
      </trkpt>
      <trkpt lat="52.174136973917484" lon="-7.933308994397521">
        <ele>93.870000000000005</ele>
        <time>2026-06-26T14:32:02Z</time>
      </trkpt>
      <trkpt lat="52.174025997519493" lon="-7.933409996330738">
        <ele>93.870000000000005</ele>
        <time>2026-06-26T14:32:03Z</time>
      </trkpt>
      <trkpt lat="52.173899011686444" lon="-7.933523990213871">
        <ele>93.870000000000005</ele>
        <time>2026-06-26T14:32:04Z</time>
      </trkpt>
      <trkpt lat="52.17376297339797" lon="-7.933570006862283">
        <ele>93.870000000000005</ele>
        <time>2026-06-26T14:32:05Z</time>
      </trkpt>
      <trkpt lat="52.173618972301483" lon="-7.933618035167456">
        <ele>93.870000000000005</ele>
        <time>2026-06-26T14:32:06Z</time>
      </trkpt>
      <trkpt lat="52.173458961769938" lon="-7.933636978268623">
        <ele>93.390000000000001</ele>
        <time>2026-06-26T14:32:07Z</time>
      </trkpt>
      <trkpt lat="52.173300962895155" lon="-7.933645024895668">
        <ele>92.900000000000006</ele>
        <time>2026-06-26T14:32:08Z</time>
      </trkpt>
      <trkpt lat="52.1731380186975" lon="-7.933653993532062">
        <ele>92.420000000000002</ele>
        <time>2026-06-26T14:32:09Z</time>
      </trkpt>
      <trkpt lat="52.172637032344937" lon="-7.933621974661946">
        <ele>90.5</ele>
        <time>2026-06-26T14:32:12Z</time>
      </trkpt>
      <trkpt lat="52.17249202542007" lon="-7.93354201130569">
        <ele>90.019999999999996</ele>
        <time>2026-06-26T14:32:13Z</time>
      </trkpt>
      <trkpt lat="52.172373002395034" lon="-7.933440003544092">
        <ele>89.540000000000006</ele>
        <time>2026-06-26T14:32:14Z</time>
      </trkpt>
      <trkpt lat="52.172250961884856" lon="-7.933331038802862">
        <ele>89.060000000000002</ele>
        <time>2026-06-26T14:32:15Z</time>
      </trkpt>
      <trkpt lat="52.17212799936533" lon="-7.933197012171149">
        <ele>88.099999999999994</ele>
        <time>2026-06-26T14:32:16Z</time>
      </trkpt>
      <trkpt lat="52.17199900187552" lon="-7.933057034388185">
        <ele>87.620000000000005</ele>
        <time>2026-06-26T14:32:17Z</time>
      </trkpt>
      <trkpt lat="52.17187000438571" lon="-7.932916972786188">
        <ele>87.140000000000001</ele>
        <time>2026-06-26T14:32:18Z</time>
      </trkpt>
      <trkpt lat="52.171743018552661" lon="-7.932757968083024">
        <ele>86.180000000000007</ele>
        <time>2026-06-26T14:32:19Z</time>
      </trkpt>
      <trkpt lat="52.171641010791063" lon="-7.932583959773183">
        <ele>85.689999999999998</ele>
        <time>2026-06-26T14:32:20Z</time>
      </trkpt>
      <trkpt lat="52.171537997201085" lon="-7.932409029453993">
        <ele>84.730000000000004</ele>
        <time>2026-06-26T14:32:21Z</time>
      </trkpt>
      <trkpt lat="52.171261981129646" lon="-7.931740991771221">
        <ele>82.810000000000002</ele>
        <time>2026-06-26T14:32:24Z</time>
      </trkpt>
      <trkpt lat="52.171192998066545" lon="-7.931535970419645">
        <ele>82.329999999999998</ele>
        <time>2026-06-26T14:32:25Z</time>
      </trkpt>
      <trkpt lat="52.170912958681583" lon="-7.930955020710826">
        <ele>80.890000000000001</ele>
        <time>2026-06-26T14:32:29Z</time>
      </trkpt>
      <trkpt lat="52.17079795897007" lon="-7.930831974372268">
        <ele>80.409999999999997</ele>
        <time>2026-06-26T14:32:30Z</time>
      </trkpt>
      <trkpt lat="52.169920038431883" lon="-7.92989001609385">
        <ele>75.120000000000005</ele>
        <time>2026-06-26T14:32:36Z</time>
      </trkpt>
      <trkpt lat="52.168976990506053" lon="-7.929164981469512">
        <ele>68.390000000000001</ele>
        <time>2026-06-26T14:32:42Z</time>
      </trkpt>
      <trkpt lat="52.168839024379849" lon="-7.929061967879534">
        <ele>66.950000000000003</ele>
        <time>2026-06-26T14:32:43Z</time>
      </trkpt>
      <trkpt lat="52.168700974434614" lon="-7.928959038108587">
        <ele>65.510000000000005</ele>
        <time>2026-06-26T14:32:44Z</time>
      </trkpt>
      <trkpt lat="52.168572982773185" lon="-7.928861975669861">
        <ele>64.069999999999993</ele>
        <time>2026-06-26T14:32:45Z</time>
      </trkpt>
      <trkpt lat="52.168451026082039" lon="-7.92877103202045">
        <ele>63.100000000000001</ele>
        <time>2026-06-26T14:32:46Z</time>
      </trkpt>
      <trkpt lat="52.168334014713764" lon="-7.928683022037149">
        <ele>62.140000000000001</ele>
        <time>2026-06-26T14:32:47Z</time>
      </trkpt>
      <trkpt lat="52.168221026659012" lon="-7.92859903536737">
        <ele>61.659999999999997</ele>
        <time>2026-06-26T14:32:48Z</time>
      </trkpt>
      <trkpt lat="52.168105021119118" lon="-7.928541032597423">
        <ele>60.700000000000003</ele>
        <time>2026-06-26T14:32:49Z</time>
      </trkpt>
      <trkpt lat="52.167956996709108" lon="-7.928524017333984">
        <ele>60.219999999999999</ele>
        <time>2026-06-26T14:32:50Z</time>
      </trkpt>
      <trkpt lat="52.16785398311913" lon="-7.928596017882228">
        <ele>59.740000000000002</ele>
        <time>2026-06-26T14:32:51Z</time>
      </trkpt>
      <trkpt lat="52.167709982022643" lon="-7.928727027028799">
        <ele>59.740000000000002</ele>
        <time>2026-06-26T14:32:52Z</time>
      </trkpt>
      <trkpt lat="52.16761602088809" lon="-7.92887999676168">
        <ele>59.259999999999998</ele>
        <time>2026-06-26T14:32:53Z</time>
      </trkpt>
      <trkpt lat="52.167432038113475" lon="-7.929248968139291">
        <ele>58.780000000000001</ele>
        <time>2026-06-26T14:32:55Z</time>
      </trkpt>
      <trkpt lat="52.167360037565231" lon="-7.929468993097544">
        <ele>58.299999999999997</ele>
        <time>2026-06-26T14:32:56Z</time>
      </trkpt>
      <trkpt lat="52.167308991774917" lon="-7.929663034155965">
        <ele>58.299999999999997</ele>
        <time>2026-06-26T14:32:57Z</time>
      </trkpt>
      <trkpt lat="52.167262975126505" lon="-7.929895967245102">
        <ele>57.82</ele>
        <time>2026-06-26T14:32:58Z</time>
      </trkpt>
      <trkpt lat="52.167242020368576" lon="-7.930124960839748">
        <ele>57.82</ele>
        <time>2026-06-26T14:32:59Z</time>
      </trkpt>
      <trkpt lat="52.167232967913151" lon="-7.930368036031723">
        <ele>58.299999999999997</ele>
        <time>2026-06-26T14:33:00Z</time>
      </trkpt>
      <trkpt lat="52.167245959863067" lon="-7.930584959685803">
        <ele>58.299999999999997</ele>
        <time>2026-06-26T14:33:01Z</time>
      </trkpt>
      <trkpt lat="52.16727102175355" lon="-7.931015035137534">
        <ele>58.780000000000001</ele>
        <time>2026-06-26T14:33:03Z</time>
      </trkpt>
      <trkpt lat="52.167289964854717" lon="-7.931346958503127">
        <ele>58.780000000000001</ele>
        <time>2026-06-26T14:33:05Z</time>
      </trkpt>
      <trkpt lat="52.167291976511478" lon="-7.931377971544862">
        <ele>58.780000000000001</ele>
        <time>2026-06-26T14:33:06Z</time>
      </trkpt>
      <trkpt lat="52.167237997055054" lon="-7.931447960436344">
        <ele>58.780000000000001</ele>
        <time>2026-06-26T14:33:07Z</time>
      </trkpt>
      <trkpt lat="52.167188040912151" lon="-7.931513004004955">
        <ele>58.780000000000001</ele>
        <time>2026-06-26T14:33:08Z</time>
      </trkpt>
      <trkpt lat="52.167141018435359" lon="-7.931575030088425">
        <ele>58.780000000000001</ele>
        <time>2026-06-26T14:33:09Z</time>
      </trkpt>
      <trkpt lat="52.167092990130186" lon="-7.931635966524482">
        <ele>59.259999999999998</ele>
        <time>2026-06-26T14:33:10Z</time>
      </trkpt>
      <trkpt lat="52.167077986523509" lon="-7.931765969842672">
        <ele>59.259999999999998</ele>
        <time>2026-06-26T14:33:11Z</time>
      </trkpt>
      <trkpt lat="52.167077986523509" lon="-7.931890022009611">
        <ele>59.259999999999998</ele>
        <time>2026-06-26T14:33:12Z</time>
      </trkpt>
      <trkpt lat="52.167077986523509" lon="-7.932051038369536">
        <ele>59.259999999999998</ele>
        <time>2026-06-26T14:33:13Z</time>
      </trkpt>
      <trkpt lat="52.167077986523509" lon="-7.932244995608926">
        <ele>59.259999999999998</ele>
        <time>2026-06-26T14:33:14Z</time>
      </trkpt>
      <trkpt lat="52.167077986523509" lon="-7.932453034445643">
        <ele>58.780000000000001</ele>
        <time>2026-06-26T14:33:15Z</time>
      </trkpt>
      <trkpt lat="52.167052002623677" lon="-7.932663001120091">
        <ele>58.780000000000001</ele>
        <time>2026-06-26T14:33:16Z</time>
      </trkpt>
      <trkpt lat="52.167021995410323" lon="-7.932863999158144">
        <ele>58.780000000000001</ele>
        <time>2026-06-26T14:33:17Z</time>
      </trkpt>
      <trkpt lat="52.166989976540208" lon="-7.933072037994862">
        <ele>58.299999999999997</ele>
        <time>2026-06-26T14:33:18Z</time>
      </trkpt>
      <trkpt lat="52.166938008740544" lon="-7.933293990790844">
        <ele>58.299999999999997</ele>
        <time>2026-06-26T14:33:19Z</time>
      </trkpt>
      <trkpt lat="52.166869025677443" lon="-7.933492977172136">
        <ele>57.82</ele>
        <time>2026-06-26T14:33:20Z</time>
      </trkpt>
      <trkpt lat="52.166780009865761" lon="-7.933699004352093">
        <ele>57.340000000000003</ele>
        <time>2026-06-26T14:33:21Z</time>
      </trkpt>
      <trkpt lat="52.166674984619021" lon="-7.933874018490315">
        <ele>56.859999999999999</ele>
        <time>2026-06-26T14:33:22Z</time>
      </trkpt>
      <trkpt lat="52.166565014049411" lon="-7.93405800126493">
        <ele>56.859999999999999</ele>
        <time>2026-06-26T14:33:23Z</time>
      </trkpt>
      <trkpt lat="52.166452025994658" lon="-7.934247013181448">
        <ele>56.859999999999999</ele>
        <time>2026-06-26T14:33:24Z</time>
      </trkpt>
      <trkpt lat="52.166338032111526" lon="-7.934438036754727">
        <ele>55.890000000000001</ele>
        <time>2026-06-26T14:33:25Z</time>
      </trkpt>
      <trkpt lat="52.166106021031737" lon="-7.934827040880919">
        <ele>54.450000000000003</ele>
        <time>2026-06-26T14:33:27Z</time>
      </trkpt>
      <trkpt lat="52.165784994140267" lon="-7.935385024175048">
        <ele>53.009999999999998</ele>
        <time>2026-06-26T14:33:30Z</time>
      </trkpt>
      <trkpt lat="52.165696984156966" lon="-7.935572024434805">
        <ele>52.530000000000001</ele>
        <time>2026-06-26T14:33:31Z</time>
      </trkpt>
      <trkpt lat="52.165615009143949" lon="-7.935746032744646">
        <ele>52.049999999999997</ele>
        <time>2026-06-26T14:33:32Z</time>
      </trkpt>
      <trkpt lat="52.165542002767324" lon="-7.935900008305907">
        <ele>52.049999999999997</ele>
        <time>2026-06-26T14:33:33Z</time>
      </trkpt>
      <trkpt lat="52.165471008047462" lon="-7.936049960553646">
        <ele>51.57</ele>
        <time>2026-06-26T14:33:34Z</time>
      </trkpt>
      <trkpt lat="52.165400013327599" lon="-7.936202008277178">
        <ele>51.090000000000003</ele>
        <time>2026-06-26T14:33:35Z</time>
      </trkpt>
      <trkpt lat="52.165328012779355" lon="-7.936353972181678">
        <ele>50.609999999999999</ele>
        <time>2026-06-26T14:33:36Z</time>
      </trkpt>
      <trkpt lat="52.165224999189377" lon="-7.936468971893191">
        <ele>50.130000000000003</ele>
        <time>2026-06-26T14:33:37Z</time>
      </trkpt>
      <trkpt lat="52.165128020569682" lon="-7.936533009633422">
        <ele>49.159999999999997</ele>
        <time>2026-06-26T14:33:38Z</time>
      </trkpt>
      <trkpt lat="52.165021989494562" lon="-7.936586989089847">
        <ele>48.200000000000003</ele>
        <time>2026-06-26T14:33:39Z</time>
      </trkpt>
      <trkpt lat="52.164903972297907" lon="-7.936551030725241">
        <ele>47.719999999999999</ele>
        <time>2026-06-26T14:33:40Z</time>
      </trkpt>
      <trkpt lat="52.164769023656845" lon="-7.936509037390351">
        <ele>46.759999999999998</ele>
        <time>2026-06-26T14:33:41Z</time>
      </trkpt>
      <trkpt lat="52.164623010903597" lon="-7.93646402657032">
        <ele>46.280000000000001</ele>
        <time>2026-06-26T14:33:42Z</time>
      </trkpt>
      <trkpt lat="52.164481021463871" lon="-7.93642102740705">
        <ele>45.799999999999997</ele>
        <time>2026-06-26T14:33:43Z</time>
      </trkpt>
      <trkpt lat="52.164326040074229" lon="-7.936435025185347">
        <ele>45.32</ele>
        <time>2026-06-26T14:33:44Z</time>
      </trkpt>
      <trkpt lat="52.164167035371065" lon="-7.936449022963643">
        <ele>44.359999999999999</ele>
        <time>2026-06-26T14:33:45Z</time>
      </trkpt>
      <trkpt lat="52.164003001525998" lon="-7.93646402657032">
        <ele>43.880000000000003</ele>
        <time>2026-06-26T14:33:46Z</time>
      </trkpt>
      <trkpt lat="52.163843996822834" lon="-7.936478024348617">
        <ele>43.399999999999999</ele>
        <time>2026-06-26T14:33:47Z</time>
      </trkpt>
      <trkpt lat="52.163549959659576" lon="-7.936505014076829">
        <ele>41.950000000000003</ele>
        <time>2026-06-26T14:33:49Z</time>
      </trkpt>
      <trkpt lat="52.163432026281953" lon="-7.936424966901541">
        <ele>41.469999999999999</ele>
        <time>2026-06-26T14:33:50Z</time>
      </trkpt>
      <trkpt lat="52.16331803239882" lon="-7.936337040737271">
        <ele>40.990000000000002</ele>
        <time>2026-06-26T14:33:51Z</time>
      </trkpt>
      <trkpt lat="52.163200015202165" lon="-7.936245007440448">
        <ele>40.509999999999998</ele>
        <time>2026-06-26T14:33:52Z</time>
      </trkpt>
      <trkpt lat="52.163080992177129" lon="-7.936152974143624">
        <ele>40.030000000000001</ele>
        <time>2026-06-26T14:33:53Z</time>
      </trkpt>
      <trkpt lat="52.162951994687319" lon="-7.936052978038788">
        <ele>40.030000000000001</ele>
        <time>2026-06-26T14:33:54Z</time>
      </trkpt>
      <trkpt lat="52.162822997197509" lon="-7.935963962227106">
        <ele>39.549999999999997</ele>
        <time>2026-06-26T14:33:55Z</time>
      </trkpt>
      <trkpt lat="52.162674972787499" lon="-7.935881987214088">
        <ele>39.549999999999997</ele>
        <time>2026-06-26T14:33:56Z</time>
      </trkpt>
      <trkpt lat="52.162515968084335" lon="-7.935793977230787">
        <ele>39.549999999999997</ele>
        <time>2026-06-26T14:33:57Z</time>
      </trkpt>
      <trkpt lat="52.1623520180583" lon="-7.935703033581376">
        <ele>39.07</ele>
        <time>2026-06-26T14:33:58Z</time>
      </trkpt>
      <trkpt lat="52.162193013355136" lon="-7.935614017769694">
        <ele>38.590000000000003</ele>
        <time>2026-06-26T14:33:59Z</time>
      </trkpt>
      <trkpt lat="52.16144802980125" lon="-7.935127029195428">
        <ele>36.189999999999998</ele>
        <time>2026-06-26T14:34:04Z</time>
      </trkpt>
      <trkpt lat="52.16114703565836" lon="-7.934953020885587">
        <ele>36.189999999999998</ele>
        <time>2026-06-26T14:34:06Z</time>
      </trkpt>
      <trkpt lat="52.160693993791938" lon="-7.934844978153706">
        <ele>35.710000000000001</ele>
        <time>2026-06-26T14:34:09Z</time>
      </trkpt>
      <trkpt lat="52.160428036004305" lon="-7.934912033379078">
        <ele>35.710000000000001</ele>
        <time>2026-06-26T14:34:11Z</time>
      </trkpt>
      <trkpt lat="52.16031001880765" lon="-7.934996020048857">
        <ele>36.189999999999998</ele>
        <time>2026-06-26T14:34:12Z</time>
      </trkpt>
      <trkpt lat="52.160202981904149" lon="-7.935106996446848">
        <ele>36.189999999999998</ele>
        <time>2026-06-26T14:34:13Z</time>
      </trkpt>
      <trkpt lat="52.160088988021016" lon="-7.935231970623136">
        <ele>36.189999999999998</ele>
        <time>2026-06-26T14:34:14Z</time>
      </trkpt>
      <trkpt lat="52.159983962774277" lon="-7.935389969497919">
        <ele>36.189999999999998</ele>
        <time>2026-06-26T14:34:15Z</time>
      </trkpt>
      <trkpt lat="52.159872986376286" lon="-7.935575963929296">
        <ele>36.189999999999998</ele>
        <time>2026-06-26T14:34:16Z</time>
      </trkpt>
      <trkpt lat="52.159758992493153" lon="-7.935764975845814">
        <ele>36.189999999999998</ele>
        <time>2026-06-26T14:34:17Z</time>
      </trkpt>
      <trkpt lat="52.159411981701851" lon="-7.936325976625085">
        <ele>34.740000000000002</ele>
        <time>2026-06-26T14:34:20Z</time>
      </trkpt>
      <trkpt lat="52.159307962283492" lon="-7.93648699298501">
        <ele>34.740000000000002</ele>
        <time>2026-06-26T14:34:21Z</time>
      </trkpt>
      <trkpt lat="52.159094978123903" lon="-7.936737025156617">
        <ele>33.780000000000001</ele>
        <time>2026-06-26T14:34:23Z</time>
      </trkpt>
      <trkpt lat="52.158875036984682" lon="-7.936868034303188">
        <ele>33.780000000000001</ele>
        <time>2026-06-26T14:34:25Z</time>
      </trkpt>
      <trkpt lat="52.15818302705884" lon="-7.937134997919202">
        <ele>32.82</ele>
        <time>2026-06-26T14:34:30Z</time>
      </trkpt>
      <trkpt lat="52.158024022355676" lon="-7.937167016789317">
        <ele>32.82</ele>
        <time>2026-06-26T14:34:31Z</time>
      </trkpt>
      <trkpt lat="52.157844984903932" lon="-7.937210015952587">
        <ele>32.340000000000003</ele>
        <time>2026-06-26T14:34:32Z</time>
      </trkpt>
      <trkpt lat="52.156794983893633" lon="-7.937588961794972">
        <ele>31.859999999999999</ele>
        <time>2026-06-26T14:34:38Z</time>
      </trkpt>
      <trkpt lat="52.156652994453907" lon="-7.937640007585287">
        <ele>31.859999999999999</ele>
        <time>2026-06-26T14:34:39Z</time>
      </trkpt>
      <trkpt lat="52.156414026394486" lon="-7.937684012576938">
        <ele>31.379999999999999</ele>
        <time>2026-06-26T14:34:41Z</time>
      </trkpt>
      <trkpt lat="52.156321993097663" lon="-7.937626009806991">
        <ele>31.379999999999999</ele>
        <time>2026-06-26T14:34:42Z</time>
      </trkpt>
      <trkpt lat="52.156220991164446" lon="-7.93753900565207">
        <ele>31.379999999999999</ele>
        <time>2026-06-26T14:34:43Z</time>
      </trkpt>
      <trkpt lat="52.15612200088799" lon="-7.937454013153911">
        <ele>31.379999999999999</ele>
        <time>2026-06-26T14:34:44Z</time>
      </trkpt>
      <trkpt lat="52.156022004783154" lon="-7.93736700899899">
        <ele>30.899999999999999</ele>
        <time>2026-06-26T14:34:45Z</time>
      </trkpt>
      <trkpt lat="52.155910022556782" lon="-7.937270030379295">
        <ele>30.899999999999999</ele>
        <time>2026-06-26T14:34:46Z</time>
      </trkpt>
      <trkpt lat="52.155788987874985" lon="-7.937166010960937">
        <ele>30.899999999999999</ele>
        <time>2026-06-26T14:34:47Z</time>
      </trkpt>
      <trkpt lat="52.155660996213555" lon="-7.937055034562945">
        <ele>30.420000000000002</ele>
        <time>2026-06-26T14:34:48Z</time>
      </trkpt>
      <trkpt lat="52.155515989288688" lon="-7.936963001266122">
        <ele>30.420000000000002</ele>
        <time>2026-06-26T14:34:49Z</time>
      </trkpt>
      <trkpt lat="52.155360002070665" lon="-7.93689401820302">
        <ele>29.940000000000001</ele>
        <time>2026-06-26T14:34:50Z</time>
      </trkpt>
      <trkpt lat="52.155196974053979" lon="-7.936820005998015">
        <ele>29.940000000000001</ele>
        <time>2026-06-26T14:34:51Z</time>
      </trkpt>
      <trkpt lat="52.155027994886041" lon="-7.93674498796463">
        <ele>29.460000000000001</ele>
        <time>2026-06-26T14:34:52Z</time>
      </trkpt>
      <trkpt lat="52.1548539865762" lon="-7.936667036265135">
        <ele>29.460000000000001</ele>
        <time>2026-06-26T14:34:53Z</time>
      </trkpt>
      <trkpt lat="52.154677966609597" lon="-7.936587994918227">
        <ele>29.460000000000001</ele>
        <time>2026-06-26T14:34:54Z</time>
      </trkpt>
      <trkpt lat="52.154504964128137" lon="-7.9365099593997">
        <ele>28.98</ele>
        <time>2026-06-26T14:34:55Z</time>
      </trkpt>
      <trkpt lat="52.153254970908165" lon="-7.935896990820766">
        <ele>25.609999999999999</ele>
        <time>2026-06-26T14:35:02Z</time>
      </trkpt>
      <trkpt lat="52.153080040588975" lon="-7.93584200553596">
        <ele>25.609999999999999</ele>
        <time>2026-06-26T14:35:03Z</time>
      </trkpt>
      <trkpt lat="52.152938973158598" lon="-7.935849968343973">
        <ele>25.609999999999999</ele>
        <time>2026-06-26T14:35:04Z</time>
      </trkpt>
      <trkpt lat="52.152803018689156" lon="-7.935859020799398">
        <ele>25.609999999999999</ele>
        <time>2026-06-26T14:35:05Z</time>
      </trkpt>
      <trkpt lat="52.152667986229062" lon="-7.935901014134288">
        <ele>25.609999999999999</ele>
        <time>2026-06-26T14:35:06Z</time>
      </trkpt>
      <trkpt lat="52.152538988739252" lon="-7.935964968055487">
        <ele>25.609999999999999</ele>
        <time>2026-06-26T14:35:07Z</time>
      </trkpt>
      <trkpt lat="52.152417032048106" lon="-7.936025988310576">
        <ele>26.09</ele>
        <time>2026-06-26T14:35:08Z</time>
      </trkpt>
      <trkpt lat="52.152308989316225" lon="-7.93603403493762">
        <ele>26.09</ele>
        <time>2026-06-26T14:35:09Z</time>
      </trkpt>
      <trkpt lat="52.152186026796699" lon="-7.93603403493762">
        <ele>26.09</ele>
        <time>2026-06-26T14:35:10Z</time>
      </trkpt>
      <trkpt lat="52.15206298045814" lon="-7.93599396944046">
        <ele>27.050000000000001</ele>
        <time>2026-06-26T14:35:11Z</time>
      </trkpt>
      <trkpt lat="52.151942029595375" lon="-7.935910988599062">
        <ele>27.530000000000001</ele>
        <time>2026-06-26T14:35:12Z</time>
      </trkpt>
      <trkpt lat="52.151777995750308" lon="-7.93579800054431">
        <ele>28.02</ele>
        <time>2026-06-26T14:35:13Z</time>
      </trkpt>
      <trkpt lat="52.151691997423768" lon="-7.935699010267854">
        <ele>27.530000000000001</ele>
        <time>2026-06-26T14:35:14Z</time>
      </trkpt>
      <trkpt lat="52.150824973359704" lon="-7.934626964852214">
        <ele>27.530000000000001</ele>
        <time>2026-06-26T14:35:21Z</time>
      </trkpt>
      <trkpt lat="52.150389030575752" lon="-7.934151040390134">
        <ele>28.02</ele>
        <time>2026-06-26T14:35:24Z</time>
      </trkpt>
      <trkpt lat="52.150222985073924" lon="-7.934034029021859">
        <ele>28.02</ele>
        <time>2026-06-26T14:35:25Z</time>
      </trkpt>
      <trkpt lat="52.150065992027521" lon="-7.933921962976456">
        <ele>28.5</ele>
        <time>2026-06-26T14:35:26Z</time>
      </trkpt>
      <trkpt lat="52.149785030633211" lon="-7.933723982423544">
        <ele>29.460000000000001</ele>
        <time>2026-06-26T14:35:28Z</time>
      </trkpt>
      <trkpt lat="52.149551007896662" lon="-7.933502029627562">
        <ele>29.460000000000001</ele>
        <time>2026-06-26T14:35:30Z</time>
      </trkpt>
      <trkpt lat="52.149443970993161" lon="-7.933366997167468">
        <ele>28.98</ele>
        <time>2026-06-26T14:35:31Z</time>
      </trkpt>
      <trkpt lat="52.14888297021389" lon="-7.932670963928103">
        <ele>28.5</ele>
        <time>2026-06-26T14:35:36Z</time>
      </trkpt>
      <trkpt lat="52.148734023794532" lon="-7.932552024722099">
        <ele>28.5</ele>
        <time>2026-06-26T14:35:37Z</time>
      </trkpt>
      <trkpt lat="52.147473972290754" lon="-7.93154401704669">
        <ele>30.899999999999999</ele>
        <time>2026-06-26T14:35:45Z</time>
      </trkpt>
      <trkpt lat="52.147200973704457" lon="-7.931324997916818">
        <ele>30.899999999999999</ele>
        <time>2026-06-26T14:35:47Z</time>
      </trkpt>
      <trkpt lat="52.14709603227675" lon="-7.931242017075419">
        <ele>30.420000000000002</ele>
        <time>2026-06-26T14:35:48Z</time>
      </trkpt>
      <trkpt lat="52.147001987323165" lon="-7.931166999042034">
        <ele>29.940000000000001</ele>
        <time>2026-06-26T14:35:49Z</time>
      </trkpt>
      <trkpt lat="52.146700993180275" lon="-7.930933982133865">
        <ele>28.02</ele>
        <time>2026-06-26T14:35:52Z</time>
      </trkpt>
      <trkpt lat="52.146592028439045" lon="-7.930864999070764">
        <ele>27.050000000000001</ele>
        <time>2026-06-26T14:35:53Z</time>
      </trkpt>
      <trkpt lat="52.146246023476124" lon="-7.930645979940891">
        <ele>26.09</ele>
        <time>2026-06-26T14:35:56Z</time>
      </trkpt>
      <trkpt lat="52.146107973530889" lon="-7.93055796995759">
        <ele>25.609999999999999</ele>
        <time>2026-06-26T14:35:57Z</time>
      </trkpt>
      <trkpt lat="52.145963972434402" lon="-7.930467026308179">
        <ele>24.649999999999999</ele>
        <time>2026-06-26T14:35:58Z</time>
      </trkpt>
      <trkpt lat="52.14580899104476" lon="-7.930368036031723">
        <ele>23.690000000000001</ele>
        <time>2026-06-26T14:35:59Z</time>
      </trkpt>
      <trkpt lat="52.145659038797021" lon="-7.930272985249758">
        <ele>22.25</ele>
        <time>2026-06-26T14:36:00Z</time>
      </trkpt>
      <trkpt lat="52.145225023850799" lon="-7.9299979750067">
        <ele>18.879999999999999</ele>
        <time>2026-06-26T14:36:03Z</time>
      </trkpt>
      <trkpt lat="52.145090997219086" lon="-7.929937038570643">
        <ele>17.920000000000002</ele>
        <time>2026-06-26T14:36:04Z</time>
      </trkpt>
      <trkpt lat="52.144951019436121" lon="-7.929891021922231">
        <ele>17.920000000000002</ele>
        <time>2026-06-26T14:36:05Z</time>
      </trkpt>
      <trkpt lat="52.144808024168015" lon="-7.929845005273819">
        <ele>17.440000000000001</ele>
        <time>2026-06-26T14:36:06Z</time>
      </trkpt>
      <trkpt lat="52.144667040556669" lon="-7.929799994453788">
        <ele>16.960000000000001</ele>
        <time>2026-06-26T14:36:07Z</time>
      </trkpt>
      <trkpt lat="52.143684010952711" lon="-7.929495982825756">
        <ele>12.15</ele>
        <time>2026-06-26T14:36:15Z</time>
      </trkpt>
      <trkpt lat="52.143224012106657" lon="-7.929405039176345">
        <ele>9.75</ele>
        <time>2026-06-26T14:36:20Z</time>
      </trkpt>
      <trkpt lat="52.143146982416511" lon="-7.929394980892539">
        <ele>9.27</ele>
        <time>2026-06-26T14:36:26Z</time>
      </trkpt>
      <trkpt lat="52.143099959939718" lon="-7.929389029741287">
        <ele>8.789999999999999</ele>
        <time>2026-06-26T14:36:28Z</time>
      </trkpt>
      <trkpt lat="52.143044974654913" lon="-7.929381988942623">
        <ele>8.789999999999999</ele>
        <time>2026-06-26T14:36:29Z</time>
      </trkpt>
      <trkpt lat="52.143005998805165" lon="-7.929474022239447">
        <ele>8.789999999999999</ele>
        <time>2026-06-26T14:36:30Z</time>
      </trkpt>
      <trkpt lat="52.142939027398825" lon="-7.929580975323916">
        <ele>8.789999999999999</ele>
        <time>2026-06-26T14:36:31Z</time>
      </trkpt>
      <trkpt lat="52.142873983830214" lon="-7.929658005014062">
        <ele>8.789999999999999</ele>
        <time>2026-06-26T14:36:32Z</time>
      </trkpt>
      <trkpt lat="52.142807012423873" lon="-7.929736962541938">
        <ele>8.789999999999999</ele>
        <time>2026-06-26T14:36:33Z</time>
      </trkpt>
      <trkpt lat="52.142437035217881" lon="-7.93017097748816">
        <ele>12.15</ele>
        <time>2026-06-26T14:36:40Z</time>
      </trkpt>
      <trkpt lat="52.142388001084328" lon="-7.930227974429727">
        <ele>14.08</ele>
        <time>2026-06-26T14:36:50Z</time>
      </trkpt>
      <trkpt lat="52.142338966950774" lon="-7.930268039926887">
        <ele>14.56</ele>
        <time>2026-06-26T14:36:51Z</time>
      </trkpt>
      <trkpt lat="52.142270989716053" lon="-7.930287988856435">
        <ele>15.039999999999999</ele>
        <time>2026-06-26T14:36:52Z</time>
      </trkpt>
      <trkpt lat="52.142111985012889" lon="-7.930334005504847">
        <ele>15.52</ele>
        <time>2026-06-26T14:36:54Z</time>
      </trkpt>
      <trkpt lat="52.141375970095396" lon="-7.93053399771452">
        <ele>16.960000000000001</ele>
        <time>2026-06-26T14:37:05Z</time>
      </trkpt>
      <trkpt lat="52.141069024801254" lon="-7.930652014911175">
        <ele>17.440000000000001</ele>
        <time>2026-06-26T14:37:11Z</time>
      </trkpt>
      <trkpt lat="52.141016973182559" lon="-7.930671963840723">
        <ele>17.920000000000002</ele>
        <time>2026-06-26T14:37:12Z</time>
      </trkpt>
      <trkpt lat="52.140970034524798" lon="-7.930689984932542">
        <ele>17.920000000000002</ele>
        <time>2026-06-26T14:37:13Z</time>
      </trkpt>
      <trkpt lat="52.140685971826315" lon="-7.930801967158914">
        <ele>16.960000000000001</ele>
        <time>2026-06-26T14:37:22Z</time>
      </trkpt>
      <trkpt lat="52.140649007633328" lon="-7.93081596493721">
        <ele>16.48</ele>
        <time>2026-06-26T14:37:24Z</time>
      </trkpt>
      <trkpt lat="52.140632998198271" lon="-7.930823005735874">
        <ele>16.960000000000001</ele>
        <time>2026-06-26T14:37:25Z</time>
      </trkpt>
      <trkpt lat="52.140611037611961" lon="-7.930830968543887">
        <ele>16.960000000000001</ele>
        <time>2026-06-26T14:37:26Z</time>
      </trkpt>
      <trkpt lat="52.140592010691762" lon="-7.930839015170932">
        <ele>16.960000000000001</ele>
        <time>2026-06-26T14:37:27Z</time>
      </trkpt>
      <trkpt lat="52.140592010691762" lon="-7.930839015170932">
        <ele>17.440000000000001</ele>
        <time>2026-06-26T14:37:40Z</time>
      </trkpt>
      <trkpt lat="52.140592010691762" lon="-7.930839015170932">
        <ele>17.920000000000002</ele>
        <time>2026-06-26T14:38:26Z</time>
      </trkpt>
      <trkpt lat="52.140552029013634" lon="-7.930768020451069">
        <ele>36.670000000000002</ele>
        <time>2026-06-26T14:43:08Z</time>
      </trkpt>
      <trkpt lat="52.140621012076735" lon="-7.930847983807325">
        <ele>44.359999999999999</ele>
        <time>2026-06-26T14:43:36Z</time>
      </trkpt>
      <trkpt lat="52.140596034005284" lon="-7.930800961330533">
        <ele>38.109999999999999</ele>
        <time>2026-06-26T14:44:13Z</time>
      </trkpt>
      <trkpt lat="52.140648001804948" lon="-7.930759973824024">
        <ele>35.229999999999997</ele>
        <time>2026-06-26T14:44:31Z</time>
      </trkpt>
      <trkpt lat="52.140666022896767" lon="-7.930786963552237">
        <ele>37.149999999999999</ele>
        <time>2026-06-26T14:44:43Z</time>
      </trkpt>
      <trkpt lat="52.140813041478395" lon="-7.930752011016011">
        <ele>36.189999999999998</ele>
        <time>2026-06-26T14:44:47Z</time>
      </trkpt>
      <trkpt lat="52.140894010663033" lon="-7.930720997974277">
        <ele>35.710000000000001</ele>
        <time>2026-06-26T14:44:48Z</time>
      </trkpt>
      <trkpt lat="52.141777966171503" lon="-7.930429978296161">
        <ele>26.09</ele>
        <time>2026-06-26T14:44:59Z</time>
      </trkpt>
      <trkpt lat="52.142259003594518" lon="-7.930291006341577">
        <ele>20.809999999999999</ele>
        <time>2026-06-26T14:45:05Z</time>
      </trkpt>
      <trkpt lat="52.142318012192845" lon="-7.930273991078138">
        <ele>19.84</ele>
        <time>2026-06-26T14:45:06Z</time>
      </trkpt>
      <trkpt lat="52.142395963892341" lon="-7.930321013554931">
        <ele>18.879999999999999</ele>
        <time>2026-06-26T14:45:07Z</time>
      </trkpt>
      <trkpt lat="52.142452960833907" lon="-7.930411035194993">
        <ele>17.920000000000002</ele>
        <time>2026-06-26T14:45:08Z</time>
      </trkpt>
      <trkpt lat="52.142515992745757" lon="-7.930510025471449">
        <ele>16.960000000000001</ele>
        <time>2026-06-26T14:45:09Z</time>
      </trkpt>
      <trkpt lat="52.14258698746562" lon="-7.930623013526201">
        <ele>16</ele>
        <time>2026-06-26T14:45:10Z</time>
      </trkpt>
      <trkpt lat="52.14267298579216" lon="-7.930757040157914">
        <ele>15.52</ele>
        <time>2026-06-26T14:45:11Z</time>
      </trkpt>
      <trkpt lat="52.143240021541715" lon="-7.931706961244345">
        <ele>11.67</ele>
        <time>2026-06-26T14:45:17Z</time>
      </trkpt>
      <trkpt lat="52.143288971856236" lon="-7.931902008131146">
        <ele>11.19</ele>
        <time>2026-06-26T14:45:18Z</time>
      </trkpt>
      <trkpt lat="52.143329959362745" lon="-7.932099988684058">
        <ele>11.19</ele>
        <time>2026-06-26T14:45:19Z</time>
      </trkpt>
      <trkpt lat="52.143349992111325" lon="-7.932307021692395">
        <ele>10.710000000000001</ele>
        <time>2026-06-26T14:45:20Z</time>
      </trkpt>
      <trkpt lat="52.143372036516666" lon="-7.932522017508745">
        <ele>10.23</ele>
        <time>2026-06-26T14:45:21Z</time>
      </trkpt>
      <trkpt lat="52.143392991274595" lon="-7.932732990011573">
        <ele>9.75</ele>
        <time>2026-06-26T14:45:22Z</time>
      </trkpt>
      <trkpt lat="52.143413024023175" lon="-7.932945974171162">
        <ele>9.27</ele>
        <time>2026-06-26T14:45:23Z</time>
      </trkpt>
      <trkpt lat="52.143431967124343" lon="-7.933176979422569">
        <ele>9.27</ele>
        <time>2026-06-26T14:45:24Z</time>
      </trkpt>
      <trkpt lat="52.143450994044542" lon="-7.933405973017216">
        <ele>8.789999999999999</ele>
        <time>2026-06-26T14:45:25Z</time>
      </trkpt>
      <trkpt lat="52.143469015136361" lon="-7.933624992147088">
        <ele>8.789999999999999</ele>
        <time>2026-06-26T14:45:26Z</time>
      </trkpt>
      <trkpt lat="52.143525006249547" lon="-7.934319013729692">
        <ele>8.789999999999999</ele>
        <time>2026-06-26T14:45:29Z</time>
      </trkpt>
      <trkpt lat="52.143556019291282" lon="-7.93455102480948">
        <ele>9.27</ele>
        <time>2026-06-26T14:45:30Z</time>
      </trkpt>
      <trkpt lat="52.144066980108619" lon="-7.936371993273497">
        <ele>11.67</ele>
        <time>2026-06-26T14:45:38Z</time>
      </trkpt>
      <trkpt lat="52.144326986745" lon="-7.937262989580631">
        <ele>14.56</ele>
        <time>2026-06-26T14:45:42Z</time>
      </trkpt>
      <trkpt lat="52.144664023071527" lon="-7.938394965603948">
        <ele>17.920000000000002</ele>
        <time>2026-06-26T14:45:47Z</time>
      </trkpt>
      <trkpt lat="52.144910031929612" lon="-7.939276993274689">
        <ele>20.32</ele>
        <time>2026-06-26T14:45:51Z</time>
      </trkpt>
      <trkpt lat="52.145013967528939" lon="-7.939441027119756">
        <ele>20.809999999999999</ele>
        <time>2026-06-26T14:45:52Z</time>
      </trkpt>
      <trkpt lat="52.145127961412072" lon="-7.939555021002889">
        <ele>20.809999999999999</ele>
        <time>2026-06-26T14:45:53Z</time>
      </trkpt>
      <trkpt lat="52.145261988043785" lon="-7.9396010376513">
        <ele>21.289999999999999</ele>
        <time>2026-06-26T14:45:54Z</time>
      </trkpt>
      <trkpt lat="52.145400959998369" lon="-7.939632972702384">
        <ele>21.77</ele>
        <time>2026-06-26T14:45:55Z</time>
      </trkpt>
      <trkpt lat="52.145538004115224" lon="-7.939664991572499">
        <ele>22.25</ele>
        <time>2026-06-26T14:45:56Z</time>
      </trkpt>
      <trkpt lat="52.146257003769279" lon="-7.939649987965822">
        <ele>23.690000000000001</ele>
        <time>2026-06-26T14:46:01Z</time>
      </trkpt>
      <trkpt lat="52.146398993209004" lon="-7.939616963267326">
        <ele>24.170000000000002</ele>
        <time>2026-06-26T14:46:02Z</time>
      </trkpt>
      <trkpt lat="52.146680038422346" lon="-7.939596008509398">
        <ele>24.649999999999999</ele>
        <time>2026-06-26T14:46:04Z</time>
      </trkpt>
      <trkpt lat="52.146814987063408" lon="-7.939626015722752">
        <ele>24.649999999999999</ele>
        <time>2026-06-26T14:46:05Z</time>
      </trkpt>
      <trkpt lat="52.146940967068076" lon="-7.939654011279345">
        <ele>24.649999999999999</ele>
        <time>2026-06-26T14:46:06Z</time>
      </trkpt>
      <trkpt lat="52.147026965394616" lon="-7.939726011827588">
        <ele>24.649999999999999</ele>
        <time>2026-06-26T14:46:07Z</time>
      </trkpt>
      <trkpt lat="52.147116987034678" lon="-7.939831959083676">
        <ele>24.170000000000002</ele>
        <time>2026-06-26T14:46:08Z</time>
      </trkpt>
      <trkpt lat="52.147208014503121" lon="-7.939940001815558">
        <ele>24.170000000000002</ele>
        <time>2026-06-26T14:46:09Z</time>
      </trkpt>
      <trkpt lat="52.147267023101449" lon="-7.940110992640257">
        <ele>24.649999999999999</ele>
        <time>2026-06-26T14:46:10Z</time>
      </trkpt>
      <trkpt lat="52.147331982851028" lon="-7.940297992900014">
        <ele>25.129999999999999</ele>
        <time>2026-06-26T14:46:11Z</time>
      </trkpt>
      <trkpt lat="52.14739996008575" lon="-7.940497985109687">
        <ele>25.609999999999999</ele>
        <time>2026-06-26T14:46:12Z</time>
      </trkpt>
      <trkpt lat="52.147431978955865" lon="-7.940709041431546">
        <ele>26.09</ele>
        <time>2026-06-26T14:46:13Z</time>
      </trkpt>
      <trkpt lat="52.147447988390923" lon="-7.940951026976109">
        <ele>26.57</ele>
        <time>2026-06-26T14:46:14Z</time>
      </trkpt>
      <trkpt lat="52.14746399782598" lon="-7.941200975328684">
        <ele>27.050000000000001</ele>
        <time>2026-06-26T14:46:15Z</time>
      </trkpt>
      <trkpt lat="52.147482018917799" lon="-7.941463999450207">
        <ele>27.530000000000001</ele>
        <time>2026-06-26T14:46:16Z</time>
      </trkpt>
      <trkpt lat="52.147451005876064" lon="-7.944298004731536">
        <ele>31.859999999999999</ele>
        <time>2026-06-26T14:46:26Z</time>
      </trkpt>
      <trkpt lat="52.1471849642694" lon="-7.947197975590825">
        <ele>33.299999999999997</ele>
        <time>2026-06-26T14:46:36Z</time>
      </trkpt>
      <trkpt lat="52.147143976762891" lon="-7.94830396771431">
        <ele>33.299999999999997</ele>
        <time>2026-06-26T14:46:40Z</time>
      </trkpt>
      <trkpt lat="52.147317985072732" lon="-7.950430037453771">
        <ele>33.780000000000001</ele>
        <time>2026-06-26T14:46:48Z</time>
      </trkpt>
      <trkpt lat="52.14740096591413" lon="-7.953135967254639">
        <ele>37.630000000000003</ele>
        <time>2026-06-26T14:46:58Z</time>
      </trkpt>
      <trkpt lat="52.147380011156201" lon="-7.953650029376149">
        <ele>38.109999999999999</ele>
        <time>2026-06-26T14:47:00Z</time>
      </trkpt>
      <trkpt lat="52.147310022264719" lon="-7.953822026029229">
        <ele>38.590000000000003</ele>
        <time>2026-06-26T14:47:01Z</time>
      </trkpt>
      <trkpt lat="52.147239027544856" lon="-7.953997040167451">
        <ele>39.07</ele>
        <time>2026-06-26T14:47:02Z</time>
      </trkpt>
      <trkpt lat="52.147007016465068" lon="-7.954570027068257">
        <ele>39.549999999999997</ele>
        <time>2026-06-26T14:47:05Z</time>
      </trkpt>
      <trkpt lat="52.146922023966908" lon="-7.954777982085943">
        <ele>39.07</ele>
        <time>2026-06-26T14:47:06Z</time>
      </trkpt>
      <trkpt lat="52.146836025640368" lon="-7.954989960417152">
        <ele>39.07</ele>
        <time>2026-06-26T14:47:07Z</time>
      </trkpt>
      <trkpt lat="52.146691018715501" lon="-7.955433027818799">
        <ele>39.07</ele>
        <time>2026-06-26T14:47:09Z</time>
      </trkpt>
      <trkpt lat="52.146628992632031" lon="-7.955647017806768">
        <ele>39.549999999999997</ele>
        <time>2026-06-26T14:47:10Z</time>
      </trkpt>
      <trkpt lat="52.146594962105155" lon="-7.955883974209428">
        <ele>39.549999999999997</ele>
        <time>2026-06-26T14:47:11Z</time>
      </trkpt>
      <trkpt lat="52.146559003740549" lon="-7.956136018037796">
        <ele>39.549999999999997</ele>
        <time>2026-06-26T14:47:12Z</time>
      </trkpt>
      <trkpt lat="52.146521033719182" lon="-7.956398036330938">
        <ele>40.030000000000001</ele>
        <time>2026-06-26T14:47:13Z</time>
      </trkpt>
      <trkpt lat="52.146335039287806" lon="-7.958615971729159">
        <ele>40.990000000000002</ele>
        <time>2026-06-26T14:47:21Z</time>
      </trkpt>
      <trkpt lat="52.146226996555924" lon="-7.960681021213532">
        <ele>42.439999999999998</ele>
        <time>2026-06-26T14:47:28Z</time>
      </trkpt>
      <trkpt lat="52.146206041797996" lon="-7.961235987022519">
        <ele>42.439999999999998</ele>
        <time>2026-06-26T14:47:30Z</time>
      </trkpt>
      <trkpt lat="52.146203024312854" lon="-7.961491970345378">
        <ele>42.439999999999998</ele>
        <time>2026-06-26T14:47:31Z</time>
      </trkpt>
      <trkpt lat="52.146249040961266" lon="-7.963594989851117">
        <ele>40.990000000000002</ele>
        <time>2026-06-26T14:47:38Z</time>
      </trkpt>
      <trkpt lat="52.146287010982633" lon="-7.964472994208336">
        <ele>40.509999999999998</ele>
        <time>2026-06-26T14:47:41Z</time>
      </trkpt>
      <trkpt lat="52.146591022610664" lon="-7.966163959354162">
        <ele>38.109999999999999</ele>
        <time>2026-06-26T14:47:47Z</time>
      </trkpt>
      <trkpt lat="52.146648019552231" lon="-7.966453973203898">
        <ele>38.109999999999999</ele>
        <time>2026-06-26T14:47:48Z</time>
      </trkpt>
      <trkpt lat="52.146821022033691" lon="-7.967334995046258">
        <ele>36.670000000000002</ele>
        <time>2026-06-26T14:47:51Z</time>
      </trkpt>
      <trkpt lat="52.146872989833355" lon="-7.967635989189148">
        <ele>35.710000000000001</ele>
        <time>2026-06-26T14:47:52Z</time>
      </trkpt>
      <trkpt lat="52.146907020360231" lon="-7.967950981110334">
        <ele>33.780000000000001</ele>
        <time>2026-06-26T14:47:53Z</time>
      </trkpt>
      <trkpt lat="52.147040963172913" lon="-7.970451973378658">
        <ele>28.5</ele>
        <time>2026-06-26T14:48:01Z</time>
      </trkpt>
      <trkpt lat="52.147094020619988" lon="-7.971932971850038">
        <ele>28.02</ele>
        <time>2026-06-26T14:48:06Z</time>
      </trkpt>
      <trkpt lat="52.147074993699789" lon="-7.972218040376902">
        <ele>27.530000000000001</ele>
        <time>2026-06-26T14:48:07Z</time>
      </trkpt>
      <trkpt lat="52.147057978436351" lon="-7.972491038963199">
        <ele>27.050000000000001</ele>
        <time>2026-06-26T14:48:08Z</time>
      </trkpt>
      <trkpt lat="52.146954964846373" lon="-7.973094033077359">
        <ele>26.57</ele>
        <time>2026-06-26T14:48:10Z</time>
      </trkpt>
      <trkpt lat="52.146637039259076" lon="-7.975499974563718">
        <ele>23.210000000000001</ele>
        <time>2026-06-26T14:48:18Z</time>
      </trkpt>
      <trkpt lat="52.14660401456058" lon="-7.975814966484904">
        <ele>24.170000000000002</ele>
        <time>2026-06-26T14:48:19Z</time>
      </trkpt>
      <trkpt lat="52.14656000956893" lon="-7.976705962792039">
        <ele>26.09</ele>
        <time>2026-06-26T14:48:22Z</time>
      </trkpt>
      <trkpt lat="52.146537965163589" lon="-7.97926302999258">
        <ele>28.02</ele>
        <time>2026-06-26T14:48:31Z</time>
      </trkpt>
      <trkpt lat="52.146508041769266" lon="-7.981468979269266">
        <ele>28.5</ele>
        <time>2026-06-26T14:48:39Z</time>
      </trkpt>
      <trkpt lat="52.14649697765708" lon="-7.981757987290621">
        <ele>28.02</ele>
        <time>2026-06-26T14:48:40Z</time>
      </trkpt>
      <trkpt lat="52.146390024572611" lon="-7.984511023387313">
        <ele>25.609999999999999</ele>
        <time>2026-06-26T14:48:49Z</time>
      </trkpt>
      <trkpt lat="52.146288016811013" lon="-7.987281996756792">
        <ele>24.649999999999999</ele>
        <time>2026-06-26T14:48:58Z</time>
      </trkpt>
      <trkpt lat="52.146298997104168" lon="-7.987567987293005">
        <ele>24.649999999999999</ele>
        <time>2026-06-26T14:48:59Z</time>
      </trkpt>
      <trkpt lat="52.146419025957584" lon="-7.988396035507321">
        <ele>23.690000000000001</ele>
        <time>2026-06-26T14:49:02Z</time>
      </trkpt>
      <trkpt lat="52.146585993468761" lon="-7.989514013752341">
        <ele>22.25</ele>
        <time>2026-06-26T14:49:06Z</time>
      </trkpt>
      <trkpt lat="52.146585993468761" lon="-7.989800004288554">
        <ele>21.77</ele>
        <time>2026-06-26T14:49:07Z</time>
      </trkpt>
      <trkpt lat="52.146573001518846" lon="-7.99009001813829">
        <ele>22.25</ele>
        <time>2026-06-26T14:49:08Z</time>
      </trkpt>
      <trkpt lat="52.146545005962253" lon="-7.990390006452799">
        <ele>22.25</ele>
        <time>2026-06-26T14:49:09Z</time>
      </trkpt>
      <trkpt lat="52.146509969606996" lon="-7.990691000595689">
        <ele>22.25</ele>
        <time>2026-06-26T14:49:10Z</time>
      </trkpt>
      <trkpt lat="52.146441992372274" lon="-7.990967016667128">
        <ele>22.73</ele>
        <time>2026-06-26T14:49:11Z</time>
      </trkpt>
      <trkpt lat="52.146374015137553" lon="-7.991241021081805">
        <ele>22.73</ele>
        <time>2026-06-26T14:49:12Z</time>
      </trkpt>
      <trkpt lat="52.146304026246071" lon="-7.991524999961257">
        <ele>23.210000000000001</ele>
        <time>2026-06-26T14:49:13Z</time>
      </trkpt>
      <trkpt lat="52.145893983542919" lon="-7.993914010003209">
        <ele>25.609999999999999</ele>
        <time>2026-06-26T14:49:21Z</time>
      </trkpt>
      <trkpt lat="52.145693991333246" lon="-7.995112035423517">
        <ele>29.460000000000001</ele>
        <time>2026-06-26T14:49:25Z</time>
      </trkpt>
      <trkpt lat="52.145625008270144" lon="-7.995395008474588">
        <ele>30.420000000000002</ele>
        <time>2026-06-26T14:49:26Z</time>
      </trkpt>
      <trkpt lat="52.145556025207043" lon="-7.99567798152566">
        <ele>31.379999999999999</ele>
        <time>2026-06-26T14:49:27Z</time>
      </trkpt>
      <trkpt lat="52.145361984148622" lon="-7.996477028355002">
        <ele>33.780000000000001</ele>
        <time>2026-06-26T14:49:30Z</time>
      </trkpt>
      <trkpt lat="52.145262993872166" lon="-7.997040040791035">
        <ele>34.259999999999998</ele>
        <time>2026-06-26T14:49:32Z</time>
      </trkpt>
      <trkpt lat="52.145128967240453" lon="-7.999411029741168">
        <ele>32.340000000000003</ele>
        <time>2026-06-26T14:49:40Z</time>
      </trkpt>
      <trkpt lat="52.145065013319254" lon="-8.001241972669959">
        <ele>31.859999999999999</ele>
        <time>2026-06-26T14:49:46Z</time>
      </trkpt>
      <trkpt lat="52.145074987784028" lon="-8.001546990126371">
        <ele>31.859999999999999</ele>
        <time>2026-06-26T14:49:47Z</time>
      </trkpt>
      <trkpt lat="52.145092003047466" lon="-8.00184203311801">
        <ele>31.859999999999999</ele>
        <time>2026-06-26T14:49:48Z</time>
      </trkpt>
      <trkpt lat="52.145127961412072" lon="-8.002455001696944">
        <ele>32.340000000000003</ele>
        <time>2026-06-26T14:49:50Z</time>
      </trkpt>
      <trkpt lat="52.145179007202387" lon="-8.003320014104247">
        <ele>32.340000000000003</ele>
        <time>2026-06-26T14:49:53Z</time>
      </trkpt>
      <trkpt lat="52.145327031612396" lon="-8.005192028358579">
        <ele>27.530000000000001</ele>
        <time>2026-06-26T14:50:00Z</time>
      </trkpt>
      <trkpt lat="52.145860036835074" lon="-8.007392026484013">
        <ele>24.649999999999999</ele>
        <time>2026-06-26T14:50:08Z</time>
      </trkpt>
      <trkpt lat="52.146694036200643" lon="-8.010049005970359">
        <ele>27.050000000000001</ele>
        <time>2026-06-26T14:50:18Z</time>
      </trkpt>
      <trkpt lat="52.147500962018967" lon="-8.012555027380586">
        <ele>32.340000000000003</ele>
        <time>2026-06-26T14:50:28Z</time>
      </trkpt>
      <trkpt lat="52.147810002788901" lon="-8.014076007530093">
        <ele>34.259999999999998</ele>
        <time>2026-06-26T14:50:34Z</time>
      </trkpt>
      <trkpt lat="52.147920979186893" lon="-8.015705030411482">
        <ele>35.229999999999997</ele>
        <time>2026-06-26T14:50:40Z</time>
      </trkpt>
      <trkpt lat="52.148094987496734" lon="-8.018269976601005">
        <ele>31.859999999999999</ele>
        <time>2026-06-26T14:50:48Z</time>
      </trkpt>
      <trkpt lat="52.148119965568185" lon="-8.019126020371914">
        <ele>29.940000000000001</ele>
        <time>2026-06-26T14:50:51Z</time>
      </trkpt>
      <trkpt lat="52.148110996931791" lon="-8.019412010908127">
        <ele>28.98</ele>
        <time>2026-06-26T14:50:52Z</time>
      </trkpt>
      <trkpt lat="52.147915028035641" lon="-8.02107397466898">
        <ele>22.25</ele>
        <time>2026-06-26T14:50:58Z</time>
      </trkpt>
      <trkpt lat="52.147884014993906" lon="-8.023888031020761">
        <ele>19.84</ele>
        <time>2026-06-26T14:51:07Z</time>
      </trkpt>
      <trkpt lat="52.147816959768534" lon="-8.02702403627336">
        <ele>16.960000000000001</ele>
        <time>2026-06-26T14:51:17Z</time>
      </trkpt>
      <trkpt lat="52.14774202555418" lon="-8.028171015903354">
        <ele>15.039999999999999</ele>
        <time>2026-06-26T14:51:21Z</time>
      </trkpt>
      <trkpt lat="52.147537004202604" lon="-8.029599040746689">
        <ele>13.119999999999999</ele>
        <time>2026-06-26T14:51:26Z</time>
      </trkpt>
      <trkpt lat="52.14748302474618" lon="-8.029889976605773">
        <ele>12.630000000000001</ele>
        <time>2026-06-26T14:51:27Z</time>
      </trkpt>
      <trkpt lat="52.147037023678422" lon="-8.031760985031724">
        <ele>10.710000000000001</ele>
        <time>2026-06-26T14:51:34Z</time>
      </trkpt>
      <trkpt lat="52.14696703478694" lon="-8.03203297778964">
        <ele>10.710000000000001</ele>
        <time>2026-06-26T14:51:35Z</time>
      </trkpt>
      <trkpt lat="52.146910037845373" lon="-8.032306982204318">
        <ele>10.710000000000001</ele>
        <time>2026-06-26T14:51:36Z</time>
      </trkpt>
      <trkpt lat="52.146869972348213" lon="-8.03258903324604">
        <ele>10.710000000000001</ele>
        <time>2026-06-26T14:51:37Z</time>
      </trkpt>
      <trkpt lat="52.146839965134859" lon="-8.03288902156055">
        <ele>10.710000000000001</ele>
        <time>2026-06-26T14:51:38Z</time>
      </trkpt>
      <trkpt lat="52.146761007606983" lon="-8.034641006961465">
        <ele>9.75</ele>
        <time>2026-06-26T14:51:44Z</time>
      </trkpt>
      <trkpt lat="52.146717002615333" lon="-8.036132985725999">
        <ele>10.710000000000001</ele>
        <time>2026-06-26T14:51:49Z</time>
      </trkpt>
      <trkpt lat="52.146865027025342" lon="-8.03854001685977">
        <ele>12.15</ele>
        <time>2026-06-26T14:51:57Z</time>
      </trkpt>
      <trkpt lat="52.146986983716488" lon="-8.039396982640028">
        <ele>12.630000000000001</ele>
        <time>2026-06-26T14:52:00Z</time>
      </trkpt>
      <trkpt lat="52.147300969809294" lon="-8.041948014870286">
        <ele>10.23</ele>
        <time>2026-06-26T14:52:09Z</time>
      </trkpt>
      <trkpt lat="52.147327959537506" lon="-8.042241968214512">
        <ele>10.23</ele>
        <time>2026-06-26T14:52:10Z</time>
      </trkpt>
      <trkpt lat="52.147688968107104" lon="-8.044968014582992">
        <ele>14.08</ele>
        <time>2026-06-26T14:52:19Z</time>
      </trkpt>
      <trkpt lat="52.147759962826967" lon="-8.047063993290067">
        <ele>15.52</ele>
        <time>2026-06-26T14:52:26Z</time>
      </trkpt>
      <trkpt lat="52.147760968655348" lon="-8.047375967726111">
        <ele>15.52</ele>
        <time>2026-06-26T14:52:27Z</time>
      </trkpt>
      <trkpt lat="52.147792987525463" lon="-8.04969297721982">
        <ele>16</ele>
        <time>2026-06-26T14:52:35Z</time>
      </trkpt>
      <trkpt lat="52.147817965596914" lon="-8.05119501426816">
        <ele>16.48</ele>
        <time>2026-06-26T14:52:42Z</time>
      </trkpt>
      <trkpt lat="52.147816037759185" lon="-8.051363993436098">
        <ele>16.48</ele>
        <time>2026-06-26T14:52:43Z</time>
      </trkpt>
      <trkpt lat="52.147808996960521" lon="-8.051975034177303">
        <ele>16.960000000000001</ele>
        <time>2026-06-26T14:52:47Z</time>
      </trkpt>
      <trkpt lat="52.147808996960521" lon="-8.052132027223706">
        <ele>16.48</ele>
        <time>2026-06-26T14:52:48Z</time>
      </trkpt>
      <trkpt lat="52.147808996960521" lon="-8.052455987781286">
        <ele>15.039999999999999</ele>
        <time>2026-06-26T14:52:50Z</time>
      </trkpt>
      <trkpt lat="52.147808996960521" lon="-8.05261499248445">
        <ele>14.56</ele>
        <time>2026-06-26T14:52:51Z</time>
      </trkpt>
      <trkpt lat="52.147872028872371" lon="-8.05289302021265">
        <ele>13.119999999999999</ele>
        <time>2026-06-26T14:52:53Z</time>
      </trkpt>
      <trkpt lat="52.147916033864021" lon="-8.053042972460389">
        <ele>13.119999999999999</ele>
        <time>2026-06-26T14:52:54Z</time>
      </trkpt>
      <trkpt lat="52.147965990006924" lon="-8.053164007142186">
        <ele>13.119999999999999</ele>
        <time>2026-06-26T14:52:55Z</time>
      </trkpt>
      <trkpt lat="52.148018041625619" lon="-8.053289987146854">
        <ele>13.119999999999999</ele>
        <time>2026-06-26T14:52:56Z</time>
      </trkpt>
      <trkpt lat="52.148071015253663" lon="-8.053418984636664">
        <ele>13.6</ele>
        <time>2026-06-26T14:52:57Z</time>
      </trkpt>
      <trkpt lat="52.148463958874345" lon="-8.054465968161821">
        <ele>16</ele>
        <time>2026-06-26T14:53:05Z</time>
      </trkpt>
      <trkpt lat="52.14873100630939" lon="-8.056294983252883">
        <ele>14.08</ele>
        <time>2026-06-26T14:53:14Z</time>
      </trkpt>
      <trkpt lat="52.149088997393847" lon="-8.059034021571279">
        <ele>17.440000000000001</ele>
        <time>2026-06-26T14:53:25Z</time>
      </trkpt>
      <trkpt lat="52.149294018745422" lon="-8.061816981062293">
        <ele>24.649999999999999</ele>
        <time>2026-06-26T14:53:35Z</time>
      </trkpt>
      <trkpt lat="52.149268034845591" lon="-8.062076987698674">
        <ele>24.170000000000002</ele>
        <time>2026-06-26T14:53:36Z</time>
      </trkpt>
      <trkpt lat="52.149219000712037" lon="-8.06228200905025">
        <ele>23.690000000000001</ele>
        <time>2026-06-26T14:53:37Z</time>
      </trkpt>
      <trkpt lat="52.149047004058957" lon="-8.062997991219163">
        <ele>23.210000000000001</ele>
        <time>2026-06-26T14:53:40Z</time>
      </trkpt>
      <trkpt lat="52.14900903403759" lon="-8.063260009512305">
        <ele>22.73</ele>
        <time>2026-06-26T14:53:41Z</time>
      </trkpt>
      <trkpt lat="52.148840976879001" lon="-8.064919039607048">
        <ele>18.399999999999999</ele>
        <time>2026-06-26T14:53:47Z</time>
      </trkpt>
      <trkpt lat="52.148843994364142" lon="-8.06522699072957">
        <ele>16.960000000000001</ele>
        <time>2026-06-26T14:53:48Z</time>
      </trkpt>
      <trkpt lat="52.148847011849284" lon="-8.065543994307518">
        <ele>16</ele>
        <time>2026-06-26T14:53:49Z</time>
      </trkpt>
      <trkpt lat="52.148737963289022" lon="-8.068329971283674">
        <ele>19.359999999999999</ele>
        <time>2026-06-26T14:53:58Z</time>
      </trkpt>
      <trkpt lat="52.148676021024585" lon="-8.069500001147389">
        <ele>20.809999999999999</ele>
        <time>2026-06-26T14:54:02Z</time>
      </trkpt>
      <trkpt lat="52.148683983832598" lon="-8.069776017218828">
        <ele>21.289999999999999</ele>
        <time>2026-06-26T14:54:03Z</time>
      </trkpt>
      <trkpt lat="52.148708961904049" lon="-8.070623008534312">
        <ele>22.25</ele>
        <time>2026-06-26T14:54:06Z</time>
      </trkpt>
      <trkpt lat="52.148671997711062" lon="-8.070902964100242">
        <ele>22.25</ele>
        <time>2026-06-26T14:54:07Z</time>
      </trkpt>
      <trkpt lat="52.148266984149814" lon="-8.073429018259049">
        <ele>21.289999999999999</ele>
        <time>2026-06-26T14:54:17Z</time>
      </trkpt>
      <trkpt lat="52.148047965019941" lon="-8.074758974835277">
        <ele>17.920000000000002</ele>
        <time>2026-06-26T14:54:22Z</time>
      </trkpt>
      <trkpt lat="52.148057017475367" lon="-8.075033985078335">
        <ele>16.960000000000001</ele>
        <time>2026-06-26T14:54:23Z</time>
      </trkpt>
      <trkpt lat="52.14806598611176" lon="-8.075311006978154">
        <ele>16</ele>
        <time>2026-06-26T14:54:24Z</time>
      </trkpt>
      <trkpt lat="52.148075038567185" lon="-8.075591968372464">
        <ele>14.56</ele>
        <time>2026-06-26T14:54:25Z</time>
      </trkpt>
      <trkpt lat="52.148084007203579" lon="-8.075878964737058">
        <ele>13.6</ele>
        <time>2026-06-26T14:54:26Z</time>
      </trkpt>
      <trkpt lat="52.148074032738805" lon="-8.076155986636877">
        <ele>12.630000000000001</ele>
        <time>2026-06-26T14:54:27Z</time>
      </trkpt>
      <trkpt lat="52.147986022755504" lon="-8.078681034967303">
        <ele>9.27</ele>
        <time>2026-06-26T14:54:36Z</time>
      </trkpt>
      <trkpt lat="52.148015024140477" lon="-8.079778980463743">
        <ele>10.710000000000001</ele>
        <time>2026-06-26T14:54:40Z</time>
      </trkpt>
      <trkpt lat="52.148066991940141" lon="-8.080039992928505">
        <ele>11.19</ele>
        <time>2026-06-26T14:54:41Z</time>
      </trkpt>
      <trkpt lat="52.148135975003242" lon="-8.080298993736506">
        <ele>11.67</ele>
        <time>2026-06-26T14:54:42Z</time>
      </trkpt>
      <trkpt lat="52.14821501635015" lon="-8.080551959574223">
        <ele>12.630000000000001</ele>
        <time>2026-06-26T14:54:43Z</time>
      </trkpt>
      <trkpt lat="52.148295985534787" lon="-8.080813977867365">
        <ele>13.119999999999999</ele>
        <time>2026-06-26T14:54:44Z</time>
      </trkpt>
      <trkpt lat="52.148878024891019" lon="-8.083256967365742">
        <ele>15.039999999999999</ele>
        <time>2026-06-26T14:54:53Z</time>
      </trkpt>
      <trkpt lat="52.148930998519063" lon="-8.083814028650522">
        <ele>16</ele>
        <time>2026-06-26T14:54:55Z</time>
      </trkpt>
      <trkpt lat="52.148939967155457" lon="-8.084089960902929">
        <ele>16.960000000000001</ele>
        <time>2026-06-26T14:54:56Z</time>
      </trkpt>
      <trkpt lat="52.149050021544099" lon="-8.08694701641798">
        <ele>15.52</ele>
        <time>2026-06-26T14:55:06Z</time>
      </trkpt>
      <trkpt lat="52.149066030979156" lon="-8.089213985949755">
        <ele>15.039999999999999</ele>
        <time>2026-06-26T14:55:14Z</time>
      </trkpt>
      <trkpt lat="52.148990007117391" lon="-8.090333975851536">
        <ele>15.039999999999999</ele>
        <time>2026-06-26T14:55:18Z</time>
      </trkpt>
      <trkpt lat="52.148799989372492" lon="-8.09313596226275">
        <ele>17.920000000000002</ele>
        <time>2026-06-26T14:55:28Z</time>
      </trkpt>
      <trkpt lat="52.148713991045952" lon="-8.094870010390878">
        <ele>16.48</ele>
        <time>2026-06-26T14:55:34Z</time>
      </trkpt>
      <trkpt lat="52.1487080398947" lon="-8.09515499509871">
        <ele>16.960000000000001</ele>
        <time>2026-06-26T14:55:35Z</time>
      </trkpt>
      <trkpt lat="52.148563032969832" lon="-8.097622962668538">
        <ele>17.920000000000002</ele>
        <time>2026-06-26T14:55:44Z</time>
      </trkpt>
      <trkpt lat="52.148334961384535" lon="-8.100592000409961">
        <ele>18.399999999999999</ele>
        <time>2026-06-26T14:55:54Z</time>
      </trkpt>
      <trkpt lat="52.148336973041296" lon="-8.101162975654006">
        <ele>17.920000000000002</ele>
        <time>2026-06-26T14:55:56Z</time>
      </trkpt>
      <trkpt lat="52.14855900965631" lon="-8.103395998477936">
        <ele>16.48</ele>
        <time>2026-06-26T14:56:04Z</time>
      </trkpt>
      <trkpt lat="52.148377038538456" lon="-8.105794982984662">
        <ele>15.52</ele>
        <time>2026-06-26T14:56:12Z</time>
      </trkpt>
      <trkpt lat="52.148099010810256" lon="-8.109497018158436">
        <ele>17.920000000000002</ele>
        <time>2026-06-26T14:56:24Z</time>
      </trkpt>
      <trkpt lat="52.147747976705432" lon="-8.111919974908233">
        <ele>18.399999999999999</ele>
        <time>2026-06-26T14:56:32Z</time>
      </trkpt>
      <trkpt lat="52.146697975695133" lon="-8.11532998457551">
        <ele>19.359999999999999</ele>
        <time>2026-06-26T14:56:44Z</time>
      </trkpt>
      <trkpt lat="52.146418020129204" lon="-8.116459026932716">
        <ele>19.359999999999999</ele>
        <time>2026-06-26T14:56:48Z</time>
      </trkpt>
      <trkpt lat="52.146118031814694" lon="-8.119448013603687">
        <ele>17.920000000000002</ele>
        <time>2026-06-26T14:56:58Z</time>
      </trkpt>
      <trkpt lat="52.146235965192318" lon="-8.121592020615935">
        <ele>19.84</ele>
        <time>2026-06-26T14:57:05Z</time>
      </trkpt>
      <trkpt lat="52.146436963230371" lon="-8.123379964381456">
        <ele>21.77</ele>
        <time>2026-06-26T14:57:11Z</time>
      </trkpt>
      <trkpt lat="52.146535031497478" lon="-8.123955968767405">
        <ele>21.289999999999999</ele>
        <time>2026-06-26T14:57:13Z</time>
      </trkpt>
      <trkpt lat="52.14658297598362" lon="-8.124236008152366">
        <ele>20.32</ele>
        <time>2026-06-26T14:57:14Z</time>
      </trkpt>
      <trkpt lat="52.146633015945554" lon="-8.124529039487243">
        <ele>19.84</ele>
        <time>2026-06-26T14:57:15Z</time>
      </trkpt>
      <trkpt lat="52.146719014272094" lon="-8.126332992687821">
        <ele>18.399999999999999</ele>
        <time>2026-06-26T14:57:21Z</time>
      </trkpt>
      <trkpt lat="52.146731000393629" lon="-8.126969011500478">
        <ele>18.399999999999999</ele>
        <time>2026-06-26T14:57:23Z</time>
      </trkpt>
      <trkpt lat="52.146735023707151" lon="-8.127290960401297">
        <ele>18.399999999999999</ele>
        <time>2026-06-26T14:57:24Z</time>
      </trkpt>
      <trkpt lat="52.14673200622201" lon="-8.127891020849347">
        <ele>19.359999999999999</ele>
        <time>2026-06-26T14:57:26Z</time>
      </trkpt>
      <trkpt lat="52.146729994565248" lon="-8.128184974193573">
        <ele>19.359999999999999</ele>
        <time>2026-06-26T14:57:27Z</time>
      </trkpt>
      <trkpt lat="52.146719014272094" lon="-8.130110967904329">
        <ele>20.32</ele>
        <time>2026-06-26T14:57:33Z</time>
      </trkpt>
      <trkpt lat="52.146717002615333" lon="-8.130427971482277">
        <ele>19.84</ele>
        <time>2026-06-26T14:57:34Z</time>
      </trkpt>
      <trkpt lat="52.146714990958571" lon="-8.130761990323663">
        <ele>20.32</ele>
        <time>2026-06-26T14:57:35Z</time>
      </trkpt>
      <trkpt lat="52.146709961816669" lon="-8.131066001951695">
        <ele>20.32</ele>
        <time>2026-06-26T14:57:36Z</time>
      </trkpt>
      <trkpt lat="52.146703004837036" lon="-8.131364984437823">
        <ele>21.289999999999999</ele>
        <time>2026-06-26T14:57:37Z</time>
      </trkpt>
      <trkpt lat="52.146697975695133" lon="-8.133555008098483">
        <ele>22.73</ele>
        <time>2026-06-26T14:57:44Z</time>
      </trkpt>
      <trkpt lat="52.146736029535532" lon="-8.134774994105101">
        <ele>22.25</ele>
        <time>2026-06-26T14:57:48Z</time>
      </trkpt>
      <trkpt lat="52.146675009280443" lon="-8.13505201600492">
        <ele>21.77</ele>
        <time>2026-06-26T14:57:49Z</time>
      </trkpt>
      <trkpt lat="52.146614994853735" lon="-8.135328032076359">
        <ele>21.77</ele>
        <time>2026-06-26T14:57:50Z</time>
      </trkpt>
      <trkpt lat="52.146552968770266" lon="-8.135607987642288">
        <ele>21.289999999999999</ele>
        <time>2026-06-26T14:57:51Z</time>
      </trkpt>
      <trkpt lat="52.146464036777616" lon="-8.135860031470656">
        <ele>21.289999999999999</ele>
        <time>2026-06-26T14:57:52Z</time>
      </trkpt>
      <trkpt lat="52.146006971597672" lon="-8.137090997770429">
        <ele>20.32</ele>
        <time>2026-06-26T14:57:57Z</time>
      </trkpt>
      <trkpt lat="52.145899012684822" lon="-8.137650992721319">
        <ele>20.32</ele>
        <time>2026-06-26T14:57:59Z</time>
      </trkpt>
      <trkpt lat="52.145599024370313" lon="-8.140529002994299">
        <ele>23.210000000000001</ele>
        <time>2026-06-26T14:58:08Z</time>
      </trkpt>
      <trkpt lat="52.145579997450113" lon="-8.140823040157557">
        <ele>23.210000000000001</ele>
        <time>2026-06-26T14:58:09Z</time>
      </trkpt>
      <trkpt lat="52.14559500105679" lon="-8.141117999330163">
        <ele>23.690000000000001</ele>
        <time>2026-06-26T14:58:10Z</time>
      </trkpt>
      <trkpt lat="52.145656021311879" lon="-8.141958033666015">
        <ele>23.690000000000001</ele>
        <time>2026-06-26T14:58:13Z</time>
      </trkpt>
      <trkpt lat="52.145634982734919" lon="-8.142226003110409">
        <ele>23.690000000000001</ele>
        <time>2026-06-26T14:58:14Z</time>
      </trkpt>
      <trkpt lat="52.145591983571649" lon="-8.142494978383184">
        <ele>23.210000000000001</ele>
        <time>2026-06-26T14:58:15Z</time>
      </trkpt>
      <trkpt lat="52.145547978579998" lon="-8.142765965312719">
        <ele>23.210000000000001</ele>
        <time>2026-06-26T14:58:16Z</time>
      </trkpt>
      <trkpt lat="52.145503973588347" lon="-8.143040975555778">
        <ele>23.210000000000001</ele>
        <time>2026-06-26T14:58:17Z</time>
      </trkpt>
      <trkpt lat="52.145433984696865" lon="-8.143306011334062">
        <ele>22.73</ele>
        <time>2026-06-26T14:58:18Z</time>
      </trkpt>
      <trkpt lat="52.145353015512228" lon="-8.143567023798823">
        <ele>22.73</ele>
        <time>2026-06-26T14:58:19Z</time>
      </trkpt>
      <trkpt lat="52.145271962508559" lon="-8.143828958272934">
        <ele>22.73</ele>
        <time>2026-06-26T14:58:20Z</time>
      </trkpt>
      <trkpt lat="52.145109018310905" lon="-8.14435500651598">
        <ele>21.77</ele>
        <time>2026-06-26T14:58:22Z</time>
      </trkpt>
      <trkpt lat="52.145065013319254" lon="-8.144648037850857">
        <ele>21.77</ele>
        <time>2026-06-26T14:58:23Z</time>
      </trkpt>
      <trkpt lat="52.145023019984365" lon="-8.144941991195083">
        <ele>21.289999999999999</ele>
        <time>2026-06-26T14:58:24Z</time>
      </trkpt>
      <trkpt lat="52.145003993064165" lon="-8.145248014479876">
        <ele>21.289999999999999</ele>
        <time>2026-06-26T14:58:25Z</time>
      </trkpt>
      <trkpt lat="52.144986977800727" lon="-8.145555965602398">
        <ele>21.289999999999999</ele>
        <time>2026-06-26T14:58:26Z</time>
      </trkpt>
      <trkpt lat="52.144927969202399" lon="-8.146787015721202">
        <ele>20.32</ele>
        <time>2026-06-26T14:58:30Z</time>
      </trkpt>
      <trkpt lat="52.144881030544639" lon="-8.147081974893808">
        <ele>20.32</ele>
        <time>2026-06-26T14:58:31Z</time>
      </trkpt>
      <trkpt lat="52.144785979762673" lon="-8.147671977058053">
        <ele>20.32</ele>
        <time>2026-06-26T14:58:33Z</time>
      </trkpt>
      <trkpt lat="52.144762007519603" lon="-8.147959979251027">
        <ele>20.809999999999999</ele>
        <time>2026-06-26T14:58:34Z</time>
      </trkpt>
      <trkpt lat="52.144762007519603" lon="-8.148258961737156">
        <ele>20.809999999999999</ele>
        <time>2026-06-26T14:58:35Z</time>
      </trkpt>
      <trkpt lat="52.144762007519603" lon="-8.148560961708427">
        <ele>20.809999999999999</ele>
        <time>2026-06-26T14:58:36Z</time>
      </trkpt>
      <trkpt lat="52.144762007519603" lon="-8.148864973336458">
        <ele>20.809999999999999</ele>
        <time>2026-06-26T14:58:37Z</time>
      </trkpt>
      <trkpt lat="52.144963005557656" lon="-8.151054996997118">
        <ele>20.809999999999999</ele>
        <time>2026-06-26T14:58:44Z</time>
      </trkpt>
      <trkpt lat="52.145133996382356" lon="-8.153156004846096">
        <ele>22.25</ele>
        <time>2026-06-26T14:58:51Z</time>
      </trkpt>
      <trkpt lat="52.145190993323922" lon="-8.15423701889813">
        <ele>23.210000000000001</ele>
        <time>2026-06-26T14:58:55Z</time>
      </trkpt>
      <trkpt lat="52.145255031064153" lon="-8.154493002220988">
        <ele>22.73</ele>
        <time>2026-06-26T14:58:56Z</time>
      </trkpt>
      <trkpt lat="52.145322002470493" lon="-8.154756026342511">
        <ele>22.25</ele>
        <time>2026-06-26T14:58:57Z</time>
      </trkpt>
      <trkpt lat="52.14559500105679" lon="-8.155835028737783">
        <ele>22.73</ele>
        <time>2026-06-26T14:59:01Z</time>
      </trkpt>
      <trkpt lat="52.145645963028073" lon="-8.156089000403881">
        <ele>22.73</ele>
        <time>2026-06-26T14:59:02Z</time>
      </trkpt>
      <trkpt lat="52.14566096663475" lon="-8.156357975676656">
        <ele>22.73</ele>
        <time>2026-06-26T14:59:03Z</time>
      </trkpt>
      <trkpt lat="52.145676976069808" lon="-8.156626028940082">
        <ele>22.73</ele>
        <time>2026-06-26T14:59:04Z</time>
      </trkpt>
      <trkpt lat="52.145664989948273" lon="-8.156896010041237">
        <ele>22.73</ele>
        <time>2026-06-26T14:59:05Z</time>
      </trkpt>
      <trkpt lat="52.145628025755286" lon="-8.157173031941056">
        <ele>22.25</ele>
        <time>2026-06-26T14:59:06Z</time>
      </trkpt>
      <trkpt lat="52.145318984985352" lon="-8.159515019506216">
        <ele>22.25</ele>
        <time>2026-06-26T14:59:14Z</time>
      </trkpt>
      <trkpt lat="52.145299036055803" lon="-8.161603035405278">
        <ele>24.170000000000002</ele>
        <time>2026-06-26T14:59:21Z</time>
      </trkpt>
      <trkpt lat="52.145241033285856" lon="-8.162161018699408">
        <ele>25.129999999999999</ele>
        <time>2026-06-26T14:59:23Z</time>
      </trkpt>
      <trkpt lat="52.145089991390705" lon="-8.163309004157782">
        <ele>26.57</ele>
        <time>2026-06-26T14:59:27Z</time>
      </trkpt>
      <trkpt lat="52.145088985562325" lon="-8.163603963330388">
        <ele>26.57</ele>
        <time>2026-06-26T14:59:28Z</time>
      </trkpt>
      <trkpt lat="52.145095020532608" lon="-8.163911998271942">
        <ele>26.57</ele>
        <time>2026-06-26T14:59:29Z</time>
      </trkpt>
      <trkpt lat="52.145324014127254" lon="-8.1667669583112">
        <ele>27.050000000000001</ele>
        <time>2026-06-26T14:59:38Z</time>
      </trkpt>
      <trkpt lat="52.145532974973321" lon="-8.169057983905077">
        <ele>25.129999999999999</ele>
        <time>2026-06-26T14:59:46Z</time>
      </trkpt>
      <trkpt lat="52.145951986312866" lon="-8.171657966449857">
        <ele>25.129999999999999</ele>
        <time>2026-06-26T14:59:55Z</time>
      </trkpt>
      <trkpt lat="52.146369991824031" lon="-8.174417037516832">
        <ele>23.690000000000001</ele>
        <time>2026-06-26T15:00:04Z</time>
      </trkpt>
      <trkpt lat="52.146351970732212" lon="-8.176951976493001">
        <ele>22.73</ele>
        <time>2026-06-26T15:00:12Z</time>
      </trkpt>
      <trkpt lat="52.146263960748911" lon="-8.179165972396731">
        <ele>22.25</ele>
        <time>2026-06-26T15:00:19Z</time>
      </trkpt>
      <trkpt lat="52.146322969347239" lon="-8.179791010916233">
        <ele>22.25</ele>
        <time>2026-06-26T15:00:21Z</time>
      </trkpt>
      <trkpt lat="52.14638901874423" lon="-8.180068032816052">
        <ele>22.25</ele>
        <time>2026-06-26T15:00:22Z</time>
      </trkpt>
      <trkpt lat="52.146463030949235" lon="-8.180350000038743">
        <ele>22.25</ele>
        <time>2026-06-26T15:00:23Z</time>
      </trkpt>
      <trkpt lat="52.146743992343545" lon="-8.181113004684448">
        <ele>23.210000000000001</ele>
        <time>2026-06-26T15:00:26Z</time>
      </trkpt>
      <trkpt lat="52.146864021196961" lon="-8.181309979408979">
        <ele>23.210000000000001</ele>
        <time>2026-06-26T15:00:27Z</time>
      </trkpt>
      <trkpt lat="52.147000981494784" lon="-8.181481976062059">
        <ele>23.690000000000001</ele>
        <time>2026-06-26T15:00:28Z</time>
      </trkpt>
      <trkpt lat="52.147146994248033" lon="-8.181603010743856">
        <ele>23.690000000000001</ele>
        <time>2026-06-26T15:00:29Z</time>
      </trkpt>
      <trkpt lat="52.14731203392148" lon="-8.181696971878409">
        <ele>24.170000000000002</ele>
        <time>2026-06-26T15:00:30Z</time>
      </trkpt>
      <trkpt lat="52.14748403057456" lon="-8.181795040145516">
        <ele>24.170000000000002</ele>
        <time>2026-06-26T15:00:31Z</time>
      </trkpt>
      <trkpt lat="52.14765502139926" lon="-8.181892018765211">
        <ele>24.170000000000002</ele>
        <time>2026-06-26T15:00:32Z</time>
      </trkpt>
      <trkpt lat="52.148776017129421" lon="-8.182859960943461">
        <ele>24.649999999999999</ele>
        <time>2026-06-26T15:00:39Z</time>
      </trkpt>
      <trkpt lat="52.148917000740767" lon="-8.183032963424921">
        <ele>24.649999999999999</ele>
        <time>2026-06-26T15:00:40Z</time>
      </trkpt>
      <trkpt lat="52.149053039029241" lon="-8.183202026411891">
        <ele>24.649999999999999</ele>
        <time>2026-06-26T15:00:41Z</time>
      </trkpt>
      <trkpt lat="52.149844961240888" lon="-8.184929033741355">
        <ele>24.649999999999999</ele>
        <time>2026-06-26T15:00:49Z</time>
      </trkpt>
      <trkpt lat="52.150032967329025" lon="-8.185658007860184">
        <ele>24.170000000000002</ele>
        <time>2026-06-26T15:00:52Z</time>
      </trkpt>
      <trkpt lat="52.150089964270592" lon="-8.185903010889888">
        <ele>24.170000000000002</ele>
        <time>2026-06-26T15:00:53Z</time>
      </trkpt>
      <trkpt lat="52.150133969262242" lon="-8.186153965070844">
        <ele>24.170000000000002</ele>
        <time>2026-06-26T15:00:54Z</time>
      </trkpt>
      <trkpt lat="52.15036204084754" lon="-8.18850701674819">
        <ele>25.609999999999999</ele>
        <time>2026-06-26T15:01:02Z</time>
      </trkpt>
      <trkpt lat="52.150661023333669" lon="-8.189965970814228">
        <ele>25.129999999999999</ele>
        <time>2026-06-26T15:01:07Z</time>
      </trkpt>
      <trkpt lat="52.150755990296602" lon="-8.190241986885667">
        <ele>24.649999999999999</ele>
        <time>2026-06-26T15:01:08Z</time>
      </trkpt>
      <trkpt lat="52.150869984179735" lon="-8.190492019057274">
        <ele>24.170000000000002</ele>
        <time>2026-06-26T15:01:09Z</time>
      </trkpt>
      <trkpt lat="52.151317996904254" lon="-8.191496003419161">
        <ele>22.25</ele>
        <time>2026-06-26T15:01:13Z</time>
      </trkpt>
      <trkpt lat="52.151406006887555" lon="-8.191750980913639">
        <ele>21.77</ele>
        <time>2026-06-26T15:01:14Z</time>
      </trkpt>
      <trkpt lat="52.151490999385715" lon="-8.191996989771724">
        <ele>20.809999999999999</ele>
        <time>2026-06-26T15:01:15Z</time>
      </trkpt>
      <trkpt lat="52.15219197794795" lon="-8.194623040035367">
        <ele>19.84</ele>
        <time>2026-06-26T15:01:25Z</time>
      </trkpt>
      <trkpt lat="52.152660023421049" lon="-8.197653014212847">
        <ele>21.289999999999999</ele>
        <time>2026-06-26T15:01:35Z</time>
      </trkpt>
      <trkpt lat="52.152721965685487" lon="-8.198571000248194">
        <ele>20.809999999999999</ele>
        <time>2026-06-26T15:01:38Z</time>
      </trkpt>
      <trkpt lat="52.152716014534235" lon="-8.198886997997761">
        <ele>21.289999999999999</ele>
        <time>2026-06-26T15:01:39Z</time>
      </trkpt>
      <trkpt lat="52.152334973216057" lon="-8.201684961095452">
        <ele>21.289999999999999</ele>
        <time>2026-06-26T15:01:48Z</time>
      </trkpt>
      <trkpt lat="52.152209999039769" lon="-8.202621974050999">
        <ele>21.77</ele>
        <time>2026-06-26T15:01:51Z</time>
      </trkpt>
      <trkpt lat="52.152183009311557" lon="-8.202927997335792">
        <ele>21.289999999999999</ele>
        <time>2026-06-26T15:01:52Z</time>
      </trkpt>
      <trkpt lat="52.152313012629747" lon="-8.205035962164402">
        <ele>21.77</ele>
        <time>2026-06-26T15:01:59Z</time>
      </trkpt>
      <trkpt lat="52.15274702757597" lon="-8.20732899941504">
        <ele>22.73</ele>
        <time>2026-06-26T15:02:07Z</time>
      </trkpt>
      <trkpt lat="52.15369401499629" lon="-8.210025038570166">
        <ele>20.809999999999999</ele>
        <time>2026-06-26T15:02:17Z</time>
      </trkpt>
      <trkpt lat="52.155051967129111" lon="-8.213787004351616">
        <ele>20.32</ele>
        <time>2026-06-26T15:02:31Z</time>
      </trkpt>
      <trkpt lat="52.156459037214518" lon="-8.217243030667305">
        <ele>22.25</ele>
        <time>2026-06-26T15:02:44Z</time>
      </trkpt>
      <trkpt lat="52.157711964100599" lon="-8.22011198848486">
        <ele>25.129999999999999</ele>
        <time>2026-06-26T15:02:54Z</time>
      </trkpt>
      <trkpt lat="52.158424006775022" lon="-8.221844024956226">
        <ele>24.170000000000002</ele>
        <time>2026-06-26T15:03:01Z</time>
      </trkpt>
      <trkpt lat="52.158479997888207" lon="-8.222081987187266">
        <ele>24.170000000000002</ele>
        <time>2026-06-26T15:03:02Z</time>
      </trkpt>
      <trkpt lat="52.158505981788039" lon="-8.222320033237338">
        <ele>24.170000000000002</ele>
        <time>2026-06-26T15:03:03Z</time>
      </trkpt>
      <trkpt lat="52.158481003716588" lon="-8.222537040710449">
        <ele>23.690000000000001</ele>
        <time>2026-06-26T15:03:04Z</time>
      </trkpt>
      <trkpt lat="52.158458037301898" lon="-8.222738038748503">
        <ele>23.690000000000001</ele>
        <time>2026-06-26T15:03:05Z</time>
      </trkpt>
      <trkpt lat="52.158380001783371" lon="-8.222890002653003">
        <ele>23.210000000000001</ele>
        <time>2026-06-26T15:03:06Z</time>
      </trkpt>
      <trkpt lat="52.158288974314928" lon="-8.223011959344149">
        <ele>23.210000000000001</ele>
        <time>2026-06-26T15:03:07Z</time>
      </trkpt>
      <trkpt lat="52.158193001523614" lon="-8.223139028996229">
        <ele>23.210000000000001</ele>
        <time>2026-06-26T15:03:08Z</time>
      </trkpt>
      <trkpt lat="52.158090993762016" lon="-8.223275989294052">
        <ele>23.210000000000001</ele>
        <time>2026-06-26T15:03:09Z</time>
      </trkpt>
      <trkpt lat="52.158000972121954" lon="-8.223395012319088">
        <ele>23.690000000000001</ele>
        <time>2026-06-26T15:03:10Z</time>
      </trkpt>
      <trkpt lat="52.15790600515902" lon="-8.223598022013903">
        <ele>23.690000000000001</ele>
        <time>2026-06-26T15:03:11Z</time>
      </trkpt>
      <trkpt lat="52.157824030146003" lon="-8.223787033930421">
        <ele>24.170000000000002</ele>
        <time>2026-06-26T15:03:12Z</time>
      </trkpt>
      <trkpt lat="52.15777600184083" lon="-8.224016027525067">
        <ele>24.170000000000002</ele>
        <time>2026-06-26T15:03:13Z</time>
      </trkpt>
      <trkpt lat="52.157735014334321" lon="-8.224248960614204">
        <ele>24.649999999999999</ele>
        <time>2026-06-26T15:03:14Z</time>
      </trkpt>
      <trkpt lat="52.157709030434489" lon="-8.224478960037231">
        <ele>25.129999999999999</ele>
        <time>2026-06-26T15:03:15Z</time>
      </trkpt>
      <trkpt lat="52.157719004899263" lon="-8.224722035229206">
        <ele>25.609999999999999</ele>
        <time>2026-06-26T15:03:16Z</time>
      </trkpt>
      <trkpt lat="52.15782000683248" lon="-8.225646978244185">
        <ele>26.57</ele>
        <time>2026-06-26T15:03:20Z</time>
      </trkpt>
      <trkpt lat="52.157846996560693" lon="-8.225893992930651">
        <ele>26.57</ele>
        <time>2026-06-26T15:03:21Z</time>
      </trkpt>
      <trkpt lat="52.157835010439157" lon="-8.226123992353678">
        <ele>26.57</ele>
        <time>2026-06-26T15:03:22Z</time>
      </trkpt>
      <trkpt lat="52.157815983518958" lon="-8.226361032575369">
        <ele>26.57</ele>
        <time>2026-06-26T15:03:23Z</time>
      </trkpt>
      <trkpt lat="52.157782958820462" lon="-8.226596983149648">
        <ele>26.57</ele>
        <time>2026-06-26T15:03:24Z</time>
      </trkpt>
      <trkpt lat="52.157739037647843" lon="-8.226840980350971">
        <ele>26.57</ele>
        <time>2026-06-26T15:03:25Z</time>
      </trkpt>
      <trkpt lat="52.157657984644175" lon="-8.227279018610716">
        <ele>26.57</ele>
        <time>2026-06-26T15:03:27Z</time>
      </trkpt>
      <trkpt lat="52.157663013786077" lon="-8.227558974176645">
        <ele>26.57</ele>
        <time>2026-06-26T15:03:28Z</time>
      </trkpt>
      <trkpt lat="52.1576670370996" lon="-8.227797020226717">
        <ele>26.57</ele>
        <time>2026-06-26T15:03:29Z</time>
      </trkpt>
      <trkpt lat="52.15767097659409" lon="-8.228045962750912">
        <ele>26.57</ele>
        <time>2026-06-26T15:03:30Z</time>
      </trkpt>
      <trkpt lat="52.157674999907613" lon="-8.228303035721183">
        <ele>26.09</ele>
        <time>2026-06-26T15:03:31Z</time>
      </trkpt>
      <trkpt lat="52.157672988250852" lon="-8.228565976023674">
        <ele>26.09</ele>
        <time>2026-06-26T15:03:32Z</time>
      </trkpt>
      <trkpt lat="52.157638035714626" lon="-8.228818019852042">
        <ele>26.09</ele>
        <time>2026-06-26T15:03:33Z</time>
      </trkpt>
      <trkpt lat="52.157465033233166" lon="-8.230153005570173">
        <ele>27.530000000000001</ele>
        <time>2026-06-26T15:03:38Z</time>
      </trkpt>
      <trkpt lat="52.157447012141347" lon="-8.230430027469993">
        <ele>28.02</ele>
        <time>2026-06-26T15:03:39Z</time>
      </trkpt>
      <trkpt lat="52.157460004091263" lon="-8.23068399913609">
        <ele>28.5</ele>
        <time>2026-06-26T15:03:40Z</time>
      </trkpt>
      <trkpt lat="52.157508032396436" lon="-8.23089899495244">
        <ele>28.98</ele>
        <time>2026-06-26T15:03:41Z</time>
      </trkpt>
      <trkpt lat="52.157571986317635" lon="-8.231077026575804">
        <ele>28.98</ele>
        <time>2026-06-26T15:03:42Z</time>
      </trkpt>
      <trkpt lat="52.157654967159033" lon="-8.231252040714026">
        <ele>28.98</ele>
        <time>2026-06-26T15:03:43Z</time>
      </trkpt>
      <trkpt lat="52.157736020162702" lon="-8.231422025710344">
        <ele>28.98</ele>
        <time>2026-06-26T15:03:44Z</time>
      </trkpt>
      <trkpt lat="52.157792011275887" lon="-8.231593016535044">
        <ele>28.98</ele>
        <time>2026-06-26T15:03:45Z</time>
      </trkpt>
      <trkpt lat="52.157808020710945" lon="-8.231761995702982">
        <ele>28.5</ele>
        <time>2026-06-26T15:03:46Z</time>
      </trkpt>
      <trkpt lat="52.157782036811113" lon="-8.231928963214159">
        <ele>28.5</ele>
        <time>2026-06-26T15:03:47Z</time>
      </trkpt>
      <trkpt lat="52.15775303542614" lon="-8.232106994837523">
        <ele>28.02</ele>
        <time>2026-06-26T15:03:48Z</time>
      </trkpt>
      <trkpt lat="52.157724034041166" lon="-8.232291983440518">
        <ele>28.02</ele>
        <time>2026-06-26T15:03:49Z</time>
      </trkpt>
      <trkpt lat="52.157429996877909" lon="-8.234167015179992">
        <ele>27.050000000000001</ele>
        <time>2026-06-26T15:03:57Z</time>
      </trkpt>
      <trkpt lat="52.157143000513315" lon="-8.23700001463294">
        <ele>27.050000000000001</ele>
        <time>2026-06-26T15:04:07Z</time>
      </trkpt>
      <trkpt lat="52.157209971919656" lon="-8.237283993512392">
        <ele>27.050000000000001</ele>
        <time>2026-06-26T15:04:08Z</time>
      </trkpt>
      <trkpt lat="52.157269986346364" lon="-8.237541988492012">
        <ele>27.050000000000001</ele>
        <time>2026-06-26T15:04:09Z</time>
      </trkpt>
      <trkpt lat="52.157342992722988" lon="-8.237801995128393">
        <ele>27.530000000000001</ele>
        <time>2026-06-26T15:04:10Z</time>
      </trkpt>
      <trkpt lat="52.157439971342683" lon="-8.238049009814858">
        <ele>27.530000000000001</ele>
        <time>2026-06-26T15:04:11Z</time>
      </trkpt>
      <trkpt lat="52.158085964620113" lon="-8.23974802158773">
        <ele>26.57</ele>
        <time>2026-06-26T15:04:18Z</time>
      </trkpt>
      <trkpt lat="52.158127035945654" lon="-8.239950025454164">
        <ele>26.57</ele>
        <time>2026-06-26T15:04:19Z</time>
      </trkpt>
      <trkpt lat="52.158114966005087" lon="-8.240143982693553">
        <ele>26.57</ele>
        <time>2026-06-26T15:04:20Z</time>
      </trkpt>
      <trkpt lat="52.158090993762016" lon="-8.240331988781691">
        <ele>26.09</ele>
        <time>2026-06-26T15:04:21Z</time>
      </trkpt>
      <trkpt lat="52.158045982941985" lon="-8.240517983213067">
        <ele>25.609999999999999</ele>
        <time>2026-06-26T15:04:22Z</time>
      </trkpt>
      <trkpt lat="52.157439971342683" lon="-8.242495022714138">
        <ele>26.09</ele>
        <time>2026-06-26T15:04:32Z</time>
      </trkpt>
      <trkpt lat="52.156743016093969" lon="-8.244694015011191">
        <ele>34.740000000000002</ele>
        <time>2026-06-26T15:04:42Z</time>
      </trkpt>
      <trkpt lat="52.156674033030868" lon="-8.244920996949077">
        <ele>35.229999999999997</ele>
        <time>2026-06-26T15:04:43Z</time>
      </trkpt>
      <trkpt lat="52.156213028356433" lon="-8.24658396653831">
        <ele>40.030000000000001</ele>
        <time>2026-06-26T15:04:50Z</time>
      </trkpt>
      <trkpt lat="52.155801979824901" lon="-8.24883702211082">
        <ele>44.840000000000003</ele>
        <time>2026-06-26T15:04:59Z</time>
      </trkpt>
      <trkpt lat="52.1555429790169" lon="-8.250914979726076">
        <ele>50.130000000000003</ele>
        <time>2026-06-26T15:05:08Z</time>
      </trkpt>
      <trkpt lat="52.155506014823914" lon="-8.251043977215886">
        <ele>50.130000000000003</ele>
        <time>2026-06-26T15:05:09Z</time>
      </trkpt>
      <trkpt lat="52.155444994568825" lon="-8.251121006906033">
        <ele>50.130000000000003</ele>
        <time>2026-06-26T15:05:10Z</time>
      </trkpt>
      <trkpt lat="52.155365031212568" lon="-8.251163000240922">
        <ele>49.649999999999999</ele>
        <time>2026-06-26T15:05:11Z</time>
      </trkpt>
      <trkpt lat="52.155269980430603" lon="-8.251213040202856">
        <ele>49.159999999999997</ele>
        <time>2026-06-26T15:05:12Z</time>
      </trkpt>
      <trkpt lat="52.155165961012244" lon="-8.251267019659281">
        <ele>48.68</ele>
        <time>2026-06-26T15:05:13Z</time>
      </trkpt>
      <trkpt lat="52.154195001348853" lon="-8.25180203653872">
        <ele>46.280000000000001</ele>
        <time>2026-06-26T15:05:21Z</time>
      </trkpt>
      <trkpt lat="52.154101962223649" lon="-8.251924999058247">
        <ele>45.799999999999997</ele>
        <time>2026-06-26T15:05:22Z</time>
      </trkpt>
      <trkpt lat="52.154030967503786" lon="-8.252027006819844">
        <ele>45.799999999999997</ele>
        <time>2026-06-26T15:05:23Z</time>
      </trkpt>
      <trkpt lat="52.154012024402618" lon="-8.252177964895964">
        <ele>45.799999999999997</ele>
        <time>2026-06-26T15:05:24Z</time>
      </trkpt>
      <trkpt lat="52.153991991654038" lon="-8.252337975427508">
        <ele>45.799999999999997</ele>
        <time>2026-06-26T15:05:25Z</time>
      </trkpt>
      <trkpt lat="52.153967013582587" lon="-8.252535033971071">
        <ele>45.799999999999997</ele>
        <time>2026-06-26T15:05:26Z</time>
      </trkpt>
      <trkpt lat="52.153936000540853" lon="-8.25457401573658">
        <ele>50.130000000000003</ele>
        <time>2026-06-26T15:05:35Z</time>
      </trkpt>
      <trkpt lat="52.153928959742188" lon="-8.255038037896156">
        <ele>50.609999999999999</ele>
        <time>2026-06-26T15:05:37Z</time>
      </trkpt>
      <trkpt lat="52.153926026076078" lon="-8.255252027884126">
        <ele>50.609999999999999</ele>
        <time>2026-06-26T15:05:38Z</time>
      </trkpt>
      <trkpt lat="52.153901970013976" lon="-8.25543500483036">
        <ele>50.130000000000003</ele>
        <time>2026-06-26T15:05:39Z</time>
      </trkpt>
      <trkpt lat="52.15384597890079" lon="-8.255601972341538">
        <ele>50.130000000000003</ele>
        <time>2026-06-26T15:05:40Z</time>
      </trkpt>
      <trkpt lat="52.153771966695786" lon="-8.255760977044702">
        <ele>50.130000000000003</ele>
        <time>2026-06-26T15:05:41Z</time>
      </trkpt>
      <trkpt lat="52.153684040531516" lon="-8.255903972312808">
        <ele>49.649999999999999</ele>
        <time>2026-06-26T15:05:42Z</time>
      </trkpt>
      <trkpt lat="52.153230998665094" lon="-8.256612997502089">
        <ele>49.159999999999997</ele>
        <time>2026-06-26T15:05:47Z</time>
      </trkpt>
      <trkpt lat="52.153138965368271" lon="-8.256677035242319">
        <ele>48.68</ele>
        <time>2026-06-26T15:05:48Z</time>
      </trkpt>
      <trkpt lat="52.153047015890479" lon="-8.256712993606925">
        <ele>48.68</ele>
        <time>2026-06-26T15:05:49Z</time>
      </trkpt>
      <trkpt lat="52.152945008128881" lon="-8.2566780410707">
        <ele>48.68</ele>
        <time>2026-06-26T15:05:50Z</time>
      </trkpt>
      <trkpt lat="52.15283403173089" lon="-8.256639987230301">
        <ele>48.68</ele>
        <time>2026-06-26T15:05:51Z</time>
      </trkpt>
      <trkpt lat="52.151740025728941" lon="-8.25625198893249">
        <ele>47.240000000000002</ele>
        <time>2026-06-26T15:05:59Z</time>
      </trkpt>
      <trkpt lat="52.151426039636135" lon="-8.256131960079074">
        <ele>47.719999999999999</ele>
        <time>2026-06-26T15:06:01Z</time>
      </trkpt>
      <trkpt lat="52.150983978062868" lon="-8.256103964522481">
        <ele>47.240000000000002</ele>
        <time>2026-06-26T15:06:04Z</time>
      </trkpt>
      <trkpt lat="52.15083603747189" lon="-8.25609901919961">
        <ele>46.759999999999998</ele>
        <time>2026-06-26T15:06:05Z</time>
      </trkpt>
      <trkpt lat="52.150678960606456" lon="-8.256132965907455">
        <ele>46.759999999999998</ele>
        <time>2026-06-26T15:06:06Z</time>
      </trkpt>
      <trkpt lat="52.150517022237182" lon="-8.25618501752615">
        <ele>47.240000000000002</ele>
        <time>2026-06-26T15:06:07Z</time>
      </trkpt>
      <trkpt lat="52.150350976735353" lon="-8.256237991154194">
        <ele>47.719999999999999</ele>
        <time>2026-06-26T15:06:08Z</time>
      </trkpt>
      <trkpt lat="52.150187026709318" lon="-8.256289958953857">
        <ele>47.719999999999999</ele>
        <time>2026-06-26T15:06:09Z</time>
      </trkpt>
      <trkpt lat="52.15002098120749" lon="-8.256343016400933">
        <ele>47.240000000000002</ele>
        <time>2026-06-26T15:06:10Z</time>
      </trkpt>
      <trkpt lat="52.148415008559823" lon="-8.257076013833284">
        <ele>48.200000000000003</ele>
        <time>2026-06-26T15:06:20Z</time>
      </trkpt>
      <trkpt lat="52.147023025900126" lon="-8.257975978776813">
        <ele>48.68</ele>
        <time>2026-06-26T15:06:29Z</time>
      </trkpt>
      <trkpt lat="52.145827012136579" lon="-8.258645022287965">
        <ele>50.130000000000003</ele>
        <time>2026-06-26T15:06:37Z</time>
      </trkpt>
      <trkpt lat="52.145377993583679" lon="-8.25893403030932">
        <ele>50.609999999999999</ele>
        <time>2026-06-26T15:06:40Z</time>
      </trkpt>
      <trkpt lat="52.145237009972334" lon="-8.259039977565408">
        <ele>51.090000000000003</ele>
        <time>2026-06-26T15:06:41Z</time>
      </trkpt>
      <trkpt lat="52.144354982301593" lon="-8.260009009391069">
        <ele>55.409999999999997</ele>
        <time>2026-06-26T15:06:49Z</time>
      </trkpt>
      <trkpt lat="52.144159013405442" lon="-8.260239008814097">
        <ele>55.890000000000001</ele>
        <time>2026-06-26T15:06:51Z</time>
      </trkpt>
      <trkpt lat="52.144061028957367" lon="-8.26035400852561">
        <ele>55.890000000000001</ele>
        <time>2026-06-26T15:06:52Z</time>
      </trkpt>
      <trkpt lat="52.14396103285253" lon="-8.260472025722265">
        <ele>55.409999999999997</ele>
        <time>2026-06-26T15:06:53Z</time>
      </trkpt>
      <trkpt lat="52.143861958757043" lon="-8.260588031262159">
        <ele>55.409999999999997</ele>
        <time>2026-06-26T15:06:54Z</time>
      </trkpt>
      <trkpt lat="52.143764980137348" lon="-8.260702025145292">
        <ele>54.93</ele>
        <time>2026-06-26T15:06:55Z</time>
      </trkpt>
      <trkpt lat="52.143669007346034" lon="-8.260814007371664">
        <ele>55.409999999999997</ele>
        <time>2026-06-26T15:06:56Z</time>
      </trkpt>
      <trkpt lat="52.143574962392449" lon="-8.260924983769655">
        <ele>55.409999999999997</ele>
        <time>2026-06-26T15:06:57Z</time>
      </trkpt>
      <trkpt lat="52.143478989601135" lon="-8.261026991531253">
        <ele>55.890000000000001</ele>
        <time>2026-06-26T15:06:58Z</time>
      </trkpt>
      <trkpt lat="52.143375976011157" lon="-8.261131010949612">
        <ele>55.409999999999997</ele>
        <time>2026-06-26T15:06:59Z</time>
      </trkpt>
      <trkpt lat="52.143273968249559" lon="-8.261246010661125">
        <ele>55.409999999999997</ele>
        <time>2026-06-26T15:07:00Z</time>
      </trkpt>
      <trkpt lat="52.142515992745757" lon="-8.262490974739194">
        <ele>51.090000000000003</ele>
        <time>2026-06-26T15:07:09Z</time>
      </trkpt>
      <trkpt lat="52.142208041623235" lon="-8.263416001573205">
        <ele>46.280000000000001</ele>
        <time>2026-06-26T15:07:14Z</time>
      </trkpt>
      <trkpt lat="52.142152972519398" lon="-8.263605013489723">
        <ele>46.280000000000001</ele>
        <time>2026-06-26T15:07:15Z</time>
      </trkpt>
      <trkpt lat="52.142107039690018" lon="-8.263772986829281">
        <ele>46.280000000000001</ele>
        <time>2026-06-26T15:07:16Z</time>
      </trkpt>
      <trkpt lat="52.141806967556477" lon="-8.265326991677284">
        <ele>43.880000000000003</ele>
        <time>2026-06-26T15:07:25Z</time>
      </trkpt>
      <trkpt lat="52.141666989773512" lon="-8.267064979299903">
        <ele>42.439999999999998</ele>
        <time>2026-06-26T15:07:33Z</time>
      </trkpt>
      <trkpt lat="52.141567999497056" lon="-8.267872994765639">
        <ele>42.439999999999998</ele>
        <time>2026-06-26T15:07:40Z</time>
      </trkpt>
      <trkpt lat="52.141420980915427" lon="-8.268857030197978">
        <ele>41.469999999999999</ele>
        <time>2026-06-26T15:07:47Z</time>
      </trkpt>
      <trkpt lat="52.141195004805923" lon="-8.270642040297389">
        <ele>37.630000000000003</ele>
        <time>2026-06-26T15:07:57Z</time>
      </trkpt>
      <trkpt lat="52.141161980107427" lon="-8.270952003076673">
        <ele>36.189999999999998</ele>
        <time>2026-06-26T15:07:59Z</time>
      </trkpt>
      <trkpt lat="52.141145970672369" lon="-8.271094998344779">
        <ele>35.710000000000001</ele>
        <time>2026-06-26T15:08:00Z</time>
      </trkpt>
      <trkpt lat="52.140968022868037" lon="-8.272732989862561">
        <ele>29.940000000000001</ele>
        <time>2026-06-26T15:08:09Z</time>
      </trkpt>
      <trkpt lat="52.140790997073054" lon="-8.274409035220742">
        <ele>30.899999999999999</ele>
        <time>2026-06-26T15:08:18Z</time>
      </trkpt>
      <trkpt lat="52.140771970152855" lon="-8.27459997497499">
        <ele>30.899999999999999</ele>
        <time>2026-06-26T15:08:19Z</time>
      </trkpt>
      <trkpt lat="52.140663005411625" lon="-8.275692975148559">
        <ele>30.420000000000002</ele>
        <time>2026-06-26T15:08:27Z</time>
      </trkpt>
      <trkpt lat="52.140663005411625" lon="-8.275692975148559">
        <ele>30.420000000000002</ele>
        <time>2026-06-26T15:08:37Z</time>
      </trkpt>
      <trkpt lat="52.14065101929009" lon="-8.275815015658736">
        <ele>30.420000000000002</ele>
        <time>2026-06-26T15:08:43Z</time>
      </trkpt>
      <trkpt lat="52.140678009018302" lon="-8.275915011763573">
        <ele>30.899999999999999</ele>
        <time>2026-06-26T15:08:44Z</time>
      </trkpt>
      <trkpt lat="52.140726959332824" lon="-8.275933032855392">
        <ele>30.899999999999999</ele>
        <time>2026-06-26T15:08:45Z</time>
      </trkpt>
      <trkpt lat="52.140785967931151" lon="-8.27595398761332">
        <ele>30.899999999999999</ele>
        <time>2026-06-26T15:08:46Z</time>
      </trkpt>
      <trkpt lat="52.140836007893085" lon="-8.275972008705139">
        <ele>30.899999999999999</ele>
        <time>2026-06-26T15:08:47Z</time>
      </trkpt>
      <trkpt lat="52.140873977914453" lon="-8.275985000655055">
        <ele>30.899999999999999</ele>
        <time>2026-06-26T15:08:48Z</time>
      </trkpt>
      <trkpt lat="52.14091002009809" lon="-8.275997992604971">
        <ele>30.420000000000002</ele>
        <time>2026-06-26T15:08:49Z</time>
      </trkpt>
      <trkpt lat="52.141041029244661" lon="-8.276035040616989">
        <ele>28.98</ele>
        <time>2026-06-26T15:08:52Z</time>
      </trkpt>
      <trkpt lat="52.141349986195564" lon="-8.276117015630007">
        <ele>28.5</ele>
        <time>2026-06-26T15:08:56Z</time>
      </trkpt>
      <trkpt lat="52.141635976731777" lon="-8.276287000626326">
        <ele>30.420000000000002</ele>
        <time>2026-06-26T15:08:59Z</time>
      </trkpt>
      <trkpt lat="52.141721975058317" lon="-8.27638297341764">
        <ele>30.899999999999999</ele>
        <time>2026-06-26T15:09:00Z</time>
      </trkpt>
      <trkpt lat="52.141810990869999" lon="-8.276481041684747">
        <ele>31.379999999999999</ele>
        <time>2026-06-26T15:09:01Z</time>
      </trkpt>
      <trkpt lat="52.141911992803216" lon="-8.276602998375893">
        <ele>31.859999999999999</ele>
        <time>2026-06-26T15:09:02Z</time>
      </trkpt>
      <trkpt lat="52.14196496643126" lon="-8.276777006685734">
        <ele>32.82</ele>
        <time>2026-06-26T15:09:03Z</time>
      </trkpt>
      <trkpt lat="52.142029004171491" lon="-8.27694196254015">
        <ele>32.82</ele>
        <time>2026-06-26T15:09:04Z</time>
      </trkpt>
      <trkpt lat="52.142072003334761" lon="-8.277127034962177">
        <ele>32.82</ele>
        <time>2026-06-26T15:09:05Z</time>
      </trkpt>
      <trkpt lat="52.142097987234592" lon="-8.277319986373186">
        <ele>32.82</ele>
        <time>2026-06-26T15:09:06Z</time>
      </trkpt>
      <trkpt lat="52.142092036083341" lon="-8.277530958876014">
        <ele>32.82</ele>
        <time>2026-06-26T15:09:07Z</time>
      </trkpt>
      <trkpt lat="52.142080971971154" lon="-8.277743021026254">
        <ele>32.82</ele>
        <time>2026-06-26T15:09:08Z</time>
      </trkpt>
      <trkpt lat="52.142060017213225" lon="-8.278182987123728">
        <ele>32.340000000000003</ele>
        <time>2026-06-26T15:09:10Z</time>
      </trkpt>
      <trkpt lat="52.142025986686349" lon="-8.27881095930934">
        <ele>32.340000000000003</ele>
        <time>2026-06-26T15:09:13Z</time>
      </trkpt>
      <trkpt lat="52.142008971422911" lon="-8.279017992317677">
        <ele>32.340000000000003</ele>
        <time>2026-06-26T15:09:14Z</time>
      </trkpt>
      <trkpt lat="52.141981981694698" lon="-8.279222007840872">
        <ele>32.340000000000003</ele>
        <time>2026-06-26T15:09:15Z</time>
      </trkpt>
      <trkpt lat="52.141631031408906" lon="-8.280996037647128">
        <ele>34.740000000000002</ele>
        <time>2026-06-26T15:09:24Z</time>
      </trkpt>
      <trkpt lat="52.141069024801254" lon="-8.284607967361808">
        <ele>36.670000000000002</ele>
        <time>2026-06-26T15:09:41Z</time>
      </trkpt>
      <trkpt lat="52.140787979587913" lon="-8.28590196557343">
        <ele>38.590000000000003</ele>
        <time>2026-06-26T15:09:47Z</time>
      </trkpt>
      <trkpt lat="52.140741962939501" lon="-8.286129031330347">
        <ele>39.07</ele>
        <time>2026-06-26T15:09:48Z</time>
      </trkpt>
      <trkpt lat="52.140701981261373" lon="-8.286363976076245">
        <ele>39.549999999999997</ele>
        <time>2026-06-26T15:09:49Z</time>
      </trkpt>
      <trkpt lat="52.140686977654696" lon="-8.287010975182056">
        <ele>40.509999999999998</ele>
        <time>2026-06-26T15:09:52Z</time>
      </trkpt>
      <trkpt lat="52.140702987089753" lon="-8.287131004035473">
        <ele>40.509999999999998</ele>
        <time>2026-06-26T15:09:53Z</time>
      </trkpt>
      <trkpt lat="52.140714973211288" lon="-8.287225970998406">
        <ele>40.990000000000002</ele>
        <time>2026-06-26T15:09:54Z</time>
      </trkpt>
      <trkpt lat="52.140743974596262" lon="-8.287538029253483">
        <ele>40.990000000000002</ele>
        <time>2026-06-26T15:09:57Z</time>
      </trkpt>
      <trkpt lat="52.14071698486805" lon="-8.287815973162651">
        <ele>41.469999999999999</ele>
        <time>2026-06-26T15:09:59Z</time>
      </trkpt>
      <trkpt lat="52.140693012624979" lon="-8.287982018664479">
        <ele>41.950000000000003</ele>
        <time>2026-06-26T15:10:00Z</time>
      </trkpt>
      <trkpt lat="52.140654036775231" lon="-8.288159966468811">
        <ele>41.950000000000003</ele>
        <time>2026-06-26T15:10:01Z</time>
      </trkpt>
      <trkpt lat="52.140576001256704" lon="-8.288579983636737">
        <ele>42.920000000000002</ele>
        <time>2026-06-26T15:10:03Z</time>
      </trkpt>
      <trkpt lat="52.140533002093434" lon="-8.288814006373286">
        <ele>43.399999999999999</ele>
        <time>2026-06-26T15:10:04Z</time>
      </trkpt>
      <trkpt lat="52.140487991273403" lon="-8.289060015231371">
        <ele>43.880000000000003</ele>
        <time>2026-06-26T15:10:05Z</time>
      </trkpt>
      <trkpt lat="52.140440968796611" lon="-8.28931599855423">
        <ele>44.359999999999999</ele>
        <time>2026-06-26T15:10:06Z</time>
      </trkpt>
      <trkpt lat="52.140392018482089" lon="-8.289583967998624">
        <ele>44.840000000000003</ele>
        <time>2026-06-26T15:10:07Z</time>
      </trkpt>
      <trkpt lat="52.140242988243699" lon="-8.29099103808403">
        <ele>47.240000000000002</ele>
        <time>2026-06-26T15:10:12Z</time>
      </trkpt>
      <trkpt lat="52.140238964930177" lon="-8.291287003085017">
        <ele>47.719999999999999</ele>
        <time>2026-06-26T15:10:13Z</time>
      </trkpt>
      <trkpt lat="52.140464019030333" lon="-8.294328963384032">
        <ele>49.159999999999997</ele>
        <time>2026-06-26T15:10:23Z</time>
      </trkpt>
      <trkpt lat="52.140430994331837" lon="-8.294626018032432">
        <ele>49.649999999999999</ele>
        <time>2026-06-26T15:10:24Z</time>
      </trkpt>
      <trkpt lat="52.140392018482089" lon="-8.294926006346941">
        <ele>50.130000000000003</ele>
        <time>2026-06-26T15:10:25Z</time>
      </trkpt>
      <trkpt lat="52.140213986858726" lon="-8.295828988775611">
        <ele>49.649999999999999</ele>
        <time>2026-06-26T15:10:28Z</time>
      </trkpt>
      <trkpt lat="52.140121031552553" lon="-8.296096036210656">
        <ele>49.649999999999999</ele>
        <time>2026-06-26T15:10:29Z</time>
      </trkpt>
      <trkpt lat="52.14002899825573" lon="-8.296359982341528">
        <ele>49.159999999999997</ele>
        <time>2026-06-26T15:10:30Z</time>
      </trkpt>
      <trkpt lat="52.139936964958906" lon="-8.296625018119812">
        <ele>48.68</ele>
        <time>2026-06-26T15:10:31Z</time>
      </trkpt>
      <trkpt lat="52.139860019087791" lon="-8.296907991170883">
        <ele>48.200000000000003</ele>
        <time>2026-06-26T15:10:32Z</time>
      </trkpt>
      <trkpt lat="52.139798998832703" lon="-8.297202028334141">
        <ele>47.719999999999999</ele>
        <time>2026-06-26T15:10:33Z</time>
      </trkpt>
      <trkpt lat="52.139759017154574" lon="-8.297508973628283">
        <ele>47.240000000000002</ele>
        <time>2026-06-26T15:10:34Z</time>
      </trkpt>
      <trkpt lat="52.13975197635591" lon="-8.297819020226598">
        <ele>46.759999999999998</ele>
        <time>2026-06-26T15:10:35Z</time>
      </trkpt>
      <trkpt lat="52.139744013547897" lon="-8.29812697134912">
        <ele>46.280000000000001</ele>
        <time>2026-06-26T15:10:36Z</time>
      </trkpt>
      <trkpt lat="52.13975197635591" lon="-8.2984250318259">
        <ele>45.799999999999997</ele>
        <time>2026-06-26T15:10:37Z</time>
      </trkpt>
      <trkpt lat="52.139817019924521" lon="-8.298930041491985">
        <ele>44.840000000000003</ele>
        <time>2026-06-26T15:10:39Z</time>
      </trkpt>
      <trkpt lat="52.139889020472765" lon="-8.299120981246233">
        <ele>44.359999999999999</ele>
        <time>2026-06-26T15:10:40Z</time>
      </trkpt>
      <trkpt lat="52.139981975778937" lon="-8.299275962635875">
        <ele>44.359999999999999</ele>
        <time>2026-06-26T15:10:41Z</time>
      </trkpt>
      <trkpt lat="52.14009303599596" lon="-8.299425998702645">
        <ele>44.359999999999999</ele>
        <time>2026-06-26T15:10:42Z</time>
      </trkpt>
      <trkpt lat="52.140217004343867" lon="-8.299590032547712">
        <ele>44.840000000000003</ele>
        <time>2026-06-26T15:10:43Z</time>
      </trkpt>
      <trkpt lat="52.141299024224281" lon="-8.300992995500565">
        <ele>48.200000000000003</ele>
        <time>2026-06-26T15:10:50Z</time>
      </trkpt>
      <trkpt lat="52.141647962853312" lon="-8.301662961021066">
        <ele>49.159999999999997</ele>
        <time>2026-06-26T15:10:53Z</time>
      </trkpt>
      <trkpt lat="52.141733039170504" lon="-8.301898995414376">
        <ele>49.649999999999999</ele>
        <time>2026-06-26T15:10:54Z</time>
      </trkpt>
      <trkpt lat="52.14177000336349" lon="-8.302155984565616">
        <ele>50.130000000000003</ele>
        <time>2026-06-26T15:10:55Z</time>
      </trkpt>
      <trkpt lat="52.141796993091702" lon="-8.302418002858758">
        <ele>50.130000000000003</ele>
        <time>2026-06-26T15:10:56Z</time>
      </trkpt>
      <trkpt lat="52.141771009191871" lon="-8.302689995616674">
        <ele>51.090000000000003</ele>
        <time>2026-06-26T15:10:57Z</time>
      </trkpt>
      <trkpt lat="52.141744019463658" lon="-8.302965005859733">
        <ele>51.57</ele>
        <time>2026-06-26T15:10:58Z</time>
      </trkpt>
      <trkpt lat="52.141374964267015" lon="-8.305700020864606">
        <ele>60.219999999999999</ele>
        <time>2026-06-26T15:11:08Z</time>
      </trkpt>
      <trkpt lat="52.141364989802241" lon="-8.305993974208832">
        <ele>60.700000000000003</ele>
        <time>2026-06-26T15:11:09Z</time>
      </trkpt>
      <trkpt lat="52.141436990350485" lon="-8.30934296362102">
        <ele>60.219999999999999</ele>
        <time>2026-06-26T15:11:19Z</time>
      </trkpt>
      <trkpt lat="52.141655003651977" lon="-8.313696021214128">
        <ele>58.299999999999997</ele>
        <time>2026-06-26T15:11:31Z</time>
      </trkpt>
      <trkpt lat="52.141997991129756" lon="-8.316012024879456">
        <ele>54.93</ele>
        <time>2026-06-26T15:11:38Z</time>
      </trkpt>
      <trkpt lat="52.142443992197514" lon="-8.319077035412192">
        <ele>50.130000000000003</ele>
        <time>2026-06-26T15:11:47Z</time>
      </trkpt>
      <trkpt lat="52.142562009394169" lon="-8.321881033480167">
        <ele>49.649999999999999</ele>
        <time>2026-06-26T15:11:55Z</time>
      </trkpt>
      <trkpt lat="52.142701987177134" lon="-8.326155971735716">
        <ele>56.859999999999999</ele>
        <time>2026-06-26T15:12:07Z</time>
      </trkpt>
      <trkpt lat="52.142836013808846" lon="-8.331015966832638">
        <ele>60.700000000000003</ele>
        <time>2026-06-26T15:12:20Z</time>
      </trkpt>
      <trkpt lat="52.142852023243904" lon="-8.334927968680859">
        <ele>58.780000000000001</ele>
        <time>2026-06-26T15:12:30Z</time>
      </trkpt>
      <trkpt lat="52.14267298579216" lon="-8.33761403337121">
        <ele>57.82</ele>
        <time>2026-06-26T15:12:37Z</time>
      </trkpt>
      <trkpt lat="52.142302002757788" lon="-8.340505035594106">
        <ele>54.93</ele>
        <time>2026-06-26T15:12:45Z</time>
      </trkpt>
      <trkpt lat="52.142094969749451" lon="-8.343011979013681">
        <ele>48.68</ele>
        <time>2026-06-26T15:12:52Z</time>
      </trkpt>
      <trkpt lat="52.142368974164128" lon="-8.346536988392472">
        <ele>42.439999999999998</ele>
        <time>2026-06-26T15:13:02Z</time>
      </trkpt>
      <trkpt lat="52.142525967210531" lon="-8.34833700209856">
        <ele>46.759999999999998</ele>
        <time>2026-06-26T15:13:08Z</time>
      </trkpt>
      <trkpt lat="52.142466036602855" lon="-8.35031202994287">
        <ele>54.93</ele>
        <time>2026-06-26T15:13:16Z</time>
      </trkpt>
      <trkpt lat="52.142422031611204" lon="-8.351156003773212">
        <ele>56.859999999999999</ele>
        <time>2026-06-26T15:13:20Z</time>
      </trkpt>
      <trkpt lat="52.142400993034244" lon="-8.353033969178796">
        <ele>59.259999999999998</ele>
        <time>2026-06-26T15:13:29Z</time>
      </trkpt>
      <trkpt lat="52.142512975260615" lon="-8.354604989290237">
        <ele>60.219999999999999</ele>
        <time>2026-06-26T15:13:37Z</time>
      </trkpt>
      <trkpt lat="52.142545999959111" lon="-8.355087032541633">
        <ele>60.700000000000003</ele>
        <time>2026-06-26T15:13:40Z</time>
      </trkpt>
      <trkpt lat="52.142545999959111" lon="-8.356557972729206">
        <ele>63.100000000000001</ele>
        <time>2026-06-26T15:13:47Z</time>
      </trkpt>
      <trkpt lat="52.142235031351447" lon="-8.358364021405578">
        <ele>67.909999999999997</ele>
        <time>2026-06-26T15:13:56Z</time>
      </trkpt>
      <trkpt lat="52.142109973356128" lon="-8.360398979857564">
        <ele>71.760000000000005</ele>
        <time>2026-06-26T15:14:06Z</time>
      </trkpt>
      <trkpt lat="52.142253974452615" lon="-8.362479032948613">
        <ele>68.390000000000001</ele>
        <time>2026-06-26T15:14:16Z</time>
      </trkpt>
      <trkpt lat="52.142468970268965" lon="-8.364693028852344">
        <ele>64.069999999999993</ele>
        <time>2026-06-26T15:14:27Z</time>
      </trkpt>
      <trkpt lat="52.142780022695661" lon="-8.366651041433215">
        <ele>62.140000000000001</ele>
        <time>2026-06-26T15:14:37Z</time>
      </trkpt>
      <trkpt lat="52.142922012135386" lon="-8.368534035980701">
        <ele>60.700000000000003</ele>
        <time>2026-06-26T15:14:46Z</time>
      </trkpt>
      <trkpt lat="52.142946990206838" lon="-8.369593005627394">
        <ele>59.740000000000002</ele>
        <time>2026-06-26T15:14:51Z</time>
      </trkpt>
      <trkpt lat="52.142953025177121" lon="-8.369806995615363">
        <ele>59.740000000000002</ele>
        <time>2026-06-26T15:14:52Z</time>
      </trkpt>
      <trkpt lat="52.142981020733714" lon="-8.371310038492084">
        <ele>59.259999999999998</ele>
        <time>2026-06-26T15:14:57Z</time>
      </trkpt>
      <trkpt lat="52.143051009625196" lon="-8.373931981623173">
        <ele>57.82</ele>
        <time>2026-06-26T15:15:04Z</time>
      </trkpt>
      <trkpt lat="52.143204985186458" lon="-8.377179969102144">
        <ele>56.859999999999999</ele>
        <time>2026-06-26T15:15:13Z</time>
      </trkpt>
      <trkpt lat="52.143430039286613" lon="-8.380742026492953">
        <ele>55.409999999999997</ele>
        <time>2026-06-26T15:15:23Z</time>
      </trkpt>
      <trkpt lat="52.143858019262552" lon="-8.383937040343881">
        <ele>54.450000000000003</ele>
        <time>2026-06-26T15:15:32Z</time>
      </trkpt>
      <trkpt lat="52.144094975665212" lon="-8.386188000440598">
        <ele>54.93</ele>
        <time>2026-06-26T15:15:39Z</time>
      </trkpt>
      <trkpt lat="52.143890960142016" lon="-8.388639958575368">
        <ele>52.049999999999997</ele>
        <time>2026-06-26T15:15:47Z</time>
      </trkpt>
      <trkpt lat="52.143607987090945" lon="-8.391622994095087">
        <ele>54.450000000000003</ele>
        <time>2026-06-26T15:15:57Z</time>
      </trkpt>
      <trkpt lat="52.143548978492618" lon="-8.392528994008899">
        <ele>55.409999999999997</ele>
        <time>2026-06-26T15:16:00Z</time>
      </trkpt>
      <trkpt lat="52.143572028726339" lon="-8.392810961231589">
        <ele>55.409999999999997</ele>
        <time>2026-06-26T15:16:01Z</time>
      </trkpt>
      <trkpt lat="52.143719969317317" lon="-8.394088027998805">
        <ele>58.299999999999997</ele>
        <time>2026-06-26T15:16:07Z</time>
      </trkpt>
      <trkpt lat="52.143891965970397" lon="-8.395542958751321">
        <ele>60.700000000000003</ele>
        <time>2026-06-26T15:16:15Z</time>
      </trkpt>
      <trkpt lat="52.144023980945349" lon="-8.397110961377621">
        <ele>60.219999999999999</ele>
        <time>2026-06-26T15:16:24Z</time>
      </trkpt>
      <trkpt lat="52.14406999759376" lon="-8.397770030423999">
        <ele>58.299999999999997</ele>
        <time>2026-06-26T15:16:29Z</time>
      </trkpt>
      <trkpt lat="52.14409195818007" lon="-8.397887963801622">
        <ele>58.299999999999997</ele>
        <time>2026-06-26T15:16:30Z</time>
      </trkpt>
      <trkpt lat="52.144141998142004" lon="-8.397964993491769">
        <ele>57.82</ele>
        <time>2026-06-26T15:16:31Z</time>
      </trkpt>
      <trkpt lat="52.144193965941668" lon="-8.397991983219981">
        <ele>57.82</ele>
        <time>2026-06-26T15:16:32Z</time>
      </trkpt>
      <trkpt lat="52.144246017560363" lon="-8.398001035675407">
        <ele>57.340000000000003</ele>
        <time>2026-06-26T15:16:33Z</time>
      </trkpt>
      <trkpt lat="52.14430402033031" lon="-8.398006986826658">
        <ele>57.340000000000003</ele>
        <time>2026-06-26T15:16:34Z</time>
      </trkpt>
      <trkpt lat="52.144957976415753" lon="-8.398067001253367">
        <ele>56.859999999999999</ele>
        <time>2026-06-26T15:16:42Z</time>
      </trkpt>
      <trkpt lat="52.145793987438083" lon="-8.398103965446353">
        <ele>59.259999999999998</ele>
        <time>2026-06-26T15:16:50Z</time>
      </trkpt>
      <trkpt lat="52.145862970501184" lon="-8.398142019286752">
        <ele>59.740000000000002</ele>
        <time>2026-06-26T15:16:51Z</time>
      </trkpt>
      <trkpt lat="52.145908987149596" lon="-8.398244027048349">
        <ele>60.700000000000003</ele>
        <time>2026-06-26T15:16:52Z</time>
      </trkpt>
      <trkpt lat="52.145947962999344" lon="-8.398363972082734">
        <ele>61.18</ele>
        <time>2026-06-26T15:16:53Z</time>
      </trkpt>
      <trkpt lat="52.145966989919543" lon="-8.398519959300757">
        <ele>61.659999999999997</ele>
        <time>2026-06-26T15:16:54Z</time>
      </trkpt>
      <trkpt lat="52.146102022379637" lon="-8.40007496997714">
        <ele>62.619999999999997</ele>
        <time>2026-06-26T15:17:02Z</time>
      </trkpt>
      <trkpt lat="52.146123982965946" lon="-8.400276973843575">
        <ele>62.619999999999997</ele>
        <time>2026-06-26T15:17:03Z</time>
      </trkpt>
      <trkpt lat="52.146311989054084" lon="-8.40243699029088">
        <ele>64.549999999999997</ele>
        <time>2026-06-26T15:17:13Z</time>
      </trkpt>
      <trkpt lat="52.146382983773947" lon="-8.403327986598015">
        <ele>66.469999999999999</ele>
        <time>2026-06-26T15:17:17Z</time>
      </trkpt>
      <trkpt lat="52.146361023187637" lon="-8.405385995283723">
        <ele>62.619999999999997</ele>
        <time>2026-06-26T15:17:25Z</time>
      </trkpt>
      <trkpt lat="52.14630302041769" lon="-8.407135969027877">
        <ele>58.780000000000001</ele>
        <time>2026-06-26T15:17:31Z</time>
      </trkpt>
      <trkpt lat="52.146246023476124" lon="-8.407433023676276">
        <ele>57.82</ele>
        <time>2026-06-26T15:17:32Z</time>
      </trkpt>
      <trkpt lat="52.146189026534557" lon="-8.407734017819166">
        <ele>57.340000000000003</ele>
        <time>2026-06-26T15:17:33Z</time>
      </trkpt>
      <trkpt lat="52.145707989111543" lon="-8.409765958786011">
        <ele>58.299999999999997</ele>
        <time>2026-06-26T15:17:40Z</time>
      </trkpt>
      <trkpt lat="52.145297024399042" lon="-8.412244990468025">
        <ele>57.340000000000003</ele>
        <time>2026-06-26T15:17:49Z</time>
      </trkpt>
      <trkpt lat="52.145396014675498" lon="-8.414678005501628">
        <ele>56.859999999999999</ele>
        <time>2026-06-26T15:17:57Z</time>
      </trkpt>
      <trkpt lat="52.14568099938333" lon="-8.417292991653085">
        <ele>56.369999999999997</ele>
        <time>2026-06-26T15:18:06Z</time>
      </trkpt>
      <trkpt lat="52.145947040989995" lon="-8.419704968109727">
        <ele>53.009999999999998</ele>
        <time>2026-06-26T15:18:13Z</time>
      </trkpt>
      <trkpt lat="52.146304026246071" lon="-8.423600038513541">
        <ele>51.57</ele>
        <time>2026-06-26T15:18:23Z</time>
      </trkpt>
      <trkpt lat="52.146606026217341" lon="-8.425988964736462">
        <ele>52.530000000000001</ele>
        <time>2026-06-26T15:18:30Z</time>
      </trkpt>
      <trkpt lat="52.147272974252701" lon="-8.427750002592802">
        <ele>53.969999999999999</ele>
        <time>2026-06-26T15:18:36Z</time>
      </trkpt>
      <trkpt lat="52.148713991045952" lon="-8.430446963757277">
        <ele>52.049999999999997</ele>
        <time>2026-06-26T15:18:46Z</time>
      </trkpt>
      <trkpt lat="52.150015030056238" lon="-8.433384988456965">
        <ele>51.57</ele>
        <time>2026-06-26T15:18:56Z</time>
      </trkpt>
      <trkpt lat="52.150999987497926" lon="-8.435790007933974">
        <ele>54.93</ele>
        <time>2026-06-26T15:19:04Z</time>
      </trkpt>
      <trkpt lat="52.15253203175962" lon="-8.439925974234939">
        <ele>58.299999999999997</ele>
        <time>2026-06-26T15:19:17Z</time>
      </trkpt>
      <trkpt lat="52.153345998376608" lon="-8.442781018093228">
        <ele>59.740000000000002</ele>
        <time>2026-06-26T15:19:26Z</time>
      </trkpt>
      <trkpt lat="52.153454041108489" lon="-8.443056028336287">
        <ele>60.219999999999999</ele>
        <time>2026-06-26T15:19:27Z</time>
      </trkpt>
      <trkpt lat="52.15448702685535" lon="-8.445213027298451">
        <ele>62.619999999999997</ele>
        <time>2026-06-26T15:19:35Z</time>
      </trkpt>
      <trkpt lat="52.155109969899058" lon="-8.447312023490667">
        <ele>63.100000000000001</ele>
        <time>2026-06-26T15:19:42Z</time>
      </trkpt>
      <trkpt lat="52.155372994020581" lon="-8.447974026203156">
        <ele>62.619999999999997</ele>
        <time>2026-06-26T15:19:45Z</time>
      </trkpt>
      <trkpt lat="52.155491011217237" lon="-8.448120038956404">
        <ele>62.619999999999997</ele>
        <time>2026-06-26T15:19:46Z</time>
      </trkpt>
      <trkpt lat="52.155610034242272" lon="-8.44826596789062">
        <ele>63.100000000000001</ele>
        <time>2026-06-26T15:19:47Z</time>
      </trkpt>
      <trkpt lat="52.156640002503991" lon="-8.449067026376724">
        <ele>62.619999999999997</ele>
        <time>2026-06-26T15:19:54Z</time>
      </trkpt>
      <trkpt lat="52.156805964186788" lon="-8.449142966419458">
        <ele>62.140000000000001</ele>
        <time>2026-06-26T15:19:55Z</time>
      </trkpt>
      <trkpt lat="52.156974021345377" lon="-8.449218990281224">
        <ele>62.140000000000001</ele>
        <time>2026-06-26T15:19:56Z</time>
      </trkpt>
      <trkpt lat="52.157137971371412" lon="-8.44929400831461">
        <ele>61.659999999999997</ele>
        <time>2026-06-26T15:19:57Z</time>
      </trkpt>
      <trkpt lat="52.157294964417815" lon="-8.449368020519614">
        <ele>61.659999999999997</ele>
        <time>2026-06-26T15:19:58Z</time>
      </trkpt>
      <trkpt lat="52.15844202786684" lon="-8.449923992156982">
        <ele>58.299999999999997</ele>
        <time>2026-06-26T15:20:05Z</time>
      </trkpt>
      <trkpt lat="52.16011899523437" lon="-8.450502008199692">
        <ele>60.700000000000003</ele>
        <time>2026-06-26T15:20:14Z</time>
      </trkpt>
      <trkpt lat="52.161895036697388" lon="-8.451043982058764">
        <ele>66.469999999999999</ele>
        <time>2026-06-26T15:20:24Z</time>
      </trkpt>
      <trkpt lat="52.163972994312644" lon="-8.452167995274067">
        <ele>69.829999999999998</ele>
        <time>2026-06-26T15:20:35Z</time>
      </trkpt>
      <trkpt lat="52.165892031043768" lon="-8.453684030100703">
        <ele>72.719999999999999</ele>
        <time>2026-06-26T15:20:46Z</time>
      </trkpt>
      <trkpt lat="52.167518036440015" lon="-8.454638980329037">
        <ele>76.560000000000002</ele>
        <time>2026-06-26T15:20:55Z</time>
      </trkpt>
      <trkpt lat="52.169046979397535" lon="-8.45522697083652">
        <ele>68.870000000000005</ele>
        <time>2026-06-26T15:21:03Z</time>
      </trkpt>
      <trkpt lat="52.170006036758423" lon="-8.455478008836508">
        <ele>63.579999999999998</ele>
        <time>2026-06-26T15:21:08Z</time>
      </trkpt>
      <trkpt lat="52.170177027583122" lon="-8.455569036304951">
        <ele>62.619999999999997</ele>
        <time>2026-06-26T15:21:09Z</time>
      </trkpt>
      <trkpt lat="52.170337960124016" lon="-8.455678001046181">
        <ele>62.140000000000001</ele>
        <time>2026-06-26T15:21:10Z</time>
      </trkpt>
      <trkpt lat="52.170467963442206" lon="-8.45578202046454">
        <ele>61.18</ele>
        <time>2026-06-26T15:21:11Z</time>
      </trkpt>
      <trkpt lat="52.170607019215822" lon="-8.455978995189071">
        <ele>60.219999999999999</ele>
        <time>2026-06-26T15:21:12Z</time>
      </trkpt>
      <trkpt lat="52.170728975906968" lon="-8.456156020984054">
        <ele>59.259999999999998</ele>
        <time>2026-06-26T15:21:13Z</time>
      </trkpt>
      <trkpt lat="52.170829977840185" lon="-8.456379985436797">
        <ele>57.82</ele>
        <time>2026-06-26T15:21:14Z</time>
      </trkpt>
      <trkpt lat="52.170930979773402" lon="-8.456605961546302">
        <ele>57.340000000000003</ele>
        <time>2026-06-26T15:21:15Z</time>
      </trkpt>
      <trkpt lat="52.17103399336338" lon="-8.456809977069497">
        <ele>56.369999999999997</ele>
        <time>2026-06-26T15:21:16Z</time>
      </trkpt>
      <trkpt lat="52.171153016388416" lon="-8.456945009529591">
        <ele>55.409999999999997</ele>
        <time>2026-06-26T15:21:17Z</time>
      </trkpt>
      <trkpt lat="52.171281008049846" lon="-8.457023967057467">
        <ele>54.93</ele>
        <time>2026-06-26T15:21:18Z</time>
      </trkpt>
      <trkpt lat="52.171401036903262" lon="-8.457097979262471">
        <ele>53.969999999999999</ele>
        <time>2026-06-26T15:21:19Z</time>
      </trkpt>
      <trkpt lat="52.171515030786395" lon="-8.457167968153954">
        <ele>53.009999999999998</ele>
        <time>2026-06-26T15:21:20Z</time>
      </trkpt>
      <trkpt lat="52.171626007184386" lon="-8.457237035036087">
        <ele>52.049999999999997</ele>
        <time>2026-06-26T15:21:21Z</time>
      </trkpt>
      <trkpt lat="52.171733966097236" lon="-8.457303000614047">
        <ele>51.090000000000003</ele>
        <time>2026-06-26T15:21:22Z</time>
      </trkpt>
      <trkpt lat="52.171841003000736" lon="-8.457369972020388">
        <ele>50.130000000000003</ele>
        <time>2026-06-26T15:21:23Z</time>
      </trkpt>
      <trkpt lat="52.171900011599064" lon="-8.457493018358946">
        <ele>49.159999999999997</ele>
        <time>2026-06-26T15:21:24Z</time>
      </trkpt>
      <trkpt lat="52.171948961913586" lon="-8.457669960334897">
        <ele>48.200000000000003</ele>
        <time>2026-06-26T15:21:25Z</time>
      </trkpt>
      <trkpt lat="52.171948961913586" lon="-8.457796024158597">
        <ele>47.240000000000002</ele>
        <time>2026-06-26T15:21:26Z</time>
      </trkpt>
      <trkpt lat="52.171948961913586" lon="-8.457963997498155">
        <ele>46.280000000000001</ele>
        <time>2026-06-26T15:21:27Z</time>
      </trkpt>
      <trkpt lat="52.171948961913586" lon="-8.458292987197638">
        <ele>42.920000000000002</ele>
        <time>2026-06-26T15:21:29Z</time>
      </trkpt>
      <trkpt lat="52.17197997495532" lon="-8.458460038527846">
        <ele>41.469999999999999</ele>
        <time>2026-06-26T15:21:30Z</time>
      </trkpt>
      <trkpt lat="52.172018028795719" lon="-8.458644021302462">
        <ele>40.509999999999998</ele>
        <time>2026-06-26T15:21:31Z</time>
      </trkpt>
      <trkpt lat="52.17210796661675" lon="-8.458799002692103">
        <ele>39.07</ele>
        <time>2026-06-26T15:21:32Z</time>
      </trkpt>
      <trkpt lat="52.172208968549967" lon="-8.458935962989926">
        <ele>38.109999999999999</ele>
        <time>2026-06-26T15:21:33Z</time>
      </trkpt>
      <trkpt lat="52.172327991575003" lon="-8.45904802903533">
        <ele>37.630000000000003</ele>
        <time>2026-06-26T15:21:34Z</time>
      </trkpt>
      <trkpt lat="52.172443997114897" lon="-8.45915799960494">
        <ele>36.670000000000002</ele>
        <time>2026-06-26T15:21:35Z</time>
      </trkpt>
      <trkpt lat="52.17255899682641" lon="-8.459254978224635">
        <ele>36.189999999999998</ele>
        <time>2026-06-26T15:21:36Z</time>
      </trkpt>
      <trkpt lat="52.17320398427546" lon="-8.459766022861004">
        <ele>35.710000000000001</ele>
        <time>2026-06-26T15:21:43Z</time>
      </trkpt>
      <trkpt lat="52.173234997317195" lon="-8.459869958460331">
        <ele>36.189999999999998</ele>
        <time>2026-06-26T15:21:44Z</time>
      </trkpt>
      <trkpt lat="52.173257041722536" lon="-8.459957968443632">
        <ele>36.670000000000002</ele>
        <time>2026-06-26T15:21:45Z</time>
      </trkpt>
      <trkpt lat="52.173250000923872" lon="-8.460051007568836">
        <ele>37.149999999999999</ele>
        <time>2026-06-26T15:21:46Z</time>
      </trkpt>
      <trkpt lat="52.173243965953588" lon="-8.460149997845292">
        <ele>37.149999999999999</ele>
        <time>2026-06-26T15:21:47Z</time>
      </trkpt>
      <trkpt lat="52.173236003145576" lon="-8.460260974243283">
        <ele>37.630000000000003</ele>
        <time>2026-06-26T15:21:48Z</time>
      </trkpt>
      <trkpt lat="52.173210019245744" lon="-8.460370022803545">
        <ele>37.630000000000003</ele>
        <time>2026-06-26T15:21:49Z</time>
      </trkpt>
      <trkpt lat="52.173157967627048" lon="-8.460465995594859">
        <ele>38.109999999999999</ele>
        <time>2026-06-26T15:21:50Z</time>
      </trkpt>
      <trkpt lat="52.17307398095727" lon="-8.4605329670012">
        <ele>38.590000000000003</ele>
        <time>2026-06-26T15:21:51Z</time>
      </trkpt>
      <trkpt lat="52.172979013994336" lon="-8.460609996691346">
        <ele>39.07</ele>
        <time>2026-06-26T15:21:52Z</time>
      </trkpt>
      <trkpt lat="52.17288002371788" lon="-8.460665987804532">
        <ele>39.549999999999997</ele>
        <time>2026-06-26T15:21:53Z</time>
      </trkpt>
      <trkpt lat="52.172802994027734" lon="-8.460732037201524">
        <ele>40.030000000000001</ele>
        <time>2026-06-26T15:21:54Z</time>
      </trkpt>
      <trkpt lat="52.172733005136251" lon="-8.46083203330636">
        <ele>40.509999999999998</ele>
        <time>2026-06-26T15:21:55Z</time>
      </trkpt>
      <trkpt lat="52.172672990709543" lon="-8.460927000269294">
        <ele>40.990000000000002</ele>
        <time>2026-06-26T15:21:56Z</time>
      </trkpt>
      <trkpt lat="52.172630997374654" lon="-8.461050968617201">
        <ele>41.469999999999999</ele>
        <time>2026-06-26T15:21:57Z</time>
      </trkpt>
      <trkpt lat="52.172608030959964" lon="-8.461182983592153">
        <ele>41.950000000000003</ele>
        <time>2026-06-26T15:21:58Z</time>
      </trkpt>
      <trkpt lat="52.172597972676158" lon="-8.461320027709007">
        <ele>41.950000000000003</ele>
        <time>2026-06-26T15:21:59Z</time>
      </trkpt>
      <trkpt lat="52.172605013474822" lon="-8.461467968299985">
        <ele>42.439999999999998</ele>
        <time>2026-06-26T15:22:00Z</time>
      </trkpt>
      <trkpt lat="52.172632003203034" lon="-8.461609035730362">
        <ele>42.920000000000002</ele>
        <time>2026-06-26T15:22:01Z</time>
      </trkpt>
      <trkpt lat="52.172723030671477" lon="-8.462074985727668">
        <ele>44.359999999999999</ele>
        <time>2026-06-26T15:22:04Z</time>
      </trkpt>
      <trkpt lat="52.172764018177986" lon="-8.462284030392766">
        <ele>45.32</ele>
        <time>2026-06-26T15:22:05Z</time>
      </trkpt>
      <trkpt lat="52.172916987910867" lon="-8.462682003155351">
        <ele>48.200000000000003</ele>
        <time>2026-06-26T15:22:08Z</time>
      </trkpt>
      <trkpt lat="52.173098037019372" lon="-8.463133033365011">
        <ele>51.090000000000003</ele>
        <time>2026-06-26T15:22:11Z</time>
      </trkpt>
      <trkpt lat="52.173150004819036" lon="-8.463284997269511">
        <ele>52.530000000000001</ele>
        <time>2026-06-26T15:22:12Z</time>
      </trkpt>
      <trkpt lat="52.173141036182642" lon="-8.463462023064494">
        <ele>53.969999999999999</ele>
        <time>2026-06-26T15:22:13Z</time>
      </trkpt>
      <trkpt lat="52.173131983727217" lon="-8.463632008060813">
        <ele>55.409999999999997</ele>
        <time>2026-06-26T15:22:14Z</time>
      </trkpt>
      <trkpt lat="52.173111028969288" lon="-8.463781038299203">
        <ele>56.859999999999999</ele>
        <time>2026-06-26T15:22:15Z</time>
      </trkpt>
      <trkpt lat="52.173038022592664" lon="-8.464068034663796">
        <ele>59.740000000000002</ele>
        <time>2026-06-26T15:22:17Z</time>
      </trkpt>
      <trkpt lat="52.172954035922885" lon="-8.464329969137907">
        <ele>62.619999999999997</ele>
        <time>2026-06-26T15:22:19Z</time>
      </trkpt>
      <trkpt lat="52.172913970425725" lon="-8.46444102935493">
        <ele>63.579999999999998</ele>
        <time>2026-06-26T15:22:20Z</time>
      </trkpt>
      <trkpt lat="52.17270702123642" lon="-8.464830033481121">
        <ele>67.909999999999997</ele>
        <time>2026-06-26T15:22:25Z</time>
      </trkpt>
      <trkpt lat="52.172569977119565" lon="-8.465008987113833">
        <ele>71.269999999999996</ele>
        <time>2026-06-26T15:22:29Z</time>
      </trkpt>
      <trkpt lat="52.172334026545286" lon="-8.465289026498795">
        <ele>75.120000000000005</ele>
        <time>2026-06-26T15:22:34Z</time>
      </trkpt>
      <trkpt lat="52.172267977148294" lon="-8.465365972369909">
        <ele>76.079999999999998</ele>
        <time>2026-06-26T15:22:35Z</time>
      </trkpt>
      <trkpt lat="52.172198994085193" lon="-8.465448031201959">
        <ele>77.040000000000006</ele>
        <time>2026-06-26T15:22:36Z</time>
      </trkpt>
      <trkpt lat="52.171947034075856" lon="-8.465719018131495">
        <ele>79.930000000000007</ele>
        <time>2026-06-26T15:22:39Z</time>
      </trkpt>
      <trkpt lat="52.17187101021409" lon="-8.465825971215963">
        <ele>80.409999999999997</ele>
        <time>2026-06-26T15:22:40Z</time>
      </trkpt>
      <trkpt lat="52.171812001615763" lon="-8.465955974534154">
        <ele>80.890000000000001</ele>
        <time>2026-06-26T15:22:41Z</time>
      </trkpt>
      <trkpt lat="52.171727009117603" lon="-8.466210030019283">
        <ele>81.370000000000005</ele>
        <time>2026-06-26T15:22:43Z</time>
      </trkpt>
      <trkpt lat="52.171670012176037" lon="-8.466382026672363">
        <ele>81.370000000000005</ele>
        <time>2026-06-26T15:22:44Z</time>
      </trkpt>
      <trkpt lat="52.171617960557342" lon="-8.466629041358829">
        <ele>80.890000000000001</ele>
        <time>2026-06-26T15:22:46Z</time>
      </trkpt>
      <trkpt lat="52.171424003317952" lon="-8.467528000473976">
        <ele>82.329999999999998</ele>
        <time>2026-06-26T15:22:53Z</time>
      </trkpt>
      <trkpt lat="52.171390978619456" lon="-8.467669989913702">
        <ele>82.810000000000002</ele>
        <time>2026-06-26T15:22:54Z</time>
      </trkpt>
      <trkpt lat="52.171368012204766" lon="-8.46779496408999">
        <ele>83.290000000000006</ele>
        <time>2026-06-26T15:22:55Z</time>
      </trkpt>
      <trkpt lat="52.171335993334651" lon="-8.467923039570451">
        <ele>83.290000000000006</ele>
        <time>2026-06-26T15:22:56Z</time>
      </trkpt>
      <trkpt lat="52.171261981129646" lon="-8.468034015968442">
        <ele>83.769999999999996</ele>
        <time>2026-06-26T15:22:57Z</time>
      </trkpt>
      <trkpt lat="52.17118302360177" lon="-8.468064023181796">
        <ele>83.769999999999996</ele>
        <time>2026-06-26T15:22:58Z</time>
      </trkpt>
      <trkpt lat="52.171085961163044" lon="-8.468099981546402">
        <ele>84.25</ele>
        <time>2026-06-26T15:22:59Z</time>
      </trkpt>
      <trkpt lat="52.170982025563717" lon="-8.468122025951743">
        <ele>83.769999999999996</ele>
        <time>2026-06-26T15:23:00Z</time>
      </trkpt>
      <trkpt lat="52.1697430126369" lon="-8.468556962907314">
        <ele>81.370000000000005</ele>
        <time>2026-06-26T15:23:12Z</time>
      </trkpt>
      <trkpt lat="52.16910095885396" lon="-8.469030037522316">
        <ele>81.370000000000005</ele>
        <time>2026-06-26T15:23:19Z</time>
      </trkpt>
      <trkpt lat="52.168899960815907" lon="-8.469419041648507">
        <ele>80.409999999999997</ele>
        <time>2026-06-26T15:23:22Z</time>
      </trkpt>
      <trkpt lat="52.168843969702721" lon="-8.469568993896246">
        <ele>79.930000000000007</ele>
        <time>2026-06-26T15:23:23Z</time>
      </trkpt>
      <trkpt lat="52.168591003865004" lon="-8.470244994387031">
        <ele>78</ele>
        <time>2026-06-26T15:23:27Z</time>
      </trkpt>
      <trkpt lat="52.167973006144166" lon="-8.471779972314835">
        <ele>74.159999999999997</ele>
        <time>2026-06-26T15:23:35Z</time>
      </trkpt>
      <trkpt lat="52.167872004210949" lon="-8.471982982009649">
        <ele>73.680000000000007</ele>
        <time>2026-06-26T15:23:36Z</time>
      </trkpt>
      <trkpt lat="52.1677450183779" lon="-8.472151039168239">
        <ele>73.680000000000007</ele>
        <time>2026-06-26T15:23:37Z</time>
      </trkpt>
      <trkpt lat="52.166578005999327" lon="-8.473747037351131">
        <ele>68.870000000000005</ele>
        <time>2026-06-26T15:23:45Z</time>
      </trkpt>
      <trkpt lat="52.164912018924952" lon="-8.476456990465522">
        <ele>65.989999999999995</ele>
        <time>2026-06-26T15:23:56Z</time>
      </trkpt>
      <trkpt lat="52.163831004872918" lon="-8.478116020560265">
        <ele>66.950000000000003</ele>
        <time>2026-06-26T15:24:04Z</time>
      </trkpt>
      <trkpt lat="52.16241798363626" lon="-8.480075960978866">
        <ele>65.510000000000005</ele>
        <time>2026-06-26T15:24:14Z</time>
      </trkpt>
      <trkpt lat="52.161679035052657" lon="-8.481165021657944">
        <ele>65.030000000000001</ele>
        <time>2026-06-26T15:24:19Z</time>
      </trkpt>
      <trkpt lat="52.161549031734467" lon="-8.481414970010519">
        <ele>65.030000000000001</ele>
        <time>2026-06-26T15:24:20Z</time>
      </trkpt>
      <trkpt lat="52.160790972411633" lon="-8.483009962365031">
        <ele>65.989999999999995</ele>
        <time>2026-06-26T15:24:26Z</time>
      </trkpt>
      <trkpt lat="52.159504014998674" lon="-8.485603993758559">
        <ele>65.030000000000001</ele>
        <time>2026-06-26T15:24:36Z</time>
      </trkpt>
      <trkpt lat="52.158499024808407" lon="-8.487171996384859">
        <ele>65.030000000000001</ele>
        <time>2026-06-26T15:24:43Z</time>
      </trkpt>
      <trkpt lat="52.157608028501272" lon="-8.489304017275572">
        <ele>68.390000000000001</ele>
        <time>2026-06-26T15:24:51Z</time>
      </trkpt>
      <trkpt lat="52.157509960234165" lon="-8.489591013640165">
        <ele>67.430000000000007</ele>
        <time>2026-06-26T15:24:52Z</time>
      </trkpt>
      <trkpt lat="52.157413987442851" lon="-8.48988002166152">
        <ele>66.469999999999999</ele>
        <time>2026-06-26T15:24:53Z</time>
      </trkpt>
      <trkpt lat="52.156434981152415" lon="-8.493182994425297">
        <ele>65.510000000000005</ele>
        <time>2026-06-26T15:25:04Z</time>
      </trkpt>
      <trkpt lat="52.155822012573481" lon="-8.496488984674215">
        <ele>55.890000000000001</ele>
        <time>2026-06-26T15:25:14Z</time>
      </trkpt>
      <trkpt lat="52.155705001205206" lon="-8.499262975528836">
        <ele>46.759999999999998</ele>
        <time>2026-06-26T15:25:21Z</time>
      </trkpt>
      <trkpt lat="52.155588995665312" lon="-8.502463018521667">
        <ele>43.399999999999999</ele>
        <time>2026-06-26T15:25:29Z</time>
      </trkpt>
      <trkpt lat="52.155342986807227" lon="-8.505924995988607">
        <ele>45.32</ele>
        <time>2026-06-26T15:25:39Z</time>
      </trkpt>
      <trkpt lat="52.155601987615228" lon="-8.508901996538043">
        <ele>43.399999999999999</ele>
        <time>2026-06-26T15:25:47Z</time>
      </trkpt>
      <trkpt lat="52.155687985941768" lon="-8.51123602129519">
        <ele>41.950000000000003</ele>
        <time>2026-06-26T15:25:54Z</time>
      </trkpt>
      <trkpt lat="52.155409036204219" lon="-8.513962989673019">
        <ele>47.240000000000002</ele>
        <time>2026-06-26T15:26:01Z</time>
      </trkpt>
      <trkpt lat="52.154952976852655" lon="-8.517870968207717">
        <ele>51.57</ele>
        <time>2026-06-26T15:26:11Z</time>
      </trkpt>
      <trkpt lat="52.154457019641995" lon="-8.520659962669015">
        <ele>53.969999999999999</ele>
        <time>2026-06-26T15:26:19Z</time>
      </trkpt>
      <trkpt lat="52.153891995549202" lon="-8.522445978596807">
        <ele>54.93</ele>
        <time>2026-06-26T15:26:25Z</time>
      </trkpt>
      <trkpt lat="52.153089009225368" lon="-8.524718983098865">
        <ele>60.219999999999999</ele>
        <time>2026-06-26T15:26:34Z</time>
      </trkpt>
      <trkpt lat="52.152486015111208" lon="-8.527291975915432">
        <ele>66.950000000000003</ele>
        <time>2026-06-26T15:26:43Z</time>
      </trkpt>
      <trkpt lat="52.152017969638109" lon="-8.529910985380411">
        <ele>66.469999999999999</ele>
        <time>2026-06-26T15:26:53Z</time>
      </trkpt>
      <trkpt lat="52.151886038482189" lon="-8.530668960884213">
        <ele>64.549999999999997</ele>
        <time>2026-06-26T15:26:56Z</time>
      </trkpt>
      <trkpt lat="52.151886038482189" lon="-8.530893009155989">
        <ele>64.069999999999993</ele>
        <time>2026-06-26T15:26:57Z</time>
      </trkpt>
      <trkpt lat="52.151904981583357" lon="-8.531148992478848">
        <ele>63.579999999999998</ele>
        <time>2026-06-26T15:26:58Z</time>
      </trkpt>
      <trkpt lat="52.151956027373672" lon="-8.531396007165313">
        <ele>63.579999999999998</ele>
        <time>2026-06-26T15:26:59Z</time>
      </trkpt>
      <trkpt lat="52.152009001001716" lon="-8.531656013801694">
        <ele>63.100000000000001</ele>
        <time>2026-06-26T15:27:00Z</time>
      </trkpt>
      <trkpt lat="52.152073960751295" lon="-8.53192700073123">
        <ele>62.619999999999997</ele>
        <time>2026-06-26T15:27:01Z</time>
      </trkpt>
      <trkpt lat="52.152672009542584" lon="-8.534233029931784">
        <ele>55.890000000000001</ele>
        <time>2026-06-26T15:27:09Z</time>
      </trkpt>
      <trkpt lat="52.15272699482739" lon="-8.534518014639616">
        <ele>55.409999999999997</ele>
        <time>2026-06-26T15:27:10Z</time>
      </trkpt>
      <trkpt lat="52.152752978727221" lon="-8.534830994904041">
        <ele>55.409999999999997</ele>
        <time>2026-06-26T15:27:11Z</time>
      </trkpt>
      <trkpt lat="52.152969986200333" lon="-8.537639016285539">
        <ele>55.409999999999997</ele>
        <time>2026-06-26T15:27:20Z</time>
      </trkpt>
      <trkpt lat="52.152948025614023" lon="-8.537935987114906">
        <ele>53.490000000000002</ele>
        <time>2026-06-26T15:27:21Z</time>
      </trkpt>
      <trkpt lat="52.152926987037063" lon="-8.538233041763306">
        <ele>51.57</ele>
        <time>2026-06-26T15:27:22Z</time>
      </trkpt>
      <trkpt lat="52.152429018169641" lon="-8.540910976007581">
        <ele>44.359999999999999</ele>
        <time>2026-06-26T15:27:31Z</time>
      </trkpt>
      <trkpt lat="52.152163982391357" lon="-8.543557981029153">
        <ele>47.719999999999999</ele>
        <time>2026-06-26T15:27:40Z</time>
      </trkpt>
      <trkpt lat="52.152156019583344" lon="-8.544917022809386">
        <ele>49.649999999999999</ele>
        <time>2026-06-26T15:27:45Z</time>
      </trkpt>
      <trkpt lat="52.152646025642753" lon="-8.547131018713117">
        <ele>50.609999999999999</ele>
        <time>2026-06-26T15:27:53Z</time>
      </trkpt>
      <trkpt lat="52.152778040617704" lon="-8.547725966200233">
        <ele>50.130000000000003</ele>
        <time>2026-06-26T15:27:55Z</time>
      </trkpt>
      <trkpt lat="52.152807964012027" lon="-8.548026038333774">
        <ele>50.130000000000003</ele>
        <time>2026-06-26T15:27:56Z</time>
      </trkpt>
      <trkpt lat="52.152807964012027" lon="-8.548329966142774">
        <ele>49.649999999999999</ele>
        <time>2026-06-26T15:27:57Z</time>
      </trkpt>
      <trkpt lat="52.15279103256762" lon="-8.548627020791173">
        <ele>49.649999999999999</ele>
        <time>2026-06-26T15:27:58Z</time>
      </trkpt>
      <trkpt lat="52.152763037011027" lon="-8.548929020762444">
        <ele>49.159999999999997</ele>
        <time>2026-06-26T15:27:59Z</time>
      </trkpt>
      <trkpt lat="52.152735041454434" lon="-8.549222974106669">
        <ele>49.159999999999997</ele>
        <time>2026-06-26T15:28:00Z</time>
      </trkpt>
      <trkpt lat="52.152547035366297" lon="-8.551540989428759">
        <ele>54.93</ele>
        <time>2026-06-26T15:28:08Z</time>
      </trkpt>
      <trkpt lat="52.15249297209084" lon="-8.55180099606514">
        <ele>54.93</ele>
        <time>2026-06-26T15:28:09Z</time>
      </trkpt>
      <trkpt lat="52.15184798464179" lon="-8.554619997739792">
        <ele>57.82</ele>
        <time>2026-06-26T15:28:19Z</time>
      </trkpt>
      <trkpt lat="52.151771038770676" lon="-8.555228020995855">
        <ele>55.409999999999997</ele>
        <time>2026-06-26T15:28:21Z</time>
      </trkpt>
      <trkpt lat="52.151759974658489" lon="-8.555547958239913">
        <ele>54.450000000000003</ele>
        <time>2026-06-26T15:28:22Z</time>
      </trkpt>
      <trkpt lat="52.151775984093547" lon="-8.555866973474622">
        <ele>53.490000000000002</ele>
        <time>2026-06-26T15:28:23Z</time>
      </trkpt>
      <trkpt lat="52.151800962164998" lon="-8.556189006194472">
        <ele>52.530000000000001</ele>
        <time>2026-06-26T15:28:24Z</time>
      </trkpt>
      <trkpt lat="52.15186701156199" lon="-8.556500980630517">
        <ele>51.090000000000003</ele>
        <time>2026-06-26T15:28:25Z</time>
      </trkpt>
      <trkpt lat="52.151957033202052" lon="-8.556803986430168">
        <ele>50.130000000000003</ele>
        <time>2026-06-26T15:28:26Z</time>
      </trkpt>
      <trkpt lat="52.152058035135269" lon="-8.557106992229819">
        <ele>49.159999999999997</ele>
        <time>2026-06-26T15:28:27Z</time>
      </trkpt>
      <trkpt lat="52.152188960462809" lon="-8.557389965280891">
        <ele>48.200000000000003</ele>
        <time>2026-06-26T15:28:28Z</time>
      </trkpt>
      <trkpt lat="52.153262011706829" lon="-8.559085037559271">
        <ele>47.240000000000002</ele>
        <time>2026-06-26T15:28:35Z</time>
      </trkpt>
      <trkpt lat="52.154053011909127" lon="-8.560174014419317">
        <ele>51.57</ele>
        <time>2026-06-26T15:28:40Z</time>
      </trkpt>
      <trkpt lat="52.154162982478738" lon="-8.560445001348853">
        <ele>53.009999999999998</ele>
        <time>2026-06-26T15:28:41Z</time>
      </trkpt>
      <trkpt lat="52.154730018228292" lon="-8.562130015343428">
        <ele>58.780000000000001</ele>
        <time>2026-06-26T15:28:47Z</time>
      </trkpt>
      <trkpt lat="52.154773017391562" lon="-8.562450036406517">
        <ele>59.740000000000002</ele>
        <time>2026-06-26T15:28:48Z</time>
      </trkpt>
      <trkpt lat="52.15481199324131" lon="-8.562768967822194">
        <ele>60.700000000000003</ele>
        <time>2026-06-26T15:28:49Z</time>
      </trkpt>
      <trkpt lat="52.154818028211594" lon="-8.563083037734032">
        <ele>61.659999999999997</ele>
        <time>2026-06-26T15:28:50Z</time>
      </trkpt>
      <trkpt lat="52.154807969927788" lon="-8.563393000513315">
        <ele>62.619999999999997</ele>
        <time>2026-06-26T15:28:51Z</time>
      </trkpt>
      <trkpt lat="52.154779974371195" lon="-8.563708998262882">
        <ele>63.100000000000001</ele>
        <time>2026-06-26T15:28:52Z</time>
      </trkpt>
      <trkpt lat="52.154706967994571" lon="-8.564330013468862">
        <ele>64.069999999999993</ele>
        <time>2026-06-26T15:28:54Z</time>
      </trkpt>
      <trkpt lat="52.154649971053004" lon="-8.564634025096893">
        <ele>64.069999999999993</ele>
        <time>2026-06-26T15:28:55Z</time>
      </trkpt>
      <trkpt lat="52.154284017160535" lon="-8.567240964621306">
        <ele>66.950000000000003</ele>
        <time>2026-06-26T15:29:03Z</time>
      </trkpt>
      <trkpt lat="52.154142027720809" lon="-8.570546032860875">
        <ele>70.790000000000006</ele>
        <time>2026-06-26T15:29:13Z</time>
      </trkpt>
      <trkpt lat="52.154282005503774" lon="-8.572797998785973">
        <ele>71.269999999999996</ele>
        <time>2026-06-26T15:29:20Z</time>
      </trkpt>
      <trkpt lat="52.15453396551311" lon="-8.575569977983832">
        <ele>70.310000000000002</ele>
        <time>2026-06-26T15:29:29Z</time>
      </trkpt>
      <trkpt lat="52.154591968283057" lon="-8.577977009117603">
        <ele>71.760000000000005</ele>
        <time>2026-06-26T15:29:37Z</time>
      </trkpt>
      <trkpt lat="52.154161976650357" lon="-8.580455034971237">
        <ele>75.599999999999994</ele>
        <time>2026-06-26T15:29:45Z</time>
      </trkpt>
      <trkpt lat="52.153534004464746" lon="-8.583608977496624">
        <ele>78.480000000000004</ele>
        <time>2026-06-26T15:29:55Z</time>
      </trkpt>
      <trkpt lat="52.153295036405325" lon="-8.586775995790958">
        <ele>80.409999999999997</ele>
        <time>2026-06-26T15:30:05Z</time>
      </trkpt>
      <trkpt lat="52.152993958443403" lon="-8.589068027213216">
        <ele>85.209999999999994</ele>
        <time>2026-06-26T15:30:12Z</time>
      </trkpt>
      <trkpt lat="52.152567990124226" lon="-8.592289024963975">
        <ele>86.180000000000007</ele>
        <time>2026-06-26T15:30:21Z</time>
      </trkpt>
      <trkpt lat="52.152507975697517" lon="-8.595421006903052">
        <ele>85.209999999999994</ele>
        <time>2026-06-26T15:30:30Z</time>
      </trkpt>
      <trkpt lat="52.152507975697517" lon="-8.596047973260284">
        <ele>85.689999999999998</ele>
        <time>2026-06-26T15:30:32Z</time>
      </trkpt>
      <trkpt lat="52.152439998462796" lon="-8.596676029264927">
        <ele>86.180000000000007</ele>
        <time>2026-06-26T15:30:34Z</time>
      </trkpt>
      <trkpt lat="52.152400016784668" lon="-8.596975011751056">
        <ele>86.180000000000007</ele>
        <time>2026-06-26T15:30:35Z</time>
      </trkpt>
      <trkpt lat="52.152333967387676" lon="-8.597250021994114">
        <ele>86.659999999999997</ele>
        <time>2026-06-26T15:30:36Z</time>
      </trkpt>
      <trkpt lat="52.152244029566646" lon="-8.597504999488592">
        <ele>86.659999999999997</ele>
        <time>2026-06-26T15:30:37Z</time>
      </trkpt>
      <trkpt lat="52.152149984613061" lon="-8.597767017781735">
        <ele>86.659999999999997</ele>
        <time>2026-06-26T15:30:38Z</time>
      </trkpt>
      <trkpt lat="52.151371976360679" lon="-8.599915970116854">
        <ele>88.099999999999994</ele>
        <time>2026-06-26T15:30:46Z</time>
      </trkpt>
      <trkpt lat="52.151296036317945" lon="-8.600229034200311">
        <ele>88.099999999999994</ele>
        <time>2026-06-26T15:30:47Z</time>
      </trkpt>
      <trkpt lat="52.150606960058212" lon="-8.603178961202502">
        <ele>83.290000000000006</ele>
        <time>2026-06-26T15:30:56Z</time>
      </trkpt>
      <trkpt lat="52.150117037817836" lon="-8.605121970176697">
        <ele>75.599999999999994</ele>
        <time>2026-06-26T15:31:02Z</time>
      </trkpt>
      <trkpt lat="52.150053000077605" lon="-8.60545196570456">
        <ele>74.640000000000001</ele>
        <time>2026-06-26T15:31:03Z</time>
      </trkpt>
      <trkpt lat="52.149996003136039" lon="-8.605785984545946">
        <ele>74.159999999999997</ele>
        <time>2026-06-26T15:31:04Z</time>
      </trkpt>
      <trkpt lat="52.149978987872601" lon="-8.606118997558951">
        <ele>74.159999999999997</ele>
        <time>2026-06-26T15:31:05Z</time>
      </trkpt>
      <trkpt lat="52.149970019236207" lon="-8.606452010571957">
        <ele>74.640000000000001</ele>
        <time>2026-06-26T15:31:06Z</time>
      </trkpt>
      <trkpt lat="52.149961972609162" lon="-8.606791980564594">
        <ele>75.599999999999994</ele>
        <time>2026-06-26T15:31:07Z</time>
      </trkpt>
      <trkpt lat="52.149954009801149" lon="-8.607133962213993">
        <ele>76.560000000000002</ele>
        <time>2026-06-26T15:31:08Z</time>
      </trkpt>
      <trkpt lat="52.149945963174105" lon="-8.607476027682424">
        <ele>77.519999999999996</ele>
        <time>2026-06-26T15:31:09Z</time>
      </trkpt>
      <trkpt lat="52.149938000366092" lon="-8.607820020988584">
        <ele>78.480000000000004</ele>
        <time>2026-06-26T15:31:10Z</time>
      </trkpt>
      <trkpt lat="52.149667013436556" lon="-8.610035022720695">
        <ele>79.450000000000003</ele>
        <time>2026-06-26T15:31:17Z</time>
      </trkpt>
      <trkpt lat="52.149119004607201" lon="-8.612439958378673">
        <ele>78</ele>
        <time>2026-06-26T15:31:25Z</time>
      </trkpt>
      <trkpt lat="52.148995036259294" lon="-8.613072959706187">
        <ele>77.040000000000006</ele>
        <time>2026-06-26T15:31:27Z</time>
      </trkpt>
      <trkpt lat="52.148940972983837" lon="-8.613390969112515">
        <ele>76.560000000000002</ele>
        <time>2026-06-26T15:31:28Z</time>
      </trkpt>
      <trkpt lat="52.148875007405877" lon="-8.614754034206271">
        <ele>73.680000000000007</ele>
        <time>2026-06-26T15:31:33Z</time>
      </trkpt>
      <trkpt lat="52.149172984063625" lon="-8.617182020097971">
        <ele>69.349999999999994</ele>
        <time>2026-06-26T15:31:43Z</time>
      </trkpt>
      <trkpt lat="52.14954799041152" lon="-8.619662979617715">
        <ele>70.310000000000002</ele>
        <time>2026-06-26T15:31:52Z</time>
      </trkpt>
      <trkpt lat="52.150083007290959" lon="-8.623366020619869">
        <ele>71.760000000000005</ele>
        <time>2026-06-26T15:32:04Z</time>
      </trkpt>
      <trkpt lat="52.150045959278941" lon="-8.625063020735979">
        <ele>67.909999999999997</ele>
        <time>2026-06-26T15:32:10Z</time>
      </trkpt>
      <trkpt lat="52.149928025901318" lon="-8.625569036230445">
        <ele>66.950000000000003</ele>
        <time>2026-06-26T15:32:12Z</time>
      </trkpt>
      <trkpt lat="52.14984898455441" lon="-8.625809010118246">
        <ele>66.469999999999999</ele>
        <time>2026-06-26T15:32:13Z</time>
      </trkpt>
      <trkpt lat="52.149556037038565" lon="-8.626519963145256">
        <ele>65.510000000000005</ele>
        <time>2026-06-26T15:32:16Z</time>
      </trkpt>
      <trkpt lat="52.149430979043245" lon="-8.626730013638735">
        <ele>65.030000000000001</ele>
        <time>2026-06-26T15:32:17Z</time>
      </trkpt>
      <trkpt lat="52.148809041827917" lon="-8.62777297385037">
        <ele>61.659999999999997</ele>
        <time>2026-06-26T15:32:22Z</time>
      </trkpt>
      <trkpt lat="52.148691024631262" lon="-8.627971038222313">
        <ele>61.18</ele>
        <time>2026-06-26T15:32:23Z</time>
      </trkpt>
      <trkpt lat="52.148233037441969" lon="-8.628738988190889">
        <ele>59.259999999999998</ele>
        <time>2026-06-26T15:32:27Z</time>
      </trkpt>
      <trkpt lat="52.148145027458668" lon="-8.628950966522098">
        <ele>58.780000000000001</ele>
        <time>2026-06-26T15:32:28Z</time>
      </trkpt>
      <trkpt lat="52.148089036345482" lon="-8.629176020622253">
        <ele>58.299999999999997</ele>
        <time>2026-06-26T15:32:29Z</time>
      </trkpt>
      <trkpt lat="52.148051988333464" lon="-8.629400990903378">
        <ele>57.82</ele>
        <time>2026-06-26T15:32:30Z</time>
      </trkpt>
      <trkpt lat="52.14802298694849" lon="-8.629674995318055">
        <ele>57.82</ele>
        <time>2026-06-26T15:32:31Z</time>
      </trkpt>
      <trkpt lat="52.14802298694849" lon="-8.629910023882985">
        <ele>57.340000000000003</ele>
        <time>2026-06-26T15:32:32Z</time>
      </trkpt>
      <trkpt lat="52.148013012483716" lon="-8.633368983864784">
        <ele>56.859999999999999</ele>
        <time>2026-06-26T15:32:44Z</time>
      </trkpt>
      <trkpt lat="52.147984011098742" lon="-8.634664993733168">
        <ele>57.340000000000003</ele>
        <time>2026-06-26T15:32:49Z</time>
      </trkpt>
      <trkpt lat="52.147951992228627" lon="-8.634893987327814">
        <ele>57.82</ele>
        <time>2026-06-26T15:32:50Z</time>
      </trkpt>
      <trkpt lat="52.147888038307428" lon="-8.635094985365868">
        <ele>58.299999999999997</ele>
        <time>2026-06-26T15:32:51Z</time>
      </trkpt>
      <trkpt lat="52.147603975608945" lon="-8.635988999158144">
        <ele>56.859999999999999</ele>
        <time>2026-06-26T15:32:56Z</time>
      </trkpt>
      <trkpt lat="52.147559970617294" lon="-8.636126965284348">
        <ele>56.369999999999997</ele>
        <time>2026-06-26T15:32:57Z</time>
      </trkpt>
      <trkpt lat="52.147511020302773" lon="-8.636240037158132">
        <ele>56.369999999999997</ele>
        <time>2026-06-26T15:32:58Z</time>
      </trkpt>
      <trkpt lat="52.147429967299104" lon="-8.636411027982831">
        <ele>56.859999999999999</ele>
        <time>2026-06-26T15:33:00Z</time>
      </trkpt>
      <trkpt lat="52.147403983399272" lon="-8.636466013267636">
        <ele>56.859999999999999</ele>
        <time>2026-06-26T15:33:01Z</time>
      </trkpt>
      <trkpt lat="52.14744295924902" lon="-8.636566009372473">
        <ele>56.859999999999999</ele>
        <time>2026-06-26T15:33:02Z</time>
      </trkpt>
      <trkpt lat="52.147488975897431" lon="-8.636568021029234">
        <ele>56.859999999999999</ele>
        <time>2026-06-26T15:33:03Z</time>
      </trkpt>
      <trkpt lat="52.147557036951184" lon="-8.636570032685995">
        <ele>56.859999999999999</ele>
        <time>2026-06-26T15:33:04Z</time>
      </trkpt>
      <trkpt lat="52.147638006135821" lon="-8.636572966352105">
        <ele>56.859999999999999</ele>
        <time>2026-06-26T15:33:05Z</time>
      </trkpt>
      <trkpt lat="52.147727021947503" lon="-8.636576989665628">
        <ele>56.859999999999999</ele>
        <time>2026-06-26T15:33:06Z</time>
      </trkpt>
      <trkpt lat="52.147973030805588" lon="-8.636599034070969">
        <ele>56.859999999999999</ele>
        <time>2026-06-26T15:33:09Z</time>
      </trkpt>
      <trkpt lat="52.148040002211928" lon="-8.636626023799181">
        <ele>56.859999999999999</ele>
        <time>2026-06-26T15:33:10Z</time>
      </trkpt>
      <trkpt lat="52.148098004981875" lon="-8.636649996042252">
        <ele>56.859999999999999</ele>
        <time>2026-06-26T15:33:11Z</time>
      </trkpt>
      <trkpt lat="52.148143015801907" lon="-8.636669022962451">
        <ele>56.859999999999999</ele>
        <time>2026-06-26T15:33:12Z</time>
      </trkpt>
      <trkpt lat="52.148216022178531" lon="-8.636884018778801">
        <ele>56.859999999999999</ele>
        <time>2026-06-26T15:33:13Z</time>
      </trkpt>
      <trkpt lat="52.148179979994893" lon="-8.636946966871619">
        <ele>57.340000000000003</ele>
        <time>2026-06-26T15:33:14Z</time>
      </trkpt>
      <trkpt lat="52.148132035508752" lon="-8.63703103736043">
        <ele>57.82</ele>
        <time>2026-06-26T15:33:15Z</time>
      </trkpt>
      <trkpt lat="52.148075960576534" lon="-8.637127010151744">
        <ele>57.82</ele>
        <time>2026-06-26T15:33:16Z</time>
      </trkpt>
      <trkpt lat="52.147776978090405" lon="-8.63763595931232">
        <ele>56.859999999999999</ele>
        <time>2026-06-26T15:33:21Z</time>
      </trkpt>
      <trkpt lat="52.147192005068064" lon="-8.638570960611105">
        <ele>61.18</ele>
        <time>2026-06-26T15:33:30Z</time>
      </trkpt>
      <trkpt lat="52.147152023389935" lon="-8.638637010008097">
        <ele>62.140000000000001</ele>
        <time>2026-06-26T15:33:31Z</time>
      </trkpt>
      <trkpt lat="52.147112041711807" lon="-8.638702975586057">
        <ele>62.619999999999997</ele>
        <time>2026-06-26T15:33:32Z</time>
      </trkpt>
      <trkpt lat="52.147067030891776" lon="-8.638780005276203">
        <ele>63.100000000000001</ele>
        <time>2026-06-26T15:33:33Z</time>
      </trkpt>
      <trkpt lat="52.146844994276762" lon="-8.63911796361208">
        <ele>65.989999999999995</ele>
        <time>2026-06-26T15:33:37Z</time>
      </trkpt>
      <trkpt lat="52.146725971251726" lon="-8.639291971921921">
        <ele>67.430000000000007</ele>
        <time>2026-06-26T15:33:39Z</time>
      </trkpt>
      <trkpt lat="52.146344007924199" lon="-8.639818020164967">
        <ele>70.310000000000002</ele>
        <time>2026-06-26T15:33:46Z</time>
      </trkpt>
      <trkpt lat="52.145821982994676" lon="-8.640659982338548">
        <ele>74.159999999999997</ele>
        <time>2026-06-26T15:33:54Z</time>
      </trkpt>
      <trkpt lat="52.145432978868484" lon="-8.641463974490762">
        <ele>76.560000000000002</ele>
        <time>2026-06-26T15:34:03Z</time>
      </trkpt>
      <trkpt lat="52.145231980830431" lon="-8.641959009692073">
        <ele>77.519999999999996</ele>
        <time>2026-06-26T15:34:08Z</time>
      </trkpt>
      <trkpt lat="52.145184958353639" lon="-8.642063029110432">
        <ele>77.519999999999996</ele>
        <time>2026-06-26T15:34:09Z</time>
      </trkpt>
      <trkpt lat="52.145123016089201" lon="-8.642139974981546">
        <ele>77.519999999999996</ele>
        <time>2026-06-26T15:34:10Z</time>
      </trkpt>
      <trkpt lat="52.144665028899908" lon="-8.642699969932437">
        <ele>79.930000000000007</ele>
        <time>2026-06-26T15:34:18Z</time>
      </trkpt>
      <trkpt lat="52.144504012539983" lon="-8.642902979627252">
        <ele>81.849999999999994</ele>
        <time>2026-06-26T15:34:21Z</time>
      </trkpt>
      <trkpt lat="52.144356993958354" lon="-8.643154017627239">
        <ele>83.769999999999996</ele>
        <time>2026-06-26T15:34:24Z</time>
      </trkpt>
      <trkpt lat="52.144316006451845" lon="-8.643230041489005">
        <ele>83.769999999999996</ele>
        <time>2026-06-26T15:34:25Z</time>
      </trkpt>
      <trkpt lat="52.144290022552013" lon="-8.643278991803527">
        <ele>84.25</ele>
        <time>2026-06-26T15:34:26Z</time>
      </trkpt>
      <trkpt lat="52.144013000652194" lon="-8.643977036699653">
        <ele>87.140000000000001</ele>
        <time>2026-06-26T15:34:37Z</time>
      </trkpt>
      <trkpt lat="52.144013000652194" lon="-8.643977036699653">
        <ele>86.180000000000007</ele>
        <time>2026-06-26T15:34:50Z</time>
      </trkpt>
      <trkpt lat="52.144013000652194" lon="-8.643977036699653">
        <ele>86.180000000000007</ele>
        <time>2026-06-26T15:35:14Z</time>
      </trkpt>
      <trkpt lat="52.143993973731995" lon="-8.64420996978879">
        <ele>86.180000000000007</ele>
        <time>2026-06-26T15:35:26Z</time>
      </trkpt>
      <trkpt lat="52.144015012308955" lon="-8.644233020022512">
        <ele>86.180000000000007</ele>
        <time>2026-06-26T15:35:27Z</time>
      </trkpt>
      <trkpt lat="52.144059017300606" lon="-8.644280964508653">
        <ele>85.689999999999998</ele>
        <time>2026-06-26T15:35:28Z</time>
      </trkpt>
      <trkpt lat="52.144117020070553" lon="-8.644342990592122">
        <ele>85.689999999999998</ele>
        <time>2026-06-26T15:35:29Z</time>
      </trkpt>
      <trkpt lat="52.144178040325642" lon="-8.644409039989114">
        <ele>85.689999999999998</ele>
        <time>2026-06-26T15:35:30Z</time>
      </trkpt>
      <trkpt lat="52.144245011731982" lon="-8.644478023052216">
        <ele>85.689999999999998</ele>
        <time>2026-06-26T15:35:31Z</time>
      </trkpt>
      <trkpt lat="52.144849011674523" lon="-8.645022008568049">
        <ele>82.810000000000002</ele>
        <time>2026-06-26T15:35:39Z</time>
      </trkpt>
      <trkpt lat="52.144924029707909" lon="-8.645038018003106">
        <ele>81.849999999999994</ele>
        <time>2026-06-26T15:35:40Z</time>
      </trkpt>
      <trkpt lat="52.145063001662493" lon="-8.64506802521646">
        <ele>80.890000000000001</ele>
        <time>2026-06-26T15:35:42Z</time>
      </trkpt>
      <trkpt lat="52.145140031352639" lon="-8.645120998844504">
        <ele>79.930000000000007</ele>
        <time>2026-06-26T15:35:43Z</time>
      </trkpt>
      <trkpt lat="52.145171966403723" lon="-8.645211020484567">
        <ele>79.450000000000003</ele>
        <time>2026-06-26T15:35:44Z</time>
      </trkpt>
      <trkpt lat="52.145200967788696" lon="-8.645292995497584">
        <ele>78.969999999999999</ele>
        <time>2026-06-26T15:35:45Z</time>
      </trkpt>
      <trkpt lat="52.145225023850799" lon="-8.645361978560686">
        <ele>78.480000000000004</ele>
        <time>2026-06-26T15:35:46Z</time>
      </trkpt>
      <trkpt lat="52.145199039950967" lon="-8.64551997743547">
        <ele>78</ele>
        <time>2026-06-26T15:35:47Z</time>
      </trkpt>
      <trkpt lat="52.145148999989033" lon="-8.6455840151757">
        <ele>77.040000000000006</ele>
        <time>2026-06-26T15:35:48Z</time>
      </trkpt>
      <trkpt lat="52.145093008875847" lon="-8.645658027380705">
        <ele>76.560000000000002</ele>
        <time>2026-06-26T15:35:49Z</time>
      </trkpt>
      <trkpt lat="52.145029976963997" lon="-8.645740002393723">
        <ele>75.599999999999994</ele>
        <time>2026-06-26T15:35:50Z</time>
      </trkpt>
      <trkpt lat="52.144393036141992" lon="-8.646568972617388">
        <ele>72.239999999999995</ele>
        <time>2026-06-26T15:35:58Z</time>
      </trkpt>
      <trkpt lat="52.143957009539008" lon="-8.647190993651748">
        <ele>70.310000000000002</ele>
        <time>2026-06-26T15:36:05Z</time>
      </trkpt>
      <trkpt lat="52.143442025408149" lon="-8.647934971377254">
        <ele>68.390000000000001</ele>
        <time>2026-06-26T15:36:16Z</time>
      </trkpt>
      <trkpt lat="52.143384022638202" lon="-8.648017030209303">
        <ele>67.909999999999997</ele>
        <time>2026-06-26T15:36:17Z</time>
      </trkpt>
      <trkpt lat="52.143324008211493" lon="-8.648105040192604">
        <ele>66.950000000000003</ele>
        <time>2026-06-26T15:36:18Z</time>
      </trkpt>
      <trkpt lat="52.143257958814502" lon="-8.648201012983918">
        <ele>66.469999999999999</ele>
        <time>2026-06-26T15:36:19Z</time>
      </trkpt>
      <trkpt lat="52.143054027110338" lon="-8.648494966328144">
        <ele>64.069999999999993</ele>
        <time>2026-06-26T15:36:22Z</time>
      </trkpt>
      <trkpt lat="52.142965011298656" lon="-8.648600997403264">
        <ele>64.069999999999993</ele>
        <time>2026-06-26T15:36:23Z</time>
      </trkpt>
      <trkpt lat="52.142870966345072" lon="-8.648600997403264">
        <ele>64.069999999999993</ele>
        <time>2026-06-26T15:36:24Z</time>
      </trkpt>
      <trkpt lat="52.142772981896996" lon="-8.648600997403264">
        <ele>64.069999999999993</ele>
        <time>2026-06-26T15:36:25Z</time>
      </trkpt>
      <trkpt lat="52.142671979963779" lon="-8.648600997403264">
        <ele>63.579999999999998</ele>
        <time>2026-06-26T15:36:26Z</time>
      </trkpt>
      <trkpt lat="52.142058005556464" lon="-8.648600997403264">
        <ele>62.140000000000001</ele>
        <time>2026-06-26T15:36:34Z</time>
      </trkpt>
      <trkpt lat="52.141484012827277" lon="-8.64878598600626">
        <ele>60.219999999999999</ele>
        <time>2026-06-26T15:36:44Z</time>
      </trkpt>
      <trkpt lat="52.141392985358834" lon="-8.648814987391233">
        <ele>60.219999999999999</ele>
        <time>2026-06-26T15:36:45Z</time>
      </trkpt>
      <trkpt lat="52.141350992023945" lon="-8.648818004876375">
        <ele>60.219999999999999</ele>
        <time>2026-06-26T15:36:46Z</time>
      </trkpt>
      <trkpt lat="52.141214031726122" lon="-8.648826973512769">
        <ele>60.219999999999999</ele>
        <time>2026-06-26T15:36:48Z</time>
      </trkpt>
      <trkpt lat="52.141077993437648" lon="-8.648912971839309">
        <ele>59.740000000000002</ele>
        <time>2026-06-26T15:36:54Z</time>
      </trkpt>
      <trkpt lat="52.141084028407931" lon="-8.648979021236301">
        <ele>59.259999999999998</ele>
        <time>2026-06-26T15:36:55Z</time>
      </trkpt>
      <trkpt lat="52.141090985387564" lon="-8.649054961279035">
        <ele>58.780000000000001</ele>
        <time>2026-06-26T15:36:56Z</time>
      </trkpt>
      <trkpt lat="52.141111018136144" lon="-8.649111958220601">
        <ele>58.299999999999997</ele>
        <time>2026-06-26T15:36:57Z</time>
      </trkpt>
      <trkpt lat="52.141141025349498" lon="-8.649179013445973">
        <ele>58.299999999999997</ele>
        <time>2026-06-26T15:36:58Z</time>
      </trkpt>
      <trkpt lat="52.141180001199245" lon="-8.649261994287372">
        <ele>57.82</ele>
        <time>2026-06-26T15:36:59Z</time>
      </trkpt>
      <trkpt lat="52.141229035332799" lon="-8.649369031190872">
        <ele>57.340000000000003</ele>
        <time>2026-06-26T15:37:00Z</time>
      </trkpt>
      <trkpt lat="52.141335988417268" lon="-8.649601964280009">
        <ele>56.859999999999999</ele>
        <time>2026-06-26T15:37:02Z</time>
      </trkpt>
      <trkpt lat="52.141388040035963" lon="-8.649716963991523">
        <ele>56.859999999999999</ele>
        <time>2026-06-26T15:37:03Z</time>
      </trkpt>
      <trkpt lat="52.141733961179852" lon="-8.651194022968411">
        <ele>57.82</ele>
        <time>2026-06-26T15:37:14Z</time>
      </trkpt>
      <trkpt lat="52.141891960054636" lon="-8.652127012610436">
        <ele>58.780000000000001</ele>
        <time>2026-06-26T15:37:20Z</time>
      </trkpt>
      <trkpt lat="52.141929008066654" lon="-8.652270007878542">
        <ele>58.780000000000001</ele>
        <time>2026-06-26T15:37:21Z</time>
      </trkpt>
      <trkpt lat="52.141988016664982" lon="-8.652388025075197">
        <ele>58.780000000000001</ele>
        <time>2026-06-26T15:37:22Z</time>
      </trkpt>
      <trkpt lat="52.14204803109169" lon="-8.652506964281201">
        <ele>59.259999999999998</ele>
        <time>2026-06-26T15:37:23Z</time>
      </trkpt>
      <trkpt lat="52.142104022204876" lon="-8.652619030326605">
        <ele>59.259999999999998</ele>
        <time>2026-06-26T15:37:24Z</time>
      </trkpt>
      <trkpt lat="52.14215699583292" lon="-8.652725983411074">
        <ele>59.740000000000002</ele>
        <time>2026-06-26T15:37:25Z</time>
      </trkpt>
      <trkpt lat="52.142206029966474" lon="-8.65282204002142">
        <ele>59.740000000000002</ele>
        <time>2026-06-26T15:37:26Z</time>
      </trkpt>
      <trkpt lat="52.142251040786505" lon="-8.652913989499211">
        <ele>59.740000000000002</ele>
        <time>2026-06-26T15:37:27Z</time>
      </trkpt>
      <trkpt lat="52.142277024686337" lon="-8.652976015582681">
        <ele>60.219999999999999</ele>
        <time>2026-06-26T15:37:28Z</time>
      </trkpt>
      <trkpt lat="52.142294039949775" lon="-8.65301700308919">
        <ele>59.740000000000002</ele>
        <time>2026-06-26T15:37:29Z</time>
      </trkpt>
      <trkpt lat="52.142257997766137" lon="-8.653279021382332">
        <ele>59.740000000000002</ele>
        <time>2026-06-26T15:37:30Z</time>
      </trkpt>
      <trkpt lat="52.142187003046274" lon="-8.653321014717221">
        <ele>59.259999999999998</ele>
        <time>2026-06-26T15:37:31Z</time>
      </trkpt>
      <trkpt lat="52.142187003046274" lon="-8.653321014717221">
        <ele>59.259999999999998</ele>
        <time>2026-06-26T15:37:32Z</time>
      </trkpt>
      <trkpt lat="52.142136041074991" lon="-8.653312968090177">
        <ele>58.780000000000001</ele>
        <time>2026-06-26T15:37:33Z</time>
      </trkpt>
      <trkpt lat="52.142067980021238" lon="-8.653301987797022">
        <ele>58.780000000000001</ele>
        <time>2026-06-26T15:37:34Z</time>
      </trkpt>
      <trkpt lat="52.141995979472995" lon="-8.653290001675487">
        <ele>58.780000000000001</ele>
        <time>2026-06-26T15:37:35Z</time>
      </trkpt>
      <trkpt lat="52.141918027773499" lon="-8.653281033039093">
        <ele>58.299999999999997</ele>
        <time>2026-06-26T15:37:36Z</time>
      </trkpt>
      <trkpt lat="52.141831023618579" lon="-8.653302993625403">
        <ele>57.82</ele>
        <time>2026-06-26T15:37:37Z</time>
      </trkpt>
      <trkpt lat="52.141658021137118" lon="-8.653337024152279">
        <ele>56.859999999999999</ele>
        <time>2026-06-26T15:37:39Z</time>
      </trkpt>
      <trkpt lat="52.141573028638959" lon="-8.653302993625403">
        <ele>56.369999999999997</ele>
        <time>2026-06-26T15:37:40Z</time>
      </trkpt>
      <trkpt lat="52.141327019780874" lon="-8.653205009177327">
        <ele>54.450000000000003</ele>
        <time>2026-06-26T15:37:43Z</time>
      </trkpt>
      <trkpt lat="52.141243033111095" lon="-8.653170978650451">
        <ele>52.049999999999997</ele>
        <time>2026-06-26T15:37:50Z</time>
      </trkpt>
      <trkpt lat="52.140987971797585" lon="-8.652799995616078">
        <ele>52.049999999999997</ele>
        <time>2026-06-26T15:37:52Z</time>
      </trkpt>
      <trkpt lat="52.140858974307775" lon="-8.652339996770024">
        <ele>52.049999999999997</ele>
        <time>2026-06-26T15:37:56Z</time>
      </trkpt>
      <trkpt lat="52.140813963487744" lon="-8.651653015986085">
        <ele>50.609999999999999</ele>
        <time>2026-06-26T15:38:01Z</time>
      </trkpt>
      <trkpt lat="52.140686977654696" lon="-8.651221012696624">
        <ele>50.130000000000003</ele>
        <time>2026-06-26T15:38:05Z</time>
      </trkpt>
      <trkpt lat="52.14056602679193" lon="-8.650996964424849">
        <ele>49.649999999999999</ele>
        <time>2026-06-26T15:38:09Z</time>
      </trkpt>
      <trkpt lat="52.140521015971899" lon="-8.651099978014827">
        <ele>52.049999999999997</ele>
        <time>2026-06-26T15:38:16Z</time>
      </trkpt>
      <trkpt lat="52.140940027311444" lon="-8.651507003232837">
        <ele>53.490000000000002</ele>
        <time>2026-06-26T15:38:21Z</time>
      </trkpt>
      <trkpt lat="52.140921000391245" lon="-8.651712024584413">
        <ele>53.490000000000002</ele>
        <time>2026-06-26T15:38:22Z</time>
      </trkpt>
      <trkpt lat="52.140919994562864" lon="-8.651745971292257">
        <ele>53.490000000000002</ele>
        <time>2026-06-26T15:38:23Z</time>
      </trkpt>
      <trkpt lat="52.140914965420961" lon="-8.65189902484417">
        <ele>53.490000000000002</ele>
        <time>2026-06-26T15:38:24Z</time>
      </trkpt>
      <trkpt lat="52.14091002009809" lon="-8.652054006233811">
        <ele>53.490000000000002</ele>
        <time>2026-06-26T15:38:25Z</time>
      </trkpt>
      <trkpt lat="52.140899039804935" lon="-8.652376960963011">
        <ele>53.969999999999999</ele>
        <time>2026-06-26T15:38:27Z</time>
      </trkpt>
      <trkpt lat="52.140917982906103" lon="-8.652488021180034">
        <ele>53.969999999999999</ele>
        <time>2026-06-26T15:38:28Z</time>
      </trkpt>
      <trkpt lat="52.140960982069373" lon="-8.652615007013083">
        <ele>54.450000000000003</ele>
        <time>2026-06-26T15:38:29Z</time>
      </trkpt>
      <trkpt lat="52.141013033688068" lon="-8.652755990624428">
        <ele>54.93</ele>
        <time>2026-06-26T15:38:30Z</time>
      </trkpt>
      <trkpt lat="52.141071036458015" lon="-8.652913989499211">
        <ele>55.409999999999997</ele>
        <time>2026-06-26T15:38:31Z</time>
      </trkpt>
      <trkpt lat="52.141115963459015" lon="-8.653012979775667">
        <ele>55.890000000000001</ele>
        <time>2026-06-26T15:38:32Z</time>
      </trkpt>
      <trkpt lat="52.14116700924933" lon="-8.65312596783042">
        <ele>56.369999999999997</ele>
        <time>2026-06-26T15:38:33Z</time>
      </trkpt>
      <trkpt lat="52.141177989542484" lon="-8.653150023892522">
        <ele>56.369999999999997</ele>
        <time>2026-06-26T15:38:34Z</time>
      </trkpt>
      <trkpt lat="52.141499016433954" lon="-8.653278015553951">
        <ele>56.859999999999999</ele>
        <time>2026-06-26T15:38:37Z</time>
      </trkpt>
      <trkpt lat="52.141778971999884" lon="-8.653315985575318">
        <ele>57.82</ele>
        <time>2026-06-26T15:38:40Z</time>
      </trkpt>
      <trkpt lat="52.141929008066654" lon="-8.653278015553951">
        <ele>58.780000000000001</ele>
        <time>2026-06-26T15:38:42Z</time>
      </trkpt>
      <trkpt lat="52.141977036371827" lon="-8.653285978361964">
        <ele>59.259999999999998</ele>
        <time>2026-06-26T15:38:43Z</time>
      </trkpt>
      <trkpt lat="52.142015006393194" lon="-8.653293019160628">
        <ele>59.740000000000002</ele>
        <time>2026-06-26T15:38:44Z</time>
      </trkpt>
      <trkpt lat="52.142040990293026" lon="-8.653296958655119">
        <ele>60.219999999999999</ele>
        <time>2026-06-26T15:38:45Z</time>
      </trkpt>
      <trkpt lat="52.142101004719734" lon="-8.65351396612823">
        <ele>60.219999999999999</ele>
        <time>2026-06-26T15:38:46Z</time>
      </trkpt>
      <trkpt lat="52.142101004719734" lon="-8.65351396612823">
        <ele>60.700000000000003</ele>
        <time>2026-06-26T15:38:47Z</time>
      </trkpt>
      <trkpt lat="52.142056999728084" lon="-8.653545984998345">
        <ele>61.18</ele>
        <time>2026-06-26T15:38:48Z</time>
      </trkpt>
      <trkpt lat="52.142011988908052" lon="-8.653578003868461">
        <ele>61.18</ele>
        <time>2026-06-26T15:38:49Z</time>
      </trkpt>
      <trkpt lat="52.141939988359809" lon="-8.653623014688492">
        <ele>62.140000000000001</ele>
        <time>2026-06-26T15:38:50Z</time>
      </trkpt>
      <trkpt lat="52.141853990033269" lon="-8.653636006638408">
        <ele>62.619999999999997</ele>
        <time>2026-06-26T15:38:51Z</time>
      </trkpt>
      <trkpt lat="52.141752988100052" lon="-8.653651010245085">
        <ele>63.100000000000001</ele>
        <time>2026-06-26T15:38:52Z</time>
      </trkpt>
      <trkpt lat="52.141638994216919" lon="-8.653668025508523">
        <ele>63.100000000000001</ele>
        <time>2026-06-26T15:38:53Z</time>
      </trkpt>
      <trkpt lat="52.140534007921815" lon="-8.653765004128218">
        <ele>64.549999999999997</ele>
        <time>2026-06-26T15:39:01Z</time>
      </trkpt>
      <trkpt lat="52.138917976990342" lon="-8.653999026864767">
        <ele>64.549999999999997</ele>
        <time>2026-06-26T15:39:12Z</time>
      </trkpt>
      <trkpt lat="52.138150027021766" lon="-8.654284011572599">
        <ele>63.100000000000001</ele>
        <time>2026-06-26T15:39:20Z</time>
      </trkpt>
      <trkpt lat="52.13809797540307" lon="-8.65430798381567">
        <ele>63.100000000000001</ele>
        <time>2026-06-26T15:39:21Z</time>
      </trkpt>
      <trkpt lat="52.137959003448486" lon="-8.65437101572752">
        <ele>63.579999999999998</ele>
        <time>2026-06-26T15:39:29Z</time>
      </trkpt>
      <trkpt lat="52.137841992080212" lon="-8.654423989355564">
        <ele>63.579999999999998</ele>
        <time>2026-06-26T15:39:43Z</time>
      </trkpt>
      <trkpt lat="52.137745013460517" lon="-8.654416026547551">
        <ele>63.579999999999998</ele>
        <time>2026-06-26T15:39:44Z</time>
      </trkpt>
      <trkpt lat="52.137706037610769" lon="-8.654416026547551">
        <ele>63.579999999999998</ele>
        <time>2026-06-26T15:39:45Z</time>
      </trkpt>
      <trkpt lat="52.137634959071875" lon="-8.654416026547551">
        <ele>63.100000000000001</ele>
        <time>2026-06-26T15:39:46Z</time>
      </trkpt>
      <trkpt lat="52.137577962130308" lon="-8.654433041810989">
        <ele>63.100000000000001</ele>
        <time>2026-06-26T15:39:47Z</time>
      </trkpt>
      <trkpt lat="52.137547032907605" lon="-8.654508981853724">
        <ele>63.100000000000001</ele>
        <time>2026-06-26T15:39:48Z</time>
      </trkpt>
      <trkpt lat="52.137536974623799" lon="-8.654604032635689">
        <ele>62.619999999999997</ele>
        <time>2026-06-26T15:39:49Z</time>
      </trkpt>
      <trkpt lat="52.137530017644167" lon="-8.654717020690441">
        <ele>62.619999999999997</ele>
        <time>2026-06-26T15:39:50Z</time>
      </trkpt>
      <trkpt lat="52.137517025694251" lon="-8.655247008427978">
        <ele>62.619999999999997</ele>
        <time>2026-06-26T15:39:54Z</time>
      </trkpt>
      <trkpt lat="52.137500010430813" lon="-8.655376005917788">
        <ele>62.619999999999997</ele>
        <time>2026-06-26T15:39:55Z</time>
      </trkpt>
      <trkpt lat="52.137462962418795" lon="-8.655647998675704">
        <ele>61.659999999999997</ele>
        <time>2026-06-26T15:39:57Z</time>
      </trkpt>
      <trkpt lat="52.137145958840847" lon="-8.657372994348407">
        <ele>58.780000000000001</ele>
        <time>2026-06-26T15:40:06Z</time>
      </trkpt>
      <trkpt lat="52.137059038504958" lon="-8.657820001244545">
        <ele>58.780000000000001</ele>
        <time>2026-06-26T15:40:08Z</time>
      </trkpt>
      <trkpt lat="52.136887963861227" lon="-8.658701023086906">
        <ele>58.299999999999997</ele>
        <time>2026-06-26T15:40:12Z</time>
      </trkpt>
      <trkpt lat="52.136832978576422" lon="-8.658910989761353">
        <ele>58.299999999999997</ele>
        <time>2026-06-26T15:40:13Z</time>
      </trkpt>
      <trkpt lat="52.136348001658916" lon="-8.660889035090804">
        <ele>54.93</ele>
        <time>2026-06-26T15:40:22Z</time>
      </trkpt>
      <trkpt lat="52.136107021942735" lon="-8.663117028772831">
        <ele>53.009999999999998</ele>
        <time>2026-06-26T15:40:32Z</time>
      </trkpt>
      <trkpt lat="52.136052958667278" lon="-8.665438983589411">
        <ele>51.090000000000003</ele>
        <time>2026-06-26T15:40:40Z</time>
      </trkpt>
      <trkpt lat="52.135972995311022" lon="-8.668442973867059">
        <ele>47.719999999999999</ele>
        <time>2026-06-26T15:40:49Z</time>
      </trkpt>
      <trkpt lat="52.135911975055933" lon="-8.669521976262331">
        <ele>47.719999999999999</ele>
        <time>2026-06-26T15:40:52Z</time>
      </trkpt>
      <trkpt lat="52.135803010314703" lon="-8.670237958431244">
        <ele>47.240000000000002</ele>
        <time>2026-06-26T15:40:54Z</time>
      </trkpt>
      <trkpt lat="52.135549960657954" lon="-8.671188969165087">
        <ele>47.719999999999999</ele>
        <time>2026-06-26T15:40:57Z</time>
      </trkpt>
      <trkpt lat="52.135124998167157" lon="-8.672279035672545">
        <ele>48.200000000000003</ele>
        <time>2026-06-26T15:41:01Z</time>
      </trkpt>
      <trkpt lat="52.134975967928767" lon="-8.672496965155006">
        <ele>48.200000000000003</ele>
        <time>2026-06-26T15:41:02Z</time>
      </trkpt>
      <trkpt lat="52.134825009852648" lon="-8.672716990113258">
        <ele>48.200000000000003</ele>
        <time>2026-06-26T15:41:03Z</time>
      </trkpt>
      <trkpt lat="52.134672040119767" lon="-8.672938020899892">
        <ele>47.719999999999999</ele>
        <time>2026-06-26T15:41:04Z</time>
      </trkpt>
      <trkpt lat="52.134502977132797" lon="-8.673110017552972">
        <ele>47.719999999999999</ele>
        <time>2026-06-26T15:41:05Z</time>
      </trkpt>
      <trkpt lat="52.133280979469419" lon="-8.674428993836045">
        <ele>48.68</ele>
        <time>2026-06-26T15:41:12Z</time>
      </trkpt>
      <trkpt lat="52.133119041100144" lon="-8.674662010744214">
        <ele>48.68</ele>
        <time>2026-06-26T15:41:13Z</time>
      </trkpt>
      <trkpt lat="52.13296003639698" lon="-8.674905002117157">
        <ele>48.68</ele>
        <time>2026-06-26T15:41:14Z</time>
      </trkpt>
      <trkpt lat="52.132815029472113" lon="-8.675166014581919">
        <ele>48.68</ele>
        <time>2026-06-26T15:41:15Z</time>
      </trkpt>
      <trkpt lat="52.132686031982303" lon="-8.67544898763299">
        <ele>48.68</ele>
        <time>2026-06-26T15:41:16Z</time>
      </trkpt>
      <trkpt lat="52.13257203809917" lon="-8.675743024796248">
        <ele>48.200000000000003</ele>
        <time>2026-06-26T15:41:17Z</time>
      </trkpt>
      <trkpt lat="52.132023023441434" lon="-8.677642028778791">
        <ele>48.200000000000003</ele>
        <time>2026-06-26T15:41:23Z</time>
      </trkpt>
      <trkpt lat="52.131856977939606" lon="-8.679028982296586">
        <ele>49.159999999999997</ele>
        <time>2026-06-26T15:41:27Z</time>
      </trkpt>
      <trkpt lat="52.131888996809721" lon="-8.682918017730117">
        <ele>51.57</ele>
        <time>2026-06-26T15:41:38Z</time>
      </trkpt>
      <trkpt lat="52.132414961233735" lon="-8.687202008441091">
        <ele>53.009999999999998</ele>
        <time>2026-06-26T15:41:50Z</time>
      </trkpt>
      <trkpt lat="52.13293899782002" lon="-8.691107975319028">
        <ele>54.93</ele>
        <time>2026-06-26T15:42:01Z</time>
      </trkpt>
      <trkpt lat="52.133406037464738" lon="-8.693993026390672">
        <ele>53.009999999999998</ele>
        <time>2026-06-26T15:42:10Z</time>
      </trkpt>
      <trkpt lat="52.133683981373906" lon="-8.696250021457672">
        <ele>52.530000000000001</ele>
        <time>2026-06-26T15:42:18Z</time>
      </trkpt>
      <trkpt lat="52.133725974708796" lon="-8.698778003454208">
        <ele>51.090000000000003</ele>
        <time>2026-06-26T15:42:26Z</time>
      </trkpt>
      <trkpt lat="52.133520031347871" lon="-8.701375974342227">
        <ele>50.130000000000003</ele>
        <time>2026-06-26T15:42:35Z</time>
      </trkpt>
      <trkpt lat="52.133440990000963" lon="-8.702222965657711">
        <ele>49.649999999999999</ele>
        <time>2026-06-26T15:42:38Z</time>
      </trkpt>
      <trkpt lat="52.133363038301468" lon="-8.703054031357169">
        <ele>50.130000000000003</ele>
        <time>2026-06-26T15:42:41Z</time>
      </trkpt>
      <trkpt lat="52.13326103053987" lon="-8.705272972583771">
        <ele>53.490000000000002</ele>
        <time>2026-06-26T15:42:49Z</time>
      </trkpt>
      <trkpt lat="52.133360020816326" lon="-8.707208018749952">
        <ele>54.93</ele>
        <time>2026-06-26T15:42:58Z</time>
      </trkpt>
      <trkpt lat="52.133509973064065" lon="-8.708691028878093">
        <ele>55.890000000000001</ele>
        <time>2026-06-26T15:43:05Z</time>
      </trkpt>
      <trkpt lat="52.133823959156871" lon="-8.711149021983147">
        <ele>55.409999999999997</ele>
        <time>2026-06-26T15:43:13Z</time>
      </trkpt>
      <trkpt lat="52.134214974939823" lon="-8.714735973626375">
        <ele>54.450000000000003</ele>
        <time>2026-06-26T15:43:24Z</time>
      </trkpt>
      <trkpt lat="52.134220004081726" lon="-8.715084996074438">
        <ele>54.450000000000003</ele>
        <time>2026-06-26T15:43:25Z</time>
      </trkpt>
      <trkpt lat="52.134224027395248" lon="-8.715436030179262">
        <ele>54.93</ele>
        <time>2026-06-26T15:43:26Z</time>
      </trkpt>
      <trkpt lat="52.134175999090075" lon="-8.715779017657042">
        <ele>55.409999999999997</ele>
        <time>2026-06-26T15:43:27Z</time>
      </trkpt>
      <trkpt lat="52.134127970784903" lon="-8.71612099930644">
        <ele>55.890000000000001</ele>
        <time>2026-06-26T15:43:28Z</time>
      </trkpt>
      <trkpt lat="52.134080026298761" lon="-8.716459963470697">
        <ele>56.859999999999999</ele>
        <time>2026-06-26T15:43:29Z</time>
      </trkpt>
      <trkpt lat="52.13341299444437" lon="-8.719779029488564">
        <ele>60.219999999999999</ele>
        <time>2026-06-26T15:43:39Z</time>
      </trkpt>
      <trkpt lat="52.132692988961935" lon="-8.723803013563156">
        <ele>62.619999999999997</ele>
        <time>2026-06-26T15:43:51Z</time>
      </trkpt>
      <trkpt lat="52.131883967667818" lon="-8.728438038378954">
        <ele>60.700000000000003</ele>
        <time>2026-06-26T15:44:04Z</time>
      </trkpt>
      <trkpt lat="52.13147995993495" lon="-8.731690971180797">
        <ele>61.18</ele>
        <time>2026-06-26T15:44:13Z</time>
      </trkpt>
      <trkpt lat="52.131208973005414" lon="-8.736405959352851">
        <ele>58.780000000000001</ele>
        <time>2026-06-26T15:44:26Z</time>
      </trkpt>
      <trkpt lat="52.130909990519285" lon="-8.742276979610324">
        <ele>59.740000000000002</ele>
        <time>2026-06-26T15:44:42Z</time>
      </trkpt>
      <trkpt lat="52.130702035501599" lon="-8.746999008581042">
        <ele>58.299999999999997</ele>
        <time>2026-06-26T15:44:55Z</time>
      </trkpt>
      <trkpt lat="52.130516963079572" lon="-8.751943996176124">
        <ele>59.259999999999998</ele>
        <time>2026-06-26T15:45:08Z</time>
      </trkpt>
      <trkpt lat="52.130343038588762" lon="-8.755754996091127">
        <ele>56.859999999999999</ele>
        <time>2026-06-26T15:45:18Z</time>
      </trkpt>
      <trkpt lat="52.129918998107314" lon="-8.761026039719582">
        <ele>57.340000000000003</ele>
        <time>2026-06-26T15:45:32Z</time>
      </trkpt>
      <trkpt lat="52.129684975370765" lon="-8.765072990208864">
        <ele>58.780000000000001</ele>
        <time>2026-06-26T15:45:43Z</time>
      </trkpt>
      <trkpt lat="52.129274010658264" lon="-8.768939981237054">
        <ele>61.18</ele>
        <time>2026-06-26T15:45:54Z</time>
      </trkpt>
      <trkpt lat="52.128522992134094" lon="-8.772556018084288">
        <ele>64.069999999999993</ele>
        <time>2026-06-26T15:46:05Z</time>
      </trkpt>
      <trkpt lat="52.127597965300083" lon="-8.775336965918541">
        <ele>62.619999999999997</ele>
        <time>2026-06-26T15:46:14Z</time>
      </trkpt>
      <trkpt lat="52.126401029527187" lon="-8.777913982048631">
        <ele>59.740000000000002</ele>
        <time>2026-06-26T15:46:23Z</time>
      </trkpt>
      <trkpt lat="52.124874014407396" lon="-8.781017968431115">
        <ele>61.18</ele>
        <time>2026-06-26T15:46:35Z</time>
      </trkpt>
      <trkpt lat="52.124271020293236" lon="-8.782727038487792">
        <ele>60.700000000000003</ele>
        <time>2026-06-26T15:46:41Z</time>
      </trkpt>
      <trkpt lat="52.123977988958359" lon="-8.785392986610532">
        <ele>60.700000000000003</ele>
        <time>2026-06-26T15:46:49Z</time>
      </trkpt>
      <trkpt lat="52.12421603500843" lon="-8.788350960239768">
        <ele>60.219999999999999</ele>
        <time>2026-06-26T15:46:57Z</time>
      </trkpt>
      <trkpt lat="52.124811988323927" lon="-8.791908994317055">
        <ele>61.18</ele>
        <time>2026-06-26T15:47:07Z</time>
      </trkpt>
      <trkpt lat="52.125468039885163" lon="-8.794481987133622">
        <ele>59.259999999999998</ele>
        <time>2026-06-26T15:47:15Z</time>
      </trkpt>
      <trkpt lat="52.12617103010416" lon="-8.797750007361174">
        <ele>58.299999999999997</ele>
        <time>2026-06-26T15:47:25Z</time>
      </trkpt>
      <trkpt lat="52.127013998106122" lon="-8.801020961254835">
        <ele>61.659999999999997</ele>
        <time>2026-06-26T15:47:35Z</time>
      </trkpt>
      <trkpt lat="52.127153975889087" lon="-8.801313992589712">
        <ele>61.18</ele>
        <time>2026-06-26T15:47:36Z</time>
      </trkpt>
      <trkpt lat="52.127295965328813" lon="-8.801610041409731">
        <ele>61.18</ele>
        <time>2026-06-26T15:47:37Z</time>
      </trkpt>
      <trkpt lat="52.128028040751815" lon="-8.802647972479463">
        <ele>61.659999999999997</ele>
        <time>2026-06-26T15:47:41Z</time>
      </trkpt>
      <trkpt lat="52.128244964405894" lon="-8.802842013537884">
        <ele>61.659999999999997</ele>
        <time>2026-06-26T15:47:42Z</time>
      </trkpt>
      <trkpt lat="52.129840962588787" lon="-8.803868964314461">
        <ele>63.100000000000001</ele>
        <time>2026-06-26T15:47:49Z</time>
      </trkpt>
      <trkpt lat="52.131217019632459" lon="-8.8041449803859">
        <ele>65.030000000000001</ele>
        <time>2026-06-26T15:47:55Z</time>
      </trkpt>
      <trkpt lat="52.132300967350602" lon="-8.804343966767192">
        <ele>67.430000000000007</ele>
        <time>2026-06-26T15:48:02Z</time>
      </trkpt>
      <trkpt lat="52.133634025231004" lon="-8.804952995851636">
        <ele>70.310000000000002</ele>
        <time>2026-06-26T15:48:10Z</time>
      </trkpt>
      <trkpt lat="52.134948978200555" lon="-8.806192008778453">
        <ele>70.790000000000006</ele>
        <time>2026-06-26T15:48:18Z</time>
      </trkpt>
      <trkpt lat="52.135970983654261" lon="-8.807610981166363">
        <ele>69.349999999999994</ele>
        <time>2026-06-26T15:48:26Z</time>
      </trkpt>
      <trkpt lat="52.137048980221152" lon="-8.809078987687826">
        <ele>69.349999999999994</ele>
        <time>2026-06-26T15:48:32Z</time>
      </trkpt>
      <trkpt lat="52.138109039515257" lon="-8.810514975339174">
        <ele>68.870000000000005</ele>
        <time>2026-06-26T15:48:39Z</time>
      </trkpt>
      <trkpt lat="52.13910698890686" lon="-8.812400987371802">
        <ele>67.909999999999997</ele>
        <time>2026-06-26T15:48:48Z</time>
      </trkpt>
      <trkpt lat="52.140440968796611" lon="-8.814978003501892">
        <ele>66.469999999999999</ele>
        <time>2026-06-26T15:49:00Z</time>
      </trkpt>
      <trkpt lat="52.141391979530454" lon="-8.816923024132848">
        <ele>69.349999999999994</ele>
        <time>2026-06-26T15:49:08Z</time>
      </trkpt>
      <trkpt lat="52.142655970528722" lon="-8.819816960021853">
        <ele>71.269999999999996</ele>
        <time>2026-06-26T15:49:19Z</time>
      </trkpt>
      <trkpt lat="52.143116975203156" lon="-8.821990974247456">
        <ele>70.310000000000002</ele>
        <time>2026-06-26T15:49:25Z</time>
      </trkpt>
      <trkpt lat="52.143184030428529" lon="-8.824307983741164">
        <ele>69.349999999999994</ele>
        <time>2026-06-26T15:49:31Z</time>
      </trkpt>
      <trkpt lat="52.143170032650232" lon="-8.824998987838626">
        <ele>69.829999999999998</ele>
        <time>2026-06-26T15:49:33Z</time>
      </trkpt>
      <trkpt lat="52.143162991851568" lon="-8.825339963659644">
        <ele>69.829999999999998</ele>
        <time>2026-06-26T15:49:34Z</time>
      </trkpt>
      <trkpt lat="52.143169026821852" lon="-8.828434981405735">
        <ele>73.200000000000003</ele>
        <time>2026-06-26T15:49:43Z</time>
      </trkpt>
      <trkpt lat="52.143482007086277" lon="-8.831742983311415">
        <ele>71.760000000000005</ele>
        <time>2026-06-26T15:49:53Z</time>
      </trkpt>
      <trkpt lat="52.143588960170746" lon="-8.836036026477814">
        <ele>72.239999999999995</ele>
        <time>2026-06-26T15:50:06Z</time>
      </trkpt>
      <trkpt lat="52.143592983484268" lon="-8.839705036953092">
        <ele>68.390000000000001</ele>
        <time>2026-06-26T15:50:17Z</time>
      </trkpt>
      <trkpt lat="52.143694991245866" lon="-8.842351958155632">
        <ele>66.950000000000003</ele>
        <time>2026-06-26T15:50:26Z</time>
      </trkpt>
      <trkpt lat="52.143898000940681" lon="-8.845452005043626">
        <ele>66.950000000000003</ele>
        <time>2026-06-26T15:50:36Z</time>
      </trkpt>
      <trkpt lat="52.144059017300606" lon="-8.847448993474245">
        <ele>66.950000000000003</ele>
        <time>2026-06-26T15:50:43Z</time>
      </trkpt>
      <trkpt lat="52.144202012568712" lon="-8.849165020510554">
        <ele>65.989999999999995</ele>
        <time>2026-06-26T15:50:50Z</time>
      </trkpt>
      <trkpt lat="52.144223973155022" lon="-8.849425027146936">
        <ele>65.510000000000005</ele>
        <time>2026-06-26T15:50:51Z</time>
      </trkpt>
      <trkpt lat="52.144416002556682" lon="-8.851728960871697">
        <ele>61.659999999999997</ele>
        <time>2026-06-26T15:51:00Z</time>
      </trkpt>
      <trkpt lat="52.144633010029793" lon="-8.854734040796757">
        <ele>62.619999999999997</ele>
        <time>2026-06-26T15:51:11Z</time>
      </trkpt>
      <trkpt lat="52.144751027226448" lon="-8.859059019014239">
        <ele>65.510000000000005</ele>
        <time>2026-06-26T15:51:25Z</time>
      </trkpt>
      <trkpt lat="52.144716996699572" lon="-8.861450040712953">
        <ele>66.469999999999999</ele>
        <time>2026-06-26T15:51:34Z</time>
      </trkpt>
      <trkpt lat="52.144624041393399" lon="-8.864796012639999">
        <ele>68.870000000000005</ele>
        <time>2026-06-26T15:51:48Z</time>
      </trkpt>
      <trkpt lat="52.144523039460182" lon="-8.867180999368429">
        <ele>70.310000000000002</ele>
        <time>2026-06-26T15:52:00Z</time>
      </trkpt>
      <trkpt lat="52.144407033920288" lon="-8.86920103803277">
        <ele>70.790000000000006</ele>
        <time>2026-06-26T15:52:09Z</time>
      </trkpt>
      <trkpt lat="52.144249035045505" lon="-8.871942004188895">
        <ele>70.790000000000006</ele>
        <time>2026-06-26T15:52:18Z</time>
      </trkpt>
      <trkpt lat="52.144057005643845" lon="-8.87450804002583">
        <ele>75.120000000000005</ele>
        <time>2026-06-26T15:52:27Z</time>
      </trkpt>
      <trkpt lat="52.143804961815476" lon="-8.877056976780295">
        <ele>78.969999999999999</ele>
        <time>2026-06-26T15:52:36Z</time>
      </trkpt>
      <trkpt lat="52.143693985417485" lon="-8.878148971125484">
        <ele>77.519999999999996</ele>
        <time>2026-06-26T15:52:42Z</time>
      </trkpt>
      <trkpt lat="52.143614022061229" lon="-8.878734027966857">
        <ele>76.560000000000002</ele>
        <time>2026-06-26T15:52:48Z</time>
      </trkpt>
      <trkpt lat="52.143600024282932" lon="-8.878814997151494">
        <ele>76.079999999999998</ele>
        <time>2026-06-26T15:52:49Z</time>
      </trkpt>
      <trkpt lat="52.143520982936025" lon="-8.879288993775845">
        <ele>76.079999999999998</ele>
        <time>2026-06-26T15:52:59Z</time>
      </trkpt>
      <trkpt lat="52.143517965450883" lon="-8.879311038181186">
        <ele>77.040000000000006</ele>
        <time>2026-06-26T15:53:11Z</time>
      </trkpt>
      <trkpt lat="52.143490975722671" lon="-8.879469037055969">
        <ele>78</ele>
        <time>2026-06-26T15:53:24Z</time>
      </trkpt>
      <trkpt lat="52.143473038449883" lon="-8.879575990140438">
        <ele>78</ele>
        <time>2026-06-26T15:53:25Z</time>
      </trkpt>
      <trkpt lat="52.143273968249559" lon="-8.880640994757414">
        <ele>78.480000000000004</ele>
        <time>2026-06-26T15:53:32Z</time>
      </trkpt>
      <trkpt lat="52.142941961064935" lon="-8.882161974906921">
        <ele>78.969999999999999</ele>
        <time>2026-06-26T15:53:42Z</time>
      </trkpt>
      <trkpt lat="52.142686983570457" lon="-8.88334097340703">
        <ele>78.969999999999999</ele>
        <time>2026-06-26T15:53:51Z</time>
      </trkpt>
      <trkpt lat="52.142562009394169" lon="-8.883861992508173">
        <ele>79.930000000000007</ele>
        <time>2026-06-26T15:53:58Z</time>
      </trkpt>
      <trkpt lat="52.142494032159448" lon="-8.884105989709497">
        <ele>79.930000000000007</ele>
        <time>2026-06-26T15:54:00Z</time>
      </trkpt>
      <trkpt lat="52.142454972490668" lon="-8.884244039654732">
        <ele>79.930000000000007</ele>
        <time>2026-06-26T15:54:01Z</time>
      </trkpt>
      <trkpt lat="52.141966978088021" lon="-8.885777005925775">
        <ele>76.079999999999998</ele>
        <time>2026-06-26T15:54:11Z</time>
      </trkpt>
      <trkpt lat="52.141544027253985" lon="-8.886837987229228">
        <ele>74.640000000000001</ele>
        <time>2026-06-26T15:54:20Z</time>
      </trkpt>
      <trkpt lat="52.14114697650075" lon="-8.887715991586447">
        <ele>73.680000000000007</ele>
        <time>2026-06-26T15:54:30Z</time>
      </trkpt>
      <trkpt lat="52.14086601510644" lon="-8.888327032327652">
        <ele>71.760000000000005</ele>
        <time>2026-06-26T15:54:36Z</time>
      </trkpt>
      <trkpt lat="52.140814969316125" lon="-8.888439014554024">
        <ele>71.269999999999996</ele>
        <time>2026-06-26T15:54:37Z</time>
      </trkpt>
      <trkpt lat="52.140149027109146" lon="-8.889830997213721">
        <ele>69.349999999999994</ele>
        <time>2026-06-26T15:54:49Z</time>
      </trkpt>
      <trkpt lat="52.140012988820672" lon="-8.890110030770302">
        <ele>68.390000000000001</ele>
        <time>2026-06-26T15:54:52Z</time>
      </trkpt>
      <trkpt lat="52.13996697217226" lon="-8.890204997733235">
        <ele>68.390000000000001</ele>
        <time>2026-06-26T15:54:53Z</time>
      </trkpt>
      <trkpt lat="52.13945098221302" lon="-8.891194984316826">
        <ele>68.390000000000001</ele>
        <time>2026-06-26T15:55:01Z</time>
      </trkpt>
      <trkpt lat="52.13932198472321" lon="-8.891436969861388">
        <ele>68.870000000000005</ele>
        <time>2026-06-26T15:55:03Z</time>
      </trkpt>
      <trkpt lat="52.139259958639741" lon="-8.891553981229663">
        <ele>68.870000000000005</ele>
        <time>2026-06-26T15:55:04Z</time>
      </trkpt>
      <trkpt lat="52.139145964756608" lon="-8.891765037551522">
        <ele>69.349999999999994</ele>
        <time>2026-06-26T15:55:06Z</time>
      </trkpt>
      <trkpt lat="52.139093996956944" lon="-8.891860004514456">
        <ele>69.349999999999994</ele>
        <time>2026-06-26T15:55:07Z</time>
      </trkpt>
      <trkpt lat="52.138555040583014" lon="-8.892868012189865">
        <ele>69.349999999999994</ele>
        <time>2026-06-26T15:55:15Z</time>
      </trkpt>
      <trkpt lat="52.138193026185036" lon="-8.894161004573107">
        <ele>70.310000000000002</ele>
        <time>2026-06-26T15:55:22Z</time>
      </trkpt>
      <trkpt lat="52.138131000101566" lon="-8.894745977595449">
        <ele>70.790000000000006</ele>
        <time>2026-06-26T15:55:25Z</time>
      </trkpt>
      <trkpt lat="52.138141980394721" lon="-8.894923003390431">
        <ele>71.269999999999996</ele>
        <time>2026-06-26T15:55:26Z</time>
      </trkpt>
      <trkpt lat="52.138254968449473" lon="-8.895636973902583">
        <ele>71.269999999999996</ele>
        <time>2026-06-26T15:55:32Z</time>
      </trkpt>
      <trkpt lat="52.138278018683195" lon="-8.895752979442477">
        <ele>71.269999999999996</ele>
        <time>2026-06-26T15:55:33Z</time>
      </trkpt>
      <trkpt lat="52.138577001169324" lon="-8.897116966545582">
        <ele>72.719999999999999</ele>
        <time>2026-06-26T15:55:42Z</time>
      </trkpt>
      <trkpt lat="52.138922000303864" lon="-8.898322032764554">
        <ele>73.680000000000007</ele>
        <time>2026-06-26T15:55:48Z</time>
      </trkpt>
      <trkpt lat="52.138953013345599" lon="-8.898542979732156">
        <ele>74.159999999999997</ele>
        <time>2026-06-26T15:55:49Z</time>
      </trkpt>
      <trkpt lat="52.138962987810373" lon="-8.898754036054015">
        <ele>74.640000000000001</ele>
        <time>2026-06-26T15:55:50Z</time>
      </trkpt>
      <trkpt lat="52.138964999467134" lon="-8.898944975808263">
        <ele>74.640000000000001</ele>
        <time>2026-06-26T15:55:51Z</time>
      </trkpt>
      <trkpt lat="52.13895795866847" lon="-8.899129964411259">
        <ele>75.120000000000005</ele>
        <time>2026-06-26T15:55:52Z</time>
      </trkpt>
      <trkpt lat="52.138904985040426" lon="-8.900504009798169">
        <ele>75.599999999999994</ele>
        <time>2026-06-26T15:56:00Z</time>
      </trkpt>
      <trkpt lat="52.138898028060794" lon="-8.900691010057926">
        <ele>75.599999999999994</ele>
        <time>2026-06-26T15:56:01Z</time>
      </trkpt>
      <trkpt lat="52.138860980048776" lon="-8.901844024658203">
        <ele>74.640000000000001</ele>
        <time>2026-06-26T15:56:09Z</time>
      </trkpt>
      <trkpt lat="52.138812029734254" lon="-8.902508961036801">
        <ele>74.159999999999997</ele>
        <time>2026-06-26T15:56:16Z</time>
      </trkpt>
      <trkpt lat="52.138781016692519" lon="-8.902647010982037">
        <ele>74.159999999999997</ele>
        <time>2026-06-26T15:56:17Z</time>
      </trkpt>
      <trkpt lat="52.138682026416063" lon="-8.902950016781688">
        <ele>74.640000000000001</ele>
        <time>2026-06-26T15:56:19Z</time>
      </trkpt>
      <trkpt lat="52.138670040294528" lon="-8.903087982907891">
        <ele>74.159999999999997</ele>
        <time>2026-06-26T15:56:20Z</time>
      </trkpt>
      <trkpt lat="52.138713039457798" lon="-8.903236007317901">
        <ele>74.159999999999997</ele>
        <time>2026-06-26T15:56:21Z</time>
      </trkpt>
      <trkpt lat="52.138721002265811" lon="-8.903395012021065">
        <ele>74.159999999999997</ele>
        <time>2026-06-26T15:56:22Z</time>
      </trkpt>
      <trkpt lat="52.138728965073824" lon="-8.903573965653777">
        <ele>74.159999999999997</ele>
        <time>2026-06-26T15:56:23Z</time>
      </trkpt>
      <trkpt lat="52.138702981173992" lon="-8.903780998662114">
        <ele>74.159999999999997</ele>
        <time>2026-06-26T15:56:24Z</time>
      </trkpt>
      <trkpt lat="52.138661993667483" lon="-8.904002029448748">
        <ele>74.159999999999997</ele>
        <time>2026-06-26T15:56:25Z</time>
      </trkpt>
      <trkpt lat="52.138617988675833" lon="-8.904234962537885">
        <ele>74.159999999999997</ele>
        <time>2026-06-26T15:56:26Z</time>
      </trkpt>
      <trkpt lat="52.138205012306571" lon="-8.906447030603886">
        <ele>75.599999999999994</ele>
        <time>2026-06-26T15:56:35Z</time>
      </trkpt>
      <trkpt lat="52.137978030368686" lon="-8.907778998836875">
        <ele>76.560000000000002</ele>
        <time>2026-06-26T15:56:40Z</time>
      </trkpt>
      <trkpt lat="52.137524988502264" lon="-8.910545026883483">
        <ele>77.519999999999996</ele>
        <time>2026-06-26T15:56:50Z</time>
      </trkpt>
      <trkpt lat="52.137216031551361" lon="-8.912943005561829">
        <ele>79.930000000000007</ele>
        <time>2026-06-26T15:56:58Z</time>
      </trkpt>
      <trkpt lat="52.137189963832498" lon="-8.913239976391196">
        <ele>81.370000000000005</ele>
        <time>2026-06-26T15:56:59Z</time>
      </trkpt>
      <trkpt lat="52.136947978287935" lon="-8.916156040504575">
        <ele>86.180000000000007</ele>
        <time>2026-06-26T15:57:09Z</time>
      </trkpt>
      <trkpt lat="52.136929035186768" lon="-8.916412023827434">
        <ele>86.180000000000007</ele>
        <time>2026-06-26T15:57:10Z</time>
      </trkpt>
      <trkpt lat="52.136727031320333" lon="-8.918628031387925">
        <ele>82.329999999999998</ele>
        <time>2026-06-26T15:57:18Z</time>
      </trkpt>
      <trkpt lat="52.136166030541062" lon="-8.920598030090332">
        <ele>82.810000000000002</ele>
        <time>2026-06-26T15:57:25Z</time>
      </trkpt>
      <trkpt lat="52.136067962273955" lon="-8.920845966786146">
        <ele>82.810000000000002</ele>
        <time>2026-06-26T15:57:26Z</time>
      </trkpt>
      <trkpt lat="52.135958997532725" lon="-8.921073032543063">
        <ele>82.810000000000002</ele>
        <time>2026-06-26T15:57:27Z</time>
      </trkpt>
      <trkpt lat="52.135852966457605" lon="-8.921295991167426">
        <ele>83.290000000000006</ele>
        <time>2026-06-26T15:57:28Z</time>
      </trkpt>
      <trkpt lat="52.135750036686659" lon="-8.921510986983776">
        <ele>83.290000000000006</ele>
        <time>2026-06-26T15:57:29Z</time>
      </trkpt>
      <trkpt lat="52.135647023096681" lon="-8.921724976971746">
        <ele>83.290000000000006</ele>
        <time>2026-06-26T15:57:30Z</time>
      </trkpt>
      <trkpt lat="52.134799025952816" lon="-8.923394987359643">
        <ele>81.370000000000005</ele>
        <time>2026-06-26T15:57:38Z</time>
      </trkpt>
      <trkpt lat="52.134154960513115" lon="-8.924567028880119">
        <ele>81.849999999999994</ele>
        <time>2026-06-26T15:57:44Z</time>
      </trkpt>
      <trkpt lat="52.134049013257027" lon="-8.924771966412664">
        <ele>81.370000000000005</ele>
        <time>2026-06-26T15:57:45Z</time>
      </trkpt>
      <trkpt lat="52.133941976353526" lon="-8.924985034391284">
        <ele>81.370000000000005</ele>
        <time>2026-06-26T15:57:46Z</time>
      </trkpt>
      <trkpt lat="52.133840974420309" lon="-8.925202963873744">
        <ele>81.370000000000005</ele>
        <time>2026-06-26T15:57:47Z</time>
      </trkpt>
      <trkpt lat="52.13375598192215" lon="-8.925440004095435">
        <ele>80.890000000000001</ele>
        <time>2026-06-26T15:57:48Z</time>
      </trkpt>
      <trkpt lat="52.133671995252371" lon="-8.925674026831985">
        <ele>80.409999999999997</ele>
        <time>2026-06-26T15:57:49Z</time>
      </trkpt>
      <trkpt lat="52.13315499946475" lon="-8.927777968347073">
        <ele>81.370000000000005</ele>
        <time>2026-06-26T15:57:57Z</time>
      </trkpt>
      <trkpt lat="52.132980991154909" lon="-8.929708991199732">
        <ele>83.769999999999996</ele>
        <time>2026-06-26T15:58:04Z</time>
      </trkpt>
      <trkpt lat="52.133178971707821" lon="-8.931618975475431">
        <ele>89.060000000000002</ele>
        <time>2026-06-26T15:58:11Z</time>
      </trkpt>
      <trkpt lat="52.13356495834887" lon="-8.93363700248301">
        <ele>96.269999999999996</ele>
        <time>2026-06-26T15:58:19Z</time>
      </trkpt>
      <trkpt lat="52.133678030222654" lon="-8.934110999107361">
        <ele>97.230000000000004</ele>
        <time>2026-06-26T15:58:21Z</time>
      </trkpt>
      <trkpt lat="52.133763022720814" lon="-8.934331024065614">
        <ele>97.709999999999994</ele>
        <time>2026-06-26T15:58:22Z</time>
      </trkpt>
      <trkpt lat="52.133849021047354" lon="-8.934532022103667">
        <ele>98.189999999999998</ele>
        <time>2026-06-26T15:58:23Z</time>
      </trkpt>
      <trkpt lat="52.133932001888752" lon="-8.934724973514676">
        <ele>98.189999999999998</ele>
        <time>2026-06-26T15:58:24Z</time>
      </trkpt>
      <trkpt lat="52.134043984115124" lon="-8.934879032894969">
        <ele>98.670000000000002</ele>
        <time>2026-06-26T15:58:25Z</time>
      </trkpt>
      <trkpt lat="52.134156972169876" lon="-8.935015993192792">
        <ele>98.670000000000002</ele>
        <time>2026-06-26T15:58:26Z</time>
      </trkpt>
      <trkpt lat="52.13427197188139" lon="-8.935157982632518">
        <ele>99.150000000000006</ele>
        <time>2026-06-26T15:58:27Z</time>
      </trkpt>
      <trkpt lat="52.134387977421284" lon="-8.935299972072244">
        <ele>99.150000000000006</ele>
        <time>2026-06-26T15:58:28Z</time>
      </trkpt>
      <trkpt lat="52.134800031781197" lon="-8.935843035578728">
        <ele>99.150000000000006</ele>
        <time>2026-06-26T15:58:32Z</time>
      </trkpt>
      <trkpt lat="52.135135978460312" lon="-8.936477964743972">
        <ele>99.150000000000006</ele>
        <time>2026-06-26T15:58:36Z</time>
      </trkpt>
      <trkpt lat="52.135210996493697" lon="-8.936679968610406">
        <ele>99.629999999999995</ele>
        <time>2026-06-26T15:58:37Z</time>
      </trkpt>
      <trkpt lat="52.135272016748786" lon="-8.936917008832097">
        <ele>100.59999999999999</ele>
        <time>2026-06-26T15:58:38Z</time>
      </trkpt>
      <trkpt lat="52.135613998398185" lon="-8.938158033415675">
        <ele>105.40000000000001</ele>
        <time>2026-06-26T15:58:43Z</time>
      </trkpt>
      <trkpt lat="52.135708965361118" lon="-8.938383003696799">
        <ele>107.31999999999999</ele>
        <time>2026-06-26T15:58:44Z</time>
      </trkpt>
      <trkpt lat="52.135980958119035" lon="-8.939025979489088">
        <ele>110.69</ele>
        <time>2026-06-26T15:58:47Z</time>
      </trkpt>
      <trkpt lat="52.136049019172788" lon="-8.939236029982567">
        <ele>111.17</ele>
        <time>2026-06-26T15:58:48Z</time>
      </trkpt>
      <trkpt lat="52.136094029992819" lon="-8.939456976950169">
        <ele>111.17</ele>
        <time>2026-06-26T15:58:49Z</time>
      </trkpt>
      <trkpt lat="52.136139962822199" lon="-8.939679013565183">
        <ele>111.17</ele>
        <time>2026-06-26T15:58:50Z</time>
      </trkpt>
      <trkpt lat="52.136179022490978" lon="-8.939903983846307">
        <ele>111.65000000000001</ele>
        <time>2026-06-26T15:58:51Z</time>
      </trkpt>
      <trkpt lat="52.136179022490978" lon="-8.94014697521925">
        <ele>111.65000000000001</ele>
        <time>2026-06-26T15:58:52Z</time>
      </trkpt>
      <trkpt lat="52.136179022490978" lon="-8.9406399987638">
        <ele>111.65000000000001</ele>
        <time>2026-06-26T15:58:54Z</time>
      </trkpt>
      <trkpt lat="52.136144991964102" lon="-8.940889025107026">
        <ele>111.65000000000001</ele>
        <time>2026-06-26T15:58:55Z</time>
      </trkpt>
      <trkpt lat="52.136041978374124" lon="-8.941648006439209">
        <ele>111.17</ele>
        <time>2026-06-26T15:58:58Z</time>
      </trkpt>
      <trkpt lat="52.135787000879645" lon="-8.943302007392049">
        <ele>109.73</ele>
        <time>2026-06-26T15:59:05Z</time>
      </trkpt>
      <trkpt lat="52.135745007544756" lon="-8.943549022078514">
        <ele>109.25</ele>
        <time>2026-06-26T15:59:06Z</time>
      </trkpt>
      <trkpt lat="52.135422974824905" lon="-8.945419024676085">
        <ele>107.31999999999999</ele>
        <time>2026-06-26T15:59:14Z</time>
      </trkpt>
      <trkpt lat="52.135395985096693" lon="-8.945571994408965">
        <ele>107.31999999999999</ele>
        <time>2026-06-26T15:59:15Z</time>
      </trkpt>
      <trkpt lat="52.135372012853622" lon="-8.945721024647355">
        <ele>107.31999999999999</ele>
        <time>2026-06-26T15:59:16Z</time>
      </trkpt>
      <trkpt lat="52.135350974276662" lon="-8.945864019915462">
        <ele>107.31999999999999</ele>
        <time>2026-06-26T15:59:17Z</time>
      </trkpt>
      <trkpt lat="52.135330019518733" lon="-8.945997962728143">
        <ele>107.31999999999999</ele>
        <time>2026-06-26T15:59:18Z</time>
      </trkpt>
      <trkpt lat="52.135251984000206" lon="-8.946499032899737">
        <ele>107.31999999999999</ele>
        <time>2026-06-26T15:59:21Z</time>
      </trkpt>
      <trkpt lat="52.135032964870334" lon="-8.947851033881307">
        <ele>105.88</ele>
        <time>2026-06-26T15:59:27Z</time>
      </trkpt>
      <trkpt lat="52.135005975142121" lon="-8.948022024706006">
        <ele>105.40000000000001</ele>
        <time>2026-06-26T15:59:28Z</time>
      </trkpt>
      <trkpt lat="52.134982002899051" lon="-8.948173988610506">
        <ele>104.92</ele>
        <time>2026-06-26T15:59:29Z</time>
      </trkpt>
      <trkpt lat="52.134932968765497" lon="-8.948478000238538">
        <ele>103.95999999999999</ele>
        <time>2026-06-26T15:59:31Z</time>
      </trkpt>
      <trkpt lat="52.13465603068471" lon="-8.950260998681188">
        <ele>102.04000000000001</ele>
        <time>2026-06-26T15:59:42Z</time>
      </trkpt>
      <trkpt lat="52.134365011006594" lon="-8.951901001855731">
        <ele>103.48</ele>
        <time>2026-06-26T15:59:50Z</time>
      </trkpt>
      <trkpt lat="52.134052030742168" lon="-8.953633960336447">
        <ele>103</ele>
        <time>2026-06-26T15:59:58Z</time>
      </trkpt>
      <trkpt lat="52.134018000215292" lon="-8.953830013051629">
        <ele>103.48</ele>
        <time>2026-06-26T15:59:59Z</time>
      </trkpt>
      <trkpt lat="52.133727986365557" lon="-8.955670008435845">
        <ele>103.48</ele>
        <time>2026-06-26T16:00:07Z</time>
      </trkpt>
      <trkpt lat="52.133482983335853" lon="-8.957386035472155">
        <ele>103.95999999999999</ele>
        <time>2026-06-26T16:00:12Z</time>
      </trkpt>
      <trkpt lat="52.13339002802968" lon="-8.957901019603014">
        <ele>104.44</ele>
        <time>2026-06-26T16:00:14Z</time>
      </trkpt>
      <trkpt lat="52.133335964754224" lon="-8.958166977390647">
        <ele>104.92</ele>
        <time>2026-06-26T16:00:15Z</time>
      </trkpt>
      <trkpt lat="52.133281985297799" lon="-8.958427989855409">
        <ele>105.40000000000001</ele>
        <time>2026-06-26T16:00:16Z</time>
      </trkpt>
      <trkpt lat="52.133213002234697" lon="-8.958681961521506">
        <ele>105.88</ele>
        <time>2026-06-26T16:00:17Z</time>
      </trkpt>
      <trkpt lat="52.13313203305006" lon="-8.958936017006636">
        <ele>106.36</ele>
        <time>2026-06-26T16:00:18Z</time>
      </trkpt>
      <trkpt lat="52.133052991703153" lon="-8.959186971187592">
        <ele>106.84</ele>
        <time>2026-06-26T16:00:19Z</time>
      </trkpt>
      <trkpt lat="52.132977973669767" lon="-8.95941998809576">
        <ele>107.31999999999999</ele>
        <time>2026-06-26T16:00:20Z</time>
      </trkpt>
      <trkpt lat="52.132898010313511" lon="-8.95963397808373">
        <ele>107.31999999999999</ele>
        <time>2026-06-26T16:00:21Z</time>
      </trkpt>
      <trkpt lat="52.132808994501829" lon="-8.959833970293403">
        <ele>107.81</ele>
        <time>2026-06-26T16:00:22Z</time>
      </trkpt>
      <trkpt lat="52.131967032328248" lon="-8.961345981806517">
        <ele>109.73</ele>
        <time>2026-06-26T16:00:30Z</time>
      </trkpt>
      <trkpt lat="52.131130015477538" lon="-8.962502013891935">
        <ele>110.69</ele>
        <time>2026-06-26T16:00:35Z</time>
      </trkpt>
      <trkpt lat="52.130843019112945" lon="-8.96289898082614">
        <ele>110.69</ele>
        <time>2026-06-26T16:00:37Z</time>
      </trkpt>
      <trkpt lat="52.130602039396763" lon="-8.963230988010764">
        <ele>111.17</ele>
        <time>2026-06-26T16:00:39Z</time>
      </trkpt>
      <trkpt lat="52.129849009215832" lon="-8.964271014556289">
        <ele>111.65000000000001</ele>
        <time>2026-06-26T16:00:45Z</time>
      </trkpt>
      <trkpt lat="52.129730992019176" lon="-8.964433958753943">
        <ele>111.65000000000001</ele>
        <time>2026-06-26T16:00:46Z</time>
      </trkpt>
      <trkpt lat="52.12855501100421" lon="-8.966058036312461">
        <ele>119.81999999999999</ele>
        <time>2026-06-26T16:00:56Z</time>
      </trkpt>
      <trkpt lat="52.127451030537486" lon="-8.967834999784827">
        <ele>124.63</ele>
        <time>2026-06-26T16:01:05Z</time>
      </trkpt>
      <trkpt lat="52.126576965674758" lon="-8.969283979386091">
        <ele>124.15000000000001</ele>
        <time>2026-06-26T16:01:12Z</time>
      </trkpt>
      <trkpt lat="52.125563006848097" lon="-8.970919959247112">
        <ele>122.22</ele>
        <time>2026-06-26T16:01:21Z</time>
      </trkpt>
      <trkpt lat="52.125459993258119" lon="-8.971106959506869">
        <ele>122.22</ele>
        <time>2026-06-26T16:01:22Z</time>
      </trkpt>
      <trkpt lat="52.125349016860127" lon="-8.971308041363955">
        <ele>121.73999999999999</ele>
        <time>2026-06-26T16:01:23Z</time>
      </trkpt>
      <trkpt lat="52.125240974128246" lon="-8.97155899554491">
        <ele>121.26000000000001</ele>
        <time>2026-06-26T16:01:24Z</time>
      </trkpt>
      <trkpt lat="52.12518397718668" lon="-8.97185898385942">
        <ele>121.26000000000001</ele>
        <time>2026-06-26T16:01:25Z</time>
      </trkpt>
      <trkpt lat="52.125126980245113" lon="-8.972157966345549">
        <ele>121.26000000000001</ele>
        <time>2026-06-26T16:01:26Z</time>
      </trkpt>
      <trkpt lat="52.125073000788689" lon="-8.972444040700793">
        <ele>120.78</ele>
        <time>2026-06-26T16:01:27Z</time>
      </trkpt>
      <trkpt lat="52.125020027160645" lon="-8.972725002095103">
        <ele>120.3</ele>
        <time>2026-06-26T16:01:28Z</time>
      </trkpt>
      <trkpt lat="52.124966969713569" lon="-8.973005041480064">
        <ele>120.3</ele>
        <time>2026-06-26T16:01:29Z</time>
      </trkpt>
      <trkpt lat="52.124917013570666" lon="-8.973291032016277">
        <ele>119.81999999999999</ele>
        <time>2026-06-26T16:01:30Z</time>
      </trkpt>
      <trkpt lat="52.124772006645799" lon="-8.974173981696367">
        <ele>118.38</ele>
        <time>2026-06-26T16:01:33Z</time>
      </trkpt>
      <trkpt lat="52.12456002831459" lon="-8.975608963519335">
        <ele>116.94</ele>
        <time>2026-06-26T16:01:38Z</time>
      </trkpt>
      <trkpt lat="52.124525997787714" lon="-8.975881040096283">
        <ele>116.94</ele>
        <time>2026-06-26T16:01:39Z</time>
      </trkpt>
      <trkpt lat="52.124492973089218" lon="-8.976148003712297">
        <ele>116.94</ele>
        <time>2026-06-26T16:01:40Z</time>
      </trkpt>
      <trkpt lat="52.124461960047483" lon="-8.976396024227142">
        <ele>116.94</ele>
        <time>2026-06-26T16:01:41Z</time>
      </trkpt>
      <trkpt lat="52.12443295866251" lon="-8.97662702947855">
        <ele>116.94</ele>
        <time>2026-06-26T16:01:42Z</time>
      </trkpt>
      <trkpt lat="52.124405968934298" lon="-8.976838001981378">
        <ele>116.94</ele>
        <time>2026-06-26T16:01:43Z</time>
      </trkpt>
      <trkpt lat="52.124392976984382" lon="-8.977046962827444">
        <ele>116.94</ele>
        <time>2026-06-26T16:01:44Z</time>
      </trkpt>
      <trkpt lat="52.124386020004749" lon="-8.977276962250471">
        <ele>116.94</ele>
        <time>2026-06-26T16:01:45Z</time>
      </trkpt>
      <trkpt lat="52.124420972540975" lon="-8.977725980803371">
        <ele>115.98</ele>
        <time>2026-06-26T16:01:47Z</time>
      </trkpt>
      <trkpt lat="52.124467995017767" lon="-8.977941982448101">
        <ele>115.01000000000001</ele>
        <time>2026-06-26T16:01:48Z</time>
      </trkpt>
      <trkpt lat="52.124527003616095" lon="-8.978211963549256">
        <ele>114.53</ele>
        <time>2026-06-26T16:01:49Z</time>
      </trkpt>
      <trkpt lat="52.124591041356325" lon="-8.978344984352589">
        <ele>113.56999999999999</ele>
        <time>2026-06-26T16:01:50Z</time>
      </trkpt>
      <trkpt lat="52.124682990834117" lon="-8.978537013754249">
        <ele>113.09</ele>
        <time>2026-06-26T16:01:51Z</time>
      </trkpt>
      <trkpt lat="52.125644981861115" lon="-8.980348007753491">
        <ele>105.88</ele>
        <time>2026-06-26T16:02:01Z</time>
      </trkpt>
      <trkpt lat="52.126475041732192" lon="-8.982034027576447">
        <ele>103.48</ele>
        <time>2026-06-26T16:02:09Z</time>
      </trkpt>
      <trkpt lat="52.127150958403945" lon="-8.983883997425437">
        <ele>106.36</ele>
        <time>2026-06-26T16:02:18Z</time>
      </trkpt>
      <trkpt lat="52.127492018043995" lon="-8.985014967620373">
        <ele>106.84</ele>
        <time>2026-06-26T16:02:24Z</time>
      </trkpt>
      <trkpt lat="52.127510039135814" lon="-8.985197022557259">
        <ele>106.84</ele>
        <time>2026-06-26T16:02:25Z</time>
      </trkpt>
      <trkpt lat="52.127487994730473" lon="-8.985367007553577">
        <ele>106.36</ele>
        <time>2026-06-26T16:02:26Z</time>
      </trkpt>
      <trkpt lat="52.127456981688738" lon="-8.985539004206657">
        <ele>106.36</ele>
        <time>2026-06-26T16:02:27Z</time>
      </trkpt>
      <trkpt lat="52.127424040809274" lon="-8.985721981152892">
        <ele>106.36</ele>
        <time>2026-06-26T16:02:28Z</time>
      </trkpt>
      <trkpt lat="52.127349022775888" lon="-8.985839998349547">
        <ele>106.36</ele>
        <time>2026-06-26T16:02:29Z</time>
      </trkpt>
      <trkpt lat="52.12726503610611" lon="-8.985971007496119">
        <ele>106.84</ele>
        <time>2026-06-26T16:02:30Z</time>
      </trkpt>
      <trkpt lat="52.127180965617299" lon="-8.986104028299451">
        <ele>107.31999999999999</ele>
        <time>2026-06-26T16:02:31Z</time>
      </trkpt>
      <trkpt lat="52.127003017812967" lon="-8.98638398386538">
        <ele>107.81</ele>
        <time>2026-06-26T16:02:33Z</time>
      </trkpt>
      <trkpt lat="52.126289969310164" lon="-8.987771021202207">
        <ele>108.29000000000001</ele>
        <time>2026-06-26T16:02:43Z</time>
      </trkpt>
      <trkpt lat="52.125759981572628" lon="-8.989227041602135">
        <ele>106.36</ele>
        <time>2026-06-26T16:02:51Z</time>
      </trkpt>
      <trkpt lat="52.125722011551261" lon="-8.989425022155047">
        <ele>106.36</ele>
        <time>2026-06-26T16:02:52Z</time>
      </trkpt>
      <trkpt lat="52.125684963539243" lon="-8.989624008536339">
        <ele>106.36</ele>
        <time>2026-06-26T16:02:53Z</time>
      </trkpt>
      <trkpt lat="52.125664008781314" lon="-8.989833975210786">
        <ele>106.36</ele>
        <time>2026-06-26T16:02:54Z</time>
      </trkpt>
      <trkpt lat="52.125664008781314" lon="-8.990041008219123">
        <ele>106.36</ele>
        <time>2026-06-26T16:02:55Z</time>
      </trkpt>
      <trkpt lat="52.125664008781314" lon="-8.990243012085557">
        <ele>105.88</ele>
        <time>2026-06-26T16:02:56Z</time>
      </trkpt>
      <trkpt lat="52.125745983794332" lon="-8.992191972211003">
        <ele>103.48</ele>
        <time>2026-06-26T16:03:05Z</time>
      </trkpt>
      <trkpt lat="52.126167006790638" lon="-8.994198013097048">
        <ele>103.48</ele>
        <time>2026-06-26T16:03:13Z</time>
      </trkpt>
      <trkpt lat="52.127056997269392" lon="-8.996762037277222">
        <ele>102.04000000000001</ele>
        <time>2026-06-26T16:03:24Z</time>
      </trkpt>
      <trkpt lat="52.128090988844633" lon="-8.999780025333166">
        <ele>97.709999999999994</ele>
        <time>2026-06-26T16:03:37Z</time>
      </trkpt>
      <trkpt lat="52.128877965733409" lon="-9.002988031134009">
        <ele>98.670000000000002</ele>
        <time>2026-06-26T16:03:50Z</time>
      </trkpt>
      <trkpt lat="52.129280967637897" lon="-9.006089000031352">
        <ele>101.08</ele>
        <time>2026-06-26T16:04:02Z</time>
      </trkpt>
      <trkpt lat="52.129591014236212" lon="-9.009453998878598">
        <ele>103</ele>
        <time>2026-06-26T16:04:16Z</time>
      </trkpt>
      <trkpt lat="52.129718000069261" lon="-9.010151959955692">
        <ele>103.95999999999999</ele>
        <time>2026-06-26T16:04:19Z</time>
      </trkpt>
      <trkpt lat="52.129799975082278" lon="-9.010353963822126">
        <ele>103.95999999999999</ele>
        <time>2026-06-26T16:04:20Z</time>
      </trkpt>
      <trkpt lat="52.129883961752057" lon="-9.01055202819407">
        <ele>104.44</ele>
        <time>2026-06-26T16:04:21Z</time>
      </trkpt>
      <trkpt lat="52.130473963916302" lon="-9.011748963966966">
        <ele>106.84</ele>
        <time>2026-06-26T16:04:29Z</time>
      </trkpt>
      <trkpt lat="52.130833966657519" lon="-9.012447008863092">
        <ele>109.25</ele>
        <time>2026-06-26T16:04:35Z</time>
      </trkpt>
      <trkpt lat="52.130946032702923" lon="-9.01267901994288">
        <ele>109.73</ele>
        <time>2026-06-26T16:04:37Z</time>
      </trkpt>
      <trkpt lat="52.131023984402418" lon="-9.012763006612659">
        <ele>109.73</ele>
        <time>2026-06-26T16:04:38Z</time>
      </trkpt>
      <trkpt lat="52.131553972139955" lon="-9.013550989329815">
        <ele>108.77</ele>
        <time>2026-06-26T16:04:45Z</time>
      </trkpt>
      <trkpt lat="52.132000979036093" lon="-9.014166975393891">
        <ele>108.29000000000001</ele>
        <time>2026-06-26T16:04:51Z</time>
      </trkpt>
      <trkpt lat="52.133063971996307" lon="-9.015131983906031">
        <ele>112.13</ele>
        <time>2026-06-26T16:04:58Z</time>
      </trkpt>
      <trkpt lat="52.133538974449039" lon="-9.015527023002505">
        <ele>113.56999999999999</ele>
        <time>2026-06-26T16:05:01Z</time>
      </trkpt>
      <trkpt lat="52.13366998359561" lon="-9.015697007998824">
        <ele>113.56999999999999</ele>
        <time>2026-06-26T16:05:02Z</time>
      </trkpt>
      <trkpt lat="52.134928023442626" lon="-9.017684021964669">
        <ele>114.05</ele>
        <time>2026-06-26T16:05:11Z</time>
      </trkpt>
      <trkpt lat="52.136478004977107" lon="-9.019269961863756">
        <ele>115.5</ele>
        <time>2026-06-26T16:05:20Z</time>
      </trkpt>
      <trkpt lat="52.138036033138633" lon="-9.020249973982573">
        <ele>115.98</ele>
        <time>2026-06-26T16:05:29Z</time>
      </trkpt>
      <trkpt lat="52.139840992167592" lon="-9.021036028862">
        <ele>116.94</ele>
        <time>2026-06-26T16:05:39Z</time>
      </trkpt>
      <trkpt lat="52.141230963170528" lon="-9.021468032151461">
        <ele>115.98</ele>
        <time>2026-06-26T16:05:47Z</time>
      </trkpt>
      <trkpt lat="52.141721975058317" lon="-9.021718986332417">
        <ele>114.53</ele>
        <time>2026-06-26T16:05:50Z</time>
      </trkpt>
      <trkpt lat="52.141879973933101" lon="-9.021835997700691">
        <ele>114.05</ele>
        <time>2026-06-26T16:05:51Z</time>
      </trkpt>
      <trkpt lat="52.142040990293026" lon="-9.021972035989165">
        <ele>113.56999999999999</ele>
        <time>2026-06-26T16:05:52Z</time>
      </trkpt>
      <trkpt lat="52.143626008182764" lon="-9.023567028343678">
        <ele>109.73</ele>
        <time>2026-06-26T16:06:02Z</time>
      </trkpt>
      <trkpt lat="52.145254025235772" lon="-9.025513976812363">
        <ele>113.09</ele>
        <time>2026-06-26T16:06:13Z</time>
      </trkpt>
      <trkpt lat="52.147522000595927" lon="-9.028621986508369">
        <ele>120.3</ele>
        <time>2026-06-26T16:06:29Z</time>
      </trkpt>
      <trkpt lat="52.148863021284342" lon="-9.030861966311932">
        <ele>127.03</ele>
        <time>2026-06-26T16:06:40Z</time>
      </trkpt>
      <trkpt lat="52.150072026997805" lon="-9.03317897580564">
        <ele>129.91999999999999</ele>
        <time>2026-06-26T16:06:50Z</time>
      </trkpt>
      <trkpt lat="52.151316991075873" lon="-9.036269970238209">
        <ele>139.05000000000001</ele>
        <time>2026-06-26T16:07:02Z</time>
      </trkpt>
      <trkpt lat="52.152014030143619" lon="-9.038353962823749">
        <ele>144.81999999999999</ele>
        <time>2026-06-26T16:07:11Z</time>
      </trkpt>
      <trkpt lat="52.15292296372354" lon="-9.041372034698725">
        <ele>149.62</ele>
        <time>2026-06-26T16:07:22Z</time>
      </trkpt>
      <trkpt lat="52.153981011360884" lon="-9.04533801600337">
        <ele>157.31</ele>
        <time>2026-06-26T16:07:36Z</time>
      </trkpt>
      <trkpt lat="52.154520973563194" lon="-9.048092979937792">
        <ele>165.47999999999999</ele>
        <time>2026-06-26T16:07:45Z</time>
      </trkpt>
      <trkpt lat="52.154892040416598" lon="-9.050692040473223">
        <ele>169.81</ele>
        <time>2026-06-26T16:07:54Z</time>
      </trkpt>
      <trkpt lat="52.155217006802559" lon="-9.054016973823309">
        <ele>175.58000000000001</ele>
        <time>2026-06-26T16:08:05Z</time>
      </trkpt>
      <trkpt lat="52.155498974025249" lon="-9.056684011593461">
        <ele>184.71000000000001</ele>
        <time>2026-06-26T16:08:14Z</time>
      </trkpt>
      <trkpt lat="52.155897030606866" lon="-9.059800989925861">
        <ele>190.96000000000001</ele>
        <time>2026-06-26T16:08:25Z</time>
      </trkpt>
      <trkpt lat="52.15633699670434" lon="-9.062438020482659">
        <ele>195.28</ele>
        <time>2026-06-26T16:08:35Z</time>
      </trkpt>
      <trkpt lat="52.156695993617177" lon="-9.064356973394752">
        <ele>198.16999999999999</ele>
        <time>2026-06-26T16:08:43Z</time>
      </trkpt>
      <trkpt lat="52.157318014651537" lon="-9.066388998180628">
        <ele>200.56999999999999</ele>
        <time>2026-06-26T16:08:53Z</time>
      </trkpt>
      <trkpt lat="52.157937018200755" lon="-9.067800007760525">
        <ele>201.05000000000001</ele>
        <time>2026-06-26T16:09:03Z</time>
      </trkpt>
      <trkpt lat="52.158348988741636" lon="-9.068469973281026">
        <ele>201.05000000000001</ele>
        <time>2026-06-26T16:09:08Z</time>
      </trkpt>
      <trkpt lat="52.158457031473517" lon="-9.068537028506398">
        <ele>200.56999999999999</ele>
        <time>2026-06-26T16:09:09Z</time>
      </trkpt>
      <trkpt lat="52.158561972901225" lon="-9.068601988255978">
        <ele>200.56999999999999</ele>
        <time>2026-06-26T16:09:10Z</time>
      </trkpt>
      <trkpt lat="52.15865702368319" lon="-9.068659991025925">
        <ele>201.05000000000001</ele>
        <time>2026-06-26T16:09:11Z</time>
      </trkpt>
      <trkpt lat="52.158741010352969" lon="-9.068711958825588">
        <ele>201.05000000000001</ele>
        <time>2026-06-26T16:09:12Z</time>
      </trkpt>
      <trkpt lat="52.158818040043116" lon="-9.068758981302381">
        <ele>201.53</ele>
        <time>2026-06-26T16:09:13Z</time>
      </trkpt>
      <trkpt lat="52.158880988135934" lon="-9.068827964365482">
        <ele>201.53</ele>
        <time>2026-06-26T16:09:14Z</time>
      </trkpt>
      <trkpt lat="52.158945025876164" lon="-9.068956039845944">
        <ele>201.53</ele>
        <time>2026-06-26T16:09:15Z</time>
      </trkpt>
      <trkpt lat="52.1589379850775" lon="-9.069007001817226">
        <ele>201.53</ele>
        <time>2026-06-26T16:09:16Z</time>
      </trkpt>
      <trkpt lat="52.158925998955965" lon="-9.069094005972147">
        <ele>201.53</ele>
        <time>2026-06-26T16:09:17Z</time>
      </trkpt>
      <trkpt lat="52.15891401283443" lon="-9.06918503344059">
        <ele>202.00999999999999</ele>
        <time>2026-06-26T16:09:18Z</time>
      </trkpt>
      <trkpt lat="52.158890040591359" lon="-9.069360969588161">
        <ele>202.00999999999999</ele>
        <time>2026-06-26T16:09:20Z</time>
      </trkpt>
      <trkpt lat="52.158800018951297" lon="-9.07034601084888">
        <ele>202.49000000000001</ele>
        <time>2026-06-26T16:09:27Z</time>
      </trkpt>
      <trkpt lat="52.158741010352969" lon="-9.070844985544682">
        <ele>202.00999999999999</ele>
        <time>2026-06-26T16:09:30Z</time>
      </trkpt>
      <trkpt lat="52.158704968169332" lon="-9.071042966097593">
        <ele>202.00999999999999</ele>
        <time>2026-06-26T16:09:31Z</time>
      </trkpt>
      <trkpt lat="52.158618969842792" lon="-9.071138016879559">
        <ele>202.00999999999999</ele>
        <time>2026-06-26T16:09:32Z</time>
      </trkpt>
      <trkpt lat="52.158533977344632" lon="-9.071233989670873">
        <ele>202.49000000000001</ele>
        <time>2026-06-26T16:09:33Z</time>
      </trkpt>
      <trkpt lat="52.158453008159995" lon="-9.071324011310935">
        <ele>202.97999999999999</ele>
        <time>2026-06-26T16:09:34Z</time>
      </trkpt>
      <trkpt lat="52.158099040389061" lon="-9.071717960759997">
        <ele>205.38</ele>
        <time>2026-06-26T16:09:40Z</time>
      </trkpt>
      <trkpt lat="52.157539967447519" lon="-9.072347022593021">
        <ele>206.81999999999999</ele>
        <time>2026-06-26T16:09:49Z</time>
      </trkpt>
      <trkpt lat="52.157116010785103" lon="-9.0728610008955">
        <ele>208.74000000000001</ele>
        <time>2026-06-26T16:09:56Z</time>
      </trkpt>
      <trkpt lat="52.157068988308311" lon="-9.072919003665447">
        <ele>208.74000000000001</ele>
        <time>2026-06-26T16:09:57Z</time>
      </trkpt>
      <trkpt lat="52.156473034992814" lon="-9.073687959462404">
        <ele>211.15000000000001</ele>
        <time>2026-06-26T16:10:06Z</time>
      </trkpt>
      <trkpt lat="52.155740959569812" lon="-9.074996961280704">
        <ele>211.63</ele>
        <time>2026-06-26T16:10:16Z</time>
      </trkpt>
      <trkpt lat="52.155420016497374" lon="-9.075599033385515">
        <ele>210.66999999999999</ele>
        <time>2026-06-26T16:10:23Z</time>
      </trkpt>
      <trkpt lat="52.155376011505723" lon="-9.075723001733422">
        <ele>210.19</ele>
        <time>2026-06-26T16:10:24Z</time>
      </trkpt>
      <trkpt lat="52.154931016266346" lon="-9.076974000781775">
        <ele>208.25999999999999</ele>
        <time>2026-06-26T16:10:33Z</time>
      </trkpt>
      <trkpt lat="52.154403040185571" lon="-9.078454999253154">
        <ele>205.38</ele>
        <time>2026-06-26T16:10:44Z</time>
      </trkpt>
      <trkpt lat="52.154360041022301" lon="-9.078576033934951">
        <ele>204.41999999999999</ele>
        <time>2026-06-26T16:10:45Z</time>
      </trkpt>
      <trkpt lat="52.15431603603065" lon="-9.078700002282858">
        <ele>203.46000000000001</ele>
        <time>2026-06-26T16:10:46Z</time>
      </trkpt>
      <trkpt lat="52.153839021921158" lon="-9.07995100133121">
        <ele>202.49000000000001</ele>
        <time>2026-06-26T16:10:56Z</time>
      </trkpt>
      <trkpt lat="52.153300987556577" lon="-9.081338038668037">
        <ele>205.86000000000001</ele>
        <time>2026-06-26T16:11:07Z</time>
      </trkpt>
      <trkpt lat="52.152811987325549" lon="-9.082717029377818">
        <ele>205.86000000000001</ele>
        <time>2026-06-26T16:11:17Z</time>
      </trkpt>
      <trkpt lat="52.152572013437748" lon="-9.083342989906669">
        <ele>206.34</ele>
        <time>2026-06-26T16:11:24Z</time>
      </trkpt>
      <trkpt lat="52.152107991278172" lon="-9.084692979231477">
        <ele>208.74000000000001</ele>
        <time>2026-06-26T16:11:32Z</time>
      </trkpt>
      <trkpt lat="52.151291007176042" lon="-9.087059022858739">
        <ele>211.15000000000001</ele>
        <time>2026-06-26T16:11:43Z</time>
      </trkpt>
      <trkpt lat="52.150295991450548" lon="-9.089946001768112">
        <ele>209.22</ele>
        <time>2026-06-26T16:11:54Z</time>
      </trkpt>
      <trkpt lat="52.149417987093329" lon="-9.092558976262808">
        <ele>204.41999999999999</ele>
        <time>2026-06-26T16:12:04Z</time>
      </trkpt>
      <trkpt lat="52.148647019639611" lon="-9.094853019341826">
        <ele>197.69</ele>
        <time>2026-06-26T16:12:13Z</time>
      </trkpt>
      <trkpt lat="52.147975964471698" lon="-9.096758980304003">
        <ele>191.91999999999999</ele>
        <time>2026-06-26T16:12:21Z</time>
      </trkpt>
      <trkpt lat="52.147373976185918" lon="-9.098840039223433">
        <ele>186.63</ele>
        <time>2026-06-26T16:12:30Z</time>
      </trkpt>
      <trkpt lat="52.146850023418665" lon="-9.101384030655026">
        <ele>175.58000000000001</ele>
        <time>2026-06-26T16:12:39Z</time>
      </trkpt>
      <trkpt lat="52.146306037902832" lon="-9.104640986770392">
        <ele>165.47999999999999</ele>
        <time>2026-06-26T16:12:50Z</time>
      </trkpt>
      <trkpt lat="52.145785018801689" lon="-9.108035992830992">
        <ele>161.63999999999999</ele>
        <time>2026-06-26T16:13:02Z</time>
      </trkpt>
      <trkpt lat="52.145538004115224" lon="-9.109563007950783">
        <ele>165</ele>
        <time>2026-06-26T16:13:08Z</time>
      </trkpt>
      <trkpt lat="52.14514397084713" lon="-9.112209007143974">
        <ele>171.25</ele>
        <time>2026-06-26T16:13:18Z</time>
      </trkpt>
      <trkpt lat="52.144619012251496" lon="-9.115966027602553">
        <ele>178.46000000000001</ele>
        <time>2026-06-26T16:13:32Z</time>
      </trkpt>
      <trkpt lat="52.144213998690248" lon="-9.119100021198392">
        <ele>173.66</ele>
        <time>2026-06-26T16:13:43Z</time>
      </trkpt>
      <trkpt lat="52.143677975982428" lon="-9.12193201482296">
        <ele>169.81</ele>
        <time>2026-06-26T16:13:54Z</time>
      </trkpt>
      <trkpt lat="52.142798965796828" lon="-9.124673986807466">
        <ele>162.12</ele>
        <time>2026-06-26T16:14:05Z</time>
      </trkpt>
      <trkpt lat="52.142015006393194" lon="-9.127064002677798">
        <ele>155.87</ele>
        <time>2026-06-26T16:14:15Z</time>
      </trkpt>
      <trkpt lat="52.141610998660326" lon="-9.12855195812881">
        <ele>150.09999999999999</ele>
        <time>2026-06-26T16:14:22Z</time>
      </trkpt>
      <trkpt lat="52.141493987292051" lon="-9.128691013902426">
        <ele>148.66</ele>
        <time>2026-06-26T16:14:23Z</time>
      </trkpt>
      <trkpt lat="52.141368007287383" lon="-9.128839960321784">
        <ele>147.22</ele>
        <time>2026-06-26T16:14:24Z</time>
      </trkpt>
      <trkpt lat="52.140725031495094" lon="-9.129659961909056">
        <ele>143.84999999999999</ele>
        <time>2026-06-26T16:14:29Z</time>
      </trkpt>
      <trkpt lat="52.140663005411625" lon="-9.129876969382167">
        <ele>142.88999999999999</ele>
        <time>2026-06-26T16:14:30Z</time>
      </trkpt>
      <trkpt lat="52.140597039833665" lon="-9.130106968805194">
        <ele>143.37</ele>
        <time>2026-06-26T16:14:31Z</time>
      </trkpt>
      <trkpt lat="52.13992103934288" lon="-9.132214011624456">
        <ele>148.18000000000001</ele>
        <time>2026-06-26T16:14:40Z</time>
      </trkpt>
      <trkpt lat="52.139085028320551" lon="-9.134842995554209">
        <ele>159.72</ele>
        <time>2026-06-26T16:14:51Z</time>
      </trkpt>
      <trkpt lat="52.138002002611756" lon="-9.138462971895933">
        <ele>163.08000000000001</ele>
        <time>2026-06-26T16:15:04Z</time>
      </trkpt>
      <trkpt lat="52.137189963832498" lon="-9.141396973282099">
        <ele>168.37</ele>
        <time>2026-06-26T16:15:15Z</time>
      </trkpt>
      <trkpt lat="52.136930963024497" lon="-9.143582973629236">
        <ele>175.58000000000001</ele>
        <time>2026-06-26T16:15:23Z</time>
      </trkpt>
      <trkpt lat="52.136868014931679" lon="-9.144112961366773">
        <ele>177.5</ele>
        <time>2026-06-26T16:15:25Z</time>
      </trkpt>
      <trkpt lat="52.136675985530019" lon="-9.145026002079248">
        <ele>180.38</ele>
        <time>2026-06-26T16:15:29Z</time>
      </trkpt>
      <trkpt lat="52.136629968881607" lon="-9.145217025652528">
        <ele>180.87</ele>
        <time>2026-06-26T16:15:30Z</time>
      </trkpt>
      <trkpt lat="52.136303996667266" lon="-9.146888963878155">
        <ele>184.71000000000001</ele>
        <time>2026-06-26T16:15:38Z</time>
      </trkpt>
      <trkpt lat="52.135970983654261" lon="-9.148794002830982">
        <ele>192.88</ele>
        <time>2026-06-26T16:15:46Z</time>
      </trkpt>
      <trkpt lat="52.135581979528069" lon="-9.150822004303336">
        <ele>202.00999999999999</ele>
        <time>2026-06-26T16:15:55Z</time>
      </trkpt>
      <trkpt lat="52.135146036744118" lon="-9.152513975277543">
        <ele>204.41999999999999</ele>
        <time>2026-06-26T16:16:04Z</time>
      </trkpt>
      <trkpt lat="52.13485199958086" lon="-9.153554001823068">
        <ele>204.90000000000001</ele>
        <time>2026-06-26T16:16:10Z</time>
      </trkpt>
      <trkpt lat="52.134694000706077" lon="-9.154112990945578">
        <ele>204.41999999999999</ele>
        <time>2026-06-26T16:16:13Z</time>
      </trkpt>
      <trkpt lat="52.134483028203249" lon="-9.155192999169231">
        <ele>204.90000000000001</ele>
        <time>2026-06-26T16:16:19Z</time>
      </trkpt>
      <trkpt lat="52.134483028203249" lon="-9.155399026349187">
        <ele>205.38</ele>
        <time>2026-06-26T16:16:20Z</time>
      </trkpt>
      <trkpt lat="52.134483028203249" lon="-9.155605975538492">
        <ele>205.86000000000001</ele>
        <time>2026-06-26T16:16:21Z</time>
      </trkpt>
      <trkpt lat="52.134499959647655" lon="-9.155802028253675">
        <ele>205.86000000000001</ele>
        <time>2026-06-26T16:16:22Z</time>
      </trkpt>
      <trkpt lat="52.134518986567855" lon="-9.155996991321445">
        <ele>205.86000000000001</ele>
        <time>2026-06-26T16:16:23Z</time>
      </trkpt>
      <trkpt lat="52.134537007659674" lon="-9.156187009066343">
        <ele>205.38</ele>
        <time>2026-06-26T16:16:24Z</time>
      </trkpt>
      <trkpt lat="52.134738005697727" lon="-9.157651998102665">
        <ele>202.97999999999999</ele>
        <time>2026-06-26T16:16:33Z</time>
      </trkpt>
      <trkpt lat="52.134849987924099" lon="-9.158245017752051">
        <ele>202.97999999999999</ele>
        <time>2026-06-26T16:16:37Z</time>
      </trkpt>
      <trkpt lat="52.134853005409241" lon="-9.158407039940357">
        <ele>202.97999999999999</ele>
        <time>2026-06-26T16:16:38Z</time>
      </trkpt>
      <trkpt lat="52.134888041764498" lon="-9.160235971212387">
        <ele>201.53</ele>
        <time>2026-06-26T16:16:48Z</time>
      </trkpt>
      <trkpt lat="52.135114017874002" lon="-9.162955982610583">
        <ele>202.49000000000001</ele>
        <time>2026-06-26T16:17:00Z</time>
      </trkpt>
      <trkpt lat="52.13500002399087" lon="-9.164570001885295">
        <ele>206.34</ele>
        <time>2026-06-26T16:17:07Z</time>
      </trkpt>
      <trkpt lat="52.134416978806257" lon="-9.167346004396677">
        <ele>204.90000000000001</ele>
        <time>2026-06-26T16:17:20Z</time>
      </trkpt>
      <trkpt lat="52.134393006563187" lon="-9.167592013254762">
        <ele>204.90000000000001</ele>
        <time>2026-06-26T16:17:21Z</time>
      </trkpt>
      <trkpt lat="52.134369034320116" lon="-9.167842967435718">
        <ele>204.90000000000001</ele>
        <time>2026-06-26T16:17:22Z</time>
      </trkpt>
      <trkpt lat="52.134223021566868" lon="-9.16928700171411">
        <ele>206.81999999999999</ele>
        <time>2026-06-26T16:17:28Z</time>
      </trkpt>
      <trkpt lat="52.133963014930487" lon="-9.171551959589124">
        <ele>202.97999999999999</ele>
        <time>2026-06-26T16:17:38Z</time>
      </trkpt>
      <trkpt lat="52.133362032473087" lon="-9.173836028203368">
        <ele>199.61000000000001</ele>
        <time>2026-06-26T16:17:49Z</time>
      </trkpt>
      <trkpt lat="52.132404986768961" lon="-9.175809966400266">
        <ele>196.72999999999999</ele>
        <time>2026-06-26T16:18:00Z</time>
      </trkpt>
      <trkpt lat="52.131910035386682" lon="-9.176535001024604">
        <ele>194.31999999999999</ele>
        <time>2026-06-26T16:18:05Z</time>
      </trkpt>
      <trkpt lat="52.131820013746619" lon="-9.176738010719419">
        <ele>193.84</ele>
        <time>2026-06-26T16:18:06Z</time>
      </trkpt>
      <trkpt lat="52.131280973553658" lon="-9.178513968363404">
        <ele>192.40000000000001</ele>
        <time>2026-06-26T16:18:15Z</time>
      </trkpt>
      <trkpt lat="52.130760960280895" lon="-9.180392017588019">
        <ele>192.88</ele>
        <time>2026-06-26T16:18:24Z</time>
      </trkpt>
      <trkpt lat="52.130352007225156" lon="-9.182289009913802">
        <ele>197.21000000000001</ele>
        <time>2026-06-26T16:18:35Z</time>
      </trkpt>
      <trkpt lat="52.130041038617492" lon="-9.183470020070672">
        <ele>197.21000000000001</ele>
        <time>2026-06-26T16:18:43Z</time>
      </trkpt>
      <trkpt lat="52.129993010312319" lon="-9.183643022552133">
        <ele>196.72999999999999</ele>
        <time>2026-06-26T16:18:44Z</time>
      </trkpt>
      <trkpt lat="52.129620015621185" lon="-9.18503500521183">
        <ele>198.65000000000001</ele>
        <time>2026-06-26T16:18:51Z</time>
      </trkpt>
      <trkpt lat="52.129576010629535" lon="-9.185241032391787">
        <ele>198.65000000000001</ele>
        <time>2026-06-26T16:18:52Z</time>
      </trkpt>
      <trkpt lat="52.129536028951406" lon="-9.185427026823163">
        <ele>199.13</ele>
        <time>2026-06-26T16:18:53Z</time>
      </trkpt>
      <trkpt lat="52.129391022026539" lon="-9.186185002326965">
        <ele>197.69</ele>
        <time>2026-06-26T16:18:58Z</time>
      </trkpt>
      <trkpt lat="52.129332013428211" lon="-9.186495970934629">
        <ele>197.21000000000001</ele>
        <time>2026-06-26T16:19:00Z</time>
      </trkpt>
      <trkpt lat="52.129299994558096" lon="-9.186663022264838">
        <ele>197.21000000000001</ele>
        <time>2026-06-26T16:19:01Z</time>
      </trkpt>
      <trkpt lat="52.129259007051587" lon="-9.186853040009737">
        <ele>196.72999999999999</ele>
        <time>2026-06-26T16:19:02Z</time>
      </trkpt>
      <trkpt lat="52.129203015938401" lon="-9.187021013349295">
        <ele>195.77000000000001</ele>
        <time>2026-06-26T16:19:03Z</time>
      </trkpt>
      <trkpt lat="52.129147024825215" lon="-9.187192004173994">
        <ele>194.31999999999999</ele>
        <time>2026-06-26T16:19:04Z</time>
      </trkpt>
      <trkpt lat="52.129083992913365" lon="-9.187380010262132">
        <ele>193.36000000000001</ele>
        <time>2026-06-26T16:19:05Z</time>
      </trkpt>
      <trkpt lat="52.129020038992167" lon="-9.187572039663792">
        <ele>191.91999999999999</ele>
        <time>2026-06-26T16:19:06Z</time>
      </trkpt>
      <trkpt lat="52.128262985497713" lon="-9.189151022583246">
        <ele>189.03999999999999</ele>
        <time>2026-06-26T16:19:14Z</time>
      </trkpt>
      <trkpt lat="52.127496041357517" lon="-9.190723970532417">
        <ele>181.83000000000001</ele>
        <time>2026-06-26T16:19:22Z</time>
      </trkpt>
      <trkpt lat="52.126920036971569" lon="-9.191904980689287">
        <ele>179.41999999999999</ele>
        <time>2026-06-26T16:19:28Z</time>
      </trkpt>
      <trkpt lat="52.12683797813952" lon="-9.19208100065589">
        <ele>180.38</ele>
        <time>2026-06-26T16:19:29Z</time>
      </trkpt>
      <trkpt lat="52.126774024218321" lon="-9.192287027835846">
        <ele>181.34999999999999</ele>
        <time>2026-06-26T16:19:30Z</time>
      </trkpt>
      <trkpt lat="52.12670898064971" lon="-9.192498000338674">
        <ele>182.31</ele>
        <time>2026-06-26T16:19:31Z</time>
      </trkpt>
      <trkpt lat="52.12664301507175" lon="-9.192712996155024">
        <ele>183.27000000000001</ele>
        <time>2026-06-26T16:19:32Z</time>
      </trkpt>
      <trkpt lat="52.1265799831599" lon="-9.192920029163361">
        <ele>183.75</ele>
        <time>2026-06-26T16:19:33Z</time>
      </trkpt>
      <trkpt lat="52.126518962904811" lon="-9.193117003887892">
        <ele>184.22999999999999</ele>
        <time>2026-06-26T16:19:34Z</time>
      </trkpt>
      <trkpt lat="52.126464983448386" lon="-9.193291012197733">
        <ele>185.19</ele>
        <time>2026-06-26T16:19:35Z</time>
      </trkpt>
      <trkpt lat="52.12630002759397" lon="-9.193828962743282">
        <ele>186.15000000000001</ele>
        <time>2026-06-26T16:19:39Z</time>
      </trkpt>
      <trkpt lat="52.12621696293354" lon="-9.194103972986341">
        <ele>185.66999999999999</ele>
        <time>2026-06-26T16:19:41Z</time>
      </trkpt>
      <trkpt lat="52.126172035932541" lon="-9.194255014881492">
        <ele>185.66999999999999</ele>
        <time>2026-06-26T16:19:42Z</time>
      </trkpt>
      <trkpt lat="52.126124007627368" lon="-9.194418964907527">
        <ele>185.19</ele>
        <time>2026-06-26T16:19:43Z</time>
      </trkpt>
      <trkpt lat="52.125585973262787" lon="-9.196240017190576">
        <ele>181.83000000000001</ele>
        <time>2026-06-26T16:19:52Z</time>
      </trkpt>
      <trkpt lat="52.124767983332276" lon="-9.198930021375418">
        <ele>183.27000000000001</ele>
        <time>2026-06-26T16:20:05Z</time>
      </trkpt>
      <trkpt lat="52.124041020870209" lon="-9.201340992003679">
        <ele>187.59</ele>
        <time>2026-06-26T16:20:17Z</time>
      </trkpt>
      <trkpt lat="52.123598037287593" lon="-9.202769016847014">
        <ele>190.47999999999999</ele>
        <time>2026-06-26T16:20:25Z</time>
      </trkpt>
      <trkpt lat="52.123124962672591" lon="-9.20436903834343">
        <ele>192.40000000000001</ele>
        <time>2026-06-26T16:20:35Z</time>
      </trkpt>
      <trkpt lat="52.12288498878479" lon="-9.205341003835201">
        <ele>193.84</ele>
        <time>2026-06-26T16:20:42Z</time>
      </trkpt>
      <trkpt lat="52.122846012935042" lon="-9.205499002709985">
        <ele>194.31999999999999</ele>
        <time>2026-06-26T16:20:43Z</time>
      </trkpt>
      <trkpt lat="52.122785998508334" lon="-9.205647027119994">
        <ele>194.31999999999999</ele>
        <time>2026-06-26T16:20:44Z</time>
      </trkpt>
      <trkpt lat="52.122721960768104" lon="-9.205775018781424">
        <ele>194.31999999999999</ele>
        <time>2026-06-26T16:20:45Z</time>
      </trkpt>
      <trkpt lat="52.122662030160427" lon="-9.205895969644189">
        <ele>194.31999999999999</ele>
        <time>2026-06-26T16:20:46Z</time>
      </trkpt>
      <trkpt lat="52.122607966884971" lon="-9.206011975184083">
        <ele>194.31999999999999</ele>
        <time>2026-06-26T16:20:47Z</time>
      </trkpt>
      <trkpt lat="52.122562034055591" lon="-9.206146001815796">
        <ele>194.31999999999999</ele>
        <time>2026-06-26T16:20:48Z</time>
      </trkpt>
      <trkpt lat="52.122515011578798" lon="-9.206282962113619">
        <ele>194.31999999999999</ele>
        <time>2026-06-26T16:20:49Z</time>
      </trkpt>
      <trkpt lat="52.122466983273625" lon="-9.206421012058854">
        <ele>194.31999999999999</ele>
        <time>2026-06-26T16:20:50Z</time>
      </trkpt>
      <trkpt lat="52.122421972453594" lon="-9.206554032862186">
        <ele>194.31999999999999</ele>
        <time>2026-06-26T16:20:51Z</time>
      </trkpt>
      <trkpt lat="52.122069010511041" lon="-9.20815103687346">
        <ele>193.84</ele>
        <time>2026-06-26T16:21:03Z</time>
      </trkpt>
      <trkpt lat="52.122013019397855" lon="-9.208352034911513">
        <ele>193.84</ele>
        <time>2026-06-26T16:21:05Z</time>
      </trkpt>
      <trkpt lat="52.121988041326404" lon="-9.208437027409673">
        <ele>193.84</ele>
        <time>2026-06-26T16:21:06Z</time>
      </trkpt>
      <trkpt lat="52.121968008577824" lon="-9.208502992987633">
        <ele>193.36000000000001</ele>
        <time>2026-06-26T16:21:07Z</time>
      </trkpt>
      <trkpt lat="52.121956022456288" lon="-9.208544986322522">
        <ele>192.88</ele>
        <time>2026-06-26T16:21:08Z</time>
      </trkpt>
      <trkpt lat="52.121946970000863" lon="-9.208575999364257">
        <ele>192.88</ele>
        <time>2026-06-26T16:21:09Z</time>
      </trkpt>
      <trkpt lat="52.121936995536089" lon="-9.208608018234372">
        <ele>192.40000000000001</ele>
        <time>2026-06-26T16:21:10Z</time>
      </trkpt>
      <trkpt lat="52.121927021071315" lon="-9.208641964942217">
        <ele>192.40000000000001</ele>
        <time>2026-06-26T16:21:11Z</time>
      </trkpt>
      <trkpt lat="52.121916962787509" lon="-9.208675995469093">
        <ele>192.40000000000001</ele>
        <time>2026-06-26T16:21:12Z</time>
      </trkpt>
      <trkpt lat="52.121878992766142" lon="-9.208771968260407">
        <ele>191.91999999999999</ele>
        <time>2026-06-26T16:21:13Z</time>
      </trkpt>
      <trkpt lat="52.121843034401536" lon="-9.208758976310492">
        <ele>191.91999999999999</ele>
        <time>2026-06-26T16:21:14Z</time>
      </trkpt>
      <trkpt lat="52.121790982782841" lon="-9.208740033209324">
        <ele>191.91999999999999</ele>
        <time>2026-06-26T16:21:15Z</time>
      </trkpt>
      <trkpt lat="52.12172300554812" lon="-9.208714971318841">
        <ele>191.91999999999999</ele>
        <time>2026-06-26T16:21:16Z</time>
      </trkpt>
      <trkpt lat="52.121644970029593" lon="-9.208686975762248">
        <ele>191.44</ele>
        <time>2026-06-26T16:21:17Z</time>
      </trkpt>
      <trkpt lat="52.121565006673336" lon="-9.208657974377275">
        <ele>190.96000000000001</ele>
        <time>2026-06-26T16:21:18Z</time>
      </trkpt>
      <trkpt lat="52.12071499787271" lon="-9.208333007991314">
        <ele>186.63</ele>
        <time>2026-06-26T16:21:26Z</time>
      </trkpt>
      <trkpt lat="52.119701039046049" lon="-9.20772397890687">
        <ele>183.75</ele>
        <time>2026-06-26T16:21:35Z</time>
      </trkpt>
      <trkpt lat="52.119372971355915" lon="-9.207513006404042">
        <ele>184.22999999999999</ele>
        <time>2026-06-26T16:21:38Z</time>
      </trkpt>
      <trkpt lat="52.119155963882804" lon="-9.207372022792697">
        <ele>184.71000000000001</ele>
        <time>2026-06-26T16:21:40Z</time>
      </trkpt>
      <trkpt lat="52.119049010798335" lon="-9.207302033901215">
        <ele>185.19</ele>
        <time>2026-06-26T16:21:41Z</time>
      </trkpt>
      <trkpt lat="52.118719015270472" lon="-9.207087038084865">
        <ele>185.19</ele>
        <time>2026-06-26T16:21:45Z</time>
      </trkpt>
      <trkpt lat="52.118664029985666" lon="-9.207050995901227">
        <ele>185.19</ele>
        <time>2026-06-26T16:21:46Z</time>
      </trkpt>
      <trkpt lat="52.118557998910546" lon="-9.206982012838125">
        <ele>182.78999999999999</ele>
        <time>2026-06-26T16:21:53Z</time>
      </trkpt>
      <trkpt lat="52.118557998910546" lon="-9.206982012838125">
        <ele>182.78999999999999</ele>
        <time>2026-06-26T16:22:45Z</time>
      </trkpt>
      <trkpt lat="52.118557998910546" lon="-9.206982012838125">
        <ele>181.83000000000001</ele>
        <time>2026-06-26T16:23:54Z</time>
      </trkpt>
      <trkpt lat="52.118557998910546" lon="-9.206982012838125">
        <ele>181.34999999999999</ele>
        <time>2026-06-26T16:24:51Z</time>
      </trkpt>
      <trkpt lat="52.118557998910546" lon="-9.206982012838125">
        <ele>180.87</ele>
        <time>2026-06-26T16:25:46Z</time>
      </trkpt>
      <trkpt lat="52.118528997525573" lon="-9.206962985917926">
        <ele>179.41999999999999</ele>
        <time>2026-06-26T16:25:48Z</time>
      </trkpt>
      <trkpt lat="52.118599992245436" lon="-9.20654003508389">
        <ele>177.5</ele>
        <time>2026-06-26T16:25:55Z</time>
      </trkpt>
      <trkpt lat="52.118726978078485" lon="-9.206509022042155">
        <ele>175.09999999999999</ele>
        <time>2026-06-26T16:26:09Z</time>
      </trkpt>
      <trkpt lat="52.118726978078485" lon="-9.206509022042155">
        <ele>175.09999999999999</ele>
        <time>2026-06-26T16:26:26Z</time>
      </trkpt>
      <trkpt lat="52.118720021098852" lon="-9.206473985686898">
        <ele>175.09999999999999</ele>
        <time>2026-06-26T16:26:28Z</time>
      </trkpt>
      <trkpt lat="52.11882596835494" lon="-9.206602983176708">
        <ele>174.62</ele>
        <time>2026-06-26T18:03:50Z</time>
      </trkpt>
      <trkpt lat="52.118697976693511" lon="-9.206518996506929">
        <ele>180.87</ele>
        <time>2026-06-26T18:04:06Z</time>
      </trkpt>
      <trkpt lat="52.118579037487507" lon="-9.206630978733301">
        <ele>179.41999999999999</ele>
        <time>2026-06-26T18:04:14Z</time>
      </trkpt>
      <trkpt lat="52.118522962555289" lon="-9.206853015348315">
        <ele>181.83000000000001</ele>
        <time>2026-06-26T18:04:30Z</time>
      </trkpt>
      <trkpt lat="52.11852497421205" lon="-9.206860978156328">
        <ele>181.34999999999999</ele>
        <time>2026-06-26T18:04:31Z</time>
      </trkpt>
      <trkpt lat="52.118608960881829" lon="-9.207015037536621">
        <ele>179.90000000000001</ele>
        <time>2026-06-26T18:04:35Z</time>
      </trkpt>
      <trkpt lat="52.118666041642427" lon="-9.207052001729608">
        <ele>179.41999999999999</ele>
        <time>2026-06-26T18:04:36Z</time>
      </trkpt>
      <trkpt lat="52.118729995563626" lon="-9.207093995064497">
        <ele>179.41999999999999</ele>
        <time>2026-06-26T18:04:37Z</time>
      </trkpt>
      <trkpt lat="52.118984973058105" lon="-9.207260040566325">
        <ele>178.94</ele>
        <time>2026-06-26T18:04:40Z</time>
      </trkpt>
      <trkpt lat="52.119084969162941" lon="-9.207326006144285">
        <ele>178.94</ele>
        <time>2026-06-26T18:04:41Z</time>
      </trkpt>
      <trkpt lat="52.119192006066442" lon="-9.207394989207387">
        <ele>178.94</ele>
        <time>2026-06-26T18:04:42Z</time>
      </trkpt>
      <trkpt lat="52.119874963536859" lon="-9.207835039123893">
        <ele>179.41999999999999</ele>
        <time>2026-06-26T18:04:50Z</time>
      </trkpt>
      <trkpt lat="52.121188994497061" lon="-9.208522019907832">
        <ele>180.87</ele>
        <time>2026-06-26T18:05:03Z</time>
      </trkpt>
      <trkpt lat="52.121760975569487" lon="-9.208728969097138">
        <ele>183.75</ele>
        <time>2026-06-26T18:05:10Z</time>
      </trkpt>
      <trkpt lat="52.121836999431252" lon="-9.20875595882535">
        <ele>184.22999999999999</ele>
        <time>2026-06-26T18:05:11Z</time>
      </trkpt>
      <trkpt lat="52.12191604077816" lon="-9.208810022100806">
        <ele>185.19</ele>
        <time>2026-06-26T18:05:12Z</time>
      </trkpt>
      <trkpt lat="52.122270008549094" lon="-9.209189973771572">
        <ele>188.08000000000001</ele>
        <time>2026-06-26T18:05:17Z</time>
      </trkpt>
      <trkpt lat="52.122380984947085" lon="-9.209268009290099">
        <ele>188.56</ele>
        <time>2026-06-26T18:05:18Z</time>
      </trkpt>
      <trkpt lat="52.122395988553762" lon="-9.20935501344502">
        <ele>189.03999999999999</ele>
        <time>2026-06-26T18:05:19Z</time>
      </trkpt>
      <trkpt lat="52.122479975223541" lon="-9.209838984534144">
        <ele>190</ele>
        <time>2026-06-26T18:05:23Z</time>
      </trkpt>
      <trkpt lat="52.122531021013856" lon="-9.210120029747486">
        <ele>190</ele>
        <time>2026-06-26T18:05:25Z</time>
      </trkpt>
      <trkpt lat="52.122635040432215" lon="-9.210738027468324">
        <ele>190.47999999999999</ele>
        <time>2026-06-26T18:05:30Z</time>
      </trkpt>
      <trkpt lat="52.122683990746737" lon="-9.211433976888657">
        <ele>190</ele>
        <time>2026-06-26T18:05:34Z</time>
      </trkpt>
      <trkpt lat="52.122405041009188" lon="-9.213289981707931">
        <ele>180.38</ele>
        <time>2026-06-26T18:05:46Z</time>
      </trkpt>
      <trkpt lat="52.122385008260608" lon="-9.213443035259843">
        <ele>179.90000000000001</ele>
        <time>2026-06-26T18:05:47Z</time>
      </trkpt>
      <trkpt lat="52.122360030189157" lon="-9.214066984131932">
        <ele>176.53999999999999</ele>
        <time>2026-06-26T18:05:51Z</time>
      </trkpt>
      <trkpt lat="52.122418032959104" lon="-9.216197999194264">
        <ele>166.44999999999999</ele>
        <time>2026-06-26T18:06:03Z</time>
      </trkpt>
      <trkpt lat="52.122486010193825" lon="-9.218515008687973">
        <ele>161.16</ele>
        <time>2026-06-26T18:06:16Z</time>
      </trkpt>
      <trkpt lat="52.122572008520365" lon="-9.221348008140922">
        <ele>156.83000000000001</ele>
        <time>2026-06-26T18:06:32Z</time>
      </trkpt>
      <trkpt lat="52.122635962441564" lon="-9.223410962149501">
        <ele>152.99000000000001</ele>
        <time>2026-06-26T18:06:44Z</time>
      </trkpt>
      <trkpt lat="52.122742999345064" lon="-9.225369980558753">
        <ele>150.09999999999999</ele>
        <time>2026-06-26T18:06:56Z</time>
      </trkpt>
      <trkpt lat="52.122763032093644" lon="-9.225522028282285">
        <ele>149.62</ele>
        <time>2026-06-26T18:06:57Z</time>
      </trkpt>
      <trkpt lat="52.122781975194812" lon="-9.225668963044882">
        <ele>148.66</ele>
        <time>2026-06-26T18:06:58Z</time>
      </trkpt>
      <trkpt lat="52.122837966307998" lon="-9.225824028253555">
        <ele>147.69999999999999</ele>
        <time>2026-06-26T18:06:59Z</time>
      </trkpt>
      <trkpt lat="52.122904015704989" lon="-9.225956965237856">
        <ele>146.74000000000001</ele>
        <time>2026-06-26T18:07:00Z</time>
      </trkpt>
      <trkpt lat="52.122971992939711" lon="-9.226091997697949">
        <ele>145.78</ele>
        <time>2026-06-26T18:07:01Z</time>
      </trkpt>
      <trkpt lat="52.123038964346051" lon="-9.226226024329662">
        <ele>144.34</ele>
        <time>2026-06-26T18:07:02Z</time>
      </trkpt>
      <trkpt lat="52.123097972944379" lon="-9.226344963535667">
        <ele>143.37</ele>
        <time>2026-06-26T18:07:03Z</time>
      </trkpt>
      <trkpt lat="52.123119011521339" lon="-9.226459041237831">
        <ele>142.41</ele>
        <time>2026-06-26T18:07:04Z</time>
      </trkpt>
      <trkpt lat="52.123132003471255" lon="-9.226605976000428">
        <ele>141.93000000000001</ele>
        <time>2026-06-26T18:07:05Z</time>
      </trkpt>
      <trkpt lat="52.12312001734972" lon="-9.226703960448504">
        <ele>141.93000000000001</ele>
        <time>2026-06-26T18:07:06Z</time>
      </trkpt>
      <trkpt lat="52.123106019571424" lon="-9.226814014837146">
        <ele>141.93000000000001</ele>
        <time>2026-06-26T18:07:07Z</time>
      </trkpt>
      <trkpt lat="52.123062014579773" lon="-9.22716798260808">
        <ele>141.44999999999999</ele>
        <time>2026-06-26T18:07:10Z</time>
      </trkpt>
      <trkpt lat="52.123065032064915" lon="-9.227350959554315">
        <ele>140.97</ele>
        <time>2026-06-26T18:07:11Z</time>
      </trkpt>
      <trkpt lat="52.123111970722675" lon="-9.227494960650802">
        <ele>140.49000000000001</ele>
        <time>2026-06-26T18:07:12Z</time>
      </trkpt>
      <trkpt lat="52.123213978484273" lon="-9.227811964228749">
        <ele>139.53</ele>
        <time>2026-06-26T18:07:14Z</time>
      </trkpt>
      <trkpt lat="52.123261000961065" lon="-9.227957976981998">
        <ele>139.05000000000001</ele>
        <time>2026-06-26T18:07:15Z</time>
      </trkpt>
      <trkpt lat="52.123296959325671" lon="-9.228269029408693">
        <ele>138.56999999999999</ele>
        <time>2026-06-26T18:07:17Z</time>
      </trkpt>
      <trkpt lat="52.12331498041749" lon="-9.228426022455096">
        <ele>138.56999999999999</ele>
        <time>2026-06-26T18:07:18Z</time>
      </trkpt>
      <trkpt lat="52.123442972078919" lon="-9.229538971558213">
        <ele>141.93000000000001</ele>
        <time>2026-06-26T18:07:27Z</time>
      </trkpt>
      <trkpt lat="52.123455964028835" lon="-9.229648020118475">
        <ele>142.41</ele>
        <time>2026-06-26T18:07:28Z</time>
      </trkpt>
      <trkpt lat="52.123485971242189" lon="-9.230428040027618">
        <ele>146.25999999999999</ele>
        <time>2026-06-26T18:07:34Z</time>
      </trkpt>
      <trkpt lat="52.123374994844198" lon="-9.232007022947073">
        <ele>150.58000000000001</ele>
        <time>2026-06-26T18:07:45Z</time>
      </trkpt>
      <trkpt lat="52.123313974589109" lon="-9.233257016167045">
        <ele>155.87</ele>
        <time>2026-06-26T18:07:53Z</time>
      </trkpt>
      <trkpt lat="52.123321015387774" lon="-9.234452024102211">
        <ele>158.75</ele>
        <time>2026-06-26T18:08:02Z</time>
      </trkpt>
      <trkpt lat="52.123325960710645" lon="-9.234753018245101">
        <ele>159.24000000000001</ele>
        <time>2026-06-26T18:08:03Z</time>
      </trkpt>
      <trkpt lat="52.123337024822831" lon="-9.235349977388978">
        <ele>160.19999999999999</ele>
        <time>2026-06-26T18:08:07Z</time>
      </trkpt>
      <trkpt lat="52.123343981802464" lon="-9.235768988728523">
        <ele>162.12</ele>
        <time>2026-06-26T18:08:11Z</time>
      </trkpt>
      <trkpt lat="52.123344987630844" lon="-9.235836965963244">
        <ele>162.59999999999999</ele>
        <time>2026-06-26T18:08:12Z</time>
      </trkpt>
      <trkpt lat="52.123345993459225" lon="-9.235904021188617">
        <ele>162.59999999999999</ele>
        <time>2026-06-26T18:08:13Z</time>
      </trkpt>
      <trkpt lat="52.123371977359056" lon="-9.235958000645042">
        <ele>163.08000000000001</ele>
        <time>2026-06-26T18:08:14Z</time>
      </trkpt>
      <trkpt lat="52.123428974300623" lon="-9.23599798232317">
        <ele>163.56</ele>
        <time>2026-06-26T18:08:15Z</time>
      </trkpt>
      <trkpt lat="52.123499969020486" lon="-9.236049028113484">
        <ele>163.56</ele>
        <time>2026-06-26T18:08:16Z</time>
      </trkpt>
      <trkpt lat="52.123584039509296" lon="-9.236108036711812">
        <ele>164.03999999999999</ele>
        <time>2026-06-26T18:08:17Z</time>
      </trkpt>
      <trkpt lat="52.124617025256157" lon="-9.236841034144163">
        <ele>169.33000000000001</ele>
        <time>2026-06-26T18:08:26Z</time>
      </trkpt>
      <trkpt lat="52.126032980158925" lon="-9.23784501850605">
        <ele>174.13999999999999</ele>
        <time>2026-06-26T18:08:37Z</time>
      </trkpt>
      <trkpt lat="52.127065965905786" lon="-9.238578015938401">
        <ele>181.83000000000001</ele>
        <time>2026-06-26T18:08:46Z</time>
      </trkpt>
      <trkpt lat="52.128149997442961" lon="-9.239345965906978">
        <ele>186.15000000000001</ele>
        <time>2026-06-26T18:08:57Z</time>
      </trkpt>
      <trkpt lat="52.128252005204558" lon="-9.239416960626841">
        <ele>185.19</ele>
        <time>2026-06-26T18:08:59Z</time>
      </trkpt>
      <trkpt lat="52.128287041559815" lon="-9.239440010860562">
        <ele>184.71000000000001</ele>
        <time>2026-06-26T18:09:00Z</time>
      </trkpt>
      <trkpt lat="52.128223003819585" lon="-9.239517962560058">
        <ele>184.71000000000001</ele>
        <time>2026-06-26T18:09:01Z</time>
      </trkpt>
      <trkpt lat="52.128227027133107" lon="-9.239603038877249">
        <ele>184.71000000000001</ele>
        <time>2026-06-26T18:09:02Z</time>
      </trkpt>
      <trkpt lat="52.128231972455978" lon="-9.239713009446859">
        <ele>184.22999999999999</ele>
        <time>2026-06-26T18:09:03Z</time>
      </trkpt>
      <trkpt lat="52.128238007426262" lon="-9.239848963916302">
        <ele>184.22999999999999</ele>
        <time>2026-06-26T18:09:04Z</time>
      </trkpt>
      <trkpt lat="52.128244964405894" lon="-9.239997994154692">
        <ele>184.22999999999999</ele>
        <time>2026-06-26T18:09:05Z</time>
      </trkpt>
      <trkpt lat="52.128252005204558" lon="-9.240153981372714">
        <ele>184.71000000000001</ele>
        <time>2026-06-26T18:09:06Z</time>
      </trkpt>
      <trkpt lat="52.128259968012571" lon="-9.24031600356102">
        <ele>185.66999999999999</ele>
        <time>2026-06-26T18:09:07Z</time>
      </trkpt>
      <trkpt lat="52.128280000761151" lon="-9.2407660279423">
        <ele>187.59</ele>
        <time>2026-06-26T18:09:10Z</time>
      </trkpt>
      <trkpt lat="52.128287041559815" lon="-9.240912962704897">
        <ele>187.59</ele>
        <time>2026-06-26T18:09:11Z</time>
      </trkpt>
      <trkpt lat="52.128373961895704" lon="-9.242824036628008">
        <ele>192.88</ele>
        <time>2026-06-26T18:09:22Z</time>
      </trkpt>
      <trkpt lat="52.128434982150793" lon="-9.244214007630944">
        <ele>196.72999999999999</ele>
        <time>2026-06-26T18:09:29Z</time>
      </trkpt>
      <trkpt lat="52.128514023497701" lon="-9.24714800901711">
        <ele>201.05000000000001</ele>
        <time>2026-06-26T18:09:42Z</time>
      </trkpt>
      <trkpt lat="52.128519974648952" lon="-9.247367028146982">
        <ele>201.53</ele>
        <time>2026-06-26T18:09:43Z</time>
      </trkpt>
      <trkpt lat="52.12862097658217" lon="-9.249829966574907">
        <ele>206.81999999999999</ele>
        <time>2026-06-26T18:09:53Z</time>
      </trkpt>
      <trkpt lat="52.128741005435586" lon="-9.251693012192845">
        <ele>210.66999999999999</ele>
        <time>2026-06-26T18:10:02Z</time>
      </trkpt>
      <trkpt lat="52.128866985440254" lon="-9.253662005066872">
        <ele>213.06999999999999</ele>
        <time>2026-06-26T18:10:10Z</time>
      </trkpt>
      <trkpt lat="52.128990031778812" lon="-9.255568971857429">
        <ele>216.43000000000001</ele>
        <time>2026-06-26T18:10:18Z</time>
      </trkpt>
      <trkpt lat="52.129112994298339" lon="-9.257489014416933">
        <ele>219.31999999999999</ele>
        <time>2026-06-26T18:10:26Z</time>
      </trkpt>
      <trkpt lat="52.129240985959768" lon="-9.259487008675933">
        <ele>225.09</ele>
        <time>2026-06-26T18:10:35Z</time>
      </trkpt>
      <trkpt lat="52.129308963194489" lon="-9.260538015514612">
        <ele>227.00999999999999</ele>
        <time>2026-06-26T18:10:40Z</time>
      </trkpt>
      <trkpt lat="52.129322038963437" lon="-9.260743036866188">
        <ele>227.49000000000001</ele>
        <time>2026-06-26T18:10:41Z</time>
      </trkpt>
      <trkpt lat="52.129335030913353" lon="-9.260950991883874">
        <ele>227.97</ele>
        <time>2026-06-26T18:10:42Z</time>
      </trkpt>
      <trkpt lat="52.129433015361428" lon="-9.262757962569594">
        <ele>232.30000000000001</ele>
        <time>2026-06-26T18:10:51Z</time>
      </trkpt>
      <trkpt lat="52.129380041733384" lon="-9.263936039060354">
        <ele>232.30000000000001</ele>
        <time>2026-06-26T18:10:58Z</time>
      </trkpt>
      <trkpt lat="52.129365038126707" lon="-9.26427198573947">
        <ele>232.30000000000001</ele>
        <time>2026-06-26T18:11:05Z</time>
      </trkpt>
      <trkpt lat="52.129365038126707" lon="-9.26427198573947">
        <ele>232.30000000000001</ele>
        <time>2026-06-26T18:11:37Z</time>
      </trkpt>
      <trkpt lat="52.129365038126707" lon="-9.26427198573947">
        <ele>231.81</ele>
        <time>2026-06-26T18:12:34Z</time>
      </trkpt>
      <trkpt lat="52.129365038126707" lon="-9.26427198573947">
        <ele>231.81</ele>
        <time>2026-06-26T18:13:29Z</time>
      </trkpt>
      <trkpt lat="52.129360008984804" lon="-9.264397965744138">
        <ele>232.78</ele>
        <time>2026-06-26T18:14:02Z</time>
      </trkpt>
      <trkpt lat="52.129319021478295" lon="-9.265303965657949">
        <ele>233.74000000000001</ele>
        <time>2026-06-26T18:14:08Z</time>
      </trkpt>
      <trkpt lat="52.129235034808517" lon="-9.267181009054184">
        <ele>236.62</ele>
        <time>2026-06-26T18:14:20Z</time>
      </trkpt>
      <trkpt lat="52.129162028431892" lon="-9.268898963928223">
        <ele>236.62</ele>
        <time>2026-06-26T18:14:29Z</time>
      </trkpt>
      <trkpt lat="52.129077035933733" lon="-9.271204993128777">
        <ele>234.22</ele>
        <time>2026-06-26T18:14:42Z</time>
      </trkpt>
      <trkpt lat="52.128991959616542" lon="-9.273514961823821">
        <ele>231.81</ele>
        <time>2026-06-26T18:14:54Z</time>
      </trkpt>
      <trkpt lat="52.12892197072506" lon="-9.275418994948268">
        <ele>228.44999999999999</ele>
        <time>2026-06-26T18:15:03Z</time>
      </trkpt>
      <trkpt lat="52.128823986276984" lon="-9.278117967769504">
        <ele>224.12</ele>
        <time>2026-06-26T18:15:15Z</time>
      </trkpt>
      <trkpt lat="52.12870697490871" lon="-9.280633041635156">
        <ele>217.40000000000001</ele>
        <time>2026-06-26T18:15:27Z</time>
      </trkpt>
      <trkpt lat="52.128643020987511" lon="-9.28221202455461">
        <ele>212.59</ele>
        <time>2026-06-26T18:15:36Z</time>
      </trkpt>
      <trkpt lat="52.128586024045944" lon="-9.283594032749534">
        <ele>209.69999999999999</ele>
        <time>2026-06-26T18:15:47Z</time>
      </trkpt>
      <trkpt lat="52.128584012389183" lon="-9.283659998327494">
        <ele>209.69999999999999</ele>
        <time>2026-06-26T18:15:48Z</time>
      </trkpt>
      <trkpt lat="52.128551993519068" lon="-9.283713977783918">
        <ele>209.22</ele>
        <time>2026-06-26T18:15:49Z</time>
      </trkpt>
      <trkpt lat="52.128531038761139" lon="-9.283735016360879">
        <ele>208.74000000000001</ele>
        <time>2026-06-26T18:15:50Z</time>
      </trkpt>
      <trkpt lat="52.128507988527417" lon="-9.283757982775569">
        <ele>208.25999999999999</ele>
        <time>2026-06-26T18:15:51Z</time>
      </trkpt>
      <trkpt lat="52.128489967435598" lon="-9.283940959721804">
        <ele>207.30000000000001</ele>
        <time>2026-06-26T18:15:53Z</time>
      </trkpt>
      <trkpt lat="52.128459960222244" lon="-9.284042967483401">
        <ele>206.81999999999999</ele>
        <time>2026-06-26T18:15:54Z</time>
      </trkpt>
      <trkpt lat="52.128393994644284" lon="-9.284268021583557">
        <ele>205.86000000000001</ele>
        <time>2026-06-26T18:15:56Z</time>
      </trkpt>
      <trkpt lat="52.128399023786187" lon="-9.284403976053">
        <ele>204.90000000000001</ele>
        <time>2026-06-26T18:15:57Z</time>
      </trkpt>
      <trkpt lat="52.128410004079342" lon="-9.284531967714429">
        <ele>204.41999999999999</ele>
        <time>2026-06-26T18:15:58Z</time>
      </trkpt>
      <trkpt lat="52.128461971879005" lon="-9.284635987132788">
        <ele>203.46000000000001</ele>
        <time>2026-06-26T18:15:59Z</time>
      </trkpt>
      <trkpt lat="52.128521986305714" lon="-9.28474796935916">
        <ele>202.97999999999999</ele>
        <time>2026-06-26T18:16:00Z</time>
      </trkpt>
      <trkpt lat="52.128584012389183" lon="-9.284864980727434">
        <ele>202.49000000000001</ele>
        <time>2026-06-26T18:16:01Z</time>
      </trkpt>
      <trkpt lat="52.12920100428164" lon="-9.286375986412168">
        <ele>201.53</ele>
        <time>2026-06-26T18:16:11Z</time>
      </trkpt>
      <trkpt lat="52.129235034808517" lon="-9.286564998328686">
        <ele>201.53</ele>
        <time>2026-06-26T18:16:12Z</time>
      </trkpt>
      <trkpt lat="52.129626972600818" lon="-9.288054965436459">
        <ele>199.13</ele>
        <time>2026-06-26T18:16:20Z</time>
      </trkpt>
      <trkpt lat="52.130200965330005" lon="-9.28983704186976">
        <ele>193.36000000000001</ele>
        <time>2026-06-26T18:16:31Z</time>
      </trkpt>
      <trkpt lat="52.130219992250204" lon="-9.289997974410653">
        <ele>193.84</ele>
        <time>2026-06-26T18:16:32Z</time>
      </trkpt>
      <trkpt lat="52.130213035270572" lon="-9.290201989933848">
        <ele>193.84</ele>
        <time>2026-06-26T18:16:33Z</time>
      </trkpt>
      <trkpt lat="52.130169030278921" lon="-9.290358982980251">
        <ele>194.31999999999999</ele>
        <time>2026-06-26T18:16:34Z</time>
      </trkpt>
      <trkpt lat="52.13012401945889" lon="-9.29052603431046">
        <ele>194.31999999999999</ele>
        <time>2026-06-26T18:16:35Z</time>
      </trkpt>
      <trkpt lat="52.130076996982098" lon="-9.29069702513516">
        <ele>194.31999999999999</ele>
        <time>2026-06-26T18:16:36Z</time>
      </trkpt>
      <trkpt lat="52.129670977592468" lon="-9.292176011949778">
        <ele>192.88</ele>
        <time>2026-06-26T18:16:45Z</time>
      </trkpt>
      <trkpt lat="52.129634013399482" lon="-9.292860981076956">
        <ele>191.44</ele>
        <time>2026-06-26T18:16:48Z</time>
      </trkpt>
      <trkpt lat="52.129641976207495" lon="-9.293090980499983">
        <ele>190.96000000000001</ele>
        <time>2026-06-26T18:16:49Z</time>
      </trkpt>
      <trkpt lat="52.129676006734371" lon="-9.293315028771758">
        <ele>190</ele>
        <time>2026-06-26T18:16:50Z</time>
      </trkpt>
      <trkpt lat="52.129720011726022" lon="-9.293596995994449">
        <ele>189.52000000000001</ele>
        <time>2026-06-26T18:16:51Z</time>
      </trkpt>
      <trkpt lat="52.129781031981111" lon="-9.293739991262555">
        <ele>189.03999999999999</ele>
        <time>2026-06-26T18:16:52Z</time>
      </trkpt>
      <trkpt lat="52.129871975630522" lon="-9.293951969593763">
        <ele>188.56</ele>
        <time>2026-06-26T18:16:53Z</time>
      </trkpt>
      <trkpt lat="52.130821980535984" lon="-9.295823983848095">
        <ele>192.40000000000001</ele>
        <time>2026-06-26T18:17:02Z</time>
      </trkpt>
      <trkpt lat="52.131471997126937" lon="-9.296740964055061">
        <ele>192.88</ele>
        <time>2026-06-26T18:17:08Z</time>
      </trkpt>
      <trkpt lat="52.131507033482194" lon="-9.296918995678425">
        <ele>192.88</ele>
        <time>2026-06-26T18:17:09Z</time>
      </trkpt>
      <trkpt lat="52.13154399767518" lon="-9.297137008979917">
        <ele>192.88</ele>
        <time>2026-06-26T18:17:10Z</time>
      </trkpt>
      <trkpt lat="52.131711971014738" lon="-9.298967029899359">
        <ele>194.80000000000001</ele>
        <time>2026-06-26T18:17:18Z</time>
      </trkpt>
      <trkpt lat="52.131880028173327" lon="-9.301387974992394">
        <ele>198.65000000000001</ele>
        <time>2026-06-26T18:17:28Z</time>
      </trkpt>
      <trkpt lat="52.131867036223412" lon="-9.302219962701201">
        <ele>196.25</ele>
        <time>2026-06-26T18:17:32Z</time>
      </trkpt>
      <trkpt lat="52.131830994039774" lon="-9.302439987659454">
        <ele>195.28</ele>
        <time>2026-06-26T18:17:33Z</time>
      </trkpt>
      <trkpt lat="52.131365966051817" lon="-9.305280027911067">
        <ele>187.11000000000001</ele>
        <time>2026-06-26T18:17:45Z</time>
      </trkpt>
      <trkpt lat="52.131016021594405" lon="-9.307553032413125">
        <ele>182.78999999999999</ele>
        <time>2026-06-26T18:17:55Z</time>
      </trkpt>
      <trkpt lat="52.130700023844838" lon="-9.3096680380404">
        <ele>176.53999999999999</ele>
        <time>2026-06-26T18:18:05Z</time>
      </trkpt>
      <trkpt lat="52.130500031635165" lon="-9.311562012881041">
        <ele>178.46000000000001</ele>
        <time>2026-06-26T18:18:17Z</time>
      </trkpt>
      <trkpt lat="52.130331974476576" lon="-9.313249038532376">
        <ele>183.75</ele>
        <time>2026-06-26T18:18:27Z</time>
      </trkpt>
      <trkpt lat="52.130160983651876" lon="-9.314840007573366">
        <ele>188.56</ele>
        <time>2026-06-26T18:18:38Z</time>
      </trkpt>
      <trkpt lat="52.130027040839195" lon="-9.316236013546586">
        <ele>188.56</ele>
        <time>2026-06-26T18:18:47Z</time>
      </trkpt>
      <trkpt lat="52.130018994212151" lon="-9.316327041015029">
        <ele>188.56</ele>
        <time>2026-06-26T18:18:53Z</time>
      </trkpt>
      <trkpt lat="52.130012959241867" lon="-9.316389989107847">
        <ele>188.56</ele>
        <time>2026-06-26T18:19:07Z</time>
      </trkpt>
      <trkpt lat="52.130012959241867" lon="-9.316389989107847">
        <ele>188.08000000000001</ele>
        <time>2026-06-26T18:19:45Z</time>
      </trkpt>
      <trkpt lat="52.129978006705642" lon="-9.316770024597645">
        <ele>188.56</ele>
        <time>2026-06-26T18:20:01Z</time>
      </trkpt>
      <trkpt lat="52.129871975630522" lon="-9.317929996177554">
        <ele>187.59</ele>
        <time>2026-06-26T18:20:09Z</time>
      </trkpt>
      <trkpt lat="52.129649017006159" lon="-9.32047801092267">
        <ele>186.15000000000001</ele>
        <time>2026-06-26T18:20:20Z</time>
      </trkpt>
      <trkpt lat="52.129446007311344" lon="-9.323148988187313">
        <ele>186.15000000000001</ele>
        <time>2026-06-26T18:20:31Z</time>
      </trkpt>
      <trkpt lat="52.129125986248255" lon="-9.326333021745086">
        <ele>192.40000000000001</ele>
        <time>2026-06-26T18:20:42Z</time>
      </trkpt>
      <trkpt lat="52.128830021247268" lon="-9.329346986487508">
        <ele>200.56999999999999</ele>
        <time>2026-06-26T18:20:52Z</time>
      </trkpt>
      <trkpt lat="52.128705969080329" lon="-9.330896968021989">
        <ele>201.05000000000001</ele>
        <time>2026-06-26T18:20:58Z</time>
      </trkpt>
      <trkpt lat="52.128480998799205" lon="-9.333297964185476">
        <ele>201.05000000000001</ele>
        <time>2026-06-26T18:21:07Z</time>
      </trkpt>
      <trkpt lat="52.128433976322412" lon="-9.333794005215168">
        <ele>199.13</ele>
        <time>2026-06-26T18:21:10Z</time>
      </trkpt>
      <trkpt lat="52.128177992999554" lon="-9.336520973592997">
        <ele>194.80000000000001</ele>
        <time>2026-06-26T18:21:19Z</time>
      </trkpt>
      <trkpt lat="52.127960985526443" lon="-9.338998999446631">
        <ele>186.15000000000001</ele>
        <time>2026-06-26T18:21:27Z</time>
      </trkpt>
      <trkpt lat="52.127746995538473" lon="-9.341502003371716">
        <ele>185.19</ele>
        <time>2026-06-26T18:21:36Z</time>
      </trkpt>
      <trkpt lat="52.12748397141695" lon="-9.344588974490762">
        <ele>187.11000000000001</ele>
        <time>2026-06-26T18:21:49Z</time>
      </trkpt>
      <trkpt lat="52.12741800583899" lon="-9.345359019935131">
        <ele>187.59</ele>
        <time>2026-06-26T18:21:56Z</time>
      </trkpt>
      <trkpt lat="52.127294037491083" lon="-9.346751002594829">
        <ele>187.11000000000001</ele>
        <time>2026-06-26T18:22:03Z</time>
      </trkpt>
      <trkpt lat="52.12707300670445" lon="-9.349208995699883">
        <ele>183.27000000000001</ele>
        <time>2026-06-26T18:22:12Z</time>
      </trkpt>
      <trkpt lat="52.12681601755321" lon="-9.352059010416269">
        <ele>178.46000000000001</ele>
        <time>2026-06-26T18:22:23Z</time>
      </trkpt>
      <trkpt lat="52.126556010916829" lon="-9.35485596768558">
        <ele>173.66</ele>
        <time>2026-06-26T18:22:34Z</time>
      </trkpt>
      <trkpt lat="52.126286029815674" lon="-9.357747975736857">
        <ele>170.28999999999999</ele>
        <time>2026-06-26T18:22:46Z</time>
      </trkpt>
      <trkpt lat="52.126072961837053" lon="-9.359608003869653">
        <ele>170.28999999999999</ele>
        <time>2026-06-26T18:22:54Z</time>
      </trkpt>
      <trkpt lat="52.125735003501177" lon="-9.362263977527618">
        <ele>170.77000000000001</ele>
        <time>2026-06-26T18:23:05Z</time>
      </trkpt>
      <trkpt lat="52.125448007136583" lon="-9.364433968439698">
        <ele>175.58000000000001</ele>
        <time>2026-06-26T18:23:14Z</time>
      </trkpt>
      <trkpt lat="52.125132009387016" lon="-9.366889027878642">
        <ele>183.75</ele>
        <time>2026-06-26T18:23:24Z</time>
      </trkpt>
      <trkpt lat="52.124726995825768" lon="-9.370027966797352">
        <ele>191.91999999999999</ele>
        <time>2026-06-26T18:23:37Z</time>
      </trkpt>
      <trkpt lat="52.124328017234802" lon="-9.373293975368142">
        <ele>199.61000000000001</ele>
        <time>2026-06-26T18:23:50Z</time>
      </trkpt>
      <trkpt lat="52.124047977849841" lon="-9.375250982120633">
        <ele>201.53</ele>
        <time>2026-06-26T18:23:59Z</time>
      </trkpt>
      <trkpt lat="52.123769028112292" lon="-9.377135988324881">
        <ele>202.49000000000001</ele>
        <time>2026-06-26T18:24:09Z</time>
      </trkpt>
      <trkpt lat="52.123351022601128" lon="-9.379687020555139">
        <ele>200.09</ele>
        <time>2026-06-26T18:24:22Z</time>
      </trkpt>
      <trkpt lat="52.123049022629857" lon="-9.382001012563705">
        <ele>196.72999999999999</ele>
        <time>2026-06-26T18:24:32Z</time>
      </trkpt>
      <trkpt lat="52.122548036277294" lon="-9.384940965101123">
        <ele>198.65000000000001</ele>
        <time>2026-06-26T18:24:44Z</time>
      </trkpt>
      <trkpt lat="52.122129024937749" lon="-9.386993022635579">
        <ele>208.74000000000001</ele>
        <time>2026-06-26T18:24:53Z</time>
      </trkpt>
      <trkpt lat="52.122073033824563" lon="-9.387205000966787">
        <ele>210.19</ele>
        <time>2026-06-26T18:24:54Z</time>
      </trkpt>
      <trkpt lat="52.122016036882997" lon="-9.387419996783137">
        <ele>211.15000000000001</ele>
        <time>2026-06-26T18:24:55Z</time>
      </trkpt>
      <trkpt lat="52.12118798866868" lon="-9.389736000448465">
        <ele>217.40000000000001</ele>
        <time>2026-06-26T18:25:06Z</time>
      </trkpt>
      <trkpt lat="52.120321970432997" lon="-9.392120987176895">
        <ele>221.72</ele>
        <time>2026-06-26T18:25:18Z</time>
      </trkpt>
      <trkpt lat="52.119261994957924" lon="-9.394498011097312">
        <ele>223.16</ele>
        <time>2026-06-26T18:25:28Z</time>
      </trkpt>
      <trkpt lat="52.118400000035763" lon="-9.396357033401728">
        <ele>221.24000000000001</ele>
        <time>2026-06-26T18:25:37Z</time>
      </trkpt>
      <trkpt lat="52.117379000410438" lon="-9.398659961298108">
        <ele>212.11000000000001</ele>
        <time>2026-06-26T18:25:48Z</time>
      </trkpt>
      <trkpt lat="52.116571990773082" lon="-9.400456035509706">
        <ele>205.38</ele>
        <time>2026-06-26T18:25:57Z</time>
      </trkpt>
      <trkpt lat="52.115765986964107" lon="-9.402209026739001">
        <ele>202.97999999999999</ele>
        <time>2026-06-26T18:26:06Z</time>
      </trkpt>
      <trkpt lat="52.115674037486315" lon="-9.402408013120294">
        <ele>202.00999999999999</ele>
        <time>2026-06-26T18:26:07Z</time>
      </trkpt>
      <trkpt lat="52.1147820353508" lon="-9.404350016266108">
        <ele>202.00999999999999</ele>
        <time>2026-06-26T18:26:17Z</time>
      </trkpt>
      <trkpt lat="52.114678015932441" lon="-9.404575992375612">
        <ele>202.49000000000001</ele>
        <time>2026-06-26T18:26:18Z</time>
      </trkpt>
      <trkpt lat="52.114623030647635" lon="-9.404751006513834">
        <ele>202.97999999999999</ele>
        <time>2026-06-26T18:26:19Z</time>
      </trkpt>
      <trkpt lat="52.11456703953445" lon="-9.404988968744874">
        <ele>202.49000000000001</ele>
        <time>2026-06-26T18:26:20Z</time>
      </trkpt>
      <trkpt lat="52.114556981250644" lon="-9.405199019238353">
        <ele>202.49000000000001</ele>
        <time>2026-06-26T18:26:21Z</time>
      </trkpt>
      <trkpt lat="52.114546000957489" lon="-9.405418038368225">
        <ele>202.00999999999999</ele>
        <time>2026-06-26T18:26:22Z</time>
      </trkpt>
      <trkpt lat="52.114535020664334" lon="-9.405643008649349">
        <ele>201.05000000000001</ele>
        <time>2026-06-26T18:26:23Z</time>
      </trkpt>
      <trkpt lat="52.114523034542799" lon="-9.40588197670877">
        <ele>200.09</ele>
        <time>2026-06-26T18:26:24Z</time>
      </trkpt>
      <trkpt lat="52.114509958773851" lon="-9.406137960031629">
        <ele>198.65000000000001</ele>
        <time>2026-06-26T18:26:25Z</time>
      </trkpt>
      <trkpt lat="52.114487998187542" lon="-9.406409030780196">
        <ele>196.72999999999999</ele>
        <time>2026-06-26T18:26:26Z</time>
      </trkpt>
      <trkpt lat="52.114463020116091" lon="-9.406682029366493">
        <ele>195.77000000000001</ele>
        <time>2026-06-26T18:26:27Z</time>
      </trkpt>
      <trkpt lat="52.114275014027953" lon="-9.408734003081918">
        <ele>185.19</ele>
        <time>2026-06-26T18:26:35Z</time>
      </trkpt>
      <trkpt lat="52.114251963794231" lon="-9.408989986404777">
        <ele>183.75</ele>
        <time>2026-06-26T18:26:36Z</time>
      </trkpt>
      <trkpt lat="52.114069992676377" lon="-9.411262990906835">
        <ele>174.62</ele>
        <time>2026-06-26T18:26:45Z</time>
      </trkpt>
      <trkpt lat="52.113890033215284" lon="-9.413371961563826">
        <ele>168.84999999999999</ele>
        <time>2026-06-26T18:26:53Z</time>
      </trkpt>
      <trkpt lat="52.113608988001943" lon="-9.415489984676242">
        <ele>178.46000000000001</ele>
        <time>2026-06-26T18:27:02Z</time>
      </trkpt>
      <trkpt lat="52.113273963332176" lon="-9.417150020599365">
        <ele>186.15000000000001</ele>
        <time>2026-06-26T18:27:10Z</time>
      </trkpt>
      <trkpt lat="52.112723020836711" lon="-9.41896403208375">
        <ele>190.96000000000001</ele>
        <time>2026-06-26T18:27:18Z</time>
      </trkpt>
      <trkpt lat="52.111986000090837" lon="-9.421638026833534">
        <ele>191.44</ele>
        <time>2026-06-26T18:27:29Z</time>
      </trkpt>
      <trkpt lat="52.111336989328265" lon="-9.424366001039743">
        <ele>190.47999999999999</ele>
        <time>2026-06-26T18:27:40Z</time>
      </trkpt>
      <trkpt lat="52.110715974122286" lon="-9.4270000141114">
        <ele>180.38</ele>
        <time>2026-06-26T18:27:51Z</time>
      </trkpt>
      <trkpt lat="52.110541965812445" lon="-9.42884897813201">
        <ele>172.69</ele>
        <time>2026-06-26T18:27:59Z</time>
      </trkpt>
      <trkpt lat="52.110355971381068" lon="-9.431322980672121">
        <ele>171.25</ele>
        <time>2026-06-26T18:28:10Z</time>
      </trkpt>
      <trkpt lat="52.110195038840175" lon="-9.433716014027596">
        <ele>179.90000000000001</ele>
        <time>2026-06-26T18:28:20Z</time>
      </trkpt>
      <trkpt lat="52.110003009438515" lon="-9.43690599873662">
        <ele>185.66999999999999</ele>
        <time>2026-06-26T18:28:33Z</time>
      </trkpt>
      <trkpt lat="52.109846016392112" lon="-9.43939701654017">
        <ele>198.65000000000001</ele>
        <time>2026-06-26T18:28:44Z</time>
      </trkpt>
      <trkpt lat="52.109647030010819" lon="-9.442326994612813">
        <ele>207.30000000000001</ele>
        <time>2026-06-26T18:28:56Z</time>
      </trkpt>
      <trkpt lat="52.109473021700978" lon="-9.444467984139919">
        <ele>214.03</ele>
        <time>2026-06-26T18:29:05Z</time>
      </trkpt>
      <trkpt lat="52.109373025596142" lon="-9.44683201611042">
        <ele>217.40000000000001</ele>
        <time>2026-06-26T18:29:15Z</time>
      </trkpt>
      <trkpt lat="52.109207985922694" lon="-9.449563007801771">
        <ele>218.36000000000001</ele>
        <time>2026-06-26T18:29:27Z</time>
      </trkpt>
      <trkpt lat="52.109011011198163" lon="-9.452838990837336">
        <ele>214.03</ele>
        <time>2026-06-26T18:29:39Z</time>
      </trkpt>
      <trkpt lat="52.108837002888322" lon="-9.455814985558391">
        <ele>197.69</ele>
        <time>2026-06-26T18:29:50Z</time>
      </trkpt>
      <trkpt lat="52.10876701399684" lon="-9.458622001111507">
        <ele>183.75</ele>
        <time>2026-06-26T18:30:01Z</time>
      </trkpt>
      <trkpt lat="52.108699958771467" lon="-9.461308987811208">
        <ele>171.72999999999999</ele>
        <time>2026-06-26T18:30:11Z</time>
      </trkpt>
      <trkpt lat="52.108631981536746" lon="-9.464036040008068">
        <ele>161.63999999999999</ele>
        <time>2026-06-26T18:30:21Z</time>
      </trkpt>
      <trkpt lat="52.108526034280658" lon="-9.466799972578883">
        <ele>152.99000000000001</ele>
        <time>2026-06-26T18:30:31Z</time>
      </trkpt>
      <trkpt lat="52.108432995155454" lon="-9.469409007579088">
        <ele>147.22</ele>
        <time>2026-06-26T18:30:41Z</time>
      </trkpt>
      <trkpt lat="52.108354959636927" lon="-9.472143016755581">
        <ele>144.81999999999999</ele>
        <time>2026-06-26T18:30:52Z</time>
      </trkpt>
      <trkpt lat="52.108321012929082" lon="-9.474304039031267">
        <ele>141.93000000000001</ele>
        <time>2026-06-26T18:31:00Z</time>
      </trkpt>
      <trkpt lat="52.108282037079334" lon="-9.476268002763391">
        <ele>141.44999999999999</ele>
        <time>2026-06-26T18:31:08Z</time>
      </trkpt>
      <trkpt lat="52.108197966590524" lon="-9.479325972497463">
        <ele>142.41</ele>
        <time>2026-06-26T18:31:20Z</time>
      </trkpt>
      <trkpt lat="52.108121020719409" lon="-9.48161599226296">
        <ele>143.84999999999999</ele>
        <time>2026-06-26T18:31:29Z</time>
      </trkpt>
      <trkpt lat="52.108041979372501" lon="-9.483953034505248">
        <ele>145.78</ele>
        <time>2026-06-26T18:31:38Z</time>
      </trkpt>
      <trkpt lat="52.107954975217581" lon="-9.486706992611289">
        <ele>154.91</ele>
        <time>2026-06-26T18:31:49Z</time>
      </trkpt>
      <trkpt lat="52.107982970774174" lon="-9.489017967134714">
        <ele>152.50999999999999</ele>
        <time>2026-06-26T18:31:58Z</time>
      </trkpt>
      <trkpt lat="52.108043991029263" lon="-9.491254007443786">
        <ele>144.81999999999999</ele>
        <time>2026-06-26T18:32:07Z</time>
      </trkpt>
      <trkpt lat="52.108269967138767" lon="-9.493768997490406">
        <ele>136.16</ele>
        <time>2026-06-26T18:32:18Z</time>
      </trkpt>
      <trkpt lat="52.108339034020901" lon="-9.493965972214937">
        <ele>135.68000000000001</ele>
        <time>2026-06-26T18:32:19Z</time>
      </trkpt>
      <trkpt lat="52.108421009033918" lon="-9.494144003838301">
        <ele>134.72</ele>
        <time>2026-06-26T18:32:20Z</time>
      </trkpt>
      <trkpt lat="52.109058033674955" lon="-9.495335994288325">
        <ele>127.03</ele>
        <time>2026-06-26T18:32:28Z</time>
      </trkpt>
      <trkpt lat="52.109565977007151" lon="-9.496564026921988">
        <ele>120.78</ele>
        <time>2026-06-26T18:32:37Z</time>
      </trkpt>
      <trkpt lat="52.109801005572081" lon="-9.497270034626126">
        <ele>117.42</ele>
        <time>2026-06-26T18:32:41Z</time>
      </trkpt>
      <trkpt lat="52.109850961714983" lon="-9.497454017400742">
        <ele>116.94</ele>
        <time>2026-06-26T18:32:42Z</time>
      </trkpt>
      <trkpt lat="52.109999991953373" lon="-9.498475017026067">
        <ele>112.61</ele>
        <time>2026-06-26T18:32:47Z</time>
      </trkpt>
      <trkpt lat="52.110112980008125" lon="-9.499080022796989">
        <ele>110.69</ele>
        <time>2026-06-26T18:32:50Z</time>
      </trkpt>
      <trkpt lat="52.11016402579844" lon="-9.499251013621688">
        <ele>110.20999999999999</ele>
        <time>2026-06-26T18:32:51Z</time>
      </trkpt>
      <trkpt lat="52.110269973054528" lon="-9.499601041898131">
        <ele>109.25</ele>
        <time>2026-06-26T18:32:53Z</time>
      </trkpt>
      <trkpt lat="52.110331999137998" lon="-9.499767003580928">
        <ele>108.29000000000001</ele>
        <time>2026-06-26T18:32:54Z</time>
      </trkpt>
      <trkpt lat="52.110393019393086" lon="-9.499931037425995">
        <ele>107.31999999999999</ele>
        <time>2026-06-26T18:32:55Z</time>
      </trkpt>
      <trkpt lat="52.110871039330959" lon="-9.501256970688701">
        <ele>99.629999999999995</ele>
        <time>2026-06-26T18:33:04Z</time>
      </trkpt>
      <trkpt lat="52.111419970169663" lon="-9.503593007102609">
        <ele>96.75</ele>
        <time>2026-06-26T18:33:18Z</time>
      </trkpt>
      <trkpt lat="52.111794976517558" lon="-9.505146006122232">
        <ele>94.829999999999998</ele>
        <time>2026-06-26T18:33:28Z</time>
      </trkpt>
      <trkpt lat="52.112223040312529" lon="-9.506886005401611">
        <ele>90.980000000000004</ele>
        <time>2026-06-26T18:33:39Z</time>
      </trkpt>
      <trkpt lat="52.11261598393321" lon="-9.508118983358145">
        <ele>88.579999999999998</ele>
        <time>2026-06-26T18:33:45Z</time>
      </trkpt>
      <trkpt lat="52.112666023895144" lon="-9.508312018588185">
        <ele>87.620000000000005</ele>
        <time>2026-06-26T18:33:46Z</time>
      </trkpt>
      <trkpt lat="52.112725032493472" lon="-9.50853799469769">
        <ele>87.140000000000001</ele>
        <time>2026-06-26T18:33:47Z</time>
      </trkpt>
      <trkpt lat="52.112975986674428" lon="-9.511129008606076">
        <ele>84.25</ele>
        <time>2026-06-26T18:33:59Z</time>
      </trkpt>
      <trkpt lat="52.113040024414659" lon="-9.513185005635023">
        <ele>80.890000000000001</ele>
        <time>2026-06-26T18:34:09Z</time>
      </trkpt>
      <trkpt lat="52.113031977787614" lon="-9.515103958547115">
        <ele>78.969999999999999</ele>
        <time>2026-06-26T18:34:19Z</time>
      </trkpt>
      <trkpt lat="52.113013034686446" lon="-9.515473013743758">
        <ele>78.969999999999999</ele>
        <time>2026-06-26T18:34:21Z</time>
      </trkpt>
      <trkpt lat="52.112994007766247" lon="-9.515857994556427">
        <ele>77.519999999999996</ele>
        <time>2026-06-26T18:34:26Z</time>
      </trkpt>
      <trkpt lat="52.112994007766247" lon="-9.515857994556427">
        <ele>76.560000000000002</ele>
        <time>2026-06-26T18:34:42Z</time>
      </trkpt>
      <trkpt lat="52.112994007766247" lon="-9.515857994556427">
        <ele>76.079999999999998</ele>
        <time>2026-06-26T18:35:25Z</time>
      </trkpt>
      <trkpt lat="52.112994007766247" lon="-9.515857994556427">
        <ele>76.079999999999998</ele>
        <time>2026-06-26T18:36:04Z</time>
      </trkpt>
      <trkpt lat="52.112994007766247" lon="-9.515857994556427">
        <ele>75.599999999999994</ele>
        <time>2026-06-26T18:36:44Z</time>
      </trkpt>
      <trkpt lat="52.112994007766247" lon="-9.515857994556427">
        <ele>75.599999999999994</ele>
        <time>2026-06-26T18:37:32Z</time>
      </trkpt>
      <trkpt lat="52.112994007766247" lon="-9.515857994556427">
        <ele>75.599999999999994</ele>
        <time>2026-06-26T18:38:21Z</time>
      </trkpt>
      <trkpt lat="52.112994007766247" lon="-9.515857994556427">
        <ele>75.599999999999994</ele>
        <time>2026-06-26T18:38:55Z</time>
      </trkpt>
      <trkpt lat="52.112994007766247" lon="-9.515857994556427">
        <ele>77.519999999999996</ele>
        <time>2026-06-26T18:39:12Z</time>
      </trkpt>
      <trkpt lat="52.113015968352556" lon="-9.515732014551759">
        <ele>81.849999999999994</ele>
        <time>2026-06-26T18:39:22Z</time>
      </trkpt>
      <trkpt lat="52.113020997494459" lon="-9.515738971531391">
        <ele>81.849999999999994</ele>
        <time>2026-06-26T18:40:06Z</time>
      </trkpt>
      <trkpt lat="52.113024014979601" lon="-9.515737965703011">
        <ele>81.849999999999994</ele>
        <time>2026-06-26T18:40:56Z</time>
      </trkpt>
      <trkpt lat="52.113019991666079" lon="-9.515332030132413">
        <ele>83.290000000000006</ele>
        <time>2026-06-26T18:41:29Z</time>
      </trkpt>
      <trkpt lat="52.113046981394291" lon="-9.513952033594251">
        <ele>85.209999999999994</ele>
        <time>2026-06-26T18:41:36Z</time>
      </trkpt>
      <trkpt lat="52.113026026636362" lon="-9.511980023235083">
        <ele>86.659999999999997</ele>
        <time>2026-06-26T18:41:46Z</time>
      </trkpt>
      <trkpt lat="52.113026026636362" lon="-9.511792017146945">
        <ele>87.140000000000001</ele>
        <time>2026-06-26T18:41:47Z</time>
      </trkpt>
      <trkpt lat="52.112855035811663" lon="-9.509877003729343">
        <ele>89.060000000000002</ele>
        <time>2026-06-26T18:41:58Z</time>
      </trkpt>
      <trkpt lat="52.112576002255082" lon="-9.507964001968503">
        <ele>91.459999999999994</ele>
        <time>2026-06-26T18:42:09Z</time>
      </trkpt>
      <trkpt lat="52.11199002340436" lon="-9.505969025194645">
        <ele>97.709999999999994</ele>
        <time>2026-06-26T18:42:19Z</time>
      </trkpt>
      <trkpt lat="52.111317962408066" lon="-9.503168966621161">
        <ele>105.40000000000001</ele>
        <time>2026-06-26T18:42:32Z</time>
      </trkpt>
      <trkpt lat="52.110655959695578" lon="-9.50063000433147">
        <ele>109.25</ele>
        <time>2026-06-26T18:42:43Z</time>
      </trkpt>
      <trkpt lat="52.110208030790091" lon="-9.499400965869427">
        <ele>112.13</ele>
        <time>2026-06-26T18:42:49Z</time>
      </trkpt>
      <trkpt lat="52.110162014141679" lon="-9.499245984479785">
        <ele>113.09</ele>
        <time>2026-06-26T18:42:50Z</time>
      </trkpt>
      <trkpt lat="52.110070986673236" lon="-9.498900985345244">
        <ele>114.53</ele>
        <time>2026-06-26T18:42:52Z</time>
      </trkpt>
      <trkpt lat="52.110037039965391" lon="-9.498696969822049">
        <ele>115.5</ele>
        <time>2026-06-26T18:42:53Z</time>
      </trkpt>
      <trkpt lat="52.109813997521996" lon="-9.497315967455506">
        <ele>118.86</ele>
        <time>2026-06-26T18:42:59Z</time>
      </trkpt>
      <trkpt lat="52.10975700058043" lon="-9.497104994952679">
        <ele>119.34</ele>
        <time>2026-06-26T18:43:00Z</time>
      </trkpt>
      <trkpt lat="52.10969396866858" lon="-9.496901985257864">
        <ele>119.81999999999999</ele>
        <time>2026-06-26T18:43:01Z</time>
      </trkpt>
      <trkpt lat="52.109619034454226" lon="-9.496702998876572">
        <ele>120.3</ele>
        <time>2026-06-26T18:43:02Z</time>
      </trkpt>
      <trkpt lat="52.109543010592461" lon="-9.49650501832366">
        <ele>121.26000000000001</ele>
        <time>2026-06-26T18:43:03Z</time>
      </trkpt>
      <trkpt lat="52.109007993713021" lon="-9.495214959606528">
        <ele>127.03</ele>
        <time>2026-06-26T18:43:11Z</time>
      </trkpt>
      <trkpt lat="52.108938004821539" lon="-9.49504598043859">
        <ele>127.51000000000001</ele>
        <time>2026-06-26T18:43:12Z</time>
      </trkpt>
      <trkpt lat="52.108314977958798" lon="-9.493899000808597">
        <ele>132.31999999999999</ele>
        <time>2026-06-26T18:43:18Z</time>
      </trkpt>
      <trkpt lat="52.108239037916064" lon="-9.493678975850344">
        <ele>133.75999999999999</ele>
        <time>2026-06-26T18:43:19Z</time>
      </trkpt>
      <trkpt lat="52.108184974640608" lon="-9.493470015004277">
        <ele>134.72</ele>
        <time>2026-06-26T18:43:20Z</time>
      </trkpt>
      <trkpt lat="52.108153961598873" lon="-9.493255019187927">
        <ele>135.68000000000001</ele>
        <time>2026-06-26T18:43:21Z</time>
      </trkpt>
      <trkpt lat="52.10812202654779" lon="-9.493027031421661">
        <ele>136.63999999999999</ele>
        <time>2026-06-26T18:43:22Z</time>
      </trkpt>
      <trkpt lat="52.108105011284351" lon="-9.492775993421674">
        <ele>137.61000000000001</ele>
        <time>2026-06-26T18:43:23Z</time>
      </trkpt>
      <trkpt lat="52.108094030991197" lon="-9.492516992613673">
        <ele>138.09</ele>
        <time>2026-06-26T18:43:24Z</time>
      </trkpt>
      <trkpt lat="52.108083972707391" lon="-9.492268972098827">
        <ele>138.56999999999999</ele>
        <time>2026-06-26T18:43:25Z</time>
      </trkpt>
      <trkpt lat="52.108075004070997" lon="-9.49203796684742">
        <ele>139.53</ele>
        <time>2026-06-26T18:43:26Z</time>
      </trkpt>
      <trkpt lat="52.108024964109063" lon="-9.490555040538311">
        <ele>145.78</ele>
        <time>2026-06-26T18:43:33Z</time>
      </trkpt>
      <trkpt lat="52.107954975217581" lon="-9.488003002479672">
        <ele>154.43000000000001</ele>
        <time>2026-06-26T18:43:43Z</time>
      </trkpt>
      <trkpt lat="52.107954975217581" lon="-9.486717972904444">
        <ele>160.19999999999999</ele>
        <time>2026-06-26T18:43:48Z</time>
      </trkpt>
      <trkpt lat="52.107960004359484" lon="-9.48647296987474">
        <ele>160.68000000000001</ele>
        <time>2026-06-26T18:43:49Z</time>
      </trkpt>
      <trkpt lat="52.108050025999546" lon="-9.483723035082221">
        <ele>155.87</ele>
        <time>2026-06-26T18:44:00Z</time>
      </trkpt>
      <trkpt lat="52.108153961598873" lon="-9.480617959052324">
        <ele>150.09999999999999</ele>
        <time>2026-06-26T18:44:11Z</time>
      </trkpt>
      <trkpt lat="52.108240965753794" lon="-9.478038009256125">
        <ele>145.30000000000001</ele>
        <time>2026-06-26T18:44:21Z</time>
      </trkpt>
      <trkpt lat="52.108299974352121" lon="-9.47549301199615">
        <ele>148.18000000000001</ele>
        <time>2026-06-26T18:44:32Z</time>
      </trkpt>
      <trkpt lat="52.108315983787179" lon="-9.474565973505378">
        <ele>148.66</ele>
        <time>2026-06-26T18:44:36Z</time>
      </trkpt>
      <trkpt lat="52.108346996828914" lon="-9.472606033086777">
        <ele>147.22</ele>
        <time>2026-06-26T18:44:44Z</time>
      </trkpt>
      <trkpt lat="52.108362000435591" lon="-9.471702966839075">
        <ele>146.74000000000001</ele>
        <time>2026-06-26T18:44:49Z</time>
      </trkpt>
      <trkpt lat="52.108363006263971" lon="-9.471613029018045">
        <ele>147.22</ele>
        <time>2026-06-26T18:44:50Z</time>
      </trkpt>
      <trkpt lat="52.108368035405874" lon="-9.471309017390013">
        <ele>149.13999999999999</ele>
        <time>2026-06-26T18:44:56Z</time>
      </trkpt>
      <trkpt lat="52.108321012929082" lon="-9.471212960779667">
        <ele>149.13999999999999</ele>
        <time>2026-06-26T18:44:57Z</time>
      </trkpt>
      <trkpt lat="52.108279019594193" lon="-9.471222013235092">
        <ele>149.62</ele>
        <time>2026-06-26T18:44:58Z</time>
      </trkpt>
      <trkpt lat="52.108224034309387" lon="-9.471235005185008">
        <ele>150.09999999999999</ele>
        <time>2026-06-26T18:44:59Z</time>
      </trkpt>
      <trkpt lat="52.108154967427254" lon="-9.471250008791685">
        <ele>150.09999999999999</ele>
        <time>2026-06-26T18:45:00Z</time>
      </trkpt>
      <trkpt lat="52.107489025220275" lon="-9.471399039030075">
        <ele>149.62</ele>
        <time>2026-06-26T18:45:06Z</time>
      </trkpt>
      <trkpt lat="52.106452016159892" lon="-9.471654016524553">
        <ele>147.22</ele>
        <time>2026-06-26T18:45:13Z</time>
      </trkpt>
      <trkpt lat="52.104625012725592" lon="-9.472161959856749">
        <ele>146.74000000000001</ele>
        <time>2026-06-26T18:45:25Z</time>
      </trkpt>
      <trkpt lat="52.102929018437862" lon="-9.47254903614521">
        <ele>145.78</ele>
        <time>2026-06-26T18:45:35Z</time>
      </trkpt>
      <trkpt lat="52.102016983553767" lon="-9.472397994250059">
        <ele>144.81999999999999</ele>
        <time>2026-06-26T18:45:42Z</time>
      </trkpt>
      <trkpt lat="52.100977040827274" lon="-9.471863983199">
        <ele>146.74000000000001</ele>
        <time>2026-06-26T18:45:51Z</time>
      </trkpt>
      <trkpt lat="52.099738027900457" lon="-9.471148001030088">
        <ele>144.81999999999999</ele>
        <time>2026-06-26T18:46:01Z</time>
      </trkpt>
      <trkpt lat="52.098440006375313" lon="-9.470190033316612">
        <ele>146.25999999999999</ele>
        <time>2026-06-26T18:46:12Z</time>
      </trkpt>
      <trkpt lat="52.098259963095188" lon="-9.470062963664532">
        <ele>145.78</ele>
        <time>2026-06-26T18:46:14Z</time>
      </trkpt>
      <trkpt lat="52.09817698225379" lon="-9.470000015571713">
        <ele>145.30000000000001</ele>
        <time>2026-06-26T18:46:15Z</time>
      </trkpt>
      <trkpt lat="52.098062988370657" lon="-9.469899013638496">
        <ele>143.37</ele>
        <time>2026-06-26T18:46:21Z</time>
      </trkpt>
      <trkpt lat="52.098062988370657" lon="-9.469899013638496">
        <ele>143.37</ele>
        <time>2026-06-26T18:46:27Z</time>
      </trkpt>
      <trkpt lat="52.098035998642445" lon="-9.469720982015133">
        <ele>143.37</ele>
        <time>2026-06-26T18:46:29Z</time>
      </trkpt>
      <trkpt lat="52.098035998642445" lon="-9.469720982015133">
        <ele>143.37</ele>
        <time>2026-06-26T18:46:30Z</time>
      </trkpt>
      <trkpt lat="52.098436988890171" lon="-9.468901986256242">
        <ele>146.25999999999999</ele>
        <time>2026-06-26T18:46:37Z</time>
      </trkpt>
      <trkpt lat="52.098474036902189" lon="-9.468838032335043">
        <ele>147.69999999999999</ele>
        <time>2026-06-26T18:46:38Z</time>
      </trkpt>
      <trkpt lat="52.09849901497364" lon="-9.468796039000154">
        <ele>148.66</ele>
        <time>2026-06-26T18:46:39Z</time>
      </trkpt>
      <trkpt lat="52.098513012751937" lon="-9.468770977109671">
        <ele>149.13999999999999</ele>
        <time>2026-06-26T18:46:40Z</time>
      </trkpt>
      <trkpt lat="52.098622983321548" lon="-9.468693025410175">
        <ele>150.09999999999999</ele>
        <time>2026-06-26T18:46:41Z</time>
      </trkpt>
      <trkpt lat="52.098636981099844" lon="-9.468708029016852">
        <ele>151.06</ele>
        <time>2026-06-26T18:46:42Z</time>
      </trkpt>
      <trkpt lat="52.098646033555269" lon="-9.468718003481627">
        <ele>152.03</ele>
        <time>2026-06-26T18:46:43Z</time>
      </trkpt>
      <trkpt lat="52.098660031333566" lon="-9.468734012916684">
        <ele>152.50999999999999</ele>
        <time>2026-06-26T18:46:44Z</time>
      </trkpt>
      <trkpt lat="52.098675034940243" lon="-9.468751028180122">
        <ele>152.99000000000001</ele>
        <time>2026-06-26T18:46:45Z</time>
      </trkpt>
      <trkpt lat="52.098688026890159" lon="-9.468766031786799">
        <ele>152.99000000000001</ele>
        <time>2026-06-26T18:46:46Z</time>
      </trkpt>
      <trkpt lat="52.098698001354933" lon="-9.468778017908335">
        <ele>153.47</ele>
        <time>2026-06-26T18:46:47Z</time>
      </trkpt>
      <trkpt lat="52.098704958334565" lon="-9.468785980716348">
        <ele>153.94999999999999</ele>
        <time>2026-06-26T18:46:48Z</time>
      </trkpt>
      <trkpt lat="52.098708981648088" lon="-9.468791009858251">
        <ele>154.91</ele>
        <time>2026-06-26T18:46:49Z</time>
      </trkpt>
      <trkpt lat="52.098719961941242" lon="-9.468802995979786">
        <ele>155.87</ele>
        <time>2026-06-26T18:47:03Z</time>
      </trkpt>
      <trkpt lat="52.098719961941242" lon="-9.468802995979786">
        <ele>155.87</ele>
        <time>2026-06-26T18:47:21Z</time>
      </trkpt>
      <trkpt lat="52.098719961941242" lon="-9.468802995979786">
        <ele>156.34999999999999</ele>
        <time>2026-06-26T18:47:40Z</time>
      </trkpt>
      <trkpt lat="52.098719961941242" lon="-9.468802995979786">
        <ele>154.91</ele>
        <time>2026-06-26T18:47:52Z</time>
      </trkpt>
      <trkpt lat="52.09882196970284" lon="-9.468873990699649">
        <ele>135.19999999999999</ele>
        <time>2026-06-26T19:16:54Z</time>
      </trkpt>
      <trkpt lat="52.098792968317866" lon="-9.468881031498313">
        <ele>146.74000000000001</ele>
        <time>2026-06-26T19:17:33Z</time>
      </trkpt>
      <trkpt lat="52.098696995526552" lon="-9.468777012079954">
        <ele>147.22</ele>
        <time>2026-06-26T19:17:37Z</time>
      </trkpt>
      <trkpt lat="52.098667994141579" lon="-9.468743987381458">
        <ele>146.74000000000001</ele>
        <time>2026-06-26T19:17:38Z</time>
      </trkpt>
      <trkpt lat="52.098535979166627" lon="-9.468733007088304">
        <ele>146.74000000000001</ele>
        <time>2026-06-26T19:17:39Z</time>
      </trkpt>
      <trkpt lat="52.098462972790003" lon="-9.468856975436211">
        <ele>146.74000000000001</ele>
        <time>2026-06-26T19:17:47Z</time>
      </trkpt>
      <trkpt lat="52.098419973626733" lon="-9.468935010954738">
        <ele>146.74000000000001</ele>
        <time>2026-06-26T19:17:48Z</time>
      </trkpt>
      <trkpt lat="52.098373034968972" lon="-9.469028972089291">
        <ele>146.74000000000001</ele>
        <time>2026-06-26T19:17:49Z</time>
      </trkpt>
      <trkpt lat="52.098113028332591" lon="-9.469560971483588">
        <ele>144.81999999999999</ele>
        <time>2026-06-26T19:17:54Z</time>
      </trkpt>
      <trkpt lat="52.098037004470825" lon="-9.469719976186752">
        <ele>143.84999999999999</ele>
        <time>2026-06-26T19:17:57Z</time>
      </trkpt>
      <trkpt lat="52.098018983379006" lon="-9.46975601837039">
        <ele>143.37</ele>
        <time>2026-06-26T19:17:58Z</time>
      </trkpt>
      <trkpt lat="52.098055025562644" lon="-9.469890967011452">
        <ele>143.37</ele>
        <time>2026-06-26T19:17:59Z</time>
      </trkpt>
      <trkpt lat="52.098105987533927" lon="-9.469936983659864">
        <ele>143.37</ele>
        <time>2026-06-26T19:18:00Z</time>
      </trkpt>
      <trkpt lat="52.098164996132255" lon="-9.469990041106939">
        <ele>143.37</ele>
        <time>2026-06-26T19:18:01Z</time>
      </trkpt>
      <trkpt lat="52.098866980522871" lon="-9.470485998317599">
        <ele>144.81999999999999</ele>
        <time>2026-06-26T19:18:08Z</time>
      </trkpt>
      <trkpt lat="52.100310008972883" lon="-9.471517978236079">
        <ele>146.74000000000001</ele>
        <time>2026-06-26T19:18:19Z</time>
      </trkpt>
      <trkpt lat="52.101868037134409" lon="-9.472361030057073">
        <ele>151.06</ele>
        <time>2026-06-26T19:18:32Z</time>
      </trkpt>
      <trkpt lat="52.102933963760734" lon="-9.47254903614521">
        <ele>151.53999999999999</ele>
        <time>2026-06-26T19:18:40Z</time>
      </trkpt>
      <trkpt lat="52.103993017226458" lon="-9.472361030057073">
        <ele>150.09999999999999</ele>
        <time>2026-06-26T19:18:47Z</time>
      </trkpt>
      <trkpt lat="52.106251018121839" lon="-9.471709001809359">
        <ele>152.03</ele>
        <time>2026-06-26T19:19:02Z</time>
      </trkpt>
      <trkpt lat="52.107528001070023" lon="-9.47139099240303">
        <ele>151.53999999999999</ele>
        <time>2026-06-26T19:19:11Z</time>
      </trkpt>
      <trkpt lat="52.10812596604228" lon="-9.471256965771318">
        <ele>153.94999999999999</ele>
        <time>2026-06-26T19:19:18Z</time>
      </trkpt>
      <trkpt lat="52.108265021815896" lon="-9.471225030720234">
        <ele>154.91</ele>
        <time>2026-06-26T19:19:21Z</time>
      </trkpt>
      <trkpt lat="52.108284970745444" lon="-9.471221007406712">
        <ele>155.38999999999999</ele>
        <time>2026-06-26T19:19:22Z</time>
      </trkpt>
      <trkpt lat="52.108368035405874" lon="-9.47130499407649">
        <ele>155.38999999999999</ele>
        <time>2026-06-26T19:19:23Z</time>
      </trkpt>
      <trkpt lat="52.108367029577494" lon="-9.471360985189676">
        <ele>155.38999999999999</ele>
        <time>2026-06-26T19:19:24Z</time>
      </trkpt>
      <trkpt lat="52.108366023749113" lon="-9.471448995172977">
        <ele>155.38999999999999</ele>
        <time>2026-06-26T19:19:25Z</time>
      </trkpt>
      <trkpt lat="52.108364012092352" lon="-9.471563994884491">
        <ele>155.38999999999999</ele>
        <time>2026-06-26T19:19:26Z</time>
      </trkpt>
      <trkpt lat="52.108362000435591" lon="-9.471707995980978">
        <ele>155.38999999999999</ele>
        <time>2026-06-26T19:19:27Z</time>
      </trkpt>
      <trkpt lat="52.108339034020901" lon="-9.473144989460707">
        <ele>157.78999999999999</ele>
        <time>2026-06-26T19:19:34Z</time>
      </trkpt>
      <trkpt lat="52.108307015150785" lon="-9.475158993154764">
        <ele>154.43000000000001</ele>
        <time>2026-06-26T19:19:43Z</time>
      </trkpt>
      <trkpt lat="52.108268039301038" lon="-9.476870996877551">
        <ele>150.58000000000001</ele>
        <time>2026-06-26T19:19:51Z</time>
      </trkpt>
      <trkpt lat="52.108192015439272" lon="-9.479491012170911">
        <ele>147.22</ele>
        <time>2026-06-26T19:20:02Z</time>
      </trkpt>
      <trkpt lat="52.108112974092364" lon="-9.481850014999509">
        <ele>146.74000000000001</ele>
        <time>2026-06-26T19:20:12Z</time>
      </trkpt>
      <trkpt lat="52.10803996771574" lon="-9.484007013961673">
        <ele>147.69999999999999</ele>
        <time>2026-06-26T19:20:21Z</time>
      </trkpt>
      <trkpt lat="52.107960004359484" lon="-9.486462995409966">
        <ele>155.87</ele>
        <time>2026-06-26T19:20:31Z</time>
      </trkpt>
      <trkpt lat="52.1079539693892" lon="-9.487989004701376">
        <ele>157.78999999999999</ele>
        <time>2026-06-26T19:20:39Z</time>
      </trkpt>
      <trkpt lat="52.108006021007895" lon="-9.489874010905623">
        <ele>151.06</ele>
        <time>2026-06-26T19:20:50Z</time>
      </trkpt>
      <trkpt lat="52.108057988807559" lon="-9.491620967164636">
        <ele>143.84999999999999</ele>
        <time>2026-06-26T19:21:00Z</time>
      </trkpt>
      <trkpt lat="52.108179023489356" lon="-9.493427015841007">
        <ele>138.56999999999999</ele>
        <time>2026-06-26T19:21:10Z</time>
      </trkpt>
      <trkpt lat="52.108197966590524" lon="-9.493560958653688">
        <ele>138.09</ele>
        <time>2026-06-26T19:21:11Z</time>
      </trkpt>
      <trkpt lat="52.108267033472657" lon="-9.493759023025632">
        <ele>137.61000000000001</ele>
        <time>2026-06-26T19:21:12Z</time>
      </trkpt>
      <trkpt lat="52.108537014573812" lon="-9.494345001876354">
        <ele>134.24000000000001</ele>
        <time>2026-06-26T19:21:16Z</time>
      </trkpt>
      <trkpt lat="52.10917697288096" lon="-9.495623996481299">
        <ele>127.98999999999999</ele>
        <time>2026-06-26T19:21:25Z</time>
      </trkpt>
      <trkpt lat="52.109710983932018" lon="-9.496945990249515">
        <ele>120.3</ele>
        <time>2026-06-26T19:21:33Z</time>
      </trkpt>
      <trkpt lat="52.109758006408811" lon="-9.497110024094582">
        <ele>119.34</ele>
        <time>2026-06-26T19:21:34Z</time>
      </trkpt>
      <trkpt lat="52.109804023057222" lon="-9.497282020747662">
        <ele>117.90000000000001</ele>
        <time>2026-06-26T19:21:35Z</time>
      </trkpt>
      <trkpt lat="52.109850039705634" lon="-9.4974509999156">
        <ele>116.94</ele>
        <time>2026-06-26T19:21:36Z</time>
      </trkpt>
      <trkpt lat="52.110047014430165" lon="-9.498757990077138">
        <ele>114.05</ele>
        <time>2026-06-26T19:21:43Z</time>
      </trkpt>
      <trkpt lat="52.110079033300281" lon="-9.498945996165276">
        <ele>113.56999999999999</ele>
        <time>2026-06-26T19:21:44Z</time>
      </trkpt>
      <trkpt lat="52.110180035233498" lon="-9.499307004734874">
        <ele>113.09</ele>
        <time>2026-06-26T19:21:46Z</time>
      </trkpt>
      <trkpt lat="52.110232003033161" lon="-9.499483024701476">
        <ele>112.61</ele>
        <time>2026-06-26T19:21:47Z</time>
      </trkpt>
      <trkpt lat="52.110290005803108" lon="-9.499655021354556">
        <ele>112.13</ele>
        <time>2026-06-26T19:21:48Z</time>
      </trkpt>
      <trkpt lat="52.110915966331959" lon="-9.501451011747122">
        <ele>105.40000000000001</ele>
        <time>2026-06-26T19:21:59Z</time>
      </trkpt>
      <trkpt lat="52.111289966851473" lon="-9.503049021586776">
        <ele>104.44</ele>
        <time>2026-06-26T19:22:10Z</time>
      </trkpt>
      <trkpt lat="52.111742002889514" lon="-9.504924975335598">
        <ele>102.04000000000001</ele>
        <time>2026-06-26T19:22:22Z</time>
      </trkpt>
      <trkpt lat="52.111839987337589" lon="-9.505330994725227">
        <ele>101.56</ele>
        <time>2026-06-26T19:22:26Z</time>
      </trkpt>
      <trkpt lat="52.111851973459125" lon="-9.505383968353272">
        <ele>101.56</ele>
        <time>2026-06-26T19:22:27Z</time>
      </trkpt>
      <trkpt lat="52.11186395958066" lon="-9.505430990830064">
        <ele>101.56</ele>
        <time>2026-06-26T19:22:28Z</time>
      </trkpt>
      <trkpt lat="52.111785002052784" lon="-9.505538027733564">
        <ele>101.08</ele>
        <time>2026-06-26T19:22:29Z</time>
      </trkpt>
      <trkpt lat="52.111752983182669" lon="-9.505540039390326">
        <ele>100.59999999999999</ele>
        <time>2026-06-26T19:22:30Z</time>
      </trkpt>
      <trkpt lat="52.111710989847779" lon="-9.505541967228055">
        <ele>100.59999999999999</ele>
        <time>2026-06-26T19:22:31Z</time>
      </trkpt>
      <trkpt lat="52.111664973199368" lon="-9.505543978884816">
        <ele>100.59999999999999</ele>
        <time>2026-06-26T19:22:32Z</time>
      </trkpt>
      <trkpt lat="52.111619040369987" lon="-9.505544984713197">
        <ele>100.11</ele>
        <time>2026-06-26T19:22:33Z</time>
      </trkpt>
      <trkpt lat="52.111577969044447" lon="-9.505546996369958">
        <ele>100.11</ele>
        <time>2026-06-26T19:22:34Z</time>
      </trkpt>
      <trkpt lat="52.111374037340283" lon="-9.505555965006352">
        <ele>99.150000000000006</ele>
        <time>2026-06-26T19:22:45Z</time>
      </trkpt>
      <trkpt lat="52.111351992934942" lon="-9.505555965006352">
        <ele>98.670000000000002</ele>
        <time>2026-06-26T19:23:00Z</time>
      </trkpt>
      <trkpt lat="52.111351992934942" lon="-9.505555965006352">
        <ele>98.189999999999998</ele>
        <time>2026-06-26T19:23:36Z</time>
      </trkpt>
      <trkpt lat="52.111351992934942" lon="-9.505555965006352">
        <ele>98.189999999999998</ele>
        <time>2026-06-26T19:24:30Z</time>
      </trkpt>
    </trkseg>
  </trk>

</gpx>